<?xml version='1.0' encoding='UTF-8'?><gpx version="1.1" creator="JPX - https://github.com/jenetics/jpx" xmlns="http://www.topografix.com/GPX/1/1"><trk><trkseg><trkpt lat="45.352677139695984" lon="8.907994686323352"><ele>87.0</ele><time>2026-03-29T13:45:59Z</time></trkpt><trkpt lat="45.35254823089055" lon="8.907973238849765"><ele>87.0</ele><time>2026-03-29T13:46:01Z</time></trkpt><trkpt lat="45.35246781661743" lon="8.907926677748703"><ele>87.0</ele><time>2026-03-29T13:46:02Z</time></trkpt><trkpt lat="45.352385344834296" lon="8.90791537849099"><ele>87.0</ele><time>2026-03-29T13:46:03Z</time></trkpt><trkpt lat="45.35231824575808" lon="8.907906322435197"><ele>87.0</ele><time>2026-03-29T13:46:04Z</time></trkpt><trkpt lat="45.352228338323705" lon="8.907914694456709"><ele>86.6</ele><time>2026-03-29T13:46:05Z</time></trkpt><trkpt lat="45.35212416651131" lon="8.907879944345744"><ele>86.19999999999999</ele><time>2026-03-29T13:46:06Z</time></trkpt><trkpt lat="45.35201420083895" lon="8.907863155966478"><ele>85.8</ele><time>2026-03-29T13:46:07Z</time></trkpt><trkpt lat="45.35190073584939" lon="8.907868459113464"><ele>85.4</ele><time>2026-03-29T13:46:08Z</time></trkpt><trkpt lat="45.35179727185423" lon="8.907829965437594"><ele>85.0</ele><time>2026-03-29T13:46:09Z</time></trkpt><trkpt lat="45.35169602240199" lon="8.907835031803538"><ele>85.0</ele><time>2026-03-29T13:46:10Z</time></trkpt><trkpt lat="45.35158873164932" lon="8.907797773972105"><ele>85.0</ele><time>2026-03-29T13:46:11Z</time></trkpt><trkpt lat="45.351480806918" lon="8.907798773125002"><ele>85.0</ele><time>2026-03-29T13:46:12Z</time></trkpt><trkpt lat="45.35137448412446" lon="8.907781699143609"><ele>85.0</ele><time>2026-03-29T13:46:13Z</time></trkpt><trkpt lat="45.351271000509975" lon="8.907768010746464"><ele>85.0</ele><time>2026-03-29T13:46:14Z</time></trkpt><trkpt lat="45.35116764380425" lon="8.907749222529908"><ele>85.0</ele><time>2026-03-29T13:46:15Z</time></trkpt><trkpt lat="45.351074933457454" lon="8.907730635979414"><ele>85.0</ele><time>2026-03-29T13:46:16Z</time></trkpt><trkpt lat="45.35097410680809" lon="8.907714179033226"><ele>85.0</ele><time>2026-03-29T13:46:17Z</time></trkpt><trkpt lat="45.35086790290883" lon="8.907700161239353"><ele>85.0</ele><time>2026-03-29T13:46:18Z</time></trkpt><trkpt lat="45.350766690950756" lon="8.907688031707723"><ele>85.0</ele><time>2026-03-29T13:46:19Z</time></trkpt><trkpt lat="45.3506571430252" lon="8.907673745832483"><ele>85.0</ele><time>2026-03-29T13:46:20Z</time></trkpt><trkpt lat="45.35054422895301" lon="8.907658797510107"><ele>85.0</ele><time>2026-03-29T13:46:21Z</time></trkpt><trkpt lat="45.35043024000801" lon="8.90764255563589"><ele>85.0</ele><time>2026-03-29T13:46:22Z</time></trkpt><trkpt lat="45.35031300861807" lon="8.907625680655231"><ele>85.0</ele><time>2026-03-29T13:46:23Z</time></trkpt><trkpt lat="45.350193783079845" lon="8.907610402967276"><ele>84.8</ele><time>2026-03-29T13:46:24Z</time></trkpt><trkpt lat="45.3500736293784" lon="8.907595995100204"><ele>84.6</ele><time>2026-03-29T13:46:25Z</time></trkpt><trkpt lat="45.34995734682009" lon="8.907579572307379"><ele>84.4</ele><time>2026-03-29T13:46:26Z</time></trkpt><trkpt lat="45.34984906375803" lon="8.90756354625622"><ele>84.2</ele><time>2026-03-29T13:46:27Z</time></trkpt><trkpt lat="45.349746684772235" lon="8.9075458255355"><ele>84.0</ele><time>2026-03-29T13:46:28Z</time></trkpt><trkpt lat="45.34964375540994" lon="8.907534817161594"><ele>84.0</ele><time>2026-03-29T13:46:29Z</time></trkpt><trkpt lat="45.349538941905514" lon="8.907521551217368"><ele>84.0</ele><time>2026-03-29T13:46:30Z</time></trkpt><trkpt lat="45.34943815120642" lon="8.907510634585162"><ele>84.0</ele><time>2026-03-29T13:46:31Z</time></trkpt><trkpt lat="45.349334689580495" lon="8.907506160739352"><ele>84.0</ele><time>2026-03-29T13:46:32Z</time></trkpt><trkpt lat="45.34922527762922" lon="8.907506911037439"><ele>84.0</ele><time>2026-03-29T13:46:33Z</time></trkpt><trkpt lat="45.34911394749368" lon="8.907513733056902"><ele>84.0</ele><time>2026-03-29T13:46:34Z</time></trkpt><trkpt lat="45.34899923941625" lon="8.907523807687692"><ele>84.0</ele><time>2026-03-29T13:46:35Z</time></trkpt><trkpt lat="45.34889258986172" lon="8.90753516791688"><ele>84.0</ele><time>2026-03-29T13:46:36Z</time></trkpt><trkpt lat="45.34878301866555" lon="8.907544637047076"><ele>84.0</ele><time>2026-03-29T13:46:37Z</time></trkpt><trkpt lat="45.34867642303225" lon="8.90754912728549"><ele>84.0</ele><time>2026-03-29T13:46:38Z</time></trkpt><trkpt lat="45.348562915924035" lon="8.907551123156871"><ele>84.0</ele><time>2026-03-29T13:46:39Z</time></trkpt><trkpt lat="45.34845539665723" lon="8.907554342536711"><ele>84.0</ele><time>2026-03-29T13:46:40Z</time></trkpt><trkpt lat="45.34834230868153" lon="8.907557376113521"><ele>84.0</ele><time>2026-03-29T13:46:41Z</time></trkpt><trkpt lat="45.348228432253784" lon="8.90755889053804"><ele>84.0</ele><time>2026-03-29T13:46:42Z</time></trkpt><trkpt lat="45.348114606429895" lon="8.907561888843448"><ele>84.0</ele><time>2026-03-29T13:46:43Z</time></trkpt><trkpt lat="45.347995051912655" lon="8.907563960125739"><ele>83.75</ele><time>2026-03-29T13:46:44Z</time></trkpt><trkpt lat="45.347875819522585" lon="8.907567377829496"><ele>83.5</ele><time>2026-03-29T13:46:45Z</time></trkpt><trkpt lat="45.3477491843462" lon="8.90756908644309"><ele>83.25</ele><time>2026-03-29T13:46:46Z</time></trkpt><trkpt lat="45.34761288258954" lon="8.907571014812785"><ele>83.0</ele><time>2026-03-29T13:46:47Z</time></trkpt><trkpt lat="45.34747492355896" lon="8.907576842345076"><ele>83.2</ele><time>2026-03-29T13:46:48Z</time></trkpt><trkpt lat="45.347352306732844" lon="8.907580733612983"><ele>83.4</ele><time>2026-03-29T13:46:49Z</time></trkpt><trkpt lat="45.3472382360111" lon="8.907579844014277"><ele>83.60000000000001</ele><time>2026-03-29T13:46:50Z</time></trkpt><trkpt lat="45.347136473399296" lon="8.90758173680244"><ele>83.80000000000001</ele><time>2026-03-29T13:46:50.999Z</time></trkpt><trkpt lat="45.34704124187174" lon="8.907579760496784"><ele>84.0</ele><time>2026-03-29T13:46:51.999Z</time></trkpt><trkpt lat="45.346929559360134" lon="8.90757746682444"><ele>84.0</ele><time>2026-03-29T13:46:52.999Z</time></trkpt><trkpt lat="45.346826166850136" lon="8.90757315931766"><ele>84.0</ele><time>2026-03-29T13:46:53.999Z</time></trkpt><trkpt lat="45.34671187954829" lon="8.90756258083774"><ele>84.0</ele><time>2026-03-29T13:46:54.999Z</time></trkpt><trkpt lat="45.346622564340386" lon="8.907563967736817"><ele>84.0</ele><time>2026-03-29T13:46:55.999Z</time></trkpt><trkpt lat="45.34652700066078" lon="8.907563993379894"><ele>84.0</ele><time>2026-03-29T13:46:56.999Z</time></trkpt><trkpt lat="45.34642665227535" lon="8.907561754627974"><ele>84.0</ele><time>2026-03-29T13:46:57.999Z</time></trkpt><trkpt lat="45.34632687861226" lon="8.907562204834882"><ele>84.0</ele><time>2026-03-29T13:46:58.999Z</time></trkpt><trkpt lat="45.34622370674058" lon="8.907565447361804"><ele>84.0</ele><time>2026-03-29T13:46:59.999Z</time></trkpt><trkpt lat="45.346125219152036" lon="8.907562420467208"><ele>84.0</ele><time>2026-03-29T13:47:00.999Z</time></trkpt><trkpt lat="45.346029147631995" lon="8.90756141893766"><ele>84.0</ele><time>2026-03-29T13:47:01.999Z</time></trkpt><trkpt lat="45.3459317007128" lon="8.907557462284027"><ele>84.0</ele><time>2026-03-29T13:47:02.999Z</time></trkpt><trkpt lat="45.34584615427091" lon="8.907552650671962"><ele>84.0</ele><time>2026-03-29T13:47:03.999Z</time></trkpt><trkpt lat="45.345750944137194" lon="8.907547523684277"><ele>84.0</ele><time>2026-03-29T13:47:04.999Z</time></trkpt><trkpt lat="45.345636963002434" lon="8.907548937450692"><ele>84.0</ele><time>2026-03-29T13:47:05.999Z</time></trkpt><trkpt lat="45.34553981698889" lon="8.907552233253883"><ele>84.0</ele><time>2026-03-29T13:47:06.999Z</time></trkpt><trkpt lat="45.345440055163735" lon="8.907550091515168"><ele>84.4</ele><time>2026-03-29T13:47:07.999Z</time></trkpt><trkpt lat="45.345330496281555" lon="8.907547158591841"><ele>84.80000000000001</ele><time>2026-03-29T13:47:08.999Z</time></trkpt><trkpt lat="45.34522579500535" lon="8.90754716129914"><ele>85.19999999999999</ele><time>2026-03-29T13:47:09.999Z</time></trkpt><trkpt lat="45.34511706344509" lon="8.907540702484235"><ele>85.6</ele><time>2026-03-29T13:47:10.999Z</time></trkpt><trkpt lat="45.345006782518105" lon="8.907534746199284"><ele>86.0</ele><time>2026-03-29T13:47:12Z</time></trkpt><trkpt lat="45.34489994432076" lon="8.907535623468481"><ele>86.0</ele><time>2026-03-29T13:47:13Z</time></trkpt><trkpt lat="45.34479595160137" lon="8.907534728970266"><ele>86.0</ele><time>2026-03-29T13:47:14Z</time></trkpt><trkpt lat="45.344693200803434" lon="8.907528098518092"><ele>86.0</ele><time>2026-03-29T13:47:15Z</time></trkpt><trkpt lat="45.34458434479025" lon="8.907521688770727"><ele>86.0</ele><time>2026-03-29T13:47:16Z</time></trkpt><trkpt lat="45.34448246181459" lon="8.907515915189672"><ele>86.0</ele><time>2026-03-29T13:47:17Z</time></trkpt><trkpt lat="45.344381745747604" lon="8.907515559725937"><ele>85.8</ele><time>2026-03-29T13:47:18Z</time></trkpt><trkpt lat="45.34427309019663" lon="8.907513685228153"><ele>85.6</ele><time>2026-03-29T13:47:19Z</time></trkpt><trkpt lat="45.34416313530297" lon="8.907510246484454"><ele>85.4</ele><time>2026-03-29T13:47:20Z</time></trkpt><trkpt lat="45.34405534228063" lon="8.90750562036947"><ele>85.2</ele><time>2026-03-29T13:47:21Z</time></trkpt><trkpt lat="45.34396021445239" lon="8.90750252310436"><ele>85.0</ele><time>2026-03-29T13:47:22Z</time></trkpt><trkpt lat="45.34385478392001" lon="8.90749907350271"><ele>85.0</ele><time>2026-03-29T13:47:23Z</time></trkpt><trkpt lat="45.34374649336006" lon="8.907499471366322"><ele>85.0</ele><time>2026-03-29T13:47:24Z</time></trkpt><trkpt lat="45.343642586802545" lon="8.907494994831051"><ele>85.0</ele><time>2026-03-29T13:47:25Z</time></trkpt><trkpt lat="45.343547097402954" lon="8.907494247349147"><ele>85.0</ele><time>2026-03-29T13:47:26Z</time></trkpt><trkpt lat="45.343460570497285" lon="8.90749440474018"><ele>85.0</ele><time>2026-03-29T13:47:27Z</time></trkpt><trkpt lat="45.34338912447535" lon="8.907489704981533"><ele>85.0</ele><time>2026-03-29T13:47:28Z</time></trkpt><trkpt lat="45.343312744088664" lon="8.907488614234707"><ele>85.0</ele><time>2026-03-29T13:47:29Z</time></trkpt><trkpt lat="45.34322116496179" lon="8.907487641546712"><ele>85.0</ele><time>2026-03-29T13:47:30Z</time></trkpt><trkpt lat="45.34313500023506" lon="8.907492664553313"><ele>85.0</ele><time>2026-03-29T13:47:31Z</time></trkpt><trkpt lat="45.34303028733639" lon="8.907484901866532"><ele>85.0</ele><time>2026-03-29T13:47:32Z</time></trkpt><trkpt lat="45.342922889567156" lon="8.907482193540874"><ele>84.6</ele><time>2026-03-29T13:47:33Z</time></trkpt><trkpt lat="45.34282723869871" lon="8.907477524641658"><ele>84.2</ele><time>2026-03-29T13:47:34Z</time></trkpt><trkpt lat="45.342755046643745" lon="8.90745024898027"><ele>83.80000000000001</ele><time>2026-03-29T13:47:35Z</time></trkpt><trkpt lat="45.34266145847338" lon="8.90744428673829"><ele>83.4</ele><time>2026-03-29T13:47:36Z</time></trkpt><trkpt lat="45.342563133395956" lon="8.907440343064405"><ele>83.0</ele><time>2026-03-29T13:47:37Z</time></trkpt><trkpt lat="45.34247347620713" lon="8.907440313332566"><ele>83.0</ele><time>2026-03-29T13:47:38Z</time></trkpt><trkpt lat="45.34238780851069" lon="8.907463326467516"><ele>83.0</ele><time>2026-03-29T13:47:39Z</time></trkpt><trkpt lat="45.342306470566236" lon="8.907456760464179"><ele>83.0</ele><time>2026-03-29T13:47:40Z</time></trkpt><trkpt lat="45.34221736206405" lon="8.907507474265975"><ele>83.0</ele><time>2026-03-29T13:47:41Z</time></trkpt><trkpt lat="45.34213168236786" lon="8.907547382024077"><ele>83.0</ele><time>2026-03-29T13:47:42Z</time></trkpt><trkpt lat="45.342049817876024" lon="8.907606883489514"><ele>83.0</ele><time>2026-03-29T13:47:43Z</time></trkpt><trkpt lat="45.34196607590826" lon="8.907684949135364"><ele>83.0</ele><time>2026-03-29T13:47:44Z</time></trkpt><trkpt lat="45.34188870255756" lon="8.907739073329848"><ele>83.0</ele><time>2026-03-29T13:47:45Z</time></trkpt><trkpt lat="45.34182884174839" lon="8.907811494937157"><ele>83.0</ele><time>2026-03-29T13:47:46Z</time></trkpt><trkpt lat="45.34179001632107" lon="8.90790812834081"><ele>83.0</ele><time>2026-03-29T13:47:47Z</time></trkpt><trkpt lat="45.34174844298589" lon="8.907995884560735"><ele>83.0</ele><time>2026-03-29T13:47:48Z</time></trkpt><trkpt lat="45.341715497407684" lon="8.90809847355754"><ele>83.0</ele><time>2026-03-29T13:47:49Z</time></trkpt><trkpt lat="45.341692023776865" lon="8.908221071664256"><ele>83.0</ele><time>2026-03-29T13:47:50Z</time></trkpt><trkpt lat="45.34167551245483" lon="8.908342156659891"><ele>83.0</ele><time>2026-03-29T13:47:51Z</time></trkpt><trkpt lat="45.34166410891225" lon="8.90845636837482"><ele>83.0</ele><time>2026-03-29T13:47:52Z</time></trkpt><trkpt lat="45.341660474791695" lon="8.908564934154203"><ele>83.0</ele><time>2026-03-29T13:47:53Z</time></trkpt><trkpt lat="45.34165643286714" lon="8.908681955469092"><ele>83.0</ele><time>2026-03-29T13:47:54Z</time></trkpt><trkpt lat="45.341647843298034" lon="8.908792964662974"><ele>83.0</ele><time>2026-03-29T13:47:55Z</time></trkpt><trkpt lat="45.3416277480657" lon="8.908930186178765"><ele>82.75</ele><time>2026-03-29T13:47:56Z</time></trkpt><trkpt lat="45.34159314158714" lon="8.90907979038482"><ele>82.5</ele><time>2026-03-29T13:47:57Z</time></trkpt><trkpt lat="45.341560972978044" lon="8.909243740767373"><ele>82.25</ele><time>2026-03-29T13:47:58Z</time></trkpt><trkpt lat="45.341537372105385" lon="8.909403830133376"><ele>82.0</ele><time>2026-03-29T13:47:59Z</time></trkpt><trkpt lat="45.341515267149774" lon="8.909561649809415"><ele>82.0</ele><time>2026-03-29T13:48:00Z</time></trkpt><trkpt lat="45.341490492630484" lon="8.909721081731126"><ele>82.0</ele><time>2026-03-29T13:48:01Z</time></trkpt><trkpt lat="45.34146614713878" lon="8.909885614993664"><ele>82.0</ele><time>2026-03-29T13:48:02Z</time></trkpt><trkpt lat="45.341445047179505" lon="8.910038670760343"><ele>82.0</ele><time>2026-03-29T13:48:03Z</time></trkpt><trkpt lat="45.34142713034759" lon="8.910170151863175"><ele>82.0</ele><time>2026-03-29T13:48:04Z</time></trkpt><trkpt lat="45.34140801178621" lon="8.91030652622115"><ele>81.6</ele><time>2026-03-29T13:48:05Z</time></trkpt><trkpt lat="45.34138709309576" lon="8.910462263051489"><ele>81.19999999999999</ele><time>2026-03-29T13:48:06Z</time></trkpt><trkpt lat="45.34136810643657" lon="8.910639940613764"><ele>80.8</ele><time>2026-03-29T13:48:07Z</time></trkpt><trkpt lat="45.341348654467296" lon="8.910795693346461"><ele>80.4</ele><time>2026-03-29T13:48:08Z</time></trkpt><trkpt lat="45.34132881805965" lon="8.910922922793313"><ele>80.0</ele><time>2026-03-29T13:48:09Z</time></trkpt><trkpt lat="45.341309812740334" lon="8.911062593347287"><ele>80.0</ele><time>2026-03-29T13:48:10Z</time></trkpt><trkpt lat="45.341290355923526" lon="8.911186438519325"><ele>80.0</ele><time>2026-03-29T13:48:11Z</time></trkpt><trkpt lat="45.341265838162116" lon="8.911319254742546"><ele>80.0</ele><time>2026-03-29T13:48:12Z</time></trkpt><trkpt lat="45.34123683623363" lon="8.91143928949924"><ele>80.0</ele><time>2026-03-29T13:48:13Z</time></trkpt><trkpt lat="45.34120752223566" lon="8.911563995743974"><ele>80.0</ele><time>2026-03-29T13:48:14Z</time></trkpt><trkpt lat="45.341177546936244" lon="8.911655028719926"><ele>80.0</ele><time>2026-03-29T13:48:15Z</time></trkpt><trkpt lat="45.34114302465134" lon="8.911748162235115"><ele>80.2</ele><time>2026-03-29T13:48:16Z</time></trkpt><trkpt lat="45.34109317427738" lon="8.911871798489582"><ele>80.4</ele><time>2026-03-29T13:48:17Z</time></trkpt><trkpt lat="45.34103642585476" lon="8.912014487038826"><ele>80.6</ele><time>2026-03-29T13:48:18Z</time></trkpt><trkpt lat="45.340974040602276" lon="8.91214482530744"><ele>80.8</ele><time>2026-03-29T13:48:19Z</time></trkpt><trkpt lat="45.34091762223865" lon="8.912267708590228"><ele>81.0</ele><time>2026-03-29T13:48:20Z</time></trkpt><trkpt lat="45.34085718619258" lon="8.912392027980008"><ele>81.0</ele><time>2026-03-29T13:48:21Z</time></trkpt><trkpt lat="45.340789510722196" lon="8.912514525580253"><ele>81.0</ele><time>2026-03-29T13:48:22Z</time></trkpt><trkpt lat="45.34071939753604" lon="8.912632802957535"><ele>81.0</ele><time>2026-03-29T13:48:23Z</time></trkpt><trkpt lat="45.34064158589419" lon="8.912758734241729"><ele>81.0</ele><time>2026-03-29T13:48:23.999Z</time></trkpt><trkpt lat="45.34056591340119" lon="8.912880728856567"><ele>81.0</ele><time>2026-03-29T13:48:24.999Z</time></trkpt><trkpt lat="45.34050737258538" lon="8.912986155659452"><ele>81.0</ele><time>2026-03-29T13:48:25.999Z</time></trkpt><trkpt lat="45.340449488327984" lon="8.913086329802416"><ele>81.0</ele><time>2026-03-29T13:48:26.999Z</time></trkpt><trkpt lat="45.340391502555086" lon="8.913186299188114"><ele>81.0</ele><time>2026-03-29T13:48:27.999Z</time></trkpt><trkpt lat="45.34032176226335" lon="8.913293655253284"><ele>81.0</ele><time>2026-03-29T13:48:28.999Z</time></trkpt><trkpt lat="45.34025570360536" lon="8.913393858405405"><ele>81.4</ele><time>2026-03-29T13:48:29.999Z</time></trkpt><trkpt lat="45.340183059316615" lon="8.913503775615434"><ele>81.8</ele><time>2026-03-29T13:48:30.999Z</time></trkpt><trkpt lat="45.34010959485701" lon="8.913598271044087"><ele>82.2</ele><time>2026-03-29T13:48:31.999Z</time></trkpt><trkpt lat="45.34002847284855" lon="8.913694661311558"><ele>82.60000000000001</ele><time>2026-03-29T13:48:32.999Z</time></trkpt><trkpt lat="45.33994316749507" lon="8.913784711158893"><ele>83.0</ele><time>2026-03-29T13:48:33.999Z</time></trkpt><trkpt lat="45.339843399349505" lon="8.913880213757446"><ele>83.0</ele><time>2026-03-29T13:48:34.999Z</time></trkpt><trkpt lat="45.339743622643475" lon="8.913974084217744"><ele>83.0</ele><time>2026-03-29T13:48:35.999Z</time></trkpt><trkpt lat="45.33964695023803" lon="8.914054471515428"><ele>83.0</ele><time>2026-03-29T13:48:36.999Z</time></trkpt><trkpt lat="45.33954573074861" lon="8.91413741675676"><ele>83.0</ele><time>2026-03-29T13:48:37.999Z</time></trkpt><trkpt lat="45.33946293349723" lon="8.914203030283483"><ele>83.0</ele><time>2026-03-29T13:48:38.999Z</time></trkpt><trkpt lat="45.33937267543067" lon="8.914285314627708"><ele>82.60000000000001</ele><time>2026-03-29T13:48:39.999Z</time></trkpt><trkpt lat="45.33928987084975" lon="8.91436230207333"><ele>82.2</ele><time>2026-03-29T13:48:40.999Z</time></trkpt><trkpt lat="45.339207076763365" lon="8.914433778120896"><ele>81.8</ele><time>2026-03-29T13:48:41.999Z</time></trkpt><trkpt lat="45.33911716367795" lon="8.914518447518132"><ele>81.4</ele><time>2026-03-29T13:48:42.999Z</time></trkpt><trkpt lat="45.33901592390288" lon="8.91460439348355"><ele>81.0</ele><time>2026-03-29T13:48:43.999Z</time></trkpt><trkpt lat="45.33892101626063" lon="8.914678737321905"><ele>81.4</ele><time>2026-03-29T13:48:44.999Z</time></trkpt><trkpt lat="45.338835910088775" lon="8.914748048475916"><ele>81.8</ele><time>2026-03-29T13:48:45.999Z</time></trkpt><trkpt lat="45.338752690285446" lon="8.914810477054898"><ele>82.2</ele><time>2026-03-29T13:48:46.999Z</time></trkpt><trkpt lat="45.33868491867448" lon="8.914873598053735"><ele>82.60000000000001</ele><time>2026-03-29T13:48:47.999Z</time></trkpt><trkpt lat="45.33858766099686" lon="8.9149457136494"><ele>83.0</ele><time>2026-03-29T13:48:48.999Z</time></trkpt><trkpt lat="45.33850607639483" lon="8.915015373018988"><ele>82.80000000000001</ele><time>2026-03-29T13:48:49.999Z</time></trkpt><trkpt lat="45.338445319758954" lon="8.91508834922498"><ele>82.6</ele><time>2026-03-29T13:48:50.999Z</time></trkpt><trkpt lat="45.338368008984375" lon="8.915175506260692"><ele>82.4</ele><time>2026-03-29T13:48:51.999Z</time></trkpt><trkpt lat="45.338294454924934" lon="8.915279694577418"><ele>82.19999999999999</ele><time>2026-03-29T13:48:52.999Z</time></trkpt><trkpt lat="45.33822531625005" lon="8.915406335840295"><ele>82.0</ele><time>2026-03-29T13:48:53.999Z</time></trkpt><trkpt lat="45.33814380189215" lon="8.915559326843736"><ele>82.0</ele><time>2026-03-29T13:48:54.999Z</time></trkpt><trkpt lat="45.33807386929981" lon="8.915697982802385"><ele>82.0</ele><time>2026-03-29T13:48:55.999Z</time></trkpt><trkpt lat="45.338010625502065" lon="8.91582160203827"><ele>82.0</ele><time>2026-03-29T13:48:56.999Z</time></trkpt><trkpt lat="45.33795440511816" lon="8.915925215284037"><ele>82.0</ele><time>2026-03-29T13:48:57.999Z</time></trkpt><trkpt lat="45.33789577748664" lon="8.916040858384603"><ele>82.0</ele><time>2026-03-29T13:48:58.999Z</time></trkpt><trkpt lat="45.33783733673943" lon="8.91614710277884"><ele>82.0</ele><time>2026-03-29T13:48:59.999Z</time></trkpt><trkpt lat="45.337778323592744" lon="8.916262802810381"><ele>82.0</ele><time>2026-03-29T13:49:00.999Z</time></trkpt><trkpt lat="45.33771852456276" lon="8.916373654144081"><ele>82.0</ele><time>2026-03-29T13:49:01.999Z</time></trkpt><trkpt lat="45.33766249645985" lon="8.916483077742328"><ele>82.0</ele><time>2026-03-29T13:49:02.999Z</time></trkpt><trkpt lat="45.33761693373664" lon="8.916567315716486"><ele>82.0</ele><time>2026-03-29T13:49:03.999Z</time></trkpt><trkpt lat="45.33756433738609" lon="8.916679134904205"><ele>82.16666666666666</ele><time>2026-03-29T13:49:04.999Z</time></trkpt><trkpt lat="45.33752003268883" lon="8.916770534547963"><ele>82.33333333333333</ele><time>2026-03-29T13:49:05.999Z</time></trkpt><trkpt lat="45.33747708210114" lon="8.91685707779831"><ele>82.5</ele><time>2026-03-29T13:49:06.999Z</time></trkpt><trkpt lat="45.33742848602363" lon="8.9169594328152"><ele>82.66666666666667</ele><time>2026-03-29T13:49:07.999Z</time></trkpt><trkpt lat="45.337383597801754" lon="8.917030155549774"><ele>82.83333333333334</ele><time>2026-03-29T13:49:08.999Z</time></trkpt><trkpt lat="45.33732443289026" lon="8.91710193210932"><ele>83.0</ele><time>2026-03-29T13:49:09.999Z</time></trkpt><trkpt lat="45.33726626633955" lon="8.917171378249966"><ele>82.5</ele><time>2026-03-29T13:49:10.999Z</time></trkpt><trkpt lat="45.33720574017309" lon="8.91722854086024"><ele>82.0</ele><time>2026-03-29T13:49:11.999Z</time></trkpt><trkpt lat="45.337124534382" lon="8.91728472622994"><ele>81.5</ele><time>2026-03-29T13:49:12.999Z</time></trkpt><trkpt lat="45.337042596964736" lon="8.917270075380182"><ele>81.0</ele><time>2026-03-29T13:49:13.999Z</time></trkpt><trkpt lat="45.33695559902622" lon="8.917275886252163"><ele>80.5</ele><time>2026-03-29T13:49:14.999Z</time></trkpt><trkpt lat="45.33688285863886" lon="8.91728981311475"><ele>80.0</ele><time>2026-03-29T13:49:15.999Z</time></trkpt><trkpt lat="45.33680751395628" lon="8.917318288611215"><ele>80.0</ele><time>2026-03-29T13:49:16.999Z</time></trkpt><trkpt lat="45.33673686764137" lon="8.917386165185656"><ele>80.0</ele><time>2026-03-29T13:49:18Z</time></trkpt><trkpt lat="45.33666632750969" lon="8.917463318226087"><ele>80.0</ele><time>2026-03-29T13:49:19Z</time></trkpt><trkpt lat="45.33659940741505" lon="8.917572932824532"><ele>80.0</ele><time>2026-03-29T13:49:20Z</time></trkpt><trkpt lat="45.33651319558082" lon="8.917716826064435"><ele>80.0</ele><time>2026-03-29T13:49:21Z</time></trkpt><trkpt lat="45.336428939958395" lon="8.917860421115012"><ele>80.0</ele><time>2026-03-29T13:49:22Z</time></trkpt><trkpt lat="45.33634841389255" lon="8.917997109885283"><ele>80.0</ele><time>2026-03-29T13:49:23Z</time></trkpt><trkpt lat="45.33626716007351" lon="8.918125419728842"><ele>80.0</ele><time>2026-03-29T13:49:24Z</time></trkpt><trkpt lat="45.336188725231374" lon="8.918245512711103"><ele>80.0</ele><time>2026-03-29T13:49:25Z</time></trkpt><trkpt lat="45.33612252793384" lon="8.918355853504709"><ele>80.16666666666667</ele><time>2026-03-29T13:49:26Z</time></trkpt><trkpt lat="45.336053380020815" lon="8.918473657994127"><ele>80.33333333333334</ele><time>2026-03-29T13:49:27Z</time></trkpt><trkpt lat="45.335996079967515" lon="8.918565617830865"><ele>80.5</ele><time>2026-03-29T13:49:28Z</time></trkpt><trkpt lat="45.33594793534962" lon="8.918647638446286"><ele>80.66666666666667</ele><time>2026-03-29T13:49:29Z</time></trkpt><trkpt lat="45.33589944689413" lon="8.918743243669182"><ele>80.83333333333333</ele><time>2026-03-29T13:49:30Z</time></trkpt><trkpt lat="45.33585978582747" lon="8.918844799357204"><ele>81.0</ele><time>2026-03-29T13:49:31Z</time></trkpt><trkpt lat="45.33583055298486" lon="8.918938629709668"><ele>81.0</ele><time>2026-03-29T13:49:32Z</time></trkpt><trkpt lat="45.33579907205332" lon="8.919078689897267"><ele>81.0</ele><time>2026-03-29T13:49:33Z</time></trkpt><trkpt lat="45.33578255526705" lon="8.919201208028696"><ele>81.0</ele><time>2026-03-29T13:49:34Z</time></trkpt><trkpt lat="45.33576714460475" lon="8.91935192593137"><ele>81.0</ele><time>2026-03-29T13:49:35Z</time></trkpt><trkpt lat="45.33575635620789" lon="8.919520106313751"><ele>81.0</ele><time>2026-03-29T13:49:36Z</time></trkpt><trkpt lat="45.335754497865125" lon="8.919681870894603"><ele>81.0</ele><time>2026-03-29T13:49:37Z</time></trkpt><trkpt lat="45.33576142415667" lon="8.919854576217253"><ele>81.0</ele><time>2026-03-29T13:49:38Z</time></trkpt><trkpt lat="45.3357682469847" lon="8.920008174116504"><ele>81.0</ele><time>2026-03-29T13:49:39Z</time></trkpt><trkpt lat="45.33577286227912" lon="8.920137099154859"><ele>81.0</ele><time>2026-03-29T13:49:40Z</time></trkpt><trkpt lat="45.33577276850981" lon="8.920250420683347"><ele>81.0</ele><time>2026-03-29T13:49:41Z</time></trkpt><trkpt lat="45.33577046181477" lon="8.920358567319294"><ele>81.33333333333333</ele><time>2026-03-29T13:49:42Z</time></trkpt><trkpt lat="45.3357669097987" lon="8.920478746079839"><ele>81.66666666666667</ele><time>2026-03-29T13:49:43Z</time></trkpt><trkpt lat="45.3357577011569" lon="8.920601624710567"><ele>82.0</ele><time>2026-03-29T13:49:44Z</time></trkpt><trkpt lat="45.33574495813648" lon="8.920709909881873"><ele>82.33333333333334</ele><time>2026-03-29T13:49:45Z</time></trkpt><trkpt lat="45.33573028757656" lon="8.920819256811914"><ele>82.66666666666667</ele><time>2026-03-29T13:49:46Z</time></trkpt><trkpt lat="45.33571894254673" lon="8.92094315945796"><ele>83.0</ele><time>2026-03-29T13:49:47Z</time></trkpt><trkpt lat="45.33571394824271" lon="8.921061327246738"><ele>83.16666666666667</ele><time>2026-03-29T13:49:48Z</time></trkpt><trkpt lat="45.335719370528274" lon="8.921201012359356"><ele>83.33333333333334</ele><time>2026-03-29T13:49:49Z</time></trkpt><trkpt lat="45.33572893101424" lon="8.921311172265186"><ele>83.5</ele><time>2026-03-29T13:49:50Z</time></trkpt><trkpt lat="45.33573950751602" lon="8.921409279385264"><ele>83.66666666666667</ele><time>2026-03-29T13:49:51Z</time></trkpt><trkpt lat="45.335749202699134" lon="8.921505161517562"><ele>83.83333333333333</ele><time>2026-03-29T13:49:52Z</time></trkpt><trkpt lat="45.3357738976418" lon="8.921684096658495"><ele>84.0</ele><time>2026-03-29T13:49:54Z</time></trkpt><trkpt lat="45.33579647254105" lon="8.921777642275387"><ele>84.0</ele><time>2026-03-29T13:49:55Z</time></trkpt><trkpt lat="45.33584722440506" lon="8.921907651080025"><ele>84.0</ele><time>2026-03-29T13:49:57Z</time></trkpt><trkpt lat="45.33589359875598" lon="8.921999560045794"><ele>84.0</ele><time>2026-03-29T13:49:59Z</time></trkpt><trkpt lat="45.335890098916096" lon="8.9221010908348"><ele>84.0</ele><time>2026-03-29T13:50:02Z</time></trkpt><trkpt lat="45.335792365181234" lon="8.922170839402206"><ele>84.0</ele><time>2026-03-29T13:50:05Z</time></trkpt><trkpt lat="45.33567680862828" lon="8.922286299604222"><ele>84.0</ele><time>2026-03-29T13:50:06.999Z</time></trkpt><trkpt lat="45.335600686355676" lon="8.922344653345569"><ele>84.0</ele><time>2026-03-29T13:50:07.999Z</time></trkpt><trkpt lat="45.335518499941756" lon="8.922403738054017"><ele>84.0</ele><time>2026-03-29T13:50:08.999Z</time></trkpt><trkpt lat="45.33540576183547" lon="8.922486322313542"><ele>84.0</ele><time>2026-03-29T13:50:09.999Z</time></trkpt><trkpt lat="45.335293881791415" lon="8.922568419930615"><ele>84.0</ele><time>2026-03-29T13:50:10.999Z</time></trkpt><trkpt lat="45.33519003875179" lon="8.922646555124384"><ele>84.0</ele><time>2026-03-29T13:50:11.999Z</time></trkpt><trkpt lat="45.33509081709786" lon="8.922726841992183"><ele>84.0</ele><time>2026-03-29T13:50:12.999Z</time></trkpt><trkpt lat="45.335003236316005" lon="8.922795461169898"><ele>84.0</ele><time>2026-03-29T13:50:13.999Z</time></trkpt><trkpt lat="45.334918712332936" lon="8.922852199782701"><ele>84.0</ele><time>2026-03-29T13:50:14.999Z</time></trkpt><trkpt lat="45.33484371471528" lon="8.922915852971519"><ele>84.0</ele><time>2026-03-29T13:50:15.999Z</time></trkpt><trkpt lat="45.33476735725883" lon="8.92297353338018"><ele>84.0</ele><time>2026-03-29T13:50:16.999Z</time></trkpt><trkpt lat="45.334706768568665" lon="8.92301361425326"><ele>84.0</ele><time>2026-03-29T13:50:17.999Z</time></trkpt><trkpt lat="45.33464776295145" lon="8.923060232979688"><ele>84.0</ele><time>2026-03-29T13:50:18.999Z</time></trkpt><trkpt lat="45.33459016507672" lon="8.92310076221748"><ele>84.0</ele><time>2026-03-29T13:50:19.999Z</time></trkpt><trkpt lat="45.334485068396425" lon="8.923178114253004"><ele>84.0</ele><time>2026-03-29T13:50:21.999Z</time></trkpt><trkpt lat="45.3343960009972" lon="8.923280382240826"><ele>84.0</ele><time>2026-03-29T13:50:23.999Z</time></trkpt><trkpt lat="45.334320603795454" lon="8.923407192538383"><ele>84.2</ele><time>2026-03-29T13:50:25.999Z</time></trkpt><trkpt lat="45.33429948906296" lon="8.92349968566733"><ele>84.4</ele><time>2026-03-29T13:50:26.999Z</time></trkpt><trkpt lat="45.334324394449816" lon="8.923638238920551"><ele>84.6</ele><time>2026-03-29T13:50:27.999Z</time></trkpt><trkpt lat="45.33433200303936" lon="8.923783506551862"><ele>84.8</ele><time>2026-03-29T13:50:28.999Z</time></trkpt><trkpt lat="45.33434479672719" lon="8.923941083858537"><ele>85.0</ele><time>2026-03-29T13:50:29.999Z</time></trkpt><trkpt lat="45.33436273797" lon="8.924098372970775"><ele>85.0</ele><time>2026-03-29T13:50:30.999Z</time></trkpt><trkpt lat="45.33438342969326" lon="8.92425641581349"><ele>85.0</ele><time>2026-03-29T13:50:31.999Z</time></trkpt><trkpt lat="45.334401029993685" lon="8.924387175293234"><ele>85.0</ele><time>2026-03-29T13:50:32.999Z</time></trkpt><trkpt lat="45.33441775100596" lon="8.924506412156076"><ele>85.0</ele><time>2026-03-29T13:50:33.999Z</time></trkpt><trkpt lat="45.33442810239772" lon="8.924595316447164"><ele>85.0</ele><time>2026-03-29T13:50:34.999Z</time></trkpt><trkpt lat="45.33443173572554" lon="8.924739051799943"><ele>85.0</ele><time>2026-03-29T13:50:36.999Z</time></trkpt><trkpt lat="45.33439021504509" lon="8.92485070603673"><ele>85.0</ele><time>2026-03-29T13:50:38.999Z</time></trkpt><trkpt lat="45.33427448247415" lon="8.924925164465908"><ele>85.0</ele><time>2026-03-29T13:50:40.999Z</time></trkpt><trkpt lat="45.334189930476875" lon="8.92496402596183"><ele>85.0</ele><time>2026-03-29T13:50:41.999Z</time></trkpt><trkpt lat="45.33407463073443" lon="8.925015584386093"><ele>85.0</ele><time>2026-03-29T13:50:42.999Z</time></trkpt><trkpt lat="45.3339509342746" lon="8.925075814004343"><ele>84.0</ele><time>2026-03-29T13:50:43.999Z</time></trkpt><trkpt lat="45.3338275819223" lon="8.92514451072065"><ele>83.0</ele><time>2026-03-29T13:50:44.999Z</time></trkpt><trkpt lat="45.33371548670635" lon="8.925206896103225"><ele>82.0</ele><time>2026-03-29T13:50:45.999Z</time></trkpt><trkpt lat="45.33360866349578" lon="8.925261947781747"><ele>81.0</ele><time>2026-03-29T13:50:46.999Z</time></trkpt><trkpt lat="45.333511135974454" lon="8.925314556503832"><ele>81.0</ele><time>2026-03-29T13:50:47.999Z</time></trkpt><trkpt lat="45.33340737058613" lon="8.925369071920723"><ele>81.0</ele><time>2026-03-29T13:50:48.999Z</time></trkpt><trkpt lat="45.33328248268526" lon="8.925406398581146"><ele>81.0</ele><time>2026-03-29T13:50:49.999Z</time></trkpt><trkpt lat="45.33315805496872" lon="8.925461701570883"><ele>81.0</ele><time>2026-03-29T13:50:50.999Z</time></trkpt><trkpt lat="45.333030733483184" lon="8.925519039864847"><ele>81.25</ele><time>2026-03-29T13:50:51.999Z</time></trkpt><trkpt lat="45.332898748313134" lon="8.925578864587854"><ele>81.5</ele><time>2026-03-29T13:50:52.999Z</time></trkpt><trkpt lat="45.33277870937221" lon="8.92563078425009"><ele>81.75</ele><time>2026-03-29T13:50:53.999Z</time></trkpt><trkpt lat="45.33265288555411" lon="8.925677185982654"><ele>82.0</ele><time>2026-03-29T13:50:54.999Z</time></trkpt><trkpt lat="45.33253595623877" lon="8.925715621324947"><ele>82.0</ele><time>2026-03-29T13:50:55.999Z</time></trkpt><trkpt lat="45.33240971563365" lon="8.925756669567203"><ele>82.0</ele><time>2026-03-29T13:50:56.999Z</time></trkpt><trkpt lat="45.3322818584637" lon="8.92579654248998"><ele>82.0</ele><time>2026-03-29T13:50:57.999Z</time></trkpt><trkpt lat="45.3321724907214" lon="8.925829046912877"><ele>82.0</ele><time>2026-03-29T13:50:58.999Z</time></trkpt><trkpt lat="45.33206693502494" lon="8.9258593598418"><ele>81.8</ele><time>2026-03-29T13:50:59.999Z</time></trkpt><trkpt lat="45.331963729531815" lon="8.925886775866076"><ele>81.6</ele><time>2026-03-29T13:51:00.999Z</time></trkpt><trkpt lat="45.33185849679794" lon="8.92591388147598"><ele>81.39999999999999</ele><time>2026-03-29T13:51:01.999Z</time></trkpt><trkpt lat="45.331755660367214" lon="8.925962066597519"><ele>81.19999999999999</ele><time>2026-03-29T13:51:02.999Z</time></trkpt><trkpt lat="45.331645008024545" lon="8.925971362603642"><ele>81.0</ele><time>2026-03-29T13:51:03.999Z</time></trkpt><trkpt lat="45.33153475523121" lon="8.92600120331797"><ele>81.0</ele><time>2026-03-29T13:51:04.999Z</time></trkpt><trkpt lat="45.331439456973804" lon="8.926026993940457"><ele>81.0</ele><time>2026-03-29T13:51:05.999Z</time></trkpt><trkpt lat="45.33134917264231" lon="8.926051381894679"><ele>81.0</ele><time>2026-03-29T13:51:06.999Z</time></trkpt><trkpt lat="45.33126180278738" lon="8.926074982574532"><ele>81.0</ele><time>2026-03-29T13:51:07.999Z</time></trkpt><trkpt lat="45.33118213841421" lon="8.926096516735814"><ele>81.0</ele><time>2026-03-29T13:51:08.999Z</time></trkpt><trkpt lat="45.331117120688084" lon="8.926114347358126"><ele>81.0</ele><time>2026-03-29T13:51:09.999Z</time></trkpt><trkpt lat="45.331033450577564" lon="8.926137503687313"><ele>81.0</ele><time>2026-03-29T13:51:10.999Z</time></trkpt><trkpt lat="45.33094155481385" lon="8.926171947051834"><ele>81.0</ele><time>2026-03-29T13:51:11.999Z</time></trkpt><trkpt lat="45.33086858124938" lon="8.92618853622923"><ele>81.0</ele><time>2026-03-29T13:51:12.999Z</time></trkpt><trkpt lat="45.330786494450365" lon="8.926211502525883"><ele>81.0</ele><time>2026-03-29T13:51:13.999Z</time></trkpt><trkpt lat="45.33071841040552" lon="8.926236501953783"><ele>81.0</ele><time>2026-03-29T13:51:14.999Z</time></trkpt><trkpt lat="45.33061624330092" lon="8.926288277809714"><ele>81.0</ele><time>2026-03-29T13:51:16.999Z</time></trkpt><trkpt lat="45.330529472386196" lon="8.926314511714509"><ele>81.19999999999999</ele><time>2026-03-29T13:51:18.999Z</time></trkpt><trkpt lat="45.33049623605319" lon="8.926535992797662"><ele>81.39999999999999</ele><time>2026-03-29T13:51:20.999Z</time></trkpt><trkpt lat="45.330502374104995" lon="8.92664862296073"><ele>81.6</ele><time>2026-03-29T13:51:21.999Z</time></trkpt><trkpt lat="45.33052421070343" lon="8.926776092579786"><ele>81.8</ele><time>2026-03-29T13:51:22.999Z</time></trkpt><trkpt lat="45.33054882021733" lon="8.926907949957458"><ele>82.0</ele><time>2026-03-29T13:51:23.999Z</time></trkpt><trkpt lat="45.33056517953298" lon="8.927036006709166"><ele>82.0</ele><time>2026-03-29T13:51:24.999Z</time></trkpt><trkpt lat="45.33056484802484" lon="8.927156646086006"><ele>82.0</ele><time>2026-03-29T13:51:25.999Z</time></trkpt><trkpt lat="45.33054842330705" lon="8.927278575738566"><ele>82.0</ele><time>2026-03-29T13:51:26.999Z</time></trkpt><trkpt lat="45.33051659606413" lon="8.927396744088243"><ele>82.0</ele><time>2026-03-29T13:51:27.999Z</time></trkpt><trkpt lat="45.33047964794772" lon="8.92749083172433"><ele>82.0</ele><time>2026-03-29T13:51:28.999Z</time></trkpt><trkpt lat="45.33043850852171" lon="8.927573321040667"><ele>82.0</ele><time>2026-03-29T13:51:29.999Z</time></trkpt><trkpt lat="45.33037125021464" lon="8.927686334264044"><ele>81.83333333333333</ele><time>2026-03-29T13:51:31.999Z</time></trkpt><trkpt lat="45.330320431791385" lon="8.92777532242887"><ele>81.66666666666666</ele><time>2026-03-29T13:51:33.999Z</time></trkpt><trkpt lat="45.33032933798821" lon="8.927918209118966"><ele>81.5</ele><time>2026-03-29T13:51:35.999Z</time></trkpt><trkpt lat="45.330401155946525" lon="8.927997337648952"><ele>81.33333333333333</ele><time>2026-03-29T13:51:36.999Z</time></trkpt><trkpt lat="45.330443783257955" lon="8.92807601934787"><ele>81.16666666666667</ele><time>2026-03-29T13:51:37.999Z</time></trkpt><trkpt lat="45.33051203849776" lon="8.928186500106833"><ele>81.0</ele><time>2026-03-29T13:51:38.999Z</time></trkpt><trkpt lat="45.33058666366529" lon="8.92831295884298"><ele>81.0</ele><time>2026-03-29T13:51:39.999Z</time></trkpt><trkpt lat="45.330653839676316" lon="8.928434958200365"><ele>81.0</ele><time>2026-03-29T13:51:40.999Z</time></trkpt><trkpt lat="45.330715044247945" lon="8.928555678695377"><ele>81.0</ele><time>2026-03-29T13:51:41.999Z</time></trkpt><trkpt lat="45.33077857060795" lon="8.928676664065796"><ele>81.0</ele><time>2026-03-29T13:51:42.999Z</time></trkpt><trkpt lat="45.330839869841945" lon="8.928790496652084"><ele>81.0</ele><time>2026-03-29T13:51:43.999Z</time></trkpt><trkpt lat="45.33089869792796" lon="8.92889818123433"><ele>81.0</ele><time>2026-03-29T13:51:44.999Z</time></trkpt><trkpt lat="45.330956881087616" lon="8.929007398443636"><ele>81.0</ele><time>2026-03-29T13:51:45.999Z</time></trkpt><trkpt lat="45.331004907962125" lon="8.929103194749482"><ele>81.0</ele><time>2026-03-29T13:51:46.999Z</time></trkpt><trkpt lat="45.331066463719445" lon="8.92921937597772"><ele>81.0</ele><time>2026-03-29T13:51:47.999Z</time></trkpt><trkpt lat="45.331130901280346" lon="8.929334872075062"><ele>81.0</ele><time>2026-03-29T13:51:48.999Z</time></trkpt><trkpt lat="45.33119157633884" lon="8.929451495807031"><ele>81.0</ele><time>2026-03-29T13:51:49.999Z</time></trkpt><trkpt lat="45.331260648994196" lon="8.929577460141092"><ele>81.0</ele><time>2026-03-29T13:51:50.999Z</time></trkpt><trkpt lat="45.33131822623068" lon="8.92968886204428"><ele>81.0</ele><time>2026-03-29T13:51:51.999Z</time></trkpt><trkpt lat="45.33137496917463" lon="8.929795570702744"><ele>81.0</ele><time>2026-03-29T13:51:52.999Z</time></trkpt><trkpt lat="45.331443526409394" lon="8.92991721665542"><ele>81.0</ele><time>2026-03-29T13:51:53.999Z</time></trkpt><trkpt lat="45.331496590072696" lon="8.930045030620533"><ele>80.75</ele><time>2026-03-29T13:51:54.999Z</time></trkpt><trkpt lat="45.331557739999255" lon="8.93016403905957"><ele>80.5</ele><time>2026-03-29T13:51:55.999Z</time></trkpt><trkpt lat="45.331628222138356" lon="8.930301209614054"><ele>80.25</ele><time>2026-03-29T13:51:56.999Z</time></trkpt><trkpt lat="45.331712530790725" lon="8.93046228249896"><ele>80.0</ele><time>2026-03-29T13:51:57.999Z</time></trkpt><trkpt lat="45.331787748916646" lon="8.93060298474463"><ele>80.0</ele><time>2026-03-29T13:51:58.999Z</time></trkpt><trkpt lat="45.33185501112059" lon="8.93072611497556"><ele>80.0</ele><time>2026-03-29T13:51:59.999Z</time></trkpt><trkpt lat="45.33192339053419" lon="8.930850047784363"><ele>80.0</ele><time>2026-03-29T13:52:00.999Z</time></trkpt><trkpt lat="45.33200329824936" lon="8.930995488355538"><ele>80.0</ele><time>2026-03-29T13:52:01.999Z</time></trkpt><trkpt lat="45.33208432194537" lon="8.931109947275582"><ele>80.2</ele><time>2026-03-29T13:52:02.999Z</time></trkpt><trkpt lat="45.332151306630735" lon="8.93123500730598"><ele>80.4</ele><time>2026-03-29T13:52:03.999Z</time></trkpt><trkpt lat="45.332211277480226" lon="8.93134455349309"><ele>80.6</ele><time>2026-03-29T13:52:04.999Z</time></trkpt><trkpt lat="45.33227386896255" lon="8.931467944413855"><ele>80.8</ele><time>2026-03-29T13:52:05.999Z</time></trkpt><trkpt lat="45.33234147118439" lon="8.931594172989705"><ele>81.0</ele><time>2026-03-29T13:52:06.999Z</time></trkpt><trkpt lat="45.33240297055698" lon="8.931720374358521"><ele>81.19999999999999</ele><time>2026-03-29T13:52:07.999Z</time></trkpt><trkpt lat="45.33246614395361" lon="8.931827153020329"><ele>81.39999999999999</ele><time>2026-03-29T13:52:08.999Z</time></trkpt><trkpt lat="45.332528792717575" lon="8.931958503379475"><ele>81.6</ele><time>2026-03-29T13:52:09.999Z</time></trkpt><trkpt lat="45.33259689882716" lon="8.932081116242252"><ele>81.8</ele><time>2026-03-29T13:52:10.999Z</time></trkpt><trkpt lat="45.332662536313414" lon="8.932202025781995"><ele>82.0</ele><time>2026-03-29T13:52:11.999Z</time></trkpt><trkpt lat="45.33270650442884" lon="8.932326967217225"><ele>82.0</ele><time>2026-03-29T13:52:12.999Z</time></trkpt><trkpt lat="45.33275797309117" lon="8.932429271319233"><ele>82.0</ele><time>2026-03-29T13:52:13.999Z</time></trkpt><trkpt lat="45.33279907347786" lon="8.932511722248666"><ele>82.0</ele><time>2026-03-29T13:52:14.999Z</time></trkpt><trkpt lat="45.33283901986765" lon="8.932591858223544"><ele>82.0</ele><time>2026-03-29T13:52:15.999Z</time></trkpt><trkpt lat="45.33289418818457" lon="8.932695328984192"><ele>82.0</ele><time>2026-03-29T13:52:16.999Z</time></trkpt><trkpt lat="45.33295433485185" lon="8.932785796220811"><ele>82.0</ele><time>2026-03-29T13:52:17.999Z</time></trkpt><trkpt lat="45.3329976708001" lon="8.932893552881971"><ele>83.0</ele><time>2026-03-29T13:52:18.999Z</time></trkpt><trkpt lat="45.33303415721404" lon="8.933012818072136"><ele>84.0</ele><time>2026-03-29T13:52:19.999Z</time></trkpt><trkpt lat="45.333062041549425" lon="8.933146986390183"><ele>85.0</ele><time>2026-03-29T13:52:20.999Z</time></trkpt><trkpt lat="45.33309208469348" lon="8.933302588877984"><ele>86.0</ele><time>2026-03-29T13:52:21.999Z</time></trkpt><trkpt lat="45.33312533450315" lon="8.933443585059118"><ele>87.0</ele><time>2026-03-29T13:52:22.999Z</time></trkpt><trkpt lat="45.333160822718376" lon="8.933577128164812"><ele>87.83333333333333</ele><time>2026-03-29T13:52:23.999Z</time></trkpt><trkpt lat="45.333189986330524" lon="8.933683106540803"><ele>88.66666666666667</ele><time>2026-03-29T13:52:24.999Z</time></trkpt><trkpt lat="45.33321661627013" lon="8.933795924742684"><ele>89.5</ele><time>2026-03-29T13:52:25.999Z</time></trkpt><trkpt lat="45.33325805739579" lon="8.933913909448407"><ele>90.33333333333334</ele><time>2026-03-29T13:52:26.999Z</time></trkpt><trkpt lat="45.33330100364674" lon="8.934021245445203"><ele>91.16666666666667</ele><time>2026-03-29T13:52:27.999Z</time></trkpt><trkpt lat="45.33333824940892" lon="8.934106025162025"><ele>92.0</ele><time>2026-03-29T13:52:28.999Z</time></trkpt><trkpt lat="45.333382989721834" lon="8.934265591468906"><ele>92.0</ele><time>2026-03-29T13:52:30.999Z</time></trkpt><trkpt lat="45.333358837153426" lon="8.934451239670498"><ele>92.0</ele><time>2026-03-29T13:52:32.999Z</time></trkpt><trkpt lat="45.33332486534188" lon="8.934529111321348"><ele>92.0</ele><time>2026-03-29T13:52:33.999Z</time></trkpt><trkpt lat="45.333269515548494" lon="8.934618369139468"><ele>92.0</ele><time>2026-03-29T13:52:35.999Z</time></trkpt><trkpt lat="45.333204227121456" lon="8.934706157250593"><ele>92.0</ele><time>2026-03-29T13:52:37.999Z</time></trkpt><trkpt lat="45.333095035125574" lon="8.934719616786213"><ele>92.19999999999999</ele><time>2026-03-29T13:52:39.999Z</time></trkpt><trkpt lat="45.33300868205318" lon="8.934723216450724"><ele>92.4</ele><time>2026-03-29T13:52:40.999Z</time></trkpt><trkpt lat="45.33291163861476" lon="8.934745455584949"><ele>92.6</ele><time>2026-03-29T13:52:41.999Z</time></trkpt><trkpt lat="45.332806607566845" lon="8.934804718087511"><ele>92.80000000000001</ele><time>2026-03-29T13:52:42.999Z</time></trkpt><trkpt lat="45.33269824746207" lon="8.934859912883782"><ele>93.0</ele><time>2026-03-29T13:52:43.999Z</time></trkpt><trkpt lat="45.33261262582482" lon="8.934914409092924"><ele>93.0</ele><time>2026-03-29T13:52:44.999Z</time></trkpt><trkpt lat="45.33252778575425" lon="8.93496623535212"><ele>93.0</ele><time>2026-03-29T13:52:45.999Z</time></trkpt><trkpt lat="45.33245489293034" lon="8.935023241747208"><ele>93.0</ele><time>2026-03-29T13:52:46.999Z</time></trkpt><trkpt lat="45.33238616262914" lon="8.935084330240159"><ele>93.0</ele><time>2026-03-29T13:52:47.999Z</time></trkpt><trkpt lat="45.332321835573204" lon="8.93514405275805"><ele>93.0</ele><time>2026-03-29T13:52:48.999Z</time></trkpt><trkpt lat="45.332257126911855" lon="8.935210999062129"><ele>93.0</ele><time>2026-03-29T13:52:49.999Z</time></trkpt><trkpt lat="45.33219219592802" lon="8.935286497488905"><ele>92.4</ele><time>2026-03-29T13:52:50.999Z</time></trkpt><trkpt lat="45.33211307633765" lon="8.935352078685058"><ele>91.80000000000001</ele><time>2026-03-29T13:52:51.999Z</time></trkpt><trkpt lat="45.33204754254043" lon="8.9354228454143"><ele>91.2</ele><time>2026-03-29T13:52:52.999Z</time></trkpt><trkpt lat="45.331976801805055" lon="8.935499234872742"><ele>90.6</ele><time>2026-03-29T13:52:53.999Z</time></trkpt><trkpt lat="45.331896180420486" lon="8.93557842912882"><ele>90.0</ele><time>2026-03-29T13:52:54.999Z</time></trkpt><trkpt lat="45.331811259849005" lon="8.93564713566548"><ele>90.0</ele><time>2026-03-29T13:52:55.999Z</time></trkpt><trkpt lat="45.33172689720545" lon="8.935697178409521"><ele>90.0</ele><time>2026-03-29T13:52:56.999Z</time></trkpt><trkpt lat="45.331645098335166" lon="8.935747705867193"><ele>90.0</ele><time>2026-03-29T13:52:57.999Z</time></trkpt><trkpt lat="45.33157402283026" lon="8.935798308627309"><ele>90.0</ele><time>2026-03-29T13:52:58.999Z</time></trkpt><trkpt lat="45.33149011268104" lon="8.935863534055443"><ele>90.0</ele><time>2026-03-29T13:52:59.999Z</time></trkpt><trkpt lat="45.331391795681405" lon="8.935948291386635"><ele>89.8</ele><time>2026-03-29T13:53:00.999Z</time></trkpt><trkpt lat="45.33129985747917" lon="8.936037795758272"><ele>89.6</ele><time>2026-03-29T13:53:01.999Z</time></trkpt><trkpt lat="45.33122117302777" lon="8.936125428882658"><ele>89.4</ele><time>2026-03-29T13:53:02.999Z</time></trkpt><trkpt lat="45.33115410645378" lon="8.936205752988126"><ele>89.2</ele><time>2026-03-29T13:53:03.999Z</time></trkpt><trkpt lat="45.33108816131529" lon="8.936285266888595"><ele>89.0</ele><time>2026-03-29T13:53:04.999Z</time></trkpt><trkpt lat="45.3310253838745" lon="8.93636048264185"><ele>89.0</ele><time>2026-03-29T13:53:05.999Z</time></trkpt><trkpt lat="45.33097090095397" lon="8.936419113158925"><ele>89.0</ele><time>2026-03-29T13:53:06.999Z</time></trkpt><trkpt lat="45.33089253117497" lon="8.93650045774035"><ele>89.0</ele><time>2026-03-29T13:53:08.999Z</time></trkpt><trkpt lat="45.330813383700374" lon="8.936581004256722"><ele>89.0</ele><time>2026-03-29T13:53:10.999Z</time></trkpt><trkpt lat="45.33075858562524" lon="8.936638857887127"><ele>89.0</ele><time>2026-03-29T13:53:11.999Z</time></trkpt><trkpt lat="45.33069961369498" lon="8.936723025639871"><ele>89.0</ele><time>2026-03-29T13:53:12.999Z</time></trkpt><trkpt lat="45.330607569980955" lon="8.936809238748186"><ele>89.0</ele><time>2026-03-29T13:53:13.999Z</time></trkpt><trkpt lat="45.330502825445116" lon="8.936927290377898"><ele>89.0</ele><time>2026-03-29T13:53:14.999Z</time></trkpt><trkpt lat="45.330385343873" lon="8.937062059109827"><ele>89.0</ele><time>2026-03-29T13:53:15.999Z</time></trkpt><trkpt lat="45.33025933318931" lon="8.9372060398299"><ele>89.0</ele><time>2026-03-29T13:53:16.999Z</time></trkpt><trkpt lat="45.33014117687417" lon="8.937336680001975"><ele>89.0</ele><time>2026-03-29T13:53:17.999Z</time></trkpt><trkpt lat="45.3300297434644" lon="8.937451507459729"><ele>89.0</ele><time>2026-03-29T13:53:18.999Z</time></trkpt><trkpt lat="45.32991750450789" lon="8.937556897615696"><ele>89.0</ele><time>2026-03-29T13:53:19.999Z</time></trkpt><trkpt lat="45.32980097426006" lon="8.937653284653821"><ele>89.0</ele><time>2026-03-29T13:53:20.999Z</time></trkpt><trkpt lat="45.3296912969326" lon="8.937730686054454"><ele>88.80000000000001</ele><time>2026-03-29T13:53:21.999Z</time></trkpt><trkpt lat="45.329586085836155" lon="8.937793850646957"><ele>88.60000000000001</ele><time>2026-03-29T13:53:22.999Z</time></trkpt><trkpt lat="45.329484681617664" lon="8.937855824366927"><ele>88.4</ele><time>2026-03-29T13:53:23.999Z</time></trkpt><trkpt lat="45.3293854338769" lon="8.937917892059188"><ele>88.2</ele><time>2026-03-29T13:53:24.999Z</time></trkpt><trkpt lat="45.329286410812244" lon="8.937985169538607"><ele>88.0</ele><time>2026-03-29T13:53:25.999Z</time></trkpt><trkpt lat="45.32917645050222" lon="8.938022708788106"><ele>88.0</ele><time>2026-03-29T13:53:26.999Z</time></trkpt><trkpt lat="45.3290687262973" lon="8.938093996260749"><ele>88.0</ele><time>2026-03-29T13:53:27.999Z</time></trkpt><trkpt lat="45.32895518083511" lon="8.938137982838942"><ele>88.0</ele><time>2026-03-29T13:53:28.999Z</time></trkpt><trkpt lat="45.328849887485696" lon="8.938170724414944"><ele>88.0</ele><time>2026-03-29T13:53:29.999Z</time></trkpt><trkpt lat="45.328739960197076" lon="8.938210906130877"><ele>88.5</ele><time>2026-03-29T13:53:30.999Z</time></trkpt><trkpt lat="45.328617506548746" lon="8.938228099671397"><ele>89.0</ele><time>2026-03-29T13:53:31.999Z</time></trkpt><trkpt lat="45.328505434000654" lon="8.938259054863074"><ele>89.5</ele><time>2026-03-29T13:53:32.999Z</time></trkpt><trkpt lat="45.328408028763235" lon="8.938311288039761"><ele>90.0</ele><time>2026-03-29T13:53:33.999Z</time></trkpt><trkpt lat="45.328297842392814" lon="8.938324090891749"><ele>90.0</ele><time>2026-03-29T13:53:34.999Z</time></trkpt><trkpt lat="45.328189757018336" lon="8.93836744642041"><ele>90.0</ele><time>2026-03-29T13:53:35.999Z</time></trkpt><trkpt lat="45.328080974188794" lon="8.938426540183764"><ele>90.0</ele><time>2026-03-29T13:53:36.999Z</time></trkpt><trkpt lat="45.32797247569553" lon="8.938502582104858"><ele>90.0</ele><time>2026-03-29T13:53:37.999Z</time></trkpt><trkpt lat="45.327866639682966" lon="8.93860073194437"><ele>91.0</ele><time>2026-03-29T13:53:38.999Z</time></trkpt><trkpt lat="45.32778995130724" lon="8.938684825372205"><ele>92.0</ele><time>2026-03-29T13:53:39.999Z</time></trkpt><trkpt lat="45.32771623499472" lon="8.938773150228533"><ele>93.0</ele><time>2026-03-29T13:53:40.999Z</time></trkpt><trkpt lat="45.3276443029086" lon="8.938865906129958"><ele>94.0</ele><time>2026-03-29T13:53:41.999Z</time></trkpt><trkpt lat="45.32757760224013" lon="8.938955764209055"><ele>95.0</ele><time>2026-03-29T13:53:42.999Z</time></trkpt><trkpt lat="45.32750871024999" lon="8.939053802821153"><ele>95.0</ele><time>2026-03-29T13:53:43.999Z</time></trkpt><trkpt lat="45.32745710775876" lon="8.939166994642973"><ele>95.0</ele><time>2026-03-29T13:53:44.999Z</time></trkpt><trkpt lat="45.327379464498065" lon="8.939295240192186"><ele>95.0</ele><time>2026-03-29T13:53:45.999Z</time></trkpt><trkpt lat="45.32728388898111" lon="8.939442710407878"><ele>95.0</ele><time>2026-03-29T13:53:46.999Z</time></trkpt><trkpt lat="45.32721072534002" lon="8.939606657772213"><ele>95.0</ele><time>2026-03-29T13:53:47.999Z</time></trkpt><trkpt lat="45.32715144667201" lon="8.939770239196779"><ele>95.0</ele><time>2026-03-29T13:53:48.999Z</time></trkpt><trkpt lat="45.32710256875147" lon="8.939960471617196"><ele>95.0</ele><time>2026-03-29T13:53:49.999Z</time></trkpt><trkpt lat="45.32707113847369" lon="8.940159077303907"><ele>95.0</ele><time>2026-03-29T13:53:50.999Z</time></trkpt><trkpt lat="45.32704385419307" lon="8.940351195652934"><ele>95.0</ele><time>2026-03-29T13:53:51.999Z</time></trkpt><trkpt lat="45.32701295180738" lon="8.940558231777779"><ele>95.0</ele><time>2026-03-29T13:53:52.999Z</time></trkpt><trkpt lat="45.32699450441883" lon="8.940710387895836"><ele>95.0</ele><time>2026-03-29T13:53:53.999Z</time></trkpt><trkpt lat="45.326964915299655" lon="8.940897695454428"><ele>95.0</ele><time>2026-03-29T13:53:54.999Z</time></trkpt><trkpt lat="45.326938279139846" lon="8.941083592257144"><ele>94.0</ele><time>2026-03-29T13:53:55.999Z</time></trkpt><trkpt lat="45.32690539169525" lon="8.941271541648478"><ele>93.0</ele><time>2026-03-29T13:53:56.999Z</time></trkpt><trkpt lat="45.32687508459837" lon="8.94144372692181"><ele>92.0</ele><time>2026-03-29T13:53:57.999Z</time></trkpt><trkpt lat="45.32684319075546" lon="8.941611816382867"><ele>91.0</ele><time>2026-03-29T13:53:58.999Z</time></trkpt><trkpt lat="45.326803803690986" lon="8.941800951158067"><ele>90.75</ele><time>2026-03-29T13:53:59.999Z</time></trkpt><trkpt lat="45.3267642656663" lon="8.941996368541568"><ele>90.5</ele><time>2026-03-29T13:54:00.999Z</time></trkpt><trkpt lat="45.32673187354427" lon="8.94216949270885"><ele>90.25</ele><time>2026-03-29T13:54:01.999Z</time></trkpt><trkpt lat="45.32670154572833" lon="8.94232952005321"><ele>90.0</ele><time>2026-03-29T13:54:02.999Z</time></trkpt><trkpt lat="45.32667125291126" lon="8.942469234969298"><ele>89.8</ele><time>2026-03-29T13:54:03.999Z</time></trkpt><trkpt lat="45.32665436170384" lon="8.942581891666848"><ele>89.6</ele><time>2026-03-29T13:54:04.999Z</time></trkpt><trkpt lat="45.32661429141926" lon="8.942739025887473"><ele>89.4</ele><time>2026-03-29T13:54:06.999Z</time></trkpt><trkpt lat="45.32650133742492" lon="8.942806549512245"><ele>89.2</ele><time>2026-03-29T13:54:08.999Z</time></trkpt><trkpt lat="45.326420101130246" lon="8.94283897631616"><ele>89.0</ele><time>2026-03-29T13:54:09.999Z</time></trkpt><trkpt lat="45.32630278063407" lon="8.94288428862544"><ele>89.0</ele><time>2026-03-29T13:54:10.999Z</time></trkpt><trkpt lat="45.326164881132904" lon="8.942970121903986"><ele>89.0</ele><time>2026-03-29T13:54:11.999Z</time></trkpt><trkpt lat="45.32602539171177" lon="8.94302801985521"><ele>89.0</ele><time>2026-03-29T13:54:12.999Z</time></trkpt><trkpt lat="45.325932464196924" lon="8.943062078324383"><ele>89.0</ele><time>2026-03-29T13:54:13.999Z</time></trkpt><trkpt lat="45.32585804847305" lon="8.943087092427048"><ele>89.0</ele><time>2026-03-29T13:54:14.999Z</time></trkpt><trkpt lat="45.32578527339726" lon="8.943104592411467"><ele>89.0</ele><time>2026-03-29T13:54:15.999Z</time></trkpt><trkpt lat="45.325687698260246" lon="8.94314445330023"><ele>89.0</ele><time>2026-03-29T13:54:16.999Z</time></trkpt><trkpt lat="45.325577658125525" lon="8.943199875769324"><ele>89.0</ele><time>2026-03-29T13:54:17.999Z</time></trkpt><trkpt lat="45.32544671864068" lon="8.943226339719814"><ele>89.0</ele><time>2026-03-29T13:54:18.999Z</time></trkpt><trkpt lat="45.32531295092983" lon="8.943264155668649"><ele>88.5</ele><time>2026-03-29T13:54:19.999Z</time></trkpt><trkpt lat="45.32519624349396" lon="8.94328961530859"><ele>88.0</ele><time>2026-03-29T13:54:20.999Z</time></trkpt><trkpt lat="45.32507762695267" lon="8.943302612439698"><ele>87.5</ele><time>2026-03-29T13:54:21.999Z</time></trkpt><trkpt lat="45.32494985311663" lon="8.943317220579257"><ele>87.0</ele><time>2026-03-29T13:54:22.999Z</time></trkpt><trkpt lat="45.32482056360065" lon="8.943375239598568"><ele>86.75</ele><time>2026-03-29T13:54:23.999Z</time></trkpt><trkpt lat="45.3246818628468" lon="8.943429498755986"><ele>86.5</ele><time>2026-03-29T13:54:24.999Z</time></trkpt><trkpt lat="45.32454958156201" lon="8.943493831607528"><ele>86.25</ele><time>2026-03-29T13:54:25.999Z</time></trkpt><trkpt lat="45.32442446376052" lon="8.943558931526168"><ele>86.0</ele><time>2026-03-29T13:54:26.999Z</time></trkpt><trkpt lat="45.32429327268913" lon="8.943628375310025"><ele>86.0</ele><time>2026-03-29T13:54:27.999Z</time></trkpt><trkpt lat="45.32416233387633" lon="8.943693824027068"><ele>86.0</ele><time>2026-03-29T13:54:28.999Z</time></trkpt><trkpt lat="45.324035160620035" lon="8.943758382061107"><ele>86.0</ele><time>2026-03-29T13:54:29.999Z</time></trkpt><trkpt lat="45.32391663822478" lon="8.94382378407834"><ele>86.0</ele><time>2026-03-29T13:54:30.999Z</time></trkpt><trkpt lat="45.32380461689097" lon="8.94390044647357"><ele>86.0</ele><time>2026-03-29T13:54:31.999Z</time></trkpt><trkpt lat="45.32369190655414" lon="8.944005635449237"><ele>86.0</ele><time>2026-03-29T13:54:32.999Z</time></trkpt><trkpt lat="45.323561962300325" lon="8.944078582932248"><ele>86.0</ele><time>2026-03-29T13:54:33.999Z</time></trkpt><trkpt lat="45.32344246994792" lon="8.944170040021097"><ele>86.0</ele><time>2026-03-29T13:54:34.999Z</time></trkpt><trkpt lat="45.32332479990143" lon="8.944223547194248"><ele>86.4</ele><time>2026-03-29T13:54:35.999Z</time></trkpt><trkpt lat="45.32321216868913" lon="8.944276451608774"><ele>86.8</ele><time>2026-03-29T13:54:36.999Z</time></trkpt><trkpt lat="45.32310828385622" lon="8.944321026615711"><ele>87.2</ele><time>2026-03-29T13:54:37.999Z</time></trkpt><trkpt lat="45.323014100960044" lon="8.944361794101443"><ele>87.60000000000001</ele><time>2026-03-29T13:54:38.999Z</time></trkpt><trkpt lat="45.32292602080268" lon="8.944408979640093"><ele>88.0</ele><time>2026-03-29T13:54:39.999Z</time></trkpt><trkpt lat="45.32284217225455" lon="8.944471058816777"><ele>88.25</ele><time>2026-03-29T13:54:40.999Z</time></trkpt><trkpt lat="45.32274419966397" lon="8.944574503645248"><ele>88.5</ele><time>2026-03-29T13:54:41.999Z</time></trkpt><trkpt lat="45.32263826271107" lon="8.944708632664486"><ele>88.75</ele><time>2026-03-29T13:54:42.999Z</time></trkpt><trkpt lat="45.32253314409615" lon="8.944837646349999"><ele>89.0</ele><time>2026-03-29T13:54:43.999Z</time></trkpt><trkpt lat="45.322438379058745" lon="8.944945637448681"><ele>89.0</ele><time>2026-03-29T13:54:44.999Z</time></trkpt><trkpt lat="45.32234889787292" lon="8.945045414715384"><ele>89.0</ele><time>2026-03-29T13:54:45.999Z</time></trkpt><trkpt lat="45.32226672410829" lon="8.94514492116164"><ele>89.0</ele><time>2026-03-29T13:54:46.999Z</time></trkpt><trkpt lat="45.32217132156241" lon="8.945263734513413"><ele>89.0</ele><time>2026-03-29T13:54:47.999Z</time></trkpt><trkpt lat="45.322082240170204" lon="8.945370642122564"><ele>89.2</ele><time>2026-03-29T13:54:48.999Z</time></trkpt><trkpt lat="45.32200255584977" lon="8.945462626118156"><ele>89.4</ele><time>2026-03-29T13:54:49.999Z</time></trkpt><trkpt lat="45.32192740786433" lon="8.945550077787049"><ele>89.6</ele><time>2026-03-29T13:54:50.999Z</time></trkpt><trkpt lat="45.32185631117567" lon="8.945631399898545"><ele>89.8</ele><time>2026-03-29T13:54:51.999Z</time></trkpt><trkpt lat="45.321786246110854" lon="8.94570927419157"><ele>90.0</ele><time>2026-03-29T13:54:52.999Z</time></trkpt><trkpt lat="45.321719330866394" lon="8.94578313651232"><ele>90.0</ele><time>2026-03-29T13:54:53.999Z</time></trkpt><trkpt lat="45.321656866926126" lon="8.945854679045736"><ele>90.0</ele><time>2026-03-29T13:54:54.999Z</time></trkpt><trkpt lat="45.32156909635954" lon="8.94595302930388"><ele>90.0</ele><time>2026-03-29T13:54:56.999Z</time></trkpt><trkpt lat="45.32147935611752" lon="8.946052080490835"><ele>90.0</ele><time>2026-03-29T13:54:58.999Z</time></trkpt><trkpt lat="45.32142348252483" lon="8.946095255679918"><ele>90.0</ele><time>2026-03-29T13:54:59.999Z</time></trkpt><trkpt lat="45.321314120167905" lon="8.946058144760428"><ele>89.75</ele><time>2026-03-29T13:55:01.999Z</time></trkpt><trkpt lat="45.32118382162446" lon="8.945951302009004"><ele>89.5</ele><time>2026-03-29T13:55:03.999Z</time></trkpt><trkpt lat="45.3210658963751" lon="8.945898608819087"><ele>89.25</ele><time>2026-03-29T13:55:04.999Z</time></trkpt><trkpt lat="45.32095688661575" lon="8.94582074721829"><ele>89.0</ele><time>2026-03-29T13:55:05.999Z</time></trkpt><trkpt lat="45.32086149217272" lon="8.945757459350018"><ele>89.4</ele><time>2026-03-29T13:55:06.999Z</time></trkpt><trkpt lat="45.32078033841696" lon="8.945696939624687"><ele>89.80000000000001</ele><time>2026-03-29T13:55:07.999Z</time></trkpt><trkpt lat="45.32071058714441" lon="8.945643071918017"><ele>90.19999999999999</ele><time>2026-03-29T13:55:08.999Z</time></trkpt><trkpt lat="45.32064942924048" lon="8.945603357072414"><ele>90.6</ele><time>2026-03-29T13:55:09.999Z</time></trkpt><trkpt lat="45.32054850569055" lon="8.945532230841042"><ele>91.0</ele><time>2026-03-29T13:55:11.999Z</time></trkpt><trkpt lat="45.3204500025719" lon="8.94554313119272"><ele>90.33333333333333</ele><time>2026-03-29T13:55:13.999Z</time></trkpt><trkpt lat="45.320401967543376" lon="8.945603828013592"><ele>89.66666666666666</ele><time>2026-03-29T13:55:14.999Z</time></trkpt><trkpt lat="45.32033958092241" lon="8.945642237520536"><ele>89.0</ele><time>2026-03-29T13:55:15.999Z</time></trkpt><trkpt lat="45.32024832477173" lon="8.945706972990953"><ele>88.33333333333333</ele><time>2026-03-29T13:55:17.999Z</time></trkpt><trkpt lat="45.32016343806049" lon="8.945761132069238"><ele>87.66666666666667</ele><time>2026-03-29T13:55:19.999Z</time></trkpt><trkpt lat="45.320081356016814" lon="8.945811597608106"><ele>87.0</ele><time>2026-03-29T13:55:21.999Z</time></trkpt><trkpt lat="45.319985463793735" lon="8.94585865290646"><ele>87.33333333333333</ele><time>2026-03-29T13:55:23.999Z</time></trkpt><trkpt lat="45.31992605015588" lon="8.945890128188978"><ele>87.66666666666667</ele><time>2026-03-29T13:55:24.999Z</time></trkpt><trkpt lat="45.3198613011248" lon="8.945926357625533"><ele>88.0</ele><time>2026-03-29T13:55:25.999Z</time></trkpt><trkpt lat="45.31979214522877" lon="8.945962556716703"><ele>88.33333333333334</ele><time>2026-03-29T13:55:26.999Z</time></trkpt><trkpt lat="45.31973226790906" lon="8.94599831498899"><ele>88.66666666666667</ele><time>2026-03-29T13:55:27.999Z</time></trkpt><trkpt lat="45.31962943137788" lon="8.946053835783616"><ele>89.0</ele><time>2026-03-29T13:55:29.999Z</time></trkpt><trkpt lat="45.319555492253336" lon="8.946099495263647"><ele>88.2</ele><time>2026-03-29T13:55:31.999Z</time></trkpt><trkpt lat="45.319492860284164" lon="8.946131513659473"><ele>87.4</ele><time>2026-03-29T13:55:33.999Z</time></trkpt><trkpt lat="45.31939078995648" lon="8.946187353849819"><ele>86.6</ele><time>2026-03-29T13:55:36.999Z</time></trkpt><trkpt lat="45.31928830145261" lon="8.946248629710066"><ele>85.8</ele><time>2026-03-29T13:55:38.999Z</time></trkpt><trkpt lat="45.31921903137446" lon="8.94626467825091"><ele>85.0</ele><time>2026-03-29T13:55:39.999Z</time></trkpt><trkpt lat="45.31912925597807" lon="8.946340240080415"><ele>85.0</ele><time>2026-03-29T13:55:41.999Z</time></trkpt><trkpt lat="45.31903373808292" lon="8.946398902884992"><ele>85.0</ele><time>2026-03-29T13:55:43.999Z</time></trkpt><trkpt lat="45.31894126833006" lon="8.946455324691936"><ele>85.0</ele><time>2026-03-29T13:55:45.999Z</time></trkpt><trkpt lat="45.31884022664753" lon="8.94649290005825"><ele>85.0</ele><time>2026-03-29T13:55:47.999Z</time></trkpt><trkpt lat="45.318749131824184" lon="8.946575120784685"><ele>85.0</ele><time>2026-03-29T13:55:49.999Z</time></trkpt><trkpt lat="45.318650398488344" lon="8.946643149437602"><ele>85.6</ele><time>2026-03-29T13:55:51.999Z</time></trkpt><trkpt lat="45.31855658150503" lon="8.946744272965454"><ele>86.2</ele><time>2026-03-29T13:55:53.999Z</time></trkpt><trkpt lat="45.318451165156354" lon="8.946851419126384"><ele>86.80000000000001</ele><time>2026-03-29T13:55:55.999Z</time></trkpt><trkpt lat="45.31838423476768" lon="8.94692566435386"><ele>87.4</ele><time>2026-03-29T13:55:56.999Z</time></trkpt><trkpt lat="45.31830798243645" lon="8.946981814988153"><ele>88.0</ele><time>2026-03-29T13:55:57.999Z</time></trkpt><trkpt lat="45.31823186916648" lon="8.947095008299858"><ele>88.0</ele><time>2026-03-29T13:55:58.999Z</time></trkpt><trkpt lat="45.31813462440358" lon="8.947172299806565"><ele>88.0</ele><time>2026-03-29T13:55:59.999Z</time></trkpt><trkpt lat="45.318041124817384" lon="8.947273442672095"><ele>88.0</ele><time>2026-03-29T13:56:00.999Z</time></trkpt><trkpt lat="45.317936748821694" lon="8.94738435974341"><ele>88.0</ele><time>2026-03-29T13:56:01.999Z</time></trkpt><trkpt lat="45.31784117068442" lon="8.947485933761325"><ele>88.2</ele><time>2026-03-29T13:56:02.999Z</time></trkpt><trkpt lat="45.3177573334702" lon="8.947577709759335"><ele>88.4</ele><time>2026-03-29T13:56:03.999Z</time></trkpt><trkpt lat="45.31767928898436" lon="8.947666792827157"><ele>88.60000000000001</ele><time>2026-03-29T13:56:04.999Z</time></trkpt><trkpt lat="45.31760459564886" lon="8.947766359951705"><ele>88.80000000000001</ele><time>2026-03-29T13:56:05.999Z</time></trkpt><trkpt lat="45.317517054479" lon="8.947865566100942"><ele>89.0</ele><time>2026-03-29T13:56:06.999Z</time></trkpt><trkpt lat="45.31742036609387" lon="8.947973834926774"><ele>89.0</ele><time>2026-03-29T13:56:07.999Z</time></trkpt><trkpt lat="45.31733660286044" lon="8.948065392046969"><ele>89.0</ele><time>2026-03-29T13:56:08.999Z</time></trkpt><trkpt lat="45.317257247259555" lon="8.948153344234983"><ele>89.0</ele><time>2026-03-29T13:56:09.999Z</time></trkpt><trkpt lat="45.31716708924909" lon="8.948256308054031"><ele>89.0</ele><time>2026-03-29T13:56:10.999Z</time></trkpt><trkpt lat="45.3170753249208" lon="8.94834494880626"><ele>89.0</ele><time>2026-03-29T13:56:11.999Z</time></trkpt><trkpt lat="45.31699340476407" lon="8.94843260533477"><ele>89.0</ele><time>2026-03-29T13:56:12.999Z</time></trkpt><trkpt lat="45.31691030715523" lon="8.948524442959702"><ele>89.0</ele><time>2026-03-29T13:56:13.999Z</time></trkpt><trkpt lat="45.3168253523845" lon="8.94861494540803"><ele>89.0</ele><time>2026-03-29T13:56:14.999Z</time></trkpt><trkpt lat="45.31675858878582" lon="8.948697750552032"><ele>89.0</ele><time>2026-03-29T13:56:15.999Z</time></trkpt><trkpt lat="45.31668277014694" lon="8.948778824369654"><ele>89.0</ele><time>2026-03-29T13:56:16.999Z</time></trkpt><trkpt lat="45.316614145013006" lon="8.948897695243963"><ele>89.0</ele><time>2026-03-29T13:56:17.999Z</time></trkpt><trkpt lat="45.31654293138019" lon="8.949026255586098"><ele>89.0</ele><time>2026-03-29T13:56:18.999Z</time></trkpt><trkpt lat="45.31647323916838" lon="8.949166468792383"><ele>89.0</ele><time>2026-03-29T13:56:19.999Z</time></trkpt><trkpt lat="45.316402997424746" lon="8.949324576780723"><ele>89.0</ele><time>2026-03-29T13:56:20.999Z</time></trkpt><trkpt lat="45.31633566800164" lon="8.949475198376234"><ele>88.25</ele><time>2026-03-29T13:56:21.999Z</time></trkpt><trkpt lat="45.3162714357118" lon="8.94963145597923"><ele>87.5</ele><time>2026-03-29T13:56:22.999Z</time></trkpt><trkpt lat="45.31620031391728" lon="8.94979588807484"><ele>86.75</ele><time>2026-03-29T13:56:23.999Z</time></trkpt><trkpt lat="45.316128043428975" lon="8.949943853635494"><ele>86.0</ele><time>2026-03-29T13:56:24.999Z</time></trkpt><trkpt lat="45.31606180819573" lon="8.950087971278053"><ele>86.0</ele><time>2026-03-29T13:56:25.999Z</time></trkpt><trkpt lat="45.31599271824307" lon="8.950237130065187"><ele>86.0</ele><time>2026-03-29T13:56:26.999Z</time></trkpt><trkpt lat="45.31593319329292" lon="8.950376010507817"><ele>86.0</ele><time>2026-03-29T13:56:27.999Z</time></trkpt><trkpt lat="45.31587235652212" lon="8.950495509437834"><ele>86.0</ele><time>2026-03-29T13:56:28.999Z</time></trkpt><trkpt lat="45.31581545253993" lon="8.95061015176519"><ele>86.0</ele><time>2026-03-29T13:56:29.999Z</time></trkpt><trkpt lat="45.31576306196161" lon="8.950729011858607"><ele>86.0</ele><time>2026-03-29T13:56:30.999Z</time></trkpt><trkpt lat="45.31569330805619" lon="8.950833252250968"><ele>86.0</ele><time>2026-03-29T13:56:31.999Z</time></trkpt><trkpt lat="45.31564449221574" lon="8.95095574694791"><ele>86.0</ele><time>2026-03-29T13:56:32.999Z</time></trkpt><trkpt lat="45.31561420323698" lon="8.951092905761888"><ele>86.0</ele><time>2026-03-29T13:56:33.999Z</time></trkpt><trkpt lat="45.31560614908819" lon="8.951233767040769"><ele>86.0</ele><time>2026-03-29T13:56:34.999Z</time></trkpt><trkpt lat="45.31558675768176" lon="8.951380218983449"><ele>86.25</ele><time>2026-03-29T13:56:35.999Z</time></trkpt><trkpt lat="45.315580932257305" lon="8.951525812138147"><ele>86.5</ele><time>2026-03-29T13:56:36.999Z</time></trkpt><trkpt lat="45.31558307660762" lon="8.951695836492151"><ele>86.75</ele><time>2026-03-29T13:56:37.999Z</time></trkpt><trkpt lat="45.315584777890436" lon="8.951897192675723"><ele>87.0</ele><time>2026-03-29T13:56:38.999Z</time></trkpt><trkpt lat="45.31558752112883" lon="8.95208170548146"><ele>87.0</ele><time>2026-03-29T13:56:39.999Z</time></trkpt><trkpt lat="45.3155885985932" lon="8.952239514439468"><ele>87.0</ele><time>2026-03-29T13:56:40.999Z</time></trkpt><trkpt lat="45.31558865783734" lon="8.952402124670215"><ele>87.0</ele><time>2026-03-29T13:56:41.999Z</time></trkpt><trkpt lat="45.315585183759" lon="8.95257885604448"><ele>87.0</ele><time>2026-03-29T13:56:42.999Z</time></trkpt><trkpt lat="45.31557738713583" lon="8.952739647834933"><ele>86.83333333333333</ele><time>2026-03-29T13:56:43.999Z</time></trkpt><trkpt lat="45.315568833690286" lon="8.952883409913813"><ele>86.66666666666667</ele><time>2026-03-29T13:56:44.999Z</time></trkpt><trkpt lat="45.315559535752676" lon="8.953029186706791"><ele>86.5</ele><time>2026-03-29T13:56:45.999Z</time></trkpt><trkpt lat="45.31555132798771" lon="8.953148203979366"><ele>86.33333333333334</ele><time>2026-03-29T13:56:46.999Z</time></trkpt><trkpt lat="45.31554356614309" lon="8.953261594811819"><ele>86.16666666666667</ele><time>2026-03-29T13:56:47.999Z</time></trkpt><trkpt lat="45.3155366430514" lon="8.953370041562346"><ele>86.0</ele><time>2026-03-29T13:56:48.999Z</time></trkpt><trkpt lat="45.315529016962074" lon="8.953468317847602"><ele>86.0</ele><time>2026-03-29T13:56:49.999Z</time></trkpt><trkpt lat="45.31552080130738" lon="8.95355973624013"><ele>86.0</ele><time>2026-03-29T13:56:50.999Z</time></trkpt><trkpt lat="45.3155120691604" lon="8.953674547954654"><ele>86.0</ele><time>2026-03-29T13:56:51.999Z</time></trkpt><trkpt lat="45.31548040916038" lon="8.953784658717927"><ele>86.0</ele><time>2026-03-29T13:56:52.999Z</time></trkpt><trkpt lat="45.31546347257923" lon="8.953903001608406"><ele>86.0</ele><time>2026-03-29T13:56:53.999Z</time></trkpt><trkpt lat="45.31545256073966" lon="8.954077587434707"><ele>86.0</ele><time>2026-03-29T13:56:54.999Z</time></trkpt><trkpt lat="45.31542233458557" lon="8.954248025036955"><ele>86.25</ele><time>2026-03-29T13:56:55.999Z</time></trkpt><trkpt lat="45.315388314729795" lon="8.954406509448233"><ele>86.5</ele><time>2026-03-29T13:56:56.999Z</time></trkpt><trkpt lat="45.31535248720232" lon="8.954555524460924"><ele>86.75</ele><time>2026-03-29T13:56:57.999Z</time></trkpt><trkpt lat="45.3153127463147" lon="8.95471308893773"><ele>87.0</ele><time>2026-03-29T13:56:58.999Z</time></trkpt><trkpt lat="45.31526685329242" lon="8.954884609585493"><ele>87.0</ele><time>2026-03-29T13:56:59.999Z</time></trkpt><trkpt lat="45.31521520804647" lon="8.955054205771768"><ele>87.0</ele><time>2026-03-29T13:57:00.999Z</time></trkpt><trkpt lat="45.31515342851788" lon="8.955220411652466"><ele>87.0</ele><time>2026-03-29T13:57:01.999Z</time></trkpt><trkpt lat="45.31507967395518" lon="8.95539834213858"><ele>87.0</ele><time>2026-03-29T13:57:02.999Z</time></trkpt><trkpt lat="45.3150064312852" lon="8.955566798999671"><ele>87.0</ele><time>2026-03-29T13:57:03.999Z</time></trkpt><trkpt lat="45.314930653939065" lon="8.95572697722315"><ele>87.0</ele><time>2026-03-29T13:57:04.999Z</time></trkpt><trkpt lat="45.31486148056518" lon="8.955881147634615"><ele>87.0</ele><time>2026-03-29T13:57:05.999Z</time></trkpt><trkpt lat="45.314796123701406" lon="8.956028492586748"><ele>87.0</ele><time>2026-03-29T13:57:06.999Z</time></trkpt><trkpt lat="45.314730100343745" lon="8.956179680686327"><ele>87.0</ele><time>2026-03-29T13:57:07.999Z</time></trkpt><trkpt lat="45.31467246164299" lon="8.956312896583464"><ele>87.0</ele><time>2026-03-29T13:57:08.999Z</time></trkpt><trkpt lat="45.314623429059154" lon="8.956419569870468"><ele>87.0</ele><time>2026-03-29T13:57:09.999Z</time></trkpt><trkpt lat="45.31457911126357" lon="8.956515931605407"><ele>87.0</ele><time>2026-03-29T13:57:10.999Z</time></trkpt><trkpt lat="45.31453761878401" lon="8.956601366470652"><ele>87.0</ele><time>2026-03-29T13:57:11.999Z</time></trkpt><trkpt lat="45.31446032123746" lon="8.956728300600926"><ele>86.8</ele><time>2026-03-29T13:57:13.999Z</time></trkpt><trkpt lat="45.31436888944278" lon="8.956783657697573"><ele>86.6</ele><time>2026-03-29T13:57:15.999Z</time></trkpt><trkpt lat="45.31427080489786" lon="8.956871019852935"><ele>86.39999999999999</ele><time>2026-03-29T13:57:17.999Z</time></trkpt><trkpt lat="45.31420193261208" lon="8.95692904087608"><ele>86.19999999999999</ele><time>2026-03-29T13:57:18.999Z</time></trkpt><trkpt lat="45.31412915649035" lon="8.95699201415114"><ele>86.0</ele><time>2026-03-29T13:57:19.999Z</time></trkpt><trkpt lat="45.31406027231128" lon="8.957064328638765"><ele>86.0</ele><time>2026-03-29T13:57:20.999Z</time></trkpt><trkpt lat="45.31401077403364" lon="8.957148006450254"><ele>86.0</ele><time>2026-03-29T13:57:21.999Z</time></trkpt><trkpt lat="45.31397014857338" lon="8.957250657526048"><ele>86.0</ele><time>2026-03-29T13:57:22.999Z</time></trkpt><trkpt lat="45.31394119362756" lon="8.957381495459973"><ele>86.0</ele><time>2026-03-29T13:57:23.999Z</time></trkpt><trkpt lat="45.313953258083586" lon="8.957553501626139"><ele>86.0</ele><time>2026-03-29T13:57:24.999Z</time></trkpt><trkpt lat="45.31394397543432" lon="8.957734581591563"><ele>86.0</ele><time>2026-03-29T13:57:25.999Z</time></trkpt><trkpt lat="45.31393577920425" lon="8.957900133245237"><ele>86.0</ele><time>2026-03-29T13:57:26.999Z</time></trkpt><trkpt lat="45.3139030501876" lon="8.958058253331805"><ele>86.0</ele><time>2026-03-29T13:57:27.999Z</time></trkpt><trkpt lat="45.31389598379393" lon="8.9582384001092"><ele>86.0</ele><time>2026-03-29T13:57:28.999Z</time></trkpt><trkpt lat="45.31387651029754" lon="8.958423646836916"><ele>86.0</ele><time>2026-03-29T13:57:29.999Z</time></trkpt><trkpt lat="45.31386995352383" lon="8.958640463416353"><ele>86.0</ele><time>2026-03-29T13:57:30.999Z</time></trkpt><trkpt lat="45.313865754840215" lon="8.958877648035328"><ele>86.0</ele><time>2026-03-29T13:57:31.999Z</time></trkpt><trkpt lat="45.31387215067668" lon="8.959084737736703"><ele>86.25</ele><time>2026-03-29T13:57:32.999Z</time></trkpt><trkpt lat="45.31387114256554" lon="8.959284281125656"><ele>86.5</ele><time>2026-03-29T13:57:33.999Z</time></trkpt><trkpt lat="45.31386559661722" lon="8.959490515267403"><ele>86.75</ele><time>2026-03-29T13:57:34.999Z</time></trkpt><trkpt lat="45.31386720436508" lon="8.95970934885504"><ele>87.0</ele><time>2026-03-29T13:57:35.999Z</time></trkpt><trkpt lat="45.313881650197146" lon="8.959910854245434"><ele>87.0</ele><time>2026-03-29T13:57:36.999Z</time></trkpt><trkpt lat="45.31390437346931" lon="8.960113823188912"><ele>87.0</ele><time>2026-03-29T13:57:37.999Z</time></trkpt><trkpt lat="45.31394161266608" lon="8.960328905209307"><ele>87.0</ele><time>2026-03-29T13:57:38.999Z</time></trkpt><trkpt lat="45.31397839539553" lon="8.960544268432887"><ele>87.25</ele><time>2026-03-29T13:57:39.999Z</time></trkpt><trkpt lat="45.3139858649657" lon="8.960751479387127"><ele>87.5</ele><time>2026-03-29T13:57:40.999Z</time></trkpt><trkpt lat="45.31399327428106" lon="8.960965030114593"><ele>87.75</ele><time>2026-03-29T13:57:41.999Z</time></trkpt><trkpt lat="45.31400969201834" lon="8.961181070316853"><ele>88.0</ele><time>2026-03-29T13:57:42.999Z</time></trkpt><trkpt lat="45.31399699809212" lon="8.961413427827694"><ele>88.33333333333333</ele><time>2026-03-29T13:57:43.999Z</time></trkpt><trkpt lat="45.31397223119465" lon="8.961646107118106"><ele>88.66666666666667</ele><time>2026-03-29T13:57:44.999Z</time></trkpt><trkpt lat="45.31393924592334" lon="8.961889701320757"><ele>89.0</ele><time>2026-03-29T13:57:45.999Z</time></trkpt><trkpt lat="45.3138969037569" lon="8.962133918973237"><ele>89.0</ele><time>2026-03-29T13:57:46.999Z</time></trkpt><trkpt lat="45.313848488367206" lon="8.962366946016308"><ele>89.0</ele><time>2026-03-29T13:57:47.999Z</time></trkpt><trkpt lat="45.31379307102148" lon="8.962619185956743"><ele>89.0</ele><time>2026-03-29T13:57:48.999Z</time></trkpt><trkpt lat="45.31374031554318" lon="8.962846227832129"><ele>90.0</ele><time>2026-03-29T13:57:49.999Z</time></trkpt><trkpt lat="45.313696378108915" lon="8.963039177167078"><ele>91.0</ele><time>2026-03-29T13:57:50.999Z</time></trkpt><trkpt lat="45.31365107167834" lon="8.963218091974108"><ele>92.0</ele><time>2026-03-29T13:57:51.999Z</time></trkpt><trkpt lat="45.31359500084244" lon="8.963399360244274"><ele>93.0</ele><time>2026-03-29T13:57:52.999Z</time></trkpt><trkpt lat="45.3135032407546" lon="8.963560469081047"><ele>93.0</ele><time>2026-03-29T13:57:53.999Z</time></trkpt><trkpt lat="45.313415195076274" lon="8.963719224573307"><ele>93.0</ele><time>2026-03-29T13:57:54.999Z</time></trkpt><trkpt lat="45.31334333942545" lon="8.963870915624875"><ele>93.0</ele><time>2026-03-29T13:57:55.999Z</time></trkpt><trkpt lat="45.31325986039986" lon="8.963997258195816"><ele>93.0</ele><time>2026-03-29T13:57:56.999Z</time></trkpt><trkpt lat="45.313172466940195" lon="8.964121449347742"><ele>93.0</ele><time>2026-03-29T13:57:57.999Z</time></trkpt><trkpt lat="45.31308837205745" lon="8.96426040229882"><ele>93.0</ele><time>2026-03-29T13:57:58.999Z</time></trkpt><trkpt lat="45.31301252131734" lon="8.964380618666866"><ele>93.0</ele><time>2026-03-29T13:57:59.999Z</time></trkpt><trkpt lat="45.31293641604534" lon="8.964486064617711"><ele>93.0</ele><time>2026-03-29T13:58:00.999Z</time></trkpt><trkpt lat="45.31286966768841" lon="8.964590885020712"><ele>93.0</ele><time>2026-03-29T13:58:01.999Z</time></trkpt><trkpt lat="45.312801866501246" lon="8.96469586622616"><ele>93.0</ele><time>2026-03-29T13:58:02.999Z</time></trkpt><trkpt lat="45.31273903063037" lon="8.964803017093395"><ele>93.0</ele><time>2026-03-29T13:58:03.999Z</time></trkpt><trkpt lat="45.31267547595871" lon="8.964915073555549"><ele>93.0</ele><time>2026-03-29T13:58:04.999Z</time></trkpt><trkpt lat="45.31260402114067" lon="8.965028415314496"><ele>93.0</ele><time>2026-03-29T13:58:05.999Z</time></trkpt><trkpt lat="45.31253097822822" lon="8.96514868475226"><ele>93.0</ele><time>2026-03-29T13:58:06.999Z</time></trkpt><trkpt lat="45.31245105602528" lon="8.965277329928952"><ele>93.2</ele><time>2026-03-29T13:58:07.999Z</time></trkpt><trkpt lat="45.312373679219625" lon="8.965399205687435"><ele>93.4</ele><time>2026-03-29T13:58:08.999Z</time></trkpt><trkpt lat="45.312298199685536" lon="8.965524410255808"><ele>93.60000000000001</ele><time>2026-03-29T13:58:09.999Z</time></trkpt><trkpt lat="45.312227130704954" lon="8.965648462015267"><ele>93.80000000000001</ele><time>2026-03-29T13:58:10.999Z</time></trkpt><trkpt lat="45.31216563946636" lon="8.965761537146248"><ele>94.0</ele><time>2026-03-29T13:58:11.999Z</time></trkpt><trkpt lat="45.31211232513531" lon="8.965862788755102"><ele>94.80000000000001</ele><time>2026-03-29T13:58:12.999Z</time></trkpt><trkpt lat="45.312064121747575" lon="8.965920487821787"><ele>95.60000000000001</ele><time>2026-03-29T13:58:13.999Z</time></trkpt><trkpt lat="45.31200183057029" lon="8.966051690034424"><ele>96.4</ele><time>2026-03-29T13:58:15.999Z</time></trkpt><trkpt lat="45.311920583373265" lon="8.966132378918669"><ele>97.2</ele><time>2026-03-29T13:58:17.999Z</time></trkpt><trkpt lat="45.3117999622708" lon="8.966195751411924"><ele>98.0</ele><time>2026-03-29T13:58:19.999Z</time></trkpt><trkpt lat="45.311706887766405" lon="8.9662106874473"><ele>97.99999999999999</ele><time>2026-03-29T13:58:20.999Z</time></trkpt><trkpt lat="45.31163750129803" lon="8.966225026343027"><ele>98.0</ele><time>2026-03-29T13:58:21.999Z</time></trkpt><trkpt lat="45.31153354320168" lon="8.966243683450625"><ele>98.0</ele><time>2026-03-29T13:58:23.999Z</time></trkpt><trkpt lat="45.31146334945897" lon="8.966172205985075"><ele>98.0</ele><time>2026-03-29T13:58:25.999Z</time></trkpt><trkpt lat="45.311434298407896" lon="8.966080552964842"><ele>97.99999999999999</ele><time>2026-03-29T13:58:26.999Z</time></trkpt><trkpt lat="45.311427709969706" lon="8.965939236922278"><ele>98.0</ele><time>2026-03-29T13:58:27.999Z</time></trkpt><trkpt lat="45.31139259721393" lon="8.965832333813726"><ele>97.33333333333333</ele><time>2026-03-29T13:58:28.999Z</time></trkpt><trkpt lat="45.311362632481064" lon="8.965729497644485"><ele>96.66666666666666</ele><time>2026-03-29T13:58:29.999Z</time></trkpt><trkpt lat="45.31133002472898" lon="8.965617590893476"><ele>96.0</ele><time>2026-03-29T13:58:30.999Z</time></trkpt><trkpt lat="45.31129977334816" lon="8.965515065824532"><ele>95.33333333333333</ele><time>2026-03-29T13:58:31.999Z</time></trkpt><trkpt lat="45.31126817166489" lon="8.965410028731474"><ele>94.66666666666666</ele><time>2026-03-29T13:58:32.999Z</time></trkpt><trkpt lat="45.31122338011848" lon="8.965319716707292"><ele>94.0</ele><time>2026-03-29T13:58:33.999Z</time></trkpt><trkpt lat="45.311200599196034" lon="8.965204117527493"><ele>94.0</ele><time>2026-03-29T13:58:34.999Z</time></trkpt><trkpt lat="45.31116550672609" lon="8.965087866905462"><ele>94.0</ele><time>2026-03-29T13:58:35.999Z</time></trkpt><trkpt lat="45.31112754645035" lon="8.964946814797603"><ele>94.0</ele><time>2026-03-29T13:58:36.999Z</time></trkpt><trkpt lat="45.31108673638904" lon="8.964794357300066"><ele>94.0</ele><time>2026-03-29T13:58:37.999Z</time></trkpt><trkpt lat="45.31104978799652" lon="8.96465224347732"><ele>94.0</ele><time>2026-03-29T13:58:38.999Z</time></trkpt><trkpt lat="45.311012978293775" lon="8.964509045991255"><ele>92.75</ele><time>2026-03-29T13:58:39.999Z</time></trkpt><trkpt lat="45.310976151882386" lon="8.964372824523375"><ele>91.5</ele><time>2026-03-29T13:58:40.999Z</time></trkpt><trkpt lat="45.31093682142894" lon="8.964219143809894"><ele>90.25</ele><time>2026-03-29T13:58:41.999Z</time></trkpt><trkpt lat="45.31089566916653" lon="8.964070502196204"><ele>89.0</ele><time>2026-03-29T13:58:42.999Z</time></trkpt><trkpt lat="45.31084615102399" lon="8.963913382917106"><ele>89.0</ele><time>2026-03-29T13:58:43.999Z</time></trkpt><trkpt lat="45.31079921823991" lon="8.963763266236784"><ele>89.0</ele><time>2026-03-29T13:58:44.999Z</time></trkpt><trkpt lat="45.31077131557425" lon="8.963584730667872"><ele>89.0</ele><time>2026-03-29T13:58:45.999Z</time></trkpt><trkpt lat="45.310720305769244" lon="8.963380874044274"><ele>89.0</ele><time>2026-03-29T13:58:46.999Z</time></trkpt><trkpt lat="45.310660923001" lon="8.963153374433544"><ele>89.0</ele><time>2026-03-29T13:58:47.999Z</time></trkpt><trkpt lat="45.31060146530783" lon="8.962926964778795"><ele>89.0</ele><time>2026-03-29T13:58:48.999Z</time></trkpt><trkpt lat="45.31054452572825" lon="8.9627169344629"><ele>89.0</ele><time>2026-03-29T13:58:49.999Z</time></trkpt><trkpt lat="45.31049195536674" lon="8.962524979849281"><ele>88.0</ele><time>2026-03-29T13:58:50.999Z</time></trkpt><trkpt lat="45.31043707226223" lon="8.962328043546615"><ele>87.0</ele><time>2026-03-29T13:58:51.999Z</time></trkpt><trkpt lat="45.3103826372302" lon="8.962130184161538"><ele>86.0</ele><time>2026-03-29T13:58:52.999Z</time></trkpt><trkpt lat="45.31032755956028" lon="8.961928312828181"><ele>86.0</ele><time>2026-03-29T13:58:53.999Z</time></trkpt><trkpt lat="45.31026028607505" lon="8.961738059537852"><ele>86.0</ele><time>2026-03-29T13:58:54.999Z</time></trkpt><trkpt lat="45.310211475123936" lon="8.961543897092634"><ele>86.0</ele><time>2026-03-29T13:58:55.999Z</time></trkpt><trkpt lat="45.31015960421637" lon="8.961342619115753"><ele>86.0</ele><time>2026-03-29T13:58:56.999Z</time></trkpt><trkpt lat="45.310118193245266" lon="8.961108847421134"><ele>86.66666666666667</ele><time>2026-03-29T13:58:57.999Z</time></trkpt><trkpt lat="45.310061377992625" lon="8.96088413449006"><ele>87.33333333333333</ele><time>2026-03-29T13:58:58.999Z</time></trkpt><trkpt lat="45.31001233006412" lon="8.960690282064116"><ele>88.0</ele><time>2026-03-29T13:58:59.999Z</time></trkpt><trkpt lat="45.3099640485425" lon="8.960499458781207"><ele>88.0</ele><time>2026-03-29T13:59:00.999Z</time></trkpt><trkpt lat="45.30990171747101" lon="8.960323309078952"><ele>88.0</ele><time>2026-03-29T13:59:01.999Z</time></trkpt><trkpt lat="45.30985966003547" lon="8.960154322095313"><ele>88.0</ele><time>2026-03-29T13:59:02.999Z</time></trkpt><trkpt lat="45.309824814539716" lon="8.959995607347425"><ele>88.0</ele><time>2026-03-29T13:59:03.999Z</time></trkpt><trkpt lat="45.30978278206023" lon="8.959849844295155"><ele>87.83333333333333</ele><time>2026-03-29T13:59:04.999Z</time></trkpt><trkpt lat="45.30974866890234" lon="8.959711500689805"><ele>87.66666666666666</ele><time>2026-03-29T13:59:05.999Z</time></trkpt><trkpt lat="45.30971576817406" lon="8.959581284274806"><ele>87.5</ele><time>2026-03-29T13:59:06.999Z</time></trkpt><trkpt lat="45.30969966664877" lon="8.959459644762104"><ele>87.33333333333333</ele><time>2026-03-29T13:59:07.999Z</time></trkpt><trkpt lat="45.30967547582585" lon="8.959344928985457"><ele>87.16666666666667</ele><time>2026-03-29T13:59:08.999Z</time></trkpt><trkpt lat="45.30965278231154" lon="8.959256059994754"><ele>87.0</ele><time>2026-03-29T13:59:09.999Z</time></trkpt><trkpt lat="45.309627945221244" lon="8.959165528890683"><ele>86.66666666666667</ele><time>2026-03-29T13:59:10.999Z</time></trkpt><trkpt lat="45.30959478913228" lon="8.95908691561836"><ele>86.33333333333333</ele><time>2026-03-29T13:59:11.999Z</time></trkpt><trkpt lat="45.30950842469314" lon="8.958964888007303"><ele>86.0</ele><time>2026-03-29T13:59:13.999Z</time></trkpt><trkpt lat="45.30943347622311" lon="8.958931457840725"><ele>85.66666666666666</ele><time>2026-03-29T13:59:14.999Z</time></trkpt><trkpt lat="45.309344821901064" lon="8.958939007756065"><ele>85.33333333333333</ele><time>2026-03-29T13:59:15.999Z</time></trkpt><trkpt lat="45.309262085183875" lon="8.95894986548411"><ele>85.0</ele><time>2026-03-29T13:59:16.999Z</time></trkpt><trkpt lat="45.309158170220144" lon="8.958969242449038"><ele>85.0</ele><time>2026-03-29T13:59:17.999Z</time></trkpt><trkpt lat="45.3090625135707" lon="8.958992281147"><ele>85.0</ele><time>2026-03-29T13:59:18.999Z</time></trkpt><trkpt lat="45.308916534815815" lon="8.959030115542745"><ele>85.0</ele><time>2026-03-29T13:59:19.999Z</time></trkpt><trkpt lat="45.30876279569288" lon="8.959069961256755"><ele>85.0</ele><time>2026-03-29T13:59:20.999Z</time></trkpt><trkpt lat="45.30860097054759" lon="8.959109709164732"><ele>85.0</ele><time>2026-03-29T13:59:21.999Z</time></trkpt><trkpt lat="45.308452216106986" lon="8.959145915894695"><ele>85.0</ele><time>2026-03-29T13:59:22.999Z</time></trkpt><trkpt lat="45.308291409031035" lon="8.959208066907463"><ele>85.0</ele><time>2026-03-29T13:59:23.999Z</time></trkpt><trkpt lat="45.30814469203481" lon="8.959219077769387"><ele>87.0</ele><time>2026-03-29T13:59:24.999Z</time></trkpt><trkpt lat="45.308001226261496" lon="8.959251807482607"><ele>89.0</ele><time>2026-03-29T13:59:25.999Z</time></trkpt><trkpt lat="45.307853962572985" lon="8.959285403628686"><ele>91.0</ele><time>2026-03-29T13:59:26.999Z</time></trkpt><trkpt lat="45.30769831890846" lon="8.959339195615643"><ele>91.0</ele><time>2026-03-29T13:59:27.999Z</time></trkpt><trkpt lat="45.30753286017983" lon="8.959367166120376"><ele>91.0</ele><time>2026-03-29T13:59:28.999Z</time></trkpt><trkpt lat="45.30736229778519" lon="8.959388808543858"><ele>91.0</ele><time>2026-03-29T13:59:29.999Z</time></trkpt><trkpt lat="45.30718248088974" lon="8.959386743985641"><ele>91.75</ele><time>2026-03-29T13:59:30.999Z</time></trkpt><trkpt lat="45.30702652526388" lon="8.959401715748037"><ele>92.5</ele><time>2026-03-29T13:59:31.999Z</time></trkpt><trkpt lat="45.3068749796967" lon="8.959417828826018"><ele>93.25</ele><time>2026-03-29T13:59:32.999Z</time></trkpt><trkpt lat="45.30674329493172" lon="8.959431879228287"><ele>94.0</ele><time>2026-03-29T13:59:33.999Z</time></trkpt><trkpt lat="45.306606288999866" lon="8.95944613776241"><ele>94.0</ele><time>2026-03-29T13:59:34.999Z</time></trkpt><trkpt lat="45.306480089205856" lon="8.959459271679298"><ele>94.0</ele><time>2026-03-29T13:59:35.999Z</time></trkpt><trkpt lat="45.30636516892875" lon="8.959472209848105"><ele>94.0</ele><time>2026-03-29T13:59:36.999Z</time></trkpt><trkpt lat="45.30625740978634" lon="8.959484597725"><ele>94.0</ele><time>2026-03-29T13:59:37.999Z</time></trkpt><trkpt lat="45.30616738723908" lon="8.959494511220102"><ele>94.0</ele><time>2026-03-29T13:59:38.999Z</time></trkpt><trkpt lat="45.3060831718768" lon="8.95949948715501"><ele>93.33333333333333</ele><time>2026-03-29T13:59:39.999Z</time></trkpt><trkpt lat="45.30600406019658" lon="8.959519597741814"><ele>92.66666666666666</ele><time>2026-03-29T13:59:40.999Z</time></trkpt><trkpt lat="45.30594011432734" lon="8.95950111956018"><ele>92.0</ele><time>2026-03-29T13:59:41.999Z</time></trkpt><trkpt lat="45.30588405483135" lon="8.95946018037886"><ele>91.33333333333333</ele><time>2026-03-29T13:59:42.999Z</time></trkpt><trkpt lat="45.3058060418194" lon="8.959330756159625"><ele>90.66666666666667</ele><time>2026-03-29T13:59:44.999Z</time></trkpt><trkpt lat="45.305768520373725" lon="8.959230273261525"><ele>90.0</ele><time>2026-03-29T13:59:45.999Z</time></trkpt><trkpt lat="45.30572477870616" lon="8.959085500153241"><ele>89.25</ele><time>2026-03-29T13:59:46.999Z</time></trkpt><trkpt lat="45.305666920775856" lon="8.958901131415493"><ele>88.5</ele><time>2026-03-29T13:59:47.999Z</time></trkpt><trkpt lat="45.305628705221004" lon="8.958723577689389"><ele>87.75</ele><time>2026-03-29T13:59:48.999Z</time></trkpt><trkpt lat="45.30557579322625" lon="8.958587680698145"><ele>87.0</ele><time>2026-03-29T13:59:49.999Z</time></trkpt><trkpt lat="45.30553611327666" lon="8.958460327362742"><ele>86.66666666666667</ele><time>2026-03-29T13:59:50.999Z</time></trkpt><trkpt lat="45.305500169009626" lon="8.95833566833544"><ele>86.33333333333333</ele><time>2026-03-29T13:59:51.999Z</time></trkpt><trkpt lat="45.30546322117596" lon="8.958220149715535"><ele>86.0</ele><time>2026-03-29T13:59:52.999Z</time></trkpt><trkpt lat="45.30543214349145" lon="8.958108317344584"><ele>85.66666666666666</ele><time>2026-03-29T13:59:53.999Z</time></trkpt><trkpt lat="45.305406807484836" lon="8.95801908435699"><ele>85.33333333333333</ele><time>2026-03-29T13:59:54.999Z</time></trkpt><trkpt lat="45.30537792849885" lon="8.95793523852799"><ele>85.0</ele><time>2026-03-29T13:59:55.999Z</time></trkpt><trkpt lat="45.305315464297564" lon="8.957778160707514"><ele>85.0</ele><time>2026-03-29T13:59:58Z</time></trkpt><trkpt lat="45.30523315118683" lon="8.957711091328301"><ele>85.0</ele><time>2026-03-29T13:59:59Z</time></trkpt><trkpt lat="45.3051547919739" lon="8.957597139385449"><ele>85.0</ele><time>2026-03-29T14:00:00Z</time></trkpt><trkpt lat="45.305061236244725" lon="8.957499419308313"><ele>85.0</ele><time>2026-03-29T14:00:01Z</time></trkpt><trkpt lat="45.30497060589461" lon="8.957425881534439"><ele>85.0</ele><time>2026-03-29T14:00:02Z</time></trkpt><trkpt lat="45.304898644847505" lon="8.957330832600897"><ele>85.0</ele><time>2026-03-29T14:00:03Z</time></trkpt><trkpt lat="45.304832110122604" lon="8.957228330128505"><ele>85.0</ele><time>2026-03-29T14:00:04Z</time></trkpt><trkpt lat="45.30476629874257" lon="8.957108181797208"><ele>85.0</ele><time>2026-03-29T14:00:05Z</time></trkpt><trkpt lat="45.30468356260576" lon="8.95699071806286"><ele>85.0</ele><time>2026-03-29T14:00:06Z</time></trkpt><trkpt lat="45.304624988754675" lon="8.956873413842233"><ele>85.0</ele><time>2026-03-29T14:00:07Z</time></trkpt><trkpt lat="45.30455335186258" lon="8.956762008550593"><ele>85.8</ele><time>2026-03-29T14:00:08Z</time></trkpt><trkpt lat="45.30449408067381" lon="8.956620847008974"><ele>86.6</ele><time>2026-03-29T14:00:09Z</time></trkpt><trkpt lat="45.30442374827072" lon="8.956492975516275"><ele>87.4</ele><time>2026-03-29T14:00:10Z</time></trkpt><trkpt lat="45.304359001766876" lon="8.956375366753857"><ele>88.2</ele><time>2026-03-29T14:00:11Z</time></trkpt><trkpt lat="45.30430165642265" lon="8.956272160570702"><ele>89.0</ele><time>2026-03-29T14:00:12Z</time></trkpt><trkpt lat="45.304246878977565" lon="8.956172936243652"><ele>89.0</ele><time>2026-03-29T14:00:13Z</time></trkpt><trkpt lat="45.304190643143784" lon="8.956063039515794"><ele>89.0</ele><time>2026-03-29T14:00:13.999Z</time></trkpt><trkpt lat="45.30414428871119" lon="8.955962732632754"><ele>89.0</ele><time>2026-03-29T14:00:14.999Z</time></trkpt><trkpt lat="45.304104751126474" lon="8.955864442216875"><ele>89.0</ele><time>2026-03-29T14:00:15.999Z</time></trkpt><trkpt lat="45.304064656169984" lon="8.955757918023771"><ele>89.0</ele><time>2026-03-29T14:00:16.999Z</time></trkpt><trkpt lat="45.304021985174" lon="8.95564468156621"><ele>89.0</ele><time>2026-03-29T14:00:17.999Z</time></trkpt><trkpt lat="45.30395484874915" lon="8.955533802990592"><ele>88.0</ele><time>2026-03-29T14:00:18.999Z</time></trkpt><trkpt lat="45.30389588325616" lon="8.955406280165608"><ele>87.0</ele><time>2026-03-29T14:00:19.999Z</time></trkpt><trkpt lat="45.303819881382104" lon="8.95527896604482"><ele>86.0</ele><time>2026-03-29T14:00:20.999Z</time></trkpt><trkpt lat="45.3037641177408" lon="8.95515870811879"><ele>85.0</ele><time>2026-03-29T14:00:21.999Z</time></trkpt><trkpt lat="45.30369214798749" lon="8.955075550317423"><ele>84.0</ele><time>2026-03-29T14:00:22.999Z</time></trkpt><trkpt lat="45.303646291060645" lon="8.954955053741756"><ele>84.0</ele><time>2026-03-29T14:00:23.999Z</time></trkpt><trkpt lat="45.303595653935055" lon="8.954863589271568"><ele>84.0</ele><time>2026-03-29T14:00:24.999Z</time></trkpt><trkpt lat="45.30354003560802" lon="8.95478250467093"><ele>84.0</ele><time>2026-03-29T14:00:25.999Z</time></trkpt><trkpt lat="45.303461384036744" lon="8.954697547065138"><ele>84.0</ele><time>2026-03-29T14:00:26.999Z</time></trkpt><trkpt lat="45.30337222663074" lon="8.954633078376704"><ele>84.0</ele><time>2026-03-29T14:00:27.999Z</time></trkpt><trkpt lat="45.30326328109633" lon="8.954566258237985"><ele>84.0</ele><time>2026-03-29T14:00:28.999Z</time></trkpt><trkpt lat="45.30313839292912" lon="8.954500758515264"><ele>84.0</ele><time>2026-03-29T14:00:29.999Z</time></trkpt><trkpt lat="45.303030651617" lon="8.954457617702184"><ele>84.0</ele><time>2026-03-29T14:00:30.999Z</time></trkpt><trkpt lat="45.3029320106291" lon="8.954423418409611"><ele>84.0</ele><time>2026-03-29T14:00:31.999Z</time></trkpt><trkpt lat="45.302829420367" lon="8.954398262106716"><ele>83.83333333333333</ele><time>2026-03-29T14:00:32.999Z</time></trkpt><trkpt lat="45.3027357868334" lon="8.954386421371142"><ele>83.66666666666667</ele><time>2026-03-29T14:00:33.999Z</time></trkpt><trkpt lat="45.30262388303276" lon="8.954394159024533"><ele>83.5</ele><time>2026-03-29T14:00:34.999Z</time></trkpt><trkpt lat="45.30252858118849" lon="8.95442499733909"><ele>83.33333333333334</ele><time>2026-03-29T14:00:35.999Z</time></trkpt><trkpt lat="45.30245408175182" lon="8.9544504380066"><ele>83.16666666666667</ele><time>2026-03-29T14:00:36.999Z</time></trkpt><trkpt lat="45.302392104610256" lon="8.954482323838258"><ele>83.0</ele><time>2026-03-29T14:00:37.999Z</time></trkpt><trkpt lat="45.302280089265444" lon="8.95449710944797"><ele>82.80000000000001</ele><time>2026-03-29T14:00:39.999Z</time></trkpt><trkpt lat="45.30221872466666" lon="8.954466009984385"><ele>82.6</ele><time>2026-03-29T14:00:40.999Z</time></trkpt><trkpt lat="45.30216503006788" lon="8.954408032666219"><ele>82.4</ele><time>2026-03-29T14:00:41.999Z</time></trkpt><trkpt lat="45.30212599302409" lon="8.954293058550926"><ele>82.19999999999999</ele><time>2026-03-29T14:00:42.999Z</time></trkpt><trkpt lat="45.302047524829575" lon="8.954158464909122"><ele>82.0</ele><time>2026-03-29T14:00:43.999Z</time></trkpt><trkpt lat="45.30195273569843" lon="8.954029278472717"><ele>82.0</ele><time>2026-03-29T14:00:44.999Z</time></trkpt><trkpt lat="45.30187616571337" lon="8.953889130889623"><ele>82.0</ele><time>2026-03-29T14:00:45.999Z</time></trkpt><trkpt lat="45.301805635273475" lon="8.953770988368808"><ele>82.0</ele><time>2026-03-29T14:00:46.999Z</time></trkpt><trkpt lat="45.301755702537555" lon="8.953649886701994"><ele>82.0</ele><time>2026-03-29T14:00:47.999Z</time></trkpt><trkpt lat="45.30169432472558" lon="8.953538778759642"><ele>82.0</ele><time>2026-03-29T14:00:48.999Z</time></trkpt><trkpt lat="45.3016330779159" lon="8.953427633948762"><ele>82.16666666666666</ele><time>2026-03-29T14:00:49.999Z</time></trkpt><trkpt lat="45.301575182543694" lon="8.953322018329931"><ele>82.33333333333333</ele><time>2026-03-29T14:00:50.999Z</time></trkpt><trkpt lat="45.301523597587696" lon="8.953227914635319"><ele>82.5</ele><time>2026-03-29T14:00:51.999Z</time></trkpt><trkpt lat="45.301481179401534" lon="8.953150533254254"><ele>82.66666666666667</ele><time>2026-03-29T14:00:52.999Z</time></trkpt><trkpt lat="45.301414040333675" lon="8.953066759355782"><ele>82.83333333333334</ele><time>2026-03-29T14:00:54.999Z</time></trkpt><trkpt lat="45.30135126409808" lon="8.952950396530538"><ele>83.0</ele><time>2026-03-29T14:00:56.999Z</time></trkpt><trkpt lat="45.301250025352836" lon="8.952883016687743"><ele>83.0</ele><time>2026-03-29T14:00:58.999Z</time></trkpt><trkpt lat="45.30113228005955" lon="8.952976159321537"><ele>83.0</ele><time>2026-03-29T14:00:59.999Z</time></trkpt><trkpt lat="45.3010373704586" lon="8.953043961968437"><ele>83.0</ele><time>2026-03-29T14:01:00.999Z</time></trkpt><trkpt lat="45.30094765421953" lon="8.953118226809046"><ele>83.0</ele><time>2026-03-29T14:01:01.999Z</time></trkpt><trkpt lat="45.300886676279504" lon="8.953195292188726"><ele>83.0</ele><time>2026-03-29T14:01:02.999Z</time></trkpt><trkpt lat="45.30082618519871" lon="8.953231536003779"><ele>83.0</ele><time>2026-03-29T14:01:03.999Z</time></trkpt><trkpt lat="45.300729367323434" lon="8.953230715214588"><ele>83.0</ele><time>2026-03-29T14:01:05.999Z</time></trkpt><trkpt lat="45.300667476690684" lon="8.953167120407928"><ele>83.0</ele><time>2026-03-29T14:01:07.999Z</time></trkpt><trkpt lat="45.30060229864306" lon="8.953004162263"><ele>83.0</ele><time>2026-03-29T14:01:09.999Z</time></trkpt><trkpt lat="45.30055219146427" lon="8.952854745765336"><ele>83.0</ele><time>2026-03-29T14:01:10.999Z</time></trkpt><trkpt lat="45.30048042527904" lon="8.952680397284839"><ele>83.25</ele><time>2026-03-29T14:01:11.999Z</time></trkpt><trkpt lat="45.300440916851144" lon="8.952503459486948"><ele>83.5</ele><time>2026-03-29T14:01:12.999Z</time></trkpt><trkpt lat="45.30039457087375" lon="8.952356416807456"><ele>83.75</ele><time>2026-03-29T14:01:13.999Z</time></trkpt><trkpt lat="45.30033309489908" lon="8.952212370911962"><ele>84.0</ele><time>2026-03-29T14:01:14.999Z</time></trkpt><trkpt lat="45.3002984783622" lon="8.952060487868785"><ele>84.0</ele><time>2026-03-29T14:01:15.999Z</time></trkpt><trkpt lat="45.30025674769687" lon="8.95193413261101"><ele>84.0</ele><time>2026-03-29T14:01:16.999Z</time></trkpt><trkpt lat="45.30021662925672" lon="8.951812658954616"><ele>84.0</ele><time>2026-03-29T14:01:17.999Z</time></trkpt><trkpt lat="45.3001730843088" lon="8.951680810287026"><ele>84.0</ele><time>2026-03-29T14:01:18.999Z</time></trkpt><trkpt lat="45.30012982794662" lon="8.95154983544319"><ele>84.0</ele><time>2026-03-29T14:01:19.999Z</time></trkpt><trkpt lat="45.30008983190307" lon="8.951428857548589"><ele>84.0</ele><time>2026-03-29T14:01:20.999Z</time></trkpt><trkpt lat="45.30004986615989" lon="8.951309834959087"><ele>84.0</ele><time>2026-03-29T14:01:21.999Z</time></trkpt><trkpt lat="45.30001157679765" lon="8.95120418370768"><ele>84.0</ele><time>2026-03-29T14:01:22.999Z</time></trkpt><trkpt lat="45.29998029560613" lon="8.951119684596252"><ele>84.0</ele><time>2026-03-29T14:01:23.999Z</time></trkpt><trkpt lat="45.299931891088114" lon="8.951004071903046"><ele>84.0</ele><time>2026-03-29T14:01:25.999Z</time></trkpt><trkpt lat="45.299880305680645" lon="8.950912392555555"><ele>84.0</ele><time>2026-03-29T14:01:27.999Z</time></trkpt><trkpt lat="45.29982785749235" lon="8.950862744449767"><ele>84.0</ele><time>2026-03-29T14:01:29.999Z</time></trkpt><trkpt lat="45.29976249789783" lon="8.950853245588414"><ele>84.0</ele><time>2026-03-29T14:01:31.999Z</time></trkpt><trkpt lat="45.29968955421206" lon="8.950791397102556"><ele>81.0</ele><time>2026-03-29T14:01:34.999Z</time></trkpt><trkpt lat="45.29962997034732" lon="8.95072545176513"><ele>81.0</ele><time>2026-03-29T14:01:38.999Z</time></trkpt><trkpt lat="45.299656533136414" lon="8.950560757623046"><ele>81.0</ele><time>2026-03-29T14:01:39.999Z</time></trkpt><trkpt lat="45.29963159961515" lon="8.950472856050526"><ele>81.0</ele><time>2026-03-29T14:01:42.999Z</time></trkpt></trkseg><trkseg><trkpt lat="45.299659175061414" lon="8.950553270126747"><ele>81.0</ele><time>2026-03-29T14:34:41Z</time></trkpt><trkpt lat="45.299703027096214" lon="8.950688324278621"><ele>81.0</ele><time>2026-03-29T14:34:43Z</time></trkpt><trkpt lat="45.299733409716325" lon="8.950799674726209"><ele>81.0</ele><time>2026-03-29T14:34:45Z</time></trkpt><trkpt lat="45.29977011102431" lon="8.950873821675982"><ele>81.0</ele><time>2026-03-29T14:34:48Z</time></trkpt><trkpt lat="45.299825770252326" lon="8.950925164279191"><ele>81.0</ele><time>2026-03-29T14:34:50Z</time></trkpt><trkpt lat="45.299909796655044" lon="8.951023199501144"><ele>81.0</ele><time>2026-03-29T14:34:52Z</time></trkpt><trkpt lat="45.299958357426476" lon="8.951149698905361"><ele>81.6</ele><time>2026-03-29T14:34:54Z</time></trkpt><trkpt lat="45.29999934451731" lon="8.95125632152483"><ele>82.19999999999999</ele><time>2026-03-29T14:34:55Z</time></trkpt><trkpt lat="45.30003680091284" lon="8.951364738543862"><ele>82.80000000000001</ele><time>2026-03-29T14:34:56Z</time></trkpt><trkpt lat="45.300087145682504" lon="8.951549623901512"><ele>83.4</ele><time>2026-03-29T14:34:58Z</time></trkpt><trkpt lat="45.300126630574994" lon="8.951667668328032"><ele>84.0</ele><time>2026-03-29T14:34:59Z</time></trkpt><trkpt lat="45.30016208063137" lon="8.951766036425935"><ele>84.0</ele><time>2026-03-29T14:35:00Z</time></trkpt><trkpt lat="45.30020763241267" lon="8.951859039612224"><ele>84.0</ele><time>2026-03-29T14:35:01Z</time></trkpt><trkpt lat="45.30024105029061" lon="8.951960723196079"><ele>84.0</ele><time>2026-03-29T14:35:02Z</time></trkpt><trkpt lat="45.300277887225604" lon="8.952069267158242"><ele>84.0</ele><time>2026-03-29T14:35:03Z</time></trkpt><trkpt lat="45.3003155314438" lon="8.952183522660405"><ele>84.0</ele><time>2026-03-29T14:35:04Z</time></trkpt><trkpt lat="45.300358476937866" lon="8.952308286059575"><ele>84.0</ele><time>2026-03-29T14:35:05Z</time></trkpt><trkpt lat="45.3003952944551" lon="8.952433866585649"><ele>83.80000000000001</ele><time>2026-03-29T14:35:06Z</time></trkpt><trkpt lat="45.300421594940175" lon="8.952557837031488"><ele>83.60000000000001</ele><time>2026-03-29T14:35:07Z</time></trkpt><trkpt lat="45.30047472077603" lon="8.952683550788345"><ele>83.4</ele><time>2026-03-29T14:35:08Z</time></trkpt><trkpt lat="45.30051798027343" lon="8.952812417376311"><ele>83.2</ele><time>2026-03-29T14:35:09Z</time></trkpt><trkpt lat="45.300553174249345" lon="8.952920953166611"><ele>83.0</ele><time>2026-03-29T14:35:10Z</time></trkpt><trkpt lat="45.30058474725587" lon="8.953023314849165"><ele>83.0</ele><time>2026-03-29T14:35:11Z</time></trkpt><trkpt lat="45.300631794548046" lon="8.9531771851892"><ele>83.0</ele><time>2026-03-29T14:35:13Z</time></trkpt><trkpt lat="45.30070172523511" lon="8.953266201453046"><ele>83.0</ele><time>2026-03-29T14:35:15Z</time></trkpt><trkpt lat="45.30080298476641" lon="8.953265782199072"><ele>83.0</ele><time>2026-03-29T14:35:17Z</time></trkpt><trkpt lat="45.30091790970898" lon="8.953183945406533"><ele>83.0</ele><time>2026-03-29T14:35:19Z</time></trkpt><trkpt lat="45.30098397726184" lon="8.9531285686428"><ele>83.0</ele><time>2026-03-29T14:35:20Z</time></trkpt><trkpt lat="45.30105620951034" lon="8.95307248400679"><ele>83.0</ele><time>2026-03-29T14:35:21Z</time></trkpt><trkpt lat="45.30111684055506" lon="8.953032524394368"><ele>83.0</ele><time>2026-03-29T14:35:22Z</time></trkpt><trkpt lat="45.301220124631996" lon="8.952971810243483"><ele>83.0</ele><time>2026-03-29T14:35:24Z</time></trkpt><trkpt lat="45.301316990596064" lon="8.95299422407961"><ele>83.0</ele><time>2026-03-29T14:35:26Z</time></trkpt><trkpt lat="45.30141988763966" lon="8.953098803339591"><ele>83.2</ele><time>2026-03-29T14:35:28Z</time></trkpt><trkpt lat="45.30147797197515" lon="8.95319401191168"><ele>83.4</ele><time>2026-03-29T14:35:29Z</time></trkpt><trkpt lat="45.30153834765827" lon="8.953308623033372"><ele>83.60000000000001</ele><time>2026-03-29T14:35:30Z</time></trkpt><trkpt lat="45.301605901334874" lon="8.953444750744936"><ele>83.80000000000001</ele><time>2026-03-29T14:35:31Z</time></trkpt><trkpt lat="45.30168540507865" lon="8.953579870518752"><ele>84.0</ele><time>2026-03-29T14:35:32Z</time></trkpt><trkpt lat="45.3017561489747" lon="8.953705155624188"><ele>83.6</ele><time>2026-03-29T14:35:33Z</time></trkpt><trkpt lat="45.301826565978615" lon="8.953829674165837"><ele>83.2</ele><time>2026-03-29T14:35:34Z</time></trkpt><trkpt lat="45.301897020635316" lon="8.953948947572254"><ele>82.8</ele><time>2026-03-29T14:35:35Z</time></trkpt><trkpt lat="45.30195773648056" lon="8.954057616405786"><ele>82.39999999999999</ele><time>2026-03-29T14:35:36Z</time></trkpt><trkpt lat="45.30201872739857" lon="8.95415684598565"><ele>82.0</ele><time>2026-03-29T14:35:37Z</time></trkpt><trkpt lat="45.3020726517991" lon="8.95425088451826"><ele>82.0</ele><time>2026-03-29T14:35:38Z</time></trkpt><trkpt lat="45.30212349265639" lon="8.954337713339408"><ele>82.0</ele><time>2026-03-29T14:35:39Z</time></trkpt><trkpt lat="45.30215768420446" lon="8.954425842419568"><ele>82.0</ele><time>2026-03-29T14:35:40Z</time></trkpt><trkpt lat="45.30221453096047" lon="8.954497718882784"><ele>82.0</ele><time>2026-03-29T14:35:41Z</time></trkpt><trkpt lat="45.30228655718618" lon="8.954541078057272"><ele>82.0</ele><time>2026-03-29T14:35:42Z</time></trkpt><trkpt lat="45.302368572077214" lon="8.954546459936168"><ele>82.0</ele><time>2026-03-29T14:35:43Z</time></trkpt><trkpt lat="45.30246692161223" lon="8.95448692613039"><ele>82.19999999999999</ele><time>2026-03-29T14:35:44Z</time></trkpt><trkpt lat="45.30255554432104" lon="8.954458634466283"><ele>82.4</ele><time>2026-03-29T14:35:45Z</time></trkpt><trkpt lat="45.302653645214384" lon="8.954434488989348"><ele>82.6</ele><time>2026-03-29T14:35:46Z</time></trkpt><trkpt lat="45.30274452086522" lon="8.954425967704942"><ele>82.80000000000001</ele><time>2026-03-29T14:35:47Z</time></trkpt><trkpt lat="45.30285001809847" lon="8.954437290789754"><ele>83.0</ele><time>2026-03-29T14:35:48Z</time></trkpt><trkpt lat="45.3029572236151" lon="8.954462638358397"><ele>83.0</ele><time>2026-03-29T14:35:49Z</time></trkpt><trkpt lat="45.30305844180646" lon="8.954505585144911"><ele>83.0</ele><time>2026-03-29T14:35:50Z</time></trkpt><trkpt lat="45.30316988715573" lon="8.954559436460356"><ele>83.0</ele><time>2026-03-29T14:35:51Z</time></trkpt><trkpt lat="45.303271481710844" lon="8.954614653512976"><ele>83.0</ele><time>2026-03-29T14:35:52Z</time></trkpt><trkpt lat="45.30336415050793" lon="8.954670010162463"><ele>83.0</ele><time>2026-03-29T14:35:53Z</time></trkpt><trkpt lat="45.303453186832655" lon="8.954736281981171"><ele>83.25</ele><time>2026-03-29T14:35:54Z</time></trkpt><trkpt lat="45.30353964780295" lon="8.954824093996162"><ele>83.5</ele><time>2026-03-29T14:35:55Z</time></trkpt><trkpt lat="45.30360688394752" lon="8.954938553769036"><ele>83.75</ele><time>2026-03-29T14:35:56Z</time></trkpt><trkpt lat="45.30368411217189" lon="8.955084866014829"><ele>84.0</ele><time>2026-03-29T14:35:57Z</time></trkpt><trkpt lat="45.30377925773751" lon="8.955229900026126"><ele>84.0</ele><time>2026-03-29T14:35:58Z</time></trkpt><trkpt lat="45.30385183869186" lon="8.955357508791565"><ele>84.0</ele><time>2026-03-29T14:35:59Z</time></trkpt><trkpt lat="45.303919151451446" lon="8.955464824144036"><ele>84.0</ele><time>2026-03-29T14:36:00Z</time></trkpt><trkpt lat="45.3039619257124" lon="8.955592891572966"><ele>84.0</ele><time>2026-03-29T14:36:01Z</time></trkpt><trkpt lat="45.304027000188306" lon="8.955711901144614"><ele>84.0</ele><time>2026-03-29T14:36:02Z</time></trkpt><trkpt lat="45.30408356557687" lon="8.95587373146129"><ele>85.25</ele><time>2026-03-29T14:36:03Z</time></trkpt><trkpt lat="45.30415062076785" lon="8.95603291608273"><ele>86.5</ele><time>2026-03-29T14:36:04Z</time></trkpt><trkpt lat="45.30422466930689" lon="8.95619657607045"><ele>87.75</ele><time>2026-03-29T14:36:05Z</time></trkpt><trkpt lat="45.30431589375878" lon="8.956342467301473"><ele>89.0</ele><time>2026-03-29T14:36:06Z</time></trkpt><trkpt lat="45.3043922941324" lon="8.956512244444026"><ele>89.0</ele><time>2026-03-29T14:36:07Z</time></trkpt><trkpt lat="45.30447793996332" lon="8.956668367881159"><ele>89.0</ele><time>2026-03-29T14:36:08Z</time></trkpt><trkpt lat="45.304564324081866" lon="8.956790750914843"><ele>89.0</ele><time>2026-03-29T14:36:09Z</time></trkpt><trkpt lat="45.304629603672375" lon="8.956943794821234"><ele>89.0</ele><time>2026-03-29T14:36:10Z</time></trkpt><trkpt lat="45.30471862792823" lon="8.957068083077154"><ele>88.2</ele><time>2026-03-29T14:36:11Z</time></trkpt><trkpt lat="45.304783546487144" lon="8.957208257030183"><ele>87.4</ele><time>2026-03-29T14:36:12Z</time></trkpt><trkpt lat="45.30485647540639" lon="8.957299970014278"><ele>86.6</ele><time>2026-03-29T14:36:13Z</time></trkpt><trkpt lat="45.30491873673507" lon="8.95739626866346"><ele>85.8</ele><time>2026-03-29T14:36:14Z</time></trkpt><trkpt lat="45.304989365275674" lon="8.957462146627753"><ele>85.0</ele><time>2026-03-29T14:36:15Z</time></trkpt><trkpt lat="45.30505278628435" lon="8.957526350602592"><ele>85.0</ele><time>2026-03-29T14:36:16Z</time></trkpt><trkpt lat="45.30512646930017" lon="8.95759998486197"><ele>85.0</ele><time>2026-03-29T14:36:17Z</time></trkpt><trkpt lat="45.30519542977882" lon="8.95767606819475"><ele>85.0</ele><time>2026-03-29T14:36:18Z</time></trkpt><trkpt lat="45.30526314687604" lon="8.957772553112953"><ele>85.0</ele><time>2026-03-29T14:36:19Z</time></trkpt><trkpt lat="45.30532230728784" lon="8.957873997691536"><ele>85.0</ele><time>2026-03-29T14:36:20Z</time></trkpt><trkpt lat="45.30537752935368" lon="8.957991107936103"><ele>85.0</ele><time>2026-03-29T14:36:21Z</time></trkpt><trkpt lat="45.30541527282384" lon="8.958138778591806"><ele>85.0</ele><time>2026-03-29T14:36:22Z</time></trkpt><trkpt lat="45.30546510685252" lon="8.958300804185788"><ele>85.0</ele><time>2026-03-29T14:36:23Z</time></trkpt><trkpt lat="45.305510594122026" lon="8.958448993687107"><ele>85.0</ele><time>2026-03-29T14:36:24Z</time></trkpt><trkpt lat="45.30555387978396" lon="8.95856821610806"><ele>85.0</ele><time>2026-03-29T14:36:25Z</time></trkpt><trkpt lat="45.305587832902646" lon="8.958675333482454"><ele>85.33333333333333</ele><time>2026-03-29T14:36:26Z</time></trkpt><trkpt lat="45.305621707105544" lon="8.958786761014741"><ele>85.66666666666666</ele><time>2026-03-29T14:36:27Z</time></trkpt><trkpt lat="45.305656817221035" lon="8.958904167801991"><ele>86.0</ele><time>2026-03-29T14:36:28Z</time></trkpt><trkpt lat="45.30569680120958" lon="8.959030743313715"><ele>86.33333333333333</ele><time>2026-03-29T14:36:29Z</time></trkpt><trkpt lat="45.305729462046" lon="8.959132046791709"><ele>86.66666666666667</ele><time>2026-03-29T14:36:30Z</time></trkpt><trkpt lat="45.305759932761546" lon="8.959230810803371"><ele>87.0</ele><time>2026-03-29T14:36:31Z</time></trkpt><trkpt lat="45.305791867767134" lon="8.95931921296178"><ele>87.5</ele><time>2026-03-29T14:36:32Z</time></trkpt><trkpt lat="45.30581195994752" lon="8.959405032639923"><ele>88.0</ele><time>2026-03-29T14:36:33Z</time></trkpt><trkpt lat="45.30586089357408" lon="8.95947565575563"><ele>88.5</ele><time>2026-03-29T14:36:34Z</time></trkpt><trkpt lat="45.305924060944015" lon="8.959528736419703"><ele>89.0</ele><time>2026-03-29T14:36:34.999Z</time></trkpt><trkpt lat="45.306008802363664" lon="8.959546983810453"><ele>89.5</ele><time>2026-03-29T14:36:36Z</time></trkpt><trkpt lat="45.30610637013606" lon="8.95952741611629"><ele>90.0</ele><time>2026-03-29T14:36:37Z</time></trkpt><trkpt lat="45.30622946314906" lon="8.959524130312385"><ele>90.0</ele><time>2026-03-29T14:36:38Z</time></trkpt><trkpt lat="45.30636933108186" lon="8.95951393702161"><ele>90.0</ele><time>2026-03-29T14:36:39Z</time></trkpt><trkpt lat="45.306491912678474" lon="8.959503760272208"><ele>90.0</ele><time>2026-03-29T14:36:40Z</time></trkpt><trkpt lat="45.306594157183774" lon="8.959495721972418"><ele>90.0</ele><time>2026-03-29T14:36:41Z</time></trkpt><trkpt lat="45.30668422349326" lon="8.959486443611961"><ele>90.8</ele><time>2026-03-29T14:36:42Z</time></trkpt><trkpt lat="45.30677447578674" lon="8.959476408346639"><ele>91.6</ele><time>2026-03-29T14:36:43Z</time></trkpt><trkpt lat="45.30687377539616" lon="8.959461202996296"><ele>92.4</ele><time>2026-03-29T14:36:44Z</time></trkpt><trkpt lat="45.306982383016276" lon="8.959447153416116"><ele>93.2</ele><time>2026-03-29T14:36:45Z</time></trkpt><trkpt lat="45.30710058159246" lon="8.959431391653093"><ele>94.0</ele><time>2026-03-29T14:36:46Z</time></trkpt><trkpt lat="45.30722627784097" lon="8.959411270283475"><ele>93.25</ele><time>2026-03-29T14:36:47Z</time></trkpt><trkpt lat="45.30733712613625" lon="8.959397179950143"><ele>92.5</ele><time>2026-03-29T14:36:48Z</time></trkpt><trkpt lat="45.30744932941836" lon="8.959390831877425"><ele>91.75</ele><time>2026-03-29T14:36:49Z</time></trkpt><trkpt lat="45.307566283996266" lon="8.959372761787046"><ele>91.0</ele><time>2026-03-29T14:36:50Z</time></trkpt><trkpt lat="45.3076781813755" lon="8.959353208485952"><ele>91.0</ele><time>2026-03-29T14:36:51Z</time></trkpt><trkpt lat="45.307796585568774" lon="8.959328173269245"><ele>91.0</ele><time>2026-03-29T14:36:52Z</time></trkpt><trkpt lat="45.30791212671205" lon="8.959305072381458"><ele>91.0</ele><time>2026-03-29T14:36:53Z</time></trkpt><trkpt lat="45.30803890224172" lon="8.959272478493897"><ele>91.0</ele><time>2026-03-29T14:36:54Z</time></trkpt><trkpt lat="45.30816158852307" lon="8.959245530435188"><ele>89.5</ele><time>2026-03-29T14:36:55Z</time></trkpt><trkpt lat="45.30828415664766" lon="8.959215094653095"><ele>88.0</ele><time>2026-03-29T14:36:56Z</time></trkpt><trkpt lat="45.308388962020445" lon="8.959191457131883"><ele>86.5</ele><time>2026-03-29T14:36:57Z</time></trkpt><trkpt lat="45.308502998693854" lon="8.959158364792936"><ele>85.0</ele><time>2026-03-29T14:36:58Z</time></trkpt><trkpt lat="45.30860924555387" lon="8.959136379630992"><ele>85.0</ele><time>2026-03-29T14:36:59Z</time></trkpt><trkpt lat="45.30871000842035" lon="8.959110190679839"><ele>85.0</ele><time>2026-03-29T14:37:00Z</time></trkpt><trkpt lat="45.30879576413918" lon="8.95908955321081"><ele>85.0</ele><time>2026-03-29T14:37:01Z</time></trkpt><trkpt lat="45.30888832665352" lon="8.959067782405995"><ele>85.0</ele><time>2026-03-29T14:37:02Z</time></trkpt><trkpt lat="45.308989042462635" lon="8.959043724336293"><ele>85.0</ele><time>2026-03-29T14:37:03Z</time></trkpt><trkpt lat="45.30907576053565" lon="8.959020482192148"><ele>85.0</ele><time>2026-03-29T14:37:04Z</time></trkpt><trkpt lat="45.30916476415483" lon="8.95900002524533"><ele>85.0</ele><time>2026-03-29T14:37:05Z</time></trkpt><trkpt lat="45.30924938713423" lon="8.958981311213456"><ele>85.0</ele><time>2026-03-29T14:37:06Z</time></trkpt><trkpt lat="45.309320281655225" lon="8.95897551988895"><ele>85.0</ele><time>2026-03-29T14:37:07Z</time></trkpt><trkpt lat="45.30938597244375" lon="8.958988799420613"><ele>85.0</ele><time>2026-03-29T14:37:08Z</time></trkpt><trkpt lat="45.30945049715459" lon="8.959011559653215"><ele>85.0</ele><time>2026-03-29T14:37:09Z</time></trkpt><trkpt lat="45.309512267526905" lon="8.959045904841188"><ele>85.0</ele><time>2026-03-29T14:37:10Z</time></trkpt><trkpt lat="45.30956307869567" lon="8.959105163668603"><ele>85.0</ele><time>2026-03-29T14:37:11Z</time></trkpt><trkpt lat="45.30960932099815" lon="8.959196286197328"><ele>85.0</ele><time>2026-03-29T14:37:12Z</time></trkpt><trkpt lat="45.309637928503804" lon="8.959336537557945"><ele>85.0</ele><time>2026-03-29T14:37:13Z</time></trkpt><trkpt lat="45.30967157684877" lon="8.959487810342747"><ele>85.0</ele><time>2026-03-29T14:37:14Z</time></trkpt><trkpt lat="45.3097136990887" lon="8.959679824391593"><ele>85.0</ele><time>2026-03-29T14:37:15Z</time></trkpt><trkpt lat="45.30977271710328" lon="8.959897215272177"><ele>85.75</ele><time>2026-03-29T14:37:16Z</time></trkpt><trkpt lat="45.30982368368178" lon="8.960090277062196"><ele>86.5</ele><time>2026-03-29T14:37:17Z</time></trkpt><trkpt lat="45.30986508163465" lon="8.960250528908"><ele>87.25</ele><time>2026-03-29T14:37:18Z</time></trkpt><trkpt lat="45.30990186754644" lon="8.960393481764552"><ele>88.0</ele><time>2026-03-29T14:37:19Z</time></trkpt><trkpt lat="45.30993783958931" lon="8.960535654262044"><ele>88.0</ele><time>2026-03-29T14:37:20Z</time></trkpt><trkpt lat="45.309978179955564" lon="8.960695091698899"><ele>88.0</ele><time>2026-03-29T14:37:21Z</time></trkpt><trkpt lat="45.31002021043638" lon="8.960861208983895"><ele>88.0</ele><time>2026-03-29T14:37:22Z</time></trkpt><trkpt lat="45.31005802271339" lon="8.961010654643262"><ele>88.0</ele><time>2026-03-29T14:37:23Z</time></trkpt><trkpt lat="45.31009946291384" lon="8.961175257191398"><ele>88.0</ele><time>2026-03-29T14:37:24Z</time></trkpt><trkpt lat="45.310143736180805" lon="8.96135253962034"><ele>88.0</ele><time>2026-03-29T14:37:25Z</time></trkpt><trkpt lat="45.310194052543395" lon="8.961554020282854"><ele>88.0</ele><time>2026-03-29T14:37:26Z</time></trkpt><trkpt lat="45.310243625545894" lon="8.961744031901802"><ele>88.0</ele><time>2026-03-29T14:37:27Z</time></trkpt><trkpt lat="45.31028599275758" lon="8.96190530916778"><ele>87.5</ele><time>2026-03-29T14:37:28Z</time></trkpt><trkpt lat="45.31034427341518" lon="8.962059679674306"><ele>87.0</ele><time>2026-03-29T14:37:29Z</time></trkpt><trkpt lat="45.31038491442078" lon="8.96223093941565"><ele>86.5</ele><time>2026-03-29T14:37:30Z</time></trkpt><trkpt lat="45.310431194487705" lon="8.962408776697838"><ele>86.0</ele><time>2026-03-29T14:37:31Z</time></trkpt><trkpt lat="45.31047667178734" lon="8.96258183494296"><ele>86.0</ele><time>2026-03-29T14:37:32Z</time></trkpt><trkpt lat="45.31052486024411" lon="8.962752162827144"><ele>86.0</ele><time>2026-03-29T14:37:33Z</time></trkpt><trkpt lat="45.31057292662727" lon="8.962919607592665"><ele>86.0</ele><time>2026-03-29T14:37:34Z</time></trkpt><trkpt lat="45.310618738257595" lon="8.963091194270024"><ele>86.0</ele><time>2026-03-29T14:37:35Z</time></trkpt><trkpt lat="45.310662177843035" lon="8.963252780614276"><ele>86.75</ele><time>2026-03-29T14:37:36Z</time></trkpt><trkpt lat="45.3107027560957" lon="8.963405456593362"><ele>87.5</ele><time>2026-03-29T14:37:37Z</time></trkpt><trkpt lat="45.31074264001331" lon="8.963555767975272"><ele>88.25</ele><time>2026-03-29T14:37:38Z</time></trkpt><trkpt lat="45.310769658021876" lon="8.963717938029903"><ele>89.0</ele><time>2026-03-29T14:37:39Z</time></trkpt><trkpt lat="45.31080922883617" lon="8.963872896338744"><ele>89.0</ele><time>2026-03-29T14:37:40Z</time></trkpt><trkpt lat="45.31084822264663" lon="8.964023924611052"><ele>89.0</ele><time>2026-03-29T14:37:41Z</time></trkpt><trkpt lat="45.310882599050956" lon="8.964157069051389"><ele>89.0</ele><time>2026-03-29T14:37:42Z</time></trkpt><trkpt lat="45.310915039853576" lon="8.964282716637426"><ele>89.0</ele><time>2026-03-29T14:37:43Z</time></trkpt><trkpt lat="45.310949668686916" lon="8.964413153452083"><ele>89.0</ele><time>2026-03-29T14:37:44Z</time></trkpt><trkpt lat="45.31100413153455" lon="8.964547945285794"><ele>89.0</ele><time>2026-03-29T14:37:45Z</time></trkpt><trkpt lat="45.3110373609022" lon="8.964686752892584"><ele>89.0</ele><time>2026-03-29T14:37:46Z</time></trkpt><trkpt lat="45.31106977764153" lon="8.964811127205312"><ele>89.0</ele><time>2026-03-29T14:37:47Z</time></trkpt><trkpt lat="45.31110049282946" lon="8.964917389249052"><ele>89.0</ele><time>2026-03-29T14:37:48Z</time></trkpt><trkpt lat="45.311122668487855" lon="8.965008789398347"><ele>89.0</ele><time>2026-03-29T14:37:49Z</time></trkpt><trkpt lat="45.31114239688046" lon="8.965095142354963"><ele>89.0</ele><time>2026-03-29T14:37:50Z</time></trkpt><trkpt lat="45.3111767228116" lon="8.965234247754909"><ele>89.83333333333334</ele><time>2026-03-29T14:37:52Z</time></trkpt><trkpt lat="45.311205233673846" lon="8.965336984088715"><ele>90.66666666666667</ele><time>2026-03-29T14:37:54Z</time></trkpt><trkpt lat="45.311254823728405" lon="8.965482883517804"><ele>91.5</ele><time>2026-03-29T14:37:57Z</time></trkpt><trkpt lat="45.31127919008364" lon="8.96560046014102"><ele>92.33333333333333</ele><time>2026-03-29T14:37:59Z</time></trkpt><trkpt lat="45.31131015318103" lon="8.965704313369045"><ele>93.16666666666666</ele><time>2026-03-29T14:38:01Z</time></trkpt><trkpt lat="45.31133832940399" lon="8.965794701430523"><ele>94.0</ele><time>2026-03-29T14:38:04Z</time></trkpt><trkpt lat="45.31136392749458" lon="8.96588962726947"><ele>94.80000000000001</ele><time>2026-03-29T14:38:06Z</time></trkpt><trkpt lat="45.311398480786906" lon="8.965999480345403"><ele>95.60000000000001</ele><time>2026-03-29T14:38:08Z</time></trkpt><trkpt lat="45.311437147562636" lon="8.966128003459307"><ele>96.4</ele><time>2026-03-29T14:38:10Z</time></trkpt><trkpt lat="45.31146824563703" lon="8.966233823173056"><ele>97.2</ele><time>2026-03-29T14:38:13Z</time></trkpt><trkpt lat="45.31149876238948" lon="8.966398081235019"><ele>98.0</ele><time>2026-03-29T14:38:21.999Z</time></trkpt><trkpt lat="45.31154739736262" lon="8.966539911302053"><ele>98.0</ele><time>2026-03-29T14:38:22.999Z</time></trkpt><trkpt lat="45.3115862289336" lon="8.96667491426532"><ele>98.0</ele><time>2026-03-29T14:38:23.999Z</time></trkpt><trkpt lat="45.31163152885887" lon="8.966851324096464"><ele>98.0</ele><time>2026-03-29T14:38:24.999Z</time></trkpt><trkpt lat="45.31166722777277" lon="8.966976927696376"><ele>98.0</ele><time>2026-03-29T14:38:25.999Z</time></trkpt><trkpt lat="45.311703611267866" lon="8.96708431118778"><ele>98.0</ele><time>2026-03-29T14:38:26.999Z</time></trkpt><trkpt lat="45.31173540043613" lon="8.967173472354355"><ele>98.5</ele><time>2026-03-29T14:38:27.999Z</time></trkpt><trkpt lat="45.31176379576537" lon="8.967284410425465"><ele>99.0</ele><time>2026-03-29T14:38:30.999Z</time></trkpt><trkpt lat="45.31174309814606" lon="8.967204589555697"><ele>99.5</ele><time>2026-03-29T14:42:15Z</time></trkpt><trkpt lat="45.31171243643012" lon="8.967082323710272"><ele>100.0</ele><time>2026-03-29T14:42:17Z</time></trkpt><trkpt lat="45.31186020861588" lon="8.966842083126613"><ele>99.6</ele><time>2026-03-29T14:42:18Z</time></trkpt><trkpt lat="45.3118642372598" lon="8.966683969028688"><ele>99.2</ele><time>2026-03-29T14:42:19Z</time></trkpt><trkpt lat="45.311876566047886" lon="8.966559250758756"><ele>98.80000000000001</ele><time>2026-03-29T14:42:20Z</time></trkpt><trkpt lat="45.311897138247815" lon="8.966464203308389"><ele>98.4</ele><time>2026-03-29T14:42:21Z</time></trkpt><trkpt lat="45.31191883830347" lon="8.966375041121347"><ele>98.0</ele><time>2026-03-29T14:42:22Z</time></trkpt><trkpt lat="45.31199128917034" lon="8.966227742864366"><ele>97.99999999999999</ele><time>2026-03-29T14:42:24Z</time></trkpt><trkpt lat="45.31202603678956" lon="8.966144406049338"><ele>98.0</ele><time>2026-03-29T14:42:25Z</time></trkpt><trkpt lat="45.31210204396057" lon="8.966159245745294"><ele>98.0</ele><time>2026-03-29T14:42:26Z</time></trkpt><trkpt lat="45.312070100201225" lon="8.965960964346106"><ele>98.0</ele><time>2026-03-29T14:42:27Z</time></trkpt><trkpt lat="45.3121238139455" lon="8.965891870687008"><ele>97.99999999999999</ele><time>2026-03-29T14:42:28Z</time></trkpt><trkpt lat="45.312163690434595" lon="8.965812024316127"><ele>98.0</ele><time>2026-03-29T14:42:29Z</time></trkpt><trkpt lat="45.312237945237825" lon="8.965671421231432"><ele>97.83333333333333</ele><time>2026-03-29T14:42:31Z</time></trkpt><trkpt lat="45.312281587487526" lon="8.96557879751293"><ele>97.66666666666666</ele><time>2026-03-29T14:42:32Z</time></trkpt><trkpt lat="45.312334004982496" lon="8.965483537973828"><ele>97.5</ele><time>2026-03-29T14:42:33Z</time></trkpt><trkpt lat="45.312396867168594" lon="8.965381007132448"><ele>97.33333333333334</ele><time>2026-03-29T14:42:34Z</time></trkpt><trkpt lat="45.31247199231328" lon="8.965294498075405"><ele>97.16666666666667</ele><time>2026-03-29T14:42:35Z</time></trkpt><trkpt lat="45.312513262296456" lon="8.96519265186734"><ele>97.0</ele><time>2026-03-29T14:42:36Z</time></trkpt><trkpt lat="45.31256886246791" lon="8.96511044335414"><ele>96.33333333333334</ele><time>2026-03-29T14:42:37Z</time></trkpt><trkpt lat="45.3126272667058" lon="8.965014609246245"><ele>95.66666666666667</ele><time>2026-03-29T14:42:38Z</time></trkpt><trkpt lat="45.31268151423255" lon="8.964929172054617"><ele>95.0</ele><time>2026-03-29T14:42:39Z</time></trkpt><trkpt lat="45.31273454320255" lon="8.96484547473938"><ele>94.33333333333334</ele><time>2026-03-29T14:42:40Z</time></trkpt><trkpt lat="45.31279053206265" lon="8.964743269976848"><ele>93.66666666666667</ele><time>2026-03-29T14:42:40.999Z</time></trkpt><trkpt lat="45.312848657728374" lon="8.964656042092429"><ele>93.0</ele><time>2026-03-29T14:42:41.999Z</time></trkpt><trkpt lat="45.312919565158616" lon="8.964547067135673"><ele>93.0</ele><time>2026-03-29T14:42:42.999Z</time></trkpt><trkpt lat="45.31298473556071" lon="8.96446233878252"><ele>93.0</ele><time>2026-03-29T14:42:43.999Z</time></trkpt><trkpt lat="45.313043941353875" lon="8.964390572463154"><ele>93.0</ele><time>2026-03-29T14:42:44.999Z</time></trkpt><trkpt lat="45.31309280489799" lon="8.964318088854801"><ele>93.0</ele><time>2026-03-29T14:42:45.999Z</time></trkpt><trkpt lat="45.313147022939894" lon="8.964227176534354"><ele>93.0</ele><time>2026-03-29T14:42:46.999Z</time></trkpt><trkpt lat="45.31320508220497" lon="8.964117400054823"><ele>93.0</ele><time>2026-03-29T14:42:47.999Z</time></trkpt><trkpt lat="45.31326527306583" lon="8.964003200775213"><ele>93.0</ele><time>2026-03-29T14:42:48.999Z</time></trkpt><trkpt lat="45.313344932539806" lon="8.963904132633836"><ele>93.0</ele><time>2026-03-29T14:42:49.999Z</time></trkpt><trkpt lat="45.31340467089298" lon="8.96377643221121"><ele>93.0</ele><time>2026-03-29T14:42:50.999Z</time></trkpt><trkpt lat="45.313472263787695" lon="8.963668590897703"><ele>93.0</ele><time>2026-03-29T14:42:51.999Z</time></trkpt><trkpt lat="45.31353411435577" lon="8.963560134253369"><ele>93.0</ele><time>2026-03-29T14:42:53Z</time></trkpt><trkpt lat="45.31357947231132" lon="8.963454798078164"><ele>93.0</ele><time>2026-03-29T14:42:54Z</time></trkpt><trkpt lat="45.313615934887" lon="8.963355118831544"><ele>93.0</ele><time>2026-03-29T14:42:55Z</time></trkpt><trkpt lat="45.31364766000906" lon="8.963260495161006"><ele>93.0</ele><time>2026-03-29T14:42:56Z</time></trkpt><trkpt lat="45.31368557740475" lon="8.9631512871806"><ele>93.0</ele><time>2026-03-29T14:42:57Z</time></trkpt><trkpt lat="45.31371900628529" lon="8.962992511800786"><ele>93.0</ele><time>2026-03-29T14:42:58Z</time></trkpt><trkpt lat="45.313757191827975" lon="8.962820484727997"><ele>93.0</ele><time>2026-03-29T14:42:59Z</time></trkpt><trkpt lat="45.31379788000315" lon="8.962643628156929"><ele>93.0</ele><time>2026-03-29T14:43:00Z</time></trkpt><trkpt lat="45.31383854620108" lon="8.96246863150945"><ele>93.0</ele><time>2026-03-29T14:43:01Z</time></trkpt><trkpt lat="45.31387595849951" lon="8.96230810208798"><ele>93.0</ele><time>2026-03-29T14:43:02Z</time></trkpt><trkpt lat="45.313906238993084" lon="8.962153732620656"><ele>93.60000000000001</ele><time>2026-03-29T14:43:03Z</time></trkpt><trkpt lat="45.31393096381145" lon="8.962004750552815"><ele>94.2</ele><time>2026-03-29T14:43:04Z</time></trkpt><trkpt lat="45.3139546706046" lon="8.961865290359958"><ele>94.8</ele><time>2026-03-29T14:43:05Z</time></trkpt><trkpt lat="45.313973183122194" lon="8.961695780611617"><ele>95.4</ele><time>2026-03-29T14:43:06Z</time></trkpt><trkpt lat="45.31399310579067" lon="8.961533027492901"><ele>96.0</ele><time>2026-03-29T14:43:07Z</time></trkpt><trkpt lat="45.31400942431457" lon="8.961382625819514"><ele>94.6</ele><time>2026-03-29T14:43:08Z</time></trkpt><trkpt lat="45.3140095715294" lon="8.96124356401526"><ele>93.19999999999999</ele><time>2026-03-29T14:43:09Z</time></trkpt><trkpt lat="45.31402894832107" lon="8.961124819956746"><ele>91.80000000000001</ele><time>2026-03-29T14:43:10Z</time></trkpt><trkpt lat="45.31402701205854" lon="8.960987691670121"><ele>90.4</ele><time>2026-03-29T14:43:11Z</time></trkpt><trkpt lat="45.314022646234825" lon="8.960814293556083"><ele>89.0</ele><time>2026-03-29T14:43:12Z</time></trkpt><trkpt lat="45.31400967637383" lon="8.960620256915176"><ele>88.75</ele><time>2026-03-29T14:43:13Z</time></trkpt><trkpt lat="45.31397704343528" lon="8.960405921947654"><ele>88.5</ele><time>2026-03-29T14:43:14Z</time></trkpt><trkpt lat="45.313944172035626" lon="8.960212920275454"><ele>88.25</ele><time>2026-03-29T14:43:15Z</time></trkpt><trkpt lat="45.313915603806144" lon="8.960030822983414"><ele>88.0</ele><time>2026-03-29T14:43:16Z</time></trkpt><trkpt lat="45.31389459631469" lon="8.959864478548925"><ele>87.75</ele><time>2026-03-29T14:43:17Z</time></trkpt><trkpt lat="45.31388631223036" lon="8.959694816043866"><ele>87.5</ele><time>2026-03-29T14:43:18Z</time></trkpt><trkpt lat="45.31388695889434" lon="8.959504267220513"><ele>87.25</ele><time>2026-03-29T14:43:19Z</time></trkpt><trkpt lat="45.31389175503409" lon="8.959277401795854"><ele>87.0</ele><time>2026-03-29T14:43:20Z</time></trkpt><trkpt lat="45.31389758523051" lon="8.959020482447238"><ele>86.75</ele><time>2026-03-29T14:43:21Z</time></trkpt><trkpt lat="45.3138993457599" lon="8.958804157954765"><ele>86.5</ele><time>2026-03-29T14:43:22Z</time></trkpt><trkpt lat="45.313885037526" lon="8.958614490643804"><ele>86.25</ele><time>2026-03-29T14:43:23Z</time></trkpt><trkpt lat="45.31388980717409" lon="8.958441973223913"><ele>86.0</ele><time>2026-03-29T14:43:24Z</time></trkpt><trkpt lat="45.313912127804514" lon="8.958285145407714"><ele>85.75</ele><time>2026-03-29T14:43:25Z</time></trkpt><trkpt lat="45.313931804688494" lon="8.958102443263176"><ele>85.5</ele><time>2026-03-29T14:43:26Z</time></trkpt><trkpt lat="45.31395026979468" lon="8.957937758192804"><ele>85.25</ele><time>2026-03-29T14:43:27Z</time></trkpt><trkpt lat="45.31395294779015" lon="8.957790293622347"><ele>85.0</ele><time>2026-03-29T14:43:28Z</time></trkpt><trkpt lat="45.313958300080294" lon="8.95764527518083"><ele>85.2</ele><time>2026-03-29T14:43:29Z</time></trkpt><trkpt lat="45.313966838548836" lon="8.957492699385817"><ele>85.4</ele><time>2026-03-29T14:43:30Z</time></trkpt><trkpt lat="45.31397159770768" lon="8.957348201716904"><ele>85.6</ele><time>2026-03-29T14:43:31Z</time></trkpt><trkpt lat="45.31400352548127" lon="8.957233127872687"><ele>85.8</ele><time>2026-03-29T14:43:32Z</time></trkpt><trkpt lat="45.31404980591697" lon="8.957135611206953"><ele>86.0</ele><time>2026-03-29T14:43:33Z</time></trkpt><trkpt lat="45.31412136864398" lon="8.957033045230604"><ele>86.0</ele><time>2026-03-29T14:43:34Z</time></trkpt><trkpt lat="45.31420910903611" lon="8.956959979508024"><ele>86.0</ele><time>2026-03-29T14:43:35Z</time></trkpt><trkpt lat="45.31428557450418" lon="8.956897785315459"><ele>86.0</ele><time>2026-03-29T14:43:36Z</time></trkpt><trkpt lat="45.3143493360773" lon="8.956827266828354"><ele>86.0</ele><time>2026-03-29T14:43:37Z</time></trkpt><trkpt lat="45.314421751670736" lon="8.956780024455648"><ele>86.0</ele><time>2026-03-29T14:43:38Z</time></trkpt><trkpt lat="45.31449888561096" lon="8.956725653986618"><ele>86.0</ele><time>2026-03-29T14:43:39Z</time></trkpt><trkpt lat="45.314551907433476" lon="8.956648769982127"><ele>86.19999999999999</ele><time>2026-03-29T14:43:40Z</time></trkpt><trkpt lat="45.31460881244225" lon="8.956532776662826"><ele>86.39999999999999</ele><time>2026-03-29T14:43:41Z</time></trkpt><trkpt lat="45.31466839114569" lon="8.956408528304342"><ele>86.6</ele><time>2026-03-29T14:43:42Z</time></trkpt><trkpt lat="45.314723516550295" lon="8.95625160707009"><ele>86.8</ele><time>2026-03-29T14:43:43Z</time></trkpt><trkpt lat="45.314801071473966" lon="8.956121916999718"><ele>87.0</ele><time>2026-03-29T14:43:44Z</time></trkpt><trkpt lat="45.314849215274975" lon="8.955967153143948"><ele>87.0</ele><time>2026-03-29T14:43:45Z</time></trkpt><trkpt lat="45.31492010124864" lon="8.95580361132645"><ele>87.0</ele><time>2026-03-29T14:43:46Z</time></trkpt><trkpt lat="45.31498670753973" lon="8.95565659196295"><ele>87.0</ele><time>2026-03-29T14:43:47Z</time></trkpt><trkpt lat="45.31505104094941" lon="8.95551421295499"><ele>87.0</ele><time>2026-03-29T14:43:48Z</time></trkpt><trkpt lat="45.31510914639121" lon="8.955379110509694"><ele>87.0</ele><time>2026-03-29T14:43:49Z</time></trkpt><trkpt lat="45.315167134508464" lon="8.955248132938506"><ele>87.0</ele><time>2026-03-29T14:43:50Z</time></trkpt><trkpt lat="45.31521728622578" lon="8.955100892913318"><ele>87.0</ele><time>2026-03-29T14:43:51Z</time></trkpt><trkpt lat="45.31528341851651" lon="8.954959949032073"><ele>87.0</ele><time>2026-03-29T14:43:52Z</time></trkpt><trkpt lat="45.315313717815" lon="8.95480216531588"><ele>87.0</ele><time>2026-03-29T14:43:53Z</time></trkpt><trkpt lat="45.31535193109497" lon="8.954655766136261"><ele>87.0</ele><time>2026-03-29T14:43:54Z</time></trkpt><trkpt lat="45.31538666391624" lon="8.954517089800971"><ele>87.0</ele><time>2026-03-29T14:43:55Z</time></trkpt><trkpt lat="45.31542047318423" lon="8.954356194699315"><ele>87.0</ele><time>2026-03-29T14:43:56Z</time></trkpt><trkpt lat="45.315441952571184" lon="8.954171612556454"><ele>86.75</ele><time>2026-03-29T14:43:57Z</time></trkpt><trkpt lat="45.3154812638476" lon="8.954014397371228"><ele>86.5</ele><time>2026-03-29T14:43:58Z</time></trkpt><trkpt lat="45.31550451004968" lon="8.953854335551725"><ele>86.25</ele><time>2026-03-29T14:43:59Z</time></trkpt><trkpt lat="45.315529216491925" lon="8.953679613643795"><ele>86.0</ele><time>2026-03-29T14:44:00Z</time></trkpt><trkpt lat="45.315548744508654" lon="8.95352631445504"><ele>85.75</ele><time>2026-03-29T14:44:01Z</time></trkpt><trkpt lat="45.31556923239548" lon="8.953335301374342"><ele>85.5</ele><time>2026-03-29T14:44:02Z</time></trkpt><trkpt lat="45.315583830298976" lon="8.95314966106255"><ele>85.25</ele><time>2026-03-29T14:44:03Z</time></trkpt><trkpt lat="45.315596082892306" lon="8.952958145555765"><ele>85.0</ele><time>2026-03-29T14:44:04Z</time></trkpt><trkpt lat="45.31560536934032" lon="8.952781144367302"><ele>85.5</ele><time>2026-03-29T14:44:05Z</time></trkpt><trkpt lat="45.31561245661318" lon="8.952589210521195"><ele>86.0</ele><time>2026-03-29T14:44:06Z</time></trkpt><trkpt lat="45.315616350462086" lon="8.952412920633265"><ele>86.5</ele><time>2026-03-29T14:44:07Z</time></trkpt><trkpt lat="45.31561889151431" lon="8.952243656124132"><ele>87.0</ele><time>2026-03-29T14:44:08Z</time></trkpt><trkpt lat="45.315619745747696" lon="8.952071477832135"><ele>87.0</ele><time>2026-03-29T14:44:09Z</time></trkpt><trkpt lat="45.31561876323192" lon="8.95190176776934"><ele>87.0</ele><time>2026-03-29T14:44:10Z</time></trkpt><trkpt lat="45.31561722568224" lon="8.951750813476197"><ele>87.0</ele><time>2026-03-29T14:44:11Z</time></trkpt><trkpt lat="45.315615140826075" lon="8.951598842349942"><ele>87.0</ele><time>2026-03-29T14:44:12Z</time></trkpt><trkpt lat="45.31561410773673" lon="8.951463521765529"><ele>87.0</ele><time>2026-03-29T14:44:13Z</time></trkpt><trkpt lat="45.315605702946115" lon="8.951322842756245"><ele>87.0</ele><time>2026-03-29T14:44:14Z</time></trkpt><trkpt lat="45.31562236496272" lon="8.951173674188823"><ele>87.0</ele><time>2026-03-29T14:44:15Z</time></trkpt><trkpt lat="45.315649767010136" lon="8.951035472073777"><ele>87.0</ele><time>2026-03-29T14:44:16Z</time></trkpt><trkpt lat="45.315694039399325" lon="8.950897494997186"><ele>87.0</ele><time>2026-03-29T14:44:17Z</time></trkpt><trkpt lat="45.31575754150083" lon="8.950752336128424"><ele>87.0</ele><time>2026-03-29T14:44:18Z</time></trkpt><trkpt lat="45.31585183085359" lon="8.950608312039984"><ele>86.75</ele><time>2026-03-29T14:44:19Z</time></trkpt><trkpt lat="45.31591813732354" lon="8.950422722486564"><ele>86.5</ele><time>2026-03-29T14:44:20Z</time></trkpt><trkpt lat="45.316000856699915" lon="8.950246419207755"><ele>86.25</ele><time>2026-03-29T14:44:21Z</time></trkpt><trkpt lat="45.316086819614874" lon="8.950066966806972"><ele>86.0</ele><time>2026-03-29T14:44:22Z</time></trkpt><trkpt lat="45.31616446962853" lon="8.949899629390094"><ele>86.0</ele><time>2026-03-29T14:44:23Z</time></trkpt><trkpt lat="45.31623153097916" lon="8.949750952406973"><ele>86.0</ele><time>2026-03-29T14:44:24Z</time></trkpt><trkpt lat="45.316301671510914" lon="8.949586780471222"><ele>86.0</ele><time>2026-03-29T14:44:25Z</time></trkpt><trkpt lat="45.316376114577295" lon="8.949427664530617"><ele>86.0</ele><time>2026-03-29T14:44:26Z</time></trkpt><trkpt lat="45.31644813092308" lon="8.949297187682081"><ele>86.6</ele><time>2026-03-29T14:44:27Z</time></trkpt><trkpt lat="45.316507100234155" lon="8.949171791958378"><ele>87.19999999999999</ele><time>2026-03-29T14:44:28Z</time></trkpt><trkpt lat="45.31656402676076" lon="8.949055928158208"><ele>87.80000000000001</ele><time>2026-03-29T14:44:29Z</time></trkpt><trkpt lat="45.316627807002895" lon="8.948933237117808"><ele>88.4</ele><time>2026-03-29T14:44:30Z</time></trkpt><trkpt lat="45.31667443228418" lon="8.948825726735953"><ele>89.0</ele><time>2026-03-29T14:44:31Z</time></trkpt><trkpt lat="45.31675526129433" lon="8.94871833858642"><ele>89.0</ele><time>2026-03-29T14:44:32Z</time></trkpt><trkpt lat="45.31685055305636" lon="8.948638690470176"><ele>89.0</ele><time>2026-03-29T14:44:33Z</time></trkpt><trkpt lat="45.31695910639287" lon="8.948524516927524"><ele>89.0</ele><time>2026-03-29T14:44:34Z</time></trkpt><trkpt lat="45.31706410525841" lon="8.948412320485769"><ele>89.0</ele><time>2026-03-29T14:44:35Z</time></trkpt><trkpt lat="45.317158102604054" lon="8.948279658000784"><ele>89.0</ele><time>2026-03-29T14:44:36Z</time></trkpt><trkpt lat="45.31727427461611" lon="8.948163728553206"><ele>89.0</ele><time>2026-03-29T14:44:37Z</time></trkpt><trkpt lat="45.31737203255664" lon="8.94805237913262"><ele>89.0</ele><time>2026-03-29T14:44:38Z</time></trkpt><trkpt lat="45.31746747458699" lon="8.947946167431683"><ele>89.0</ele><time>2026-03-29T14:44:39Z</time></trkpt><trkpt lat="45.31756606295466" lon="8.947836598801212"><ele>89.0</ele><time>2026-03-29T14:44:40Z</time></trkpt><trkpt lat="45.31765991981871" lon="8.947734181208652"><ele>89.0</ele><time>2026-03-29T14:44:41Z</time></trkpt><trkpt lat="45.31775406861171" lon="8.947630454643853"><ele>89.0</ele><time>2026-03-29T14:44:42Z</time></trkpt><trkpt lat="45.317845952673146" lon="8.947532151717535"><ele>89.0</ele><time>2026-03-29T14:44:43Z</time></trkpt><trkpt lat="45.31793433194434" lon="8.947440811991527"><ele>88.83333333333334</ele><time>2026-03-29T14:44:44Z</time></trkpt><trkpt lat="45.318001940991046" lon="8.94736778317647"><ele>88.66666666666667</ele><time>2026-03-29T14:44:45Z</time></trkpt><trkpt lat="45.31806184593496" lon="8.947306363349425"><ele>88.5</ele><time>2026-03-29T14:44:46Z</time></trkpt><trkpt lat="45.31811799673654" lon="8.94724221825072"><ele>88.33333333333333</ele><time>2026-03-29T14:44:47Z</time></trkpt><trkpt lat="45.31816672462164" lon="8.947182374184953"><ele>88.16666666666666</ele><time>2026-03-29T14:44:48Z</time></trkpt><trkpt lat="45.31826388062462" lon="8.947075962528675"><ele>88.0</ele><time>2026-03-29T14:44:50Z</time></trkpt><trkpt lat="45.318347367754605" lon="8.946981220966348"><ele>88.0</ele><time>2026-03-29T14:44:52Z</time></trkpt><trkpt lat="45.318436429230445" lon="8.946877105807427"><ele>88.0</ele><time>2026-03-29T14:44:54Z</time></trkpt><trkpt lat="45.31852511910116" lon="8.946795120045474"><ele>88.0</ele><time>2026-03-29T14:44:56Z</time></trkpt><trkpt lat="45.31861761439099" lon="8.946692894840055"><ele>88.0</ele><time>2026-03-29T14:44:58Z</time></trkpt><trkpt lat="45.318728588100164" lon="8.946594252520976"><ele>88.0</ele><time>2026-03-29T14:45:00Z</time></trkpt><trkpt lat="45.318801158097685" lon="8.94654439971072"><ele>88.0</ele><time>2026-03-29T14:45:01Z</time></trkpt><trkpt lat="45.31887749914051" lon="8.946500323275286"><ele>88.0</ele><time>2026-03-29T14:45:02Z</time></trkpt><trkpt lat="45.31898407009921" lon="8.94643448048765"><ele>88.0</ele><time>2026-03-29T14:45:04Z</time></trkpt><trkpt lat="45.31910076348698" lon="8.94636398150953"><ele>88.0</ele><time>2026-03-29T14:45:06Z</time></trkpt><trkpt lat="45.31916179498406" lon="8.946332217591692"><ele>87.5</ele><time>2026-03-29T14:45:07Z</time></trkpt><trkpt lat="45.31926915906626" lon="8.946269813717246"><ele>87.0</ele><time>2026-03-29T14:45:09Z</time></trkpt><trkpt lat="45.319333326043015" lon="8.946235043099128"><ele>86.5</ele><time>2026-03-29T14:45:10Z</time></trkpt><trkpt lat="45.31940322361636" lon="8.946195462829014"><ele>86.0</ele><time>2026-03-29T14:45:11Z</time></trkpt><trkpt lat="45.31946347145788" lon="8.94616451122165"><ele>85.5</ele><time>2026-03-29T14:45:12Z</time></trkpt><trkpt lat="45.31957657579166" lon="8.946108101205871"><ele>85.0</ele><time>2026-03-29T14:45:14Z</time></trkpt><trkpt lat="45.31967846389693" lon="8.946060755071153"><ele>85.33333333333333</ele><time>2026-03-29T14:45:16Z</time></trkpt><trkpt lat="45.31974202418213" lon="8.94602106729064"><ele>85.66666666666666</ele><time>2026-03-29T14:45:17Z</time></trkpt><trkpt lat="45.31980743321985" lon="8.945972665413368"><ele>86.0</ele><time>2026-03-29T14:45:18Z</time></trkpt><trkpt lat="45.31987033165561" lon="8.945935872539478"><ele>86.33333333333333</ele><time>2026-03-29T14:45:19Z</time></trkpt><trkpt lat="45.31995820623302" lon="8.9459120655919"><ele>86.66666666666667</ele><time>2026-03-29T14:45:20Z</time></trkpt><trkpt lat="45.32003243391925" lon="8.945845112434549"><ele>87.0</ele><time>2026-03-29T14:45:21Z</time></trkpt><trkpt lat="45.32009906045319" lon="8.945811910194877"><ele>87.0</ele><time>2026-03-29T14:45:22Z</time></trkpt><trkpt lat="45.32019833043308" lon="8.945762392834872"><ele>87.0</ele><time>2026-03-29T14:45:24Z</time></trkpt><trkpt lat="45.320317961384234" lon="8.945684155812108"><ele>87.0</ele><time>2026-03-29T14:45:26Z</time></trkpt><trkpt lat="45.32038099056865" lon="8.945642942876423"><ele>87.0</ele><time>2026-03-29T14:45:27Z</time></trkpt><trkpt lat="45.32047443823976" lon="8.945590857483236"><ele>87.0</ele><time>2026-03-29T14:45:29Z</time></trkpt><trkpt lat="45.32057094774624" lon="8.945582926559409"><ele>87.8</ele><time>2026-03-29T14:45:31Z</time></trkpt><trkpt lat="45.32063483592566" lon="8.945606767495443"><ele>88.6</ele><time>2026-03-29T14:45:32Z</time></trkpt><trkpt lat="45.32071029345001" lon="8.945658706776507"><ele>89.39999999999999</ele><time>2026-03-29T14:45:33Z</time></trkpt><trkpt lat="45.32079509199249" lon="8.945725110551251"><ele>90.19999999999999</ele><time>2026-03-29T14:45:34Z</time></trkpt><trkpt lat="45.32089195304998" lon="8.945800118738825"><ele>91.0</ele><time>2026-03-29T14:45:35Z</time></trkpt><trkpt lat="45.32100285815793" lon="8.945872455455257"><ele>90.6</ele><time>2026-03-29T14:45:36Z</time></trkpt><trkpt lat="45.321096802080596" lon="8.945933695061896"><ele>90.19999999999999</ele><time>2026-03-29T14:45:37Z</time></trkpt><trkpt lat="45.32117822504953" lon="8.945990021535302"><ele>89.80000000000001</ele><time>2026-03-29T14:45:38Z</time></trkpt><trkpt lat="45.321250412964936" lon="8.946036454548619"><ele>89.4</ele><time>2026-03-29T14:45:39Z</time></trkpt><trkpt lat="45.32131630673534" lon="8.946081772689276"><ele>89.0</ele><time>2026-03-29T14:45:40Z</time></trkpt><trkpt lat="45.32141984763563" lon="8.946118355101074"><ele>89.0</ele><time>2026-03-29T14:45:42Z</time></trkpt><trkpt lat="45.32152007089044" lon="8.946040892686995"><ele>89.0</ele><time>2026-03-29T14:45:44Z</time></trkpt><trkpt lat="45.32160933437045" lon="8.945969382050484"><ele>89.0</ele><time>2026-03-29T14:45:45Z</time></trkpt><trkpt lat="45.321703631348946" lon="8.945860984829356"><ele>89.0</ele><time>2026-03-29T14:45:46Z</time></trkpt><trkpt lat="45.321797481475194" lon="8.945750397612683"><ele>89.33333333333334</ele><time>2026-03-29T14:45:47Z</time></trkpt><trkpt lat="45.321900359107424" lon="8.945627695148305"><ele>89.66666666666667</ele><time>2026-03-29T14:45:48Z</time></trkpt><trkpt lat="45.32202498342635" lon="8.945479791073273"><ele>90.0</ele><time>2026-03-29T14:45:49Z</time></trkpt><trkpt lat="45.32215486289248" lon="8.945326274776484"><ele>90.33333333333333</ele><time>2026-03-29T14:45:50Z</time></trkpt><trkpt lat="45.32228555153409" lon="8.94517180174892"><ele>90.66666666666666</ele><time>2026-03-29T14:45:51Z</time></trkpt><trkpt lat="45.322394584465" lon="8.945042925689547"><ele>91.0</ele><time>2026-03-29T14:45:52Z</time></trkpt><trkpt lat="45.32250659639582" lon="8.94491052852757"><ele>90.5</ele><time>2026-03-29T14:45:53Z</time></trkpt><trkpt lat="45.322601174322735" lon="8.944796441399449"><ele>90.0</ele><time>2026-03-29T14:45:54Z</time></trkpt><trkpt lat="45.322688059921084" lon="8.944686762149846"><ele>89.5</ele><time>2026-03-29T14:45:55Z</time></trkpt><trkpt lat="45.32277198911019" lon="8.944556965644697"><ele>89.0</ele><time>2026-03-29T14:45:56Z</time></trkpt><trkpt lat="45.32287331486201" lon="8.944457429271875"><ele>89.0</ele><time>2026-03-29T14:45:57Z</time></trkpt><trkpt lat="45.32298740222101" lon="8.944385874792435"><ele>89.0</ele><time>2026-03-29T14:45:58Z</time></trkpt><trkpt lat="45.32310990673952" lon="8.944355146502234"><ele>89.0</ele><time>2026-03-29T14:45:59Z</time></trkpt><trkpt lat="45.32323644166148" lon="8.944296870409435"><ele>89.0</ele><time>2026-03-29T14:46:00Z</time></trkpt><trkpt lat="45.32337297937031" lon="8.944230724428436"><ele>88.25</ele><time>2026-03-29T14:46:01Z</time></trkpt><trkpt lat="45.32349304497829" lon="8.94414480166736"><ele>87.5</ele><time>2026-03-29T14:46:02Z</time></trkpt><trkpt lat="45.32361488275638" lon="8.94407094195888"><ele>86.75</ele><time>2026-03-29T14:46:03Z</time></trkpt><trkpt lat="45.32375002550827" lon="8.944000873577044"><ele>86.0</ele><time>2026-03-29T14:46:04Z</time></trkpt><trkpt lat="45.32387040257839" lon="8.943895976000485"><ele>86.0</ele><time>2026-03-29T14:46:05Z</time></trkpt><trkpt lat="45.324016875818145" lon="8.943802905548726"><ele>86.0</ele><time>2026-03-29T14:46:06Z</time></trkpt><trkpt lat="45.324186189787966" lon="8.943715021469375"><ele>86.0</ele><time>2026-03-29T14:46:07Z</time></trkpt><trkpt lat="45.32436979016988" lon="8.943618235151396"><ele>86.0</ele><time>2026-03-29T14:46:08Z</time></trkpt><trkpt lat="45.32452753472812" lon="8.943534735872143"><ele>86.0</ele><time>2026-03-29T14:46:09Z</time></trkpt><trkpt lat="45.3246939552274" lon="8.943453176069669"><ele>86.0</ele><time>2026-03-29T14:46:10Z</time></trkpt><trkpt lat="45.324872449830295" lon="8.943383523098623"><ele>86.33333333333334</ele><time>2026-03-29T14:46:11Z</time></trkpt><trkpt lat="45.325056137269726" lon="8.943351796662485"><ele>86.66666666666667</ele><time>2026-03-29T14:46:12Z</time></trkpt><trkpt lat="45.32525813978049" lon="8.943325854584346"><ele>87.0</ele><time>2026-03-29T14:46:13Z</time></trkpt><trkpt lat="45.325458521176785" lon="8.943253649361132"><ele>87.66666666666667</ele><time>2026-03-29T14:46:14Z</time></trkpt><trkpt lat="45.32566029395011" lon="8.943183598259909"><ele>88.33333333333334</ele><time>2026-03-29T14:46:15Z</time></trkpt><trkpt lat="45.32583538066854" lon="8.943138362105431"><ele>89.0</ele><time>2026-03-29T14:46:16Z</time></trkpt><trkpt lat="45.32597893123232" lon="8.943080466058928"><ele>89.0</ele><time>2026-03-29T14:46:17Z</time></trkpt><trkpt lat="45.32609050721935" lon="8.943031998364853"><ele>89.0</ele><time>2026-03-29T14:46:18Z</time></trkpt><trkpt lat="45.32619527687892" lon="8.9429837463828"><ele>89.0</ele><time>2026-03-29T14:46:19Z</time></trkpt><trkpt lat="45.32628415077976" lon="8.942923162704751"><ele>89.0</ele><time>2026-03-29T14:46:20Z</time></trkpt><trkpt lat="45.32636622019746" lon="8.942890424375546"><ele>89.0</ele><time>2026-03-29T14:46:21Z</time></trkpt><trkpt lat="45.326434693223426" lon="8.942879805290616"><ele>89.0</ele><time>2026-03-29T14:46:22Z</time></trkpt><trkpt lat="45.32649759360071" lon="8.942854830877785"><ele>89.0</ele><time>2026-03-29T14:46:23Z</time></trkpt><trkpt lat="45.326567095112324" lon="8.942814340655124"><ele>89.0</ele><time>2026-03-29T14:46:24Z</time></trkpt><trkpt lat="45.326627305090675" lon="8.942767131722036"><ele>89.0</ele><time>2026-03-29T14:46:25Z</time></trkpt><trkpt lat="45.326689442695255" lon="8.942663679109273"><ele>89.0</ele><time>2026-03-29T14:46:26Z</time></trkpt><trkpt lat="45.32670191186643" lon="8.942493381930683"><ele>89.0</ele><time>2026-03-29T14:46:27Z</time></trkpt><trkpt lat="45.32672416667098" lon="8.942305271026067"><ele>89.33333333333334</ele><time>2026-03-29T14:46:28Z</time></trkpt><trkpt lat="45.32677558176167" lon="8.94208618194653"><ele>89.66666666666667</ele><time>2026-03-29T14:46:29Z</time></trkpt><trkpt lat="45.326823842371404" lon="8.941837378789597"><ele>90.0</ele><time>2026-03-29T14:46:30Z</time></trkpt><trkpt lat="45.32686926487331" lon="8.941611571666941"><ele>90.33333333333333</ele><time>2026-03-29T14:46:31Z</time></trkpt><trkpt lat="45.32690843609252" lon="8.941406195599848"><ele>90.66666666666666</ele><time>2026-03-29T14:46:32Z</time></trkpt><trkpt lat="45.32694731486043" lon="8.941188935324936"><ele>91.0</ele><time>2026-03-29T14:46:33Z</time></trkpt><trkpt lat="45.3269860911914" lon="8.94096107733833"><ele>92.0</ele><time>2026-03-29T14:46:34Z</time></trkpt><trkpt lat="45.3270175541869" lon="8.940762763384612"><ele>93.0</ele><time>2026-03-29T14:46:35Z</time></trkpt><trkpt lat="45.32704422556891" lon="8.940576911664314"><ele>94.0</ele><time>2026-03-29T14:46:36Z</time></trkpt><trkpt lat="45.327070836088936" lon="8.940398158347977"><ele>95.0</ele><time>2026-03-29T14:46:37Z</time></trkpt><trkpt lat="45.32709514874431" lon="8.940231331935008"><ele>95.5</ele><time>2026-03-29T14:46:38Z</time></trkpt><trkpt lat="45.32712172502342" lon="8.940047330394894"><ele>96.0</ele><time>2026-03-29T14:46:39Z</time></trkpt><trkpt lat="45.32715713240594" lon="8.939871904232769"><ele>96.5</ele><time>2026-03-29T14:46:40Z</time></trkpt><trkpt lat="45.32720853001908" lon="8.939708709274937"><ele>97.0</ele><time>2026-03-29T14:46:41Z</time></trkpt><trkpt lat="45.32727261614213" lon="8.93955318229447"><ele>96.5</ele><time>2026-03-29T14:46:42Z</time></trkpt><trkpt lat="45.327348249225984" lon="8.939395701325585"><ele>96.0</ele><time>2026-03-29T14:46:43Z</time></trkpt><trkpt lat="45.32743379102024" lon="8.939242017205304"><ele>95.5</ele><time>2026-03-29T14:46:44Z</time></trkpt><trkpt lat="45.327531597339515" lon="8.939085990669723"><ele>95.0</ele><time>2026-03-29T14:46:45Z</time></trkpt><trkpt lat="45.32765216530861" lon="8.938920126251599"><ele>95.0</ele><time>2026-03-29T14:46:46Z</time></trkpt><trkpt lat="45.3277643871311" lon="8.938776561071622"><ele>95.0</ele><time>2026-03-29T14:46:47Z</time></trkpt><trkpt lat="45.32787399528142" lon="8.938651154636453"><ele>95.0</ele><time>2026-03-29T14:46:48Z</time></trkpt><trkpt lat="45.32798399701585" lon="8.938548619675952"><ele>95.0</ele><time>2026-03-29T14:46:49Z</time></trkpt><trkpt lat="45.32810141425716" lon="8.93846435229312"><ele>93.75</ele><time>2026-03-29T14:46:50Z</time></trkpt><trkpt lat="45.32822018260688" lon="8.938403159874621"><ele>92.5</ele><time>2026-03-29T14:46:51Z</time></trkpt><trkpt lat="45.328348199732226" lon="8.9383563167633"><ele>91.25</ele><time>2026-03-29T14:46:52Z</time></trkpt><trkpt lat="45.32847836075269" lon="8.93829454900553"><ele>90.0</ele><time>2026-03-29T14:46:53Z</time></trkpt><trkpt lat="45.3286238560686" lon="8.938259690185019"><ele>90.0</ele><time>2026-03-29T14:46:54Z</time></trkpt><trkpt lat="45.328780237736154" lon="8.938208248227145"><ele>90.0</ele><time>2026-03-29T14:46:55Z</time></trkpt><trkpt lat="45.32894114715247" lon="8.938162253948326"><ele>90.0</ele><time>2026-03-29T14:46:56Z</time></trkpt><trkpt lat="45.32909478193395" lon="8.938098037591054"><ele>89.5</ele><time>2026-03-29T14:46:57Z</time></trkpt><trkpt lat="45.32922648410633" lon="8.938025734278893"><ele>89.0</ele><time>2026-03-29T14:46:58Z</time></trkpt><trkpt lat="45.3293598062919" lon="8.937977045594108"><ele>88.5</ele><time>2026-03-29T14:46:58.999Z</time></trkpt><trkpt lat="45.32949122776755" lon="8.937897946515994"><ele>88.0</ele><time>2026-03-29T14:46:59.999Z</time></trkpt><trkpt lat="45.329625450957984" lon="8.937808773371398"><ele>88.25</ele><time>2026-03-29T14:47:00.999Z</time></trkpt><trkpt lat="45.329747127503595" lon="8.937722894971776"><ele>88.5</ele><time>2026-03-29T14:47:01.999Z</time></trkpt><trkpt lat="45.32985868365371" lon="8.937615669714498"><ele>88.75</ele><time>2026-03-29T14:47:02.999Z</time></trkpt><trkpt lat="45.329985014360595" lon="8.937507121670176"><ele>89.0</ele><time>2026-03-29T14:47:04Z</time></trkpt><trkpt lat="45.33011450840696" lon="8.937399484535108"><ele>89.0</ele><time>2026-03-29T14:47:05Z</time></trkpt><trkpt lat="45.33021970434474" lon="8.937285247114524"><ele>89.0</ele><time>2026-03-29T14:47:06Z</time></trkpt><trkpt lat="45.330322624813334" lon="8.937171270076695"><ele>89.0</ele><time>2026-03-29T14:47:07Z</time></trkpt><trkpt lat="45.33043239939033" lon="8.937048270569926"><ele>89.0</ele><time>2026-03-29T14:47:08Z</time></trkpt><trkpt lat="45.33053475498738" lon="8.936933583845601"><ele>89.0</ele><time>2026-03-29T14:47:09Z</time></trkpt><trkpt lat="45.33062442374048" lon="8.936837543961657"><ele>89.0</ele><time>2026-03-29T14:47:10Z</time></trkpt><trkpt lat="45.33069270337014" lon="8.936765933561476"><ele>89.0</ele><time>2026-03-29T14:47:11Z</time></trkpt><trkpt lat="45.330748616338894" lon="8.936707769730422"><ele>89.0</ele><time>2026-03-29T14:47:12Z</time></trkpt><trkpt lat="45.330838725742886" lon="8.936614234856492"><ele>89.0</ele><time>2026-03-29T14:47:14Z</time></trkpt><trkpt lat="45.33089476586686" lon="8.936566746358485"><ele>89.0</ele><time>2026-03-29T14:47:15Z</time></trkpt><trkpt lat="45.330961060031996" lon="8.936493002550586"><ele>89.0</ele><time>2026-03-29T14:47:16Z</time></trkpt><trkpt lat="45.33105206442372" lon="8.93638507021272"><ele>89.0</ele><time>2026-03-29T14:47:17Z</time></trkpt><trkpt lat="45.3311294348468" lon="8.936296870911534"><ele>89.0</ele><time>2026-03-29T14:47:18Z</time></trkpt><trkpt lat="45.331222015091456" lon="8.936184811406141"><ele>89.0</ele><time>2026-03-29T14:47:19Z</time></trkpt><trkpt lat="45.33132097605297" lon="8.93606483905666"><ele>88.75</ele><time>2026-03-29T14:47:20Z</time></trkpt><trkpt lat="45.33142516599123" lon="8.935964027948431"><ele>88.5</ele><time>2026-03-29T14:47:21Z</time></trkpt><trkpt lat="45.331542756647" lon="8.935869771492994"><ele>88.25</ele><time>2026-03-29T14:47:22Z</time></trkpt><trkpt lat="45.331673619390806" lon="8.93577454366223"><ele>88.0</ele><time>2026-03-29T14:47:23Z</time></trkpt><trkpt lat="45.33179982538867" lon="8.935683473128666"><ele>88.5</ele><time>2026-03-29T14:47:24Z</time></trkpt><trkpt lat="45.33191729544629" lon="8.935615275441824"><ele>89.0</ele><time>2026-03-29T14:47:25Z</time></trkpt><trkpt lat="45.332021273321246" lon="8.935493278811382"><ele>89.5</ele><time>2026-03-29T14:47:26Z</time></trkpt><trkpt lat="45.332127971500974" lon="8.93537783634267"><ele>90.0</ele><time>2026-03-29T14:47:27Z</time></trkpt><trkpt lat="45.33222405211117" lon="8.935272526551325"><ele>90.0</ele><time>2026-03-29T14:47:28Z</time></trkpt><trkpt lat="45.33232934934717" lon="8.935197977183165"><ele>90.0</ele><time>2026-03-29T14:47:29Z</time></trkpt><trkpt lat="45.33242171743927" lon="8.93511164491603"><ele>90.0</ele><time>2026-03-29T14:47:30Z</time></trkpt><trkpt lat="45.332512646493186" lon="8.935030237673132"><ele>90.0</ele><time>2026-03-29T14:47:31Z</time></trkpt><trkpt lat="45.33260090370676" lon="8.934962258818514"><ele>90.0</ele><time>2026-03-29T14:47:32Z</time></trkpt><trkpt lat="45.332696943619304" lon="8.934895953708628"><ele>90.33333333333333</ele><time>2026-03-29T14:47:33Z</time></trkpt><trkpt lat="45.33277833127468" lon="8.934849328252087"><ele>90.66666666666667</ele><time>2026-03-29T14:47:34Z</time></trkpt><trkpt lat="45.33285092470748" lon="8.934790875129048"><ele>91.0</ele><time>2026-03-29T14:47:35Z</time></trkpt><trkpt lat="45.33292325059483" lon="8.934770754573929"><ele>91.33333333333334</ele><time>2026-03-29T14:47:36Z</time></trkpt><trkpt lat="45.33299557975608" lon="8.934751279394536"><ele>91.66666666666667</ele><time>2026-03-29T14:47:37Z</time></trkpt><trkpt lat="45.33311413656873" lon="8.934739178985838"><ele>92.0</ele><time>2026-03-29T14:47:39Z</time></trkpt><trkpt lat="45.33320384643684" lon="8.934719479855655"><ele>92.0</ele><time>2026-03-29T14:47:41Z</time></trkpt><trkpt lat="45.33328490205051" lon="8.934678726164938"><ele>92.0</ele><time>2026-03-29T14:47:43Z</time></trkpt><trkpt lat="45.333326272133164" lon="8.934598468933892"><ele>92.0</ele><time>2026-03-29T14:47:44Z</time></trkpt><trkpt lat="45.33337067157217" lon="8.934498283043755"><ele>92.0</ele><time>2026-03-29T14:47:45Z</time></trkpt><trkpt lat="45.33340626574412" lon="8.934409291551413"><ele>92.0</ele><time>2026-03-29T14:47:46Z</time></trkpt><trkpt lat="45.33342401703235" lon="8.934319276667571"><ele>92.0</ele><time>2026-03-29T14:47:47Z</time></trkpt><trkpt lat="45.333413550487364" lon="8.934192414510605"><ele>92.19999999999999</ele><time>2026-03-29T14:47:48Z</time></trkpt><trkpt lat="45.33336342723556" lon="8.934068451387695"><ele>92.4</ele><time>2026-03-29T14:47:49Z</time></trkpt><trkpt lat="45.333309964554275" lon="8.933939544103916"><ele>92.6</ele><time>2026-03-29T14:47:50Z</time></trkpt><trkpt lat="45.333263924907335" lon="8.933799634039055"><ele>92.80000000000001</ele><time>2026-03-29T14:47:51Z</time></trkpt><trkpt lat="45.333226407806336" lon="8.933669591462008"><ele>93.0</ele><time>2026-03-29T14:47:52Z</time></trkpt><trkpt lat="45.33319112545992" lon="8.933543653682515"><ele>93.0</ele><time>2026-03-29T14:47:53Z</time></trkpt><trkpt lat="45.33315279508453" lon="8.933399203823969"><ele>93.0</ele><time>2026-03-29T14:47:54Z</time></trkpt><trkpt lat="45.333108025449114" lon="8.933286068987615"><ele>93.0</ele><time>2026-03-29T14:47:55Z</time></trkpt><trkpt lat="45.33309814616078" lon="8.933147029187051"><ele>93.0</ele><time>2026-03-29T14:47:56Z</time></trkpt><trkpt lat="45.333069590118285" lon="8.933014867171497"><ele>93.0</ele><time>2026-03-29T14:47:57Z</time></trkpt><trkpt lat="45.33301994107176" lon="8.932902933152594"><ele>91.80000000000001</ele><time>2026-03-29T14:47:58Z</time></trkpt><trkpt lat="45.332979628947506" lon="8.932800305183367"><ele>90.6</ele><time>2026-03-29T14:47:59Z</time></trkpt><trkpt lat="45.33292033870914" lon="8.932689038099955"><ele>89.4</ele><time>2026-03-29T14:48:00Z</time></trkpt><trkpt lat="45.33284035098219" lon="8.932548778562978"><ele>88.19999999999999</ele><time>2026-03-29T14:48:01Z</time></trkpt><trkpt lat="45.332776174603985" lon="8.93238400471197"><ele>87.0</ele><time>2026-03-29T14:48:02Z</time></trkpt><trkpt lat="45.33270376229334" lon="8.932240562589799"><ele>85.33333333333333</ele><time>2026-03-29T14:48:03Z</time></trkpt><trkpt lat="45.33262077513106" lon="8.932078475158727"><ele>83.66666666666666</ele><time>2026-03-29T14:48:04Z</time></trkpt><trkpt lat="45.332531280799" lon="8.931907610835436"><ele>82.0</ele><time>2026-03-29T14:48:05Z</time></trkpt><trkpt lat="45.33243235528243" lon="8.931720678757406"><ele>81.66666666666666</ele><time>2026-03-29T14:48:06Z</time></trkpt><trkpt lat="45.33233531912492" lon="8.931538211680424"><ele>81.33333333333333</ele><time>2026-03-29T14:48:07Z</time></trkpt><trkpt lat="45.33223928453067" lon="8.931357826297068"><ele>81.0</ele><time>2026-03-29T14:48:08Z</time></trkpt><trkpt lat="45.33214768888659" lon="8.931185778894948"><ele>81.0</ele><time>2026-03-29T14:48:09Z</time></trkpt><trkpt lat="45.33204629872156" lon="8.930997400795183"><ele>81.0</ele><time>2026-03-29T14:48:10Z</time></trkpt><trkpt lat="45.33195342074867" lon="8.930827869515348"><ele>81.0</ele><time>2026-03-29T14:48:11Z</time></trkpt><trkpt lat="45.331864739824894" lon="8.930667141845678"><ele>81.0</ele><time>2026-03-29T14:48:12Z</time></trkpt><trkpt lat="45.33177198240832" lon="8.93049552112616"><ele>81.0</ele><time>2026-03-29T14:48:13Z</time></trkpt><trkpt lat="45.33168264060007" lon="8.930326752718553"><ele>81.0</ele><time>2026-03-29T14:48:14Z</time></trkpt><trkpt lat="45.331599980698726" lon="8.930166086901469"><ele>81.0</ele><time>2026-03-29T14:48:15Z</time></trkpt><trkpt lat="45.331516625683236" lon="8.93000386360392"><ele>81.0</ele><time>2026-03-29T14:48:16Z</time></trkpt><trkpt lat="45.331433568424856" lon="8.92984502580693"><ele>81.0</ele><time>2026-03-29T14:48:17Z</time></trkpt><trkpt lat="45.33135024202161" lon="8.929687164993824"><ele>81.0</ele><time>2026-03-29T14:48:18Z</time></trkpt><trkpt lat="45.33126782163667" lon="8.929531791260022"><ele>81.0</ele><time>2026-03-29T14:48:19Z</time></trkpt><trkpt lat="45.33119173893543" lon="8.929388871274387"><ele>81.0</ele><time>2026-03-29T14:48:20Z</time></trkpt><trkpt lat="45.33111829191441" lon="8.929248394485843"><ele>81.0</ele><time>2026-03-29T14:48:21Z</time></trkpt><trkpt lat="45.33104289779904" lon="8.92910341652695"><ele>81.0</ele><time>2026-03-29T14:48:22Z</time></trkpt><trkpt lat="45.33096724183727" lon="8.928958925262256"><ele>81.0</ele><time>2026-03-29T14:48:23Z</time></trkpt><trkpt lat="45.330895571938385" lon="8.928819760598897"><ele>81.0</ele><time>2026-03-29T14:48:24Z</time></trkpt><trkpt lat="45.33083138831205" lon="8.928696969392638"><ele>81.0</ele><time>2026-03-29T14:48:25Z</time></trkpt><trkpt lat="45.33075741179966" lon="8.928558422181357"><ele>81.0</ele><time>2026-03-29T14:48:26Z</time></trkpt><trkpt lat="45.33068336073653" lon="8.928423665505248"><ele>81.0</ele><time>2026-03-29T14:48:27Z</time></trkpt><trkpt lat="45.3306179603091" lon="8.928305832474566"><ele>81.0</ele><time>2026-03-29T14:48:28Z</time></trkpt><trkpt lat="45.330561825924" lon="8.928204258779626"><ele>81.0</ele><time>2026-03-29T14:48:29Z</time></trkpt><trkpt lat="45.33050937084903" lon="8.928110111085909"><ele>81.0</ele><time>2026-03-29T14:48:30Z</time></trkpt><trkpt lat="45.330464153591514" lon="8.928028773022419"><ele>81.0</ele><time>2026-03-29T14:48:31Z</time></trkpt><trkpt lat="45.33039080759287" lon="8.9278925358959"><ele>81.0</ele><time>2026-03-29T14:48:33Z</time></trkpt><trkpt lat="45.33034271501677" lon="8.927782854448001"><ele>81.0</ele><time>2026-03-29T14:48:35Z</time></trkpt><trkpt lat="45.33041253050921" lon="8.927677562442087"><ele>81.0</ele><time>2026-03-29T14:48:37Z</time></trkpt><trkpt lat="45.330458066371236" lon="8.92759308100335"><ele>81.0</ele><time>2026-03-29T14:48:38Z</time></trkpt><trkpt lat="45.33051013863332" lon="8.927508324963348"><ele>81.0</ele><time>2026-03-29T14:48:39Z</time></trkpt><trkpt lat="45.330556300918154" lon="8.927389122197035"><ele>81.0</ele><time>2026-03-29T14:48:40Z</time></trkpt><trkpt lat="45.33057897271387" lon="8.927247645245957"><ele>81.19999999999999</ele><time>2026-03-29T14:48:41Z</time></trkpt><trkpt lat="45.330587269670346" lon="8.927090692761448"><ele>81.39999999999999</ele><time>2026-03-29T14:48:42Z</time></trkpt><trkpt lat="45.33058244067147" lon="8.92695680586177"><ele>81.6</ele><time>2026-03-29T14:48:43Z</time></trkpt><trkpt lat="45.33056683058138" lon="8.926813129371354"><ele>81.8</ele><time>2026-03-29T14:48:44Z</time></trkpt><trkpt lat="45.33055211746024" lon="8.926706669620517"><ele>82.0</ele><time>2026-03-29T14:48:45Z</time></trkpt><trkpt lat="45.33053712265012" lon="8.926611485155371"><ele>82.19999999999999</ele><time>2026-03-29T14:48:46Z</time></trkpt><trkpt lat="45.33050298594474" lon="8.92646488099973"><ele>82.4</ele><time>2026-03-29T14:48:48Z</time></trkpt><trkpt lat="45.33050910124083" lon="8.926342554456019"><ele>82.6</ele><time>2026-03-29T14:48:50Z</time></trkpt><trkpt lat="45.33063891184882" lon="8.926313496962027"><ele>82.80000000000001</ele><time>2026-03-29T14:48:51Z</time></trkpt><trkpt lat="45.33072102600112" lon="8.926278367218067"><ele>83.0</ele><time>2026-03-29T14:48:52Z</time></trkpt><trkpt lat="45.330815700782516" lon="8.926247343752314"><ele>82.5</ele><time>2026-03-29T14:48:52.999Z</time></trkpt><trkpt lat="45.33092688093413" lon="8.926215955290616"><ele>82.0</ele><time>2026-03-29T14:48:53.999Z</time></trkpt><trkpt lat="45.33105257144781" lon="8.926180201880639"><ele>81.5</ele><time>2026-03-29T14:48:54.999Z</time></trkpt><trkpt lat="45.331181537101145" lon="8.926144755511292"><ele>81.0</ele><time>2026-03-29T14:48:55.999Z</time></trkpt><trkpt lat="45.33129812389081" lon="8.926113219388357"><ele>81.0</ele><time>2026-03-29T14:48:56.999Z</time></trkpt><trkpt lat="45.33143206303186" lon="8.92607703926204"><ele>81.0</ele><time>2026-03-29T14:48:57.999Z</time></trkpt><trkpt lat="45.331567158616195" lon="8.926040484421234"><ele>81.0</ele><time>2026-03-29T14:48:58.999Z</time></trkpt><trkpt lat="45.33170465032054" lon="8.926003271356816"><ele>81.0</ele><time>2026-03-29T14:48:59.999Z</time></trkpt><trkpt lat="45.33184933714072" lon="8.9259641274456"><ele>81.0</ele><time>2026-03-29T14:49:00.999Z</time></trkpt><trkpt lat="45.33199645061536" lon="8.925926103997908"><ele>81.0</ele><time>2026-03-29T14:49:01.999Z</time></trkpt><trkpt lat="45.33213919738511" lon="8.925886854059211"><ele>81.0</ele><time>2026-03-29T14:49:02.999Z</time></trkpt><trkpt lat="45.33226698475021" lon="8.925849503247488"><ele>81.0</ele><time>2026-03-29T14:49:03.999Z</time></trkpt><trkpt lat="45.332402739757114" lon="8.925807176136168"><ele>81.25</ele><time>2026-03-29T14:49:04.999Z</time></trkpt><trkpt lat="45.33254064258792" lon="8.925762513343322"><ele>81.5</ele><time>2026-03-29T14:49:05.999Z</time></trkpt><trkpt lat="45.332674125628564" lon="8.925718620322806"><ele>81.75</ele><time>2026-03-29T14:49:06.999Z</time></trkpt><trkpt lat="45.33279065194647" lon="8.92567590563994"><ele>82.0</ele><time>2026-03-29T14:49:07.999Z</time></trkpt><trkpt lat="45.33290772359901" lon="8.92560749480014"><ele>82.0</ele><time>2026-03-29T14:49:08.999Z</time></trkpt><trkpt lat="45.333041983553734" lon="8.925548544143826"><ele>82.0</ele><time>2026-03-29T14:49:10Z</time></trkpt><trkpt lat="45.33318474672487" lon="8.925478612146836"><ele>82.0</ele><time>2026-03-29T14:49:11Z</time></trkpt><trkpt lat="45.33331884271195" lon="8.925417355530788"><ele>82.0</ele><time>2026-03-29T14:49:12Z</time></trkpt><trkpt lat="45.33344843782249" lon="8.925375991958735"><ele>81.8</ele><time>2026-03-29T14:49:13Z</time></trkpt><trkpt lat="45.33355627392747" lon="8.925318860141642"><ele>81.6</ele><time>2026-03-29T14:49:14Z</time></trkpt><trkpt lat="45.33366387562837" lon="8.925260619626014"><ele>81.39999999999999</ele><time>2026-03-29T14:49:15Z</time></trkpt><trkpt lat="45.33376813463176" lon="8.925205245357196"><ele>81.19999999999999</ele><time>2026-03-29T14:49:16Z</time></trkpt><trkpt lat="45.33385971722473" lon="8.92515822730914"><ele>81.0</ele><time>2026-03-29T14:49:17Z</time></trkpt><trkpt lat="45.333939235833675" lon="8.925117892679802"><ele>81.6</ele><time>2026-03-29T14:49:18Z</time></trkpt><trkpt lat="45.3340154299628" lon="8.925079963833976"><ele>82.19999999999999</ele><time>2026-03-29T14:49:19Z</time></trkpt><trkpt lat="45.33409011951446" lon="8.925041937195012"><ele>82.80000000000001</ele><time>2026-03-29T14:49:20Z</time></trkpt><trkpt lat="45.334170252701924" lon="8.925002224568436"><ele>83.4</ele><time>2026-03-29T14:49:21Z</time></trkpt><trkpt lat="45.33427590614143" lon="8.924952469564964"><ele>84.0</ele><time>2026-03-29T14:49:23Z</time></trkpt><trkpt lat="45.33437187093869" lon="8.924898178243941"><ele>84.2</ele><time>2026-03-29T14:49:25Z</time></trkpt><trkpt lat="45.334449896021766" lon="8.924829425134995"><ele>84.4</ele><time>2026-03-29T14:49:27Z</time></trkpt><trkpt lat="45.33450032582547" lon="8.924667270849968"><ele>84.6</ele><time>2026-03-29T14:49:29Z</time></trkpt><trkpt lat="45.33447084787676" lon="8.924534234056734"><ele>84.8</ele><time>2026-03-29T14:49:30Z</time></trkpt><trkpt lat="45.334445684468314" lon="8.924392363349774"><ele>85.0</ele><time>2026-03-29T14:49:31Z</time></trkpt><trkpt lat="45.33442533734256" lon="8.924261904391214"><ele>85.0</ele><time>2026-03-29T14:49:32Z</time></trkpt><trkpt lat="45.33440457909111" lon="8.924096526078133"><ele>85.0</ele><time>2026-03-29T14:49:33Z</time></trkpt><trkpt lat="45.33438776572174" lon="8.92395697508492"><ele>85.0</ele><time>2026-03-29T14:49:34Z</time></trkpt><trkpt lat="45.3343736799412" lon="8.923821988425836"><ele>85.0</ele><time>2026-03-29T14:49:35Z</time></trkpt><trkpt lat="45.33436463615758" lon="8.92372084255012"><ele>85.0</ele><time>2026-03-29T14:49:36Z</time></trkpt><trkpt lat="45.33435876548479" lon="8.92360982899499"><ele>85.0</ele><time>2026-03-29T14:49:37Z</time></trkpt><trkpt lat="45.334338620410776" lon="8.923448151102706"><ele>85.0</ele><time>2026-03-29T14:49:39Z</time></trkpt><trkpt lat="45.334364845329205" lon="8.923354122118411"><ele>85.0</ele><time>2026-03-29T14:49:40Z</time></trkpt><trkpt lat="45.3344032551956" lon="8.923271395399018"><ele>85.0</ele><time>2026-03-29T14:49:41Z</time></trkpt><trkpt lat="45.3344795599093" lon="8.923250746862335"><ele>85.0</ele><time>2026-03-29T14:49:41.999Z</time></trkpt><trkpt lat="45.33455415780113" lon="8.923179586956662"><ele>85.0</ele><time>2026-03-29T14:49:42.999Z</time></trkpt><trkpt lat="45.33463405082953" lon="8.92311026249965"><ele>84.75</ele><time>2026-03-29T14:49:43.999Z</time></trkpt><trkpt lat="45.334739187077936" lon="8.92302342489269"><ele>84.5</ele><time>2026-03-29T14:49:44.999Z</time></trkpt><trkpt lat="45.3348609017622" lon="8.922930130749767"><ele>84.25</ele><time>2026-03-29T14:49:45.999Z</time></trkpt><trkpt lat="45.33498460624067" lon="8.922839830812187"><ele>84.0</ele><time>2026-03-29T14:49:46.999Z</time></trkpt><trkpt lat="45.33508912636344" lon="8.922763996244202"><ele>84.0</ele><time>2026-03-29T14:49:47.999Z</time></trkpt><trkpt lat="45.335179664499016" lon="8.92269830619892"><ele>84.0</ele><time>2026-03-29T14:49:48.999Z</time></trkpt><trkpt lat="45.33525909868154" lon="8.922640253040301"><ele>84.0</ele><time>2026-03-29T14:49:49.999Z</time></trkpt><trkpt lat="45.335332155916994" lon="8.922586307632796"><ele>84.0</ele><time>2026-03-29T14:49:50.999Z</time></trkpt><trkpt lat="45.33541957651964" lon="8.92252175642382"><ele>84.0</ele><time>2026-03-29T14:49:51.999Z</time></trkpt><trkpt lat="45.33549877183201" lon="8.922459024836368"><ele>84.0</ele><time>2026-03-29T14:49:52.999Z</time></trkpt><trkpt lat="45.33558033365126" lon="8.922394231882537"><ele>84.0</ele><time>2026-03-29T14:49:53.999Z</time></trkpt><trkpt lat="45.335653602497466" lon="8.922335060886029"><ele>84.0</ele><time>2026-03-29T14:49:54.999Z</time></trkpt><trkpt lat="45.33571910844463" lon="8.922281606552453"><ele>84.0</ele><time>2026-03-29T14:49:55.999Z</time></trkpt><trkpt lat="45.33579133181312" lon="8.922225117883047"><ele>84.0</ele><time>2026-03-29T14:49:56.999Z</time></trkpt><trkpt lat="45.335877858343125" lon="8.922173924937827"><ele>84.0</ele><time>2026-03-29T14:49:58.999Z</time></trkpt><trkpt lat="45.33592962663215" lon="8.922122366077332"><ele>84.0</ele><time>2026-03-29T14:50:00.999Z</time></trkpt><trkpt lat="45.33593884570002" lon="8.921974235403354"><ele>84.0</ele><time>2026-03-29T14:50:02.999Z</time></trkpt><trkpt lat="45.33587815020353" lon="8.92187885854734"><ele>84.0</ele><time>2026-03-29T14:50:03.999Z</time></trkpt><trkpt lat="45.33582006652062" lon="8.921747141515931"><ele>84.0</ele><time>2026-03-29T14:50:04.999Z</time></trkpt><trkpt lat="45.33578982003703" lon="8.921613563754493"><ele>84.0</ele><time>2026-03-29T14:50:05.999Z</time></trkpt><trkpt lat="45.33576410305633" lon="8.92144870842433"><ele>84.0</ele><time>2026-03-29T14:50:06.999Z</time></trkpt><trkpt lat="45.33573050548553" lon="8.921277832448402"><ele>84.0</ele><time>2026-03-29T14:50:07.999Z</time></trkpt><trkpt lat="45.33572394762522" lon="8.921113346264498"><ele>84.0</ele><time>2026-03-29T14:50:08.999Z</time></trkpt><trkpt lat="45.335723830843" lon="8.920935305194567"><ele>84.0</ele><time>2026-03-29T14:50:09.999Z</time></trkpt><trkpt lat="45.33573530713116" lon="8.920766923560848"><ele>83.80000000000001</ele><time>2026-03-29T14:50:10.999Z</time></trkpt><trkpt lat="45.33578876381554" lon="8.920607089444754"><ele>83.60000000000001</ele><time>2026-03-29T14:50:11.999Z</time></trkpt><trkpt lat="45.33579954250587" lon="8.920452812229215"><ele>83.4</ele><time>2026-03-29T14:50:12.999Z</time></trkpt><trkpt lat="45.33580769423025" lon="8.920294641900973"><ele>83.2</ele><time>2026-03-29T14:50:13.999Z</time></trkpt><trkpt lat="45.33580912344869" lon="8.920160763048111"><ele>83.0</ele><time>2026-03-29T14:50:14.999Z</time></trkpt><trkpt lat="45.335806248191645" lon="8.920034712821284"><ele>82.66666666666667</ele><time>2026-03-29T14:50:15.999Z</time></trkpt><trkpt lat="45.33580247815241" lon="8.91991810771575"><ele>82.33333333333334</ele><time>2026-03-29T14:50:16.999Z</time></trkpt><trkpt lat="45.33579877052205" lon="8.91978839559645"><ele>82.0</ele><time>2026-03-29T14:50:17.999Z</time></trkpt><trkpt lat="45.33579772475153" lon="8.919663170322695"><ele>81.66666666666667</ele><time>2026-03-29T14:50:18.999Z</time></trkpt><trkpt lat="45.33579820518477" lon="8.91954076688601"><ele>81.33333333333333</ele><time>2026-03-29T14:50:19.999Z</time></trkpt><trkpt lat="45.335801959249885" lon="8.919408572577009"><ele>81.0</ele><time>2026-03-29T14:50:20.999Z</time></trkpt><trkpt lat="45.33581103312446" lon="8.919284383286943"><ele>81.0</ele><time>2026-03-29T14:50:21.999Z</time></trkpt><trkpt lat="45.33582166152906" lon="8.919156555856137"><ele>81.0</ele><time>2026-03-29T14:50:22.999Z</time></trkpt><trkpt lat="45.335836229812685" lon="8.919041934682001"><ele>81.0</ele><time>2026-03-29T14:50:23.999Z</time></trkpt><trkpt lat="45.335858773902345" lon="8.91893704361519"><ele>81.0</ele><time>2026-03-29T14:50:24.999Z</time></trkpt><trkpt lat="45.33589060961297" lon="8.918842395654458"><ele>81.0</ele><time>2026-03-29T14:50:25.999Z</time></trkpt><trkpt lat="45.33594268760583" lon="8.918722814473973"><ele>81.0</ele><time>2026-03-29T14:50:26.999Z</time></trkpt><trkpt lat="45.336006870715494" lon="8.918625025284936"><ele>81.0</ele><time>2026-03-29T14:50:27.999Z</time></trkpt><trkpt lat="45.33607150023059" lon="8.918510217415808"><ele>81.0</ele><time>2026-03-29T14:50:28.999Z</time></trkpt><trkpt lat="45.33613517023382" lon="8.918401525972781"><ele>81.0</ele><time>2026-03-29T14:50:29.999Z</time></trkpt><trkpt lat="45.33620490836532" lon="8.918286027781926"><ele>81.0</ele><time>2026-03-29T14:50:30.999Z</time></trkpt><trkpt lat="45.33627189869547" lon="8.91817508006457"><ele>81.0</ele><time>2026-03-29T14:50:31.999Z</time></trkpt><trkpt lat="45.33634013263659" lon="8.918062284228352"><ele>81.0</ele><time>2026-03-29T14:50:32.999Z</time></trkpt><trkpt lat="45.33639874033301" lon="8.917966164894356"><ele>81.0</ele><time>2026-03-29T14:50:33.999Z</time></trkpt><trkpt lat="45.3364607303802" lon="8.917864497909084"><ele>81.0</ele><time>2026-03-29T14:50:34.999Z</time></trkpt><trkpt lat="45.33652396366998" lon="8.917762209790167"><ele>81.0</ele><time>2026-03-29T14:50:35.999Z</time></trkpt><trkpt lat="45.33657949102871" lon="8.91767328516538"><ele>81.0</ele><time>2026-03-29T14:50:36.999Z</time></trkpt><trkpt lat="45.336632667557076" lon="8.917588125042634"><ele>81.0</ele><time>2026-03-29T14:50:37.999Z</time></trkpt><trkpt lat="45.33668246367962" lon="8.91751416086928"><ele>80.83333333333333</ele><time>2026-03-29T14:50:38.999Z</time></trkpt><trkpt lat="45.336730357748294" lon="8.91745187947797"><ele>80.66666666666667</ele><time>2026-03-29T14:50:39.999Z</time></trkpt><trkpt lat="45.3367813460586" lon="8.917397379661661"><ele>80.5</ele><time>2026-03-29T14:50:40.999Z</time></trkpt><trkpt lat="45.33684686633675" lon="8.917338345317162"><ele>80.33333333333334</ele><time>2026-03-29T14:50:41.999Z</time></trkpt><trkpt lat="45.33694771897565" lon="8.917315242087872"><ele>80.16666666666667</ele><time>2026-03-29T14:50:42.999Z</time></trkpt><trkpt lat="45.33703136110134" lon="8.917311571721823"><ele>80.0</ele><time>2026-03-29T14:50:43.999Z</time></trkpt><trkpt lat="45.337112355070744" lon="8.917293365879413"><ele>80.0</ele><time>2026-03-29T14:50:44.999Z</time></trkpt><trkpt lat="45.337192408290534" lon="8.917280365446898"><ele>80.0</ele><time>2026-03-29T14:50:45.999Z</time></trkpt><trkpt lat="45.337274908920406" lon="8.917230499030444"><ele>80.0</ele><time>2026-03-29T14:50:46.999Z</time></trkpt><trkpt lat="45.33735913093579" lon="8.917138043573354"><ele>80.0</ele><time>2026-03-29T14:50:47.999Z</time></trkpt><trkpt lat="45.33743484747456" lon="8.917019902188908"><ele>80.0</ele><time>2026-03-29T14:50:48.999Z</time></trkpt><trkpt lat="45.33749876828596" lon="8.91689617487005"><ele>80.5</ele><time>2026-03-29T14:50:49.999Z</time></trkpt><trkpt lat="45.33757630493564" lon="8.916744717380022"><ele>81.0</ele><time>2026-03-29T14:50:50.999Z</time></trkpt><trkpt lat="45.33764267698735" lon="8.916611500219098"><ele>81.5</ele><time>2026-03-29T14:50:51.999Z</time></trkpt><trkpt lat="45.33771156973588" lon="8.916474572095131"><ele>82.0</ele><time>2026-03-29T14:50:52.999Z</time></trkpt><trkpt lat="45.337774305133884" lon="8.916351112490416"><ele>82.0</ele><time>2026-03-29T14:50:53.999Z</time></trkpt><trkpt lat="45.33783440469971" lon="8.916232839677532"><ele>82.0</ele><time>2026-03-29T14:50:54.999Z</time></trkpt><trkpt lat="45.337902870649" lon="8.916098287722551"><ele>82.0</ele><time>2026-03-29T14:50:55.999Z</time></trkpt><trkpt lat="45.33796582831984" lon="8.915977091161233"><ele>82.0</ele><time>2026-03-29T14:50:56.999Z</time></trkpt><trkpt lat="45.338024539282316" lon="8.915864070052931"><ele>82.0</ele><time>2026-03-29T14:50:57.999Z</time></trkpt><trkpt lat="45.33808923154786" lon="8.915739534406585"><ele>82.0</ele><time>2026-03-29T14:50:58.999Z</time></trkpt><trkpt lat="45.338152503448775" lon="8.915620729808031"><ele>82.0</ele><time>2026-03-29T14:50:59.999Z</time></trkpt><trkpt lat="45.3382128755095" lon="8.915509635224259"><ele>82.0</ele><time>2026-03-29T14:51:00.999Z</time></trkpt><trkpt lat="45.33826695841755" lon="8.915410922188634"><ele>82.0</ele><time>2026-03-29T14:51:01.999Z</time></trkpt><trkpt lat="45.338325571101805" lon="8.915312869715711"><ele>82.0</ele><time>2026-03-29T14:51:02.999Z</time></trkpt><trkpt lat="45.33839578930377" lon="8.91520635016847"><ele>82.0</ele><time>2026-03-29T14:51:03.999Z</time></trkpt><trkpt lat="45.33847061526188" lon="8.915107624578933"><ele>82.0</ele><time>2026-03-29T14:51:04.999Z</time></trkpt><trkpt lat="45.338562877052034" lon="8.915010889346025"><ele>82.0</ele><time>2026-03-29T14:51:05.999Z</time></trkpt><trkpt lat="45.33866361497863" lon="8.914923480667063"><ele>82.0</ele><time>2026-03-29T14:51:06.999Z</time></trkpt><trkpt lat="45.338764283148194" lon="8.914839012787482"><ele>82.19999999999999</ele><time>2026-03-29T14:51:07.999Z</time></trkpt><trkpt lat="45.33885973934687" lon="8.914760586447215"><ele>82.4</ele><time>2026-03-29T14:51:08.999Z</time></trkpt><trkpt lat="45.33895333896704" lon="8.914683872615408"><ele>82.6</ele><time>2026-03-29T14:51:09.999Z</time></trkpt><trkpt lat="45.339046560334815" lon="8.914607469168361"><ele>82.80000000000001</ele><time>2026-03-29T14:51:10.999Z</time></trkpt><trkpt lat="45.339144904616646" lon="8.914525233971895"><ele>83.0</ele><time>2026-03-29T14:51:11.999Z</time></trkpt><trkpt lat="45.33924905530879" lon="8.91443694824135"><ele>82.5</ele><time>2026-03-29T14:51:12.999Z</time></trkpt><trkpt lat="45.33934735902103" lon="8.914353283028753"><ele>82.0</ele><time>2026-03-29T14:51:13.999Z</time></trkpt><trkpt lat="45.33944816140736" lon="8.914266010497267"><ele>81.5</ele><time>2026-03-29T14:51:14.999Z</time></trkpt><trkpt lat="45.33955362099684" lon="8.914176653291927"><ele>81.0</ele><time>2026-03-29T14:51:15.999Z</time></trkpt><trkpt lat="45.33965308446397" lon="8.914092539296089"><ele>81.4</ele><time>2026-03-29T14:51:16.999Z</time></trkpt><trkpt lat="45.33975026019501" lon="8.91401079434166"><ele>81.8</ele><time>2026-03-29T14:51:17.999Z</time></trkpt><trkpt lat="45.33984459236584" lon="8.91393085778082"><ele>82.2</ele><time>2026-03-29T14:51:18.999Z</time></trkpt><trkpt lat="45.33993348587872" lon="8.913850923203489"><ele>82.60000000000001</ele><time>2026-03-29T14:51:19.999Z</time></trkpt><trkpt lat="45.34002640432656" lon="8.913759381977236"><ele>83.0</ele><time>2026-03-29T14:51:20.999Z</time></trkpt><trkpt lat="45.34010674146156" lon="8.91366724819662"><ele>83.0</ele><time>2026-03-29T14:51:21.999Z</time></trkpt><trkpt lat="45.34018383746279" lon="8.91356759883788"><ele>83.0</ele><time>2026-03-29T14:51:22.999Z</time></trkpt><trkpt lat="45.3402690863011" lon="8.913442265395792"><ele>83.0</ele><time>2026-03-29T14:51:23.999Z</time></trkpt><trkpt lat="45.340358641667514" lon="8.913302021698795"><ele>83.0</ele><time>2026-03-29T14:51:24.999Z</time></trkpt><trkpt lat="45.34044598180092" lon="8.913161646376077"><ele>82.75</ele><time>2026-03-29T14:51:25.999Z</time></trkpt><trkpt lat="45.340535398686214" lon="8.913017472849724"><ele>82.5</ele><time>2026-03-29T14:51:27Z</time></trkpt><trkpt lat="45.34061911009822" lon="8.91288028420301"><ele>82.25</ele><time>2026-03-29T14:51:28Z</time></trkpt><trkpt lat="45.340700138719974" lon="8.912744334389652"><ele>82.0</ele><time>2026-03-29T14:51:29Z</time></trkpt><trkpt lat="45.340781551953285" lon="8.912606878966745"><ele>81.75</ele><time>2026-03-29T14:51:30Z</time></trkpt><trkpt lat="45.34085388315575" lon="8.912480610782682"><ele>81.5</ele><time>2026-03-29T14:51:31Z</time></trkpt><trkpt lat="45.340932034977186" lon="8.912333186539474"><ele>81.25</ele><time>2026-03-29T14:51:32Z</time></trkpt><trkpt lat="45.34100454555166" lon="8.912187917110154"><ele>81.0</ele><time>2026-03-29T14:51:33Z</time></trkpt><trkpt lat="45.34106693991213" lon="8.912053670069023"><ele>81.0</ele><time>2026-03-29T14:51:34Z</time></trkpt><trkpt lat="45.34112844117827" lon="8.911913695842482"><ele>81.0</ele><time>2026-03-29T14:51:35Z</time></trkpt><trkpt lat="45.34118551510319" lon="8.911764865928879"><ele>81.0</ele><time>2026-03-29T14:51:36Z</time></trkpt><trkpt lat="45.3412355563405" lon="8.911606321310652"><ele>81.0</ele><time>2026-03-29T14:51:37Z</time></trkpt><trkpt lat="45.34127872627417" lon="8.91144378624283"><ele>80.75</ele><time>2026-03-29T14:51:38Z</time></trkpt><trkpt lat="45.341314404202095" lon="8.911255339250953"><ele>80.5</ele><time>2026-03-29T14:51:39Z</time></trkpt><trkpt lat="45.34134231864582" lon="8.91106271729294"><ele>80.25</ele><time>2026-03-29T14:51:40Z</time></trkpt><trkpt lat="45.34136524123808" lon="8.910896496607162"><ele>80.0</ele><time>2026-03-29T14:51:41Z</time></trkpt><trkpt lat="45.34138673847115" lon="8.910737592588667"><ele>80.0</ele><time>2026-03-29T14:51:42Z</time></trkpt><trkpt lat="45.34140935281561" lon="8.910569048116828"><ele>80.0</ele><time>2026-03-29T14:51:43Z</time></trkpt><trkpt lat="45.34143214518688" lon="8.910399163262323"><ele>80.0</ele><time>2026-03-29T14:51:44Z</time></trkpt><trkpt lat="45.34145458877395" lon="8.91023187795512"><ele>80.0</ele><time>2026-03-29T14:51:45Z</time></trkpt><trkpt lat="45.34147893653908" lon="8.910050974024163"><ele>80.5</ele><time>2026-03-29T14:51:46Z</time></trkpt><trkpt lat="45.34150581995931" lon="8.909871118237094"><ele>81.0</ele><time>2026-03-29T14:51:47Z</time></trkpt><trkpt lat="45.341532343353876" lon="8.909697976375202"><ele>81.5</ele><time>2026-03-29T14:51:48Z</time></trkpt><trkpt lat="45.3415588403335" lon="8.909527417488546"><ele>82.0</ele><time>2026-03-29T14:51:49Z</time></trkpt><trkpt lat="45.34158579246614" lon="8.909356200677443"><ele>82.0</ele><time>2026-03-29T14:51:50Z</time></trkpt><trkpt lat="45.34161276117643" lon="8.909189768853231"><ele>82.0</ele><time>2026-03-29T14:51:51Z</time></trkpt><trkpt lat="45.34163842437909" lon="8.909031393776814"><ele>82.0</ele><time>2026-03-29T14:51:52Z</time></trkpt><trkpt lat="45.3416586623243" lon="8.908889319342045"><ele>82.0</ele><time>2026-03-29T14:51:53Z</time></trkpt><trkpt lat="45.341673780894915" lon="8.908759866819091"><ele>82.0</ele><time>2026-03-29T14:51:54Z</time></trkpt><trkpt lat="45.34168431165158" lon="8.908620530008294"><ele>82.0</ele><time>2026-03-29T14:51:55Z</time></trkpt><trkpt lat="45.34169611206358" lon="8.908491987010251"><ele>82.0</ele><time>2026-03-29T14:51:56Z</time></trkpt><trkpt lat="45.34170980959241" lon="8.90835753671909"><ele>82.0</ele><time>2026-03-29T14:51:57Z</time></trkpt><trkpt lat="45.341725034772956" lon="8.90822063207023"><ele>82.0</ele><time>2026-03-29T14:51:58Z</time></trkpt><trkpt lat="45.34175376031115" lon="8.908082000380137"><ele>82.0</ele><time>2026-03-29T14:51:59Z</time></trkpt><trkpt lat="45.3417923705162" lon="8.907967858834862"><ele>82.19999999999999</ele><time>2026-03-29T14:52:00Z</time></trkpt><trkpt lat="45.34184265247068" lon="8.907866980755392"><ele>82.4</ele><time>2026-03-29T14:52:01Z</time></trkpt><trkpt lat="45.341912325309245" lon="8.907771937705103"><ele>82.6</ele><time>2026-03-29T14:52:02Z</time></trkpt><trkpt lat="45.34199867388583" lon="8.907684565494261"><ele>82.80000000000001</ele><time>2026-03-29T14:52:03Z</time></trkpt><trkpt lat="45.342095291161584" lon="8.907602847528873"><ele>83.0</ele><time>2026-03-29T14:52:04Z</time></trkpt><trkpt lat="45.34219510216458" lon="8.907543028351245"><ele>83.0</ele><time>2026-03-29T14:52:05Z</time></trkpt><trkpt lat="45.34229735402348" lon="8.907506384643346"><ele>83.0</ele><time>2026-03-29T14:52:06Z</time></trkpt><trkpt lat="45.34241490500207" lon="8.907489400951095"><ele>83.0</ele><time>2026-03-29T14:52:07Z</time></trkpt><trkpt lat="45.342534867451604" lon="8.907486632028837"><ele>83.0</ele><time>2026-03-29T14:52:08Z</time></trkpt><trkpt lat="45.3426689233269" lon="8.907472284728533"><ele>83.0</ele><time>2026-03-29T14:52:09Z</time></trkpt><trkpt lat="45.34281642827651" lon="8.907478341629504"><ele>83.0</ele><time>2026-03-29T14:52:10Z</time></trkpt><trkpt lat="45.34295274571442" lon="8.907488669230457"><ele>83.0</ele><time>2026-03-29T14:52:11Z</time></trkpt><trkpt lat="45.343084524219954" lon="8.907497053772747"><ele>83.0</ele><time>2026-03-29T14:52:12Z</time></trkpt><trkpt lat="45.343237223058495" lon="8.907514203632005"><ele>83.5</ele><time>2026-03-29T14:52:13Z</time></trkpt><trkpt lat="45.34337987925963" lon="8.907514759131491"><ele>84.0</ele><time>2026-03-29T14:52:14Z</time></trkpt><trkpt lat="45.343517210270385" lon="8.907509194045053"><ele>84.5</ele><time>2026-03-29T14:52:15Z</time></trkpt><trkpt lat="45.343648409431026" lon="8.90751365287493"><ele>85.0</ele><time>2026-03-29T14:52:16Z</time></trkpt><trkpt lat="45.34378434370949" lon="8.907516579439553"><ele>84.75</ele><time>2026-03-29T14:52:17Z</time></trkpt><trkpt lat="45.34391436738559" lon="8.907520102142866"><ele>84.5</ele><time>2026-03-29T14:52:18Z</time></trkpt><trkpt lat="45.34405624246926" lon="8.907530625385485"><ele>84.25</ele><time>2026-03-29T14:52:19Z</time></trkpt><trkpt lat="45.34420038694296" lon="8.907550277095508"><ele>84.0</ele><time>2026-03-29T14:52:20Z</time></trkpt><trkpt lat="45.34436400536973" lon="8.90754413462901"><ele>84.0</ele><time>2026-03-29T14:52:21Z</time></trkpt><trkpt lat="45.34451151363547" lon="8.907545815334764"><ele>84.0</ele><time>2026-03-29T14:52:22Z</time></trkpt><trkpt lat="45.34464703953087" lon="8.907547034946944"><ele>84.0</ele><time>2026-03-29T14:52:23Z</time></trkpt><trkpt lat="45.34477227108982" lon="8.907550727849786"><ele>84.0</ele><time>2026-03-29T14:52:24Z</time></trkpt><trkpt lat="45.34491053807229" lon="8.907555756504493"><ele>84.5</ele><time>2026-03-29T14:52:25Z</time></trkpt><trkpt lat="45.345036679505235" lon="8.907559497887704"><ele>85.0</ele><time>2026-03-29T14:52:26Z</time></trkpt><trkpt lat="45.34516236957547" lon="8.907569423742185"><ele>85.5</ele><time>2026-03-29T14:52:27Z</time></trkpt><trkpt lat="45.345300570157654" lon="8.90757251849173"><ele>86.0</ele><time>2026-03-29T14:52:28Z</time></trkpt><trkpt lat="45.34544847408844" lon="8.90758000699686"><ele>86.0</ele><time>2026-03-29T14:52:29Z</time></trkpt><trkpt lat="45.345594611831594" lon="8.907579616448746"><ele>86.0</ele><time>2026-03-29T14:52:30Z</time></trkpt><trkpt lat="45.34573846113171" lon="8.907582682801737"><ele>86.0</ele><time>2026-03-29T14:52:31Z</time></trkpt><trkpt lat="45.34588133979746" lon="8.907583243945094"><ele>86.0</ele><time>2026-03-29T14:52:32Z</time></trkpt><trkpt lat="45.34603182627721" lon="8.90758484453939"><ele>86.0</ele><time>2026-03-29T14:52:33Z</time></trkpt><trkpt lat="45.346165940211264" lon="8.907591580552191"><ele>86.0</ele><time>2026-03-29T14:52:34Z</time></trkpt><trkpt lat="45.34629333961549" lon="8.907594237528354"><ele>86.0</ele><time>2026-03-29T14:52:35Z</time></trkpt><trkpt lat="45.34642577186803" lon="8.907593277185136"><ele>86.0</ele><time>2026-03-29T14:52:36Z</time></trkpt><trkpt lat="45.346568224175016" lon="8.907590323932567"><ele>85.75</ele><time>2026-03-29T14:52:37Z</time></trkpt><trkpt lat="45.34670638738555" lon="8.907590701580833"><ele>85.5</ele><time>2026-03-29T14:52:38Z</time></trkpt><trkpt lat="45.346841482022235" lon="8.907596227959003"><ele>85.25</ele><time>2026-03-29T14:52:39Z</time></trkpt><trkpt lat="45.34697017107319" lon="8.90759862325117"><ele>85.0</ele><time>2026-03-29T14:52:40Z</time></trkpt><trkpt lat="45.34709821907966" lon="8.907601645881165"><ele>85.0</ele><time>2026-03-29T14:52:41Z</time></trkpt><trkpt lat="45.34720911062178" lon="8.90760287764847"><ele>85.0</ele><time>2026-03-29T14:52:42Z</time></trkpt><trkpt lat="45.347327315749006" lon="8.907605050930428"><ele>85.0</ele><time>2026-03-29T14:52:43Z</time></trkpt><trkpt lat="45.34745591516831" lon="8.907606295207392"><ele>85.0</ele><time>2026-03-29T14:52:44Z</time></trkpt><trkpt lat="45.34759408725717" lon="8.907602609457468"><ele>84.75</ele><time>2026-03-29T14:52:45Z</time></trkpt><trkpt lat="45.34773628014694" lon="8.907597005273404"><ele>84.5</ele><time>2026-03-29T14:52:46Z</time></trkpt><trkpt lat="45.34788595310262" lon="8.907591526899846"><ele>84.25</ele><time>2026-03-29T14:52:47Z</time></trkpt><trkpt lat="45.34804040460583" lon="8.90759034459174"><ele>84.0</ele><time>2026-03-29T14:52:48Z</time></trkpt><trkpt lat="45.34817397859464" lon="8.907591098660669"><ele>84.0</ele><time>2026-03-29T14:52:49Z</time></trkpt><trkpt lat="45.348313229037686" lon="8.907586718041921"><ele>84.0</ele><time>2026-03-29T14:52:50Z</time></trkpt><trkpt lat="45.34846138243357" lon="8.907578890635413"><ele>84.0</ele><time>2026-03-29T14:52:51Z</time></trkpt><trkpt lat="45.34859656214024" lon="8.907573949200552"><ele>84.0</ele><time>2026-03-29T14:52:52Z</time></trkpt><trkpt lat="45.348721461082825" lon="8.907571756501174"><ele>84.0</ele><time>2026-03-29T14:52:53Z</time></trkpt><trkpt lat="45.348850309055244" lon="8.907567341780844"><ele>84.0</ele><time>2026-03-29T14:52:54Z</time></trkpt><trkpt lat="45.348981917318035" lon="8.907561840482652"><ele>84.0</ele><time>2026-03-29T14:52:55Z</time></trkpt><trkpt lat="45.34911855356344" lon="8.90754470441959"><ele>84.0</ele><time>2026-03-29T14:52:56Z</time></trkpt><trkpt lat="45.34925927695473" lon="8.907528894609168"><ele>84.0</ele><time>2026-03-29T14:52:57Z</time></trkpt><trkpt lat="45.34939468990326" lon="8.90752757062532"><ele>84.0</ele><time>2026-03-29T14:52:58Z</time></trkpt><trkpt lat="45.34953647272847" lon="8.907537460356226"><ele>84.0</ele><time>2026-03-29T14:52:59Z</time></trkpt><trkpt lat="45.3496831607642" lon="8.907559417302412"><ele>84.0</ele><time>2026-03-29T14:53:00Z</time></trkpt><trkpt lat="45.34983759634628" lon="8.907581154303603"><ele>83.75</ele><time>2026-03-29T14:53:00.999Z</time></trkpt><trkpt lat="45.35000013534252" lon="8.907610074377027"><ele>83.5</ele><time>2026-03-29T14:53:01.999Z</time></trkpt><trkpt lat="45.350141320475615" lon="8.907632946707379"><ele>83.25</ele><time>2026-03-29T14:53:02.999Z</time></trkpt><trkpt lat="45.35026816195193" lon="8.907649449096386"><ele>83.0</ele><time>2026-03-29T14:53:03.999Z</time></trkpt><trkpt lat="45.35040104713036" lon="8.90766578689765"><ele>83.0</ele><time>2026-03-29T14:53:04.999Z</time></trkpt><trkpt lat="45.35053978627396" lon="8.907682359185932"><ele>83.0</ele><time>2026-03-29T14:53:05.999Z</time></trkpt><trkpt lat="45.3506757689952" lon="8.907701702587051"><ele>83.0</ele><time>2026-03-29T14:53:06.999Z</time></trkpt><trkpt lat="45.35081369271051" lon="8.907718088028737"><ele>83.0</ele><time>2026-03-29T14:53:07.999Z</time></trkpt><trkpt lat="45.350953624389646" lon="8.907732944894779"><ele>83.5</ele><time>2026-03-29T14:53:08.999Z</time></trkpt><trkpt lat="45.35108206534551" lon="8.907751175283872"><ele>84.0</ele><time>2026-03-29T14:53:09.999Z</time></trkpt><trkpt lat="45.35120474223805" lon="8.907775822875504"><ele>84.5</ele><time>2026-03-29T14:53:10.999Z</time></trkpt><trkpt lat="45.35133559584602" lon="8.907790826772658"><ele>85.0</ele><time>2026-03-29T14:53:11.999Z</time></trkpt><trkpt lat="45.35146670441696" lon="8.90781222132566"><ele>85.0</ele><time>2026-03-29T14:53:12.999Z</time></trkpt><trkpt lat="45.35160241389378" lon="8.907834842923886"><ele>85.0</ele><time>2026-03-29T14:53:13.999Z</time></trkpt><trkpt lat="45.35174317213537" lon="8.907858965849961"><ele>85.0</ele><time>2026-03-29T14:53:14.999Z</time></trkpt><trkpt lat="45.351887709012395" lon="8.907882265420055"><ele>85.0</ele><time>2026-03-29T14:53:15.999Z</time></trkpt><trkpt lat="45.352014841496924" lon="8.907902712009463"><ele>85.0</ele><time>2026-03-29T14:53:16.999Z</time></trkpt><trkpt lat="45.3521281937125" lon="8.907920306195651"><ele>85.0</ele><time>2026-03-29T14:53:17.999Z</time></trkpt><trkpt lat="45.35223280966822" lon="8.907930963519126"><ele>85.0</ele><time>2026-03-29T14:53:18.999Z</time></trkpt><trkpt lat="45.35234536631757" lon="8.907942603605594"><ele>85.0</ele><time>2026-03-29T14:53:20Z</time></trkpt><trkpt lat="45.35245962760884" lon="8.907955309129795"><ele>85.0</ele><time>2026-03-29T14:53:21Z</time></trkpt><trkpt lat="45.3525623364515" lon="8.907968858121226"><ele>85.33333333333333</ele><time>2026-03-29T14:53:22Z</time></trkpt><trkpt lat="45.35264581801516" lon="8.90798150297505"><ele>85.66666666666666</ele><time>2026-03-29T14:53:23Z</time></trkpt><trkpt lat="45.3527215879779" lon="8.90799090409353"><ele>86.0</ele><time>2026-03-29T14:53:24Z</time></trkpt><trkpt lat="45.35280462682155" lon="8.90800053596943"><ele>86.33333333333333</ele><time>2026-03-29T14:53:25Z</time></trkpt><trkpt lat="45.3528776102442" lon="8.908009027448784"><ele>86.66666666666667</ele><time>2026-03-29T14:53:26Z</time></trkpt><trkpt lat="45.353000670991456" lon="8.90804038456327"><ele>87.0</ele><time>2026-03-29T14:53:28Z</time></trkpt><trkpt lat="45.35306550371758" lon="8.908049197035094"><ele>87.0</ele><time>2026-03-29T14:53:30Z</time></trkpt><trkpt lat="45.353080768155905" lon="8.907942522288106"><ele>87.0</ele><time>2026-03-29T14:53:39Z</time></trkpt><trkpt lat="45.35305668729033" lon="8.908031792011572"><ele>87.0</ele><time>2026-03-29T14:53:40Z</time></trkpt><trkpt lat="45.353070396073136" lon="8.907846625558339"><ele>87.0</ele><time>2026-03-29T14:53:41Z</time></trkpt><trkpt lat="45.35303531759985" lon="8.907724124888983"><ele>87.0</ele><time>2026-03-29T14:53:48Z</time></trkpt><trkpt lat="45.352909509610534" lon="8.907638107590316"><ele>87.0</ele><time>2026-03-29T14:53:49Z</time></trkpt><trkpt lat="45.3527923831682" lon="8.90753837210063"><ele>87.0</ele><time>2026-03-29T14:53:50Z</time></trkpt><trkpt lat="45.352676999413376" lon="8.90741413628831"><ele>87.0</ele><time>2026-03-29T14:53:51Z</time></trkpt><trkpt lat="45.352581405019066" lon="8.907309400363546"><ele>87.0</ele><time>2026-03-29T14:53:52Z</time></trkpt><trkpt lat="45.35249395461046" lon="8.907203206821318"><ele>87.0</ele><time>2026-03-29T14:53:53Z</time></trkpt><trkpt lat="45.35241529773761" lon="8.907097690739418"><ele>87.0</ele><time>2026-03-29T14:53:54Z</time></trkpt><trkpt lat="45.35234774379968" lon="8.90699431176946"><ele>87.0</ele><time>2026-03-29T14:53:55Z</time></trkpt><trkpt lat="45.352288685205444" lon="8.906898248860676"><ele>87.0</ele><time>2026-03-29T14:53:56Z</time></trkpt><trkpt lat="45.35223560618731" lon="8.906806901764998"><ele>87.0</ele><time>2026-03-29T14:53:57Z</time></trkpt><trkpt lat="45.35218150107624" lon="8.90671175941112"><ele>86.8</ele><time>2026-03-29T14:53:58Z</time></trkpt><trkpt lat="45.35212546011675" lon="8.90660948973524"><ele>86.6</ele><time>2026-03-29T14:53:59Z</time></trkpt><trkpt lat="45.352072023585265" lon="8.906507438503782"><ele>86.39999999999999</ele><time>2026-03-29T14:54:00Z</time></trkpt><trkpt lat="45.352019272532246" lon="8.906396546664789"><ele>86.19999999999999</ele><time>2026-03-29T14:54:01Z</time></trkpt><trkpt lat="45.351969530850845" lon="8.906289249010834"><ele>86.0</ele><time>2026-03-29T14:54:02Z</time></trkpt><trkpt lat="45.35192322660689" lon="8.906173750890293"><ele>86.0</ele><time>2026-03-29T14:54:03Z</time></trkpt><trkpt lat="45.35187815930584" lon="8.906048859386022"><ele>86.0</ele><time>2026-03-29T14:54:04Z</time></trkpt><trkpt lat="45.351835202918316" lon="8.905911154189225"><ele>86.0</ele><time>2026-03-29T14:54:05Z</time></trkpt><trkpt lat="45.35178818443701" lon="8.905754840518565"><ele>86.0</ele><time>2026-03-29T14:54:06Z</time></trkpt><trkpt lat="45.351739560729165" lon="8.905580599975481"><ele>86.0</ele><time>2026-03-29T14:54:07Z</time></trkpt><trkpt lat="45.35168871085624" lon="8.905392826130399"><ele>86.0</ele><time>2026-03-29T14:54:08Z</time></trkpt><trkpt lat="45.35164253208821" lon="8.905200532338426"><ele>86.0</ele><time>2026-03-29T14:54:09Z</time></trkpt><trkpt lat="45.35159216394153" lon="8.905030103198248"><ele>86.0</ele><time>2026-03-29T14:54:10Z</time></trkpt><trkpt lat="45.35154344679767" lon="8.9048523828259"><ele>86.0</ele><time>2026-03-29T14:54:11Z</time></trkpt><trkpt lat="45.35149695775014" lon="8.904676682454157"><ele>86.0</ele><time>2026-03-29T14:54:12Z</time></trkpt><trkpt lat="45.35144873375151" lon="8.904498421724444"><ele>86.0</ele><time>2026-03-29T14:54:13Z</time></trkpt><trkpt lat="45.351400047321484" lon="8.904326859711224"><ele>86.0</ele><time>2026-03-29T14:54:14Z</time></trkpt><trkpt lat="45.3513535023422" lon="8.90415240982619"><ele>86.0</ele><time>2026-03-29T14:54:15Z</time></trkpt><trkpt lat="45.351307196786884" lon="8.90397659225714"><ele>86.0</ele><time>2026-03-29T14:54:16Z</time></trkpt><trkpt lat="45.35126249653868" lon="8.903796843610875"><ele>86.0</ele><time>2026-03-29T14:54:17Z</time></trkpt><trkpt lat="45.351211160107646" lon="8.903611036381886"><ele>86.0</ele><time>2026-03-29T14:54:18Z</time></trkpt><trkpt lat="45.351168193098104" lon="8.903419609431179"><ele>86.0</ele><time>2026-03-29T14:54:19Z</time></trkpt><trkpt lat="45.351127921964476" lon="8.903223642474778"><ele>86.0</ele><time>2026-03-29T14:54:20Z</time></trkpt><trkpt lat="45.35109133507049" lon="8.903025927878469"><ele>86.0</ele><time>2026-03-29T14:54:21Z</time></trkpt><trkpt lat="45.351052668650446" lon="8.902816829869"><ele>86.0</ele><time>2026-03-29T14:54:22Z</time></trkpt><trkpt lat="45.35096170747069" lon="8.90267010342491"><ele>85.66666666666667</ele><time>2026-03-29T14:54:23Z</time></trkpt><trkpt lat="45.35090924166829" lon="8.902464492568718"><ele>85.33333333333333</ele><time>2026-03-29T14:54:24Z</time></trkpt><trkpt lat="45.35085224828388" lon="8.902249343568833"><ele>85.0</ele><time>2026-03-29T14:54:25Z</time></trkpt><trkpt lat="45.35079801616333" lon="8.902040035249389"><ele>85.0</ele><time>2026-03-29T14:54:26Z</time></trkpt><trkpt lat="45.35074648602299" lon="8.901843251178748"><ele>85.0</ele><time>2026-03-29T14:54:27Z</time></trkpt><trkpt lat="45.35064338242043" lon="8.901461812791926"><ele>85.0</ele><time>2026-03-29T14:54:29Z</time></trkpt><trkpt lat="45.3505911656667" lon="8.901272637820993"><ele>85.0</ele><time>2026-03-29T14:54:30Z</time></trkpt><trkpt lat="45.3505442493332" lon="8.901091709378004"><ele>85.0</ele><time>2026-03-29T14:54:31Z</time></trkpt><trkpt lat="45.35049654070095" lon="8.90091164814365"><ele>85.0</ele><time>2026-03-29T14:54:32Z</time></trkpt><trkpt lat="45.350449235618356" lon="8.9007316864761"><ele>85.0</ele><time>2026-03-29T14:54:33Z</time></trkpt><trkpt lat="45.350402424363736" lon="8.900550583720904"><ele>84.75</ele><time>2026-03-29T14:54:34Z</time></trkpt><trkpt lat="45.35035577633336" lon="8.900369150386055"><ele>84.5</ele><time>2026-03-29T14:54:35Z</time></trkpt><trkpt lat="45.350305665328065" lon="8.900186413235186"><ele>84.25</ele><time>2026-03-29T14:54:36Z</time></trkpt><trkpt lat="45.3502561852348" lon="8.900005674263374"><ele>84.0</ele><time>2026-03-29T14:54:37Z</time></trkpt><trkpt lat="45.35020384407378" lon="8.899819038027518"><ele>84.0</ele><time>2026-03-29T14:54:38Z</time></trkpt><trkpt lat="45.350154358266074" lon="8.899635568919663"><ele>84.0</ele><time>2026-03-29T14:54:39Z</time></trkpt><trkpt lat="45.350106663222505" lon="8.899453036597347"><ele>84.0</ele><time>2026-03-29T14:54:40Z</time></trkpt><trkpt lat="45.35005806033951" lon="8.899270357312236"><ele>84.0</ele><time>2026-03-29T14:54:41Z</time></trkpt><trkpt lat="45.35000900957368" lon="8.899092999722109"><ele>84.25</ele><time>2026-03-29T14:54:42Z</time></trkpt><trkpt lat="45.34995749596666" lon="8.898908556903002"><ele>84.5</ele><time>2026-03-29T14:54:43Z</time></trkpt><trkpt lat="45.34991036018377" lon="8.898723028433954"><ele>84.75</ele><time>2026-03-29T14:54:44Z</time></trkpt><trkpt lat="45.34986458404614" lon="8.898543715590025"><ele>85.0</ele><time>2026-03-29T14:54:45Z</time></trkpt><trkpt lat="45.349813255139054" lon="8.898358916416084"><ele>84.5</ele><time>2026-03-29T14:54:46Z</time></trkpt><trkpt lat="45.34976164489282" lon="8.898175329152279"><ele>84.0</ele><time>2026-03-29T14:54:47Z</time></trkpt><trkpt lat="45.349710601219584" lon="8.897989968929647"><ele>83.5</ele><time>2026-03-29T14:54:48Z</time></trkpt><trkpt lat="45.34966069487244" lon="8.897807044021063"><ele>83.0</ele><time>2026-03-29T14:54:49Z</time></trkpt><trkpt lat="45.34961085489546" lon="8.897618385103932"><ele>83.75</ele><time>2026-03-29T14:54:50Z</time></trkpt><trkpt lat="45.34955742754612" lon="8.897422675831288"><ele>84.5</ele><time>2026-03-29T14:54:51Z</time></trkpt><trkpt lat="45.3495086208316" lon="8.897232388275613"><ele>85.25</ele><time>2026-03-29T14:54:52Z</time></trkpt><trkpt lat="45.34945548998097" lon="8.897040187804832"><ele>86.0</ele><time>2026-03-29T14:54:53Z</time></trkpt><trkpt lat="45.34940737549336" lon="8.89685323504655"><ele>86.0</ele><time>2026-03-29T14:54:54Z</time></trkpt><trkpt lat="45.349359775942936" lon="8.8966767943034"><ele>86.0</ele><time>2026-03-29T14:54:55Z</time></trkpt><trkpt lat="45.349315104816405" lon="8.896511843886758"><ele>86.0</ele><time>2026-03-29T14:54:56Z</time></trkpt><trkpt lat="45.34926917672633" lon="8.89633827072543"><ele>86.0</ele><time>2026-03-29T14:54:57Z</time></trkpt><trkpt lat="45.34922180440077" lon="8.896163616695953"><ele>86.0</ele><time>2026-03-29T14:54:58Z</time></trkpt><trkpt lat="45.34917561050698" lon="8.89599122688979"><ele>86.0</ele><time>2026-03-29T14:54:59Z</time></trkpt><trkpt lat="45.34913253181865" lon="8.895819482766973"><ele>86.0</ele><time>2026-03-29T14:55:00Z</time></trkpt><trkpt lat="45.34908568711174" lon="8.89564331355408"><ele>86.0</ele><time>2026-03-29T14:55:01Z</time></trkpt><trkpt lat="45.349038004354945" lon="8.895470539835774"><ele>86.25</ele><time>2026-03-29T14:55:02Z</time></trkpt><trkpt lat="45.34899160043236" lon="8.895300359810905"><ele>86.5</ele><time>2026-03-29T14:55:03Z</time></trkpt><trkpt lat="45.348946751822744" lon="8.895128741852275"><ele>86.75</ele><time>2026-03-29T14:55:04Z</time></trkpt><trkpt lat="45.34890195884611" lon="8.894955420024651"><ele>87.0</ele><time>2026-03-29T14:55:05Z</time></trkpt><trkpt lat="45.34885475119263" lon="8.894777868463375"><ele>86.5</ele><time>2026-03-29T14:55:06Z</time></trkpt><trkpt lat="45.34880964599555" lon="8.894608239205814"><ele>86.0</ele><time>2026-03-29T14:55:07Z</time></trkpt><trkpt lat="45.348761256261234" lon="8.894430891439956"><ele>85.5</ele><time>2026-03-29T14:55:08Z</time></trkpt><trkpt lat="45.34871434675193" lon="8.894255809795284"><ele>85.0</ele><time>2026-03-29T14:55:09Z</time></trkpt><trkpt lat="45.34866432600489" lon="8.894076536474484"><ele>85.0</ele><time>2026-03-29T14:55:10Z</time></trkpt><trkpt lat="45.34861891259924" lon="8.893907348712093"><ele>85.0</ele><time>2026-03-29T14:55:11Z</time></trkpt><trkpt lat="45.34857299471425" lon="8.893732237778993"><ele>85.0</ele><time>2026-03-29T14:55:12Z</time></trkpt><trkpt lat="45.3485254530081" lon="8.893551248458792"><ele>85.0</ele><time>2026-03-29T14:55:13Z</time></trkpt><trkpt lat="45.34847817246358" lon="8.893372297773338"><ele>85.5</ele><time>2026-03-29T14:55:14Z</time></trkpt><trkpt lat="45.348431567886465" lon="8.893192630534898"><ele>86.0</ele><time>2026-03-29T14:55:15Z</time></trkpt><trkpt lat="45.34838173460072" lon="8.893011079838534"><ele>86.5</ele><time>2026-03-29T14:55:16Z</time></trkpt><trkpt lat="45.348331230682184" lon="8.892829605217615"><ele>87.0</ele><time>2026-03-29T14:55:17Z</time></trkpt><trkpt lat="45.348279283941565" lon="8.892645260943874"><ele>87.25</ele><time>2026-03-29T14:55:18Z</time></trkpt><trkpt lat="45.34822599144687" lon="8.892460726758246"><ele>87.5</ele><time>2026-03-29T14:55:19Z</time></trkpt><trkpt lat="45.34816106502386" lon="8.89227558746731"><ele>87.75</ele><time>2026-03-29T14:55:20Z</time></trkpt><trkpt lat="45.34808364078651" lon="8.892090577069858"><ele>88.0</ele><time>2026-03-29T14:55:21Z</time></trkpt><trkpt lat="45.34798014530635" lon="8.8919084449416"><ele>87.66666666666666</ele><time>2026-03-29T14:55:21.999Z</time></trkpt><trkpt lat="45.347859947488374" lon="8.891742973880998"><ele>87.33333333333333</ele><time>2026-03-29T14:55:22.999Z</time></trkpt><trkpt lat="45.3477355156091" lon="8.891584091485768"><ele>87.0</ele><time>2026-03-29T14:55:23.999Z</time></trkpt><trkpt lat="45.34761304269643" lon="8.891442385237756"><ele>87.0</ele><time>2026-03-29T14:55:25Z</time></trkpt><trkpt lat="45.347509051542865" lon="8.891307777939543"><ele>87.0</ele><time>2026-03-29T14:55:26Z</time></trkpt><trkpt lat="45.3474136936672" lon="8.891188709990297"><ele>87.0</ele><time>2026-03-29T14:55:27Z</time></trkpt><trkpt lat="45.34732107222533" lon="8.891076664087462"><ele>87.0</ele><time>2026-03-29T14:55:28Z</time></trkpt><trkpt lat="45.347237886030726" lon="8.890970774370265"><ele>87.5</ele><time>2026-03-29T14:55:29Z</time></trkpt><trkpt lat="45.347158020397885" lon="8.890868255016308"><ele>88.0</ele><time>2026-03-29T14:55:30Z</time></trkpt><trkpt lat="45.34709227114249" lon="8.890776483686308"><ele>88.5</ele><time>2026-03-29T14:55:31Z</time></trkpt><trkpt lat="45.34704267485997" lon="8.890704434449175"><ele>89.0</ele><time>2026-03-29T14:55:32Z</time></trkpt><trkpt lat="45.34697988660129" lon="8.890611081128055"><ele>89.5</ele><time>2026-03-29T14:55:34Z</time></trkpt><trkpt lat="45.346926272980106" lon="8.890537200718194"><ele>90.0</ele><time>2026-03-29T14:55:37Z</time></trkpt><trkpt lat="45.346817335332354" lon="8.890408985810547"><ele>90.0</ele><time>2026-03-29T14:56:03Z</time></trkpt><trkpt lat="45.34674156572627" lon="8.89033258958429"><ele>90.0</ele><time>2026-03-29T14:56:04Z</time></trkpt><trkpt lat="45.346649866406764" lon="8.890230763230338"><ele>90.0</ele><time>2026-03-29T14:56:05Z</time></trkpt><trkpt lat="45.34655759996035" lon="8.890123152864213"><ele>90.0</ele><time>2026-03-29T14:56:06Z</time></trkpt><trkpt lat="45.34644757635654" lon="8.890007262377019"><ele>89.66666666666667</ele><time>2026-03-29T14:56:07Z</time></trkpt><trkpt lat="45.34632929101456" lon="8.889827373462039"><ele>89.33333333333334</ele><time>2026-03-29T14:56:08Z</time></trkpt><trkpt lat="45.346207140580596" lon="8.889669132651754"><ele>89.0</ele><time>2026-03-29T14:56:09Z</time></trkpt><trkpt lat="45.346053285200334" lon="8.889465709550025"><ele>89.0</ele><time>2026-03-29T14:56:10Z</time></trkpt><trkpt lat="45.345895308025874" lon="8.889266143479018"><ele>89.0</ele><time>2026-03-29T14:56:11Z</time></trkpt><trkpt lat="45.34577118198836" lon="8.889086950609444"><ele>89.0</ele><time>2026-03-29T14:56:12Z</time></trkpt><trkpt lat="45.345651693488904" lon="8.888933750609409"><ele>89.0</ele><time>2026-03-29T14:56:13Z</time></trkpt><trkpt lat="45.345520488746956" lon="8.888762893224785"><ele>89.0</ele><time>2026-03-29T14:56:14Z</time></trkpt><trkpt lat="45.34539201271334" lon="8.888593320587482"><ele>89.0</ele><time>2026-03-29T14:56:15Z</time></trkpt><trkpt lat="45.34525651222307" lon="8.888421721022095"><ele>89.0</ele><time>2026-03-29T14:56:16Z</time></trkpt><trkpt lat="45.34511164144956" lon="8.888245200179112"><ele>89.0</ele><time>2026-03-29T14:56:17Z</time></trkpt><trkpt lat="45.344982657443865" lon="8.888073450506093"><ele>89.0</ele><time>2026-03-29T14:56:18Z</time></trkpt><trkpt lat="45.34486490289097" lon="8.88791722717031"><ele>89.0</ele><time>2026-03-29T14:56:19Z</time></trkpt><trkpt lat="45.34473860795508" lon="8.887751996487232"><ele>89.0</ele><time>2026-03-29T14:56:20Z</time></trkpt><trkpt lat="45.344622814981335" lon="8.88760310060798"><ele>89.0</ele><time>2026-03-29T14:56:21Z</time></trkpt><trkpt lat="45.34451686039469" lon="8.887465014931148"><ele>89.33333333333334</ele><time>2026-03-29T14:56:22Z</time></trkpt><trkpt lat="45.34440812501785" lon="8.887328292552072"><ele>89.66666666666667</ele><time>2026-03-29T14:56:23Z</time></trkpt><trkpt lat="45.34429080603621" lon="8.887172700424138"><ele>90.0</ele><time>2026-03-29T14:56:24Z</time></trkpt><trkpt lat="45.34418073260021" lon="8.88702834509397"><ele>90.0</ele><time>2026-03-29T14:56:25Z</time></trkpt><trkpt lat="45.344083348328" lon="8.886891641112921"><ele>90.0</ele><time>2026-03-29T14:56:26Z</time></trkpt><trkpt lat="45.34399453814915" lon="8.88671625450772"><ele>90.0</ele><time>2026-03-29T14:56:27Z</time></trkpt><trkpt lat="45.34392182412124" lon="8.88652740063275"><ele>90.0</ele><time>2026-03-29T14:56:28Z</time></trkpt><trkpt lat="45.34385858710114" lon="8.886328618008406"><ele>89.0</ele><time>2026-03-29T14:56:29Z</time></trkpt><trkpt lat="45.34380377130422" lon="8.886112368161085"><ele>88.0</ele><time>2026-03-29T14:56:30Z</time></trkpt><trkpt lat="45.343766428418164" lon="8.885928215778595"><ele>87.0</ele><time>2026-03-29T14:56:31Z</time></trkpt><trkpt lat="45.34372132312105" lon="8.885743355724909"><ele>86.0</ele><time>2026-03-29T14:56:32Z</time></trkpt><trkpt lat="45.34371168992112" lon="8.885548947628134"><ele>85.75</ele><time>2026-03-29T14:56:33Z</time></trkpt><trkpt lat="45.34367743980082" lon="8.885374647502866"><ele>85.5</ele><time>2026-03-29T14:56:34Z</time></trkpt><trkpt lat="45.343661368312944" lon="8.885207229753515"><ele>85.25</ele><time>2026-03-29T14:56:35Z</time></trkpt><trkpt lat="45.34364360634035" lon="8.885036589444358"><ele>85.0</ele><time>2026-03-29T14:56:36Z</time></trkpt><trkpt lat="45.34362475190073" lon="8.884866672352983"><ele>85.0</ele><time>2026-03-29T14:56:37Z</time></trkpt><trkpt lat="45.343602589369844" lon="8.884689678243166"><ele>85.0</ele><time>2026-03-29T14:56:38Z</time></trkpt><trkpt lat="45.343582713382744" lon="8.884517021668389"><ele>85.0</ele><time>2026-03-29T14:56:39Z</time></trkpt><trkpt lat="45.343563221011934" lon="8.884343132407881"><ele>85.0</ele><time>2026-03-29T14:56:40Z</time></trkpt><trkpt lat="45.3435435853655" lon="8.884163113195994"><ele>85.25</ele><time>2026-03-29T14:56:41Z</time></trkpt><trkpt lat="45.34352119106962" lon="8.883978348544415"><ele>85.5</ele><time>2026-03-29T14:56:42Z</time></trkpt><trkpt lat="45.34349705470298" lon="8.883779051999149"><ele>85.75</ele><time>2026-03-29T14:56:43Z</time></trkpt><trkpt lat="45.34347208897195" lon="8.883562906347743"><ele>86.0</ele><time>2026-03-29T14:56:44Z</time></trkpt><trkpt lat="45.34344615148354" lon="8.883344514181056"><ele>86.0</ele><time>2026-03-29T14:56:45Z</time></trkpt><trkpt lat="45.343425432934744" lon="8.883144250506016"><ele>86.0</ele><time>2026-03-29T14:56:46Z</time></trkpt><trkpt lat="45.34339855251323" lon="8.882919565802833"><ele>86.0</ele><time>2026-03-29T14:56:47Z</time></trkpt><trkpt lat="45.343374425443606" lon="8.882694771917658"><ele>85.75</ele><time>2026-03-29T14:56:48Z</time></trkpt><trkpt lat="45.343352994397314" lon="8.882493423476378"><ele>85.5</ele><time>2026-03-29T14:56:49Z</time></trkpt><trkpt lat="45.343328213497" lon="8.88229734489906"><ele>85.25</ele><time>2026-03-29T14:56:50Z</time></trkpt><trkpt lat="45.343296657877445" lon="8.882086998537009"><ele>85.0</ele><time>2026-03-29T14:56:51Z</time></trkpt><trkpt lat="45.34325776580098" lon="8.881891801191516"><ele>85.25</ele><time>2026-03-29T14:56:52Z</time></trkpt><trkpt lat="45.343200354725816" lon="8.881706558433564"><ele>85.5</ele><time>2026-03-29T14:56:53Z</time></trkpt><trkpt lat="45.34313446779884" lon="8.881527095753777"><ele>85.75</ele><time>2026-03-29T14:56:54Z</time></trkpt><trkpt lat="45.34305314324712" lon="8.881353890062988"><ele>86.0</ele><time>2026-03-29T14:56:55Z</time></trkpt><trkpt lat="45.34297310347691" lon="8.881186361175203"><ele>86.0</ele><time>2026-03-29T14:56:56Z</time></trkpt><trkpt lat="45.34288074238627" lon="8.88103664781296"><ele>86.0</ele><time>2026-03-29T14:56:57Z</time></trkpt><trkpt lat="45.34278071755115" lon="8.88089971282607"><ele>86.0</ele><time>2026-03-29T14:56:58Z</time></trkpt><trkpt lat="45.34267042775047" lon="8.880772702978996"><ele>86.0</ele><time>2026-03-29T14:56:59Z</time></trkpt><trkpt lat="45.34256413605078" lon="8.880664952102721"><ele>85.75</ele><time>2026-03-29T14:57:00Z</time></trkpt><trkpt lat="45.342462663497706" lon="8.88057529029259"><ele>85.5</ele><time>2026-03-29T14:57:01Z</time></trkpt><trkpt lat="45.342362035845795" lon="8.88049014101375"><ele>85.25</ele><time>2026-03-29T14:57:02Z</time></trkpt><trkpt lat="45.34226045520509" lon="8.880397167548129"><ele>85.0</ele><time>2026-03-29T14:57:03Z</time></trkpt><trkpt lat="45.34214975057165" lon="8.880292459791645"><ele>84.0</ele><time>2026-03-29T14:57:04Z</time></trkpt><trkpt lat="45.342050044412176" lon="8.88019888657495"><ele>83.0</ele><time>2026-03-29T14:57:05Z</time></trkpt><trkpt lat="45.34194894771935" lon="8.88010689061692"><ele>82.0</ele><time>2026-03-29T14:57:06Z</time></trkpt><trkpt lat="45.341851773063794" lon="8.880013702858955"><ele>81.0</ele><time>2026-03-29T14:57:07Z</time></trkpt><trkpt lat="45.341746815903" lon="8.879915063504136"><ele>80.75</ele><time>2026-03-29T14:57:08Z</time></trkpt><trkpt lat="45.341636742848486" lon="8.879813737752434"><ele>80.5</ele><time>2026-03-29T14:57:09Z</time></trkpt><trkpt lat="45.34152883234921" lon="8.879715005296836"><ele>80.25</ele><time>2026-03-29T14:57:10Z</time></trkpt><trkpt lat="45.34141823968237" lon="8.879613499373944"><ele>80.0</ele><time>2026-03-29T14:57:11Z</time></trkpt><trkpt lat="45.34131516751445" lon="8.879489429137957"><ele>80.75</ele><time>2026-03-29T14:57:12Z</time></trkpt><trkpt lat="45.34120217579826" lon="8.879383691560333"><ele>81.5</ele><time>2026-03-29T14:57:13Z</time></trkpt><trkpt lat="45.341093817839344" lon="8.879282290375885"><ele>82.25</ele><time>2026-03-29T14:57:14Z</time></trkpt><trkpt lat="45.34098866939738" lon="8.879181373732635"><ele>83.0</ele><time>2026-03-29T14:57:15Z</time></trkpt><trkpt lat="45.34088254095877" lon="8.87908309358293"><ele>83.0</ele><time>2026-03-29T14:57:16Z</time></trkpt><trkpt lat="45.34078518249319" lon="8.878995071584754"><ele>83.0</ele><time>2026-03-29T14:57:17Z</time></trkpt><trkpt lat="45.34069195447807" lon="8.878910783868994"><ele>83.0</ele><time>2026-03-29T14:57:18Z</time></trkpt><trkpt lat="45.340604659468625" lon="8.878831860314067"><ele>83.0</ele><time>2026-03-29T14:57:19Z</time></trkpt><trkpt lat="45.34050976048654" lon="8.878748849260067"><ele>83.0</ele><time>2026-03-29T14:57:20Z</time></trkpt><trkpt lat="45.340409021655084" lon="8.878662465012749"><ele>83.75</ele><time>2026-03-29T14:57:21Z</time></trkpt><trkpt lat="45.34030229829941" lon="8.878574556335323"><ele>84.5</ele><time>2026-03-29T14:57:22Z</time></trkpt><trkpt lat="45.340197903968004" lon="8.87848858052129"><ele>85.25</ele><time>2026-03-29T14:57:23Z</time></trkpt><trkpt lat="45.340098966682255" lon="8.878407211668812"><ele>86.0</ele><time>2026-03-29T14:57:24Z</time></trkpt><trkpt lat="45.34000473563353" lon="8.878329713323797"><ele>86.0</ele><time>2026-03-29T14:57:25Z</time></trkpt><trkpt lat="45.33991220028217" lon="8.878253609681785"><ele>86.0</ele><time>2026-03-29T14:57:26Z</time></trkpt><trkpt lat="45.339821343747445" lon="8.878178886647104"><ele>86.0</ele><time>2026-03-29T14:57:27Z</time></trkpt><trkpt lat="45.33972686269755" lon="8.878128442896909"><ele>86.0</ele><time>2026-03-29T14:57:28Z</time></trkpt><trkpt lat="45.33963507718556" lon="8.878052286564131"><ele>86.0</ele><time>2026-03-29T14:57:29Z</time></trkpt><trkpt lat="45.3395647314869" lon="8.877968293536586"><ele>85.83333333333334</ele><time>2026-03-29T14:57:30Z</time></trkpt><trkpt lat="45.33949825232903" lon="8.877914577817874"><ele>85.66666666666667</ele><time>2026-03-29T14:57:31Z</time></trkpt><trkpt lat="45.33940262868402" lon="8.87786368270622"><ele>85.5</ele><time>2026-03-29T14:57:33Z</time></trkpt><trkpt lat="45.339356715741694" lon="8.877800214908236"><ele>85.33333333333333</ele><time>2026-03-29T14:57:37Z</time></trkpt><trkpt lat="45.33928514652601" lon="8.877768612050998"><ele>85.16666666666666</ele><time>2026-03-29T14:57:41Z</time></trkpt><trkpt lat="45.33920820655319" lon="8.877705906160484"><ele>85.0</ele><time>2026-03-29T14:57:43Z</time></trkpt><trkpt lat="45.33910666769825" lon="8.877617524174003"><ele>85.0</ele><time>2026-03-29T14:57:45Z</time></trkpt><trkpt lat="45.33903951789969" lon="8.877561120846597"><ele>85.0</ele><time>2026-03-29T14:57:46Z</time></trkpt><trkpt lat="45.338961917633995" lon="8.877494780576468"><ele>85.0</ele><time>2026-03-29T14:57:47Z</time></trkpt><trkpt lat="45.338877841037764" lon="8.87742710857034"><ele>85.0</ele><time>2026-03-29T14:57:48Z</time></trkpt><trkpt lat="45.33879330350238" lon="8.877358838512837"><ele>85.0</ele><time>2026-03-29T14:57:49Z</time></trkpt><trkpt lat="45.33870366948868" lon="8.877283177562214"><ele>85.4</ele><time>2026-03-29T14:57:50Z</time></trkpt><trkpt lat="45.33860825831758" lon="8.877206972482586"><ele>85.8</ele><time>2026-03-29T14:57:51Z</time></trkpt><trkpt lat="45.33852551183599" lon="8.8771400364456"><ele>86.19999999999999</ele><time>2026-03-29T14:57:52Z</time></trkpt><trkpt lat="45.33843260906923" lon="8.877070124749151"><ele>86.6</ele><time>2026-03-29T14:57:53Z</time></trkpt><trkpt lat="45.33834013007525" lon="8.87700825308793"><ele>87.0</ele><time>2026-03-29T14:57:54Z</time></trkpt><trkpt lat="45.33823540188877" lon="8.876952150724286"><ele>87.0</ele><time>2026-03-29T14:57:55Z</time></trkpt><trkpt lat="45.33811481489134" lon="8.876908797430703"><ele>87.0</ele><time>2026-03-29T14:57:56Z</time></trkpt><trkpt lat="45.33798164069176" lon="8.876878543214268"><ele>87.0</ele><time>2026-03-29T14:57:57Z</time></trkpt><trkpt lat="45.33786117354074" lon="8.876871729970349"><ele>87.0</ele><time>2026-03-29T14:57:58Z</time></trkpt><trkpt lat="45.337747708194634" lon="8.876880206719262"><ele>87.0</ele><time>2026-03-29T14:57:59Z</time></trkpt><trkpt lat="45.33764375634665" lon="8.876894537910955"><ele>87.0</ele><time>2026-03-29T14:58:00Z</time></trkpt><trkpt lat="45.33754835026818" lon="8.876915901459427"><ele>87.0</ele><time>2026-03-29T14:58:01Z</time></trkpt><trkpt lat="45.33745717363733" lon="8.876942719114824"><ele>87.0</ele><time>2026-03-29T14:58:02Z</time></trkpt><trkpt lat="45.337361578858726" lon="8.876974901270481"><ele>87.0</ele><time>2026-03-29T14:58:03Z</time></trkpt><trkpt lat="45.337266304418286" lon="8.877009609099058"><ele>87.19999999999999</ele><time>2026-03-29T14:58:04Z</time></trkpt><trkpt lat="45.33716514000459" lon="8.877047788720102"><ele>87.4</ele><time>2026-03-29T14:58:05Z</time></trkpt><trkpt lat="45.33705289505724" lon="8.877074677032214"><ele>87.6</ele><time>2026-03-29T14:58:06Z</time></trkpt><trkpt lat="45.336954341394346" lon="8.877108718711229"><ele>87.80000000000001</ele><time>2026-03-29T14:58:07Z</time></trkpt><trkpt lat="45.336856891044924" lon="8.877164848873738"><ele>88.0</ele><time>2026-03-29T14:58:08Z</time></trkpt><trkpt lat="45.336762329866325" lon="8.877174293543947"><ele>88.0</ele><time>2026-03-29T14:58:09Z</time></trkpt><trkpt lat="45.33667210668766" lon="8.877204859984715"><ele>88.0</ele><time>2026-03-29T14:58:10Z</time></trkpt><trkpt lat="45.336576269735566" lon="8.87723856090578"><ele>88.0</ele><time>2026-03-29T14:58:11Z</time></trkpt><trkpt lat="45.336477729234964" lon="8.877287539369684"><ele>88.0</ele><time>2026-03-29T14:58:12Z</time></trkpt><trkpt lat="45.33639080933493" lon="8.877310624775463"><ele>88.0</ele><time>2026-03-29T14:58:13Z</time></trkpt><trkpt lat="45.336312624694834" lon="8.87731371130361"><ele>87.83333333333333</ele><time>2026-03-29T14:58:14Z</time></trkpt><trkpt lat="45.336235339714214" lon="8.877300853018255"><ele>87.66666666666666</ele><time>2026-03-29T14:58:15Z</time></trkpt><trkpt lat="45.336146523439844" lon="8.877247318327017"><ele>87.5</ele><time>2026-03-29T14:58:16Z</time></trkpt><trkpt lat="45.33607794260242" lon="8.877186973468458"><ele>87.33333333333333</ele><time>2026-03-29T14:58:17Z</time></trkpt><trkpt lat="45.33599574691996" lon="8.87716619766964"><ele>87.16666666666667</ele><time>2026-03-29T14:58:18Z</time></trkpt><trkpt lat="45.335910015500126" lon="8.877205219640922"><ele>87.0</ele><time>2026-03-29T14:58:19Z</time></trkpt><trkpt lat="45.335831781659685" lon="8.877304258826872"><ele>87.0</ele><time>2026-03-29T14:58:20Z</time></trkpt><trkpt lat="45.33575103993078" lon="8.877424868038839"><ele>87.0</ele><time>2026-03-29T14:58:21Z</time></trkpt><trkpt lat="45.335649907848676" lon="8.877542402049809"><ele>87.0</ele><time>2026-03-29T14:58:22Z</time></trkpt><trkpt lat="45.335523057447915" lon="8.877621241484437"><ele>87.0</ele><time>2026-03-29T14:58:23Z</time></trkpt><trkpt lat="45.335384847071815" lon="8.87768714854732"><ele>86.75</ele><time>2026-03-29T14:58:24Z</time></trkpt><trkpt lat="45.33526189997229" lon="8.877747716130452"><ele>86.5</ele><time>2026-03-29T14:58:25Z</time></trkpt><trkpt lat="45.335150937994335" lon="8.877810337833097"><ele>86.25</ele><time>2026-03-29T14:58:26Z</time></trkpt><trkpt lat="45.335045635161606" lon="8.877877223646578"><ele>86.0</ele><time>2026-03-29T14:58:27Z</time></trkpt><trkpt lat="45.33493785654701" lon="8.877949699510406"><ele>86.0</ele><time>2026-03-29T14:58:28Z</time></trkpt><trkpt lat="45.3348342722833" lon="8.87802335917663"><ele>86.0</ele><time>2026-03-29T14:58:29Z</time></trkpt><trkpt lat="45.334723959346555" lon="8.878099806656033"><ele>86.0</ele><time>2026-03-29T14:58:30Z</time></trkpt><trkpt lat="45.33460765692084" lon="8.878175808236303"><ele>86.0</ele><time>2026-03-29T14:58:31Z</time></trkpt><trkpt lat="45.334486371983374" lon="8.87825694779566"><ele>86.0</ele><time>2026-03-29T14:58:32Z</time></trkpt><trkpt lat="45.33436145508125" lon="8.878338038855372"><ele>86.0</ele><time>2026-03-29T14:58:33Z</time></trkpt><trkpt lat="45.334234311687986" lon="8.878421688651382"><ele>86.0</ele><time>2026-03-29T14:58:34Z</time></trkpt><trkpt lat="45.334113152339654" lon="8.878505666502242"><ele>86.0</ele><time>2026-03-29T14:58:35Z</time></trkpt><trkpt lat="45.333992083718684" lon="8.878595882305325"><ele>86.25</ele><time>2026-03-29T14:58:36Z</time></trkpt><trkpt lat="45.33387000087113" lon="8.878687080653638"><ele>86.5</ele><time>2026-03-29T14:58:37Z</time></trkpt><trkpt lat="45.33375538393656" lon="8.878775056731593"><ele>86.75</ele><time>2026-03-29T14:58:38Z</time></trkpt><trkpt lat="45.33364399269005" lon="8.87885742229202"><ele>87.0</ele><time>2026-03-29T14:58:39Z</time></trkpt><trkpt lat="45.333524968791274" lon="8.87894180240209"><ele>87.0</ele><time>2026-03-29T14:58:40Z</time></trkpt><trkpt lat="45.33340476227267" lon="8.879032703102864"><ele>87.0</ele><time>2026-03-29T14:58:41Z</time></trkpt><trkpt lat="45.33328708781465" lon="8.879122240286453"><ele>87.0</ele><time>2026-03-29T14:58:42Z</time></trkpt><trkpt lat="45.333178711703304" lon="8.87920435954184"><ele>87.0</ele><time>2026-03-29T14:58:43Z</time></trkpt><trkpt lat="45.333080458136074" lon="8.8792852245694"><ele>87.0</ele><time>2026-03-29T14:58:44Z</time></trkpt><trkpt lat="45.332980395845595" lon="8.879368762823855"><ele>87.0</ele><time>2026-03-29T14:58:45Z</time></trkpt><trkpt lat="45.33286924464564" lon="8.879459924646934"><ele>87.0</ele><time>2026-03-29T14:58:46Z</time></trkpt><trkpt lat="45.33276492324868" lon="8.879546868238258"><ele>87.0</ele><time>2026-03-29T14:58:47Z</time></trkpt><trkpt lat="45.332663166895074" lon="8.879632886973164"><ele>87.0</ele><time>2026-03-29T14:58:48Z</time></trkpt><trkpt lat="45.3325515266502" lon="8.87971900242613"><ele>87.0</ele><time>2026-03-29T14:58:49Z</time></trkpt><trkpt lat="45.33243707649422" lon="8.879801597397648"><ele>87.0</ele><time>2026-03-29T14:58:50Z</time></trkpt><trkpt lat="45.33232433125575" lon="8.879883838512951"><ele>87.0</ele><time>2026-03-29T14:58:51Z</time></trkpt><trkpt lat="45.33221404706759" lon="8.879965586768188"><ele>87.25</ele><time>2026-03-29T14:58:52Z</time></trkpt><trkpt lat="45.33210273114331" lon="8.880046898910924"><ele>87.5</ele><time>2026-03-29T14:58:53Z</time></trkpt><trkpt lat="45.331991196817086" lon="8.880119880423589"><ele>87.75</ele><time>2026-03-29T14:58:54Z</time></trkpt><trkpt lat="45.33187587549958" lon="8.880188687607404"><ele>88.0</ele><time>2026-03-29T14:58:55Z</time></trkpt><trkpt lat="45.33175120116816" lon="8.880249779864869"><ele>88.0</ele><time>2026-03-29T14:58:56Z</time></trkpt><trkpt lat="45.33161859951133" lon="8.880296905439785"><ele>88.0</ele><time>2026-03-29T14:58:57Z</time></trkpt><trkpt lat="45.331481380506574" lon="8.880331050425598"><ele>88.0</ele><time>2026-03-29T14:58:58Z</time></trkpt><trkpt lat="45.33134607956768" lon="8.880348834576983"><ele>88.0</ele><time>2026-03-29T14:58:59Z</time></trkpt><trkpt lat="45.33121400188017" lon="8.88035087043812"><ele>88.0</ele><time>2026-03-29T14:59:00Z</time></trkpt><trkpt lat="45.3310846704448" lon="8.880342255173646"><ele>88.0</ele><time>2026-03-29T14:59:01Z</time></trkpt><trkpt lat="45.33096232064618" lon="8.88032903953886"><ele>88.0</ele><time>2026-03-29T14:59:02Z</time></trkpt><trkpt lat="45.33084170589062" lon="8.880315283252276"><ele>88.0</ele><time>2026-03-29T14:59:03Z</time></trkpt><trkpt lat="45.33071970337437" lon="8.880302217502704"><ele>88.0</ele><time>2026-03-29T14:59:04Z</time></trkpt><trkpt lat="45.330593496210376" lon="8.880280854774712"><ele>88.0</ele><time>2026-03-29T14:59:05Z</time></trkpt><trkpt lat="45.33046299937564" lon="8.880262999088"><ele>88.0</ele><time>2026-03-29T14:59:06Z</time></trkpt><trkpt lat="45.33035414500415" lon="8.880251386554992"><ele>88.0</ele><time>2026-03-29T14:59:07Z</time></trkpt><trkpt lat="45.330258447554606" lon="8.880213331783844"><ele>88.0</ele><time>2026-03-29T14:59:08Z</time></trkpt><trkpt lat="45.33016977177529" lon="8.88019985043432"><ele>88.0</ele><time>2026-03-29T14:59:09Z</time></trkpt><trkpt lat="45.33010283828625" lon="8.880189389899337"><ele>88.0</ele><time>2026-03-29T14:59:10Z</time></trkpt><trkpt lat="45.330014647987916" lon="8.880192814835425"><ele>88.0</ele><time>2026-03-29T14:59:12Z</time></trkpt><trkpt lat="45.32991901955366" lon="8.880167938799877"><ele>88.0</ele><time>2026-03-29T14:59:14Z</time></trkpt><trkpt lat="45.32985113163075" lon="8.880135409730403"><ele>88.0</ele><time>2026-03-29T14:59:15Z</time></trkpt><trkpt lat="45.32977841032357" lon="8.880072652916459"><ele>88.66666666666666</ele><time>2026-03-29T14:59:16Z</time></trkpt><trkpt lat="45.32971127303629" lon="8.879997302957733"><ele>89.33333333333333</ele><time>2026-03-29T14:59:17Z</time></trkpt><trkpt lat="45.329648290568656" lon="8.879952491847432"><ele>90.0</ele><time>2026-03-29T14:59:18Z</time></trkpt><trkpt lat="45.329582812231" lon="8.879942298100397"><ele>90.66666666666667</ele><time>2026-03-29T14:59:19Z</time></trkpt><trkpt lat="45.32950952441766" lon="8.880045576511858"><ele>91.33333333333334</ele><time>2026-03-29T14:59:20Z</time></trkpt><trkpt lat="45.329416048368735" lon="8.880138988598066"><ele>92.0</ele><time>2026-03-29T14:59:21Z</time></trkpt><trkpt lat="45.329323317434685" lon="8.880191985927624"><ele>92.0</ele><time>2026-03-29T14:59:22Z</time></trkpt><trkpt lat="45.32920463841105" lon="8.880235361738261"><ele>92.0</ele><time>2026-03-29T14:59:23Z</time></trkpt><trkpt lat="45.32906644157351" lon="8.880268615010817"><ele>92.0</ele><time>2026-03-29T14:59:24Z</time></trkpt><trkpt lat="45.32889596426475" lon="8.880306308347953"><ele>92.0</ele><time>2026-03-29T14:59:25Z</time></trkpt><trkpt lat="45.328710854816144" lon="8.880341540206075"><ele>94.0</ele><time>2026-03-29T14:59:26Z</time></trkpt><trkpt lat="45.32850383493632" lon="8.880381443842232"><ele>96.0</ele><time>2026-03-29T14:59:27Z</time></trkpt><trkpt lat="45.328268771196356" lon="8.880428891064895"><ele>98.0</ele><time>2026-03-29T14:59:28Z</time></trkpt><trkpt lat="45.328053498804145" lon="8.880472120876867"><ele>98.66666666666666</ele><time>2026-03-29T14:59:29Z</time></trkpt><trkpt lat="45.32783856494548" lon="8.880520695529576"><ele>99.33333333333334</ele><time>2026-03-29T14:59:30Z</time></trkpt><trkpt lat="45.327636962696246" lon="8.880564928876375"><ele>100.0</ele><time>2026-03-29T14:59:31Z</time></trkpt><trkpt lat="45.327455205176356" lon="8.880606941395309"><ele>100.0</ele><time>2026-03-29T14:59:32Z</time></trkpt><trkpt lat="45.32728487723959" lon="8.880643364537885"><ele>100.0</ele><time>2026-03-29T14:59:33Z</time></trkpt><trkpt lat="45.327122212645776" lon="8.880678041681897"><ele>100.0</ele><time>2026-03-29T14:59:34Z</time></trkpt><trkpt lat="45.326966513571065" lon="8.880711447398154"><ele>100.33333333333334</ele><time>2026-03-29T14:59:35Z</time></trkpt><trkpt lat="45.32681579841829" lon="8.88074490210404"><ele>100.66666666666666</ele><time>2026-03-29T14:59:36Z</time></trkpt><trkpt lat="45.3266497644183" lon="8.880776077270546"><ele>101.0</ele><time>2026-03-29T14:59:37Z</time></trkpt><trkpt lat="45.326505405683946" lon="8.880801376403713"><ele>101.5</ele><time>2026-03-29T14:59:38Z</time></trkpt><trkpt lat="45.326371178496196" lon="8.880823070644484"><ele>102.0</ele><time>2026-03-29T14:59:39Z</time></trkpt><trkpt lat="45.32624002973563" lon="8.880849802423008"><ele>102.5</ele><time>2026-03-29T14:59:40Z</time></trkpt><trkpt lat="45.32612406795157" lon="8.880873906654033"><ele>103.0</ele><time>2026-03-29T14:59:41Z</time></trkpt><trkpt lat="45.326015817018025" lon="8.88089408759211"><ele>103.0</ele><time>2026-03-29T14:59:42Z</time></trkpt><trkpt lat="45.32591166424423" lon="8.880913026559421"><ele>103.0</ele><time>2026-03-29T14:59:43Z</time></trkpt><trkpt lat="45.32580276723545" lon="8.880929043165054"><ele>103.0</ele><time>2026-03-29T14:59:44Z</time></trkpt><trkpt lat="45.32570255101642" lon="8.880940024694418"><ele>103.0</ele><time>2026-03-29T14:59:45Z</time></trkpt><trkpt lat="45.32560708596302" lon="8.880949643729869"><ele>103.0</ele><time>2026-03-29T14:59:46Z</time></trkpt><trkpt lat="45.32551878884792" lon="8.880954266232465"><ele>102.83333333333334</ele><time>2026-03-29T14:59:47Z</time></trkpt><trkpt lat="45.32543078538923" lon="8.88095934307009"><ele>102.66666666666667</ele><time>2026-03-29T14:59:48Z</time></trkpt><trkpt lat="45.32533979306287" lon="8.880962570350171"><ele>102.5</ele><time>2026-03-29T14:59:49Z</time></trkpt><trkpt lat="45.325246533056394" lon="8.880967084192562"><ele>102.33333333333334</ele><time>2026-03-29T14:59:50Z</time></trkpt><trkpt lat="45.32515997537439" lon="8.880970729458973"><ele>102.16666666666667</ele><time>2026-03-29T14:59:51Z</time></trkpt><trkpt lat="45.32507843028948" lon="8.88097317867776"><ele>102.0</ele><time>2026-03-29T14:59:52Z</time></trkpt><trkpt lat="45.32499519233614" lon="8.880974392216865"><ele>102.0</ele><time>2026-03-29T14:59:53Z</time></trkpt><trkpt lat="45.32491466004847" lon="8.880975441861834"><ele>102.0</ele><time>2026-03-29T14:59:54Z</time></trkpt><trkpt lat="45.32484512482339" lon="8.880976195269357"><ele>102.0</ele><time>2026-03-29T14:59:55Z</time></trkpt><trkpt lat="45.32478078185891" lon="8.880977261258735"><ele>102.0</ele><time>2026-03-29T14:59:56Z</time></trkpt><trkpt lat="45.32466551996941" lon="8.880976210630983"><ele>102.0</ele><time>2026-03-29T14:59:58Z</time></trkpt><trkpt lat="45.32455896883613" lon="8.880940440864357"><ele>102.0</ele><time>2026-03-29T15:00:00Z</time></trkpt><trkpt lat="45.324489423896836" lon="8.880879924476023"><ele>102.33333333333333</ele><time>2026-03-29T15:00:01Z</time></trkpt><trkpt lat="45.32442453196253" lon="8.880815360755697"><ele>102.66666666666666</ele><time>2026-03-29T15:00:02Z</time></trkpt><trkpt lat="45.32434556383853" lon="8.880748474906067"><ele>103.0</ele><time>2026-03-29T15:00:03Z</time></trkpt><trkpt lat="45.324266602598726" lon="8.880710135282316"><ele>103.33333333333333</ele><time>2026-03-29T15:00:04Z</time></trkpt><trkpt lat="45.324174487287365" lon="8.880713219565086"><ele>103.66666666666666</ele><time>2026-03-29T15:00:05Z</time></trkpt><trkpt lat="45.32409578267261" lon="8.88073794162598"><ele>104.0</ele><time>2026-03-29T15:00:06Z</time></trkpt><trkpt lat="45.32403610800333" lon="8.880804803943164"><ele>104.0</ele><time>2026-03-29T15:00:07Z</time></trkpt><trkpt lat="45.32396883046608" lon="8.880885366649624"><ele>104.0</ele><time>2026-03-29T15:00:08Z</time></trkpt><trkpt lat="45.32389536110659" lon="8.880935582191459"><ele>104.0</ele><time>2026-03-29T15:00:09Z</time></trkpt><trkpt lat="45.32380826647365" lon="8.880958585470559"><ele>104.0</ele><time>2026-03-29T15:00:10Z</time></trkpt><trkpt lat="45.32371522422527" lon="8.880962444456616"><ele>104.0</ele><time>2026-03-29T15:00:11Z</time></trkpt><trkpt lat="45.3236091815041" lon="8.880958933550861"><ele>103.80000000000001</ele><time>2026-03-29T15:00:12Z</time></trkpt><trkpt lat="45.32349512634554" lon="8.880955673974862"><ele>103.60000000000001</ele><time>2026-03-29T15:00:13Z</time></trkpt><trkpt lat="45.32339129434126" lon="8.880955217623029"><ele>103.4</ele><time>2026-03-29T15:00:14Z</time></trkpt><trkpt lat="45.32329678705258" lon="8.880957563600722"><ele>103.2</ele><time>2026-03-29T15:00:15Z</time></trkpt><trkpt lat="45.32318795824689" lon="8.880961864756816"><ele>103.0</ele><time>2026-03-29T15:00:16Z</time></trkpt><trkpt lat="45.32306220373313" lon="8.880961266779915"><ele>103.0</ele><time>2026-03-29T15:00:17Z</time></trkpt><trkpt lat="45.32293935787581" lon="8.880957011607057"><ele>103.0</ele><time>2026-03-29T15:00:18Z</time></trkpt><trkpt lat="45.32282679712482" lon="8.880958103281756"><ele>103.0</ele><time>2026-03-29T15:00:19Z</time></trkpt><trkpt lat="45.322722032531885" lon="8.88096166807903"><ele>103.0</ele><time>2026-03-29T15:00:20Z</time></trkpt><trkpt lat="45.322612206968614" lon="8.88096239868824"><ele>103.0</ele><time>2026-03-29T15:00:21Z</time></trkpt><trkpt lat="45.322503951825674" lon="8.880964244604126"><ele>103.0</ele><time>2026-03-29T15:00:22Z</time></trkpt><trkpt lat="45.322394142327816" lon="8.880941391165635"><ele>103.0</ele><time>2026-03-29T15:00:23Z</time></trkpt><trkpt lat="45.32227993982798" lon="8.880940707931614"><ele>103.0</ele><time>2026-03-29T15:00:24Z</time></trkpt><trkpt lat="45.32216567861262" lon="8.880940024346861"><ele>103.0</ele><time>2026-03-29T15:00:25Z</time></trkpt><trkpt lat="45.32205397637042" lon="8.880939636236667"><ele>103.25</ele><time>2026-03-29T15:00:26Z</time></trkpt><trkpt lat="45.321943473193066" lon="8.880962613962584"><ele>103.5</ele><time>2026-03-29T15:00:27Z</time></trkpt><trkpt lat="45.321826836277516" lon="8.88095953862435"><ele>103.75</ele><time>2026-03-29T15:00:28Z</time></trkpt><trkpt lat="45.321702675458425" lon="8.880954432221367"><ele>104.0</ele><time>2026-03-29T15:00:29Z</time></trkpt><trkpt lat="45.32157399071945" lon="8.88095112278122"><ele>104.0</ele><time>2026-03-29T15:00:30Z</time></trkpt><trkpt lat="45.32145355780128" lon="8.880949122801033"><ele>104.0</ele><time>2026-03-29T15:00:31Z</time></trkpt><trkpt lat="45.321329981575275" lon="8.880947814054009"><ele>104.0</ele><time>2026-03-29T15:00:32Z</time></trkpt><trkpt lat="45.32120992943093" lon="8.88094742432671"><ele>104.0</ele><time>2026-03-29T15:00:33Z</time></trkpt><trkpt lat="45.32109863119311" lon="8.880946493832214"><ele>103.80000000000001</ele><time>2026-03-29T15:00:34Z</time></trkpt><trkpt lat="45.32099350267087" lon="8.880944461676947"><ele>103.60000000000001</ele><time>2026-03-29T15:00:35Z</time></trkpt><trkpt lat="45.32088555248653" lon="8.880942341464912"><ele>103.4</ele><time>2026-03-29T15:00:36Z</time></trkpt><trkpt lat="45.320776500711176" lon="8.880943060539504"><ele>103.2</ele><time>2026-03-29T15:00:37Z</time></trkpt><trkpt lat="45.32067584822193" lon="8.880941127169669"><ele>103.0</ele><time>2026-03-29T15:00:38Z</time></trkpt><trkpt lat="45.320562791665616" lon="8.880940140405635"><ele>103.0</ele><time>2026-03-29T15:00:39Z</time></trkpt><trkpt lat="45.320441547789635" lon="8.880938358332257"><ele>103.0</ele><time>2026-03-29T15:00:40Z</time></trkpt><trkpt lat="45.320314984330935" lon="8.88093636905704"><ele>103.0</ele><time>2026-03-29T15:00:41Z</time></trkpt><trkpt lat="45.32019086244813" lon="8.880933383920063"><ele>103.0</ele><time>2026-03-29T15:00:42Z</time></trkpt><trkpt lat="45.32007171021647" lon="8.880929278721686"><ele>103.0</ele><time>2026-03-29T15:00:43Z</time></trkpt><trkpt lat="45.319957883403816" lon="8.880925400241889"><ele>103.0</ele><time>2026-03-29T15:00:44Z</time></trkpt><trkpt lat="45.319849219029095" lon="8.880923242359588"><ele>103.0</ele><time>2026-03-29T15:00:45Z</time></trkpt><trkpt lat="45.31973675670713" lon="8.880919664533977"><ele>103.0</ele><time>2026-03-29T15:00:46Z</time></trkpt><trkpt lat="45.31962250769491" lon="8.880914957550152"><ele>103.0</ele><time>2026-03-29T15:00:47Z</time></trkpt><trkpt lat="45.31949641665728" lon="8.88091176197298"><ele>103.0</ele><time>2026-03-29T15:00:48Z</time></trkpt><trkpt lat="45.31937776072602" lon="8.880907307746831"><ele>103.0</ele><time>2026-03-29T15:00:49Z</time></trkpt><trkpt lat="45.31926554950371" lon="8.880905615666363"><ele>103.0</ele><time>2026-03-29T15:00:50Z</time></trkpt><trkpt lat="45.31916001741658" lon="8.880901563290163"><ele>103.0</ele><time>2026-03-29T15:00:51Z</time></trkpt><trkpt lat="45.31904381125364" lon="8.880896521990971"><ele>103.0</ele><time>2026-03-29T15:00:52Z</time></trkpt><trkpt lat="45.31892688184857" lon="8.880892616114423"><ele>103.0</ele><time>2026-03-29T15:00:53Z</time></trkpt><trkpt lat="45.31881543929668" lon="8.880889340243028"><ele>103.0</ele><time>2026-03-29T15:00:54Z</time></trkpt><trkpt lat="45.31871138631495" lon="8.880885555743516"><ele>103.0</ele><time>2026-03-29T15:00:55Z</time></trkpt><trkpt lat="45.31861159087177" lon="8.880882341335967"><ele>103.0</ele><time>2026-03-29T15:00:56Z</time></trkpt><trkpt lat="45.31851295303506" lon="8.880880192190883"><ele>103.0</ele><time>2026-03-29T15:00:57Z</time></trkpt><trkpt lat="45.318400006863754" lon="8.88087634879262"><ele>103.0</ele><time>2026-03-29T15:00:58Z</time></trkpt><trkpt lat="45.31829923137377" lon="8.880869010861124"><ele>103.0</ele><time>2026-03-29T15:00:59Z</time></trkpt><trkpt lat="45.31820285809112" lon="8.880858132545908"><ele>103.0</ele><time>2026-03-29T15:01:00Z</time></trkpt><trkpt lat="45.318100451767485" lon="8.880845876960297"><ele>103.0</ele><time>2026-03-29T15:01:01Z</time></trkpt><trkpt lat="45.317986709315214" lon="8.880858687409708"><ele>102.60000000000001</ele><time>2026-03-29T15:01:02Z</time></trkpt><trkpt lat="45.317885422453834" lon="8.880855684193373"><ele>102.2</ele><time>2026-03-29T15:01:03Z</time></trkpt><trkpt lat="45.3177795234803" lon="8.880853531713779"><ele>101.8</ele><time>2026-03-29T15:01:04Z</time></trkpt><trkpt lat="45.317676962645" lon="8.880852154180216"><ele>101.4</ele><time>2026-03-29T15:01:05Z</time></trkpt><trkpt lat="45.31757841668128" lon="8.880848066751264"><ele>101.0</ele><time>2026-03-29T15:01:06Z</time></trkpt><trkpt lat="45.31747852459163" lon="8.880847497121403"><ele>100.99999999999999</ele><time>2026-03-29T15:01:07Z</time></trkpt><trkpt lat="45.31738623329971" lon="8.880847201620586"><ele>101.0</ele><time>2026-03-29T15:01:08Z</time></trkpt><trkpt lat="45.31730544006784" lon="8.880846750154923"><ele>101.0</ele><time>2026-03-29T15:01:09Z</time></trkpt><trkpt lat="45.31722955365727" lon="8.88084390695211"><ele>101.0</ele><time>2026-03-29T15:01:10Z</time></trkpt><trkpt lat="45.31716463647067" lon="8.880835523765823"><ele>100.99999999999999</ele><time>2026-03-29T15:01:11Z</time></trkpt><trkpt lat="45.31707227579142" lon="8.880794436893481"><ele>101.0</ele><time>2026-03-29T15:01:13Z</time></trkpt><trkpt lat="45.317004778870796" lon="8.880735062665218"><ele>101.16666666666666</ele><time>2026-03-29T15:01:15Z</time></trkpt><trkpt lat="45.31694669036965" lon="8.880676091453351"><ele>101.33333333333333</ele><time>2026-03-29T15:01:17Z</time></trkpt><trkpt lat="45.316863463474945" lon="8.880653640547552"><ele>101.5</ele><time>2026-03-29T15:01:20Z</time></trkpt><trkpt lat="45.31677880681479" lon="8.88063461523577"><ele>101.66666666666666</ele><time>2026-03-29T15:01:23Z</time></trkpt><trkpt lat="45.31669566178763" lon="8.880731185663285"><ele>101.83333333333333</ele><time>2026-03-29T15:07:38Z</time></trkpt><trkpt lat="45.31666143335975" lon="8.880817444134019"><ele>102.0</ele><time>2026-03-29T15:07:51Z</time></trkpt><trkpt lat="45.316528453527226" lon="8.880833851564791"><ele>102.0</ele><time>2026-03-29T15:07:53Z</time></trkpt><trkpt lat="45.31642165660457" lon="8.880828987691883"><ele>102.0</ele><time>2026-03-29T15:07:54Z</time></trkpt><trkpt lat="45.316318566667896" lon="8.880833751409378"><ele>102.0</ele><time>2026-03-29T15:07:55Z</time></trkpt><trkpt lat="45.316226817046875" lon="8.880828741937847"><ele>102.0</ele><time>2026-03-29T15:07:56Z</time></trkpt><trkpt lat="45.31615505802386" lon="8.880811565983315"><ele>102.0</ele><time>2026-03-29T15:07:57Z</time></trkpt><trkpt lat="45.31608449258635" lon="8.88077589821341"><ele>102.0</ele><time>2026-03-29T15:07:58Z</time></trkpt><trkpt lat="45.316011648331546" lon="8.880727046739892"><ele>102.0</ele><time>2026-03-29T15:07:59Z</time></trkpt><trkpt lat="45.31594465889792" lon="8.880675869488456"><ele>102.0</ele><time>2026-03-29T15:08:00Z</time></trkpt><trkpt lat="45.31586457703616" lon="8.880622070727808"><ele>102.0</ele><time>2026-03-29T15:08:01Z</time></trkpt><trkpt lat="45.31578668754731" lon="8.880598709413555"><ele>102.0</ele><time>2026-03-29T15:08:02Z</time></trkpt><trkpt lat="45.31569925437202" lon="8.880617044504305"><ele>102.0</ele><time>2026-03-29T15:08:03Z</time></trkpt><trkpt lat="45.31562239349002" lon="8.880681032769736"><ele>102.0</ele><time>2026-03-29T15:08:04Z</time></trkpt><trkpt lat="45.31554107452806" lon="8.880761725272695"><ele>101.75</ele><time>2026-03-29T15:08:05Z</time></trkpt><trkpt lat="45.31548748062099" lon="8.880877060639316"><ele>101.5</ele><time>2026-03-29T15:08:06Z</time></trkpt><trkpt lat="45.315325388964595" lon="8.880848767627615"><ele>101.25</ele><time>2026-03-29T15:08:07Z</time></trkpt><trkpt lat="45.31521104043993" lon="8.88085502959457"><ele>101.0</ele><time>2026-03-29T15:08:08Z</time></trkpt><trkpt lat="45.3150884423877" lon="8.880839842561688"><ele>101.0</ele><time>2026-03-29T15:08:09Z</time></trkpt><trkpt lat="45.31494808039182" lon="8.880838209038838"><ele>101.0</ele><time>2026-03-29T15:08:10Z</time></trkpt><trkpt lat="45.31481649770506" lon="8.880836724676808"><ele>101.0</ele><time>2026-03-29T15:08:11Z</time></trkpt><trkpt lat="45.31469765891128" lon="8.880835390519486"><ele>101.0</ele><time>2026-03-29T15:08:12Z</time></trkpt><trkpt lat="45.31456729103875" lon="8.88083409040487"><ele>101.5</ele><time>2026-03-29T15:08:13Z</time></trkpt><trkpt lat="45.314429665323765" lon="8.880851131153042"><ele>102.0</ele><time>2026-03-29T15:08:14Z</time></trkpt><trkpt lat="45.314304660618866" lon="8.880847084215489"><ele>102.5</ele><time>2026-03-29T15:08:15Z</time></trkpt><trkpt lat="45.31417687697544" lon="8.880846448977696"><ele>103.0</ele><time>2026-03-29T15:08:16Z</time></trkpt><trkpt lat="45.31404640512831" lon="8.880843587622035"><ele>103.0</ele><time>2026-03-29T15:08:17Z</time></trkpt><trkpt lat="45.31392757992199" lon="8.880842555668822"><ele>103.0</ele><time>2026-03-29T15:08:18Z</time></trkpt><trkpt lat="45.31382526742894" lon="8.880841422248654"><ele>103.0</ele><time>2026-03-29T15:08:19Z</time></trkpt><trkpt lat="45.31372257257588" lon="8.880838733280259"><ele>103.0</ele><time>2026-03-29T15:08:20Z</time></trkpt><trkpt lat="45.31362458271011" lon="8.880838972116106"><ele>103.0</ele><time>2026-03-29T15:08:21Z</time></trkpt><trkpt lat="45.31352606031814" lon="8.880837732594593"><ele>102.4</ele><time>2026-03-29T15:08:22Z</time></trkpt><trkpt lat="45.31343502937817" lon="8.880836053369157"><ele>101.80000000000001</ele><time>2026-03-29T15:08:23Z</time></trkpt><trkpt lat="45.31334268210011" lon="8.88083144027106"><ele>101.2</ele><time>2026-03-29T15:08:24Z</time></trkpt><trkpt lat="45.31324048385474" lon="8.880795157834982"><ele>100.6</ele><time>2026-03-29T15:08:25Z</time></trkpt><trkpt lat="45.31312577859921" lon="8.880765975610574"><ele>100.0</ele><time>2026-03-29T15:08:26Z</time></trkpt><trkpt lat="45.31299996935134" lon="8.880727303946419"><ele>100.0</ele><time>2026-03-29T15:08:27Z</time></trkpt><trkpt lat="45.312867783890916" lon="8.880702186659907"><ele>100.0</ele><time>2026-03-29T15:08:28Z</time></trkpt><trkpt lat="45.312757701584495" lon="8.880650916113053"><ele>100.0</ele><time>2026-03-29T15:08:29Z</time></trkpt><trkpt lat="45.3126487284322" lon="8.880598961886532"><ele>100.0</ele><time>2026-03-29T15:08:30Z</time></trkpt><trkpt lat="45.31253266747032" lon="8.88054165809651"><ele>100.0</ele><time>2026-03-29T15:08:31Z</time></trkpt><trkpt lat="45.31239735180199" lon="8.880468044418965"><ele>100.0</ele><time>2026-03-29T15:08:32Z</time></trkpt><trkpt lat="45.312279580807946" lon="8.880393793178442"><ele>100.0</ele><time>2026-03-29T15:08:33Z</time></trkpt><trkpt lat="45.31216464865859" lon="8.880321793878787"><ele>100.0</ele><time>2026-03-29T15:08:34Z</time></trkpt><trkpt lat="45.31204248110677" lon="8.880232080588936"><ele>100.25</ele><time>2026-03-29T15:08:35Z</time></trkpt><trkpt lat="45.31192213409928" lon="8.880131081236446"><ele>100.5</ele><time>2026-03-29T15:08:36Z</time></trkpt><trkpt lat="45.31180625266185" lon="8.880022131831355"><ele>100.75</ele><time>2026-03-29T15:08:37Z</time></trkpt><trkpt lat="45.31169141445501" lon="8.879910805743162"><ele>101.0</ele><time>2026-03-29T15:08:38Z</time></trkpt><trkpt lat="45.31157792782468" lon="8.879798788778297"><ele>101.5</ele><time>2026-03-29T15:08:39Z</time></trkpt><trkpt lat="45.31145931180375" lon="8.879682288958653"><ele>102.0</ele><time>2026-03-29T15:08:40Z</time></trkpt><trkpt lat="45.31133677956026" lon="8.87956508581434"><ele>102.5</ele><time>2026-03-29T15:08:41Z</time></trkpt><trkpt lat="45.31122434655513" lon="8.87945704271959"><ele>103.0</ele><time>2026-03-29T15:08:42Z</time></trkpt><trkpt lat="45.31111902550531" lon="8.879354270560384"><ele>103.0</ele><time>2026-03-29T15:08:43Z</time></trkpt><trkpt lat="45.311024041090896" lon="8.879261288005846"><ele>103.0</ele><time>2026-03-29T15:08:44Z</time></trkpt><trkpt lat="45.310932090127956" lon="8.879170767054957"><ele>103.0</ele><time>2026-03-29T15:08:45Z</time></trkpt><trkpt lat="45.31085006976754" lon="8.879087745418698"><ele>103.0</ele><time>2026-03-29T15:08:46Z</time></trkpt><trkpt lat="45.310765111075824" lon="8.879000827187548"><ele>103.0</ele><time>2026-03-29T15:08:47Z</time></trkpt><trkpt lat="45.31068355490626" lon="8.878916006217365"><ele>103.0</ele><time>2026-03-29T15:08:48Z</time></trkpt><trkpt lat="45.31060861016524" lon="8.87883075708871"><ele>103.0</ele><time>2026-03-29T15:08:49Z</time></trkpt><trkpt lat="45.31054194561071" lon="8.878743762530119"><ele>103.0</ele><time>2026-03-29T15:08:50Z</time></trkpt><trkpt lat="45.31049429823199" lon="8.878643410827706"><ele>103.0</ele><time>2026-03-29T15:08:51Z</time></trkpt><trkpt lat="45.31045936329262" lon="8.878508651447083"><ele>103.0</ele><time>2026-03-29T15:08:52Z</time></trkpt><trkpt lat="45.31043285886631" lon="8.878343857696555"><ele>102.4</ele><time>2026-03-29T15:08:53Z</time></trkpt><trkpt lat="45.31039069344009" lon="8.87819702671884"><ele>101.80000000000001</ele><time>2026-03-29T15:08:54Z</time></trkpt><trkpt lat="45.31032073062971" lon="8.878086360931798"><ele>101.2</ele><time>2026-03-29T15:08:55Z</time></trkpt><trkpt lat="45.31024505884108" lon="8.878002309577857"><ele>100.6</ele><time>2026-03-29T15:08:56.001Z</time></trkpt><trkpt lat="45.31012938793157" lon="8.878002777954036"><ele>100.0</ele><time>2026-03-29T15:08:57.001Z</time></trkpt><trkpt lat="45.310031667461445" lon="8.878023979582954"><ele>100.0</ele><time>2026-03-29T15:08:58.001Z</time></trkpt><trkpt lat="45.309923604218476" lon="8.878045441606398"><ele>100.0</ele><time>2026-03-29T15:08:59.001Z</time></trkpt><trkpt lat="45.30980464341919" lon="8.878014701031551"><ele>100.0</ele><time>2026-03-29T15:09:00.001Z</time></trkpt><trkpt lat="45.30968883631707" lon="8.877930502073742"><ele>100.0</ele><time>2026-03-29T15:09:01.001Z</time></trkpt><trkpt lat="45.309583640409336" lon="8.877839624706091"><ele>100.0</ele><time>2026-03-29T15:09:02.001Z</time></trkpt><trkpt lat="45.309487146980906" lon="8.877745770462575"><ele>100.0</ele><time>2026-03-29T15:09:03.001Z</time></trkpt><trkpt lat="45.30938926077931" lon="8.877646067171137"><ele>100.0</ele><time>2026-03-29T15:09:04.001Z</time></trkpt><trkpt lat="45.30928328518407" lon="8.877539225282165"><ele>100.0</ele><time>2026-03-29T15:09:05.001Z</time></trkpt><trkpt lat="45.30917279690115" lon="8.877433535199971"><ele>100.25</ele><time>2026-03-29T15:09:06.001Z</time></trkpt><trkpt lat="45.30906009022694" lon="8.877331807500777"><ele>100.5</ele><time>2026-03-29T15:09:07.001Z</time></trkpt><trkpt lat="45.30894613740266" lon="8.877217660576122"><ele>100.75</ele><time>2026-03-29T15:09:08.001Z</time></trkpt><trkpt lat="45.30883437523186" lon="8.877103046255455"><ele>101.0</ele><time>2026-03-29T15:09:09.001Z</time></trkpt><trkpt lat="45.30871762466029" lon="8.87698675986639"><ele>101.0</ele><time>2026-03-29T15:09:10.001Z</time></trkpt><trkpt lat="45.30860262252221" lon="8.87687652143619"><ele>101.0</ele><time>2026-03-29T15:09:11.001Z</time></trkpt><trkpt lat="45.30850120616814" lon="8.87677551056678"><ele>101.0</ele><time>2026-03-29T15:09:12.001Z</time></trkpt><trkpt lat="45.30840115256233" lon="8.876680659806063"><ele>101.0</ele><time>2026-03-29T15:09:13.001Z</time></trkpt><trkpt lat="45.30829674663807" lon="8.876576774906582"><ele>101.0</ele><time>2026-03-29T15:09:14Z</time></trkpt><trkpt lat="45.30818803599997" lon="8.876467554323384"><ele>101.0</ele><time>2026-03-29T15:09:15Z</time></trkpt><trkpt lat="45.30808961825546" lon="8.876369289260376"><ele>101.0</ele><time>2026-03-29T15:09:16Z</time></trkpt><trkpt lat="45.30798539495373" lon="8.876267227751493"><ele>101.0</ele><time>2026-03-29T15:09:17Z</time></trkpt><trkpt lat="45.30787961353635" lon="8.876161004795456"><ele>101.0</ele><time>2026-03-29T15:09:18Z</time></trkpt><trkpt lat="45.30776568709645" lon="8.876052689847205"><ele>101.0</ele><time>2026-03-29T15:09:19Z</time></trkpt><trkpt lat="45.30764407868261" lon="8.875930401874813"><ele>101.0</ele><time>2026-03-29T15:09:20Z</time></trkpt><trkpt lat="45.307517439033695" lon="8.875806619431506"><ele>101.0</ele><time>2026-03-29T15:09:21Z</time></trkpt><trkpt lat="45.307390706675385" lon="8.875683011797154"><ele>100.75</ele><time>2026-03-29T15:09:22Z</time></trkpt><trkpt lat="45.30726817215034" lon="8.875566819261428"><ele>100.5</ele><time>2026-03-29T15:09:23Z</time></trkpt><trkpt lat="45.307138265875615" lon="8.875439960138877"><ele>100.25</ele><time>2026-03-29T15:09:24Z</time></trkpt><trkpt lat="45.307021944661095" lon="8.87532732360434"><ele>100.0</ele><time>2026-03-29T15:09:25Z</time></trkpt><trkpt lat="45.306899868623304" lon="8.875208342861134"><ele>100.0</ele><time>2026-03-29T15:09:26Z</time></trkpt><trkpt lat="45.30678519238323" lon="8.875095106622206"><ele>100.0</ele><time>2026-03-29T15:09:27Z</time></trkpt><trkpt lat="45.306662008977476" lon="8.87497364931595"><ele>100.0</ele><time>2026-03-29T15:09:28Z</time></trkpt><trkpt lat="45.30653440673542" lon="8.87484668166843"><ele>100.0</ele><time>2026-03-29T15:09:29Z</time></trkpt><trkpt lat="45.30640692063742" lon="8.874721580728176"><ele>100.0</ele><time>2026-03-29T15:09:30Z</time></trkpt><trkpt lat="45.306286102570176" lon="8.874602292008921"><ele>100.0</ele><time>2026-03-29T15:09:31Z</time></trkpt><trkpt lat="45.306155159159744" lon="8.874475546600717"><ele>100.0</ele><time>2026-03-29T15:09:32Z</time></trkpt><trkpt lat="45.30602878981983" lon="8.874349759602786"><ele>101.0</ele><time>2026-03-29T15:09:33Z</time></trkpt><trkpt lat="45.30590157882933" lon="8.874224949968614"><ele>102.0</ele><time>2026-03-29T15:09:34Z</time></trkpt><trkpt lat="45.305777430452125" lon="8.874101113851486"><ele>103.0</ele><time>2026-03-29T15:09:35Z</time></trkpt><trkpt lat="45.3056431620549" lon="8.873969003261909"><ele>102.66666666666667</ele><time>2026-03-29T15:09:36Z</time></trkpt><trkpt lat="45.30551296036153" lon="8.873845223758243"><ele>102.33333333333334</ele><time>2026-03-29T15:09:37Z</time></trkpt><trkpt lat="45.30537556722355" lon="8.873714711076175"><ele>102.0</ele><time>2026-03-29T15:09:38Z</time></trkpt><trkpt lat="45.30525791742829" lon="8.873598757305862"><ele>102.0</ele><time>2026-03-29T15:09:39Z</time></trkpt><trkpt lat="45.30514604417067" lon="8.873492027575509"><ele>102.0</ele><time>2026-03-29T15:09:40Z</time></trkpt><trkpt lat="45.30503228334507" lon="8.873384582155797"><ele>102.0</ele><time>2026-03-29T15:09:41Z</time></trkpt><trkpt lat="45.30491914497799" lon="8.873278175600088"><ele>102.0</ele><time>2026-03-29T15:09:42Z</time></trkpt><trkpt lat="45.30480422810217" lon="8.873171964053414"><ele>101.75</ele><time>2026-03-29T15:09:43Z</time></trkpt><trkpt lat="45.30469220399164" lon="8.873072863845263"><ele>101.5</ele><time>2026-03-29T15:09:44Z</time></trkpt><trkpt lat="45.30458794483068" lon="8.872977780014866"><ele>101.25</ele><time>2026-03-29T15:09:45Z</time></trkpt><trkpt lat="45.30449017811131" lon="8.872886868092102"><ele>101.0</ele><time>2026-03-29T15:09:46Z</time></trkpt><trkpt lat="45.304403106763125" lon="8.8728031216372"><ele>100.99999999999999</ele><time>2026-03-29T15:09:47Z</time></trkpt><trkpt lat="45.304324767225715" lon="8.872726838916016"><ele>101.0</ele><time>2026-03-29T15:09:48Z</time></trkpt><trkpt lat="45.30425573644667" lon="8.872659330448544"><ele>101.0</ele><time>2026-03-29T15:09:49Z</time></trkpt><trkpt lat="45.30420010130463" lon="8.872602093493812"><ele>101.0</ele><time>2026-03-29T15:09:50Z</time></trkpt><trkpt lat="45.30413636057206" lon="8.872537920818985"><ele>100.99999999999999</ele><time>2026-03-29T15:09:52Z</time></trkpt><trkpt lat="45.304078104396766" lon="8.872478765826958"><ele>101.0</ele><time>2026-03-29T15:09:54Z</time></trkpt><trkpt lat="45.30402287443243" lon="8.872405944992945"><ele>100.99999999999999</ele><time>2026-03-29T15:09:56Z</time></trkpt><trkpt lat="45.30398345711839" lon="8.872323165579427"><ele>101.0</ele><time>2026-03-29T15:09:58Z</time></trkpt><trkpt lat="45.30394315193377" lon="8.872195169966323"><ele>101.0</ele><time>2026-03-29T15:10:01Z</time></trkpt><trkpt lat="45.30393191557985" lon="8.872082023589385"><ele>101.0</ele><time>2026-03-29T15:10:02Z</time></trkpt><trkpt lat="45.30391567528467" lon="8.871977003398548"><ele>100.99999999999999</ele><time>2026-03-29T15:10:03Z</time></trkpt><trkpt lat="45.303882032295256" lon="8.87186751501834"><ele>101.0</ele><time>2026-03-29T15:10:04Z</time></trkpt><trkpt lat="45.303823483442216" lon="8.87179927056403"><ele>101.16666666666666</ele><time>2026-03-29T15:10:05Z</time></trkpt><trkpt lat="45.30374947538979" lon="8.871765844532636"><ele>101.33333333333333</ele><time>2026-03-29T15:10:06Z</time></trkpt><trkpt lat="45.303668262068705" lon="8.871776038089427"><ele>101.5</ele><time>2026-03-29T15:10:07Z</time></trkpt><trkpt lat="45.3035961994825" lon="8.871830816045259"><ele>101.66666666666666</ele><time>2026-03-29T15:10:08Z</time></trkpt><trkpt lat="45.30353622839836" lon="8.871929017086362"><ele>101.83333333333333</ele><time>2026-03-29T15:10:09Z</time></trkpt><trkpt lat="45.30348450063403" lon="8.872064599409963"><ele>102.0</ele><time>2026-03-29T15:10:10Z</time></trkpt><trkpt lat="45.303422983343246" lon="8.872228329533238"><ele>101.33333333333334</ele><time>2026-03-29T15:10:11Z</time></trkpt><trkpt lat="45.30336343999346" lon="8.872392393036012"><ele>100.66666666666667</ele><time>2026-03-29T15:10:12Z</time></trkpt><trkpt lat="45.30322089779007" lon="8.872507392267527"><ele>100.0</ele><time>2026-03-29T15:10:13Z</time></trkpt><trkpt lat="45.303079964613815" lon="8.87262772881798"><ele>100.0</ele><time>2026-03-29T15:10:14Z</time></trkpt><trkpt lat="45.30293234042744" lon="8.87274959601111"><ele>100.0</ele><time>2026-03-29T15:10:15Z</time></trkpt><trkpt lat="45.30278117848046" lon="8.872879262339533"><ele>100.0</ele><time>2026-03-29T15:10:16Z</time></trkpt><trkpt lat="45.302626597083346" lon="8.873015678756465"><ele>100.0</ele><time>2026-03-29T15:10:17Z</time></trkpt><trkpt lat="45.30247645240333" lon="8.873149610469987"><ele>100.0</ele><time>2026-03-29T15:10:18Z</time></trkpt><trkpt lat="45.30232337002591" lon="8.873288593527427"><ele>100.0</ele><time>2026-03-29T15:10:19Z</time></trkpt><trkpt lat="45.3021835473204" lon="8.873414137724492"><ele>99.75</ele><time>2026-03-29T15:10:20Z</time></trkpt><trkpt lat="45.30205882422148" lon="8.873524203964763"><ele>99.5</ele><time>2026-03-29T15:10:21Z</time></trkpt><trkpt lat="45.30193906344253" lon="8.873632647181317"><ele>99.25</ele><time>2026-03-29T15:10:22Z</time></trkpt><trkpt lat="45.301815869419535" lon="8.873739837472314"><ele>99.0</ele><time>2026-03-29T15:10:23Z</time></trkpt><trkpt lat="45.30168890089587" lon="8.87385094405129"><ele>99.0</ele><time>2026-03-29T15:10:24Z</time></trkpt><trkpt lat="45.3015577034583" lon="8.87396510081973"><ele>99.0</ele><time>2026-03-29T15:10:25Z</time></trkpt><trkpt lat="45.30142237688404" lon="8.874083043425898"><ele>99.0</ele><time>2026-03-29T15:10:26Z</time></trkpt><trkpt lat="45.301294666440995" lon="8.874197443449281"><ele>98.33333333333334</ele><time>2026-03-29T15:10:27Z</time></trkpt><trkpt lat="45.30115482414078" lon="8.874324982805305"><ele>97.66666666666667</ele><time>2026-03-29T15:10:28Z</time></trkpt><trkpt lat="45.30101252889644" lon="8.87445469310807"><ele>97.0</ele><time>2026-03-29T15:10:29Z</time></trkpt><trkpt lat="45.300877883813165" lon="8.874577396297793"><ele>97.0</ele><time>2026-03-29T15:10:30Z</time></trkpt><trkpt lat="45.30074219619629" lon="8.874697710520548"><ele>97.0</ele><time>2026-03-29T15:10:31Z</time></trkpt><trkpt lat="45.30060904569925" lon="8.874816744541974"><ele>97.0</ele><time>2026-03-29T15:10:32Z</time></trkpt><trkpt lat="45.30045677911905" lon="8.874956122946742"><ele>97.33333333333334</ele><time>2026-03-29T15:10:33Z</time></trkpt><trkpt lat="45.300304629092835" lon="8.875089274763408"><ele>97.66666666666666</ele><time>2026-03-29T15:10:34Z</time></trkpt><trkpt lat="45.300148684753474" lon="8.875227477340436"><ele>98.0</ele><time>2026-03-29T15:10:35Z</time></trkpt><trkpt lat="45.2999892844031" lon="8.8753699809984"><ele>98.0</ele><time>2026-03-29T15:10:36Z</time></trkpt><trkpt lat="45.29983135529506" lon="8.875511910231342"><ele>98.0</ele><time>2026-03-29T15:10:37Z</time></trkpt><trkpt lat="45.29967074511711" lon="8.87565559550152"><ele>98.0</ele><time>2026-03-29T15:10:38Z</time></trkpt><trkpt lat="45.29950248021056" lon="8.87580422300883"><ele>98.33333333333333</ele><time>2026-03-29T15:10:39Z</time></trkpt><trkpt lat="45.299338502672896" lon="8.87594966994176"><ele>98.66666666666666</ele><time>2026-03-29T15:10:40Z</time></trkpt><trkpt lat="45.299174093349414" lon="8.876095168027721"><ele>99.0</ele><time>2026-03-29T15:10:41Z</time></trkpt><trkpt lat="45.29900682672196" lon="8.876242966358976"><ele>99.0</ele><time>2026-03-29T15:10:42Z</time></trkpt><trkpt lat="45.29884249211304" lon="8.87638792548832"><ele>99.0</ele><time>2026-03-29T15:10:43Z</time></trkpt><trkpt lat="45.29867636903003" lon="8.876534865703773"><ele>99.0</ele><time>2026-03-29T15:10:44Z</time></trkpt><trkpt lat="45.298514761356095" lon="8.876678187352372"><ele>98.66666666666666</ele><time>2026-03-29T15:10:45Z</time></trkpt><trkpt lat="45.29834593010151" lon="8.876824088975908"><ele>98.33333333333333</ele><time>2026-03-29T15:10:46Z</time></trkpt><trkpt lat="45.298173144965695" lon="8.876977552227192"><ele>98.0</ele><time>2026-03-29T15:10:47Z</time></trkpt><trkpt lat="45.2980027938721" lon="8.87712463407793"><ele>98.0</ele><time>2026-03-29T15:10:48Z</time></trkpt><trkpt lat="45.29784111142669" lon="8.877267696448916"><ele>98.0</ele><time>2026-03-29T15:10:49Z</time></trkpt><trkpt lat="45.29766944708407" lon="8.877423035550978"><ele>98.0</ele><time>2026-03-29T15:10:50Z</time></trkpt><trkpt lat="45.29749012324675" lon="8.877582746721398"><ele>98.33333333333333</ele><time>2026-03-29T15:10:51Z</time></trkpt><trkpt lat="45.29730922287079" lon="8.877739335715724"><ele>98.66666666666666</ele><time>2026-03-29T15:10:52Z</time></trkpt><trkpt lat="45.29713038351702" lon="8.877898344759302"><ele>99.0</ele><time>2026-03-29T15:10:53Z</time></trkpt><trkpt lat="45.29695004538235" lon="8.878056030303119"><ele>99.0</ele><time>2026-03-29T15:10:54Z</time></trkpt><trkpt lat="45.29677246223109" lon="8.878208556382285"><ele>99.0</ele><time>2026-03-29T15:10:55Z</time></trkpt><trkpt lat="45.29660712934221" lon="8.87835554439896"><ele>99.0</ele><time>2026-03-29T15:10:56Z</time></trkpt><trkpt lat="45.296444683506806" lon="8.878500340274027"><ele>98.66666666666666</ele><time>2026-03-29T15:10:57Z</time></trkpt><trkpt lat="45.29628022191453" lon="8.878647387242612"><ele>98.33333333333333</ele><time>2026-03-29T15:10:58Z</time></trkpt><trkpt lat="45.2961211429931" lon="8.878789987475297"><ele>98.0</ele><time>2026-03-29T15:10:59Z</time></trkpt><trkpt lat="45.295968677647636" lon="8.878925647393338"><ele>98.0</ele><time>2026-03-29T15:11:00Z</time></trkpt><trkpt lat="45.29583945848762" lon="8.879039148409406"><ele>98.0</ele><time>2026-03-29T15:11:01Z</time></trkpt><trkpt lat="45.29570212393377" lon="8.879159084357067"><ele>98.0</ele><time>2026-03-29T15:11:02Z</time></trkpt><trkpt lat="45.295571683154925" lon="8.879273092606166"><ele>98.0</ele><time>2026-03-29T15:11:03Z</time></trkpt><trkpt lat="45.29543940587203" lon="8.879388981970491"><ele>98.0</ele><time>2026-03-29T15:11:04Z</time></trkpt><trkpt lat="45.29531300705433" lon="8.879498970795344"><ele>98.0</ele><time>2026-03-29T15:11:05Z</time></trkpt><trkpt lat="45.29519215761856" lon="8.879605298252212"><ele>98.0</ele><time>2026-03-29T15:11:06Z</time></trkpt><trkpt lat="45.29507036315441" lon="8.879712322935259"><ele>98.0</ele><time>2026-03-29T15:11:07Z</time></trkpt><trkpt lat="45.2949424280902" lon="8.879822344419615"><ele>98.0</ele><time>2026-03-29T15:11:08Z</time></trkpt><trkpt lat="45.29481331575228" lon="8.87993823255509"><ele>98.0</ele><time>2026-03-29T15:11:09Z</time></trkpt><trkpt lat="45.29466164041505" lon="8.880059430848739"><ele>97.66666666666666</ele><time>2026-03-29T15:11:10Z</time></trkpt><trkpt lat="45.2944947386123" lon="8.88020623941332"><ele>97.33333333333334</ele><time>2026-03-29T15:11:11Z</time></trkpt><trkpt lat="45.294310901260175" lon="8.880367944650578"><ele>97.0</ele><time>2026-03-29T15:11:12Z</time></trkpt><trkpt lat="45.29413296159804" lon="8.88053668750889"><ele>97.0</ele><time>2026-03-29T15:11:13Z</time></trkpt><trkpt lat="45.29396047967453" lon="8.88066896085222"><ele>97.0</ele><time>2026-03-29T15:11:14Z</time></trkpt><trkpt lat="45.29380765267993" lon="8.880796308597867"><ele>97.0</ele><time>2026-03-29T15:11:15Z</time></trkpt><trkpt lat="45.29365970709387" lon="8.88092386556442"><ele>98.0</ele><time>2026-03-29T15:11:16Z</time></trkpt><trkpt lat="45.293511841402314" lon="8.881053739712472"><ele>99.0</ele><time>2026-03-29T15:11:17Z</time></trkpt><trkpt lat="45.29335814363855" lon="8.881190440288133"><ele>100.0</ele><time>2026-03-29T15:11:18Z</time></trkpt><trkpt lat="45.29321041285662" lon="8.881321413675524"><ele>100.0</ele><time>2026-03-29T15:11:19Z</time></trkpt><trkpt lat="45.293068023737796" lon="8.881446747743219"><ele>100.0</ele><time>2026-03-29T15:11:20Z</time></trkpt><trkpt lat="45.29291959537302" lon="8.881576102910156"><ele>100.0</ele><time>2026-03-29T15:11:21Z</time></trkpt><trkpt lat="45.29277499046928" lon="8.881702395211322"><ele>100.66666666666667</ele><time>2026-03-29T15:11:22Z</time></trkpt><trkpt lat="45.292624859026986" lon="8.881828732338835"><ele>101.33333333333334</ele><time>2026-03-29T15:11:23Z</time></trkpt><trkpt lat="45.292481431965385" lon="8.881956627596264"><ele>102.0</ele><time>2026-03-29T15:11:24Z</time></trkpt><trkpt lat="45.29231837044678" lon="8.882103076869383"><ele>101.0</ele><time>2026-03-29T15:11:25Z</time></trkpt><trkpt lat="45.29214585931767" lon="8.882257615885797"><ele>100.0</ele><time>2026-03-29T15:11:26Z</time></trkpt><trkpt lat="45.2919613901892" lon="8.882418499895937"><ele>99.0</ele><time>2026-03-29T15:11:27Z</time></trkpt><trkpt lat="45.29178793468401" lon="8.882569614479745"><ele>99.33333333333334</ele><time>2026-03-29T15:11:28Z</time></trkpt><trkpt lat="45.29161595880791" lon="8.882720390257473"><ele>99.66666666666667</ele><time>2026-03-29T15:11:29Z</time></trkpt><trkpt lat="45.29144708904204" lon="8.88287164220934"><ele>100.0</ele><time>2026-03-29T15:11:30Z</time></trkpt><trkpt lat="45.291294472159095" lon="8.883006461072613"><ele>100.0</ele><time>2026-03-29T15:11:31Z</time></trkpt><trkpt lat="45.29114076946128" lon="8.883144078589684"><ele>100.0</ele><time>2026-03-29T15:11:32Z</time></trkpt><trkpt lat="45.290994691219986" lon="8.88327382719197"><ele>100.0</ele><time>2026-03-29T15:11:33Z</time></trkpt><trkpt lat="45.29085883062548" lon="8.88339192462439"><ele>100.0</ele><time>2026-03-29T15:11:34Z</time></trkpt><trkpt lat="45.29072193939673" lon="8.883512171267007"><ele>100.0</ele><time>2026-03-29T15:11:35Z</time></trkpt><trkpt lat="45.29057436207133" lon="8.883637473858393"><ele>100.0</ele><time>2026-03-29T15:11:36Z</time></trkpt><trkpt lat="45.29040765200968" lon="8.883781523547125"><ele>100.0</ele><time>2026-03-29T15:11:37Z</time></trkpt><trkpt lat="45.290265215569015" lon="8.883903119926655"><ele>100.0</ele><time>2026-03-29T15:11:38Z</time></trkpt><trkpt lat="45.29012983316715" lon="8.884017146513592"><ele>100.0</ele><time>2026-03-29T15:11:39Z</time></trkpt><trkpt lat="45.289989923840785" lon="8.88413553314917"><ele>100.0</ele><time>2026-03-29T15:11:40Z</time></trkpt><trkpt lat="45.28985117955571" lon="8.884251944020374"><ele>100.0</ele><time>2026-03-29T15:11:41Z</time></trkpt><trkpt lat="45.28970022700749" lon="8.88438216564503"><ele>100.0</ele><time>2026-03-29T15:11:42Z</time></trkpt><trkpt lat="45.289546192628784" lon="8.884513995655972"><ele>100.0</ele><time>2026-03-29T15:11:43Z</time></trkpt><trkpt lat="45.28938983308534" lon="8.884646996511597"><ele>100.0</ele><time>2026-03-29T15:11:44Z</time></trkpt><trkpt lat="45.289240141884946" lon="8.884780377452032"><ele>100.0</ele><time>2026-03-29T15:11:45Z</time></trkpt><trkpt lat="45.28812855792415" lon="8.885822153530698"><ele>100.16666666666667</ele><time>2026-03-29T15:12:33Z</time></trkpt><trkpt lat="45.28807427116755" lon="8.885913639805063"><ele>100.33333333333334</ele><time>2026-03-29T15:12:36Z</time></trkpt><trkpt lat="45.28809200124608" lon="8.886022782623247"><ele>100.5</ele><time>2026-03-29T15:12:39Z</time></trkpt><trkpt lat="45.288162157910065" lon="8.886060917544295"><ele>100.66666666666666</ele><time>2026-03-29T15:12:41Z</time></trkpt><trkpt lat="45.28823171164343" lon="8.886116768797812"><ele>100.83333333333333</ele><time>2026-03-29T15:12:43Z</time></trkpt><trkpt lat="45.28830760903767" lon="8.886195193026218"><ele>101.0</ele><time>2026-03-29T15:12:45Z</time></trkpt><trkpt lat="45.28836933057086" lon="8.886255634725039"><ele>100.33333333333333</ele><time>2026-03-29T15:12:47Z</time></trkpt><trkpt lat="45.28841411913148" lon="8.886330074309704"><ele>99.66666666666666</ele><time>2026-03-29T15:12:51Z</time></trkpt><trkpt lat="45.288334536853625" lon="8.886230024684446"><ele>99.0</ele><time>2026-03-29T15:13:11Z</time></trkpt><trkpt lat="45.28827540049784" lon="8.886168776314133"><ele>98.33333333333334</ele><time>2026-03-29T15:13:13Z</time></trkpt><trkpt lat="45.288227627142454" lon="8.886096976335567"><ele>97.66666666666667</ele><time>2026-03-29T15:13:15Z</time></trkpt><trkpt lat="45.2881470876522" lon="8.886032338088029"><ele>97.0</ele><time>2026-03-29T15:13:17Z</time></trkpt><trkpt lat="45.28809342022955" lon="8.885975198002798"><ele>97.75</ele><time>2026-03-29T15:13:55Z</time></trkpt><trkpt lat="45.28821322742761" lon="8.885752444705203"><ele>98.5</ele><time>2026-03-29T15:13:59Z</time></trkpt><trkpt lat="45.28828090896726" lon="8.885693626081741"><ele>99.25</ele><time>2026-03-29T15:14:00Z</time></trkpt><trkpt lat="45.28836087745217" lon="8.88562570537876"><ele>100.0</ele><time>2026-03-29T15:14:01Z</time></trkpt><trkpt lat="45.28845845906629" lon="8.885541659623069"><ele>100.0</ele><time>2026-03-29T15:14:02Z</time></trkpt><trkpt lat="45.28855950960057" lon="8.885446561116005"><ele>100.0</ele><time>2026-03-29T15:14:03Z</time></trkpt><trkpt lat="45.28866825335757" lon="8.885339726302428"><ele>100.0</ele><time>2026-03-29T15:14:04Z</time></trkpt><trkpt lat="45.28878732100996" lon="8.885225835497057"><ele>100.0</ele><time>2026-03-29T15:14:05Z</time></trkpt><trkpt lat="45.2889023534859" lon="8.88511839026362"><ele>100.0</ele><time>2026-03-29T15:14:06Z</time></trkpt><trkpt lat="45.2890285851504" lon="8.885005612898103"><ele>100.0</ele><time>2026-03-29T15:14:07Z</time></trkpt><trkpt lat="45.289159308977986" lon="8.884893842263704"><ele>100.0</ele><time>2026-03-29T15:14:08Z</time></trkpt><trkpt lat="45.28928850950605" lon="8.88478758125689"><ele>100.0</ele><time>2026-03-29T15:14:09Z</time></trkpt><trkpt lat="45.28940586460609" lon="8.884690485749225"><ele>100.0</ele><time>2026-03-29T15:14:10Z</time></trkpt><trkpt lat="45.289510456130714" lon="8.884610838448571"><ele>100.0</ele><time>2026-03-29T15:14:11Z</time></trkpt><trkpt lat="45.28960878436087" lon="8.884520002865765"><ele>100.0</ele><time>2026-03-29T15:14:12Z</time></trkpt><trkpt lat="45.28968566341164" lon="8.884450634276153"><ele>100.2</ele><time>2026-03-29T15:14:13Z</time></trkpt><trkpt lat="45.28976853302178" lon="8.884386729830416"><ele>100.4</ele><time>2026-03-29T15:14:15Z</time></trkpt><trkpt lat="45.28981515330879" lon="8.884485701630343"><ele>100.6</ele><time>2026-03-29T15:14:19Z</time></trkpt><trkpt lat="45.28988318378806" lon="8.88464655775955"><ele>100.8</ele><time>2026-03-29T15:14:21Z</time></trkpt><trkpt lat="45.28990521718892" lon="8.884772456097007"><ele>101.0</ele><time>2026-03-29T15:14:22Z</time></trkpt><trkpt lat="45.2899462161709" lon="8.88487519537706"><ele>101.0</ele><time>2026-03-29T15:14:23Z</time></trkpt><trkpt lat="45.290003330795365" lon="8.8850036490425"><ele>101.0</ele><time>2026-03-29T15:14:24Z</time></trkpt><trkpt lat="45.29005929230465" lon="8.885132262303005"><ele>101.0</ele><time>2026-03-29T15:14:25Z</time></trkpt><trkpt lat="45.29012114279545" lon="8.885258902805473"><ele>101.0</ele><time>2026-03-29T15:14:26Z</time></trkpt><trkpt lat="45.290176328035436" lon="8.885404680823333"><ele>101.0</ele><time>2026-03-29T15:14:27Z</time></trkpt><trkpt lat="45.29022917769584" lon="8.885520414044514"><ele>100.99999999999999</ele><time>2026-03-29T15:14:28Z</time></trkpt><trkpt lat="45.29027921774028" lon="8.885636366865844"><ele>101.0</ele><time>2026-03-29T15:14:29Z</time></trkpt><trkpt lat="45.29032280394951" lon="8.88572898217979"><ele>101.0</ele><time>2026-03-29T15:14:30Z</time></trkpt><trkpt lat="45.290339823927624" lon="8.885847679307597"><ele>101.0</ele><time>2026-03-29T15:14:32Z</time></trkpt><trkpt lat="45.29028604565944" lon="8.88595147286057"><ele>100.99999999999999</ele><time>2026-03-29T15:14:33.999Z</time></trkpt><trkpt lat="45.29020943478065" lon="8.88600156575793"><ele>101.0</ele><time>2026-03-29T15:14:34.999Z</time></trkpt><trkpt lat="45.29013703427956" lon="8.886050461651294"><ele>100.66666666666666</ele><time>2026-03-29T15:14:35.999Z</time></trkpt><trkpt lat="45.290072384325" lon="8.886102431614516"><ele>100.33333333333333</ele><time>2026-03-29T15:14:36.999Z</time></trkpt><trkpt lat="45.29001338365041" lon="8.886150004596047"><ele>100.0</ele><time>2026-03-29T15:14:37.999Z</time></trkpt><trkpt lat="45.28993484006858" lon="8.886239861809415"><ele>99.66666666666666</ele><time>2026-03-29T15:14:39.999Z</time></trkpt><trkpt lat="45.28990899628113" lon="8.886373612256683"><ele>99.33333333333333</ele><time>2026-03-29T15:14:41.999Z</time></trkpt><trkpt lat="45.289926521407594" lon="8.886481092932454"><ele>99.0</ele><time>2026-03-29T15:14:42.999Z</time></trkpt><trkpt lat="45.28995283911764" lon="8.88661038898994"><ele>99.0</ele><time>2026-03-29T15:14:43.999Z</time></trkpt><trkpt lat="45.28998204195331" lon="8.886748287521861"><ele>99.0</ele><time>2026-03-29T15:14:44.999Z</time></trkpt><trkpt lat="45.290007532949545" lon="8.88686878529656"><ele>99.0</ele><time>2026-03-29T15:14:45.999Z</time></trkpt><trkpt lat="45.29003501509947" lon="8.886975504064067"><ele>99.0</ele><time>2026-03-29T15:14:46.999Z</time></trkpt><trkpt lat="45.29005972608074" lon="8.887082177266464"><ele>99.0</ele><time>2026-03-29T15:14:47.999Z</time></trkpt><trkpt lat="45.29008164044216" lon="8.887179729511438"><ele>99.0</ele><time>2026-03-29T15:14:48.999Z</time></trkpt><trkpt lat="45.290113228402625" lon="8.887336482037268"><ele>98.4</ele><time>2026-03-29T15:14:50.999Z</time></trkpt><trkpt lat="45.29015412006211" lon="8.887493021853452"><ele>97.80000000000001</ele><time>2026-03-29T15:14:52.999Z</time></trkpt><trkpt lat="45.29017898536874" lon="8.887590390763865"><ele>97.19999999999999</ele><time>2026-03-29T15:14:53.999Z</time></trkpt><trkpt lat="45.290214515287175" lon="8.887746762449346"><ele>96.6</ele><time>2026-03-29T15:14:55.999Z</time></trkpt><trkpt lat="45.2902438902886" lon="8.887836098832913"><ele>96.0</ele><time>2026-03-29T15:14:56.999Z</time></trkpt><trkpt lat="45.290270969157255" lon="8.887946655875218"><ele>96.0</ele><time>2026-03-29T15:14:57.999Z</time></trkpt><trkpt lat="45.29030016504599" lon="8.888067809719592"><ele>96.0</ele><time>2026-03-29T15:14:58.999Z</time></trkpt><trkpt lat="45.290338521334334" lon="8.888216695208712"><ele>96.0</ele><time>2026-03-29T15:14:59.999Z</time></trkpt><trkpt lat="45.29039104869143" lon="8.888391883028406"><ele>96.0</ele><time>2026-03-29T15:15:00.999Z</time></trkpt><trkpt lat="45.29043442031065" lon="8.888550466799586"><ele>96.0</ele><time>2026-03-29T15:15:01.999Z</time></trkpt><trkpt lat="45.290476702999264" lon="8.888694078576183"><ele>96.0</ele><time>2026-03-29T15:15:02.999Z</time></trkpt><trkpt lat="45.29052216933009" lon="8.888855384381186"><ele>96.0</ele><time>2026-03-29T15:15:03.999Z</time></trkpt><trkpt lat="45.290572034263164" lon="8.889033843056467"><ele>96.0</ele><time>2026-03-29T15:15:04.999Z</time></trkpt><trkpt lat="45.29062654834988" lon="8.8892319047106"><ele>96.0</ele><time>2026-03-29T15:15:05.999Z</time></trkpt><trkpt lat="45.29068660017941" lon="8.889454037600846"><ele>96.0</ele><time>2026-03-29T15:15:06.999Z</time></trkpt><trkpt lat="45.29075142325353" lon="8.889694102526557"><ele>96.0</ele><time>2026-03-29T15:15:07.999Z</time></trkpt><trkpt lat="45.290815554539925" lon="8.889922803690569"><ele>95.33333333333333</ele><time>2026-03-29T15:15:08.999Z</time></trkpt><trkpt lat="45.29087960646982" lon="8.890154044765564"><ele>94.66666666666666</ele><time>2026-03-29T15:15:09.999Z</time></trkpt><trkpt lat="45.290944160318475" lon="8.890387508340691"><ele>94.0</ele><time>2026-03-29T15:15:10.999Z</time></trkpt><trkpt lat="45.29101065836023" lon="8.890625262941345"><ele>94.0</ele><time>2026-03-29T15:15:11.999Z</time></trkpt><trkpt lat="45.29107319010572" lon="8.890860220530657"><ele>94.0</ele><time>2026-03-29T15:15:13Z</time></trkpt><trkpt lat="45.291135509461924" lon="8.891103574830836"><ele>94.0</ele><time>2026-03-29T15:15:14Z</time></trkpt><trkpt lat="45.29119899825164" lon="8.891345664880477"><ele>93.66666666666666</ele><time>2026-03-29T15:15:15Z</time></trkpt><trkpt lat="45.2912612511175" lon="8.89158977256741"><ele>93.33333333333333</ele><time>2026-03-29T15:15:16Z</time></trkpt><trkpt lat="45.291321454797384" lon="8.891830890739326"><ele>93.0</ele><time>2026-03-29T15:15:17Z</time></trkpt><trkpt lat="45.29137629183752" lon="8.892058712049586"><ele>93.33333333333333</ele><time>2026-03-29T15:15:18Z</time></trkpt><trkpt lat="45.29143306468354" lon="8.892290973551777"><ele>93.66666666666666</ele><time>2026-03-29T15:15:19Z</time></trkpt><trkpt lat="45.29149428866876" lon="8.89252119616994"><ele>94.0</ele><time>2026-03-29T15:15:20Z</time></trkpt><trkpt lat="45.29156025167474" lon="8.892733882278677"><ele>94.0</ele><time>2026-03-29T15:15:21Z</time></trkpt><trkpt lat="45.29163792360131" lon="8.892916309386822"><ele>94.0</ele><time>2026-03-29T15:15:22Z</time></trkpt><trkpt lat="45.29174618374425" lon="8.893094381383511"><ele>94.0</ele><time>2026-03-29T15:15:23Z</time></trkpt><trkpt lat="45.29187232336251" lon="8.893240386510588"><ele>94.0</ele><time>2026-03-29T15:15:24Z</time></trkpt><trkpt lat="45.292008862023344" lon="8.8933672619581"><ele>94.0</ele><time>2026-03-29T15:15:25Z</time></trkpt><trkpt lat="45.292149700842806" lon="8.893505094952221"><ele>94.0</ele><time>2026-03-29T15:15:26Z</time></trkpt><trkpt lat="45.292284767386406" lon="8.893646303906982"><ele>94.0</ele><time>2026-03-29T15:15:27Z</time></trkpt><trkpt lat="45.29241807593094" lon="8.893785258793077"><ele>94.0</ele><time>2026-03-29T15:15:28Z</time></trkpt><trkpt lat="45.292533206078396" lon="8.893903673391986"><ele>94.0</ele><time>2026-03-29T15:15:29Z</time></trkpt><trkpt lat="45.292644432636756" lon="8.894024818739446"><ele>94.0</ele><time>2026-03-29T15:15:30Z</time></trkpt><trkpt lat="45.292754961615685" lon="8.894154059966649"><ele>94.0</ele><time>2026-03-29T15:15:31Z</time></trkpt><trkpt lat="45.29284920260526" lon="8.894296986567275"><ele>94.0</ele><time>2026-03-29T15:15:32Z</time></trkpt><trkpt lat="45.292934867321804" lon="8.89448213623176"><ele>94.0</ele><time>2026-03-29T15:15:33Z</time></trkpt><trkpt lat="45.29301054007851" lon="8.894702795589374"><ele>94.0</ele><time>2026-03-29T15:15:34Z</time></trkpt><trkpt lat="45.29306784648649" lon="8.894932865776903"><ele>94.0</ele><time>2026-03-29T15:15:35Z</time></trkpt><trkpt lat="45.29313174530403" lon="8.895176826847894"><ele>94.0</ele><time>2026-03-29T15:15:36Z</time></trkpt><trkpt lat="45.29321015747713" lon="8.895432620240202"><ele>93.66666666666666</ele><time>2026-03-29T15:15:37Z</time></trkpt><trkpt lat="45.293285862519895" lon="8.895669271228389"><ele>93.33333333333333</ele><time>2026-03-29T15:15:38Z</time></trkpt><trkpt lat="45.293367201720265" lon="8.895923294193155"><ele>93.0</ele><time>2026-03-29T15:15:39Z</time></trkpt><trkpt lat="45.29345031533993" lon="8.896182497642215"><ele>92.66666666666667</ele><time>2026-03-29T15:15:40Z</time></trkpt><trkpt lat="45.29353078194815" lon="8.896429556279243"><ele>92.33333333333334</ele><time>2026-03-29T15:15:41Z</time></trkpt><trkpt lat="45.293608273391406" lon="8.896660489990479"><ele>92.0</ele><time>2026-03-29T15:15:42Z</time></trkpt><trkpt lat="45.29369443759104" lon="8.896887668916776"><ele>92.0</ele><time>2026-03-29T15:15:43Z</time></trkpt><trkpt lat="45.29379229254835" lon="8.897118974176061"><ele>92.0</ele><time>2026-03-29T15:15:44Z</time></trkpt><trkpt lat="45.29388563868278" lon="8.897347846990654"><ele>92.0</ele><time>2026-03-29T15:15:45Z</time></trkpt><trkpt lat="45.29397057823902" lon="8.897587112236211"><ele>90.66666666666667</ele><time>2026-03-29T15:15:46Z</time></trkpt><trkpt lat="45.2940545538368" lon="8.897835864313787"><ele>89.33333333333333</ele><time>2026-03-29T15:15:47Z</time></trkpt><trkpt lat="45.29413412568655" lon="8.898102587869708"><ele>88.0</ele><time>2026-03-29T15:15:48Z</time></trkpt><trkpt lat="45.29420224740218" lon="8.898335656386157"><ele>88.33333333333333</ele><time>2026-03-29T15:15:49Z</time></trkpt><trkpt lat="45.294254746506326" lon="8.8986298256763"><ele>88.66666666666667</ele><time>2026-03-29T15:15:50Z</time></trkpt><trkpt lat="45.294297587483925" lon="8.898904741887186"><ele>89.0</ele><time>2026-03-29T15:15:51Z</time></trkpt><trkpt lat="45.29433278336866" lon="8.89920605308149"><ele>88.66666666666667</ele><time>2026-03-29T15:15:52Z</time></trkpt><trkpt lat="45.294369839607455" lon="8.899503431452338"><ele>88.33333333333333</ele><time>2026-03-29T15:15:53Z</time></trkpt><trkpt lat="45.29441109974218" lon="8.899786435900742"><ele>88.0</ele><time>2026-03-29T15:15:54Z</time></trkpt><trkpt lat="45.29444807025" lon="8.900034765470132"><ele>87.0</ele><time>2026-03-29T15:15:55Z</time></trkpt><trkpt lat="45.29448594645255" lon="8.900265186100253"><ele>86.0</ele><time>2026-03-29T15:15:56Z</time></trkpt><trkpt lat="45.29453946767627" lon="8.900497225544317"><ele>85.0</ele><time>2026-03-29T15:15:57Z</time></trkpt><trkpt lat="45.29461649609948" lon="8.900725493155733"><ele>85.33333333333333</ele><time>2026-03-29T15:15:58Z</time></trkpt><trkpt lat="45.29471003769328" lon="8.900944266689024"><ele>85.66666666666667</ele><time>2026-03-29T15:15:59Z</time></trkpt><trkpt lat="45.29480615167851" lon="8.901161558274046"><ele>86.0</ele><time>2026-03-29T15:16:00Z</time></trkpt><trkpt lat="45.29490386220964" lon="8.901388669822717"><ele>86.0</ele><time>2026-03-29T15:16:01Z</time></trkpt><trkpt lat="45.294989271616174" lon="8.901590781590562"><ele>86.0</ele><time>2026-03-29T15:16:02Z</time></trkpt><trkpt lat="45.29507086778939" lon="8.901776675931053"><ele>86.0</ele><time>2026-03-29T15:16:03Z</time></trkpt><trkpt lat="45.29513857436706" lon="8.901979718175795"><ele>85.75</ele><time>2026-03-29T15:16:04Z</time></trkpt><trkpt lat="45.295212416451335" lon="8.902154277361646"><ele>85.5</ele><time>2026-03-29T15:16:05Z</time></trkpt><trkpt lat="45.295285669485494" lon="8.902327351440274"><ele>85.25</ele><time>2026-03-29T15:16:06Z</time></trkpt><trkpt lat="45.295357843000225" lon="8.90249869301992"><ele>85.0</ele><time>2026-03-29T15:16:07Z</time></trkpt><trkpt lat="45.29542823163528" lon="8.902668355769748"><ele>85.0</ele><time>2026-03-29T15:16:08Z</time></trkpt><trkpt lat="45.295490655411335" lon="8.90281882020338"><ele>85.0</ele><time>2026-03-29T15:16:09Z</time></trkpt><trkpt lat="45.295548313998474" lon="8.902957798779195"><ele>85.0</ele><time>2026-03-29T15:16:10Z</time></trkpt><trkpt lat="45.2956068979114" lon="8.903093678446368"><ele>85.0</ele><time>2026-03-29T15:16:11Z</time></trkpt><trkpt lat="45.295684013196585" lon="8.903231560809845"><ele>85.0</ele><time>2026-03-29T15:16:12Z</time></trkpt><trkpt lat="45.29574814365581" lon="8.903393637907486"><ele>85.0</ele><time>2026-03-29T15:16:13Z</time></trkpt><trkpt lat="45.295806051022055" lon="8.9035681211282"><ele>85.0</ele><time>2026-03-29T15:16:14Z</time></trkpt><trkpt lat="45.29584559306086" lon="8.90377070165512"><ele>85.0</ele><time>2026-03-29T15:16:15Z</time></trkpt><trkpt lat="45.29587232576739" lon="8.903983206924877"><ele>85.0</ele><time>2026-03-29T15:16:16Z</time></trkpt><trkpt lat="45.29589712772589" lon="8.904177364206499"><ele>85.0</ele><time>2026-03-29T15:16:17Z</time></trkpt><trkpt lat="45.29592353706861" lon="8.904365349906296"><ele>85.0</ele><time>2026-03-29T15:16:18Z</time></trkpt><trkpt lat="45.29594914358046" lon="8.904542248617172"><ele>85.0</ele><time>2026-03-29T15:16:19Z</time></trkpt><trkpt lat="45.29597661826978" lon="8.904713031697643"><ele>84.5</ele><time>2026-03-29T15:16:20Z</time></trkpt><trkpt lat="45.29600536790205" lon="8.90487834617477"><ele>84.0</ele><time>2026-03-29T15:16:21Z</time></trkpt><trkpt lat="45.29602953548542" lon="8.905032488075694"><ele>83.5</ele><time>2026-03-29T15:16:22Z</time></trkpt><trkpt lat="45.29605172034406" lon="8.905188409269382"><ele>83.0</ele><time>2026-03-29T15:16:23Z</time></trkpt><trkpt lat="45.29607733636507" lon="8.905358090976128"><ele>82.60000000000001</ele><time>2026-03-29T15:16:24Z</time></trkpt><trkpt lat="45.296102036609824" lon="8.905529007919641"><ele>82.2</ele><time>2026-03-29T15:16:25Z</time></trkpt><trkpt lat="45.29612601504978" lon="8.905685046178307"><ele>81.8</ele><time>2026-03-29T15:16:26Z</time></trkpt><trkpt lat="45.29614697411635" lon="8.905830345865844"><ele>81.4</ele><time>2026-03-29T15:16:27Z</time></trkpt><trkpt lat="45.29616443421026" lon="8.905962744879284"><ele>81.0</ele><time>2026-03-29T15:16:28Z</time></trkpt><trkpt lat="45.29616638325912" lon="8.90607076975141"><ele>81.0</ele><time>2026-03-29T15:16:29Z</time></trkpt><trkpt lat="45.29614662961167" lon="8.906162576822434"><ele>81.0</ele><time>2026-03-29T15:16:30Z</time></trkpt><trkpt lat="45.29609698844848" lon="8.90625578398894"><ele>81.0</ele><time>2026-03-29T15:16:31Z</time></trkpt><trkpt lat="45.295994072063266" lon="8.906293821353204"><ele>81.0</ele><time>2026-03-29T15:16:32Z</time></trkpt><trkpt lat="45.29591127303093" lon="8.906397640768017"><ele>81.0</ele><time>2026-03-29T15:16:33Z</time></trkpt><trkpt lat="45.29579869168386" lon="8.906493335685445"><ele>81.0</ele><time>2026-03-29T15:16:34Z</time></trkpt><trkpt lat="45.29568873727768" lon="8.90659914044605"><ele>81.0</ele><time>2026-03-29T15:16:35Z</time></trkpt><trkpt lat="45.29558264949657" lon="8.906696423871402"><ele>81.0</ele><time>2026-03-29T15:16:36Z</time></trkpt><trkpt lat="45.29548316819029" lon="8.90678503678"><ele>81.0</ele><time>2026-03-29T15:16:37Z</time></trkpt><trkpt lat="45.29538604127382" lon="8.906868537607757"><ele>81.0</ele><time>2026-03-29T15:16:38Z</time></trkpt><trkpt lat="45.29529968567992" lon="8.90691913931326"><ele>81.0</ele><time>2026-03-29T15:16:39Z</time></trkpt><trkpt lat="45.29522082517044" lon="8.906979261933179"><ele>81.0</ele><time>2026-03-29T15:16:40Z</time></trkpt><trkpt lat="45.295165603403774" lon="8.907059210254554"><ele>81.0</ele><time>2026-03-29T15:16:41Z</time></trkpt><trkpt lat="45.29514527747184" lon="8.907172754211787"><ele>81.0</ele><time>2026-03-29T15:16:41.999Z</time></trkpt><trkpt lat="45.29520260512568" lon="8.907356303243027"><ele>81.0</ele><time>2026-03-29T15:16:43.999Z</time></trkpt><trkpt lat="45.29523731422739" lon="8.907491664436883"><ele>81.0</ele><time>2026-03-29T15:16:44.999Z</time></trkpt><trkpt lat="45.29527372599283" lon="8.907669963968532"><ele>81.0</ele><time>2026-03-29T15:16:45.999Z</time></trkpt><trkpt lat="45.295309038963396" lon="8.907852874225272"><ele>81.0</ele><time>2026-03-29T15:16:46.999Z</time></trkpt><trkpt lat="45.29534814715065" lon="8.908041198758365"><ele>80.75</ele><time>2026-03-29T15:16:47.999Z</time></trkpt><trkpt lat="45.29539248830533" lon="8.908250886655333"><ele>80.5</ele><time>2026-03-29T15:16:48.999Z</time></trkpt><trkpt lat="45.29543518556783" lon="8.908456279363037"><ele>80.25</ele><time>2026-03-29T15:16:49.999Z</time></trkpt><trkpt lat="45.29547930524321" lon="8.908647623061276"><ele>80.0</ele><time>2026-03-29T15:16:50.999Z</time></trkpt><trkpt lat="45.29551952063626" lon="8.908851959036834"><ele>80.0</ele><time>2026-03-29T15:16:51.999Z</time></trkpt><trkpt lat="45.29556444564542" lon="8.909064154014361"><ele>80.0</ele><time>2026-03-29T15:16:52.999Z</time></trkpt><trkpt lat="45.29561087427185" lon="8.909277251641335"><ele>80.0</ele><time>2026-03-29T15:16:53.999Z</time></trkpt><trkpt lat="45.29565156000298" lon="8.909462429188572"><ele>80.0</ele><time>2026-03-29T15:16:54.999Z</time></trkpt><trkpt lat="45.29569005656415" lon="8.90964013901121"><ele>80.0</ele><time>2026-03-29T15:16:55.999Z</time></trkpt><trkpt lat="45.29572420502368" lon="8.90980802431985"><ele>80.0</ele><time>2026-03-29T15:16:56.999Z</time></trkpt><trkpt lat="45.29575698237931" lon="8.909959152218478"><ele>80.0</ele><time>2026-03-29T15:16:57.999Z</time></trkpt><trkpt lat="45.295782525634" lon="8.910085599773645"><ele>80.0</ele><time>2026-03-29T15:16:58.999Z</time></trkpt><trkpt lat="45.2958042949104" lon="8.910200559431507"><ele>80.0</ele><time>2026-03-29T15:16:59.999Z</time></trkpt><trkpt lat="45.29582501750808" lon="8.910297341880229"><ele>79.8</ele><time>2026-03-29T15:17:00.999Z</time></trkpt><trkpt lat="45.29584711555111" lon="8.910384172509843"><ele>79.6</ele><time>2026-03-29T15:17:01.999Z</time></trkpt><trkpt lat="45.29585756704055" lon="8.91053615004187"><ele>79.4</ele><time>2026-03-29T15:17:03.999Z</time></trkpt><trkpt lat="45.29580539877534" lon="8.91069355111024"><ele>79.2</ele><time>2026-03-29T15:17:05.999Z</time></trkpt><trkpt lat="45.29573285252653" lon="8.910763976012602"><ele>79.0</ele><time>2026-03-29T15:17:06.999Z</time></trkpt><trkpt lat="45.295665638874155" lon="8.910887355208756"><ele>79.0</ele><time>2026-03-29T15:17:07.999Z</time></trkpt><trkpt lat="45.29558081786935" lon="8.911003741662"><ele>79.0</ele><time>2026-03-29T15:17:08.999Z</time></trkpt><trkpt lat="45.295497451693656" lon="8.91114445285574"><ele>79.0</ele><time>2026-03-29T15:17:09.999Z</time></trkpt><trkpt lat="45.29541828843933" lon="8.911308929552153"><ele>79.0</ele><time>2026-03-29T15:17:10.999Z</time></trkpt><trkpt lat="45.29534466891314" lon="8.911473102067859"><ele>79.0</ele><time>2026-03-29T15:17:11.999Z</time></trkpt><trkpt lat="45.29527186926084" lon="8.911628160967373"><ele>79.0</ele><time>2026-03-29T15:17:12.999Z</time></trkpt><trkpt lat="45.29519435450786" lon="8.911773459459472"><ele>79.0</ele><time>2026-03-29T15:17:13.999Z</time></trkpt><trkpt lat="45.29510694259443" lon="8.911912025964385"><ele>79.0</ele><time>2026-03-29T15:17:14.999Z</time></trkpt><trkpt lat="45.29500850357849" lon="8.912030643777225"><ele>79.25</ele><time>2026-03-29T15:17:15.999Z</time></trkpt><trkpt lat="45.294891092686164" lon="8.912133875498952"><ele>79.5</ele><time>2026-03-29T15:17:16.999Z</time></trkpt><trkpt lat="45.29475983362687" lon="8.912207457244952"><ele>79.75</ele><time>2026-03-29T15:17:17.999Z</time></trkpt><trkpt lat="45.29462828135558" lon="8.912285530607114"><ele>80.0</ele><time>2026-03-29T15:17:19Z</time></trkpt><trkpt lat="45.29448335919969" lon="8.912358842296694"><ele>79.33333333333334</ele><time>2026-03-29T15:17:20Z</time></trkpt><trkpt lat="45.294324872158036" lon="8.912432138532525"><ele>78.66666666666667</ele><time>2026-03-29T15:17:21Z</time></trkpt><trkpt lat="45.29418726024654" lon="8.912498821760076"><ele>78.0</ele><time>2026-03-29T15:17:22Z</time></trkpt><trkpt lat="45.294044189846595" lon="8.91256308020972"><ele>79.0</ele><time>2026-03-29T15:17:23Z</time></trkpt><trkpt lat="45.29389712124212" lon="8.912619164159018"><ele>80.0</ele><time>2026-03-29T15:17:24Z</time></trkpt><trkpt lat="45.29376860658039" lon="8.912662804130651"><ele>81.0</ele><time>2026-03-29T15:17:25Z</time></trkpt><trkpt lat="45.29364547415439" lon="8.912696072407153"><ele>82.0</ele><time>2026-03-29T15:17:26Z</time></trkpt><trkpt lat="45.29352641545384" lon="8.912705307852056"><ele>82.0</ele><time>2026-03-29T15:17:27Z</time></trkpt><trkpt lat="45.29341667977173" lon="8.912699771308375"><ele>82.0</ele><time>2026-03-29T15:17:28Z</time></trkpt><trkpt lat="45.29331442090696" lon="8.912692826206904"><ele>82.0</ele><time>2026-03-29T15:17:29Z</time></trkpt><trkpt lat="45.29323323521042" lon="8.912688318173085"><ele>82.0</ele><time>2026-03-29T15:17:30Z</time></trkpt><trkpt lat="45.293167097451686" lon="8.912707915557538"><ele>82.0</ele><time>2026-03-29T15:17:31Z</time></trkpt><trkpt lat="45.29306243674312" lon="8.912726198159719"><ele>82.0</ele><time>2026-03-29T15:17:33Z</time></trkpt><trkpt lat="45.29303631585852" lon="8.912865580286132"><ele>82.0</ele><time>2026-03-29T15:17:35Z</time></trkpt><trkpt lat="45.293043207673925" lon="8.912956617173533"><ele>82.0</ele><time>2026-03-29T15:17:36Z</time></trkpt><trkpt lat="45.29306097050226" lon="8.91306989476862"><ele>82.0</ele><time>2026-03-29T15:17:37Z</time></trkpt><trkpt lat="45.29307334414102" lon="8.913192021346555"><ele>82.0</ele><time>2026-03-29T15:17:38Z</time></trkpt><trkpt lat="45.29308139781754" lon="8.913291473879774"><ele>82.0</ele><time>2026-03-29T15:17:39Z</time></trkpt><trkpt lat="45.29309133626896" lon="8.913427665474256"><ele>82.0</ele><time>2026-03-29T15:17:40Z</time></trkpt><trkpt lat="45.29310392495377" lon="8.91356976907068"><ele>82.0</ele><time>2026-03-29T15:17:41Z</time></trkpt><trkpt lat="45.29313748078031" lon="8.913678588394943"><ele>82.0</ele><time>2026-03-29T15:17:42Z</time></trkpt><trkpt lat="45.293154204954554" lon="8.913833247704648"><ele>82.0</ele><time>2026-03-29T15:17:43Z</time></trkpt><trkpt lat="45.293166498666714" lon="8.913980103872328"><ele>82.0</ele><time>2026-03-29T15:17:44Z</time></trkpt><trkpt lat="45.29317754630733" lon="8.914112467305422"><ele>82.0</ele><time>2026-03-29T15:17:45Z</time></trkpt><trkpt lat="45.29319328619618" lon="8.914258048354554"><ele>82.0</ele><time>2026-03-29T15:17:46Z</time></trkpt><trkpt lat="45.293203244501484" lon="8.914381820769206"><ele>82.0</ele><time>2026-03-29T15:17:47Z</time></trkpt><trkpt lat="45.29321355936217" lon="8.91449819869753"><ele>82.0</ele><time>2026-03-29T15:17:48Z</time></trkpt><trkpt lat="45.29322309061669" lon="8.91461184503288"><ele>82.0</ele><time>2026-03-29T15:17:49Z</time></trkpt><trkpt lat="45.2932335622624" lon="8.914705787203559"><ele>82.0</ele><time>2026-03-29T15:17:50Z</time></trkpt><trkpt lat="45.29323484028006" lon="8.91485443592836"><ele>82.0</ele><time>2026-03-29T15:17:52Z</time></trkpt><trkpt lat="45.29324595378526" lon="8.914972284014686"><ele>82.0</ele><time>2026-03-29T15:17:54Z</time></trkpt><trkpt lat="45.293256105419445" lon="8.915087626990141"><ele>82.0</ele><time>2026-03-29T15:17:57Z</time></trkpt><trkpt lat="45.29326639678745" lon="8.915200754144834"><ele>82.0</ele><time>2026-03-29T15:18:00Z</time></trkpt><trkpt lat="45.29327980077734" lon="8.915348096599814"><ele>82.0</ele><time>2026-03-29T15:18:03Z</time></trkpt><trkpt lat="45.293181498695105" lon="8.915448823826395"><ele>81.83333333333333</ele><time>2026-03-29T15:18:04Z</time></trkpt><trkpt lat="45.293186169513724" lon="8.915590733809207"><ele>81.66666666666666</ele><time>2026-03-29T15:18:06Z</time></trkpt><trkpt lat="45.29318567059871" lon="8.915693192450613"><ele>81.5</ele><time>2026-03-29T15:18:07Z</time></trkpt><trkpt lat="45.29319675697431" lon="8.915803372345923"><ele>81.33333333333333</ele><time>2026-03-29T15:18:08Z</time></trkpt><trkpt lat="45.29321423926825" lon="8.915892327104217"><ele>81.16666666666667</ele><time>2026-03-29T15:18:09Z</time></trkpt><trkpt lat="45.293221439077385" lon="8.915982452901021"><ele>81.0</ele><time>2026-03-29T15:18:10Z</time></trkpt><trkpt lat="45.2932455419917" lon="8.916142868977541"><ele>80.83333333333333</ele><time>2026-03-29T15:18:12Z</time></trkpt><trkpt lat="45.29326317569614" lon="8.916296336323915"><ele>80.66666666666667</ele><time>2026-03-29T15:18:14Z</time></trkpt><trkpt lat="45.29328645980556" lon="8.916388618364746"><ele>80.5</ele><time>2026-03-29T15:18:16Z</time></trkpt><trkpt lat="45.29334720716423" lon="8.91643607828888"><ele>80.33333333333334</ele><time>2026-03-29T15:18:18Z</time></trkpt><trkpt lat="45.29343292280229" lon="8.916423422357989"><ele>80.16666666666667</ele><time>2026-03-29T15:18:20Z</time></trkpt><trkpt lat="45.29351242440064" lon="8.916454056844648"><ele>80.0</ele><time>2026-03-29T15:18:23Z</time></trkpt><trkpt lat="45.29354006151263" lon="8.916537579397211"><ele>80.0</ele><time>2026-03-29T15:18:25Z</time></trkpt><trkpt lat="45.293540418506446" lon="8.916692713124473"><ele>80.0</ele><time>2026-03-29T15:18:40Z</time></trkpt><trkpt lat="45.29354388047447" lon="8.916792001608151"><ele>80.0</ele><time>2026-03-29T15:18:41Z</time></trkpt><trkpt lat="45.293542958847496" lon="8.916897072473349"><ele>80.0</ele><time>2026-03-29T15:18:42Z</time></trkpt><trkpt lat="45.293538082994566" lon="8.917010253479333"><ele>80.0</ele><time>2026-03-29T15:18:43Z</time></trkpt><trkpt lat="45.29353337004647" lon="8.917147681634255"><ele>80.0</ele><time>2026-03-29T15:18:44Z</time></trkpt><trkpt lat="45.29352788625042" lon="8.917297585699222"><ele>80.0</ele><time>2026-03-29T15:18:45Z</time></trkpt><trkpt lat="45.29352479631861" lon="8.917447614598256"><ele>80.0</ele><time>2026-03-29T15:18:46Z</time></trkpt><trkpt lat="45.293522476250835" lon="8.91758373915535"><ele>80.0</ele><time>2026-03-29T15:18:47Z</time></trkpt><trkpt lat="45.293520933848036" lon="8.91770650959084"><ele>80.0</ele><time>2026-03-29T15:18:48Z</time></trkpt><trkpt lat="45.293518301558315" lon="8.917856071871274"><ele>80.0</ele><time>2026-03-29T15:18:49Z</time></trkpt><trkpt lat="45.29351282700815" lon="8.918010092652864"><ele>80.0</ele><time>2026-03-29T15:18:50Z</time></trkpt><trkpt lat="45.29350818194615" lon="8.918136727740787"><ele>80.0</ele><time>2026-03-29T15:18:50.999Z</time></trkpt><trkpt lat="45.293500186226495" lon="8.918263406553315"><ele>80.0</ele><time>2026-03-29T15:18:51.999Z</time></trkpt><trkpt lat="45.293493592031034" lon="8.918383796247078"><ele>80.0</ele><time>2026-03-29T15:18:52.999Z</time></trkpt><trkpt lat="45.29348794813412" lon="8.918499536873531"><ele>80.0</ele><time>2026-03-29T15:18:53.999Z</time></trkpt><trkpt lat="45.293472233618935" lon="8.918649808908029"><ele>79.4</ele><time>2026-03-29T15:18:55.999Z</time></trkpt><trkpt lat="45.293480576187015" lon="8.918767840357077"><ele>78.8</ele><time>2026-03-29T15:18:57.999Z</time></trkpt><trkpt lat="45.293548006297904" lon="8.918851901407068"><ele>78.2</ele><time>2026-03-29T15:18:59.999Z</time></trkpt><trkpt lat="45.293610650250166" lon="8.91888123297159"><ele>77.6</ele><time>2026-03-29T15:19:00.999Z</time></trkpt><trkpt lat="45.293700060934476" lon="8.918910670428758"><ele>77.0</ele><time>2026-03-29T15:19:01.999Z</time></trkpt><trkpt lat="45.29382822944892" lon="8.918976026557592"><ele>77.0</ele><time>2026-03-29T15:19:02.999Z</time></trkpt><trkpt lat="45.29396772258914" lon="8.919018536646488"><ele>77.0</ele><time>2026-03-29T15:19:03.999Z</time></trkpt><trkpt lat="45.29407632757507" lon="8.919070598433565"><ele>77.0</ele><time>2026-03-29T15:19:04.999Z</time></trkpt><trkpt lat="45.294181129662825" lon="8.919117390622562"><ele>77.0</ele><time>2026-03-29T15:19:05.999Z</time></trkpt><trkpt lat="45.29428492878506" lon="8.919163094514177"><ele>77.0</ele><time>2026-03-29T15:19:06.999Z</time></trkpt><trkpt lat="45.29439190299699" lon="8.919213857658395"><ele>77.0</ele><time>2026-03-29T15:19:07.999Z</time></trkpt><trkpt lat="45.29448363914791" lon="8.919272788644045"><ele>77.0</ele><time>2026-03-29T15:19:08.999Z</time></trkpt><trkpt lat="45.29456910777517" lon="8.919288577148672"><ele>77.0</ele><time>2026-03-29T15:19:09.999Z</time></trkpt><trkpt lat="45.2946342400885" lon="8.919314150020762"><ele>77.0</ele><time>2026-03-29T15:19:10.999Z</time></trkpt><trkpt lat="45.29477067002008" lon="8.919377501508556"><ele>77.0</ele><time>2026-03-29T15:19:13.999Z</time></trkpt><trkpt lat="45.294822560691685" lon="8.919437625834714"><ele>77.0</ele><time>2026-03-29T15:19:16.999Z</time></trkpt><trkpt lat="45.29476070328542" lon="8.919644825648946"><ele>77.0</ele><time>2026-03-29T15:19:18.999Z</time></trkpt><trkpt lat="45.294693527226556" lon="8.91973212108511"><ele>77.0</ele><time>2026-03-29T15:19:19.999Z</time></trkpt><trkpt lat="45.29462096166655" lon="8.919862403546116"><ele>77.0</ele><time>2026-03-29T15:19:20.999Z</time></trkpt><trkpt lat="45.29455129961248" lon="8.919994367208078"><ele>77.0</ele><time>2026-03-29T15:19:21.999Z</time></trkpt><trkpt lat="45.29448974909208" lon="8.92015037470211"><ele>77.0</ele><time>2026-03-29T15:19:22.999Z</time></trkpt><trkpt lat="45.29441062337544" lon="8.920299653607847"><ele>77.0</ele><time>2026-03-29T15:19:23.999Z</time></trkpt><trkpt lat="45.29434662180778" lon="8.920435845146411"><ele>77.0</ele><time>2026-03-29T15:19:25Z</time></trkpt><trkpt lat="45.29429329841002" lon="8.92056797869996"><ele>77.0</ele><time>2026-03-29T15:19:26Z</time></trkpt><trkpt lat="45.2942521922687" lon="8.920692206685231"><ele>77.0</ele><time>2026-03-29T15:19:27Z</time></trkpt><trkpt lat="45.294227222131646" lon="8.920789663527936"><ele>77.0</ele><time>2026-03-29T15:19:28Z</time></trkpt><trkpt lat="45.29421599686685" lon="8.920886017696029"><ele>77.0</ele><time>2026-03-29T15:19:29Z</time></trkpt><trkpt lat="45.294199835680956" lon="8.920975242635844"><ele>77.0</ele><time>2026-03-29T15:19:30Z</time></trkpt><trkpt lat="45.294208120683734" lon="8.921072038231326"><ele>77.0</ele><time>2026-03-29T15:19:31Z</time></trkpt><trkpt lat="45.294253789069394" lon="8.921171853045452"><ele>77.16666666666667</ele><time>2026-03-29T15:19:32Z</time></trkpt><trkpt lat="45.29428418442609" lon="8.921283487386374"><ele>77.33333333333334</ele><time>2026-03-29T15:19:33Z</time></trkpt><trkpt lat="45.29432296455336" lon="8.921422156087715"><ele>77.5</ele><time>2026-03-29T15:19:34Z</time></trkpt><trkpt lat="45.29433921078238" lon="8.921543420881664"><ele>77.66666666666667</ele><time>2026-03-29T15:19:35Z</time></trkpt><trkpt lat="45.29437477697952" lon="8.92166278945134"><ele>77.83333333333333</ele><time>2026-03-29T15:19:36Z</time></trkpt><trkpt lat="45.29440643076652" lon="8.92177026259361"><ele>78.0</ele><time>2026-03-29T15:19:37Z</time></trkpt><trkpt lat="45.2944572597712" lon="8.921914757811285"><ele>78.66666666666667</ele><time>2026-03-29T15:19:39Z</time></trkpt><trkpt lat="45.29443957902476" lon="8.922016001689876"><ele>79.33333333333333</ele><time>2026-03-29T15:19:41Z</time></trkpt><trkpt lat="45.2943956000575" lon="8.922087917771213"><ele>80.0</ele><time>2026-03-29T15:19:43Z</time></trkpt><trkpt lat="45.29432434311799" lon="8.922058530588707"><ele>80.66666666666666</ele><time>2026-03-29T15:19:45Z</time></trkpt><trkpt lat="45.29418874044406" lon="8.922084385193372"><ele>81.33333333333333</ele><time>2026-03-29T15:19:47Z</time></trkpt><trkpt lat="45.29412031954369" lon="8.922100126489362"><ele>82.0</ele><time>2026-03-29T15:19:48Z</time></trkpt><trkpt lat="45.29403711342615" lon="8.922123357237558"><ele>82.0</ele><time>2026-03-29T15:19:49Z</time></trkpt><trkpt lat="45.2939296877413" lon="8.922156784131792"><ele>82.0</ele><time>2026-03-29T15:19:50Z</time></trkpt><trkpt lat="45.293830164489734" lon="8.922189889959698"><ele>82.0</ele><time>2026-03-29T15:19:51Z</time></trkpt><trkpt lat="45.29374056713723" lon="8.922219693989112"><ele>82.0</ele><time>2026-03-29T15:19:52Z</time></trkpt><trkpt lat="45.29363665992142" lon="8.922254258108909"><ele>82.0</ele><time>2026-03-29T15:19:53Z</time></trkpt><trkpt lat="45.29354211347345" lon="8.922301366606858"><ele>81.5</ele><time>2026-03-29T15:19:54Z</time></trkpt><trkpt lat="45.293446702863996" lon="8.922325934522494"><ele>81.0</ele><time>2026-03-29T15:19:55Z</time></trkpt><trkpt lat="45.29336745928501" lon="8.922345902307312"><ele>80.5</ele><time>2026-03-29T15:19:56Z</time></trkpt><trkpt lat="45.29326525931867" lon="8.922380061669733"><ele>80.0</ele><time>2026-03-29T15:19:57Z</time></trkpt><trkpt lat="45.29319207664423" lon="8.922411329948542"><ele>79.5</ele><time>2026-03-29T15:19:58Z</time></trkpt><trkpt lat="45.293107862373084" lon="8.922431278907984"><ele>79.0</ele><time>2026-03-29T15:19:59Z</time></trkpt><trkpt lat="45.29302122804306" lon="8.92250049405143"><ele>79.0</ele><time>2026-03-29T15:20:00Z</time></trkpt><trkpt lat="45.292964576963705" lon="8.922602715551177"><ele>79.0</ele><time>2026-03-29T15:20:01Z</time></trkpt><trkpt lat="45.292889306181664" lon="8.922708604130484"><ele>79.0</ele><time>2026-03-29T15:20:02Z</time></trkpt><trkpt lat="45.29281849844115" lon="8.922820053035238"><ele>79.0</ele><time>2026-03-29T15:20:03Z</time></trkpt><trkpt lat="45.292749887700104" lon="8.922933716932368"><ele>79.0</ele><time>2026-03-29T15:20:04Z</time></trkpt><trkpt lat="45.29268709544294" lon="8.923024251190224"><ele>79.0</ele><time>2026-03-29T15:20:05Z</time></trkpt><trkpt lat="45.29262933000587" lon="8.923097848986531"><ele>79.0</ele><time>2026-03-29T15:20:06Z</time></trkpt><trkpt lat="45.29256002089488" lon="8.923178046855178"><ele>79.0</ele><time>2026-03-29T15:20:07Z</time></trkpt><trkpt lat="45.29246368002458" lon="8.923270880672133"><ele>79.0</ele><time>2026-03-29T15:20:08Z</time></trkpt><trkpt lat="45.29235538466745" lon="8.92335787100264"><ele>79.0</ele><time>2026-03-29T15:20:09Z</time></trkpt><trkpt lat="45.29225658941071" lon="8.923432478523685"><ele>79.0</ele><time>2026-03-29T15:20:10Z</time></trkpt><trkpt lat="45.292166225371915" lon="8.923514169649499"><ele>79.0</ele><time>2026-03-29T15:20:11Z</time></trkpt><trkpt lat="45.29208629092843" lon="8.923592516701765"><ele>79.0</ele><time>2026-03-29T15:20:12Z</time></trkpt><trkpt lat="45.29199666642423" lon="8.923675789725937"><ele>79.0</ele><time>2026-03-29T15:20:13Z</time></trkpt><trkpt lat="45.29190182432982" lon="8.923756955034028"><ele>79.0</ele><time>2026-03-29T15:20:14Z</time></trkpt><trkpt lat="45.29182340707402" lon="8.92384032719239"><ele>79.0</ele><time>2026-03-29T15:20:15Z</time></trkpt><trkpt lat="45.291742182481514" lon="8.923915879834327"><ele>79.0</ele><time>2026-03-29T15:20:16Z</time></trkpt><trkpt lat="45.29166495843579" lon="8.923978914305502"><ele>79.0</ele><time>2026-03-29T15:20:17Z</time></trkpt><trkpt lat="45.291565339959895" lon="8.924053826215447"><ele>79.0</ele><time>2026-03-29T15:20:18Z</time></trkpt><trkpt lat="45.291483828503985" lon="8.92410655863461"><ele>79.0</ele><time>2026-03-29T15:20:19Z</time></trkpt><trkpt lat="45.2914032101793" lon="8.924167563632682"><ele>78.66666666666666</ele><time>2026-03-29T15:20:20Z</time></trkpt><trkpt lat="45.29131714109058" lon="8.924208178641537"><ele>78.33333333333333</ele><time>2026-03-29T15:20:21Z</time></trkpt><trkpt lat="45.29122932756918" lon="8.924262228426374"><ele>78.0</ele><time>2026-03-29T15:20:22Z</time></trkpt><trkpt lat="45.291149114411" lon="8.9243047398255"><ele>77.66666666666667</ele><time>2026-03-29T15:20:23Z</time></trkpt><trkpt lat="45.29108211677484" lon="8.9243450991224"><ele>77.33333333333334</ele><time>2026-03-29T15:20:24Z</time></trkpt><trkpt lat="45.29099377770546" lon="8.924360407949868"><ele>77.0</ele><time>2026-03-29T15:20:25Z</time></trkpt><trkpt lat="45.29092280119296" lon="8.924361191885207"><ele>77.0</ele><time>2026-03-29T15:20:26Z</time></trkpt><trkpt lat="45.290792406307546" lon="8.924329562035405"><ele>77.0</ele><time>2026-03-29T15:20:28Z</time></trkpt><trkpt lat="45.29071723824715" lon="8.924287416427276"><ele>77.0</ele><time>2026-03-29T15:20:29Z</time></trkpt><trkpt lat="45.29064133155278" lon="8.924225263811435"><ele>77.0</ele><time>2026-03-29T15:20:30Z</time></trkpt><trkpt lat="45.29059190935462" lon="8.924125246780758"><ele>77.0</ele><time>2026-03-29T15:20:31Z</time></trkpt><trkpt lat="45.29050747400115" lon="8.924047129914886"><ele>77.0</ele><time>2026-03-29T15:20:32Z</time></trkpt><trkpt lat="45.29043393903735" lon="8.923990165702339"><ele>77.0</ele><time>2026-03-29T15:20:33Z</time></trkpt><trkpt lat="45.29035976473711" lon="8.923945238713562"><ele>77.0</ele><time>2026-03-29T15:20:34Z</time></trkpt><trkpt lat="45.29027604107226" lon="8.923909947788673"><ele>77.0</ele><time>2026-03-29T15:20:35Z</time></trkpt><trkpt lat="45.29017230657683" lon="8.923950148250606"><ele>77.0</ele><time>2026-03-29T15:20:36Z</time></trkpt><trkpt lat="45.29008392085937" lon="8.923947098241522"><ele>77.0</ele><time>2026-03-29T15:20:37Z</time></trkpt><trkpt lat="45.29000218967712" lon="8.923900877825892"><ele>77.0</ele><time>2026-03-29T15:20:38Z</time></trkpt><trkpt lat="45.28992616186655" lon="8.923856073307336"><ele>77.0</ele><time>2026-03-29T15:20:39Z</time></trkpt><trkpt lat="45.28986177925467" lon="8.923791785405436"><ele>77.0</ele><time>2026-03-29T15:20:40Z</time></trkpt><trkpt lat="45.28979251499246" lon="8.923720227948506"><ele>77.0</ele><time>2026-03-29T15:20:41Z</time></trkpt><trkpt lat="45.289694973079214" lon="8.923645138521369"><ele>77.0</ele><time>2026-03-29T15:20:42Z</time></trkpt><trkpt lat="45.28960108852995" lon="8.923546270825758"><ele>76.6</ele><time>2026-03-29T15:20:43Z</time></trkpt><trkpt lat="45.28951893278606" lon="8.923436604880942"><ele>76.2</ele><time>2026-03-29T15:20:44Z</time></trkpt><trkpt lat="45.289441045673854" lon="8.923367914666185"><ele>75.8</ele><time>2026-03-29T15:20:45Z</time></trkpt><trkpt lat="45.28936240454501" lon="8.92328863767144"><ele>75.4</ele><time>2026-03-29T15:20:46Z</time></trkpt><trkpt lat="45.28929863491032" lon="8.923185916607322"><ele>75.0</ele><time>2026-03-29T15:20:47Z</time></trkpt><trkpt lat="45.28923939069758" lon="8.923106552713506"><ele>74.57142857142857</ele><time>2026-03-29T15:20:48Z</time></trkpt><trkpt lat="45.28918380678726" lon="8.923025985345928"><ele>74.14285714285714</ele><time>2026-03-29T15:20:49Z</time></trkpt><trkpt lat="45.28913145703544" lon="8.922939350497856"><ele>73.71428571428572</ele><time>2026-03-29T15:20:50Z</time></trkpt><trkpt lat="45.289092922015854" lon="8.922865031887785"><ele>73.28571428571428</ele><time>2026-03-29T15:20:51Z</time></trkpt><trkpt lat="45.28906731449145" lon="8.922781678861078"><ele>72.85714285714286</ele><time>2026-03-29T15:20:52Z</time></trkpt><trkpt lat="45.289038376074025" lon="8.922697098941638"><ele>72.42857142857143</ele><time>2026-03-29T15:20:53Z</time></trkpt><trkpt lat="45.28902039380909" lon="8.922610059427527"><ele>72.0</ele><time>2026-03-29T15:20:54Z</time></trkpt><trkpt lat="45.288986665636344" lon="8.922474772269736"><ele>72.0</ele><time>2026-03-29T15:20:55Z</time></trkpt><trkpt lat="45.288953129025494" lon="8.92235834391663"><ele>72.0</ele><time>2026-03-29T15:20:56Z</time></trkpt><trkpt lat="45.28890778446602" lon="8.922258922394134"><ele>72.0</ele><time>2026-03-29T15:20:57Z</time></trkpt><trkpt lat="45.288841971308415" lon="8.922158687570931"><ele>72.0</ele><time>2026-03-29T15:20:58Z</time></trkpt><trkpt lat="45.28876593239984" lon="8.922080288613516"><ele>72.0</ele><time>2026-03-29T15:20:59Z</time></trkpt><trkpt lat="45.28867511327887" lon="8.922009049501971"><ele>72.0</ele><time>2026-03-29T15:21:00Z</time></trkpt><trkpt lat="45.288569262813056" lon="8.921940974076266"><ele>72.0</ele><time>2026-03-29T15:21:01Z</time></trkpt><trkpt lat="45.28846751821866" lon="8.921896514541473"><ele>72.0</ele><time>2026-03-29T15:21:02Z</time></trkpt><trkpt lat="45.2883694332368" lon="8.921876175227492"><ele>72.0</ele><time>2026-03-29T15:21:03Z</time></trkpt><trkpt lat="45.28826765801716" lon="8.921866021898534"><ele>72.0</ele><time>2026-03-29T15:21:04Z</time></trkpt><trkpt lat="45.288044147478665" lon="8.921900937548811"><ele>72.4</ele><time>2026-03-29T15:21:06Z</time></trkpt><trkpt lat="45.28791912811949" lon="8.921932932557928"><ele>72.80000000000001</ele><time>2026-03-29T15:21:07Z</time></trkpt><trkpt lat="45.28782459517591" lon="8.921960851288315"><ele>73.2</ele><time>2026-03-29T15:21:08Z</time></trkpt><trkpt lat="45.28772157664832" lon="8.921992435786164"><ele>73.60000000000001</ele><time>2026-03-29T15:21:09Z</time></trkpt><trkpt lat="45.28761927576811" lon="8.92203106901975"><ele>74.0</ele><time>2026-03-29T15:21:10Z</time></trkpt><trkpt lat="45.287502273451196" lon="8.922085174452349"><ele>74.0</ele><time>2026-03-29T15:21:11Z</time></trkpt><trkpt lat="45.287393800598785" lon="8.922146670988111"><ele>74.0</ele><time>2026-03-29T15:21:12Z</time></trkpt><trkpt lat="45.287278045081386" lon="8.922218280971363"><ele>74.0</ele><time>2026-03-29T15:21:13Z</time></trkpt><trkpt lat="45.287167718554635" lon="8.92229197288728"><ele>74.0</ele><time>2026-03-29T15:21:14Z</time></trkpt><trkpt lat="45.28707369582751" lon="8.922361045368126"><ele>73.83333333333334</ele><time>2026-03-29T15:21:14.999Z</time></trkpt><trkpt lat="45.28698507894114" lon="8.92243443826568"><ele>73.66666666666667</ele><time>2026-03-29T15:21:15.999Z</time></trkpt><trkpt lat="45.286907827698926" lon="8.92250292619815"><ele>73.5</ele><time>2026-03-29T15:21:16.999Z</time></trkpt><trkpt lat="45.286842094354306" lon="8.922551436785826"><ele>73.33333333333333</ele><time>2026-03-29T15:21:17.999Z</time></trkpt><trkpt lat="45.28676998768538" lon="8.92257719603657"><ele>73.16666666666666</ele><time>2026-03-29T15:21:18.999Z</time></trkpt><trkpt lat="45.286683375390986" lon="8.922591221475857"><ele>73.0</ele><time>2026-03-29T15:21:19.999Z</time></trkpt><trkpt lat="45.28661091651517" lon="8.922599619670883"><ele>73.0</ele><time>2026-03-29T15:21:20.999Z</time></trkpt><trkpt lat="45.286548257347754" lon="8.922559167542866"><ele>73.0</ele><time>2026-03-29T15:21:21.999Z</time></trkpt><trkpt lat="45.28647598481533" lon="8.922503162685135"><ele>73.0</ele><time>2026-03-29T15:21:22.999Z</time></trkpt><trkpt lat="45.28638603402399" lon="8.922448517270293"><ele>73.0</ele><time>2026-03-29T15:21:23.999Z</time></trkpt><trkpt lat="45.28627477239047" lon="8.922391274256057"><ele>73.0</ele><time>2026-03-29T15:21:24.999Z</time></trkpt><trkpt lat="45.286163456578834" lon="8.922334560632098"><ele>73.4</ele><time>2026-03-29T15:21:25.999Z</time></trkpt><trkpt lat="45.286063221300694" lon="8.922284035812138"><ele>73.8</ele><time>2026-03-29T15:21:26.999Z</time></trkpt><trkpt lat="45.28598307960283" lon="8.922243639405984"><ele>74.2</ele><time>2026-03-29T15:21:27.999Z</time></trkpt><trkpt lat="45.28588309774181" lon="8.92219324231882"><ele>74.6</ele><time>2026-03-29T15:21:28.999Z</time></trkpt><trkpt lat="45.285772419458326" lon="8.922137453571409"><ele>75.0</ele><time>2026-03-29T15:21:29.999Z</time></trkpt><trkpt lat="45.28568154887659" lon="8.9220916491385"><ele>75.0</ele><time>2026-03-29T15:21:31Z</time></trkpt><trkpt lat="45.28559769187127" lon="8.922048819252366"><ele>75.0</ele><time>2026-03-29T15:21:32Z</time></trkpt><trkpt lat="45.28551714477103" lon="8.922007340510637"><ele>75.0</ele><time>2026-03-29T15:21:33Z</time></trkpt><trkpt lat="45.28543555707187" lon="8.92196532589995"><ele>75.0</ele><time>2026-03-29T15:21:34Z</time></trkpt><trkpt lat="45.285362454833134" lon="8.921927680979582"><ele>75.0</ele><time>2026-03-29T15:21:35Z</time></trkpt><trkpt lat="45.285268308247446" lon="8.921879199012455"><ele>75.0</ele><time>2026-03-29T15:21:36Z</time></trkpt><trkpt lat="45.28518969992866" lon="8.921838297329492"><ele>75.0</ele><time>2026-03-29T15:21:37Z</time></trkpt><trkpt lat="45.28512146783579" lon="8.921802669120122"><ele>75.0</ele><time>2026-03-29T15:21:38Z</time></trkpt><trkpt lat="45.28506090739374" lon="8.921770943016138"><ele>75.0</ele><time>2026-03-29T15:21:39Z</time></trkpt><trkpt lat="45.284971377709546" lon="8.921693875684527"><ele>75.0</ele><time>2026-03-29T15:21:41Z</time></trkpt><trkpt lat="45.284905150747484" lon="8.921651283135406"><ele>75.0</ele><time>2026-03-29T15:21:43Z</time></trkpt><trkpt lat="45.284930064455246" lon="8.921549592635088"><ele>75.0</ele><time>2026-03-29T15:21:45Z</time></trkpt><trkpt lat="45.28492393167729" lon="8.92138092538129"><ele>75.0</ele><time>2026-03-29T15:21:47Z</time></trkpt><trkpt lat="45.28491124438564" lon="8.921275545765546"><ele>75.0</ele><time>2026-03-29T15:21:48Z</time></trkpt><trkpt lat="45.28487824948635" lon="8.921156014659136"><ele>75.0</ele><time>2026-03-29T15:21:49Z</time></trkpt><trkpt lat="45.284834249745785" lon="8.921011768954104"><ele>75.0</ele><time>2026-03-29T15:21:50Z</time></trkpt><trkpt lat="45.28477117789243" lon="8.920827568521936"><ele>75.0</ele><time>2026-03-29T15:21:51Z</time></trkpt><trkpt lat="45.284718339593724" lon="8.920675238528469"><ele>75.25</ele><time>2026-03-29T15:21:52Z</time></trkpt><trkpt lat="45.28466699085876" lon="8.920529225496777"><ele>75.5</ele><time>2026-03-29T15:21:53Z</time></trkpt><trkpt lat="45.284614313000326" lon="8.920381454677383"><ele>75.75</ele><time>2026-03-29T15:21:54Z</time></trkpt><trkpt lat="45.28455129083022" lon="8.920204666175584"><ele>76.0</ele><time>2026-03-29T15:21:55Z</time></trkpt><trkpt lat="45.28449388591149" lon="8.920043635086476"><ele>76.0</ele><time>2026-03-29T15:21:56Z</time></trkpt><trkpt lat="45.28444240281743" lon="8.919899215758143"><ele>76.0</ele><time>2026-03-29T15:21:57Z</time></trkpt><trkpt lat="45.28439682021304" lon="8.919765737152202"><ele>76.0</ele><time>2026-03-29T15:21:58Z</time></trkpt><trkpt lat="45.28435723464003" lon="8.91963469525229"><ele>76.0</ele><time>2026-03-29T15:21:59Z</time></trkpt><trkpt lat="45.28432730001139" lon="8.919492018037925"><ele>76.0</ele><time>2026-03-29T15:22:00Z</time></trkpt><trkpt lat="45.284328628075684" lon="8.919332041092844"><ele>75.75</ele><time>2026-03-29T15:22:01Z</time></trkpt><trkpt lat="45.284369297783975" lon="8.91915697118086"><ele>75.5</ele><time>2026-03-29T15:22:02Z</time></trkpt><trkpt lat="45.28440669936413" lon="8.918978849702569"><ele>75.25</ele><time>2026-03-29T15:22:03Z</time></trkpt><trkpt lat="45.284444018457165" lon="8.918805104248674"><ele>75.0</ele><time>2026-03-29T15:22:04Z</time></trkpt><trkpt lat="45.28448379514219" lon="8.918621220242366"><ele>75.0</ele><time>2026-03-29T15:22:05Z</time></trkpt><trkpt lat="45.28452395853957" lon="8.918435548503776"><ele>75.0</ele><time>2026-03-29T15:22:06Z</time></trkpt><trkpt lat="45.28456152424761" lon="8.91826188563925"><ele>75.0</ele><time>2026-03-29T15:22:07Z</time></trkpt><trkpt lat="45.28459397573421" lon="8.91811186535867"><ele>75.0</ele><time>2026-03-29T15:22:08Z</time></trkpt><trkpt lat="45.28461717587913" lon="8.918003026142385"><ele>75.2</ele><time>2026-03-29T15:22:09Z</time></trkpt><trkpt lat="45.284646909697955" lon="8.917854357048762"><ele>75.4</ele><time>2026-03-29T15:22:11Z</time></trkpt><trkpt lat="45.28468307622522" lon="8.917664823818106"><ele>75.6</ele><time>2026-03-29T15:22:13Z</time></trkpt><trkpt lat="45.28469662489803" lon="8.91757269269112"><ele>75.8</ele><time>2026-03-29T15:22:14Z</time></trkpt><trkpt lat="45.28470293642366" lon="8.917455851602327"><ele>76.0</ele><time>2026-03-29T15:22:15Z</time></trkpt><trkpt lat="45.28470274356533" lon="8.91732594222363"><ele>76.2</ele><time>2026-03-29T15:22:16Z</time></trkpt><trkpt lat="45.2846968247035" lon="8.917196917834318"><ele>76.39999999999999</ele><time>2026-03-29T15:22:17Z</time></trkpt><trkpt lat="45.28469039459315" lon="8.917071807473377"><ele>76.6</ele><time>2026-03-29T15:22:18Z</time></trkpt><trkpt lat="45.284682904066905" lon="8.916943026857409"><ele>76.8</ele><time>2026-03-29T15:22:19Z</time></trkpt><trkpt lat="45.284674320998526" lon="8.916809989301644"><ele>77.0</ele><time>2026-03-29T15:22:20Z</time></trkpt><trkpt lat="45.28466623480043" lon="8.91668465323909"><ele>77.16666666666667</ele><time>2026-03-29T15:22:21Z</time></trkpt><trkpt lat="45.28465753618069" lon="8.916549824632298"><ele>77.33333333333334</ele><time>2026-03-29T15:22:22Z</time></trkpt><trkpt lat="45.28465075900608" lon="8.91642597620158"><ele>77.5</ele><time>2026-03-29T15:22:23Z</time></trkpt><trkpt lat="45.28464449392528" lon="8.916309956183484"><ele>77.66666666666667</ele><time>2026-03-29T15:22:24Z</time></trkpt><trkpt lat="45.28463817761044" lon="8.916192987395371"><ele>77.83333333333333</ele><time>2026-03-29T15:22:25Z</time></trkpt><trkpt lat="45.28463201117804" lon="8.916064324738363"><ele>78.0</ele><time>2026-03-29T15:22:26Z</time></trkpt><trkpt lat="45.28462501648243" lon="8.915918178928676"><ele>78.0</ele><time>2026-03-29T15:22:27Z</time></trkpt><trkpt lat="45.2846172844929" lon="8.915756628277578"><ele>78.0</ele><time>2026-03-29T15:22:28Z</time></trkpt><trkpt lat="45.28461121057692" lon="8.915579624317475"><ele>78.0</ele><time>2026-03-29T15:22:29Z</time></trkpt><trkpt lat="45.284607499251265" lon="8.91541524823192"><ele>78.0</ele><time>2026-03-29T15:22:30Z</time></trkpt><trkpt lat="45.284605380315945" lon="8.915244613117713"><ele>78.0</ele><time>2026-03-29T15:22:31Z</time></trkpt><trkpt lat="45.28460928077989" lon="8.915075995293984"><ele>78.0</ele><time>2026-03-29T15:22:32Z</time></trkpt><trkpt lat="45.28462460199937" lon="8.914898016315266"><ele>78.0</ele><time>2026-03-29T15:22:33Z</time></trkpt><trkpt lat="45.2846690996942" lon="8.91472878384798"><ele>78.0</ele><time>2026-03-29T15:22:34Z</time></trkpt><trkpt lat="45.28473112530268" lon="8.914552415810629"><ele>77.66666666666667</ele><time>2026-03-29T15:22:35Z</time></trkpt><trkpt lat="45.28480387295041" lon="8.914363455503155"><ele>77.33333333333334</ele><time>2026-03-29T15:22:36Z</time></trkpt><trkpt lat="45.28488218046797" lon="8.91415911549684"><ele>77.0</ele><time>2026-03-29T15:22:37Z</time></trkpt><trkpt lat="45.28495465900544" lon="8.913944905939758"><ele>76.75</ele><time>2026-03-29T15:22:38Z</time></trkpt><trkpt lat="45.285003138511456" lon="8.913784988592862"><ele>76.5</ele><time>2026-03-29T15:22:39Z</time></trkpt><trkpt lat="45.28505658173763" lon="8.913577616647016"><ele>76.25</ele><time>2026-03-29T15:22:40Z</time></trkpt><trkpt lat="45.285097148327175" lon="8.913360345094599"><ele>76.0</ele><time>2026-03-29T15:22:41Z</time></trkpt><trkpt lat="45.28512572320603" lon="8.913141586336513"><ele>76.0</ele><time>2026-03-29T15:22:42Z</time></trkpt><trkpt lat="45.28515489357263" lon="8.912919272572502"><ele>76.0</ele><time>2026-03-29T15:22:43Z</time></trkpt><trkpt lat="45.28518439032155" lon="8.91270004623389"><ele>76.0</ele><time>2026-03-29T15:22:44Z</time></trkpt><trkpt lat="45.285214934817326" lon="8.91246195040258"><ele>76.0</ele><time>2026-03-29T15:22:45Z</time></trkpt><trkpt lat="45.28524019531104" lon="8.912237405483946"><ele>76.0</ele><time>2026-03-29T15:22:46Z</time></trkpt><trkpt lat="45.28525814468613" lon="8.912016688535811"><ele>76.0</ele><time>2026-03-29T15:22:47Z</time></trkpt><trkpt lat="45.28527318778555" lon="8.911828541110271"><ele>76.25</ele><time>2026-03-29T15:22:48Z</time></trkpt><trkpt lat="45.285292811739076" lon="8.91164038599223"><ele>76.5</ele><time>2026-03-29T15:22:49Z</time></trkpt><trkpt lat="45.285318323196655" lon="8.911446655117444"><ele>76.75</ele><time>2026-03-29T15:22:50Z</time></trkpt><trkpt lat="45.28535694096532" lon="8.911264526345052"><ele>77.0</ele><time>2026-03-29T15:22:51Z</time></trkpt><trkpt lat="45.285413988477465" lon="8.911097956491178"><ele>77.0</ele><time>2026-03-29T15:22:52Z</time></trkpt><trkpt lat="45.285490471392656" lon="8.910935011979019"><ele>77.0</ele><time>2026-03-29T15:22:53Z</time></trkpt><trkpt lat="45.28558606045715" lon="8.91080026500507"><ele>77.0</ele><time>2026-03-29T15:22:54Z</time></trkpt><trkpt lat="45.285693687793604" lon="8.91067545387085"><ele>77.0</ele><time>2026-03-29T15:22:55Z</time></trkpt><trkpt lat="45.285818278043614" lon="8.910563309165681"><ele>77.0</ele><time>2026-03-29T15:22:56Z</time></trkpt><trkpt lat="45.28594385891266" lon="8.910451139243891"><ele>77.0</ele><time>2026-03-29T15:22:57Z</time></trkpt><trkpt lat="45.28606598492002" lon="8.910310312312323"><ele>77.0</ele><time>2026-03-29T15:22:58Z</time></trkpt><trkpt lat="45.286178742034664" lon="8.910148463759414"><ele>77.0</ele><time>2026-03-29T15:22:59Z</time></trkpt><trkpt lat="45.286280863988736" lon="8.909986443009341"><ele>77.0</ele><time>2026-03-29T15:23:00Z</time></trkpt><trkpt lat="45.28637517309064" lon="8.909844558375326"><ele>77.0</ele><time>2026-03-29T15:23:01Z</time></trkpt><trkpt lat="45.2864863979853" lon="8.90970068114481"><ele>77.0</ele><time>2026-03-29T15:23:01.999Z</time></trkpt><trkpt lat="45.28661061189502" lon="8.909571158006466"><ele>77.0</ele><time>2026-03-29T15:23:02.999Z</time></trkpt><trkpt lat="45.28673062141756" lon="8.909410131640824"><ele>77.0</ele><time>2026-03-29T15:23:03.999Z</time></trkpt><trkpt lat="45.28683472129973" lon="8.909216202977552"><ele>77.0</ele><time>2026-03-29T15:23:04.999Z</time></trkpt><trkpt lat="45.28692095614179" lon="8.909027414470113"><ele>78.33333333333334</ele><time>2026-03-29T15:23:05.999Z</time></trkpt><trkpt lat="45.28700852870284" lon="8.908825263907882"><ele>79.66666666666667</ele><time>2026-03-29T15:23:06.999Z</time></trkpt><trkpt lat="45.28708911771053" lon="8.908631817030873"><ele>81.0</ele><time>2026-03-29T15:23:07.999Z</time></trkpt><trkpt lat="45.28717014773592" lon="8.908428879938393"><ele>82.0</ele><time>2026-03-29T15:23:08.999Z</time></trkpt><trkpt lat="45.28724515023986" lon="8.908225808039926"><ele>83.0</ele><time>2026-03-29T15:23:09.999Z</time></trkpt><trkpt lat="45.287314316938655" lon="8.90800866522599"><ele>84.0</ele><time>2026-03-29T15:23:10.999Z</time></trkpt><trkpt lat="45.287372550854855" lon="8.907801376881535"><ele>82.0</ele><time>2026-03-29T15:23:11.999Z</time></trkpt><trkpt lat="45.28743404452932" lon="8.907579470783695"><ele>80.0</ele><time>2026-03-29T15:23:12.999Z</time></trkpt><trkpt lat="45.28749329270195" lon="8.90738107777194"><ele>78.0</ele><time>2026-03-29T15:23:13.999Z</time></trkpt><trkpt lat="45.287557197136124" lon="8.907166843593725"><ele>78.0</ele><time>2026-03-29T15:23:14.999Z</time></trkpt><trkpt lat="45.28761719042732" lon="8.906960044271397"><ele>78.0</ele><time>2026-03-29T15:23:15.999Z</time></trkpt><trkpt lat="45.287673999807474" lon="8.906760434806017"><ele>78.0</ele><time>2026-03-29T15:23:16.999Z</time></trkpt><trkpt lat="45.2877355175464" lon="8.906544153140528"><ele>78.66666666666667</ele><time>2026-03-29T15:23:17.999Z</time></trkpt><trkpt lat="45.28779660684824" lon="8.906329377760065"><ele>79.33333333333334</ele><time>2026-03-29T15:23:18.999Z</time></trkpt><trkpt lat="45.28785501221282" lon="8.906124038415221"><ele>80.0</ele><time>2026-03-29T15:23:19.999Z</time></trkpt><trkpt lat="45.287917933160756" lon="8.905902823423439"><ele>79.5</ele><time>2026-03-29T15:23:20.999Z</time></trkpt><trkpt lat="45.287972003937746" lon="8.905712723479615"><ele>79.0</ele><time>2026-03-29T15:23:21.999Z</time></trkpt><trkpt lat="45.28802240436787" lon="8.90553552761828"><ele>78.5</ele><time>2026-03-29T15:23:22.999Z</time></trkpt><trkpt lat="45.28807323097139" lon="8.905356833410242"><ele>78.0</ele><time>2026-03-29T15:23:23.999Z</time></trkpt><trkpt lat="45.28812792439629" lon="8.905168676927659"><ele>78.5</ele><time>2026-03-29T15:23:24.999Z</time></trkpt><trkpt lat="45.288181429327665" lon="8.905002283898735"><ele>79.0</ele><time>2026-03-29T15:23:25.999Z</time></trkpt><trkpt lat="45.288230718816926" lon="8.904848856509007"><ele>79.5</ele><time>2026-03-29T15:23:26.999Z</time></trkpt><trkpt lat="45.28826816333027" lon="8.904702193421468"><ele>80.0</ele><time>2026-03-29T15:23:27.999Z</time></trkpt><trkpt lat="45.2882919539841" lon="8.90455127324412"><ele>80.0</ele><time>2026-03-29T15:23:28.999Z</time></trkpt><trkpt lat="45.28829514501512" lon="8.904406209243653"><ele>80.0</ele><time>2026-03-29T15:23:29.999Z</time></trkpt><trkpt lat="45.28828872578198" lon="8.904258455827382"><ele>80.0</ele><time>2026-03-29T15:23:30.999Z</time></trkpt><trkpt lat="45.288227897171645" lon="8.904100457716748"><ele>80.0</ele><time>2026-03-29T15:23:31.999Z</time></trkpt><trkpt lat="45.2881224803705" lon="8.90399886630071"><ele>80.75</ele><time>2026-03-29T15:23:32.999Z</time></trkpt><trkpt lat="45.28803170900511" lon="8.903846355623319"><ele>81.5</ele><time>2026-03-29T15:23:33.999Z</time></trkpt><trkpt lat="45.28792512651177" lon="8.903706234196171"><ele>82.25</ele><time>2026-03-29T15:23:34.999Z</time></trkpt><trkpt lat="45.28780755807848" lon="8.903554404776237"><ele>83.0</ele><time>2026-03-29T15:23:35.999Z</time></trkpt><trkpt lat="45.28768311870558" lon="8.90339478235304"><ele>83.33333333333334</ele><time>2026-03-29T15:23:37Z</time></trkpt><trkpt lat="45.287554180219814" lon="8.903229388765368"><ele>83.66666666666667</ele><time>2026-03-29T15:23:38Z</time></trkpt><trkpt lat="45.28741952162523" lon="8.903056657823138"><ele>84.0</ele><time>2026-03-29T15:23:39Z</time></trkpt><trkpt lat="45.28727960836943" lon="8.902877186556596"><ele>84.33333333333333</ele><time>2026-03-29T15:23:40Z</time></trkpt><trkpt lat="45.287129261830906" lon="8.902684332173026"><ele>84.66666666666666</ele><time>2026-03-29T15:23:41Z</time></trkpt><trkpt lat="45.28697526745357" lon="8.902486798590063"><ele>85.0</ele><time>2026-03-29T15:23:42Z</time></trkpt><trkpt lat="45.28682169227471" lon="8.90228985157406"><ele>85.0</ele><time>2026-03-29T15:23:43Z</time></trkpt><trkpt lat="45.28671104019793" lon="8.902148983540638"><ele>85.0</ele><time>2026-03-29T15:23:44Z</time></trkpt><trkpt lat="45.28655963500651" lon="8.901956233853676"><ele>85.0</ele><time>2026-03-29T15:23:45Z</time></trkpt><trkpt lat="45.28640583297366" lon="8.901760432815285"><ele>86.0</ele><time>2026-03-29T15:23:46Z</time></trkpt><trkpt lat="45.28624879746877" lon="8.901560515348299"><ele>87.0</ele><time>2026-03-29T15:23:47Z</time></trkpt><trkpt lat="45.28609326293744" lon="8.901359255821989"><ele>88.0</ele><time>2026-03-29T15:23:48Z</time></trkpt><trkpt lat="45.28594730083624" lon="8.901170367877329"><ele>88.0</ele><time>2026-03-29T15:23:49Z</time></trkpt><trkpt lat="45.28581822776251" lon="8.90100655643873"><ele>88.0</ele><time>2026-03-29T15:23:50Z</time></trkpt><trkpt lat="45.28569363762996" lon="8.900855305882242"><ele>88.0</ele><time>2026-03-29T15:23:51Z</time></trkpt><trkpt lat="45.28557832524391" lon="8.900756292759844"><ele>88.75</ele><time>2026-03-29T15:23:52Z</time></trkpt><trkpt lat="45.28547846948618" lon="8.900647320946268"><ele>89.5</ele><time>2026-03-29T15:23:53Z</time></trkpt><trkpt lat="45.28536333756694" lon="8.900559925190144"><ele>90.25</ele><time>2026-03-29T15:23:54Z</time></trkpt><trkpt lat="45.28522124077976" lon="8.90044245611072"><ele>91.0</ele><time>2026-03-29T15:23:55Z</time></trkpt><trkpt lat="45.28507401206326" lon="8.900325869101577"><ele>91.0</ele><time>2026-03-29T15:23:56Z</time></trkpt><trkpt lat="45.28491723589573" lon="8.900195206175383"><ele>91.0</ele><time>2026-03-29T15:23:57Z</time></trkpt><trkpt lat="45.28475493347822" lon="8.90005937755846"><ele>91.0</ele><time>2026-03-29T15:23:58Z</time></trkpt><trkpt lat="45.28459148868754" lon="8.899917260270957"><ele>92.33333333333333</ele><time>2026-03-29T15:23:59Z</time></trkpt><trkpt lat="45.284449960426684" lon="8.899785132579236"><ele>93.66666666666667</ele><time>2026-03-29T15:24:00Z</time></trkpt><trkpt lat="45.28431235714181" lon="8.89964845306246"><ele>95.0</ele><time>2026-03-29T15:24:01Z</time></trkpt><trkpt lat="45.28418848352168" lon="8.89951479422474"><ele>95.0</ele><time>2026-03-29T15:24:02Z</time></trkpt><trkpt lat="45.2840798930301" lon="8.899391021749022"><ele>95.0</ele><time>2026-03-29T15:24:03Z</time></trkpt><trkpt lat="45.28398371457698" lon="8.899272818891385"><ele>95.0</ele><time>2026-03-29T15:24:04Z</time></trkpt><trkpt lat="45.28390719213249" lon="8.899171861377257"><ele>95.0</ele><time>2026-03-29T15:24:05Z</time></trkpt><trkpt lat="45.28385185812803" lon="8.89909497215645"><ele>95.0</ele><time>2026-03-29T15:24:06Z</time></trkpt><trkpt lat="45.28379241627359" lon="8.899010338797906"><ele>94.2</ele><time>2026-03-29T15:24:07Z</time></trkpt><trkpt lat="45.283728769025075" lon="8.89891810711254"><ele>93.4</ele><time>2026-03-29T15:24:08Z</time></trkpt><trkpt lat="45.283648924887665" lon="8.898834771578937"><ele>92.6</ele><time>2026-03-29T15:24:09Z</time></trkpt><trkpt lat="45.28356749177994" lon="8.898738336046366"><ele>91.8</ele><time>2026-03-29T15:24:10Z</time></trkpt><trkpt lat="45.28347683061324" lon="8.898652098832827"><ele>91.0</ele><time>2026-03-29T15:24:11Z</time></trkpt><trkpt lat="45.283395319195506" lon="8.898570196727594"><ele>91.0</ele><time>2026-03-29T15:24:12Z</time></trkpt><trkpt lat="45.2833242167216" lon="8.898493949056693"><ele>91.0</ele><time>2026-03-29T15:24:13Z</time></trkpt><trkpt lat="45.28325725536629" lon="8.89842240975529"><ele>91.0</ele><time>2026-03-29T15:24:14Z</time></trkpt><trkpt lat="45.28319984236828" lon="8.898362637392749"><ele>91.0</ele><time>2026-03-29T15:24:15Z</time></trkpt><trkpt lat="45.283151357019534" lon="8.89830496968713"><ele>91.0</ele><time>2026-03-29T15:24:16Z</time></trkpt><trkpt lat="45.28310402805857" lon="8.898219350034783"><ele>91.0</ele><time>2026-03-29T15:24:19Z</time></trkpt><trkpt lat="45.2829838221203" lon="8.898303880547049"><ele>91.0</ele><time>2026-03-29T15:24:27Z</time></trkpt><trkpt lat="45.28293177455979" lon="8.898360692281475"><ele>91.0</ele><time>2026-03-29T15:24:29Z</time></trkpt><trkpt lat="45.28286216559263" lon="8.898440042649815"><ele>91.0</ele><time>2026-03-29T15:24:31Z</time></trkpt><trkpt lat="45.28281384619619" lon="8.898498453222555"><ele>91.0</ele><time>2026-03-29T15:24:32Z</time></trkpt><trkpt lat="45.282744256286094" lon="8.898600690419935"><ele>91.0</ele><time>2026-03-29T15:24:34Z</time></trkpt><trkpt lat="45.28266647484061" lon="8.898677619866604"><ele>91.0</ele><time>2026-03-29T15:24:36Z</time></trkpt><trkpt lat="45.282604433994514" lon="8.898774592508502"><ele>90.66666666666666</ele><time>2026-03-29T15:24:38Z</time></trkpt><trkpt lat="45.28256509822386" lon="8.89890659747118"><ele>90.33333333333333</ele><time>2026-03-29T15:24:40Z</time></trkpt><trkpt lat="45.28254456838113" lon="8.898994536176264"><ele>90.0</ele><time>2026-03-29T15:24:41Z</time></trkpt><trkpt lat="45.28253279676677" lon="8.899087090725997"><ele>89.66666666666667</ele><time>2026-03-29T15:24:42Z</time></trkpt><trkpt lat="45.282517586990515" lon="8.899206330990422"><ele>89.33333333333334</ele><time>2026-03-29T15:24:43Z</time></trkpt><trkpt lat="45.282503758217175" lon="8.899330793916029"><ele>89.0</ele><time>2026-03-29T15:24:44Z</time></trkpt><trkpt lat="45.28249362847278" lon="8.899448472886341"><ele>88.83333333333334</ele><time>2026-03-29T15:24:45Z</time></trkpt><trkpt lat="45.28248962568611" lon="8.899545860056387"><ele>88.66666666666667</ele><time>2026-03-29T15:24:46Z</time></trkpt><trkpt lat="45.28248902323755" lon="8.899641708427092"><ele>88.5</ele><time>2026-03-29T15:24:47Z</time></trkpt><trkpt lat="45.28248719650142" lon="8.899790038089392"><ele>88.33333333333333</ele><time>2026-03-29T15:24:49Z</time></trkpt><trkpt lat="45.282482530953594" lon="8.899932265571948"><ele>88.16666666666666</ele><time>2026-03-29T15:24:51Z</time></trkpt><trkpt lat="45.28248955415392" lon="8.900025007221165"><ele>88.0</ele><time>2026-03-29T15:24:52Z</time></trkpt><trkpt lat="45.28250473701918" lon="8.900125384929238"><ele>87.2</ele><time>2026-03-29T15:24:53Z</time></trkpt><trkpt lat="45.28251951366612" lon="8.900268677603146"><ele>86.4</ele><time>2026-03-29T15:24:55Z</time></trkpt><trkpt lat="45.28254436707854" lon="8.900422214839976"><ele>85.60000000000001</ele><time>2026-03-29T15:24:57Z</time></trkpt><trkpt lat="45.28256791156262" lon="8.900559015958972"><ele>84.80000000000001</ele><time>2026-03-29T15:24:59Z</time></trkpt><trkpt lat="45.28256985157351" lon="8.900685880724538"><ele>84.0</ele><time>2026-03-29T15:25:01Z</time></trkpt><trkpt lat="45.28252677391549" lon="8.900814779465282"><ele>83.6</ele><time>2026-03-29T15:25:03Z</time></trkpt><trkpt lat="45.282473000236195" lon="8.900941418784221"><ele>83.2</ele><time>2026-03-29T15:25:05Z</time></trkpt><trkpt lat="45.28239945409972" lon="8.901097250698498"><ele>82.8</ele><time>2026-03-29T15:25:07Z</time></trkpt><trkpt lat="45.2823645473235" lon="8.90119740673968"><ele>82.39999999999999</ele><time>2026-03-29T15:25:08Z</time></trkpt><trkpt lat="45.28230961596148" lon="8.901270495366072"><ele>82.0</ele><time>2026-03-29T15:25:09Z</time></trkpt><trkpt lat="45.28226685340276" lon="8.901351327853817"><ele>81.83333333333333</ele><time>2026-03-29T15:25:10Z</time></trkpt><trkpt lat="45.282197370589145" lon="8.901482668696687"><ele>81.66666666666666</ele><time>2026-03-29T15:25:12Z</time></trkpt><trkpt lat="45.28214649781979" lon="8.901608867951527"><ele>81.5</ele><time>2026-03-29T15:25:14Z</time></trkpt><trkpt lat="45.28210144985575" lon="8.901684425118487"><ele>81.33333333333333</ele><time>2026-03-29T15:25:17Z</time></trkpt><trkpt lat="45.282054396055834" lon="8.901771458849055"><ele>81.16666666666667</ele><time>2026-03-29T15:25:21Z</time></trkpt><trkpt lat="45.28201691805837" lon="8.901858813801365"><ele>81.0</ele><time>2026-03-29T15:25:23Z</time></trkpt><trkpt lat="45.281946029254" lon="8.901911349174657"><ele>80.75</ele><time>2026-03-29T15:25:25Z</time></trkpt><trkpt lat="45.28181787388565" lon="8.901894511520686"><ele>80.5</ele><time>2026-03-29T15:25:27Z</time></trkpt><trkpt lat="45.28172077762461" lon="8.901903363015414"><ele>80.25</ele><time>2026-03-29T15:25:28Z</time></trkpt><trkpt lat="45.28159406589095" lon="8.901922037943086"><ele>80.0</ele><time>2026-03-29T15:25:29Z</time></trkpt><trkpt lat="45.281484651283186" lon="8.901943186488166"><ele>79.25</ele><time>2026-03-29T15:25:30Z</time></trkpt><trkpt lat="45.28137881904721" lon="8.90198347851353"><ele>78.5</ele><time>2026-03-29T15:25:31Z</time></trkpt><trkpt lat="45.281267258363954" lon="8.90203153904956"><ele>77.75</ele><time>2026-03-29T15:25:32Z</time></trkpt><trkpt lat="45.28114141919234" lon="8.902085750763435"><ele>77.0</ele><time>2026-03-29T15:25:33Z</time></trkpt><trkpt lat="45.281007994036635" lon="8.902145579699017"><ele>77.0</ele><time>2026-03-29T15:25:34Z</time></trkpt><trkpt lat="45.28089723559625" lon="8.902196045725331"><ele>77.0</ele><time>2026-03-29T15:25:35Z</time></trkpt><trkpt lat="45.280769511308975" lon="8.902249150890068"><ele>77.0</ele><time>2026-03-29T15:25:36Z</time></trkpt><trkpt lat="45.28066981866062" lon="8.902287537804877"><ele>77.0</ele><time>2026-03-29T15:25:37Z</time></trkpt><trkpt lat="45.2805787694287" lon="8.902343432743857"><ele>76.5</ele><time>2026-03-29T15:25:38Z</time></trkpt><trkpt lat="45.280479602947395" lon="8.902373922498347"><ele>76.0</ele><time>2026-03-29T15:25:39Z</time></trkpt><trkpt lat="45.28037230145615" lon="8.902425663299683"><ele>75.5</ele><time>2026-03-29T15:25:40Z</time></trkpt><trkpt lat="45.280255398006844" lon="8.902474069600013"><ele>75.0</ele><time>2026-03-29T15:25:41Z</time></trkpt><trkpt lat="45.280136122479504" lon="8.902527366035383"><ele>75.0</ele><time>2026-03-29T15:25:42Z</time></trkpt><trkpt lat="45.28001172068292" lon="8.90255583751092"><ele>75.0</ele><time>2026-03-29T15:25:43Z</time></trkpt><trkpt lat="45.27988970129161" lon="8.902605384196503"><ele>75.0</ele><time>2026-03-29T15:25:44Z</time></trkpt><trkpt lat="45.27977317060558" lon="8.902654578673486"><ele>75.0</ele><time>2026-03-29T15:25:45Z</time></trkpt><trkpt lat="45.279671864024756" lon="8.902719087341339"><ele>75.75</ele><time>2026-03-29T15:25:46Z</time></trkpt><trkpt lat="45.27955864352185" lon="8.902767635379579"><ele>76.5</ele><time>2026-03-29T15:25:47Z</time></trkpt><trkpt lat="45.2794311471687" lon="8.902795528100572"><ele>77.25</ele><time>2026-03-29T15:25:48Z</time></trkpt><trkpt lat="45.279313808889" lon="8.902840702124116"><ele>78.0</ele><time>2026-03-29T15:25:49Z</time></trkpt><trkpt lat="45.27918305630553" lon="8.902891040378188"><ele>78.0</ele><time>2026-03-29T15:25:50Z</time></trkpt><trkpt lat="45.27904990097682" lon="8.902942159549369"><ele>78.0</ele><time>2026-03-29T15:25:51Z</time></trkpt><trkpt lat="45.27892972185362" lon="8.902987904265055"><ele>78.0</ele><time>2026-03-29T15:25:52Z</time></trkpt><trkpt lat="45.27879726473485" lon="8.903041561966468"><ele>78.0</ele><time>2026-03-29T15:25:53Z</time></trkpt><trkpt lat="45.278666514934166" lon="8.903099900926055"><ele>77.75</ele><time>2026-03-29T15:25:54Z</time></trkpt><trkpt lat="45.278525598908445" lon="8.903166373540314"><ele>77.5</ele><time>2026-03-29T15:25:55Z</time></trkpt><trkpt lat="45.278380085417425" lon="8.903228590570675"><ele>77.25</ele><time>2026-03-29T15:25:56Z</time></trkpt><trkpt lat="45.27823796513798" lon="8.903277976435456"><ele>77.0</ele><time>2026-03-29T15:25:57Z</time></trkpt><trkpt lat="45.278102891805936" lon="8.903334867411735"><ele>76.66666666666667</ele><time>2026-03-29T15:25:58Z</time></trkpt><trkpt lat="45.277947144188566" lon="8.903394454002715"><ele>76.33333333333333</ele><time>2026-03-29T15:25:59Z</time></trkpt><trkpt lat="45.27780074827725" lon="8.90344767101181"><ele>76.0</ele><time>2026-03-29T15:26:00Z</time></trkpt><trkpt lat="45.27766706235824" lon="8.903499560035566"><ele>76.0</ele><time>2026-03-29T15:26:01Z</time></trkpt><trkpt lat="45.27754511362929" lon="8.903548078821744"><ele>76.0</ele><time>2026-03-29T15:26:02Z</time></trkpt><trkpt lat="45.27743739343864" lon="8.903590936662235"><ele>76.0</ele><time>2026-03-29T15:26:03Z</time></trkpt><trkpt lat="45.27734751502526" lon="8.903626695876769"><ele>76.0</ele><time>2026-03-29T15:26:04Z</time></trkpt><trkpt lat="45.27726488572453" lon="8.903659570981818"><ele>76.0</ele><time>2026-03-29T15:26:05Z</time></trkpt><trkpt lat="45.27719664106388" lon="8.903686722966292"><ele>76.2</ele><time>2026-03-29T15:26:06Z</time></trkpt><trkpt lat="45.277124239419656" lon="8.90371552886567"><ele>76.39999999999999</ele><time>2026-03-29T15:26:07Z</time></trkpt><trkpt lat="45.27699579010847" lon="8.903766634004066"><ele>76.6</ele><time>2026-03-29T15:26:09Z</time></trkpt><trkpt lat="45.276863158649405" lon="8.903823092475834"><ele>76.8</ele><time>2026-03-29T15:26:11Z</time></trkpt><trkpt lat="45.27679949182983" lon="8.903850574852461"><ele>77.0</ele><time>2026-03-29T15:26:12Z</time></trkpt><trkpt lat="45.276711254066456" lon="8.903912362703329"><ele>77.0</ele><time>2026-03-29T15:26:13Z</time></trkpt><trkpt lat="45.27661815643938" lon="8.903928849996927"><ele>77.0</ele><time>2026-03-29T15:26:14Z</time></trkpt><trkpt lat="45.27654147541209" lon="8.903961950060435"><ele>77.0</ele><time>2026-03-29T15:26:15Z</time></trkpt><trkpt lat="45.27647796309884" lon="8.903999342146436"><ele>77.0</ele><time>2026-03-29T15:26:16Z</time></trkpt><trkpt lat="45.276415508488554" lon="8.904032101588617"><ele>77.0</ele><time>2026-03-29T15:26:17Z</time></trkpt><trkpt lat="45.276301835762304" lon="8.904080012596427"><ele>77.0</ele><time>2026-03-29T15:26:19Z</time></trkpt><trkpt lat="45.27620658854984" lon="8.904115849152198"><ele>77.0</ele><time>2026-03-29T15:26:21Z</time></trkpt><trkpt lat="45.27614267312335" lon="8.904149687929943"><ele>77.0</ele><time>2026-03-29T15:26:23Z</time></trkpt><trkpt lat="45.27608748687963" lon="8.904216119499623"><ele>77.0</ele><time>2026-03-29T15:26:25Z</time></trkpt><trkpt lat="45.27610759171011" lon="8.904374731509154"><ele>77.0</ele><time>2026-03-29T15:26:27Z</time></trkpt><trkpt lat="45.276121709241814" lon="8.90447407244248"><ele>77.0</ele><time>2026-03-29T15:26:28Z</time></trkpt><trkpt lat="45.276148170787245" lon="8.904616307107379"><ele>77.0</ele><time>2026-03-29T15:26:29Z</time></trkpt><trkpt lat="45.27617090241796" lon="8.904756182467478"><ele>77.0</ele><time>2026-03-29T15:26:30Z</time></trkpt><trkpt lat="45.27618792996698" lon="8.90489984655493"><ele>77.0</ele><time>2026-03-29T15:26:31Z</time></trkpt><trkpt lat="45.276197510768505" lon="8.905021683066886"><ele>77.0</ele><time>2026-03-29T15:26:32Z</time></trkpt><trkpt lat="45.276204875637006" lon="8.905121968794225"><ele>77.0</ele><time>2026-03-29T15:26:33Z</time></trkpt><trkpt lat="45.27621580540275" lon="8.905212474906516"><ele>77.0</ele><time>2026-03-29T15:26:34Z</time></trkpt><trkpt lat="45.276229649534315" lon="8.905309877021281"><ele>77.0</ele><time>2026-03-29T15:26:35Z</time></trkpt><trkpt lat="45.27624374114064" lon="8.905419726321348"><ele>77.0</ele><time>2026-03-29T15:26:36Z</time></trkpt><trkpt lat="45.27624148609915" lon="8.905566132516487"><ele>77.0</ele><time>2026-03-29T15:26:38Z</time></trkpt><trkpt lat="45.2762112430841" lon="8.90569276922174"><ele>77.0</ele><time>2026-03-29T15:26:40Z</time></trkpt><trkpt lat="45.27612460871285" lon="8.90574029895963"><ele>77.0</ele><time>2026-03-29T15:26:42Z</time></trkpt><trkpt lat="45.276062765521075" lon="8.905764288088402"><ele>77.0</ele><time>2026-03-29T15:26:43Z</time></trkpt><trkpt lat="45.275980993555024" lon="8.905794011723067"><ele>77.0</ele><time>2026-03-29T15:26:44Z</time></trkpt><trkpt lat="45.27588988156162" lon="8.905828442661477"><ele>77.0</ele><time>2026-03-29T15:26:45Z</time></trkpt><trkpt lat="45.27577811166237" lon="8.90587166707072"><ele>77.0</ele><time>2026-03-29T15:26:46Z</time></trkpt><trkpt lat="45.27565910718346" lon="8.905941236452529"><ele>77.0</ele><time>2026-03-29T15:26:47Z</time></trkpt><trkpt lat="45.275544995477205" lon="8.905971577060216"><ele>77.0</ele><time>2026-03-29T15:26:48Z</time></trkpt><trkpt lat="45.275442147067935" lon="8.906015867025877"><ele>77.0</ele><time>2026-03-29T15:26:49Z</time></trkpt><trkpt lat="45.275326226838814" lon="8.906050634966896"><ele>77.0</ele><time>2026-03-29T15:26:50Z</time></trkpt><trkpt lat="45.27520301051159" lon="8.906105064668745"><ele>77.0</ele><time>2026-03-29T15:26:51Z</time></trkpt><trkpt lat="45.275091201393174" lon="8.906145802316237"><ele>77.0</ele><time>2026-03-29T15:26:52Z</time></trkpt><trkpt lat="45.27498430881432" lon="8.906183416581726"><ele>77.0</ele><time>2026-03-29T15:26:53Z</time></trkpt><trkpt lat="45.27486293987055" lon="8.906226553268574"><ele>77.0</ele><time>2026-03-29T15:26:54Z</time></trkpt><trkpt lat="45.274730109862716" lon="8.90627567222944"><ele>77.0</ele><time>2026-03-29T15:26:55Z</time></trkpt><trkpt lat="45.27459705026811" lon="8.906325571855195"><ele>77.0</ele><time>2026-03-29T15:26:56Z</time></trkpt><trkpt lat="45.274482288366706" lon="8.906362899346538"><ele>76.5</ele><time>2026-03-29T15:26:57Z</time></trkpt><trkpt lat="45.27438035197578" lon="8.906400092929383"><ele>76.0</ele><time>2026-03-29T15:26:58Z</time></trkpt><trkpt lat="45.274270694361746" lon="8.906439582017242"><ele>75.5</ele><time>2026-03-29T15:26:59Z</time></trkpt><trkpt lat="45.274165158609264" lon="8.906477653380163"><ele>75.0</ele><time>2026-03-29T15:27:00Z</time></trkpt><trkpt lat="45.27404597462085" lon="8.906520895339998"><ele>75.25</ele><time>2026-03-29T15:27:01Z</time></trkpt><trkpt lat="45.27391831747468" lon="8.906565013448123"><ele>75.5</ele><time>2026-03-29T15:27:02Z</time></trkpt><trkpt lat="45.27377809241829" lon="8.906592158276368"><ele>75.75</ele><time>2026-03-29T15:27:03Z</time></trkpt><trkpt lat="45.27365137396851" lon="8.906638319692041"><ele>76.0</ele><time>2026-03-29T15:27:04Z</time></trkpt><trkpt lat="45.273533853742975" lon="8.906681358583736"><ele>76.0</ele><time>2026-03-29T15:27:05Z</time></trkpt><trkpt lat="45.2734272640222" lon="8.906720394631977"><ele>76.0</ele><time>2026-03-29T15:27:06Z</time></trkpt><trkpt lat="45.27332902082819" lon="8.906756373888648"><ele>76.0</ele><time>2026-03-29T15:27:07Z</time></trkpt><trkpt lat="45.273238107769785" lon="8.906789668695696"><ele>76.0</ele><time>2026-03-29T15:27:08Z</time></trkpt><trkpt lat="45.27315350161274" lon="8.906820653689362"><ele>76.0</ele><time>2026-03-29T15:27:09Z</time></trkpt><trkpt lat="45.27308444640002" lon="8.906861749618937"><ele>75.83333333333333</ele><time>2026-03-29T15:27:10Z</time></trkpt><trkpt lat="45.27301244301352" lon="8.90688890896418"><ele>75.66666666666666</ele><time>2026-03-29T15:27:11Z</time></trkpt><trkpt lat="45.27294371368476" lon="8.906909316260567"><ele>75.5</ele><time>2026-03-29T15:27:12Z</time></trkpt><trkpt lat="45.272850434088376" lon="8.906936609731401"><ele>75.33333333333333</ele><time>2026-03-29T15:27:14Z</time></trkpt><trkpt lat="45.272781805631865" lon="8.906954735608855"><ele>75.16666666666667</ele><time>2026-03-29T15:27:16Z</time></trkpt><trkpt lat="45.272786406036026" lon="8.907081479135083"><ele>75.0</ele><time>2026-03-29T15:27:18Z</time></trkpt><trkpt lat="45.27283600269356" lon="8.907213975403767"><ele>75.0</ele><time>2026-03-29T15:27:20Z</time></trkpt><trkpt lat="45.272878455944024" lon="8.907300516271636"><ele>75.0</ele><time>2026-03-29T15:27:21Z</time></trkpt><trkpt lat="45.27292462480799" lon="8.907395465229246"><ele>75.0</ele><time>2026-03-29T15:27:22Z</time></trkpt><trkpt lat="45.27297008919154" lon="8.907489965493129"><ele>75.0</ele><time>2026-03-29T15:27:23Z</time></trkpt><trkpt lat="45.27302852332819" lon="8.907605103759344"><ele>75.0</ele><time>2026-03-29T15:27:24Z</time></trkpt><trkpt lat="45.27308881561833" lon="8.907730996339929"><ele>75.0</ele><time>2026-03-29T15:27:25Z</time></trkpt><trkpt lat="45.27314603424124" lon="8.907848051888703"><ele>75.2</ele><time>2026-03-29T15:27:26Z</time></trkpt><trkpt lat="45.27320257271289" lon="8.907947920961066"><ele>75.4</ele><time>2026-03-29T15:27:27Z</time></trkpt><trkpt lat="45.27326018151375" lon="8.908051583678876"><ele>75.6</ele><time>2026-03-29T15:27:28Z</time></trkpt><trkpt lat="45.273322713310925" lon="8.908150194596702"><ele>75.8</ele><time>2026-03-29T15:27:29Z</time></trkpt><trkpt lat="45.2733816786871" lon="8.908272697286131"><ele>76.0</ele><time>2026-03-29T15:27:30Z</time></trkpt><trkpt lat="45.27345136768624" lon="8.908389393793133"><ele>76.0</ele><time>2026-03-29T15:27:31Z</time></trkpt><trkpt lat="45.27353561619924" lon="8.908496494313198"><ele>76.0</ele><time>2026-03-29T15:27:32Z</time></trkpt><trkpt lat="45.273593181321644" lon="8.90862121765824"><ele>76.0</ele><time>2026-03-29T15:27:33Z</time></trkpt><trkpt lat="45.27364305358567" lon="8.908718552305288"><ele>76.0</ele><time>2026-03-29T15:27:34Z</time></trkpt><trkpt lat="45.27370648360335" lon="8.908817323451302"><ele>76.0</ele><time>2026-03-29T15:27:35Z</time></trkpt><trkpt lat="45.273767961217395" lon="8.90892592102636"><ele>76.0</ele><time>2026-03-29T15:27:36Z</time></trkpt><trkpt lat="45.27382213670486" lon="8.909039220157734"><ele>76.0</ele><time>2026-03-29T15:27:37Z</time></trkpt><trkpt lat="45.27388449029635" lon="8.909161803372756"><ele>76.0</ele><time>2026-03-29T15:27:38Z</time></trkpt><trkpt lat="45.2739490775055" lon="8.909282428741863"><ele>76.0</ele><time>2026-03-29T15:27:39Z</time></trkpt><trkpt lat="45.27401578586097" lon="8.909389444588681"><ele>76.0</ele><time>2026-03-29T15:27:40Z</time></trkpt><trkpt lat="45.274064844117376" lon="8.909522958998735"><ele>76.0</ele><time>2026-03-29T15:27:41Z</time></trkpt><trkpt lat="45.27412606255976" lon="8.909649199375892"><ele>76.0</ele><time>2026-03-29T15:27:42Z</time></trkpt><trkpt lat="45.274197458615625" lon="8.909779456217683"><ele>76.0</ele><time>2026-03-29T15:27:43Z</time></trkpt><trkpt lat="45.274339262777616" lon="8.910042122955527"><ele>76.0</ele><time>2026-03-29T15:27:45Z</time></trkpt><trkpt lat="45.27439394787098" lon="8.910190096236498"><ele>76.0</ele><time>2026-03-29T15:27:46Z</time></trkpt><trkpt lat="45.274461217708534" lon="8.910320933893718"><ele>76.0</ele><time>2026-03-29T15:27:47Z</time></trkpt><trkpt lat="45.27453159404852" lon="8.910442881252333"><ele>76.0</ele><time>2026-03-29T15:27:48Z</time></trkpt><trkpt lat="45.274605862451395" lon="8.910583926095214"><ele>76.0</ele><time>2026-03-29T15:27:49Z</time></trkpt><trkpt lat="45.27468155377351" lon="8.910729719212425"><ele>76.0</ele><time>2026-03-29T15:27:50Z</time></trkpt><trkpt lat="45.27476618715811" lon="8.910894394184346"><ele>76.0</ele><time>2026-03-29T15:27:51Z</time></trkpt><trkpt lat="45.27485734687695" lon="8.911071287087726"><ele>76.0</ele><time>2026-03-29T15:27:52Z</time></trkpt><trkpt lat="45.274937861880574" lon="8.911234209013813"><ele>76.0</ele><time>2026-03-29T15:27:53Z</time></trkpt><trkpt lat="45.27500618496703" lon="8.911369260041793"><ele>76.0</ele><time>2026-03-29T15:27:54Z</time></trkpt><trkpt lat="45.275069084445185" lon="8.911491619124437"><ele>76.0</ele><time>2026-03-29T15:27:55Z</time></trkpt><trkpt lat="45.27512361579407" lon="8.911599855958912"><ele>76.0</ele><time>2026-03-29T15:27:56Z</time></trkpt><trkpt lat="45.27517182807204" lon="8.911696104034702"><ele>76.0</ele><time>2026-03-29T15:27:57Z</time></trkpt><trkpt lat="45.27522009689138" lon="8.911791277520742"><ele>76.14285714285714</ele><time>2026-03-29T15:27:58Z</time></trkpt><trkpt lat="45.2752565150311" lon="8.911872861947213"><ele>76.28571428571429</ele><time>2026-03-29T15:27:59Z</time></trkpt><trkpt lat="45.27528849715225" lon="8.911954809495818"><ele>76.42857142857143</ele><time>2026-03-29T15:28:00Z</time></trkpt><trkpt lat="45.27530354254025" lon="8.912043810710184"><ele>76.57142857142857</ele><time>2026-03-29T15:28:01Z</time></trkpt><trkpt lat="45.27529995668297" lon="8.91215186990082"><ele>76.71428571428572</ele><time>2026-03-29T15:28:02Z</time></trkpt><trkpt lat="45.27528509340876" lon="8.91226051782711"><ele>76.85714285714286</ele><time>2026-03-29T15:28:03Z</time></trkpt><trkpt lat="45.27525431058319" lon="8.912382082760756"><ele>77.0</ele><time>2026-03-29T15:28:04Z</time></trkpt><trkpt lat="45.275216362414675" lon="8.912508476396319"><ele>76.75</ele><time>2026-03-29T15:28:05Z</time></trkpt><trkpt lat="45.275166821892554" lon="8.912665162453118"><ele>76.5</ele><time>2026-03-29T15:28:06Z</time></trkpt><trkpt lat="45.27511597967483" lon="8.91282920498309"><ele>76.25</ele><time>2026-03-29T15:28:07Z</time></trkpt><trkpt lat="45.27506688719237" lon="8.912966901526538"><ele>76.0</ele><time>2026-03-29T15:28:08Z</time></trkpt><trkpt lat="45.27502222761041" lon="8.913105276210956"><ele>76.0</ele><time>2026-03-29T15:28:09Z</time></trkpt><trkpt lat="45.274983816239974" lon="8.913217899127218"><ele>76.0</ele><time>2026-03-29T15:28:10Z</time></trkpt><trkpt lat="45.2749459070832" lon="8.91333651583372"><ele>76.0</ele><time>2026-03-29T15:28:11Z</time></trkpt><trkpt lat="45.2749109654777" lon="8.913463613707249"><ele>76.0</ele><time>2026-03-29T15:28:12Z</time></trkpt><trkpt lat="45.274878400577094" lon="8.913588699210758"><ele>76.0</ele><time>2026-03-29T15:28:13Z</time></trkpt><trkpt lat="45.2748428827405" lon="8.91371817821266"><ele>76.0</ele><time>2026-03-29T15:28:14Z</time></trkpt><trkpt lat="45.27480688037419" lon="8.913827269954206"><ele>76.0</ele><time>2026-03-29T15:28:15Z</time></trkpt><trkpt lat="45.27477624891564" lon="8.913933631474778"><ele>76.0</ele><time>2026-03-29T15:28:16Z</time></trkpt><trkpt lat="45.27475451901888" lon="8.9140196852956"><ele>76.0</ele><time>2026-03-29T15:28:17Z</time></trkpt><trkpt lat="45.27471631934248" lon="8.914157970804654"><ele>76.0</ele><time>2026-03-29T15:28:19Z</time></trkpt><trkpt lat="45.27467239871705" lon="8.914257576443571"><ele>76.0</ele><time>2026-03-29T15:28:21Z</time></trkpt><trkpt lat="45.274605145752425" lon="8.914317243250032"><ele>76.2</ele><time>2026-03-29T15:28:23Z</time></trkpt><trkpt lat="45.27450415010572" lon="8.914320347289088"><ele>76.39999999999999</ele><time>2026-03-29T15:28:25Z</time></trkpt><trkpt lat="45.27442356420937" lon="8.914393395356221"><ele>76.6</ele><time>2026-03-29T15:28:27Z</time></trkpt><trkpt lat="45.27434053447995" lon="8.914442929164466"><ele>76.8</ele><time>2026-03-29T15:28:29Z</time></trkpt><trkpt lat="45.27421472472613" lon="8.914494199690289"><ele>77.0</ele><time>2026-03-29T15:28:31Z</time></trkpt><trkpt lat="45.27413108882946" lon="8.914539725013853"><ele>77.0</ele><time>2026-03-29T15:28:32Z</time></trkpt><trkpt lat="45.27403860721707" lon="8.914591488380283"><ele>77.0</ele><time>2026-03-29T15:28:33Z</time></trkpt><trkpt lat="45.27394152778497" lon="8.914649434544918"><ele>77.0</ele><time>2026-03-29T15:28:34Z</time></trkpt><trkpt lat="45.27384524837861" lon="8.914706903137512"><ele>77.0</ele><time>2026-03-29T15:28:35Z</time></trkpt><trkpt lat="45.273728966659014" lon="8.914776311020939"><ele>77.0</ele><time>2026-03-29T15:28:36Z</time></trkpt><trkpt lat="45.273623791944175" lon="8.914838877434587"><ele>76.6</ele><time>2026-03-29T15:28:37Z</time></trkpt><trkpt lat="45.27352739934342" lon="8.914894439883437"><ele>76.2</ele><time>2026-03-29T15:28:38Z</time></trkpt><trkpt lat="45.273431592226686" lon="8.914949664779929"><ele>75.8</ele><time>2026-03-29T15:28:39Z</time></trkpt><trkpt lat="45.27333495035203" lon="8.91500537089931"><ele>75.4</ele><time>2026-03-29T15:28:40Z</time></trkpt><trkpt lat="45.27321786130979" lon="8.915075800838345"><ele>75.0</ele><time>2026-03-29T15:28:41Z</time></trkpt><trkpt lat="45.273099960904254" lon="8.915148026375935"><ele>74.8</ele><time>2026-03-29T15:28:42Z</time></trkpt><trkpt lat="45.27301010513706" lon="8.915223597080026"><ele>74.6</ele><time>2026-03-29T15:28:43Z</time></trkpt><trkpt lat="45.272911585878525" lon="8.915274256226258"><ele>74.4</ele><time>2026-03-29T15:28:44Z</time></trkpt><trkpt lat="45.27282562623479" lon="8.915325120530166"><ele>74.2</ele><time>2026-03-29T15:28:45Z</time></trkpt><trkpt lat="45.27274287519617" lon="8.915368442108798"><ele>74.0</ele><time>2026-03-29T15:28:46Z</time></trkpt><trkpt lat="45.27266692353854" lon="8.915410581769454"><ele>74.0</ele><time>2026-03-29T15:28:47Z</time></trkpt><trkpt lat="45.27255185655911" lon="8.91543482401502"><ele>74.0</ele><time>2026-03-29T15:28:49Z</time></trkpt><trkpt lat="45.27247979303019" lon="8.915466415337386"><ele>74.0</ele><time>2026-03-29T15:28:50Z</time></trkpt><trkpt lat="45.27240167958151" lon="8.915511853632827"><ele>74.0</ele><time>2026-03-29T15:28:51Z</time></trkpt><trkpt lat="45.27234265906813" lon="8.91557844135002"><ele>74.0</ele><time>2026-03-29T15:28:52Z</time></trkpt><trkpt lat="45.272278970117" lon="8.915626868219343"><ele>74.0</ele><time>2026-03-29T15:28:53Z</time></trkpt><trkpt lat="45.272169678346536" lon="8.91569678331236"><ele>74.2</ele><time>2026-03-29T15:28:55Z</time></trkpt><trkpt lat="45.27208055332569" lon="8.915760251230306"><ele>74.4</ele><time>2026-03-29T15:28:57Z</time></trkpt><trkpt lat="45.272027181852444" lon="8.91587765505887"><ele>74.6</ele><time>2026-03-29T15:28:59Z</time></trkpt><trkpt lat="45.272072755624514" lon="8.916044598854375"><ele>74.8</ele><time>2026-03-29T15:29:01Z</time></trkpt><trkpt lat="45.27211324687826" lon="8.916196041856267"><ele>75.0</ele><time>2026-03-29T15:29:03Z</time></trkpt><trkpt lat="45.27213373776366" lon="8.91631343285566"><ele>75.16666666666667</ele><time>2026-03-29T15:29:05Z</time></trkpt><trkpt lat="45.27210235858219" lon="8.916407215384275"><ele>75.33333333333333</ele><time>2026-03-29T15:29:07Z</time></trkpt><trkpt lat="45.27203775045607" lon="8.916411839924637"><ele>75.5</ele><time>2026-03-29T15:29:09Z</time></trkpt><trkpt lat="45.271949919009664" lon="8.91642458167108"><ele>75.66666666666666</ele><time>2026-03-29T15:29:11Z</time></trkpt><trkpt lat="45.271878881809926" lon="8.916445151372749"><ele>75.83333333333333</ele><time>2026-03-29T15:29:12Z</time></trkpt><trkpt lat="45.271782718284626" lon="8.916478257734044"><ele>76.0</ele><time>2026-03-29T15:29:13Z</time></trkpt><trkpt lat="45.27167906877478" lon="8.916527300995684"><ele>76.0</ele><time>2026-03-29T15:29:14Z</time></trkpt><trkpt lat="45.2715881210672" lon="8.916587715665099"><ele>76.0</ele><time>2026-03-29T15:29:15Z</time></trkpt><trkpt lat="45.27149039181288" lon="8.916616202763848"><ele>76.0</ele><time>2026-03-29T15:29:16Z</time></trkpt><trkpt lat="45.27138838192354" lon="8.916626395422728"><ele>76.0</ele><time>2026-03-29T15:29:17Z</time></trkpt><trkpt lat="45.271289800796566" lon="8.916619440135149"><ele>76.0</ele><time>2026-03-29T15:29:18Z</time></trkpt><trkpt lat="45.27119438751518" lon="8.916573505845697"><ele>75.5</ele><time>2026-03-29T15:29:19Z</time></trkpt><trkpt lat="45.271087398839484" lon="8.916574294610882"><ele>75.0</ele><time>2026-03-29T15:29:20Z</time></trkpt><trkpt lat="45.27097732517661" lon="8.916601206321152"><ele>74.5</ele><time>2026-03-29T15:29:21Z</time></trkpt><trkpt lat="45.27085054648764" lon="8.916649075684422"><ele>74.0</ele><time>2026-03-29T15:29:22Z</time></trkpt><trkpt lat="45.27071673530808" lon="8.916701616569576"><ele>74.0</ele><time>2026-03-29T15:29:23Z</time></trkpt><trkpt lat="45.270600929618155" lon="8.916748875962107"><ele>74.0</ele><time>2026-03-29T15:29:24Z</time></trkpt><trkpt lat="45.27047846386985" lon="8.916799882830965"><ele>74.0</ele><time>2026-03-29T15:29:25Z</time></trkpt><trkpt lat="45.27033873888201" lon="8.91686241235827"><ele>74.0</ele><time>2026-03-29T15:29:26Z</time></trkpt><trkpt lat="45.270198166659384" lon="8.916927634638887"><ele>74.0</ele><time>2026-03-29T15:29:27Z</time></trkpt><trkpt lat="45.270081715054964" lon="8.916978810072743"><ele>74.0</ele><time>2026-03-29T15:29:28Z</time></trkpt><trkpt lat="45.26996317610095" lon="8.917025648147686"><ele>74.0</ele><time>2026-03-29T15:29:29Z</time></trkpt><trkpt lat="45.269840773948154" lon="8.917072853664594"><ele>74.0</ele><time>2026-03-29T15:29:30Z</time></trkpt><trkpt lat="45.26970749949851" lon="8.917124624740426"><ele>74.0</ele><time>2026-03-29T15:29:31Z</time></trkpt><trkpt lat="45.26956203679819" lon="8.917206246109226"><ele>74.0</ele><time>2026-03-29T15:29:32Z</time></trkpt><trkpt lat="45.269407310102494" lon="8.91725652984059"><ele>74.0</ele><time>2026-03-29T15:29:33Z</time></trkpt><trkpt lat="45.269258342708504" lon="8.917319742902102"><ele>74.0</ele><time>2026-03-29T15:29:34Z</time></trkpt><trkpt lat="45.26910997552939" lon="8.917378632664564"><ele>74.0</ele><time>2026-03-29T15:29:35Z</time></trkpt><trkpt lat="45.26897535128279" lon="8.917431237642877"><ele>74.0</ele><time>2026-03-29T15:29:36Z</time></trkpt><trkpt lat="45.26882598835881" lon="8.917491829794503"><ele>74.0</ele><time>2026-03-29T15:29:37Z</time></trkpt><trkpt lat="45.26865292108904" lon="8.917560369089077"><ele>73.75</ele><time>2026-03-29T15:29:38Z</time></trkpt><trkpt lat="45.26850226757298" lon="8.917616314795294"><ele>73.5</ele><time>2026-03-29T15:29:39Z</time></trkpt><trkpt lat="45.26835718205445" lon="8.917674732465118"><ele>73.25</ele><time>2026-03-29T15:29:40Z</time></trkpt><trkpt lat="45.26823023205097" lon="8.917723431508177"><ele>73.0</ele><time>2026-03-29T15:29:41Z</time></trkpt><trkpt lat="45.2681035186656" lon="8.917766904758736"><ele>73.75</ele><time>2026-03-29T15:29:42Z</time></trkpt><trkpt lat="45.267987519939446" lon="8.917823181379381"><ele>74.5</ele><time>2026-03-29T15:29:43Z</time></trkpt><trkpt lat="45.26787904966723" lon="8.917864064312628"><ele>75.25</ele><time>2026-03-29T15:29:44Z</time></trkpt><trkpt lat="45.26775835280993" lon="8.917901981513802"><ele>76.0</ele><time>2026-03-29T15:29:45Z</time></trkpt><trkpt lat="45.2676448938675" lon="8.917957158736192"><ele>76.0</ele><time>2026-03-29T15:29:46Z</time></trkpt><trkpt lat="45.267539385440436" lon="8.917998320702916"><ele>76.0</ele><time>2026-03-29T15:29:47Z</time></trkpt><trkpt lat="45.26743777002383" lon="8.918034299916474"><ele>76.0</ele><time>2026-03-29T15:29:48Z</time></trkpt><trkpt lat="45.267352137295504" lon="8.918060531239625"><ele>76.0</ele><time>2026-03-29T15:29:49Z</time></trkpt><trkpt lat="45.26727844428432" lon="8.91807799850201"><ele>76.0</ele><time>2026-03-29T15:29:50Z</time></trkpt><trkpt lat="45.26719454988182" lon="8.91809511402798"><ele>75.66666666666666</ele><time>2026-03-29T15:29:51Z</time></trkpt><trkpt lat="45.26711039375087" lon="8.918094795376277"><ele>75.33333333333333</ele><time>2026-03-29T15:29:52Z</time></trkpt><trkpt lat="45.267030242644815" lon="8.91811490622488"><ele>75.0</ele><time>2026-03-29T15:29:53Z</time></trkpt><trkpt lat="45.26696754882201" lon="8.91814175180135"><ele>74.66666666666667</ele><time>2026-03-29T15:29:54Z</time></trkpt><trkpt lat="45.26687046855583" lon="8.918207564007055"><ele>74.33333333333334</ele><time>2026-03-29T15:29:56Z</time></trkpt><trkpt lat="45.26679900014695" lon="8.918289328774323"><ele>74.0</ele><time>2026-03-29T15:29:58Z</time></trkpt><trkpt lat="45.266785400965986" lon="8.918436384677847"><ele>74.0</ele><time>2026-03-29T15:30:00Z</time></trkpt><trkpt lat="45.2668030217223" lon="8.918598015842404"><ele>74.0</ele><time>2026-03-29T15:30:02Z</time></trkpt><trkpt lat="45.266799716089054" lon="8.91873040549185"><ele>74.0</ele><time>2026-03-29T15:30:04Z</time></trkpt><trkpt lat="45.26673623187275" lon="8.918819811911165"><ele>74.0</ele><time>2026-03-29T15:30:06Z</time></trkpt><trkpt lat="45.266615445602696" lon="8.918809966926048"><ele>74.0</ele><time>2026-03-29T15:30:08Z</time></trkpt><trkpt lat="45.26653131682887" lon="8.918812426387637"><ele>73.8</ele><time>2026-03-29T15:30:09Z</time></trkpt><trkpt lat="45.26641834736745" lon="8.918816193435367"><ele>73.60000000000001</ele><time>2026-03-29T15:30:10Z</time></trkpt><trkpt lat="45.266316305787306" lon="8.918823351580713"><ele>73.4</ele><time>2026-03-29T15:30:11Z</time></trkpt><trkpt lat="45.26620793343732" lon="8.918831969089306"><ele>73.2</ele><time>2026-03-29T15:30:12Z</time></trkpt><trkpt lat="45.26611919194847" lon="8.91883911095954"><ele>73.0</ele><time>2026-03-29T15:30:13Z</time></trkpt><trkpt lat="45.26601648749212" lon="8.918847376557457"><ele>73.0</ele><time>2026-03-29T15:30:14Z</time></trkpt><trkpt lat="45.26590729753067" lon="8.918856164107725"><ele>73.0</ele><time>2026-03-29T15:30:15Z</time></trkpt><trkpt lat="45.265793548903204" lon="8.91886531853595"><ele>73.0</ele><time>2026-03-29T15:30:16Z</time></trkpt><trkpt lat="45.26568568349771" lon="8.918873999482859"><ele>73.0</ele><time>2026-03-29T15:30:17Z</time></trkpt><trkpt lat="45.26558610607646" lon="8.918882013423287"><ele>73.0</ele><time>2026-03-29T15:30:18Z</time></trkpt><trkpt lat="45.265487783199234" lon="8.91888989999535"><ele>73.2</ele><time>2026-03-29T15:30:19Z</time></trkpt><trkpt lat="45.26538357054978" lon="8.918895352597627"><ele>73.4</ele><time>2026-03-29T15:30:20Z</time></trkpt><trkpt lat="45.26529053614878" lon="8.918898418186613"><ele>73.60000000000001</ele><time>2026-03-29T15:30:21Z</time></trkpt><trkpt lat="45.26519819314859" lon="8.918896915617454"><ele>73.8</ele><time>2026-03-29T15:30:22Z</time></trkpt><trkpt lat="45.265092367832004" lon="8.918902391620556"><ele>74.0</ele><time>2026-03-29T15:30:23Z</time></trkpt><trkpt lat="45.2650081904486" lon="8.918849048293202"><ele>74.0</ele><time>2026-03-29T15:30:24Z</time></trkpt><trkpt lat="45.264939004453275" lon="8.91881732308636"><ele>74.0</ele><time>2026-03-29T15:30:25Z</time></trkpt><trkpt lat="45.264852297058134" lon="8.918778451041288"><ele>74.0</ele><time>2026-03-29T15:30:26Z</time></trkpt><trkpt lat="45.26475518210852" lon="8.918738586824574"><ele>74.0</ele><time>2026-03-29T15:30:27Z</time></trkpt><trkpt lat="45.264681709905204" lon="8.918712055337652"><ele>74.0</ele><time>2026-03-29T15:30:28Z</time></trkpt><trkpt lat="45.26460575777556" lon="8.91868750344393"><ele>74.0</ele><time>2026-03-29T15:30:29Z</time></trkpt><trkpt lat="45.2645045438417" lon="8.918667437122608"><ele>73.8</ele><time>2026-03-29T15:30:31Z</time></trkpt><trkpt lat="45.26440428716216" lon="8.918670129405813"><ele>73.60000000000001</ele><time>2026-03-29T15:30:33Z</time></trkpt><trkpt lat="45.26433079770946" lon="8.918685088964786"><ele>73.4</ele><time>2026-03-29T15:30:35Z</time></trkpt><trkpt lat="45.26426593698019" lon="8.91868658055442"><ele>73.2</ele><time>2026-03-29T15:30:38Z</time></trkpt><trkpt lat="45.264283521095834" lon="8.918921197397198"><ele>73.0</ele><time>2026-03-29T15:30:41Z</time></trkpt><trkpt lat="45.26431001990099" lon="8.91901921641235"><ele>73.0</ele><time>2026-03-29T15:30:42Z</time></trkpt><trkpt lat="45.264337503758675" lon="8.919145837871083"><ele>73.0</ele><time>2026-03-29T15:30:43Z</time></trkpt><trkpt lat="45.264371782800794" lon="8.919309072365888"><ele>73.0</ele><time>2026-03-29T15:30:44Z</time></trkpt><trkpt lat="45.26440075390357" lon="8.91945926246239"><ele>73.0</ele><time>2026-03-29T15:30:45Z</time></trkpt><trkpt lat="45.26443670772086" lon="8.919634200527007"><ele>73.0</ele><time>2026-03-29T15:30:46Z</time></trkpt><trkpt lat="45.26447190696374" lon="8.919816607338149"><ele>73.0</ele><time>2026-03-29T15:30:47Z</time></trkpt><trkpt lat="45.26450819239157" lon="8.919999013445155"><ele>73.0</ele><time>2026-03-29T15:30:48Z</time></trkpt><trkpt lat="45.26453983369618" lon="8.920181122698823"><ele>73.0</ele><time>2026-03-29T15:30:49Z</time></trkpt><trkpt lat="45.26457505463823" lon="8.920381929588899"><ele>73.0</ele><time>2026-03-29T15:30:50Z</time></trkpt><trkpt lat="45.26461246859307" lon="8.920589441122296"><ele>73.0</ele><time>2026-03-29T15:30:51Z</time></trkpt><trkpt lat="45.26465079358656" lon="8.920809631222877"><ele>73.0</ele><time>2026-03-29T15:30:52Z</time></trkpt><trkpt lat="45.2646922162075" lon="8.921032026186097"><ele>73.0</ele><time>2026-03-29T15:30:53Z</time></trkpt><trkpt lat="45.264730663208425" lon="8.92125644465463"><ele>73.0</ele><time>2026-03-29T15:30:54Z</time></trkpt><trkpt lat="45.26476959780796" lon="8.921485844527155"><ele>73.0</ele><time>2026-03-29T15:30:55Z</time></trkpt><trkpt lat="45.264811299844375" lon="8.921704796856638"><ele>73.33333333333333</ele><time>2026-03-29T15:30:56Z</time></trkpt><trkpt lat="45.264847033140825" lon="8.921920055002378"><ele>73.66666666666667</ele><time>2026-03-29T15:30:57Z</time></trkpt><trkpt lat="45.264877605644216" lon="8.922138996677184"><ele>74.0</ele><time>2026-03-29T15:30:58Z</time></trkpt><trkpt lat="45.26490923674184" lon="8.922371812345288"><ele>74.25</ele><time>2026-03-29T15:30:59Z</time></trkpt><trkpt lat="45.26493876915044" lon="8.922582528215418"><ele>74.5</ele><time>2026-03-29T15:31:00Z</time></trkpt><trkpt lat="45.26497201551745" lon="8.922796875250285"><ele>74.75</ele><time>2026-03-29T15:31:01Z</time></trkpt><trkpt lat="45.26499604085637" lon="8.922993264214535"><ele>75.0</ele><time>2026-03-29T15:31:02Z</time></trkpt><trkpt lat="45.265018701774984" lon="8.923199244058221"><ele>75.5</ele><time>2026-03-29T15:31:03Z</time></trkpt><trkpt lat="45.26503234335271" lon="8.923418677191085"><ele>76.0</ele><time>2026-03-29T15:31:04Z</time></trkpt><trkpt lat="45.26503882334969" lon="8.923645326649448"><ele>76.5</ele><time>2026-03-29T15:31:05Z</time></trkpt><trkpt lat="45.265044624018905" lon="8.923830851424693"><ele>77.0</ele><time>2026-03-29T15:31:06Z</time></trkpt><trkpt lat="45.265052008023325" lon="8.924017946531269"><ele>77.0</ele><time>2026-03-29T15:31:07Z</time></trkpt><trkpt lat="45.26505798780058" lon="8.924204677891318"><ele>77.0</ele><time>2026-03-29T15:31:08Z</time></trkpt><trkpt lat="45.265063702022246" lon="8.92438784215901"><ele>77.0</ele><time>2026-03-29T15:31:09Z</time></trkpt><trkpt lat="45.265068056147015" lon="8.924550126168453"><ele>77.0</ele><time>2026-03-29T15:31:10Z</time></trkpt><trkpt lat="45.26507196654746" lon="8.924706318855216"><ele>77.0</ele><time>2026-03-29T15:31:11Z</time></trkpt><trkpt lat="45.26507667702885" lon="8.92486407659179"><ele>77.0</ele><time>2026-03-29T15:31:12Z</time></trkpt><trkpt lat="45.26505835554829" lon="8.925024055804812"><ele>77.0</ele><time>2026-03-29T15:31:13Z</time></trkpt><trkpt lat="45.26506127360507" lon="8.92520354136389"><ele>77.0</ele><time>2026-03-29T15:31:14Z</time></trkpt><trkpt lat="45.26503788725523" lon="8.925387132559798"><ele>77.0</ele><time>2026-03-29T15:31:15Z</time></trkpt><trkpt lat="45.265016942658825" lon="8.925568389123658"><ele>77.0</ele><time>2026-03-29T15:31:16Z</time></trkpt><trkpt lat="45.26500400458997" lon="8.925729073134328"><ele>77.0</ele><time>2026-03-29T15:31:17Z</time></trkpt><trkpt lat="45.26502304757375" lon="8.925886286813196"><ele>77.0</ele><time>2026-03-29T15:31:18Z</time></trkpt><trkpt lat="45.265064600819095" lon="8.926063554325745"><ele>77.0</ele><time>2026-03-29T15:31:19Z</time></trkpt><trkpt lat="45.265106320399454" lon="8.926216447796877"><ele>77.0</ele><time>2026-03-29T15:31:20Z</time></trkpt><trkpt lat="45.265146126040655" lon="8.926357920872217"><ele>77.0</ele><time>2026-03-29T15:31:21Z</time></trkpt><trkpt lat="45.26518486452457" lon="8.926490925493086"><ele>77.0</ele><time>2026-03-29T15:31:22Z</time></trkpt><trkpt lat="45.265215946810024" lon="8.926607488286546"><ele>77.0</ele><time>2026-03-29T15:31:23Z</time></trkpt><trkpt lat="45.26523656785284" lon="8.926697440853415"><ele>76.66666666666667</ele><time>2026-03-29T15:31:24Z</time></trkpt><trkpt lat="45.26524513525168" lon="8.926787668950768"><ele>76.33333333333334</ele><time>2026-03-29T15:31:25Z</time></trkpt><trkpt lat="45.26524150137101" lon="8.92687717384484"><ele>76.0</ele><time>2026-03-29T15:31:26Z</time></trkpt><trkpt lat="45.26522637534517" lon="8.92699232686246"><ele>75.66666666666667</ele><time>2026-03-29T15:31:27Z</time></trkpt><trkpt lat="45.26520926095858" lon="8.927133271724815"><ele>75.33333333333333</ele><time>2026-03-29T15:31:28Z</time></trkpt><trkpt lat="45.265194809008946" lon="8.927267283973979"><ele>75.0</ele><time>2026-03-29T15:31:29Z</time></trkpt><trkpt lat="45.265179072949486" lon="8.92737423567205"><ele>75.0</ele><time>2026-03-29T15:31:30Z</time></trkpt><trkpt lat="45.2651668325503" lon="8.927516993337008"><ele>75.0</ele><time>2026-03-29T15:31:32Z</time></trkpt><trkpt lat="45.26517911930751" lon="8.92760562883"><ele>75.0</ele><time>2026-03-29T15:31:34Z</time></trkpt><trkpt lat="45.26530650883617" lon="8.927605264511847"><ele>75.0</ele><time>2026-03-29T15:31:35Z</time></trkpt><trkpt lat="45.26538794823382" lon="8.927592549927226"><ele>75.0</ele><time>2026-03-29T15:31:36Z</time></trkpt><trkpt lat="45.26550797864593" lon="8.927604659045745"><ele>75.25</ele><time>2026-03-29T15:31:37Z</time></trkpt><trkpt lat="45.26561652042325" lon="8.927570329318218"><ele>75.5</ele><time>2026-03-29T15:31:38Z</time></trkpt><trkpt lat="45.26571668519758" lon="8.927546238967688"><ele>75.75</ele><time>2026-03-29T15:31:39Z</time></trkpt><trkpt lat="45.265855061054566" lon="8.927502495397379"><ele>76.0</ele><time>2026-03-29T15:31:40Z</time></trkpt><trkpt lat="45.265998549112375" lon="8.927429802128392"><ele>76.0</ele><time>2026-03-29T15:31:41Z</time></trkpt><trkpt lat="45.266139273099235" lon="8.92730635738586"><ele>76.0</ele><time>2026-03-29T15:31:42Z</time></trkpt><trkpt lat="45.266257745202665" lon="8.927162613005267"><ele>76.0</ele><time>2026-03-29T15:31:43Z</time></trkpt><trkpt lat="45.26638092566327" lon="8.927016607944394"><ele>76.66666666666666</ele><time>2026-03-29T15:31:44Z</time></trkpt><trkpt lat="45.26652073733885" lon="8.92690934682232"><ele>77.33333333333333</ele><time>2026-03-29T15:31:45Z</time></trkpt><trkpt lat="45.26666339640121" lon="8.926813612239208"><ele>78.0</ele><time>2026-03-29T15:31:46Z</time></trkpt><trkpt lat="45.26681181147057" lon="8.926743410893765"><ele>77.33333333333333</ele><time>2026-03-29T15:31:47Z</time></trkpt><trkpt lat="45.26696944285353" lon="8.926686388212943"><ele>76.66666666666666</ele><time>2026-03-29T15:31:48Z</time></trkpt><trkpt lat="45.26712362013141" lon="8.926613249877708"><ele>76.0</ele><time>2026-03-29T15:31:49Z</time></trkpt><trkpt lat="45.267267499567396" lon="8.92660453696536"><ele>76.33333333333333</ele><time>2026-03-29T15:31:50Z</time></trkpt><trkpt lat="45.267420023876575" lon="8.926585441593797"><ele>76.66666666666667</ele><time>2026-03-29T15:31:51Z</time></trkpt><trkpt lat="45.267578346656805" lon="8.926607741984698"><ele>77.0</ele><time>2026-03-29T15:31:52Z</time></trkpt><trkpt lat="45.26775413376923" lon="8.926648276966612"><ele>77.0</ele><time>2026-03-29T15:31:53Z</time></trkpt><trkpt lat="45.267920127763205" lon="8.926697974370098"><ele>77.0</ele><time>2026-03-29T15:31:54Z</time></trkpt><trkpt lat="45.26809053443675" lon="8.926748992967056"><ele>77.0</ele><time>2026-03-29T15:31:55Z</time></trkpt><trkpt lat="45.26826932442348" lon="8.926782047740124"><ele>76.66666666666667</ele><time>2026-03-29T15:31:56Z</time></trkpt><trkpt lat="45.26845262732161" lon="8.926841047186679"><ele>76.33333333333333</ele><time>2026-03-29T15:31:57Z</time></trkpt><trkpt lat="45.26862352076979" lon="8.92690904676692"><ele>76.0</ele><time>2026-03-29T15:31:58Z</time></trkpt><trkpt lat="45.26877239125264" lon="8.927004705471369"><ele>76.0</ele><time>2026-03-29T15:31:59Z</time></trkpt><trkpt lat="45.26892933538802" lon="8.927099589864731"><ele>76.0</ele><time>2026-03-29T15:32:00Z</time></trkpt><trkpt lat="45.26908575036203" lon="8.927239951953988"><ele>76.0</ele><time>2026-03-29T15:32:01Z</time></trkpt><trkpt lat="45.26922495197613" lon="8.927369042202447"><ele>76.0</ele><time>2026-03-29T15:32:02Z</time></trkpt><trkpt lat="45.2693512308671" lon="8.927458374604145"><ele>76.0</ele><time>2026-03-29T15:32:03Z</time></trkpt><trkpt lat="45.26947328537889" lon="8.9275505559006"><ele>76.0</ele><time>2026-03-29T15:32:04Z</time></trkpt><trkpt lat="45.26957735608379" lon="8.92763023616876"><ele>76.0</ele><time>2026-03-29T15:32:05Z</time></trkpt><trkpt lat="45.26967364604846" lon="8.927713867258458"><ele>76.0</ele><time>2026-03-29T15:32:06Z</time></trkpt><trkpt lat="45.26974483511953" lon="8.927880757536638"><ele>76.0</ele><time>2026-03-29T15:32:07Z</time></trkpt><trkpt lat="45.26983491839096" lon="8.928065050093027"><ele>76.0</ele><time>2026-03-29T15:32:08Z</time></trkpt><trkpt lat="45.269932561506934" lon="8.928240111531924"><ele>75.75</ele><time>2026-03-29T15:32:09Z</time></trkpt><trkpt lat="45.270007894115786" lon="8.92840478101095"><ele>75.5</ele><time>2026-03-29T15:32:10Z</time></trkpt><trkpt lat="45.270093430663124" lon="8.928578394554991"><ele>75.25</ele><time>2026-03-29T15:32:11Z</time></trkpt><trkpt lat="45.270173183917045" lon="8.928733236976152"><ele>75.0</ele><time>2026-03-29T15:32:12Z</time></trkpt><trkpt lat="45.270244782885115" lon="8.92887913896593"><ele>75.0</ele><time>2026-03-29T15:32:13Z</time></trkpt><trkpt lat="45.27032827552159" lon="8.929038256353463"><ele>75.0</ele><time>2026-03-29T15:32:14Z</time></trkpt><trkpt lat="45.270417022977455" lon="8.929217289289786"><ele>75.0</ele><time>2026-03-29T15:32:15Z</time></trkpt><trkpt lat="45.27049718908315" lon="8.929385524128383"><ele>75.0</ele><time>2026-03-29T15:32:16Z</time></trkpt><trkpt lat="45.27058629535866" lon="8.929563342942025"><ele>75.0</ele><time>2026-03-29T15:32:17Z</time></trkpt><trkpt lat="45.27066420367519" lon="8.929719062084294"><ele>75.0</ele><time>2026-03-29T15:32:18Z</time></trkpt><trkpt lat="45.27073834959106" lon="8.929866690152217"><ele>75.0</ele><time>2026-03-29T15:32:19Z</time></trkpt><trkpt lat="45.27081204236361" lon="8.929992611666346"><ele>75.0</ele><time>2026-03-29T15:32:20Z</time></trkpt><trkpt lat="45.27088886411417" lon="8.930103806700869"><ele>75.2</ele><time>2026-03-29T15:32:21Z</time></trkpt><trkpt lat="45.27096444008285" lon="8.930199755893211"><ele>75.4</ele><time>2026-03-29T15:32:22Z</time></trkpt><trkpt lat="45.271051839826306" lon="8.930260163533795"><ele>75.6</ele><time>2026-03-29T15:32:23Z</time></trkpt><trkpt lat="45.27113705827515" lon="8.93033023446239"><ele>75.8</ele><time>2026-03-29T15:32:24Z</time></trkpt><trkpt lat="45.271211132894145" lon="8.930415959588299"><ele>76.0</ele><time>2026-03-29T15:32:25Z</time></trkpt><trkpt lat="45.271277809443596" lon="8.930491943607057"><ele>76.0</ele><time>2026-03-29T15:32:26Z</time></trkpt><trkpt lat="45.27133170946181" lon="8.930561403242976"><ele>76.0</ele><time>2026-03-29T15:32:27Z</time></trkpt><trkpt lat="45.27136454745771" lon="8.930638885768998"><ele>76.0</ele><time>2026-03-29T15:32:28Z</time></trkpt><trkpt lat="45.27137948808074" lon="8.930742098712418"><ele>76.0</ele><time>2026-03-29T15:32:29Z</time></trkpt><trkpt lat="45.271370889056826" lon="8.93088150907546"><ele>76.0</ele><time>2026-03-29T15:32:30Z</time></trkpt><trkpt lat="45.27134787070147" lon="8.931017321629438"><ele>76.0</ele><time>2026-03-29T15:32:31Z</time></trkpt><trkpt lat="45.271321814489305" lon="8.931182939698118"><ele>76.0</ele><time>2026-03-29T15:32:32Z</time></trkpt><trkpt lat="45.2712850967028" lon="8.93138081520194"><ele>76.0</ele><time>2026-03-29T15:32:33Z</time></trkpt><trkpt lat="45.27124485475525" lon="8.931579149613206"><ele>76.0</ele><time>2026-03-29T15:32:34Z</time></trkpt><trkpt lat="45.27120056431311" lon="8.931784355688778"><ele>76.0</ele><time>2026-03-29T15:32:35Z</time></trkpt><trkpt lat="45.271136460586526" lon="8.93198181863582"><ele>76.0</ele><time>2026-03-29T15:32:36Z</time></trkpt><trkpt lat="45.27108266637215" lon="8.932157839658634"><ele>76.0</ele><time>2026-03-29T15:32:37Z</time></trkpt><trkpt lat="45.271032168981435" lon="8.932333114567726"><ele>76.0</ele><time>2026-03-29T15:32:38Z</time></trkpt><trkpt lat="45.2709862468939" lon="8.932505078337817"><ele>76.0</ele><time>2026-03-29T15:32:39Z</time></trkpt><trkpt lat="45.27096411444059" lon="8.932669152846282"><ele>75.25</ele><time>2026-03-29T15:32:40Z</time></trkpt><trkpt lat="45.27092865153338" lon="8.932818031070788"><ele>74.5</ele><time>2026-03-29T15:32:41Z</time></trkpt><trkpt lat="45.27090020329933" lon="8.93297831921013"><ele>73.75</ele><time>2026-03-29T15:32:42Z</time></trkpt><trkpt lat="45.27087762409418" lon="8.93315996499945"><ele>73.0</ele><time>2026-03-29T15:32:43Z</time></trkpt><trkpt lat="45.27086423539444" lon="8.933364719359787"><ele>72.66666666666666</ele><time>2026-03-29T15:32:44Z</time></trkpt><trkpt lat="45.270852484330504" lon="8.933579744971587"><ele>72.33333333333333</ele><time>2026-03-29T15:32:45Z</time></trkpt><trkpt lat="45.270844366719224" lon="8.933799470000718"><ele>72.0</ele><time>2026-03-29T15:32:46Z</time></trkpt><trkpt lat="45.270836154268096" lon="8.934022718413157"><ele>72.66666666666667</ele><time>2026-03-29T15:32:47Z</time></trkpt><trkpt lat="45.27081048778269" lon="8.934257525084606"><ele>73.33333333333334</ele><time>2026-03-29T15:32:48Z</time></trkpt><trkpt lat="45.270816967874865" lon="8.93448879532077"><ele>74.0</ele><time>2026-03-29T15:32:49Z</time></trkpt><trkpt lat="45.27080529227351" lon="8.93470275635961"><ele>74.0</ele><time>2026-03-29T15:32:50Z</time></trkpt><trkpt lat="45.2707952549182" lon="8.934920553780334"><ele>74.0</ele><time>2026-03-29T15:32:51Z</time></trkpt><trkpt lat="45.2707687265314" lon="8.93513389256315"><ele>74.0</ele><time>2026-03-29T15:32:52Z</time></trkpt><trkpt lat="45.270746061547854" lon="8.935339080049914"><ele>74.25</ele><time>2026-03-29T15:32:53Z</time></trkpt><trkpt lat="45.270712684644955" lon="8.935554870926614"><ele>74.5</ele><time>2026-03-29T15:32:54Z</time></trkpt><trkpt lat="45.27067558064287" lon="8.935766695969901"><ele>74.75</ele><time>2026-03-29T15:32:55Z</time></trkpt><trkpt lat="45.27064239946492" lon="8.935945241020804"><ele>75.0</ele><time>2026-03-29T15:32:56Z</time></trkpt><trkpt lat="45.27060895910777" lon="8.936118926749282"><ele>75.25</ele><time>2026-03-29T15:32:57Z</time></trkpt><trkpt lat="45.270590812421666" lon="8.936292872223987"><ele>75.5</ele><time>2026-03-29T15:32:58Z</time></trkpt><trkpt lat="45.270550595439474" lon="8.936457988912826"><ele>75.75</ele><time>2026-03-29T15:32:59Z</time></trkpt><trkpt lat="45.27051775582972" lon="8.936611756108375"><ele>76.0</ele><time>2026-03-29T15:33:00Z</time></trkpt><trkpt lat="45.270493713966516" lon="8.936753976143068"><ele>76.0</ele><time>2026-03-29T15:33:01Z</time></trkpt><trkpt lat="45.270471038897355" lon="8.936886286835868"><ele>76.0</ele><time>2026-03-29T15:33:02Z</time></trkpt><trkpt lat="45.27041898408315" lon="8.937022898851255"><ele>76.0</ele><time>2026-03-29T15:33:03Z</time></trkpt><trkpt lat="45.27036783610613" lon="8.937183860667082"><ele>76.0</ele><time>2026-03-29T15:33:04Z</time></trkpt><trkpt lat="45.270305343972026" lon="8.937352896753971"><ele>76.0</ele><time>2026-03-29T15:33:05Z</time></trkpt><trkpt lat="45.27025048029684" lon="8.937533513011322"><ele>76.0</ele><time>2026-03-29T15:33:06Z</time></trkpt><trkpt lat="45.270157427397145" lon="8.937707898690897"><ele>76.0</ele><time>2026-03-29T15:33:07Z</time></trkpt><trkpt lat="45.27008027475027" lon="8.937919423892994"><ele>75.0</ele><time>2026-03-29T15:33:08Z</time></trkpt><trkpt lat="45.26997821686766" lon="8.93810546706945"><ele>74.0</ele><time>2026-03-29T15:33:09Z</time></trkpt><trkpt lat="45.26987815415984" lon="8.938326122491857"><ele>73.0</ele><time>2026-03-29T15:33:10Z</time></trkpt><trkpt lat="45.26977798813202" lon="8.938547005775751"><ele>72.33333333333333</ele><time>2026-03-29T15:33:11Z</time></trkpt><trkpt lat="45.26968424827432" lon="8.93875424475973"><ele>71.66666666666667</ele><time>2026-03-29T15:33:12Z</time></trkpt><trkpt lat="45.26959824605596" lon="8.938950760019365"><ele>71.0</ele><time>2026-03-29T15:33:13Z</time></trkpt><trkpt lat="45.26951837560556" lon="8.939141881303511"><ele>71.0</ele><time>2026-03-29T15:33:14Z</time></trkpt><trkpt lat="45.26945176143789" lon="8.93932092481324"><ele>71.0</ele><time>2026-03-29T15:33:15Z</time></trkpt><trkpt lat="45.26940718827612" lon="8.939528942955793"><ele>71.0</ele><time>2026-03-29T15:33:16Z</time></trkpt><trkpt lat="45.26937190178291" lon="8.939731468677454"><ele>71.0</ele><time>2026-03-29T15:33:17Z</time></trkpt><trkpt lat="45.26934841431262" lon="8.93995213788052"><ele>71.0</ele><time>2026-03-29T15:33:18Z</time></trkpt><trkpt lat="45.26930131504126" lon="8.940171973764219"><ele>71.0</ele><time>2026-03-29T15:33:19Z</time></trkpt><trkpt lat="45.26925578208913" lon="8.940412521414327"><ele>71.0</ele><time>2026-03-29T15:33:20Z</time></trkpt><trkpt lat="45.26921182990441" lon="8.940629633491305"><ele>71.0</ele><time>2026-03-29T15:33:21Z</time></trkpt><trkpt lat="45.269172812427975" lon="8.940860821089418"><ele>71.0</ele><time>2026-03-29T15:33:22Z</time></trkpt><trkpt lat="45.26916707576695" lon="8.941098841301432"><ele>71.0</ele><time>2026-03-29T15:33:23Z</time></trkpt><trkpt lat="45.269123694025886" lon="8.941328118957736"><ele>71.33333333333334</ele><time>2026-03-29T15:33:24Z</time></trkpt><trkpt lat="45.269083074901154" lon="8.941549598826585"><ele>71.66666666666667</ele><time>2026-03-29T15:33:25Z</time></trkpt><trkpt lat="45.26904344322104" lon="8.94176329498567"><ele>72.0</ele><time>2026-03-29T15:33:26Z</time></trkpt><trkpt lat="45.26900462197034" lon="8.94197262116484"><ele>72.0</ele><time>2026-03-29T15:33:27Z</time></trkpt><trkpt lat="45.26896592545605" lon="8.942181274753356"><ele>72.0</ele><time>2026-03-29T15:33:28Z</time></trkpt><trkpt lat="45.268929814142965" lon="8.94238002116388"><ele>72.0</ele><time>2026-03-29T15:33:29Z</time></trkpt><trkpt lat="45.26889777345198" lon="8.942559782592085"><ele>72.0</ele><time>2026-03-29T15:33:30Z</time></trkpt><trkpt lat="45.26887073849916" lon="8.942713639335619"><ele>72.33333333333333</ele><time>2026-03-29T15:33:31Z</time></trkpt><trkpt lat="45.26884877674511" lon="8.94284618238818"><ele>72.66666666666667</ele><time>2026-03-29T15:33:32Z</time></trkpt><trkpt lat="45.2688321770779" lon="8.942957182764358"><ele>73.0</ele><time>2026-03-29T15:33:33Z</time></trkpt><trkpt lat="45.26881840519804" lon="8.943058665575766"><ele>73.33333333333334</ele><time>2026-03-29T15:33:34Z</time></trkpt><trkpt lat="45.2688071618227" lon="8.943157970416346"><ele>73.66666666666667</ele><time>2026-03-29T15:33:35Z</time></trkpt><trkpt lat="45.26880118208252" lon="8.943273255419946"><ele>74.0</ele><time>2026-03-29T15:33:36Z</time></trkpt><trkpt lat="45.26880245293537" lon="8.943402143736806"><ele>74.0</ele><time>2026-03-29T15:33:37Z</time></trkpt><trkpt lat="45.26881408889066" lon="8.94355175678324"><ele>74.0</ele><time>2026-03-29T15:33:38Z</time></trkpt><trkpt lat="45.26883411328659" lon="8.943716738351958"><ele>74.0</ele><time>2026-03-29T15:33:39Z</time></trkpt><trkpt lat="45.26885630116544" lon="8.94388161227271"><ele>74.0</ele><time>2026-03-29T15:33:40Z</time></trkpt><trkpt lat="45.26889269216604" lon="8.944022686918323"><ele>74.0</ele><time>2026-03-29T15:33:41Z</time></trkpt><trkpt lat="45.268910806101886" lon="8.94415494654845"><ele>73.5</ele><time>2026-03-29T15:33:42Z</time></trkpt><trkpt lat="45.26892500124327" lon="8.944274286906571"><ele>73.0</ele><time>2026-03-29T15:33:43Z</time></trkpt><trkpt lat="45.268932395812875" lon="8.944385695913025"><ele>72.5</ele><time>2026-03-29T15:33:44Z</time></trkpt><trkpt lat="45.26893306999893" lon="8.944484565601478"><ele>72.0</ele><time>2026-03-29T15:33:45Z</time></trkpt><trkpt lat="45.268916844250064" lon="8.944580462196097"><ele>71.5</ele><time>2026-03-29T15:33:46Z</time></trkpt><trkpt lat="45.268876794036416" lon="8.944656346080635"><ele>71.0</ele><time>2026-03-29T15:33:47Z</time></trkpt><trkpt lat="45.26880482570678" lon="8.94478324594304"><ele>71.0</ele><time>2026-03-29T15:33:49Z</time></trkpt><trkpt lat="45.26875765151275" lon="8.944869748451442"><ele>71.0</ele><time>2026-03-29T15:33:50Z</time></trkpt><trkpt lat="45.268704034366664" lon="8.944966002137537"><ele>71.0</ele><time>2026-03-29T15:33:51Z</time></trkpt><trkpt lat="45.268638619522385" lon="8.945084189714954"><ele>71.0</ele><time>2026-03-29T15:33:52Z</time></trkpt><trkpt lat="45.268590090070376" lon="8.945172984684994"><ele>71.0</ele><time>2026-03-29T15:33:53Z</time></trkpt><trkpt lat="45.26852887927725" lon="8.945286296956711"><ele>71.0</ele><time>2026-03-29T15:33:54Z</time></trkpt><trkpt lat="45.26845302710947" lon="8.945431180277598"><ele>71.0</ele><time>2026-03-29T15:33:55Z</time></trkpt><trkpt lat="45.268366761470126" lon="8.945595954199892"><ele>71.0</ele><time>2026-03-29T15:33:56Z</time></trkpt><trkpt lat="45.268286067552516" lon="8.9457500856193"><ele>71.0</ele><time>2026-03-29T15:33:57Z</time></trkpt><trkpt lat="45.268220085397765" lon="8.945914204363516"><ele>71.0</ele><time>2026-03-29T15:33:58Z</time></trkpt><trkpt lat="45.26814102451526" lon="8.9460271287702"><ele>70.5</ele><time>2026-03-29T15:33:59Z</time></trkpt><trkpt lat="45.26806946261668" lon="8.94615905738885"><ele>70.0</ele><time>2026-03-29T15:34:00Z</time></trkpt><trkpt lat="45.26798591132311" lon="8.94631084631995"><ele>69.5</ele><time>2026-03-29T15:34:01Z</time></trkpt><trkpt lat="45.26790035060923" lon="8.946466285806803"><ele>69.0</ele><time>2026-03-29T15:34:02Z</time></trkpt><trkpt lat="45.26781581346929" lon="8.946619865742454"><ele>69.25</ele><time>2026-03-29T15:34:03Z</time></trkpt><trkpt lat="45.267731314110755" lon="8.946773377038165"><ele>69.5</ele><time>2026-03-29T15:34:03.999Z</time></trkpt><trkpt lat="45.26765406906782" lon="8.946913709354705"><ele>69.75</ele><time>2026-03-29T15:34:04.999Z</time></trkpt><trkpt lat="45.26757162145077" lon="8.947063735743628"><ele>70.0</ele><time>2026-03-29T15:34:05.999Z</time></trkpt><trkpt lat="45.26750409407865" lon="8.94719145258868"><ele>70.0</ele><time>2026-03-29T15:34:07Z</time></trkpt><trkpt lat="45.26743315507249" lon="8.947325621953969"><ele>70.0</ele><time>2026-03-29T15:34:08Z</time></trkpt><trkpt lat="45.26736623414641" lon="8.947447540068692"><ele>70.0</ele><time>2026-03-29T15:34:09Z</time></trkpt><trkpt lat="45.267295546744705" lon="8.947574504980903"><ele>70.0</ele><time>2026-03-29T15:34:10Z</time></trkpt><trkpt lat="45.26721620951679" lon="8.947705041392878"><ele>70.25</ele><time>2026-03-29T15:34:11Z</time></trkpt><trkpt lat="45.267125626366145" lon="8.947839687495309"><ele>70.5</ele><time>2026-03-29T15:34:12Z</time></trkpt><trkpt lat="45.26702231554727" lon="8.947981921419897"><ele>70.75</ele><time>2026-03-29T15:34:13Z</time></trkpt><trkpt lat="45.2669313962811" lon="8.948107095173338"><ele>71.0</ele><time>2026-03-29T15:34:14Z</time></trkpt><trkpt lat="45.266848304050775" lon="8.948216731590957"><ele>71.0</ele><time>2026-03-29T15:34:15Z</time></trkpt><trkpt lat="45.26676156342427" lon="8.948331092527534"><ele>71.0</ele><time>2026-03-29T15:34:16Z</time></trkpt><trkpt lat="45.266681996444575" lon="8.94847374723714"><ele>71.0</ele><time>2026-03-29T15:34:17Z</time></trkpt><trkpt lat="45.26658615802951" lon="8.948600750922543"><ele>71.0</ele><time>2026-03-29T15:34:18Z</time></trkpt><trkpt lat="45.26651466845378" lon="8.948706304261187"><ele>70.8</ele><time>2026-03-29T15:34:19Z</time></trkpt><trkpt lat="45.26645361839491" lon="8.948769615176193"><ele>70.6</ele><time>2026-03-29T15:34:20Z</time></trkpt><trkpt lat="45.26637977108115" lon="8.948867521018649"><ele>70.4</ele><time>2026-03-29T15:34:22Z</time></trkpt><trkpt lat="45.26632960230283" lon="8.948751693118245"><ele>70.2</ele><time>2026-03-29T15:34:32Z</time></trkpt><trkpt lat="45.266405334034275" lon="8.948706850134256"><ele>70.0</ele><time>2026-03-29T15:34:34Z</time></trkpt><trkpt lat="45.266469692896685" lon="8.948599587579176"><ele>70.0</ele><time>2026-03-29T15:34:36Z</time></trkpt><trkpt lat="45.266489063791084" lon="8.948500614961656"><ele>70.0</ele><time>2026-03-29T15:34:37Z</time></trkpt><trkpt lat="45.26648984592709" lon="8.948390151611855"><ele>70.0</ele><time>2026-03-29T15:34:38Z</time></trkpt><trkpt lat="45.26648209190204" lon="8.948282468759926"><ele>70.0</ele><time>2026-03-29T15:34:39Z</time></trkpt><trkpt lat="45.266471546431674" lon="8.948164443212516"><ele>70.0</ele><time>2026-03-29T15:34:40Z</time></trkpt><trkpt lat="45.266458144208826" lon="8.947972456158087"><ele>70.0</ele><time>2026-03-29T15:34:42Z</time></trkpt><trkpt lat="45.26644892892971" lon="8.947878815917218"><ele>70.33333333333333</ele><time>2026-03-29T15:34:43Z</time></trkpt><trkpt lat="45.266425253032466" lon="8.947753990142251"><ele>70.66666666666666</ele><time>2026-03-29T15:34:44Z</time></trkpt><trkpt lat="45.266383696087054" lon="8.947637370472158"><ele>71.0</ele><time>2026-03-29T15:34:45Z</time></trkpt><trkpt lat="45.26634173511078" lon="8.947535516774641"><ele>71.33333333333333</ele><time>2026-03-29T15:34:46Z</time></trkpt><trkpt lat="45.266303870343926" lon="8.947445185238628"><ele>71.66666666666667</ele><time>2026-03-29T15:34:47Z</time></trkpt><trkpt lat="45.266269579659316" lon="8.947358148820914"><ele>72.0</ele><time>2026-03-29T15:34:48Z</time></trkpt><trkpt lat="45.2662097575201" lon="8.947229398081733"><ele>72.0</ele><time>2026-03-29T15:34:50Z</time></trkpt><trkpt lat="45.26610531184285" lon="8.947181335924427"><ele>72.0</ele><time>2026-03-29T15:34:52Z</time></trkpt><trkpt lat="45.26597326698508" lon="8.947219407644686"><ele>72.0</ele><time>2026-03-29T15:34:54Z</time></trkpt><trkpt lat="45.265905183656145" lon="8.94724080186281"><ele>72.0</ele><time>2026-03-29T15:34:55Z</time></trkpt><trkpt lat="45.26583504666764" lon="8.94726876785327"><ele>72.0</ele><time>2026-03-29T15:34:56Z</time></trkpt><trkpt lat="45.265757344719226" lon="8.947319313732923"><ele>72.0</ele><time>2026-03-29T15:34:58Z</time></trkpt><trkpt lat="45.26570818675626" lon="8.947479410415095"><ele>72.0</ele><time>2026-03-29T15:35:00Z</time></trkpt><trkpt lat="45.26574078027273" lon="8.947604889894961"><ele>72.0</ele><time>2026-03-29T15:35:01Z</time></trkpt><trkpt lat="45.26573471913394" lon="8.94771417147244"><ele>72.0</ele><time>2026-03-29T15:35:02Z</time></trkpt><trkpt lat="45.265708984706286" lon="8.947800941776181"><ele>72.0</ele><time>2026-03-29T15:35:03Z</time></trkpt><trkpt lat="45.265650447239594" lon="8.947852107800827"><ele>72.0</ele><time>2026-03-29T15:35:04Z</time></trkpt><trkpt lat="45.265534499503005" lon="8.947861232845447"><ele>71.6</ele><time>2026-03-29T15:35:06Z</time></trkpt><trkpt lat="45.26545099154305" lon="8.947899532623957"><ele>71.2</ele><time>2026-03-29T15:35:07Z</time></trkpt><trkpt lat="45.265359229601195" lon="8.947966222387988"><ele>70.8</ele><time>2026-03-29T15:35:08Z</time></trkpt><trkpt lat="45.265270075632664" lon="8.948045230815213"><ele>70.4</ele><time>2026-03-29T15:35:09Z</time></trkpt><trkpt lat="45.26516378059386" lon="8.948139576294748"><ele>70.0</ele><time>2026-03-29T15:35:10Z</time></trkpt><trkpt lat="45.26504657913096" lon="8.948238805136846"><ele>70.0</ele><time>2026-03-29T15:35:11Z</time></trkpt><trkpt lat="45.26493221244696" lon="8.948331786359423"><ele>70.0</ele><time>2026-03-29T15:35:12Z</time></trkpt><trkpt lat="45.26482330538278" lon="8.948420328986876"><ele>70.0</ele><time>2026-03-29T15:35:13Z</time></trkpt><trkpt lat="45.26470463197344" lon="8.94851530365753"><ele>70.0</ele><time>2026-03-29T15:35:14Z</time></trkpt><trkpt lat="45.264579918847744" lon="8.948613218985527"><ele>69.5</ele><time>2026-03-29T15:35:15Z</time></trkpt><trkpt lat="45.264460583834754" lon="8.948706798251294"><ele>69.0</ele><time>2026-03-29T15:35:16Z</time></trkpt><trkpt lat="45.26434036569083" lon="8.94880106999252"><ele>68.5</ele><time>2026-03-29T15:35:17Z</time></trkpt><trkpt lat="45.26421228848218" lon="8.948901504636884"><ele>68.0</ele><time>2026-03-29T15:35:18Z</time></trkpt><trkpt lat="45.26407041785903" lon="8.949012755716533"><ele>68.33333333333334</ele><time>2026-03-29T15:35:19Z</time></trkpt><trkpt lat="45.26392708771185" lon="8.94912515127826"><ele>68.66666666666667</ele><time>2026-03-29T15:35:20Z</time></trkpt><trkpt lat="45.263789343096455" lon="8.949233166848954"><ele>69.0</ele><time>2026-03-29T15:35:21Z</time></trkpt><trkpt lat="45.263672517115715" lon="8.949324778586952"><ele>69.0</ele><time>2026-03-29T15:35:22Z</time></trkpt><trkpt lat="45.263547781075175" lon="8.949422593176564"><ele>69.0</ele><time>2026-03-29T15:35:23Z</time></trkpt><trkpt lat="45.26341293863515" lon="8.949527529916816"><ele>69.0</ele><time>2026-03-29T15:35:24Z</time></trkpt><trkpt lat="45.26327938984107" lon="8.949630822270658"><ele>69.0</ele><time>2026-03-29T15:35:25Z</time></trkpt><trkpt lat="45.26310956582118" lon="8.949762171464132"><ele>69.5</ele><time>2026-03-29T15:35:26Z</time></trkpt><trkpt lat="45.262803536992315" lon="8.950001156082394"><ele>70.0</ele><time>2026-03-29T15:35:28Z</time></trkpt><trkpt lat="45.26267234377941" lon="8.950105635492301"><ele>70.0</ele><time>2026-03-29T15:35:29Z</time></trkpt><trkpt lat="45.26255008884829" lon="8.950202996613958"><ele>70.0</ele><time>2026-03-29T15:35:30Z</time></trkpt><trkpt lat="45.26242907722514" lon="8.950299367662526"><ele>70.0</ele><time>2026-03-29T15:35:31Z</time></trkpt><trkpt lat="45.26229794503338" lon="8.950404190736062"><ele>70.0</ele><time>2026-03-29T15:35:32Z</time></trkpt><trkpt lat="45.26217360699505" lon="8.950503584960218"><ele>70.0</ele><time>2026-03-29T15:35:33Z</time></trkpt><trkpt lat="45.26204970320072" lon="8.950601222504972"><ele>70.0</ele><time>2026-03-29T15:35:34Z</time></trkpt><trkpt lat="45.26191872718949" lon="8.950703753158395"><ele>70.0</ele><time>2026-03-29T15:35:35Z</time></trkpt><trkpt lat="45.26178826204441" lon="8.950805883740612"><ele>70.0</ele><time>2026-03-29T15:35:36Z</time></trkpt><trkpt lat="45.26166988560115" lon="8.950898551165682"><ele>70.0</ele><time>2026-03-29T15:35:37Z</time></trkpt><trkpt lat="45.261557990812705" lon="8.950986144598266"><ele>70.0</ele><time>2026-03-29T15:35:38Z</time></trkpt><trkpt lat="45.26144713121875" lon="8.951072744015699"><ele>70.0</ele><time>2026-03-29T15:35:39Z</time></trkpt><trkpt lat="45.26133333660528" lon="8.951158475617921"><ele>70.0</ele><time>2026-03-29T15:35:40Z</time></trkpt><trkpt lat="45.261218270912984" lon="8.951244923195164"><ele>69.8</ele><time>2026-03-29T15:35:41Z</time></trkpt><trkpt lat="45.2611067063308" lon="8.951333898604313"><ele>69.6</ele><time>2026-03-29T15:35:42Z</time></trkpt><trkpt lat="45.261013539161006" lon="8.95140930372622"><ele>69.4</ele><time>2026-03-29T15:35:43Z</time></trkpt><trkpt lat="45.26091947135418" lon="8.951485390033719"><ele>69.2</ele><time>2026-03-29T15:35:44Z</time></trkpt><trkpt lat="45.26082957255568" lon="8.951556734961619"><ele>69.0</ele><time>2026-03-29T15:35:45Z</time></trkpt><trkpt lat="45.26074534007386" lon="8.951621566568349"><ele>69.0</ele><time>2026-03-29T15:35:46Z</time></trkpt><trkpt lat="45.26067113432249" lon="8.951678415233163"><ele>69.0</ele><time>2026-03-29T15:35:47Z</time></trkpt><trkpt lat="45.26060128396064" lon="8.95174291022463"><ele>69.0</ele><time>2026-03-29T15:35:48Z</time></trkpt><trkpt lat="45.26053061090086" lon="8.951820851211586"><ele>69.0</ele><time>2026-03-29T15:35:48.999Z</time></trkpt><trkpt lat="45.2604666067702" lon="8.951897506514582"><ele>69.0</ele><time>2026-03-29T15:35:49.999Z</time></trkpt><trkpt lat="45.26041498310624" lon="8.951961465236344"><ele>69.0</ele><time>2026-03-29T15:35:50.999Z</time></trkpt><trkpt lat="45.26036584859846" lon="8.952021452225177"><ele>69.0</ele><time>2026-03-29T15:35:51.999Z</time></trkpt><trkpt lat="45.26027086840729" lon="8.952120717778813"><ele>69.0</ele><time>2026-03-29T15:35:53.999Z</time></trkpt><trkpt lat="45.26016880570146" lon="8.95216059808823"><ele>69.0</ele><time>2026-03-29T15:35:55.999Z</time></trkpt><trkpt lat="45.260061436184266" lon="8.9520933948959"><ele>69.0</ele><time>2026-03-29T15:35:57.999Z</time></trkpt><trkpt lat="45.26001550420408" lon="8.952009012555415"><ele>69.0</ele><time>2026-03-29T15:35:58.999Z</time></trkpt><trkpt lat="45.25996345412396" lon="8.951949815474105"><ele>69.0</ele><time>2026-03-29T15:35:59.999Z</time></trkpt><trkpt lat="45.2599030906017" lon="8.9518790546135"><ele>69.0</ele><time>2026-03-29T15:36:00.999Z</time></trkpt><trkpt lat="45.25982102678022" lon="8.951768601679529"><ele>69.0</ele><time>2026-03-29T15:36:01.999Z</time></trkpt><trkpt lat="45.25973815016639" lon="8.951650025786021"><ele>69.0</ele><time>2026-03-29T15:36:02.999Z</time></trkpt><trkpt lat="45.25967088536238" lon="8.951553786663752"><ele>69.0</ele><time>2026-03-29T15:36:03.999Z</time></trkpt><trkpt lat="45.259604761347035" lon="8.951459179000363"><ele>69.4</ele><time>2026-03-29T15:36:04.999Z</time></trkpt><trkpt lat="45.259531518560294" lon="8.951354386501903"><ele>69.80000000000001</ele><time>2026-03-29T15:36:05.999Z</time></trkpt><trkpt lat="45.25945089922854" lon="8.951239040301658"><ele>70.19999999999999</ele><time>2026-03-29T15:36:06.999Z</time></trkpt><trkpt lat="45.25937824438321" lon="8.951131485440415"><ele>70.6</ele><time>2026-03-29T15:36:07.999Z</time></trkpt><trkpt lat="45.25932584930275" lon="8.951049084250776"><ele>71.0</ele><time>2026-03-29T15:36:08.999Z</time></trkpt><trkpt lat="45.25927351714052" lon="8.95096687863994"><ele>71.0</ele><time>2026-03-29T15:36:09.999Z</time></trkpt><trkpt lat="45.25922982568134" lon="8.95089824614715"><ele>71.0</ele><time>2026-03-29T15:36:10.999Z</time></trkpt><trkpt lat="45.25915793652046" lon="8.950788998937869"><ele>71.0</ele><time>2026-03-29T15:36:13Z</time></trkpt><trkpt lat="45.25908388485888" lon="8.95070378908308"><ele>71.0</ele><time>2026-03-29T15:36:15Z</time></trkpt><trkpt lat="45.259015782121494" lon="8.950694519987298"><ele>71.0</ele><time>2026-03-29T15:36:16Z</time></trkpt><trkpt lat="45.25894674296617" lon="8.950755880382554"><ele>71.0</ele><time>2026-03-29T15:36:17Z</time></trkpt><trkpt lat="45.25889398208983" lon="8.950840226373142"><ele>70.6</ele><time>2026-03-29T15:36:18Z</time></trkpt><trkpt lat="45.258815928070874" lon="8.950952507055225"><ele>70.19999999999999</ele><time>2026-03-29T15:36:19Z</time></trkpt><trkpt lat="45.258727854526555" lon="8.951070336138654"><ele>69.80000000000001</ele><time>2026-03-29T15:36:20Z</time></trkpt><trkpt lat="45.25864530106477" lon="8.951179800392165"><ele>69.4</ele><time>2026-03-29T15:36:21Z</time></trkpt><trkpt lat="45.258575321645786" lon="8.951272591725623"><ele>69.0</ele><time>2026-03-29T15:36:22Z</time></trkpt><trkpt lat="45.25850584929451" lon="8.951364710675739"><ele>69.0</ele><time>2026-03-29T15:36:23Z</time></trkpt><trkpt lat="45.2584382231159" lon="8.951454381680911"><ele>69.0</ele><time>2026-03-29T15:36:24Z</time></trkpt><trkpt lat="45.25830026028666" lon="8.951622548489986"><ele>69.0</ele><time>2026-03-29T15:36:26Z</time></trkpt><trkpt lat="45.25821341729662" lon="8.951718172066041"><ele>69.0</ele><time>2026-03-29T15:36:27Z</time></trkpt><trkpt lat="45.2581314247591" lon="8.951802246213736"><ele>70.0</ele><time>2026-03-29T15:36:28Z</time></trkpt><trkpt lat="45.25804985604627" lon="8.951884232679284"><ele>71.0</ele><time>2026-03-29T15:36:29Z</time></trkpt><trkpt lat="45.257970970750804" lon="8.951963522000435"><ele>72.0</ele><time>2026-03-29T15:36:30Z</time></trkpt><trkpt lat="45.25788593099008" lon="8.952048997318956"><ele>73.0</ele><time>2026-03-29T15:36:31Z</time></trkpt><trkpt lat="45.257800503002734" lon="8.952135038389187"><ele>74.0</ele><time>2026-03-29T15:36:32Z</time></trkpt><trkpt lat="45.25773597511398" lon="8.95220278831496"><ele>74.0</ele><time>2026-03-29T15:36:33Z</time></trkpt><trkpt lat="45.25767210561561" lon="8.952269847009495"><ele>74.0</ele><time>2026-03-29T15:36:34Z</time></trkpt><trkpt lat="45.25756195781813" lon="8.952381317981214"><ele>74.0</ele><time>2026-03-29T15:36:36Z</time></trkpt><trkpt lat="45.25748859409496" lon="8.952446920716582"><ele>74.0</ele><time>2026-03-29T15:36:38Z</time></trkpt><trkpt lat="45.257414986390465" lon="8.952464898492497"><ele>74.0</ele><time>2026-03-29T15:36:40Z</time></trkpt><trkpt lat="45.25733315017441" lon="8.952436962483645"><ele>74.0</ele><time>2026-03-29T15:36:42Z</time></trkpt><trkpt lat="45.25729294248723" lon="8.952366317344989"><ele>74.0</ele><time>2026-03-29T15:36:43Z</time></trkpt><trkpt lat="45.25728345863167" lon="8.952266575861113"><ele>74.0</ele><time>2026-03-29T15:36:44Z</time></trkpt><trkpt lat="45.25725275253071" lon="8.952158597530659"><ele>74.0</ele><time>2026-03-29T15:36:45Z</time></trkpt><trkpt lat="45.25721004460181" lon="8.95202234524416"><ele>74.0</ele><time>2026-03-29T15:36:46Z</time></trkpt><trkpt lat="45.25717002927483" lon="8.951902819095553"><ele>74.0</ele><time>2026-03-29T15:36:47Z</time></trkpt><trkpt lat="45.25713569285446" lon="8.951813335032693"><ele>74.60000000000001</ele><time>2026-03-29T15:36:48Z</time></trkpt><trkpt lat="45.25709806322875" lon="8.951724423784626"><ele>75.2</ele><time>2026-03-29T15:36:49Z</time></trkpt><trkpt lat="45.25702285082365" lon="8.95160694788532"><ele>75.80000000000001</ele><time>2026-03-29T15:36:51Z</time></trkpt><trkpt lat="45.2569126691831" lon="8.95160203026088"><ele>76.4</ele><time>2026-03-29T15:36:53Z</time></trkpt><trkpt lat="45.256814817359675" lon="8.951639554714061"><ele>77.0</ele><time>2026-03-29T15:36:55Z</time></trkpt><trkpt lat="45.25670444729676" lon="8.951704248168078"><ele>77.16666666666667</ele><time>2026-03-29T15:36:57Z</time></trkpt><trkpt lat="45.25658989513222" lon="8.951779248453885"><ele>77.33333333333334</ele><time>2026-03-29T15:36:59Z</time></trkpt><trkpt lat="45.25650007610061" lon="8.951845380182327"><ele>77.5</ele><time>2026-03-29T15:37:01Z</time></trkpt><trkpt lat="45.25644338488601" lon="8.951886981951247"><ele>77.66666666666667</ele><time>2026-03-29T15:37:02Z</time></trkpt><trkpt lat="45.25638235400069" lon="8.951931768299712"><ele>77.83333333333333</ele><time>2026-03-29T15:37:03Z</time></trkpt><trkpt lat="45.25632227968151" lon="8.951991493953665"><ele>78.0</ele><time>2026-03-29T15:37:04Z</time></trkpt><trkpt lat="45.2562591720787" lon="8.952013334662869"><ele>78.0</ele><time>2026-03-29T15:37:05Z</time></trkpt><trkpt lat="45.25617366233947" lon="8.952043111120927"><ele>78.0</ele><time>2026-03-29T15:37:07Z</time></trkpt><trkpt lat="45.25610212770167" lon="8.952103448534185"><ele>78.0</ele><time>2026-03-29T15:37:09Z</time></trkpt><trkpt lat="45.256031800133066" lon="8.952151344335228"><ele>78.0</ele><time>2026-03-29T15:37:11Z</time></trkpt><trkpt lat="45.25595066694445" lon="8.95220380836175"><ele>78.0</ele><time>2026-03-29T15:37:32Z</time></trkpt><trkpt lat="45.25585175153171" lon="8.952263774696554"><ele>78.0</ele><time>2026-03-29T15:37:34Z</time></trkpt><trkpt lat="45.25578497606338" lon="8.952297832271357"><ele>78.0</ele><time>2026-03-29T15:37:35Z</time></trkpt><trkpt lat="45.2556813783041" lon="8.952345145041457"><ele>78.0</ele><time>2026-03-29T15:37:37Z</time></trkpt><trkpt lat="45.2555871986611" lon="8.952398795880027"><ele>78.0</ele><time>2026-03-29T15:37:39Z</time></trkpt><trkpt lat="45.25551217651488" lon="8.952418612804369"><ele>78.0</ele><time>2026-03-29T15:37:40.999Z</time></trkpt><trkpt lat="45.25545067156159" lon="8.952376790496485"><ele>78.0</ele><time>2026-03-29T15:37:42.999Z</time></trkpt><trkpt lat="45.25537470833185" lon="8.952242094756626"><ele>77.33333333333333</ele><time>2026-03-29T15:37:44.999Z</time></trkpt><trkpt lat="45.25532193667911" lon="8.952146006384051"><ele>76.66666666666667</ele><time>2026-03-29T15:37:45.999Z</time></trkpt><trkpt lat="45.25526862973485" lon="8.952032946670412"><ele>76.0</ele><time>2026-03-29T15:37:46.999Z</time></trkpt><trkpt lat="45.25521139137097" lon="8.951913437847649"><ele>75.33333333333334</ele><time>2026-03-29T15:37:47.999Z</time></trkpt><trkpt lat="45.255182464638594" lon="8.951803052542573"><ele>74.66666666666667</ele><time>2026-03-29T15:37:48.999Z</time></trkpt><trkpt lat="45.2551342206735" lon="8.951722643942203"><ele>74.0</ele><time>2026-03-29T15:37:49.999Z</time></trkpt><trkpt lat="45.255102400100306" lon="8.951610774436292"><ele>74.0</ele><time>2026-03-29T15:37:50.999Z</time></trkpt><trkpt lat="45.25505617706464" lon="8.951501895384473"><ele>74.0</ele><time>2026-03-29T15:37:51.999Z</time></trkpt><trkpt lat="45.25502365079631" lon="8.951410970724972"><ele>74.0</ele><time>2026-03-29T15:37:52.999Z</time></trkpt><trkpt lat="45.254989987275955" lon="8.951328437870322"><ele>74.0</ele><time>2026-03-29T15:37:53.999Z</time></trkpt><trkpt lat="45.25494476543386" lon="8.951249679910678"><ele>74.0</ele><time>2026-03-29T15:37:54.999Z</time></trkpt><trkpt lat="45.2548813070808" lon="8.951197634752758"><ele>74.0</ele><time>2026-03-29T15:37:55.999Z</time></trkpt><trkpt lat="45.2548261997597" lon="8.95114134008527"><ele>74.0</ele><time>2026-03-29T15:37:56.999Z</time></trkpt><trkpt lat="45.25476272804614" lon="8.951053757535332"><ele>73.60000000000001</ele><time>2026-03-29T15:37:57.999Z</time></trkpt><trkpt lat="45.254655455363995" lon="8.950979269845076"><ele>73.2</ele><time>2026-03-29T15:37:58.999Z</time></trkpt><trkpt lat="45.25455897771336" lon="8.950923627424144"><ele>72.80000000000001</ele><time>2026-03-29T15:37:59.999Z</time></trkpt><trkpt lat="45.25447984961364" lon="8.95087753308766"><ele>72.4</ele><time>2026-03-29T15:38:00.999Z</time></trkpt><trkpt lat="45.25440760067114" lon="8.950834183749993"><ele>72.0</ele><time>2026-03-29T15:38:01.999Z</time></trkpt><trkpt lat="45.25433901463508" lon="8.950793032037115"><ele>72.0</ele><time>2026-03-29T15:38:02.999Z</time></trkpt><trkpt lat="45.25426491781802" lon="8.950747999207092"><ele>72.0</ele><time>2026-03-29T15:38:03.999Z</time></trkpt><trkpt lat="45.25416880091655" lon="8.950683349861803"><ele>72.0</ele><time>2026-03-29T15:38:04.999Z</time></trkpt><trkpt lat="45.25406354894808" lon="8.950611404062652"><ele>72.0</ele><time>2026-03-29T15:38:05.999Z</time></trkpt><trkpt lat="45.25396138156277" lon="8.950545639645918"><ele>72.0</ele><time>2026-03-29T15:38:06.999Z</time></trkpt><trkpt lat="45.25385727898875" lon="8.95048063169108"><ele>71.6</ele><time>2026-03-29T15:38:07.999Z</time></trkpt><trkpt lat="45.25374638429588" lon="8.950412049347912"><ele>71.2</ele><time>2026-03-29T15:38:08.999Z</time></trkpt><trkpt lat="45.253643504287425" lon="8.950348423725496"><ele>70.8</ele><time>2026-03-29T15:38:09.999Z</time></trkpt><trkpt lat="45.25354910111492" lon="8.950289685675138"><ele>70.4</ele><time>2026-03-29T15:38:10.999Z</time></trkpt><trkpt lat="45.25346944457281" lon="8.950236915051574"><ele>70.0</ele><time>2026-03-29T15:38:11.999Z</time></trkpt><trkpt lat="45.253382048085356" lon="8.950176996872809"><ele>70.0</ele><time>2026-03-29T15:38:12.999Z</time></trkpt><trkpt lat="45.253297347440444" lon="8.950118213125009"><ele>70.0</ele><time>2026-03-29T15:38:13.999Z</time></trkpt><trkpt lat="45.25321515929743" lon="8.950061173085015"><ele>70.0</ele><time>2026-03-29T15:38:14.999Z</time></trkpt><trkpt lat="45.25313519433632" lon="8.949999451202018"><ele>70.0</ele><time>2026-03-29T15:38:15.999Z</time></trkpt><trkpt lat="45.253065040170156" lon="8.949933267186944"><ele>70.0</ele><time>2026-03-29T15:38:16.999Z</time></trkpt><trkpt lat="45.252998118266355" lon="8.949864499149749"><ele>70.0</ele><time>2026-03-29T15:38:17.999Z</time></trkpt><trkpt lat="45.252926180841364" lon="8.949808676160456"><ele>70.5</ele><time>2026-03-29T15:38:19Z</time></trkpt><trkpt lat="45.25286183009568" lon="8.9496895930801"><ele>71.0</ele><time>2026-03-29T15:38:20Z</time></trkpt><trkpt lat="45.25280164103538" lon="8.949584072640825"><ele>71.5</ele><time>2026-03-29T15:38:21Z</time></trkpt><trkpt lat="45.2527273783618" lon="8.949431661345884"><ele>72.0</ele><time>2026-03-29T15:38:22Z</time></trkpt><trkpt lat="45.252649764394825" lon="8.949285454108745"><ele>71.8</ele><time>2026-03-29T15:38:23Z</time></trkpt><trkpt lat="45.25259128072733" lon="8.94916627187709"><ele>71.6</ele><time>2026-03-29T15:38:24Z</time></trkpt><trkpt lat="45.252532784290636" lon="8.949032407350215"><ele>71.39999999999999</ele><time>2026-03-29T15:38:25Z</time></trkpt><trkpt lat="45.25247613264876" lon="8.948897313392496"><ele>71.2</ele><time>2026-03-29T15:38:26Z</time></trkpt><trkpt lat="45.25241963726992" lon="8.948768044512999"><ele>71.0</ele><time>2026-03-29T15:38:27Z</time></trkpt><trkpt lat="45.252361511632394" lon="8.948636872548002"><ele>71.0</ele><time>2026-03-29T15:38:28Z</time></trkpt><trkpt lat="45.252307795439656" lon="8.948517432867177"><ele>71.0</ele><time>2026-03-29T15:38:29Z</time></trkpt><trkpt lat="45.252241989181286" lon="8.948380223339093"><ele>71.0</ele><time>2026-03-29T15:38:30Z</time></trkpt><trkpt lat="45.252179967860734" lon="8.948252765734376"><ele>71.0</ele><time>2026-03-29T15:38:31Z</time></trkpt><trkpt lat="45.25212212132368" lon="8.94813388768723"><ele>71.0</ele><time>2026-03-29T15:38:32Z</time></trkpt><trkpt lat="45.252052532800434" lon="8.94799087907104"><ele>71.25</ele><time>2026-03-29T15:38:33Z</time></trkpt><trkpt lat="45.25197503709174" lon="8.94783162087949"><ele>71.5</ele><time>2026-03-29T15:38:34Z</time></trkpt><trkpt lat="45.25190400548942" lon="8.947685646630289"><ele>71.75</ele><time>2026-03-29T15:38:35Z</time></trkpt><trkpt lat="45.25184349103767" lon="8.947561285910295"><ele>72.0</ele><time>2026-03-29T15:38:36Z</time></trkpt><trkpt lat="45.251782479920735" lon="8.947435904345417"><ele>72.2</ele><time>2026-03-29T15:38:37Z</time></trkpt><trkpt lat="45.251725510747626" lon="8.947318829298293"><ele>72.4</ele><time>2026-03-29T15:38:38Z</time></trkpt><trkpt lat="45.25166764743448" lon="8.947201644708635"><ele>72.6</ele><time>2026-03-29T15:38:39Z</time></trkpt><trkpt lat="45.25161511317508" lon="8.947096329569545"><ele>72.8</ele><time>2026-03-29T15:38:40Z</time></trkpt><trkpt lat="45.25155938140126" lon="8.946984604562148"><ele>73.0</ele><time>2026-03-29T15:38:41Z</time></trkpt><trkpt lat="45.25150232904335" lon="8.946871671961507"><ele>72.6</ele><time>2026-03-29T15:38:42Z</time></trkpt><trkpt lat="45.251451122762184" lon="8.94677048377052"><ele>72.19999999999999</ele><time>2026-03-29T15:38:43Z</time></trkpt><trkpt lat="45.251394198289574" lon="8.946657995956643"><ele>71.8</ele><time>2026-03-29T15:38:44Z</time></trkpt><trkpt lat="45.25134135293282" lon="8.9465535688035"><ele>71.39999999999999</ele><time>2026-03-29T15:38:45Z</time></trkpt><trkpt lat="45.2512795169644" lon="8.946429834874149"><ele>71.0</ele><time>2026-03-29T15:38:46Z</time></trkpt><trkpt lat="45.25121912412451" lon="8.94630810496045"><ele>70.75</ele><time>2026-03-29T15:38:47Z</time></trkpt><trkpt lat="45.25117011992935" lon="8.946209330612717"><ele>70.5</ele><time>2026-03-29T15:38:48Z</time></trkpt><trkpt lat="45.251101340074925" lon="8.946072153424593"><ele>70.25</ele><time>2026-03-29T15:38:50Z</time></trkpt><trkpt lat="45.25098388708427" lon="8.94583338479264"><ele>70.0</ele><time>2026-03-29T15:38:52Z</time></trkpt><trkpt lat="45.25092396079649" lon="8.945750566272945"><ele>70.4</ele><time>2026-03-29T15:38:53Z</time></trkpt><trkpt lat="45.250879679467424" lon="8.945674032796319"><ele>70.8</ele><time>2026-03-29T15:38:54Z</time></trkpt><trkpt lat="45.25083752347841" lon="8.945602252989937"><ele>71.2</ele><time>2026-03-29T15:38:55Z</time></trkpt><trkpt lat="45.250805529304635" lon="8.945475339966821"><ele>71.6</ele><time>2026-03-29T15:38:56Z</time></trkpt><trkpt lat="45.25074132573605" lon="8.94534734719152"><ele>72.0</ele><time>2026-03-29T15:38:57Z</time></trkpt><trkpt lat="45.25067492195573" lon="8.945212934516787"><ele>72.0</ele><time>2026-03-29T15:38:58Z</time></trkpt><trkpt lat="45.250614004606206" lon="8.945088948748529"><ele>72.0</ele><time>2026-03-29T15:38:59Z</time></trkpt><trkpt lat="45.25054513560746" lon="8.944946614820541"><ele>72.0</ele><time>2026-03-29T15:39:00Z</time></trkpt><trkpt lat="45.250486156846804" lon="8.94481900324382"><ele>72.0</ele><time>2026-03-29T15:39:01Z</time></trkpt><trkpt lat="45.250428049668486" lon="8.944675851102247"><ele>72.0</ele><time>2026-03-29T15:39:02Z</time></trkpt><trkpt lat="45.250389751590774" lon="8.9445474041978"><ele>72.0</ele><time>2026-03-29T15:39:03Z</time></trkpt><trkpt lat="45.25035574860658" lon="8.94440367847268"><ele>72.0</ele><time>2026-03-29T15:39:04Z</time></trkpt><trkpt lat="45.25033170294055" lon="8.944253177934003"><ele>72.0</ele><time>2026-03-29T15:39:05Z</time></trkpt><trkpt lat="45.250329145983876" lon="8.944104804292413"><ele>72.0</ele><time>2026-03-29T15:39:06Z</time></trkpt><trkpt lat="45.25034964382961" lon="8.943947266478641"><ele>72.0</ele><time>2026-03-29T15:39:07Z</time></trkpt><trkpt lat="45.25039752680154" lon="8.943777164549632"><ele>72.0</ele><time>2026-03-29T15:39:08Z</time></trkpt><trkpt lat="45.250446537299275" lon="8.943594977892356"><ele>72.0</ele><time>2026-03-29T15:39:09Z</time></trkpt><trkpt lat="45.25049103855665" lon="8.943429626976357"><ele>72.0</ele><time>2026-03-29T15:39:10Z</time></trkpt><trkpt lat="45.250535786245635" lon="8.943263361503409"><ele>72.0</ele><time>2026-03-29T15:39:11Z</time></trkpt><trkpt lat="45.25057939790522" lon="8.943108590141753"><ele>72.0</ele><time>2026-03-29T15:39:12Z</time></trkpt><trkpt lat="45.250617215478165" lon="8.942976563084791"><ele>72.0</ele><time>2026-03-29T15:39:13Z</time></trkpt><trkpt lat="45.25062871117268" lon="8.942847453577182"><ele>72.0</ele><time>2026-03-29T15:39:14Z</time></trkpt><trkpt lat="45.250664567281014" lon="8.942713545912788"><ele>72.0</ele><time>2026-03-29T15:39:15Z</time></trkpt><trkpt lat="45.250706344868476" lon="8.942588144948274"><ele>72.0</ele><time>2026-03-29T15:39:16Z</time></trkpt><trkpt lat="45.250763360941185" lon="8.942411509981888"><ele>72.0</ele><time>2026-03-29T15:39:17Z</time></trkpt><trkpt lat="45.25082691250012" lon="8.942201582820124"><ele>72.0</ele><time>2026-03-29T15:39:18Z</time></trkpt><trkpt lat="45.250884832300656" lon="8.942008018835013"><ele>72.0</ele><time>2026-03-29T15:39:19Z</time></trkpt><trkpt lat="45.2509432606874" lon="8.94181275497228"><ele>72.0</ele><time>2026-03-29T15:39:20Z</time></trkpt><trkpt lat="45.25099153721055" lon="8.941643972219483"><ele>72.0</ele><time>2026-03-29T15:39:21Z</time></trkpt><trkpt lat="45.25104310262321" lon="8.941448753427307"><ele>72.0</ele><time>2026-03-29T15:39:22Z</time></trkpt><trkpt lat="45.25110126695091" lon="8.941234456573603"><ele>72.0</ele><time>2026-03-29T15:39:23Z</time></trkpt><trkpt lat="45.25115425263227" lon="8.941050014451006"><ele>72.0</ele><time>2026-03-29T15:39:24Z</time></trkpt><trkpt lat="45.251209032896746" lon="8.9408730013104"><ele>72.0</ele><time>2026-03-29T15:39:25Z</time></trkpt><trkpt lat="45.25126724996866" lon="8.94069520967581"><ele>72.0</ele><time>2026-03-29T15:39:26Z</time></trkpt><trkpt lat="45.25132089565682" lon="8.940535663379404"><ele>72.0</ele><time>2026-03-29T15:39:27Z</time></trkpt><trkpt lat="45.25136096255334" lon="8.94037496736357"><ele>72.0</ele><time>2026-03-29T15:39:28Z</time></trkpt><trkpt lat="45.25140330888621" lon="8.940252693824164"><ele>72.0</ele><time>2026-03-29T15:39:29Z</time></trkpt><trkpt lat="45.2514365435228" lon="8.94013721437388"><ele>72.0</ele><time>2026-03-29T15:39:30Z</time></trkpt><trkpt lat="45.251467778301866" lon="8.939999519524944"><ele>72.0</ele><time>2026-03-29T15:39:31Z</time></trkpt><trkpt lat="45.25145271676079" lon="8.939832238017354"><ele>72.0</ele><time>2026-03-29T15:39:32Z</time></trkpt><trkpt lat="45.251432380152" lon="8.93966699319874"><ele>72.0</ele><time>2026-03-29T15:39:33Z</time></trkpt><trkpt lat="45.25141261713717" lon="8.939516869594376"><ele>72.0</ele><time>2026-03-29T15:39:34Z</time></trkpt><trkpt lat="45.25139264614761" lon="8.939347867648149"><ele>72.0</ele><time>2026-03-29T15:39:35Z</time></trkpt><trkpt lat="45.25135803293324" lon="8.93914168434296"><ele>72.0</ele><time>2026-03-29T15:39:36Z</time></trkpt><trkpt lat="45.25135896933676" lon="8.938944673009082"><ele>72.25</ele><time>2026-03-29T15:39:37Z</time></trkpt><trkpt lat="45.25134653053914" lon="8.938769512753497"><ele>72.5</ele><time>2026-03-29T15:39:38Z</time></trkpt><trkpt lat="45.2513234868873" lon="8.938586578982411"><ele>72.75</ele><time>2026-03-29T15:39:39Z</time></trkpt><trkpt lat="45.25129893897159" lon="8.93846062159324"><ele>73.0</ele><time>2026-03-29T15:39:40Z</time></trkpt><trkpt lat="45.25126395387525" lon="8.938306547000659"><ele>72.5</ele><time>2026-03-29T15:39:41Z</time></trkpt><trkpt lat="45.251239660681385" lon="8.938175858747131"><ele>72.0</ele><time>2026-03-29T15:39:42Z</time></trkpt><trkpt lat="45.25123114024552" lon="8.938052265235923"><ele>71.5</ele><time>2026-03-29T15:39:43Z</time></trkpt><trkpt lat="45.25124565544662" lon="8.937925801493604"><ele>71.0</ele><time>2026-03-29T15:39:44Z</time></trkpt><trkpt lat="45.251283734621104" lon="8.937820788314733"><ele>70.5</ele><time>2026-03-29T15:39:45Z</time></trkpt><trkpt lat="45.2513280357875" lon="8.93773142450493"><ele>70.0</ele><time>2026-03-29T15:39:46Z</time></trkpt><trkpt lat="45.25137628273116" lon="8.937645262131186"><ele>70.0</ele><time>2026-03-29T15:39:47Z</time></trkpt><trkpt lat="45.251423116535506" lon="8.937564569849565"><ele>70.0</ele><time>2026-03-29T15:39:47.999Z</time></trkpt><trkpt lat="45.25147094177374" lon="8.937430496686993"><ele>70.0</ele><time>2026-03-29T15:39:49.999Z</time></trkpt><trkpt lat="45.25140198717103" lon="8.937256582902059"><ele>70.0</ele><time>2026-03-29T15:39:51.999Z</time></trkpt><trkpt lat="45.251293697197575" lon="8.937231367431467"><ele>70.0</ele><time>2026-03-29T15:39:52.999Z</time></trkpt><trkpt lat="45.25120056917594" lon="8.93718517881869"><ele>70.25</ele><time>2026-03-29T15:39:53.999Z</time></trkpt><trkpt lat="45.251093412613706" lon="8.937141819983001"><ele>70.5</ele><time>2026-03-29T15:39:54.999Z</time></trkpt><trkpt lat="45.25097420946073" lon="8.937106197158776"><ele>70.75</ele><time>2026-03-29T15:39:55.999Z</time></trkpt><trkpt lat="45.25083882523732" lon="8.937069480813733"><ele>71.0</ele><time>2026-03-29T15:39:56.999Z</time></trkpt><trkpt lat="45.25071058604375" lon="8.937030867638462"><ele>71.25</ele><time>2026-03-29T15:39:57.999Z</time></trkpt><trkpt lat="45.25059718078795" lon="8.93699345079901"><ele>71.5</ele><time>2026-03-29T15:39:58.999Z</time></trkpt><trkpt lat="45.25048348265872" lon="8.936951466721004"><ele>71.75</ele><time>2026-03-29T15:39:59.999Z</time></trkpt><trkpt lat="45.25037848062908" lon="8.93691084300298"><ele>72.0</ele><time>2026-03-29T15:40:00.999Z</time></trkpt><trkpt lat="45.25026176713253" lon="8.93686468425743"><ele>72.0</ele><time>2026-03-29T15:40:01.999Z</time></trkpt><trkpt lat="45.25013885898767" lon="8.936818571421066"><ele>72.0</ele><time>2026-03-29T15:40:02.999Z</time></trkpt><trkpt lat="45.25001948682748" lon="8.936777270765186"><ele>72.0</ele><time>2026-03-29T15:40:03.999Z</time></trkpt><trkpt lat="45.24991756909222" lon="8.93674204200839"><ele>72.0</ele><time>2026-03-29T15:40:04.999Z</time></trkpt><trkpt lat="45.24980902968289" lon="8.936704524440051"><ele>72.25</ele><time>2026-03-29T15:40:05.999Z</time></trkpt><trkpt lat="45.24968686659538" lon="8.936663275907668"><ele>72.5</ele><time>2026-03-29T15:40:06.999Z</time></trkpt><trkpt lat="45.24955994440653" lon="8.936644341698349"><ele>72.75</ele><time>2026-03-29T15:40:07.999Z</time></trkpt><trkpt lat="45.249447255026574" lon="8.936582968925524"><ele>73.0</ele><time>2026-03-29T15:40:08.999Z</time></trkpt><trkpt lat="45.24932582883589" lon="8.936562440346535"><ele>73.0</ele><time>2026-03-29T15:40:09.999Z</time></trkpt><trkpt lat="45.24920130988198" lon="8.936513851950656"><ele>73.0</ele><time>2026-03-29T15:40:10.999Z</time></trkpt><trkpt lat="45.249089521472044" lon="8.936454691564267"><ele>73.0</ele><time>2026-03-29T15:40:11.999Z</time></trkpt><trkpt lat="45.248998844125104" lon="8.936443207564245"><ele>73.0</ele><time>2026-03-29T15:40:12.999Z</time></trkpt><trkpt lat="45.24892743734795" lon="8.936413410540403"><ele>73.0</ele><time>2026-03-29T15:40:13.999Z</time></trkpt><trkpt lat="45.24884620741646" lon="8.936380543994849"><ele>72.75</ele><time>2026-03-29T15:40:14.999Z</time></trkpt><trkpt lat="45.24875281881939" lon="8.93631934462251"><ele>72.5</ele><time>2026-03-29T15:40:15.999Z</time></trkpt><trkpt lat="45.248656621358556" lon="8.936250392111111"><ele>72.25</ele><time>2026-03-29T15:40:16.999Z</time></trkpt><trkpt lat="45.24852977313159" lon="8.936195436550591"><ele>72.0</ele><time>2026-03-29T15:40:17.999Z</time></trkpt><trkpt lat="45.24837249922994" lon="8.936139568349514"><ele>72.0</ele><time>2026-03-29T15:40:18.999Z</time></trkpt><trkpt lat="45.248207837531524" lon="8.936083819634037"><ele>72.0</ele><time>2026-03-29T15:40:19.999Z</time></trkpt><trkpt lat="45.24800291712693" lon="8.936014440611208"><ele>72.0</ele><time>2026-03-29T15:40:20.999Z</time></trkpt><trkpt lat="45.24782094815227" lon="8.935954587690638"><ele>71.66666666666667</ele><time>2026-03-29T15:40:21.999Z</time></trkpt><trkpt lat="45.24766583578701" lon="8.935904297673398"><ele>71.33333333333334</ele><time>2026-03-29T15:40:22.999Z</time></trkpt><trkpt lat="45.247483856450415" lon="8.935845296876364"><ele>71.0</ele><time>2026-03-29T15:40:23.999Z</time></trkpt><trkpt lat="45.2473210322011" lon="8.935792506442114"><ele>71.66666666666667</ele><time>2026-03-29T15:40:25Z</time></trkpt><trkpt lat="45.247166671407655" lon="8.935738766344421"><ele>72.33333333333333</ele><time>2026-03-29T15:40:26Z</time></trkpt><trkpt lat="45.247011312971225" lon="8.935684629979207"><ele>73.0</ele><time>2026-03-29T15:40:27Z</time></trkpt><trkpt lat="45.246870010486326" lon="8.93563672878327"><ele>73.0</ele><time>2026-03-29T15:40:28Z</time></trkpt><trkpt lat="45.24674038376113" lon="8.93559361655415"><ele>73.0</ele><time>2026-03-29T15:40:29Z</time></trkpt><trkpt lat="45.24661749119452" lon="8.935553893707795"><ele>73.0</ele><time>2026-03-29T15:40:30Z</time></trkpt><trkpt lat="45.246504260455815" lon="8.935517293840975"><ele>73.0</ele><time>2026-03-29T15:40:31Z</time></trkpt><trkpt lat="45.24639757979779" lon="8.935485189409738"><ele>73.0</ele><time>2026-03-29T15:40:32Z</time></trkpt><trkpt lat="45.24631347737511" lon="8.935454454550326"><ele>73.0</ele><time>2026-03-29T15:40:33Z</time></trkpt><trkpt lat="45.24624724355839" lon="8.935411196236519"><ele>73.0</ele><time>2026-03-29T15:40:34Z</time></trkpt><trkpt lat="45.246187365556594" lon="8.935332207523103"><ele>73.0</ele><time>2026-03-29T15:40:35Z</time></trkpt><trkpt lat="45.24614573362502" lon="8.935188940020234"><ele>73.0</ele><time>2026-03-29T15:40:36Z</time></trkpt><trkpt lat="45.24610381807525" lon="8.93501161373345"><ele>72.66666666666666</ele><time>2026-03-29T15:40:37Z</time></trkpt><trkpt lat="45.246059362168815" lon="8.934808398774981"><ele>72.33333333333333</ele><time>2026-03-29T15:40:38Z</time></trkpt><trkpt lat="45.24601188263064" lon="8.934580254705976"><ele>72.0</ele><time>2026-03-29T15:40:39Z</time></trkpt><trkpt lat="45.24596725054145" lon="8.934365186163507"><ele>72.25</ele><time>2026-03-29T15:40:40Z</time></trkpt><trkpt lat="45.24592583524782" lon="8.934166440003157"><ele>72.5</ele><time>2026-03-29T15:40:41Z</time></trkpt><trkpt lat="45.24588436289443" lon="8.933972754409394"><ele>72.75</ele><time>2026-03-29T15:40:42Z</time></trkpt><trkpt lat="45.245838880719184" lon="8.933778133708879"><ele>73.0</ele><time>2026-03-29T15:40:43Z</time></trkpt><trkpt lat="45.24577769739124" lon="8.93358802497697"><ele>73.0</ele><time>2026-03-29T15:40:44Z</time></trkpt><trkpt lat="45.2456833177562" lon="8.933403790200003"><ele>73.0</ele><time>2026-03-29T15:40:45Z</time></trkpt><trkpt lat="45.24557886247348" lon="8.933233058309927"><ele>73.0</ele><time>2026-03-29T15:40:46Z</time></trkpt><trkpt lat="45.24547013158127" lon="8.933069868801867"><ele>74.0</ele><time>2026-03-29T15:40:47Z</time></trkpt><trkpt lat="45.24536975342684" lon="8.932928755780148"><ele>75.0</ele><time>2026-03-29T15:40:48Z</time></trkpt><trkpt lat="45.245280263303265" lon="8.932803810496235"><ele>76.0</ele><time>2026-03-29T15:40:49Z</time></trkpt><trkpt lat="45.245200495674204" lon="8.932692439243949"><ele>77.0</ele><time>2026-03-29T15:40:50Z</time></trkpt><trkpt lat="45.24514070454901" lon="8.932608959770334"><ele>77.0</ele><time>2026-03-29T15:40:51Z</time></trkpt><trkpt lat="45.24508082073155" lon="8.932516167556788"><ele>77.0</ele><time>2026-03-29T15:40:53Z</time></trkpt><trkpt lat="45.24502952754576" lon="8.932453740605824"><ele>77.0</ele><time>2026-03-29T15:40:56Z</time></trkpt><trkpt lat="45.24493534465837" lon="8.932526914481459"><ele>77.0</ele><time>2026-03-29T15:40:57Z</time></trkpt><trkpt lat="45.24485210717185" lon="8.932556208686"><ele>77.0</ele><time>2026-03-29T15:40:58Z</time></trkpt><trkpt lat="45.24476078538445" lon="8.932652624640374"><ele>77.25</ele><time>2026-03-29T15:40:59Z</time></trkpt><trkpt lat="45.244642556568806" lon="8.932716359729552"><ele>77.5</ele><time>2026-03-29T15:41:00Z</time></trkpt><trkpt lat="45.24452412419638" lon="8.932800313247425"><ele>77.75</ele><time>2026-03-29T15:41:01Z</time></trkpt><trkpt lat="45.244382954487556" lon="8.932897381470893"><ele>78.0</ele><time>2026-03-29T15:41:02Z</time></trkpt><trkpt lat="45.24423086002345" lon="8.932988706701485"><ele>78.0</ele><time>2026-03-29T15:41:03Z</time></trkpt><trkpt lat="45.244074203022" lon="8.933058880104657"><ele>78.0</ele><time>2026-03-29T15:41:04Z</time></trkpt><trkpt lat="45.243918350091704" lon="8.93315865621229"><ele>78.0</ele><time>2026-03-29T15:41:05Z</time></trkpt><trkpt lat="45.24375486637703" lon="8.933268868712007"><ele>77.33333333333333</ele><time>2026-03-29T15:41:06Z</time></trkpt><trkpt lat="45.24360103767694" lon="8.933386878674332"><ele>76.66666666666666</ele><time>2026-03-29T15:41:07Z</time></trkpt><trkpt lat="45.24347161420899" lon="8.933494495075836"><ele>76.0</ele><time>2026-03-29T15:41:08Z</time></trkpt><trkpt lat="45.24335340873924" lon="8.933590045343411"><ele>76.0</ele><time>2026-03-29T15:41:09Z</time></trkpt><trkpt lat="45.243253009885464" lon="8.933672383887822"><ele>76.0</ele><time>2026-03-29T15:41:10Z</time></trkpt><trkpt lat="45.24317277155157" lon="8.933741025403338"><ele>76.0</ele><time>2026-03-29T15:41:11Z</time></trkpt><trkpt lat="45.243108098687784" lon="8.93379645689501"><ele>76.0</ele><time>2026-03-29T15:41:12Z</time></trkpt><trkpt lat="45.2430543603975" lon="8.933845842594447"><ele>76.0</ele><time>2026-03-29T15:41:13Z</time></trkpt><trkpt lat="45.24298954080153" lon="8.933911947803342"><ele>76.0</ele><time>2026-03-29T15:41:15Z</time></trkpt><trkpt lat="45.24285468072084" lon="8.933793420732972"><ele>76.0</ele><time>2026-03-29T15:41:19Z</time></trkpt><trkpt lat="45.2427986719527" lon="8.933690598779723"><ele>76.0</ele><time>2026-03-29T15:41:20Z</time></trkpt><trkpt lat="45.24272882327191" lon="8.933561650205803"><ele>76.0</ele><time>2026-03-29T15:41:21Z</time></trkpt><trkpt lat="45.24266732901471" lon="8.933444202092625"><ele>76.0</ele><time>2026-03-29T15:41:22Z</time></trkpt><trkpt lat="45.24260865272792" lon="8.93335164841011"><ele>76.0</ele><time>2026-03-29T15:41:23Z</time></trkpt><trkpt lat="45.24255282405631" lon="8.933287144658676"><ele>76.0</ele><time>2026-03-29T15:41:24Z</time></trkpt><trkpt lat="45.24245907404077" lon="8.933141985101418"><ele>76.0</ele><time>2026-03-29T15:41:26Z</time></trkpt><trkpt lat="45.242417847190374" lon="8.933043905574523"><ele>76.0</ele><time>2026-03-29T15:41:27Z</time></trkpt><trkpt lat="45.24234091335602" lon="8.93293717122906"><ele>76.0</ele><time>2026-03-29T15:41:28Z</time></trkpt><trkpt lat="45.242272907924736" lon="8.932858342955784"><ele>76.0</ele><time>2026-03-29T15:41:29Z</time></trkpt><trkpt lat="45.24222103935377" lon="8.932776553733138"><ele>76.0</ele><time>2026-03-29T15:41:30Z</time></trkpt><trkpt lat="45.242173339690424" lon="8.932681832835767"><ele>76.0</ele><time>2026-03-29T15:41:31Z</time></trkpt><trkpt lat="45.24211128327529" lon="8.932577479167161"><ele>76.0</ele><time>2026-03-29T15:41:32Z</time></trkpt><trkpt lat="45.242036968261196" lon="8.932468330325962"><ele>76.0</ele><time>2026-03-29T15:41:33Z</time></trkpt><trkpt lat="45.24197469272421" lon="8.93237317804965"><ele>76.0</ele><time>2026-03-29T15:41:34Z</time></trkpt><trkpt lat="45.241903952882296" lon="8.93226663325014"><ele>76.0</ele><time>2026-03-29T15:41:35Z</time></trkpt><trkpt lat="45.241823795431316" lon="8.932134066599602"><ele>76.0</ele><time>2026-03-29T15:41:36Z</time></trkpt><trkpt lat="45.24174443891916" lon="8.932004071971727"><ele>76.0</ele><time>2026-03-29T15:41:37Z</time></trkpt><trkpt lat="45.241674623214905" lon="8.931892993883753"><ele>76.0</ele><time>2026-03-29T15:41:38Z</time></trkpt><trkpt lat="45.241602136218575" lon="8.931796137645458"><ele>76.0</ele><time>2026-03-29T15:41:39Z</time></trkpt><trkpt lat="45.24152280968531" lon="8.931699486055487"><ele>76.6</ele><time>2026-03-29T15:41:40Z</time></trkpt><trkpt lat="45.24143903403906" lon="8.931603168230241"><ele>77.19999999999999</ele><time>2026-03-29T15:41:41Z</time></trkpt><trkpt lat="45.241375108745046" lon="8.931509489697673"><ele>77.80000000000001</ele><time>2026-03-29T15:41:42Z</time></trkpt><trkpt lat="45.24129968560811" lon="8.931401555020079"><ele>78.4</ele><time>2026-03-29T15:41:43Z</time></trkpt><trkpt lat="45.24121626052039" lon="8.931281961722679"><ele>79.0</ele><time>2026-03-29T15:41:44Z</time></trkpt><trkpt lat="45.24111989588386" lon="8.931150540417544"><ele>79.0</ele><time>2026-03-29T15:41:45Z</time></trkpt><trkpt lat="45.241031821174694" lon="8.931035577659692"><ele>79.0</ele><time>2026-03-29T15:41:46Z</time></trkpt><trkpt lat="45.24094488770692" lon="8.930932466969328"><ele>79.0</ele><time>2026-03-29T15:41:47Z</time></trkpt><trkpt lat="45.24085022567137" lon="8.93082248030304"><ele>79.0</ele><time>2026-03-29T15:41:48Z</time></trkpt><trkpt lat="45.2407652848815" lon="8.930713596374902"><ele>79.16666666666666</ele><time>2026-03-29T15:41:49Z</time></trkpt><trkpt lat="45.24070481867426" lon="8.930628042527353"><ele>79.33333333333333</ele><time>2026-03-29T15:41:50Z</time></trkpt><trkpt lat="45.240646209189265" lon="8.930549194282928"><ele>79.5</ele><time>2026-03-29T15:41:51Z</time></trkpt><trkpt lat="45.24056910876922" lon="8.930442704672535"><ele>79.66666666666667</ele><time>2026-03-29T15:41:53Z</time></trkpt><trkpt lat="45.24051553329572" lon="8.930379445515012"><ele>79.83333333333334</ele><time>2026-03-29T15:41:55Z</time></trkpt><trkpt lat="45.2404660140587" lon="8.930314586972797"><ele>80.0</ele><time>2026-03-29T15:42:04Z</time></trkpt><trkpt lat="45.24040899444215" lon="8.930241697612521"><ele>80.0</ele><time>2026-03-29T15:42:05.999Z</time></trkpt><trkpt lat="45.24032374441024" lon="8.930137679019"><ele>80.0</ele><time>2026-03-29T15:42:07.999Z</time></trkpt><trkpt lat="45.240259748993985" lon="8.930061460560824"><ele>80.0</ele><time>2026-03-29T15:42:09.999Z</time></trkpt><trkpt lat="45.240210215298696" lon="8.930001990560358"><ele>80.0</ele><time>2026-03-29T15:42:11.999Z</time></trkpt><trkpt lat="45.24015638679227" lon="8.929936746231252"><ele>80.0</ele><time>2026-03-29T15:42:14.999Z</time></trkpt><trkpt lat="45.24009276023256" lon="8.929854089805065"><ele>80.0</ele><time>2026-03-29T15:42:17.999Z</time></trkpt><trkpt lat="45.24003685014737" lon="8.929790819930496"><ele>81.0</ele><time>2026-03-29T15:42:47Z</time></trkpt><trkpt lat="45.239972472374156" lon="8.929786659004302"><ele>82.0</ele><time>2026-03-29T15:42:49Z</time></trkpt><trkpt lat="45.239873731045726" lon="8.929729975856302"><ele>83.0</ele><time>2026-03-29T15:42:52Z</time></trkpt><trkpt lat="45.23981486751066" lon="8.92966273535944"><ele>84.0</ele><time>2026-03-29T15:42:54Z</time></trkpt><trkpt lat="45.23973198927542" lon="8.929568660066218"><ele>85.0</ele><time>2026-03-29T15:42:56Z</time></trkpt><trkpt lat="45.23963767145713" lon="8.929440136177693"><ele>87.4</ele><time>2026-03-29T15:42:58Z</time></trkpt><trkpt lat="45.23959048658967" lon="8.929369307932525"><ele>89.8</ele><time>2026-03-29T15:42:59Z</time></trkpt><trkpt lat="45.23952495125077" lon="8.929262612655425"><ele>92.19999999999999</ele><time>2026-03-29T15:43:01Z</time></trkpt><trkpt lat="45.23944770112323" lon="8.929151104863298"><ele>94.6</ele><time>2026-03-29T15:43:03Z</time></trkpt><trkpt lat="45.239380428026166" lon="8.929078556266358"><ele>97.0</ele><time>2026-03-29T15:43:05Z</time></trkpt><trkpt lat="45.23928154718982" lon="8.928995887203754"><ele>97.00000000000001</ele><time>2026-03-29T15:43:07Z</time></trkpt><trkpt lat="45.23921233779503" lon="8.928943155863875"><ele>97.0</ele><time>2026-03-29T15:43:08Z</time></trkpt><trkpt lat="45.23914196760829" lon="8.928886165019767"><ele>97.0</ele><time>2026-03-29T15:43:09Z</time></trkpt><trkpt lat="45.23905377766297" lon="8.928808074869872"><ele>97.0</ele><time>2026-03-29T15:43:11Z</time></trkpt><trkpt lat="45.23898281916466" lon="8.928755204039687"><ele>97.00000000000001</ele><time>2026-03-29T15:43:14Z</time></trkpt><trkpt lat="45.23891621587486" lon="8.928653193184633"><ele>97.0</ele><time>2026-03-29T15:43:17Z</time></trkpt><trkpt lat="45.238843246673554" lon="8.928540592786504"><ele>97.19999999999999</ele><time>2026-03-29T15:43:19Z</time></trkpt><trkpt lat="45.23877511913985" lon="8.928424046814415"><ele>97.4</ele><time>2026-03-29T15:43:21Z</time></trkpt><trkpt lat="45.238698905232724" lon="8.928282831221711"><ele>97.6</ele><time>2026-03-29T15:43:23Z</time></trkpt><trkpt lat="45.23865821559634" lon="8.928209671042701"><ele>97.80000000000001</ele><time>2026-03-29T15:43:24Z</time></trkpt><trkpt lat="45.23858689105914" lon="8.928075563766798"><ele>98.0</ele><time>2026-03-29T15:43:26Z</time></trkpt><trkpt lat="45.23852086825227" lon="8.9279466163563"><ele>98.14285714285714</ele><time>2026-03-29T15:43:28Z</time></trkpt><trkpt lat="45.23847792115459" lon="8.92787513523462"><ele>98.28571428571428</ele><time>2026-03-29T15:43:29Z</time></trkpt><trkpt lat="45.23843104034371" lon="8.927801687097807"><ele>98.42857142857143</ele><time>2026-03-29T15:43:30Z</time></trkpt><trkpt lat="45.238382894516505" lon="8.927733719854967"><ele>98.57142857142857</ele><time>2026-03-29T15:43:31Z</time></trkpt><trkpt lat="45.23832992184396" lon="8.927666667804932"><ele>98.71428571428571</ele><time>2026-03-29T15:43:32Z</time></trkpt><trkpt lat="45.23828250157689" lon="8.927605472842519"><ele>98.85714285714286</ele><time>2026-03-29T15:43:33Z</time></trkpt><trkpt lat="45.23823147483804" lon="8.92754181304111"><ele>99.0</ele><time>2026-03-29T15:43:34Z</time></trkpt><trkpt lat="45.238183273226916" lon="8.927481475545902"><ele>98.16666666666667</ele><time>2026-03-29T15:43:35Z</time></trkpt><trkpt lat="45.23811343585941" lon="8.927401919559513"><ele>97.33333333333333</ele><time>2026-03-29T15:43:37Z</time></trkpt><trkpt lat="45.23803440749813" lon="8.92734587630293"><ele>96.5</ele><time>2026-03-29T15:43:39Z</time></trkpt><trkpt lat="45.23795562649043" lon="8.927332229053587"><ele>95.66666666666666</ele><time>2026-03-29T15:43:41Z</time></trkpt><trkpt lat="45.237885706968775" lon="8.92730156797665"><ele>94.83333333333333</ele><time>2026-03-29T15:43:43Z</time></trkpt><trkpt lat="45.237809812465876" lon="8.927209244206404"><ele>94.0</ele><time>2026-03-29T15:43:45Z</time></trkpt><trkpt lat="45.23776537632055" lon="8.92713142609667"><ele>94.0</ele><time>2026-03-29T15:43:46Z</time></trkpt><trkpt lat="45.23770820403373" lon="8.927032952920284"><ele>94.0</ele><time>2026-03-29T15:43:47Z</time></trkpt><trkpt lat="45.23764927197624" lon="8.926931957344893"><ele>94.0</ele><time>2026-03-29T15:43:48Z</time></trkpt><trkpt lat="45.23758925538236" lon="8.926834145727705"><ele>94.0</ele><time>2026-03-29T15:43:49Z</time></trkpt><trkpt lat="45.23753928320079" lon="8.926748463348288"><ele>94.0</ele><time>2026-03-29T15:43:50Z</time></trkpt><trkpt lat="45.237477442583646" lon="8.926646905648418"><ele>94.0</ele><time>2026-03-29T15:43:51Z</time></trkpt><trkpt lat="45.23741001494891" lon="8.926539897966823"><ele>94.2</ele><time>2026-03-29T15:43:52Z</time></trkpt><trkpt lat="45.23734254083652" lon="8.926427148328166"><ele>94.4</ele><time>2026-03-29T15:43:53Z</time></trkpt><trkpt lat="45.23727689431862" lon="8.926316047156746"><ele>94.6</ele><time>2026-03-29T15:43:54Z</time></trkpt><trkpt lat="45.237216585725186" lon="8.926213630364845"><ele>94.8</ele><time>2026-03-29T15:43:55Z</time></trkpt><trkpt lat="45.23714512994281" lon="8.926095877658382"><ele>95.0</ele><time>2026-03-29T15:43:56Z</time></trkpt><trkpt lat="45.23707393787822" lon="8.925976531108018"><ele>95.0</ele><time>2026-03-29T15:43:57Z</time></trkpt><trkpt lat="45.23700698710088" lon="8.925870964244526"><ele>95.0</ele><time>2026-03-29T15:43:58Z</time></trkpt><trkpt lat="45.23694469714916" lon="8.925771028042549"><ele>95.0</ele><time>2026-03-29T15:43:59Z</time></trkpt><trkpt lat="45.23688019726856" lon="8.92566702982213"><ele>95.0</ele><time>2026-03-29T15:44:00Z</time></trkpt><trkpt lat="45.2368119678945" lon="8.925558081385606"><ele>95.0</ele><time>2026-03-29T15:44:01Z</time></trkpt><trkpt lat="45.236737093823706" lon="8.925437904360335"><ele>95.0</ele><time>2026-03-29T15:44:01.999Z</time></trkpt><trkpt lat="45.23667241392778" lon="8.925329637731767"><ele>95.0</ele><time>2026-03-29T15:44:02.999Z</time></trkpt><trkpt lat="45.23660270549583" lon="8.925211531197654"><ele>95.0</ele><time>2026-03-29T15:44:03.999Z</time></trkpt><trkpt lat="45.23653546126275" lon="8.925090272827797"><ele>95.0</ele><time>2026-03-29T15:44:04.999Z</time></trkpt><trkpt lat="45.236477961443356" lon="8.924976190000104"><ele>95.0</ele><time>2026-03-29T15:44:05.999Z</time></trkpt><trkpt lat="45.2364232700806" lon="8.924873877221371"><ele>94.83333333333334</ele><time>2026-03-29T15:44:06.999Z</time></trkpt><trkpt lat="45.236377723507935" lon="8.924786789074854"><ele>94.66666666666667</ele><time>2026-03-29T15:44:07.999Z</time></trkpt><trkpt lat="45.23633647132579" lon="8.924707661075981"><ele>94.5</ele><time>2026-03-29T15:44:08.999Z</time></trkpt><trkpt lat="45.23628787500139" lon="8.924614347760652"><ele>94.33333333333333</ele><time>2026-03-29T15:44:09.999Z</time></trkpt><trkpt lat="45.236249433061" lon="8.924522561107139"><ele>94.16666666666666</ele><time>2026-03-29T15:44:10.999Z</time></trkpt><trkpt lat="45.236203419824236" lon="8.924419797255881"><ele>94.0</ele><time>2026-03-29T15:44:11.999Z</time></trkpt><trkpt lat="45.236160484423884" lon="8.924319936319254"><ele>94.4</ele><time>2026-03-29T15:44:12.999Z</time></trkpt><trkpt lat="45.23612340353069" lon="8.924226882665776"><ele>94.80000000000001</ele><time>2026-03-29T15:44:13.999Z</time></trkpt><trkpt lat="45.236074963704205" lon="8.924105361923546"><ele>95.19999999999999</ele><time>2026-03-29T15:44:14.999Z</time></trkpt><trkpt lat="45.2360157286154" lon="8.923975751799636"><ele>95.6</ele><time>2026-03-29T15:44:15.999Z</time></trkpt><trkpt lat="45.2359572996533" lon="8.923840956981262"><ele>96.0</ele><time>2026-03-29T15:44:16.999Z</time></trkpt><trkpt lat="45.23589945542157" lon="8.923698805769021"><ele>96.0</ele><time>2026-03-29T15:44:17.999Z</time></trkpt><trkpt lat="45.235852368622304" lon="8.923572864877876"><ele>96.0</ele><time>2026-03-29T15:44:18.999Z</time></trkpt><trkpt lat="45.235800478146444" lon="8.923441329642424"><ele>96.0</ele><time>2026-03-29T15:44:19.999Z</time></trkpt><trkpt lat="45.2357497732475" lon="8.923300157026782"><ele>96.0</ele><time>2026-03-29T15:44:20.999Z</time></trkpt><trkpt lat="45.23569479118722" lon="8.92313724626515"><ele>96.0</ele><time>2026-03-29T15:44:21.999Z</time></trkpt><trkpt lat="45.23564339952241" lon="8.922982301457859"><ele>96.0</ele><time>2026-03-29T15:44:22.999Z</time></trkpt><trkpt lat="45.23558371499567" lon="8.92281371811758"><ele>96.0</ele><time>2026-03-29T15:44:23.999Z</time></trkpt><trkpt lat="45.23552451530793" lon="8.922648641162937"><ele>96.0</ele><time>2026-03-29T15:44:24.999Z</time></trkpt><trkpt lat="45.235463097778904" lon="8.922482913705585"><ele>96.0</ele><time>2026-03-29T15:44:25.999Z</time></trkpt><trkpt lat="45.23540927516529" lon="8.922322182804868"><ele>96.0</ele><time>2026-03-29T15:44:26.999Z</time></trkpt><trkpt lat="45.23535270106993" lon="8.922171325513677"><ele>96.0</ele><time>2026-03-29T15:44:27.999Z</time></trkpt><trkpt lat="45.23530219072185" lon="8.9220199289944"><ele>96.0</ele><time>2026-03-29T15:44:28.999Z</time></trkpt><trkpt lat="45.23525085530067" lon="8.921870091371904"><ele>96.0</ele><time>2026-03-29T15:44:29.999Z</time></trkpt><trkpt lat="45.235197437185754" lon="8.921717659056586"><ele>95.8</ele><time>2026-03-29T15:44:30.999Z</time></trkpt><trkpt lat="45.23514640443311" lon="8.921568928222428"><ele>95.6</ele><time>2026-03-29T15:44:31.999Z</time></trkpt><trkpt lat="45.235100907694545" lon="8.921434997495885"><ele>95.4</ele><time>2026-03-29T15:44:32.999Z</time></trkpt><trkpt lat="45.235060148708484" lon="8.921317078329658"><ele>95.2</ele><time>2026-03-29T15:44:33.999Z</time></trkpt><trkpt lat="45.234999682292894" lon="8.921169817890362"><ele>95.0</ele><time>2026-03-29T15:44:34.999Z</time></trkpt><trkpt lat="45.23494131476917" lon="8.921043044988934"><ele>95.0</ele><time>2026-03-29T15:44:35.999Z</time></trkpt><trkpt lat="45.23487126373193" lon="8.92090907761161"><ele>95.0</ele><time>2026-03-29T15:44:37Z</time></trkpt><trkpt lat="45.234790437849576" lon="8.920773429941605"><ele>95.0</ele><time>2026-03-29T15:44:38Z</time></trkpt><trkpt lat="45.23471197535734" lon="8.920632200609875"><ele>95.0</ele><time>2026-03-29T15:44:39Z</time></trkpt><trkpt lat="45.234636825307646" lon="8.920482697105694"><ele>95.5</ele><time>2026-03-29T15:44:40Z</time></trkpt><trkpt lat="45.23455889057539" lon="8.92032917903446"><ele>96.0</ele><time>2026-03-29T15:44:41Z</time></trkpt><trkpt lat="45.23448942707894" lon="8.920195355026108"><ele>96.5</ele><time>2026-03-29T15:44:42Z</time></trkpt><trkpt lat="45.23441736436646" lon="8.920056290502396"><ele>97.0</ele><time>2026-03-29T15:44:43Z</time></trkpt><trkpt lat="45.23434481884443" lon="8.919913596240116"><ele>97.0</ele><time>2026-03-29T15:44:44Z</time></trkpt><trkpt lat="45.23425235489542" lon="8.919745092731285"><ele>97.0</ele><time>2026-03-29T15:44:45Z</time></trkpt><trkpt lat="45.23416396297274" lon="8.919573884834518"><ele>97.0</ele><time>2026-03-29T15:44:46Z</time></trkpt><trkpt lat="45.23408559642287" lon="8.919418574694795"><ele>97.0</ele><time>2026-03-29T15:44:47Z</time></trkpt><trkpt lat="45.234007091358826" lon="8.91926208580702"><ele>97.19999999999999</ele><time>2026-03-29T15:44:48Z</time></trkpt><trkpt lat="45.23393949852336" lon="8.919119564237695"><ele>97.4</ele><time>2026-03-29T15:44:49Z</time></trkpt><trkpt lat="45.23387412308583" lon="8.918983933419007"><ele>97.6</ele><time>2026-03-29T15:44:50Z</time></trkpt><trkpt lat="45.233820641152874" lon="8.918873001759314"><ele>97.80000000000001</ele><time>2026-03-29T15:44:51Z</time></trkpt><trkpt lat="45.23376771108856" lon="8.918763337544222"><ele>98.0</ele><time>2026-03-29T15:44:52Z</time></trkpt><trkpt lat="45.233717867271004" lon="8.91865833226358"><ele>97.99999999999999</ele><time>2026-03-29T15:44:53Z</time></trkpt><trkpt lat="45.23367781570857" lon="8.918568560386731"><ele>98.0</ele><time>2026-03-29T15:44:54Z</time></trkpt><trkpt lat="45.2336400953375" lon="8.91848790254237"><ele>98.0</ele><time>2026-03-29T15:44:55Z</time></trkpt><trkpt lat="45.2335962944482" lon="8.918397770782773"><ele>98.0</ele><time>2026-03-29T15:44:56Z</time></trkpt><trkpt lat="45.23353449729939" lon="8.918266319881052"><ele>97.99999999999999</ele><time>2026-03-29T15:44:58Z</time></trkpt><trkpt lat="45.23346880628481" lon="8.91819877998489"><ele>98.0</ele><time>2026-03-29T15:45:00Z</time></trkpt><trkpt lat="45.233342237892465" lon="8.918217425604963"><ele>97.80000000000001</ele><time>2026-03-29T15:45:02Z</time></trkpt><trkpt lat="45.23325392880146" lon="8.918264392069046"><ele>97.6</ele><time>2026-03-29T15:45:03Z</time></trkpt><trkpt lat="45.233169418686686" lon="8.918323327503092"><ele>97.4</ele><time>2026-03-29T15:45:04Z</time></trkpt><trkpt lat="45.233102767042446" lon="8.918368785149974"><ele>97.19999999999999</ele><time>2026-03-29T15:45:05Z</time></trkpt><trkpt lat="45.2330377054199" lon="8.918407681088356"><ele>97.0</ele><time>2026-03-29T15:45:06Z</time></trkpt><trkpt lat="45.232924721099984" lon="8.918458598962175"><ele>96.8</ele><time>2026-03-29T15:45:08Z</time></trkpt><trkpt lat="45.2328289113653" lon="8.918515058780757"><ele>96.6</ele><time>2026-03-29T15:45:10Z</time></trkpt><trkpt lat="45.23276702004862" lon="8.918555657687797"><ele>96.39999999999999</ele><time>2026-03-29T15:45:12Z</time></trkpt><trkpt lat="45.232714422702415" lon="8.918617302400401"><ele>96.19999999999999</ele><time>2026-03-29T15:45:13Z</time></trkpt><trkpt lat="45.232625920137345" lon="8.918674191670995"><ele>96.0</ele><time>2026-03-29T15:45:14Z</time></trkpt><trkpt lat="45.23252104070137" lon="8.918594702658034"><ele>96.0</ele><time>2026-03-29T15:45:15Z</time></trkpt><trkpt lat="45.23242970605394" lon="8.918591700989168"><ele>96.0</ele><time>2026-03-29T15:45:16Z</time></trkpt><trkpt lat="45.23234935427347" lon="8.918582003351549"><ele>96.0</ele><time>2026-03-29T15:45:17Z</time></trkpt><trkpt lat="45.23226523358418" lon="8.918347645049671"><ele>96.0</ele><time>2026-03-29T15:45:18Z</time></trkpt><trkpt lat="45.23216281772271" lon="8.918200276535991"><ele>96.5</ele><time>2026-03-29T15:45:19Z</time></trkpt><trkpt lat="45.23206580118409" lon="8.918039424219762"><ele>97.0</ele><time>2026-03-29T15:45:20Z</time></trkpt><trkpt lat="45.23196998282839" lon="8.91787103871953"><ele>97.5</ele><time>2026-03-29T15:45:21Z</time></trkpt><trkpt lat="45.23188228122056" lon="8.917721677262286"><ele>98.0</ele><time>2026-03-29T15:45:22Z</time></trkpt><trkpt lat="45.23178990543229" lon="8.917576109168994"><ele>98.0</ele><time>2026-03-29T15:45:23Z</time></trkpt><trkpt lat="45.2316883417911" lon="8.917444800701192"><ele>98.0</ele><time>2026-03-29T15:45:24Z</time></trkpt><trkpt lat="45.231588518907685" lon="8.917338462295223"><ele>98.0</ele><time>2026-03-29T15:45:25Z</time></trkpt><trkpt lat="45.231495192914295" lon="8.91724121100044"><ele>98.0</ele><time>2026-03-29T15:45:26Z</time></trkpt><trkpt lat="45.23140455719054" lon="8.91715781546627"><ele>97.99999999999999</ele><time>2026-03-29T15:45:27Z</time></trkpt><trkpt lat="45.23132557607591" lon="8.917094512728093"><ele>98.0</ele><time>2026-03-29T15:45:28Z</time></trkpt><trkpt lat="45.23126577532061" lon="8.91703584546828"><ele>98.0</ele><time>2026-03-29T15:45:29Z</time></trkpt><trkpt lat="45.2312262122001" lon="8.916954400276737"><ele>98.0</ele><time>2026-03-29T15:45:30Z</time></trkpt><trkpt lat="45.23121815952693" lon="8.916864934741865"><ele>97.99999999999999</ele><time>2026-03-29T15:45:31Z</time></trkpt><trkpt lat="45.231295053790326" lon="8.916700995436253"><ele>98.0</ele><time>2026-03-29T15:45:33Z</time></trkpt><trkpt lat="45.23137229407862" lon="8.916615305528937"><ele>97.75</ele><time>2026-03-29T15:45:34Z</time></trkpt><trkpt lat="45.23147202294055" lon="8.916516199829934"><ele>97.5</ele><time>2026-03-29T15:45:35Z</time></trkpt><trkpt lat="45.23158707766792" lon="8.916401622772266"><ele>97.25</ele><time>2026-03-29T15:45:36Z</time></trkpt><trkpt lat="45.231718474500575" lon="8.916260412701494"><ele>97.0</ele><time>2026-03-29T15:45:37Z</time></trkpt><trkpt lat="45.23184088066502" lon="8.916124352453082"><ele>97.0</ele><time>2026-03-29T15:45:38Z</time></trkpt><trkpt lat="45.231958902718176" lon="8.915984945949477"><ele>97.0</ele><time>2026-03-29T15:45:39Z</time></trkpt><trkpt lat="45.23206464828817" lon="8.915854203209108"><ele>97.0</ele><time>2026-03-29T15:45:40Z</time></trkpt><trkpt lat="45.23217309685942" lon="8.915720923714813"><ele>97.0</ele><time>2026-03-29T15:45:41Z</time></trkpt><trkpt lat="45.23228263554511" lon="8.915588154112152"><ele>97.0</ele><time>2026-03-29T15:45:42Z</time></trkpt><trkpt lat="45.23239750252141" lon="8.915449555255679"><ele>97.0</ele><time>2026-03-29T15:45:43Z</time></trkpt><trkpt lat="45.23249205240273" lon="8.915334617439433"><ele>97.0</ele><time>2026-03-29T15:45:44Z</time></trkpt><trkpt lat="45.23256675522112" lon="8.91524668254941"><ele>97.0</ele><time>2026-03-29T15:45:45Z</time></trkpt><trkpt lat="45.23262770414544" lon="8.91517246713923"><ele>97.0</ele><time>2026-03-29T15:45:46Z</time></trkpt><trkpt lat="45.23269051683458" lon="8.915093969760076"><ele>97.0</ele><time>2026-03-29T15:45:47Z</time></trkpt><trkpt lat="45.2327512289886" lon="8.915027627325271"><ele>97.0</ele><time>2026-03-29T15:45:48Z</time></trkpt><trkpt lat="45.23283690118204" lon="8.91493997306321"><ele>97.0</ele><time>2026-03-29T15:45:50Z</time></trkpt><trkpt lat="45.232921081248726" lon="8.914831400292249"><ele>97.0</ele><time>2026-03-29T15:45:52Z</time></trkpt><trkpt lat="45.232988820894946" lon="8.91475349203843"><ele>97.0</ele><time>2026-03-29T15:45:54Z</time></trkpt><trkpt lat="45.23303188203758" lon="8.91468465594877"><ele>97.0</ele><time>2026-03-29T15:46:09Z</time></trkpt><trkpt lat="45.232953673207376" lon="8.914780576479037"><ele>97.0</ele><time>2026-03-29T15:46:13.999Z</time></trkpt><trkpt lat="45.232773500434305" lon="8.914954490752258"><ele>97.0</ele><time>2026-03-29T15:46:16.999Z</time></trkpt><trkpt lat="45.232706065582136" lon="8.915031161608981"><ele>97.00000000000001</ele><time>2026-03-29T15:46:17.999Z</time></trkpt><trkpt lat="45.23265221519863" lon="8.91509960780078"><ele>97.0</ele><time>2026-03-29T15:46:18.999Z</time></trkpt><trkpt lat="45.232562319311334" lon="8.915209317276073"><ele>97.0</ele><time>2026-03-29T15:46:20.999Z</time></trkpt><trkpt lat="45.23249448660564" lon="8.915220330761723"><ele>97.0</ele><time>2026-03-29T15:46:22.999Z</time></trkpt><trkpt lat="45.23241930657475" lon="8.915127792339515"><ele>97.00000000000001</ele><time>2026-03-29T15:46:24.999Z</time></trkpt><trkpt lat="45.23235038393668" lon="8.915099209583111"><ele>97.0</ele><time>2026-03-29T15:46:26.999Z</time></trkpt><trkpt lat="45.23226986096726" lon="8.915179988984049"><ele>96.83333333333334</ele><time>2026-03-29T15:46:28.999Z</time></trkpt><trkpt lat="45.2322197734693" lon="8.915254842459019"><ele>96.66666666666667</ele><time>2026-03-29T15:46:29.999Z</time></trkpt><trkpt lat="45.23215666230296" lon="8.915333238146175"><ele>96.5</ele><time>2026-03-29T15:46:30.999Z</time></trkpt><trkpt lat="45.2320936240604" lon="8.915416211592076"><ele>96.33333333333334</ele><time>2026-03-29T15:46:31.999Z</time></trkpt><trkpt lat="45.23204030464129" lon="8.915480685750564"><ele>96.16666666666667</ele><time>2026-03-29T15:46:32.999Z</time></trkpt><trkpt lat="45.231977726267374" lon="8.91555013968879"><ele>96.0</ele><time>2026-03-29T15:46:33.999Z</time></trkpt><trkpt lat="45.23190661822237" lon="8.91563293061231"><ele>96.0</ele><time>2026-03-29T15:46:34.999Z</time></trkpt><trkpt lat="45.23182914023494" lon="8.915731251919569"><ele>96.0</ele><time>2026-03-29T15:46:35.999Z</time></trkpt><trkpt lat="45.23175237498023" lon="8.915819225666143"><ele>96.0</ele><time>2026-03-29T15:46:36.999Z</time></trkpt><trkpt lat="45.23169029262455" lon="8.915897975136797"><ele>96.0</ele><time>2026-03-29T15:46:37.999Z</time></trkpt><trkpt lat="45.231633881725266" lon="8.915961050805883"><ele>96.0</ele><time>2026-03-29T15:46:38.999Z</time></trkpt><trkpt lat="45.23167911763212" lon="8.91621667722059"><ele>96.0</ele><time>2026-03-29T15:46:39.999Z</time></trkpt><trkpt lat="45.23161704946551" lon="8.916283243635279"><ele>96.0</ele><time>2026-03-29T15:46:40.999Z</time></trkpt><trkpt lat="45.23156073362577" lon="8.916343545796906"><ele>96.0</ele><time>2026-03-29T15:46:41.999Z</time></trkpt><trkpt lat="45.23147938367307" lon="8.916429684511797"><ele>96.0</ele><time>2026-03-29T15:46:43Z</time></trkpt><trkpt lat="45.23141277754899" lon="8.916483188879734"><ele>96.0</ele><time>2026-03-29T15:46:44Z</time></trkpt><trkpt lat="45.23116816173107" lon="8.916652155128466"><ele>96.0</ele><time>2026-03-29T15:46:46Z</time></trkpt><trkpt lat="45.231065675149054" lon="8.916672602030623"><ele>96.0</ele><time>2026-03-29T15:46:47Z</time></trkpt><trkpt lat="45.230897908338946" lon="8.916778996805363"><ele>96.0</ele><time>2026-03-29T15:46:49Z</time></trkpt><trkpt lat="45.23065167183575" lon="8.916772499917979"><ele>96.19999999999999</ele><time>2026-03-29T15:46:50Z</time></trkpt><trkpt lat="45.23057064743371" lon="8.916766493760118"><ele>96.39999999999999</ele><time>2026-03-29T15:46:51Z</time></trkpt><trkpt lat="45.230462935497194" lon="8.916762865410377"><ele>96.6</ele><time>2026-03-29T15:46:53Z</time></trkpt><trkpt lat="45.23038438241993" lon="8.91676179327982"><ele>96.8</ele><time>2026-03-29T15:46:54Z</time></trkpt><trkpt lat="45.23030383685681" lon="8.916760693956897"><ele>97.0</ele><time>2026-03-29T15:46:55Z</time></trkpt><trkpt lat="45.230187429277265" lon="8.91675910516954"><ele>97.0</ele><time>2026-03-29T15:46:56Z</time></trkpt><trkpt lat="45.230088461544035" lon="8.916757939473145"><ele>97.0</ele><time>2026-03-29T15:46:57Z</time></trkpt><trkpt lat="45.229988030433844" lon="8.9167567594889"><ele>97.0</ele><time>2026-03-29T15:46:58Z</time></trkpt><trkpt lat="45.22989852988658" lon="8.916755707929648"><ele>97.0</ele><time>2026-03-29T15:46:59Z</time></trkpt><trkpt lat="45.22980991909977" lon="8.916754666828206"><ele>97.0</ele><time>2026-03-29T15:47:00Z</time></trkpt><trkpt lat="45.229733729894555" lon="8.91675377166779"><ele>97.00000000000001</ele><time>2026-03-29T15:47:01Z</time></trkpt><trkpt lat="45.22965074715357" lon="8.916752796686284"><ele>97.0</ele><time>2026-03-29T15:47:02Z</time></trkpt><trkpt lat="45.229565759791235" lon="8.91675179815494"><ele>97.0</ele><time>2026-03-29T15:47:03Z</time></trkpt><trkpt lat="45.22947563790546" lon="8.916750739296676"><ele>97.0</ele><time>2026-03-29T15:47:04Z</time></trkpt><trkpt lat="45.22937126744468" lon="8.916749513028591"><ele>97.00000000000001</ele><time>2026-03-29T15:47:05Z</time></trkpt><trkpt lat="45.229292674928686" lon="8.916748589633249"><ele>97.0</ele><time>2026-03-29T15:47:06Z</time></trkpt><trkpt lat="45.229225553807396" lon="8.916747804951164"><ele>97.0</ele><time>2026-03-29T15:47:07Z</time></trkpt><trkpt lat="45.229161986725686" lon="8.916747058090959"><ele>97.0</ele><time>2026-03-29T15:47:08Z</time></trkpt><trkpt lat="45.22905122199285" lon="8.916745756695837"><ele>97.0</ele><time>2026-03-29T15:47:10Z</time></trkpt><trkpt lat="45.22894891658262" lon="8.916744554691046"><ele>97.0</ele><time>2026-03-29T15:47:12Z</time></trkpt><trkpt lat="45.22885863944857" lon="8.916743494008578"><ele>97.0</ele><time>2026-03-29T15:47:14Z</time></trkpt><trkpt lat="45.22872532294453" lon="8.91674192764882"><ele>97.0</ele><time>2026-03-29T15:47:16Z</time></trkpt><trkpt lat="45.22862217606329" lon="8.916740715758356"><ele>97.0</ele><time>2026-03-29T15:47:18Z</time></trkpt><trkpt lat="45.22852262621001" lon="8.915990431395576"><ele>97.0</ele><time>2026-03-29T15:47:37Z</time></trkpt><trkpt lat="45.22853007398661" lon="8.915865381698874"><ele>97.0</ele><time>2026-03-29T15:47:39Z</time></trkpt><trkpt lat="45.22852585120759" lon="8.915690265011634"><ele>97.0</ele><time>2026-03-29T15:47:41Z</time></trkpt><trkpt lat="45.22851864208711" lon="8.915494258154931"><ele>97.0</ele><time>2026-03-29T15:47:42.999Z</time></trkpt><trkpt lat="45.22851203945419" lon="8.915349597500319"><ele>97.0</ele><time>2026-03-29T15:47:43.999Z</time></trkpt><trkpt lat="45.228508162059626" lon="8.91518095304094"><ele>97.0</ele><time>2026-03-29T15:47:44.999Z</time></trkpt><trkpt lat="45.2285045338219" lon="8.915009812772727"><ele>97.0</ele><time>2026-03-29T15:47:45.999Z</time></trkpt><trkpt lat="45.22850208957479" lon="8.914873613650185"><ele>97.0</ele><time>2026-03-29T15:47:46.999Z</time></trkpt><trkpt lat="45.22850090878494" lon="8.914753897130174"><ele>97.0</ele><time>2026-03-29T15:47:47.999Z</time></trkpt><trkpt lat="45.22849785419197" lon="8.914611047834665"><ele>96.6</ele><time>2026-03-29T15:47:48.999Z</time></trkpt><trkpt lat="45.22849561812127" lon="8.914467914460278"><ele>96.19999999999999</ele><time>2026-03-29T15:47:49.999Z</time></trkpt><trkpt lat="45.228494770731835" lon="8.914334704405972"><ele>95.8</ele><time>2026-03-29T15:47:50.999Z</time></trkpt><trkpt lat="45.22849277792698" lon="8.914204792703288"><ele>95.4</ele><time>2026-03-29T15:47:51.999Z</time></trkpt><trkpt lat="45.228490958804684" lon="8.914082656755474"><ele>95.0</ele><time>2026-03-29T15:47:52.999Z</time></trkpt><trkpt lat="45.228490687892005" lon="8.913944984504894"><ele>95.0</ele><time>2026-03-29T15:47:53.999Z</time></trkpt><trkpt lat="45.228489393579636" lon="8.913805989301078"><ele>95.0</ele><time>2026-03-29T15:47:54.999Z</time></trkpt><trkpt lat="45.22848864871032" lon="8.913684748225695"><ele>95.0</ele><time>2026-03-29T15:47:55.999Z</time></trkpt><trkpt lat="45.22848796968764" lon="8.913579923623296"><ele>95.0</ele><time>2026-03-29T15:47:56.999Z</time></trkpt><trkpt lat="45.22848874969035" lon="8.913392359722943"><ele>95.0</ele><time>2026-03-29T15:47:58.999Z</time></trkpt><trkpt lat="45.22848453690803" lon="8.913286099654082"><ele>95.0</ele><time>2026-03-29T15:47:59.999Z</time></trkpt><trkpt lat="45.228478215433874" lon="8.91313847982747"><ele>95.0</ele><time>2026-03-29T15:48:00.999Z</time></trkpt><trkpt lat="45.22847979216075" lon="8.913005572308522"><ele>95.0</ele><time>2026-03-29T15:48:01.999Z</time></trkpt><trkpt lat="45.22847800459822" lon="8.912855280242235"><ele>95.0</ele><time>2026-03-29T15:48:02.999Z</time></trkpt><trkpt lat="45.22847609427045" lon="8.91271650798466"><ele>95.0</ele><time>2026-03-29T15:48:03.999Z</time></trkpt><trkpt lat="45.228474745038234" lon="8.912562603905183"><ele>94.8</ele><time>2026-03-29T15:48:04.999Z</time></trkpt><trkpt lat="45.228474344337506" lon="8.912402293275594"><ele>94.6</ele><time>2026-03-29T15:48:05.999Z</time></trkpt><trkpt lat="45.228474566044405" lon="8.912255577671385"><ele>94.4</ele><time>2026-03-29T15:48:06.999Z</time></trkpt><trkpt lat="45.22847411960741" lon="8.912098553484837"><ele>94.2</ele><time>2026-03-29T15:48:07.999Z</time></trkpt><trkpt lat="45.228471615752106" lon="8.911938362857628"><ele>94.0</ele><time>2026-03-29T15:48:08.999Z</time></trkpt><trkpt lat="45.22846709796873" lon="8.911792322957771"><ele>94.33333333333333</ele><time>2026-03-29T15:48:09.999Z</time></trkpt><trkpt lat="45.228464134921225" lon="8.911662475527137"><ele>94.66666666666666</ele><time>2026-03-29T15:48:10.999Z</time></trkpt><trkpt lat="45.228466973605855" lon="8.911548545486987"><ele>95.0</ele><time>2026-03-29T15:48:11.999Z</time></trkpt><trkpt lat="45.22846406754052" lon="8.91142850709574"><ele>95.33333333333333</ele><time>2026-03-29T15:48:12.999Z</time></trkpt><trkpt lat="45.228459313578874" lon="8.911314269599819"><ele>95.66666666666667</ele><time>2026-03-29T15:48:13.999Z</time></trkpt><trkpt lat="45.228455210020385" lon="8.911184508163437"><ele>96.0</ele><time>2026-03-29T15:48:14.999Z</time></trkpt><trkpt lat="45.22845237904207" lon="8.911052143124943"><ele>96.0</ele><time>2026-03-29T15:48:15.999Z</time></trkpt><trkpt lat="45.22845361430907" lon="8.91093050907316"><ele>96.0</ele><time>2026-03-29T15:48:16.999Z</time></trkpt><trkpt lat="45.22845395687354" lon="8.910792383579262"><ele>96.0</ele><time>2026-03-29T15:48:17.999Z</time></trkpt><trkpt lat="45.228456748369446" lon="8.910655829404943"><ele>96.0</ele><time>2026-03-29T15:48:18.999Z</time></trkpt><trkpt lat="45.22846368623345" lon="8.910509966076502"><ele>96.0</ele><time>2026-03-29T15:48:19.999Z</time></trkpt><trkpt lat="45.228474135784964" lon="8.91033292702605"><ele>96.0</ele><time>2026-03-29T15:48:20.999Z</time></trkpt><trkpt lat="45.228482463796205" lon="8.910164546267662"><ele>96.0</ele><time>2026-03-29T15:48:21.999Z</time></trkpt><trkpt lat="45.22849021617708" lon="8.910001764912906"><ele>96.0</ele><time>2026-03-29T15:48:22.999Z</time></trkpt><trkpt lat="45.22849951349555" lon="8.909857748430296"><ele>96.0</ele><time>2026-03-29T15:48:23.999Z</time></trkpt><trkpt lat="45.228507968386" lon="8.909701062127654"><ele>96.0</ele><time>2026-03-29T15:48:24.999Z</time></trkpt><trkpt lat="45.228516883223854" lon="8.909560123139974"><ele>96.0</ele><time>2026-03-29T15:48:25.999Z</time></trkpt><trkpt lat="45.22852485325138" lon="8.909396446394522"><ele>96.0</ele><time>2026-03-29T15:48:26.999Z</time></trkpt><trkpt lat="45.228533057181025" lon="8.909222183506907"><ele>96.0</ele><time>2026-03-29T15:48:27.999Z</time></trkpt><trkpt lat="45.22854319502668" lon="8.909073690797424"><ele>96.0</ele><time>2026-03-29T15:48:28.999Z</time></trkpt><trkpt lat="45.228548831559074" lon="8.908957995247391"><ele>96.0</ele><time>2026-03-29T15:48:29.999Z</time></trkpt><trkpt lat="45.22855667969772" lon="8.908844383930028"><ele>96.0</ele><time>2026-03-29T15:48:30.999Z</time></trkpt><trkpt lat="45.22856602767771" lon="8.908693466298244"><ele>96.0</ele><time>2026-03-29T15:48:31.999Z</time></trkpt><trkpt lat="45.22857221560778" lon="8.908538940350986"><ele>96.0</ele><time>2026-03-29T15:48:32.999Z</time></trkpt><trkpt lat="45.228578699779995" lon="8.908368482295176"><ele>96.0</ele><time>2026-03-29T15:48:33.999Z</time></trkpt><trkpt lat="45.22858694376802" lon="8.90820951835575"><ele>96.0</ele><time>2026-03-29T15:48:34.999Z</time></trkpt><trkpt lat="45.22859307776793" lon="8.90804977282582"><ele>96.0</ele><time>2026-03-29T15:48:35.999Z</time></trkpt><trkpt lat="45.228600849230325" lon="8.907899352651711"><ele>96.0</ele><time>2026-03-29T15:48:36.999Z</time></trkpt><trkpt lat="45.22860858951937" lon="8.907742926041005"><ele>96.0</ele><time>2026-03-29T15:48:37.999Z</time></trkpt><trkpt lat="45.22861608030281" lon="8.907582026696405"><ele>96.0</ele><time>2026-03-29T15:48:38.999Z</time></trkpt><trkpt lat="45.22862411656645" lon="8.907412118375802"><ele>96.0</ele><time>2026-03-29T15:48:39.999Z</time></trkpt><trkpt lat="45.2286326699243" lon="8.907238372429386"><ele>96.0</ele><time>2026-03-29T15:48:40.999Z</time></trkpt><trkpt lat="45.22864024906911" lon="8.90707742444202"><ele>96.0</ele><time>2026-03-29T15:48:41.999Z</time></trkpt><trkpt lat="45.228645271704636" lon="8.906926687660063"><ele>96.0</ele><time>2026-03-29T15:48:42.999Z</time></trkpt><trkpt lat="45.228650549449746" lon="8.906792009268557"><ele>96.0</ele><time>2026-03-29T15:48:43.999Z</time></trkpt><trkpt lat="45.228658048866215" lon="8.906661051632152"><ele>96.0</ele><time>2026-03-29T15:48:44.999Z</time></trkpt><trkpt lat="45.228662889363264" lon="8.906537136440768"><ele>96.0</ele><time>2026-03-29T15:48:45.999Z</time></trkpt><trkpt lat="45.22866406106758" lon="8.906436365511777"><ele>96.0</ele><time>2026-03-29T15:48:46.999Z</time></trkpt><trkpt lat="45.22867106917138" lon="8.906253160470584"><ele>96.0</ele><time>2026-03-29T15:48:49Z</time></trkpt><trkpt lat="45.22866730047567" lon="8.906134041486856"><ele>96.0</ele><time>2026-03-29T15:48:51Z</time></trkpt><trkpt lat="45.22867125849239" lon="8.906022943209395"><ele>96.0</ele><time>2026-03-29T15:48:53Z</time></trkpt><trkpt lat="45.228676786770784" lon="8.90592359560025"><ele>96.0</ele><time>2026-03-29T15:48:55Z</time></trkpt><trkpt lat="45.228652325912435" lon="8.90583700347909"><ele>96.0</ele><time>2026-03-29T15:48:58Z</time></trkpt><trkpt lat="45.2285261529489" lon="8.905735101943037"><ele>96.0</ele><time>2026-03-29T15:49:00Z</time></trkpt><trkpt lat="45.22844212753138" lon="8.905666924844828"><ele>96.0</ele><time>2026-03-29T15:49:01Z</time></trkpt><trkpt lat="45.22836327052233" lon="8.905569846141335"><ele>96.19999999999999</ele><time>2026-03-29T15:49:02Z</time></trkpt><trkpt lat="45.22827415966372" lon="8.905481932106417"><ele>96.39999999999999</ele><time>2026-03-29T15:49:03Z</time></trkpt><trkpt lat="45.228179132379495" lon="8.905388181163003"><ele>96.6</ele><time>2026-03-29T15:49:04Z</time></trkpt><trkpt lat="45.22808600644095" lon="8.90532467158291"><ele>96.8</ele><time>2026-03-29T15:49:05Z</time></trkpt><trkpt lat="45.22799349521233" lon="8.90522362560058"><ele>97.0</ele><time>2026-03-29T15:49:06Z</time></trkpt><trkpt lat="45.22790937590474" lon="8.90514491299431"><ele>96.8</ele><time>2026-03-29T15:49:07Z</time></trkpt><trkpt lat="45.227829930460466" lon="8.905063398455956"><ele>96.6</ele><time>2026-03-29T15:49:08Z</time></trkpt><trkpt lat="45.22775184462758" lon="8.90498150944816"><ele>96.39999999999999</ele><time>2026-03-29T15:49:09Z</time></trkpt><trkpt lat="45.227668213126776" lon="8.90486692677318"><ele>96.19999999999999</ele><time>2026-03-29T15:49:10Z</time></trkpt><trkpt lat="45.2275778623408" lon="8.90477320284718"><ele>96.0</ele><time>2026-03-29T15:49:11Z</time></trkpt><trkpt lat="45.227489407579576" lon="8.904683128869557"><ele>96.0</ele><time>2026-03-29T15:49:12Z</time></trkpt><trkpt lat="45.22741823949586" lon="8.904614201673223"><ele>96.0</ele><time>2026-03-29T15:49:13Z</time></trkpt><trkpt lat="45.22733716777581" lon="8.904540737986345"><ele>96.0</ele><time>2026-03-29T15:49:14Z</time></trkpt><trkpt lat="45.227242720849176" lon="8.904465590348753"><ele>96.0</ele><time>2026-03-29T15:49:15Z</time></trkpt><trkpt lat="45.22715293088873" lon="8.904402495124295"><ele>96.0</ele><time>2026-03-29T15:49:16Z</time></trkpt><trkpt lat="45.22705822374846" lon="8.904364394069503"><ele>95.99999999999999</ele><time>2026-03-29T15:49:17Z</time></trkpt><trkpt lat="45.22698943750954" lon="8.904308881217224"><ele>96.0</ele><time>2026-03-29T15:49:18Z</time></trkpt><trkpt lat="45.22690934030793" lon="8.90426892969575"><ele>96.0</ele><time>2026-03-29T15:49:19Z</time></trkpt><trkpt lat="45.22685219602631" lon="8.904225078292468"><ele>96.0</ele><time>2026-03-29T15:49:20Z</time></trkpt><trkpt lat="45.22678834952294" lon="8.904182960330056"><ele>96.0</ele><time>2026-03-29T15:49:21Z</time></trkpt><trkpt lat="45.22671665402918" lon="8.904143184530907"><ele>95.99999999999999</ele><time>2026-03-29T15:49:22Z</time></trkpt><trkpt lat="45.22665834717707" lon="8.904106718468011"><ele>96.0</ele><time>2026-03-29T15:49:23Z</time></trkpt><trkpt lat="45.226545036100376" lon="8.904041958061189"><ele>96.6</ele><time>2026-03-29T15:49:25Z</time></trkpt><trkpt lat="45.226440581474805" lon="8.903980504646487"><ele>97.19999999999999</ele><time>2026-03-29T15:49:27Z</time></trkpt><trkpt lat="45.22636752991483" lon="8.903942091700289"><ele>97.80000000000001</ele><time>2026-03-29T15:49:28Z</time></trkpt><trkpt lat="45.22629252412961" lon="8.903874352975345"><ele>98.4</ele><time>2026-03-29T15:49:29Z</time></trkpt><trkpt lat="45.22621378130496" lon="8.903824245778958"><ele>99.0</ele><time>2026-03-29T15:49:30Z</time></trkpt><trkpt lat="45.22611863172762" lon="8.903763698301159"><ele>99.0</ele><time>2026-03-29T15:49:31Z</time></trkpt><trkpt lat="45.22602465686245" lon="8.903703807683591"><ele>99.0</ele><time>2026-03-29T15:49:32Z</time></trkpt><trkpt lat="45.225913536514774" lon="8.903631775526197"><ele>99.0</ele><time>2026-03-29T15:49:33Z</time></trkpt><trkpt lat="45.22582031709034" lon="8.903571347381437"><ele>99.0</ele><time>2026-03-29T15:49:34Z</time></trkpt><trkpt lat="45.22574091762702" lon="8.903519877852712"><ele>99.0</ele><time>2026-03-29T15:49:35Z</time></trkpt><trkpt lat="45.225667950685605" lon="8.90347257807041"><ele>98.6</ele><time>2026-03-29T15:49:36Z</time></trkpt><trkpt lat="45.225597653889096" lon="8.903427009164128"><ele>98.2</ele><time>2026-03-29T15:49:37Z</time></trkpt><trkpt lat="45.22548885993377" lon="8.903353738175046"><ele>97.8</ele><time>2026-03-29T15:49:39Z</time></trkpt><trkpt lat="45.225401940919625" lon="8.903298639628"><ele>97.39999999999999</ele><time>2026-03-29T15:49:41Z</time></trkpt><trkpt lat="45.225348522987446" lon="8.903197340555804"><ele>97.0</ele><time>2026-03-29T15:49:42.999Z</time></trkpt><trkpt lat="45.22537105570783" lon="8.90305216145635"><ele>97.0</ele><time>2026-03-29T15:49:44.999Z</time></trkpt><trkpt lat="45.22538624862736" lon="8.902854929766233"><ele>97.0</ele><time>2026-03-29T15:49:46.999Z</time></trkpt><trkpt lat="45.22539717427219" lon="8.902681392495165"><ele>97.0</ele><time>2026-03-29T15:49:47.999Z</time></trkpt><trkpt lat="45.22540648511326" lon="8.902533503913894"><ele>97.0</ele><time>2026-03-29T15:49:48.999Z</time></trkpt><trkpt lat="45.22541562716602" lon="8.902388296433788"><ele>97.0</ele><time>2026-03-29T15:49:49.999Z</time></trkpt><trkpt lat="45.225423957399904" lon="8.90225327466657"><ele>97.0</ele><time>2026-03-29T15:49:50.999Z</time></trkpt><trkpt lat="45.225432367612335" lon="8.9021154530934"><ele>97.0</ele><time>2026-03-29T15:49:51.999Z</time></trkpt><trkpt lat="45.22544210953428" lon="8.901955808166637"><ele>97.0</ele><time>2026-03-29T15:49:52.999Z</time></trkpt><trkpt lat="45.22545114510955" lon="8.90180773842745"><ele>97.0</ele><time>2026-03-29T15:49:53.999Z</time></trkpt><trkpt lat="45.22546131037683" lon="8.901641155844755"><ele>97.0</ele><time>2026-03-29T15:49:54.999Z</time></trkpt><trkpt lat="45.22547049431073" lon="8.901490654985741"><ele>97.0</ele><time>2026-03-29T15:49:55.999Z</time></trkpt><trkpt lat="45.225478608100715" lon="8.9013576909525"><ele>97.0</ele><time>2026-03-29T15:49:56.999Z</time></trkpt><trkpt lat="45.22548689990673" lon="8.90123223491143"><ele>97.0</ele><time>2026-03-29T15:49:57.999Z</time></trkpt><trkpt lat="45.22549662642205" lon="8.901085644041734"><ele>97.0</ele><time>2026-03-29T15:49:58.999Z</time></trkpt><trkpt lat="45.225506971094916" lon="8.900929736563436"><ele>96.6</ele><time>2026-03-29T15:49:59.999Z</time></trkpt><trkpt lat="45.22551796447553" lon="8.900764052395612"><ele>96.19999999999999</ele><time>2026-03-29T15:50:00.999Z</time></trkpt><trkpt lat="45.225528310028714" lon="8.900608131734387"><ele>95.8</ele><time>2026-03-29T15:50:01.999Z</time></trkpt><trkpt lat="45.225538846143394" lon="8.900449339165293"><ele>95.4</ele><time>2026-03-29T15:50:02.999Z</time></trkpt><trkpt lat="45.225548655525145" lon="8.90030149928401"><ele>95.0</ele><time>2026-03-29T15:50:03.999Z</time></trkpt><trkpt lat="45.22555767378705" lon="8.900165582648405"><ele>95.0</ele><time>2026-03-29T15:50:04.999Z</time></trkpt><trkpt lat="45.22556794361225" lon="8.900010803338631"><ele>95.0</ele><time>2026-03-29T15:50:05.999Z</time></trkpt><trkpt lat="45.22557726357047" lon="8.89984736862097"><ele>95.0</ele><time>2026-03-29T15:50:06.999Z</time></trkpt><trkpt lat="45.22558568932038" lon="8.89969020606723"><ele>95.0</ele><time>2026-03-29T15:50:07.999Z</time></trkpt><trkpt lat="45.22558476145645" lon="8.899519266277204"><ele>95.0</ele><time>2026-03-29T15:50:08.999Z</time></trkpt><trkpt lat="45.22557551328392" lon="8.899366179290043"><ele>95.0</ele><time>2026-03-29T15:50:09.999Z</time></trkpt><trkpt lat="45.22556437070365" lon="8.899198670424447"><ele>95.0</ele><time>2026-03-29T15:50:10.999Z</time></trkpt><trkpt lat="45.22555285596265" lon="8.899025566453394"><ele>95.0</ele><time>2026-03-29T15:50:11.999Z</time></trkpt><trkpt lat="45.22554177177463" lon="8.89886530051953"><ele>95.25</ele><time>2026-03-29T15:50:12.999Z</time></trkpt><trkpt lat="45.225531258595815" lon="8.898722841622204"><ele>95.5</ele><time>2026-03-29T15:50:13.999Z</time></trkpt><trkpt lat="45.22551938184477" lon="8.898553695782427"><ele>95.75</ele><time>2026-03-29T15:50:14.999Z</time></trkpt><trkpt lat="45.22550652822631" lon="8.898364187449667"><ele>96.0</ele><time>2026-03-29T15:50:15.999Z</time></trkpt><trkpt lat="45.22549171266414" lon="8.898151084726626"><ele>96.0</ele><time>2026-03-29T15:50:16.999Z</time></trkpt><trkpt lat="45.22547854500522" lon="8.897977917141024"><ele>96.0</ele><time>2026-03-29T15:50:17.999Z</time></trkpt><trkpt lat="45.22546561484517" lon="8.897807872903195"><ele>96.0</ele><time>2026-03-29T15:50:18.999Z</time></trkpt><trkpt lat="45.22545407569912" lon="8.897656121544806"><ele>96.0</ele><time>2026-03-29T15:50:19.999Z</time></trkpt><trkpt lat="45.225443830226915" lon="8.897521383695548"><ele>96.0</ele><time>2026-03-29T15:50:20.999Z</time></trkpt><trkpt lat="45.22543612315867" lon="8.897381266123697"><ele>96.0</ele><time>2026-03-29T15:50:21.999Z</time></trkpt><trkpt lat="45.225431436784035" lon="8.897248899036915"><ele>96.0</ele><time>2026-03-29T15:50:22.999Z</time></trkpt><trkpt lat="45.22543037224629" lon="8.897140314967926"><ele>96.0</ele><time>2026-03-29T15:50:23.999Z</time></trkpt><trkpt lat="45.2254024207513" lon="8.897031361009692"><ele>96.0</ele><time>2026-03-29T15:50:24.999Z</time></trkpt><trkpt lat="45.22536819910547" lon="8.896904160647544"><ele>96.0</ele><time>2026-03-29T15:50:25.999Z</time></trkpt><trkpt lat="45.225295833209294" lon="8.896791721193786"><ele>96.0</ele><time>2026-03-29T15:50:26.999Z</time></trkpt><trkpt lat="45.225312225767624" lon="8.896587772595076"><ele>96.0</ele><time>2026-03-29T15:50:27.999Z</time></trkpt><trkpt lat="45.225290312372515" lon="8.896419449304942"><ele>96.0</ele><time>2026-03-29T15:50:28.999Z</time></trkpt><trkpt lat="45.225271583788114" lon="8.896264377546217"><ele>96.0</ele><time>2026-03-29T15:50:29.999Z</time></trkpt><trkpt lat="45.22525336125569" lon="8.896113947270209"><ele>96.0</ele><time>2026-03-29T15:50:30.999Z</time></trkpt><trkpt lat="45.22523305343229" lon="8.895966903876289"><ele>96.0</ele><time>2026-03-29T15:50:31.999Z</time></trkpt><trkpt lat="45.225215774991064" lon="8.895818311770746"><ele>96.0</ele><time>2026-03-29T15:50:32.999Z</time></trkpt><trkpt lat="45.22520623461443" lon="8.895659953163424"><ele>96.0</ele><time>2026-03-29T15:50:33.999Z</time></trkpt><trkpt lat="45.225189984205336" lon="8.895516156223662"><ele>96.0</ele><time>2026-03-29T15:50:34.999Z</time></trkpt><trkpt lat="45.22517218741356" lon="8.89536009792209"><ele>96.0</ele><time>2026-03-29T15:50:35.999Z</time></trkpt><trkpt lat="45.22515229248266" lon="8.89518754225954"><ele>96.0</ele><time>2026-03-29T15:50:36.999Z</time></trkpt><trkpt lat="45.22513601836697" lon="8.895036455124837"><ele>96.0</ele><time>2026-03-29T15:50:37.999Z</time></trkpt><trkpt lat="45.22512059290738" lon="8.894898062223051"><ele>96.0</ele><time>2026-03-29T15:50:38.999Z</time></trkpt><trkpt lat="45.2251035917699" lon="8.894750703263979"><ele>96.0</ele><time>2026-03-29T15:50:39.999Z</time></trkpt><trkpt lat="45.225089744029134" lon="8.89460448578078"><ele>96.0</ele><time>2026-03-29T15:50:40.999Z</time></trkpt><trkpt lat="45.2250726095524" lon="8.89443373136754"><ele>96.0</ele><time>2026-03-29T15:50:41.999Z</time></trkpt><trkpt lat="45.225058237366916" lon="8.894259896510167"><ele>96.0</ele><time>2026-03-29T15:50:42.999Z</time></trkpt><trkpt lat="45.2250439512369" lon="8.894110697025308"><ele>96.0</ele><time>2026-03-29T15:50:43.999Z</time></trkpt><trkpt lat="45.225030878924855" lon="8.893975532820834"><ele>96.0</ele><time>2026-03-29T15:50:44.999Z</time></trkpt><trkpt lat="45.225017875851634" lon="8.893857802091107"><ele>96.0</ele><time>2026-03-29T15:50:45.999Z</time></trkpt><trkpt lat="45.22500570872083" lon="8.893737297349723"><ele>96.0</ele><time>2026-03-29T15:50:46.999Z</time></trkpt><trkpt lat="45.22499580959469" lon="8.893610123617297"><ele>96.0</ele><time>2026-03-29T15:50:47.999Z</time></trkpt><trkpt lat="45.22498276603878" lon="8.8934761497051"><ele>96.0</ele><time>2026-03-29T15:50:48.999Z</time></trkpt><trkpt lat="45.22497113695062" lon="8.893358969594013"><ele>96.0</ele><time>2026-03-29T15:50:49.999Z</time></trkpt><trkpt lat="45.22496328061439" lon="8.893266353935466"><ele>96.0</ele><time>2026-03-29T15:50:50.999Z</time></trkpt><trkpt lat="45.22495596565516" lon="8.893152407344212"><ele>96.0</ele><time>2026-03-29T15:50:51.999Z</time></trkpt><trkpt lat="45.22495245436563" lon="8.893046286019517"><ele>96.0</ele><time>2026-03-29T15:50:52.999Z</time></trkpt><trkpt lat="45.22494584039112" lon="8.892885198796883"><ele>96.0</ele><time>2026-03-29T15:50:55Z</time></trkpt><trkpt lat="45.2249178023949" lon="8.89275857521546"><ele>96.0</ele><time>2026-03-29T15:50:57Z</time></trkpt><trkpt lat="45.224885884549" lon="8.892630875558027"><ele>96.0</ele><time>2026-03-29T15:50:59Z</time></trkpt><trkpt lat="45.22487840245964" lon="8.892537583689878"><ele>96.0</ele><time>2026-03-29T15:51:01Z</time></trkpt><trkpt lat="45.224900777473856" lon="8.89239783033876"><ele>96.0</ele><time>2026-03-29T15:51:03Z</time></trkpt><trkpt lat="45.22495592656758" lon="8.892300175698468"><ele>96.0</ele><time>2026-03-29T15:51:05Z</time></trkpt><trkpt lat="45.22500926878946" lon="8.892199236536737"><ele>96.0</ele><time>2026-03-29T15:51:07Z</time></trkpt><trkpt lat="45.225060884869634" lon="8.8921145035887"><ele>96.0</ele><time>2026-03-29T15:51:09Z</time></trkpt><trkpt lat="45.22513286478161" lon="8.892000028943517"><ele>96.0</ele><time>2026-03-29T15:51:11Z</time></trkpt><trkpt lat="45.22518023216812" lon="8.891924233577441"><ele>96.0</ele><time>2026-03-29T15:51:12Z</time></trkpt><trkpt lat="45.22524026410826" lon="8.891830888908082"><ele>96.0</ele><time>2026-03-29T15:51:13Z</time></trkpt><trkpt lat="45.22530028748665" lon="8.891742354736204"><ele>96.0</ele><time>2026-03-29T15:51:14Z</time></trkpt><trkpt lat="45.225360040499076" lon="8.891652545539154"><ele>96.0</ele><time>2026-03-29T15:51:15Z</time></trkpt><trkpt lat="45.22540997435339" lon="8.89157229759551"><ele>96.0</ele><time>2026-03-29T15:51:16Z</time></trkpt><trkpt lat="45.2254623938683" lon="8.89148855724368"><ele>96.0</ele><time>2026-03-29T15:51:17Z</time></trkpt><trkpt lat="45.22551600732256" lon="8.891401018056929"><ele>96.0</ele><time>2026-03-29T15:51:18Z</time></trkpt><trkpt lat="45.22556181825722" lon="8.891329090655722"><ele>96.0</ele><time>2026-03-29T15:51:19Z</time></trkpt><trkpt lat="45.22564023164599" lon="8.891209416285502"><ele>96.0</ele><time>2026-03-29T15:51:21Z</time></trkpt><trkpt lat="45.22569588689564" lon="8.89112532159547"><ele>96.0</ele><time>2026-03-29T15:51:23Z</time></trkpt><trkpt lat="45.225718683906734" lon="8.891033257102555"><ele>96.0</ele><time>2026-03-29T15:51:24.999Z</time></trkpt><trkpt lat="45.22568931190918" lon="8.890939340671085"><ele>96.0</ele><time>2026-03-29T15:51:26.999Z</time></trkpt><trkpt lat="45.22560239739179" lon="8.890819991366396"><ele>95.6</ele><time>2026-03-29T15:51:28.999Z</time></trkpt><trkpt lat="45.22554879626107" lon="8.890762187164901"><ele>95.19999999999999</ele><time>2026-03-29T15:51:29.999Z</time></trkpt><trkpt lat="45.225463252120825" lon="8.890668996320192"><ele>94.80000000000001</ele><time>2026-03-29T15:51:31.999Z</time></trkpt><trkpt lat="45.225385452224565" lon="8.890595166140427"><ele>94.4</ele><time>2026-03-29T15:51:33.999Z</time></trkpt><trkpt lat="45.22529674786887" lon="8.890489339512053"><ele>94.0</ele><time>2026-03-29T15:51:35.999Z</time></trkpt><trkpt lat="45.225243787355865" lon="8.890421236839023"><ele>94.0</ele><time>2026-03-29T15:51:36.999Z</time></trkpt><trkpt lat="45.22518759614591" lon="8.890344959282961"><ele>94.0</ele><time>2026-03-29T15:51:37.999Z</time></trkpt><trkpt lat="45.22513187569807" lon="8.890274755336176"><ele>94.0</ele><time>2026-03-29T15:51:38.999Z</time></trkpt><trkpt lat="45.22508100111004" lon="8.89021604935184"><ele>94.0</ele><time>2026-03-29T15:51:39.999Z</time></trkpt><trkpt lat="45.224989833700164" lon="8.890127862812273"><ele>94.0</ele><time>2026-03-29T15:51:41.999Z</time></trkpt><trkpt lat="45.224917935878125" lon="8.890118910853337"><ele>94.0</ele><time>2026-03-29T15:52:03.999Z</time></trkpt><trkpt lat="45.22484665126296" lon="8.890195192012065"><ele>94.0</ele><time>2026-03-29T15:52:05.999Z</time></trkpt><trkpt lat="45.22478162717554" lon="8.890261885366352"><ele>94.0</ele><time>2026-03-29T15:52:07.999Z</time></trkpt><trkpt lat="45.224691741361504" lon="8.89034413955537"><ele>94.0</ele><time>2026-03-29T15:52:10.999Z</time></trkpt><trkpt lat="45.22461575663963" lon="8.8904173219844"><ele>94.0</ele><time>2026-03-29T15:52:12.999Z</time></trkpt><trkpt lat="45.2245301882527" lon="8.890501550606198"><ele>94.0</ele><time>2026-03-29T15:52:14.999Z</time></trkpt><trkpt lat="45.22444091041836" lon="8.890587843210415"><ele>94.0</ele><time>2026-03-29T15:52:16.999Z</time></trkpt><trkpt lat="45.22434480630665" lon="8.890684121539493"><ele>94.0</ele><time>2026-03-29T15:52:18.999Z</time></trkpt><trkpt lat="45.22423926739984" lon="8.89078840668142"><ele>94.0</ele><time>2026-03-29T15:52:20.999Z</time></trkpt><trkpt lat="45.224131858237314" lon="8.890894031465018"><ele>94.0</ele><time>2026-03-29T15:52:22.999Z</time></trkpt><trkpt lat="45.224040394030204" lon="8.890983873310546"><ele>94.2</ele><time>2026-03-29T15:52:24.999Z</time></trkpt><trkpt lat="45.22395381065475" lon="8.891067818212619"><ele>94.4</ele><time>2026-03-29T15:52:26.999Z</time></trkpt><trkpt lat="45.22386706539566" lon="8.891147361784514"><ele>94.6</ele><time>2026-03-29T15:52:28.999Z</time></trkpt><trkpt lat="45.22377856556932" lon="8.891239531138957"><ele>94.8</ele><time>2026-03-29T15:52:30.999Z</time></trkpt><trkpt lat="45.223715018508585" lon="8.89130511352355"><ele>95.0</ele><time>2026-03-29T15:52:31.999Z</time></trkpt><trkpt lat="45.223650543144196" lon="8.891372507700027"><ele>95.0</ele><time>2026-03-29T15:52:32.999Z</time></trkpt><trkpt lat="45.22354670068239" lon="8.891471887079614"><ele>95.0</ele><time>2026-03-29T15:52:34.999Z</time></trkpt><trkpt lat="45.22349573652267" lon="8.891531489272833"><ele>95.0</ele><time>2026-03-29T15:52:35.999Z</time></trkpt><trkpt lat="45.22342514924059" lon="8.891613166564582"><ele>95.0</ele><time>2026-03-29T15:52:37.999Z</time></trkpt><trkpt lat="45.22333546609043" lon="8.891692625969577"><ele>95.0</ele><time>2026-03-29T15:52:39.999Z</time></trkpt><trkpt lat="45.223245495880384" lon="8.891757380319747"><ele>95.0</ele><time>2026-03-29T15:52:41.999Z</time></trkpt><trkpt lat="45.22314776987565" lon="8.891811507245842"><ele>95.0</ele><time>2026-03-29T15:52:43.999Z</time></trkpt><trkpt lat="45.22308103176553" lon="8.891844663649668"><ele>95.0</ele><time>2026-03-29T15:52:44.999Z</time></trkpt><trkpt lat="45.222975541404814" lon="8.891881694644482"><ele>95.0</ele><time>2026-03-29T15:52:46.999Z</time></trkpt><trkpt lat="45.22286588585801" lon="8.891904713030154"><ele>95.0</ele><time>2026-03-29T15:52:48.999Z</time></trkpt><trkpt lat="45.22279960926085" lon="8.891913201672779"><ele>95.0</ele><time>2026-03-29T15:52:49.999Z</time></trkpt><trkpt lat="45.22272928107081" lon="8.891919257855161"><ele>95.0</ele><time>2026-03-29T15:52:50.999Z</time></trkpt><trkpt lat="45.22266158561492" lon="8.89191526904732"><ele>95.0</ele><time>2026-03-29T15:52:51.999Z</time></trkpt><trkpt lat="45.222582320476164" lon="8.891910384348026"><ele>95.0</ele><time>2026-03-29T15:52:52.999Z</time></trkpt><trkpt lat="45.222508210169885" lon="8.89190548720491"><ele>95.0</ele><time>2026-03-29T15:52:53.999Z</time></trkpt><trkpt lat="45.222439326517154" lon="8.891904456274478"><ele>95.0</ele><time>2026-03-29T15:52:54.999Z</time></trkpt><trkpt lat="45.22236493444623" lon="8.891900887502791"><ele>95.0</ele><time>2026-03-29T15:52:55.999Z</time></trkpt><trkpt lat="45.22229273692766" lon="8.891897461629869"><ele>94.83333333333334</ele><time>2026-03-29T15:52:56.999Z</time></trkpt><trkpt lat="45.222213847649584" lon="8.891895450584872"><ele>94.66666666666667</ele><time>2026-03-29T15:52:57.999Z</time></trkpt><trkpt lat="45.22213236569581" lon="8.89189498048123"><ele>94.5</ele><time>2026-03-29T15:52:58.999Z</time></trkpt><trkpt lat="45.222051152421216" lon="8.891890122033951"><ele>94.33333333333333</ele><time>2026-03-29T15:52:59.999Z</time></trkpt><trkpt lat="45.221971149313916" lon="8.891888612306184"><ele>94.16666666666666</ele><time>2026-03-29T15:53:00.999Z</time></trkpt><trkpt lat="45.22188643010947" lon="8.89188415958988"><ele>94.0</ele><time>2026-03-29T15:53:01.999Z</time></trkpt><trkpt lat="45.22179531690192" lon="8.891880051150352"><ele>94.0</ele><time>2026-03-29T15:53:02.999Z</time></trkpt><trkpt lat="45.22169246789038" lon="8.891877548632454"><ele>94.0</ele><time>2026-03-29T15:53:03.999Z</time></trkpt><trkpt lat="45.2216026580489" lon="8.891871251077044"><ele>94.0</ele><time>2026-03-29T15:53:04.999Z</time></trkpt><trkpt lat="45.22150695548025" lon="8.891870254320642"><ele>94.0</ele><time>2026-03-29T15:53:05.999Z</time></trkpt><trkpt lat="45.22131183558538" lon="8.891864797608449"><ele>94.0</ele><time>2026-03-29T15:53:07.999Z</time></trkpt><trkpt lat="45.221225151667994" lon="8.891858680386676"><ele>94.0</ele><time>2026-03-29T15:53:08.999Z</time></trkpt><trkpt lat="45.2211253344359" lon="8.891855163365754"><ele>94.0</ele><time>2026-03-29T15:53:09.999Z</time></trkpt><trkpt lat="45.22103116814996" lon="8.891851999885809"><ele>94.0</ele><time>2026-03-29T15:53:10.999Z</time></trkpt><trkpt lat="45.22093779927867" lon="8.891847062530879"><ele>94.0</ele><time>2026-03-29T15:53:11.999Z</time></trkpt><trkpt lat="45.220839481518986" lon="8.891846000590325"><ele>94.0</ele><time>2026-03-29T15:53:12.999Z</time></trkpt><trkpt lat="45.22073788817656" lon="8.891843138037006"><ele>94.0</ele><time>2026-03-29T15:53:13.999Z</time></trkpt><trkpt lat="45.22063983640498" lon="8.891839338682647"><ele>94.0</ele><time>2026-03-29T15:53:14.999Z</time></trkpt><trkpt lat="45.2205418875943" lon="8.891835825930144"><ele>94.0</ele><time>2026-03-29T15:53:15.999Z</time></trkpt><trkpt lat="45.22044378755367" lon="8.891833196574092"><ele>94.0</ele><time>2026-03-29T15:53:16.999Z</time></trkpt><trkpt lat="45.220348496167304" lon="8.89183148281292"><ele>94.2</ele><time>2026-03-29T15:53:17.999Z</time></trkpt><trkpt lat="45.22026421322257" lon="8.89182864134228"><ele>94.4</ele><time>2026-03-29T15:53:18.999Z</time></trkpt><trkpt lat="45.220161177493225" lon="8.891825159162359"><ele>94.6</ele><time>2026-03-29T15:53:19.999Z</time></trkpt><trkpt lat="45.220053469324945" lon="8.891821681625112"><ele>94.8</ele><time>2026-03-29T15:53:20.999Z</time></trkpt><trkpt lat="45.21995078700898" lon="8.891814599245603"><ele>95.0</ele><time>2026-03-29T15:53:21.999Z</time></trkpt><trkpt lat="45.2198399781386" lon="8.89181083546074"><ele>95.2</ele><time>2026-03-29T15:53:22.999Z</time></trkpt><trkpt lat="45.219742897181" lon="8.89180842555873"><ele>95.4</ele><time>2026-03-29T15:53:23.999Z</time></trkpt><trkpt lat="45.21965509443132" lon="8.891804459605165"><ele>95.6</ele><time>2026-03-29T15:53:24.999Z</time></trkpt><trkpt lat="45.219565913546596" lon="8.891800548451604"><ele>95.8</ele><time>2026-03-29T15:53:25.999Z</time></trkpt><trkpt lat="45.21946785285447" lon="8.89179878481235"><ele>96.0</ele><time>2026-03-29T15:53:26.999Z</time></trkpt><trkpt lat="45.21938787564281" lon="8.891795911069211"><ele>96.0</ele><time>2026-03-29T15:53:27.999Z</time></trkpt><trkpt lat="45.219292724391345" lon="8.891801419889928"><ele>96.0</ele><time>2026-03-29T15:53:28.999Z</time></trkpt><trkpt lat="45.219214671113214" lon="8.891808933494696"><ele>96.0</ele><time>2026-03-29T15:53:29.999Z</time></trkpt><trkpt lat="45.219136210791646" lon="8.891823189886422"><ele>96.0</ele><time>2026-03-29T15:53:30.999Z</time></trkpt><trkpt lat="45.219051601841485" lon="8.891838246558105"><ele>96.0</ele><time>2026-03-29T15:53:31.999Z</time></trkpt><trkpt lat="45.21898171554185" lon="8.891856728648628"><ele>96.0</ele><time>2026-03-29T15:53:32.999Z</time></trkpt><trkpt lat="45.21887380313867" lon="8.8918916601502"><ele>96.19999999999999</ele><time>2026-03-29T15:53:34.999Z</time></trkpt><trkpt lat="45.218750709005626" lon="8.891935580711802"><ele>96.39999999999999</ele><time>2026-03-29T15:53:36.999Z</time></trkpt><trkpt lat="45.21866555027464" lon="8.891966714905609"><ele>96.6</ele><time>2026-03-29T15:53:37.999Z</time></trkpt><trkpt lat="45.218594947364615" lon="8.891992234744485"><ele>96.8</ele><time>2026-03-29T15:53:38.999Z</time></trkpt><trkpt lat="45.2184630855164" lon="8.892039321369568"><ele>97.0</ele><time>2026-03-29T15:53:40.999Z</time></trkpt><trkpt lat="45.21838322904205" lon="8.89206791647764"><ele>97.00000000000001</ele><time>2026-03-29T15:53:41.999Z</time></trkpt><trkpt lat="45.218316057817354" lon="8.892092251443179"><ele>97.0</ele><time>2026-03-29T15:53:42.999Z</time></trkpt><trkpt lat="45.21819974784697" lon="8.892136391548142"><ele>97.0</ele><time>2026-03-29T15:53:44.999Z</time></trkpt><trkpt lat="45.21813547405056" lon="8.892159839550054"><ele>97.0</ele><time>2026-03-29T15:53:45.999Z</time></trkpt><trkpt lat="45.21802766499865" lon="8.892199322781842"><ele>97.00000000000001</ele><time>2026-03-29T15:53:47.999Z</time></trkpt><trkpt lat="45.21796581362027" lon="8.892223864230056"><ele>97.0</ele><time>2026-03-29T15:53:48.999Z</time></trkpt><trkpt lat="45.21786633952964" lon="8.892271072708885"><ele>97.0</ele><time>2026-03-29T15:53:50.999Z</time></trkpt><trkpt lat="45.21780678874843" lon="8.892208742830148"><ele>97.0</ele><time>2026-03-29T15:53:54.999Z</time></trkpt><trkpt lat="45.21781585365047" lon="8.89207085887328"><ele>97.0</ele><time>2026-03-29T15:53:57Z</time></trkpt><trkpt lat="45.217793269384664" lon="8.891959962528357"><ele>97.0</ele><time>2026-03-29T15:53:58Z</time></trkpt><trkpt lat="45.21776612330322" lon="8.891826666135154"><ele>97.0</ele><time>2026-03-29T15:53:59Z</time></trkpt><trkpt lat="45.217738081377604" lon="8.891689405769013"><ele>97.39999999999999</ele><time>2026-03-29T15:54:00Z</time></trkpt><trkpt lat="45.21770952493016" lon="8.891553474774954"><ele>97.8</ele><time>2026-03-29T15:54:01Z</time></trkpt><trkpt lat="45.217680428676154" lon="8.891414974260998"><ele>98.2</ele><time>2026-03-29T15:54:02Z</time></trkpt><trkpt lat="45.217653053713725" lon="8.891284667231348"><ele>98.6</ele><time>2026-03-29T15:54:03Z</time></trkpt><trkpt lat="45.21762186883906" lon="8.89113337807755"><ele>99.0</ele><time>2026-03-29T15:54:04Z</time></trkpt><trkpt lat="45.21759188590299" lon="8.890988216554659"><ele>99.4</ele><time>2026-03-29T15:54:05Z</time></trkpt><trkpt lat="45.21756121586777" lon="8.890854518202252"><ele>99.80000000000001</ele><time>2026-03-29T15:54:06Z</time></trkpt><trkpt lat="45.21753050452641" lon="8.89073823663"><ele>100.19999999999999</ele><time>2026-03-29T15:54:07Z</time></trkpt><trkpt lat="45.21749534798432" lon="8.890614325841149"><ele>100.6</ele><time>2026-03-29T15:54:08Z</time></trkpt><trkpt lat="45.21744957930669" lon="8.89048136661249"><ele>101.0</ele><time>2026-03-29T15:54:09Z</time></trkpt><trkpt lat="45.217380111672554" lon="8.89035004822535"><ele>101.25</ele><time>2026-03-29T15:54:10Z</time></trkpt><trkpt lat="45.217293529878305" lon="8.890219470254477"><ele>101.5</ele><time>2026-03-29T15:54:11Z</time></trkpt><trkpt lat="45.2171992918855" lon="8.890090756579397"><ele>101.75</ele><time>2026-03-29T15:54:12Z</time></trkpt><trkpt lat="45.217104144029015" lon="8.889964407802038"><ele>102.0</ele><time>2026-03-29T15:54:13Z</time></trkpt><trkpt lat="45.217010545334595" lon="8.889843226009264"><ele>102.0</ele><time>2026-03-29T15:54:14Z</time></trkpt><trkpt lat="45.216927656205314" lon="8.889737552941359"><ele>102.0</ele><time>2026-03-29T15:54:15Z</time></trkpt><trkpt lat="45.21684591862401" lon="8.889636320304813"><ele>102.0</ele><time>2026-03-29T15:54:16Z</time></trkpt><trkpt lat="45.2167568518795" lon="8.88952676978082"><ele>102.0</ele><time>2026-03-29T15:54:17Z</time></trkpt><trkpt lat="45.216653577273185" lon="8.889410314703229"><ele>102.0</ele><time>2026-03-29T15:54:18Z</time></trkpt><trkpt lat="45.21653972695012" lon="8.889279870696289"><ele>102.0</ele><time>2026-03-29T15:54:19Z</time></trkpt><trkpt lat="45.216421940176446" lon="8.889149652568303"><ele>102.0</ele><time>2026-03-29T15:54:20Z</time></trkpt><trkpt lat="45.21633349914792" lon="8.889017835872673"><ele>102.0</ele><time>2026-03-29T15:54:21Z</time></trkpt><trkpt lat="45.21623159655261" lon="8.888903330785741"><ele>102.5</ele><time>2026-03-29T15:54:22Z</time></trkpt><trkpt lat="45.2161131178556" lon="8.8887838769846"><ele>103.0</ele><time>2026-03-29T15:54:23Z</time></trkpt><trkpt lat="45.21600730115228" lon="8.888680132878122"><ele>103.5</ele><time>2026-03-29T15:54:24Z</time></trkpt><trkpt lat="45.21591568199382" lon="8.888589372334069"><ele>104.0</ele><time>2026-03-29T15:54:25Z</time></trkpt><trkpt lat="45.215825252120894" lon="8.88849551879801"><ele>103.2</ele><time>2026-03-29T15:54:26Z</time></trkpt><trkpt lat="45.215732197091896" lon="8.888389998527643"><ele>102.4</ele><time>2026-03-29T15:54:27Z</time></trkpt><trkpt lat="45.21564707848101" lon="8.888282864209351"><ele>101.6</ele><time>2026-03-29T15:54:28Z</time></trkpt><trkpt lat="45.21557575550587" lon="8.888182359520147"><ele>100.8</ele><time>2026-03-29T15:54:29Z</time></trkpt><trkpt lat="45.21551105267051" lon="8.888081881027631"><ele>100.0</ele><time>2026-03-29T15:54:30Z</time></trkpt><trkpt lat="45.21544277894894" lon="8.887963524008116"><ele>99.5</ele><time>2026-03-29T15:54:31Z</time></trkpt><trkpt lat="45.21537797224311" lon="8.887841594135738"><ele>99.0</ele><time>2026-03-29T15:54:32Z</time></trkpt><trkpt lat="45.21531229923039" lon="8.887715688173255"><ele>98.5</ele><time>2026-03-29T15:54:33Z</time></trkpt><trkpt lat="45.21524095091018" lon="8.887582265317453"><ele>98.0</ele><time>2026-03-29T15:54:34Z</time></trkpt><trkpt lat="45.21516799347071" lon="8.887451408949042"><ele>98.0</ele><time>2026-03-29T15:54:35Z</time></trkpt><trkpt lat="45.21510409326269" lon="8.887338181247337"><ele>98.0</ele><time>2026-03-29T15:54:36Z</time></trkpt><trkpt lat="45.21503047939029" lon="8.887229476325219"><ele>98.0</ele><time>2026-03-29T15:54:37Z</time></trkpt><trkpt lat="45.21495754314605" lon="8.887139990473559"><ele>98.0</ele><time>2026-03-29T15:54:38Z</time></trkpt><trkpt lat="45.21488264839344" lon="8.887065142807122"><ele>98.0</ele><time>2026-03-29T15:54:39Z</time></trkpt><trkpt lat="45.21482065279978" lon="8.887005782152974"><ele>97.66666666666666</ele><time>2026-03-29T15:54:40Z</time></trkpt><trkpt lat="45.21476040250888" lon="8.886968669368388"><ele>97.33333333333333</ele><time>2026-03-29T15:54:41Z</time></trkpt><trkpt lat="45.21470294758986" lon="8.886886645299505"><ele>97.0</ele><time>2026-03-29T15:54:42Z</time></trkpt><trkpt lat="45.2146788944789" lon="8.886773346474483"><ele>96.66666666666666</ele><time>2026-03-29T15:54:43Z</time></trkpt><trkpt lat="45.21464536531061" lon="8.886653002298054"><ele>96.33333333333333</ele><time>2026-03-29T15:54:44Z</time></trkpt><trkpt lat="45.21460563496507" lon="8.886520671044062"><ele>96.0</ele><time>2026-03-29T15:54:45Z</time></trkpt><trkpt lat="45.214565464104425" lon="8.886388874782403"><ele>96.0</ele><time>2026-03-29T15:54:46Z</time></trkpt><trkpt lat="45.21452904021261" lon="8.886272654312572"><ele>96.0</ele><time>2026-03-29T15:54:47Z</time></trkpt><trkpt lat="45.214491045533265" lon="8.886151421811766"><ele>96.0</ele><time>2026-03-29T15:54:48Z</time></trkpt><trkpt lat="45.21444068698664" lon="8.885992072218897"><ele>96.0</ele><time>2026-03-29T15:54:49Z</time></trkpt><trkpt lat="45.214391225511875" lon="8.885835763603236"><ele>96.0</ele><time>2026-03-29T15:54:50Z</time></trkpt><trkpt lat="45.21434141228661" lon="8.885683085145583"><ele>96.0</ele><time>2026-03-29T15:54:51Z</time></trkpt><trkpt lat="45.21428860398164" lon="8.88552148941623"><ele>96.0</ele><time>2026-03-29T15:54:52Z</time></trkpt><trkpt lat="45.2142296169517" lon="8.885345487258089"><ele>96.0</ele><time>2026-03-29T15:54:53Z</time></trkpt><trkpt lat="45.214169199331046" lon="8.885164637423982"><ele>96.0</ele><time>2026-03-29T15:54:54Z</time></trkpt><trkpt lat="45.21409999586246" lon="8.884957488652816"><ele>95.75</ele><time>2026-03-29T15:54:55Z</time></trkpt><trkpt lat="45.214037502585995" lon="8.884770425697074"><ele>95.5</ele><time>2026-03-29T15:54:56Z</time></trkpt><trkpt lat="45.21397621848438" lon="8.884586982200949"><ele>95.25</ele><time>2026-03-29T15:54:57Z</time></trkpt><trkpt lat="45.21391283540214" lon="8.88439210735054"><ele>95.0</ele><time>2026-03-29T15:54:58Z</time></trkpt><trkpt lat="45.21384728119147" lon="8.884189684385218"><ele>94.66666666666667</ele><time>2026-03-29T15:54:59Z</time></trkpt><trkpt lat="45.2137733925502" lon="8.883963897246694"><ele>94.33333333333333</ele><time>2026-03-29T15:55:00Z</time></trkpt><trkpt lat="45.21370265038876" lon="8.883750644883914"><ele>94.0</ele><time>2026-03-29T15:55:01Z</time></trkpt><trkpt lat="45.21363483534323" lon="8.883546216208368"><ele>94.0</ele><time>2026-03-29T15:55:02Z</time></trkpt><trkpt lat="45.213577055752154" lon="8.88337339113468"><ele>94.0</ele><time>2026-03-29T15:55:03Z</time></trkpt><trkpt lat="45.21352299550918" lon="8.883215284354954"><ele>94.0</ele><time>2026-03-29T15:55:04Z</time></trkpt><trkpt lat="45.2134713135373" lon="8.883067223848798"><ele>94.0</ele><time>2026-03-29T15:55:05Z</time></trkpt><trkpt lat="45.21342245720111" lon="8.882926132059794"><ele>94.0</ele><time>2026-03-29T15:55:06Z</time></trkpt><trkpt lat="45.21337140052106" lon="8.882774994934497"><ele>94.0</ele><time>2026-03-29T15:55:07.001Z</time></trkpt><trkpt lat="45.213311049878726" lon="8.882607883656206"><ele>94.0</ele><time>2026-03-29T15:55:08.001Z</time></trkpt><trkpt lat="45.2132440019996" lon="8.882440985230115"><ele>94.0</ele><time>2026-03-29T15:55:09Z</time></trkpt><trkpt lat="45.213175109999824" lon="8.882289939619799"><ele>94.25</ele><time>2026-03-29T15:55:10Z</time></trkpt><trkpt lat="45.21309885082431" lon="8.882142870081246"><ele>94.5</ele><time>2026-03-29T15:55:11Z</time></trkpt><trkpt lat="45.213021049211385" lon="8.882002933283436"><ele>94.75</ele><time>2026-03-29T15:55:12Z</time></trkpt><trkpt lat="45.21292789500732" lon="8.881831644385542"><ele>95.0</ele><time>2026-03-29T15:55:13Z</time></trkpt><trkpt lat="45.21284611081385" lon="8.88166297780798"><ele>94.5</ele><time>2026-03-29T15:55:14Z</time></trkpt><trkpt lat="45.212752116090876" lon="8.881523496591846"><ele>94.0</ele><time>2026-03-29T15:55:15Z</time></trkpt><trkpt lat="45.21268756514317" lon="8.881383225755712"><ele>93.5</ele><time>2026-03-29T15:55:16Z</time></trkpt><trkpt lat="45.21260548383397" lon="8.881280409196275"><ele>93.0</ele><time>2026-03-29T15:55:17Z</time></trkpt><trkpt lat="45.212547825731136" lon="8.881145503575397"><ele>93.0</ele><time>2026-03-29T15:55:18Z</time></trkpt><trkpt lat="45.21247539676536" lon="8.881018207225784"><ele>93.0</ele><time>2026-03-29T15:55:19Z</time></trkpt><trkpt lat="45.212402005068974" lon="8.880913520239632"><ele>93.0</ele><time>2026-03-29T15:55:20Z</time></trkpt><trkpt lat="45.21234391769586" lon="8.880808923376746"><ele>93.0</ele><time>2026-03-29T15:55:21Z</time></trkpt><trkpt lat="45.212315349869314" lon="8.880683333265022"><ele>93.0</ele><time>2026-03-29T15:55:22Z</time></trkpt><trkpt lat="45.21227714942892" lon="8.880566227386405"><ele>93.2</ele><time>2026-03-29T15:55:23Z</time></trkpt><trkpt lat="45.21224162605433" lon="8.880445280926308"><ele>93.4</ele><time>2026-03-29T15:55:24Z</time></trkpt><trkpt lat="45.212204679348396" lon="8.880303477138419"><ele>93.60000000000001</ele><time>2026-03-29T15:55:25Z</time></trkpt><trkpt lat="45.212174544978055" lon="8.880181023027006"><ele>93.80000000000001</ele><time>2026-03-29T15:55:26Z</time></trkpt><trkpt lat="45.21214621557876" lon="8.880062893030855"><ele>94.0</ele><time>2026-03-29T15:55:27Z</time></trkpt><trkpt lat="45.21211346730455" lon="8.87992047497759"><ele>94.0</ele><time>2026-03-29T15:55:28Z</time></trkpt><trkpt lat="45.21208127070335" lon="8.879773826495677"><ele>94.0</ele><time>2026-03-29T15:55:29Z</time></trkpt><trkpt lat="45.21205740654932" lon="8.87966181714886"><ele>94.0</ele><time>2026-03-29T15:55:30Z</time></trkpt><trkpt lat="45.21203311612455" lon="8.879547807022975"><ele>94.0</ele><time>2026-03-29T15:55:31Z</time></trkpt><trkpt lat="45.212013045083665" lon="8.879458875123206"><ele>94.0</ele><time>2026-03-29T15:55:32Z</time></trkpt><trkpt lat="45.211974416258386" lon="8.87928519291909"><ele>93.6</ele><time>2026-03-29T15:55:34Z</time></trkpt><trkpt lat="45.21195754310006" lon="8.879139442518513"><ele>93.2</ele><time>2026-03-29T15:55:36Z</time></trkpt><trkpt lat="45.21187884940376" lon="8.878980488724057"><ele>92.8</ele><time>2026-03-29T15:55:38Z</time></trkpt><trkpt lat="45.21182853521655" lon="8.878853704969323"><ele>92.39999999999999</ele><time>2026-03-29T15:55:39Z</time></trkpt><trkpt lat="45.21178978335019" lon="8.87874985955663"><ele>92.0</ele><time>2026-03-29T15:55:40Z</time></trkpt><trkpt lat="45.211748071950765" lon="8.878636715416397"><ele>92.0</ele><time>2026-03-29T15:55:41Z</time></trkpt><trkpt lat="45.21168852046132" lon="8.878517821985167"><ele>92.0</ele><time>2026-03-29T15:55:42Z</time></trkpt><trkpt lat="45.21164164079996" lon="8.878398716102431"><ele>92.0</ele><time>2026-03-29T15:55:43Z</time></trkpt><trkpt lat="45.21158777714266" lon="8.878281537777214"><ele>92.0</ele><time>2026-03-29T15:55:44Z</time></trkpt><trkpt lat="45.21152542403912" lon="8.878168009741472"><ele>92.0</ele><time>2026-03-29T15:55:45Z</time></trkpt><trkpt lat="45.21146444112894" lon="8.878029616752805"><ele>92.25</ele><time>2026-03-29T15:55:46Z</time></trkpt><trkpt lat="45.21137116320016" lon="8.877926934674443"><ele>92.5</ele><time>2026-03-29T15:55:47Z</time></trkpt><trkpt lat="45.211290418475535" lon="8.87783026436137"><ele>92.75</ele><time>2026-03-29T15:55:48Z</time></trkpt><trkpt lat="45.211205184964186" lon="8.87772280801851"><ele>93.0</ele><time>2026-03-29T15:55:49Z</time></trkpt><trkpt lat="45.211109011433386" lon="8.877610959217632"><ele>93.0</ele><time>2026-03-29T15:55:50Z</time></trkpt><trkpt lat="45.21099634121627" lon="8.877489570085078"><ele>93.0</ele><time>2026-03-29T15:55:51Z</time></trkpt><trkpt lat="45.21088999242123" lon="8.877377004418719"><ele>93.0</ele><time>2026-03-29T15:55:52Z</time></trkpt><trkpt lat="45.21078417819442" lon="8.87726687732613"><ele>93.0</ele><time>2026-03-29T15:55:53Z</time></trkpt><trkpt lat="45.21068199567304" lon="8.877153115287294"><ele>93.0</ele><time>2026-03-29T15:55:54Z</time></trkpt><trkpt lat="45.210584993833834" lon="8.87704696908128"><ele>93.0</ele><time>2026-03-29T15:55:55Z</time></trkpt><trkpt lat="45.21049753458873" lon="8.876953483237351"><ele>93.0</ele><time>2026-03-29T15:55:56Z</time></trkpt><trkpt lat="45.21041779989948" lon="8.87687217057859"><ele>93.0</ele><time>2026-03-29T15:55:57Z</time></trkpt><trkpt lat="45.210350985764684" lon="8.876801678301424"><ele>93.0</ele><time>2026-03-29T15:55:58Z</time></trkpt><trkpt lat="45.21028469262418" lon="8.87672799587152"><ele>93.2</ele><time>2026-03-29T15:55:59Z</time></trkpt><trkpt lat="45.210208406376026" lon="8.876638917306568"><ele>93.4</ele><time>2026-03-29T15:56:00Z</time></trkpt><trkpt lat="45.210113474771354" lon="8.876530565860605"><ele>93.60000000000001</ele><time>2026-03-29T15:56:01Z</time></trkpt><trkpt lat="45.21001969883249" lon="8.876428666541498"><ele>93.80000000000001</ele><time>2026-03-29T15:56:02Z</time></trkpt><trkpt lat="45.20993549564091" lon="8.876340441583958"><ele>94.0</ele><time>2026-03-29T15:56:03Z</time></trkpt><trkpt lat="45.20983756309303" lon="8.87623661472112"><ele>94.2</ele><time>2026-03-29T15:56:04Z</time></trkpt><trkpt lat="45.20974635996987" lon="8.876141815025791"><ele>94.4</ele><time>2026-03-29T15:56:05Z</time></trkpt><trkpt lat="45.209665698497695" lon="8.876053969195665"><ele>94.6</ele><time>2026-03-29T15:56:06Z</time></trkpt><trkpt lat="45.20959310243633" lon="8.875974517136868"><ele>94.8</ele><time>2026-03-29T15:56:07Z</time></trkpt><trkpt lat="45.20952849070144" lon="8.875901051381012"><ele>95.0</ele><time>2026-03-29T15:56:08Z</time></trkpt><trkpt lat="45.209470894200585" lon="8.87583909073404"><ele>95.0</ele><time>2026-03-29T15:56:09Z</time></trkpt><trkpt lat="45.209419361701265" lon="8.875780844299552"><ele>95.0</ele><time>2026-03-29T15:56:10Z</time></trkpt><trkpt lat="45.2093691724491" lon="8.875711441298057"><ele>95.0</ele><time>2026-03-29T15:56:12Z</time></trkpt><trkpt lat="45.20939875205079" lon="8.875534420345257"><ele>95.0</ele><time>2026-03-29T15:56:15Z</time></trkpt><trkpt lat="45.20943131073364" lon="8.875367078050001"><ele>95.0</ele><time>2026-03-29T15:56:16Z</time></trkpt><trkpt lat="45.20948325142603" lon="8.875207660106044"><ele>95.0</ele><time>2026-03-29T15:56:17Z</time></trkpt><trkpt lat="45.20952624306864" lon="8.875052093469428"><ele>95.0</ele><time>2026-03-29T15:56:18Z</time></trkpt><trkpt lat="45.20959274779156" lon="8.874887807659922"><ele>95.0</ele><time>2026-03-29T15:56:19Z</time></trkpt><trkpt lat="45.20964064355529" lon="8.874729788393047"><ele>95.0</ele><time>2026-03-29T15:56:20Z</time></trkpt><trkpt lat="45.20968607561828" lon="8.874580580287288"><ele>95.0</ele><time>2026-03-29T15:56:21Z</time></trkpt><trkpt lat="45.20971423085375" lon="8.874422685644928"><ele>95.0</ele><time>2026-03-29T15:56:22Z</time></trkpt><trkpt lat="45.20976118632007" lon="8.874262812762863"><ele>95.0</ele><time>2026-03-29T15:56:23Z</time></trkpt><trkpt lat="45.20980796186206" lon="8.874117950826191"><ele>95.0</ele><time>2026-03-29T15:56:24Z</time></trkpt><trkpt lat="45.2098518757808" lon="8.873978061462653"><ele>95.16666666666667</ele><time>2026-03-29T15:56:25Z</time></trkpt><trkpt lat="45.20989231873622" lon="8.873839258490896"><ele>95.33333333333334</ele><time>2026-03-29T15:56:26Z</time></trkpt><trkpt lat="45.209929447631936" lon="8.873711370198322"><ele>95.5</ele><time>2026-03-29T15:56:27Z</time></trkpt><trkpt lat="45.20995988917682" lon="8.873600254897736"><ele>95.66666666666667</ele><time>2026-03-29T15:56:28Z</time></trkpt><trkpt lat="45.209987503117794" lon="8.873491090510951"><ele>95.83333333333333</ele><time>2026-03-29T15:56:29Z</time></trkpt><trkpt lat="45.21003570443816" lon="8.873424484773198"><ele>96.0</ele><time>2026-03-29T15:56:30Z</time></trkpt><trkpt lat="45.210083256077105" lon="8.873266135866086"><ele>96.0</ele><time>2026-03-29T15:56:32Z</time></trkpt><trkpt lat="45.21012134517032" lon="8.87313935296757"><ele>96.0</ele><time>2026-03-29T15:56:34Z</time></trkpt><trkpt lat="45.21015610493436" lon="8.873023651988612"><ele>96.0</ele><time>2026-03-29T15:56:36Z</time></trkpt><trkpt lat="45.21019957935464" lon="8.872878943504933"><ele>96.0</ele><time>2026-03-29T15:56:38Z</time></trkpt><trkpt lat="45.21022678992007" lon="8.872790681540021"><ele>96.0</ele><time>2026-03-29T15:56:39Z</time></trkpt><trkpt lat="45.21025829804703" lon="8.872690281362958"><ele>96.0</ele><time>2026-03-29T15:56:40Z</time></trkpt><trkpt lat="45.21029277179852" lon="8.872596476872399"><ele>96.0</ele><time>2026-03-29T15:56:41Z</time></trkpt><trkpt lat="45.21035158120275" lon="8.872504661551131"><ele>96.0</ele><time>2026-03-29T15:56:42Z</time></trkpt><trkpt lat="45.21042527468075" lon="8.872380679376276"><ele>96.0</ele><time>2026-03-29T15:56:43Z</time></trkpt><trkpt lat="45.210497706423986" lon="8.872266462811373"><ele>96.0</ele><time>2026-03-29T15:56:44Z</time></trkpt><trkpt lat="45.21056605620234" lon="8.872158435305336"><ele>96.0</ele><time>2026-03-29T15:56:45Z</time></trkpt><trkpt lat="45.21060891497939" lon="8.872037446578087"><ele>95.83333333333333</ele><time>2026-03-29T15:56:46Z</time></trkpt><trkpt lat="45.21067585657689" lon="8.871935746795037"><ele>95.66666666666667</ele><time>2026-03-29T15:56:47Z</time></trkpt><trkpt lat="45.210739742384916" lon="8.871840416073669"><ele>95.5</ele><time>2026-03-29T15:56:48Z</time></trkpt><trkpt lat="45.210795009914285" lon="8.871753620908045"><ele>95.33333333333334</ele><time>2026-03-29T15:56:49Z</time></trkpt><trkpt lat="45.2108616096771" lon="8.871705716036066"><ele>95.16666666666667</ele><time>2026-03-29T15:56:50Z</time></trkpt><trkpt lat="45.21091271183475" lon="8.871629067406845"><ele>95.0</ele><time>2026-03-29T15:56:51Z</time></trkpt><trkpt lat="45.2109632280453" lon="8.871551024157856"><ele>95.0</ele><time>2026-03-29T15:56:52Z</time></trkpt><trkpt lat="45.21102400636055" lon="8.871454354829888"><ele>95.0</ele><time>2026-03-29T15:56:53Z</time></trkpt><trkpt lat="45.211085953636655" lon="8.871344192164614"><ele>95.0</ele><time>2026-03-29T15:56:54Z</time></trkpt><trkpt lat="45.21114198670408" lon="8.871234230769385"><ele>95.0</ele><time>2026-03-29T15:56:55Z</time></trkpt><trkpt lat="45.211191923256045" lon="8.87111675220569"><ele>95.0</ele><time>2026-03-29T15:56:56Z</time></trkpt><trkpt lat="45.211238485265184" lon="8.870991203675736"><ele>95.0</ele><time>2026-03-29T15:56:57Z</time></trkpt><trkpt lat="45.21127752197197" lon="8.870860344213023"><ele>95.0</ele><time>2026-03-29T15:56:58Z</time></trkpt><trkpt lat="45.211319623459744" lon="8.870713138824671"><ele>95.0</ele><time>2026-03-29T15:56:59Z</time></trkpt><trkpt lat="45.2113602816968" lon="8.870570979683784"><ele>95.0</ele><time>2026-03-29T15:57:00Z</time></trkpt><trkpt lat="45.21140257352838" lon="8.87042310805078"><ele>95.0</ele><time>2026-03-29T15:57:01Z</time></trkpt><trkpt lat="45.21143493259123" lon="8.87026161598031"><ele>95.25</ele><time>2026-03-29T15:57:02Z</time></trkpt><trkpt lat="45.21149448442387" lon="8.870118036723168"><ele>95.5</ele><time>2026-03-29T15:57:03Z</time></trkpt><trkpt lat="45.2115449077906" lon="8.869965095343428"><ele>95.75</ele><time>2026-03-29T15:57:04Z</time></trkpt><trkpt lat="45.211597769222664" lon="8.869805393935014"><ele>96.0</ele><time>2026-03-29T15:57:05Z</time></trkpt><trkpt lat="45.211652039817274" lon="8.869642434274603"><ele>96.0</ele><time>2026-03-29T15:57:06Z</time></trkpt><trkpt lat="45.21170836398408" lon="8.869477558222892"><ele>96.0</ele><time>2026-03-29T15:57:07Z</time></trkpt><trkpt lat="45.21176468862427" lon="8.869310663987408"><ele>96.0</ele><time>2026-03-29T15:57:08Z</time></trkpt><trkpt lat="45.21182083767533" lon="8.869144290012501"><ele>96.0</ele><time>2026-03-29T15:57:09Z</time></trkpt><trkpt lat="45.21187119248953" lon="8.868994803735673"><ele>96.0</ele><time>2026-03-29T15:57:10Z</time></trkpt><trkpt lat="45.211921039212456" lon="8.868846720780828"><ele>96.0</ele><time>2026-03-29T15:57:11Z</time></trkpt><trkpt lat="45.211969799764056" lon="8.868701864579496"><ele>96.0</ele><time>2026-03-29T15:57:12Z</time></trkpt><trkpt lat="45.212016587130044" lon="8.86856287023797"><ele>96.0</ele><time>2026-03-29T15:57:13Z</time></trkpt><trkpt lat="45.21206115222516" lon="8.868430477799004"><ele>96.0</ele><time>2026-03-29T15:57:14Z</time></trkpt><trkpt lat="45.21210083230284" lon="8.868312597625977"><ele>96.0</ele><time>2026-03-29T15:57:15Z</time></trkpt><trkpt lat="45.21213936096797" lon="8.868198137920139"><ele>96.0</ele><time>2026-03-29T15:57:16Z</time></trkpt><trkpt lat="45.2121818049068" lon="8.868071733627977"><ele>96.0</ele><time>2026-03-29T15:57:17Z</time></trkpt><trkpt lat="45.21222534012658" lon="8.867941980641808"><ele>96.0</ele><time>2026-03-29T15:57:18Z</time></trkpt><trkpt lat="45.21226528172822" lon="8.867822938146315"><ele>96.0</ele><time>2026-03-29T15:57:19Z</time></trkpt><trkpt lat="45.21229858964852" lon="8.867723666710745"><ele>95.83333333333333</ele><time>2026-03-29T15:57:20Z</time></trkpt><trkpt lat="45.21232653271875" lon="8.867640384806359"><ele>95.66666666666667</ele><time>2026-03-29T15:57:21Z</time></trkpt><trkpt lat="45.212380425347824" lon="8.867479762416504"><ele>95.5</ele><time>2026-03-29T15:57:23Z</time></trkpt><trkpt lat="45.21241221222461" lon="8.867385024367728"><ele>95.33333333333334</ele><time>2026-03-29T15:57:24Z</time></trkpt><trkpt lat="45.21244242703208" lon="8.867242048104625"><ele>95.16666666666667</ele><time>2026-03-29T15:57:26Z</time></trkpt><trkpt lat="45.21249513937735" lon="8.86719299153404"><ele>95.0</ele><time>2026-03-29T15:57:28Z</time></trkpt><trkpt lat="45.21259374376445" lon="8.867244037569943"><ele>95.0</ele><time>2026-03-29T15:57:30Z</time></trkpt><trkpt lat="45.212672026143316" lon="8.8672335253325"><ele>95.0</ele><time>2026-03-29T15:57:31Z</time></trkpt><trkpt lat="45.21276155548032" lon="8.867217102528715"><ele>95.0</ele><time>2026-03-29T15:57:32Z</time></trkpt><trkpt lat="45.212850976153334" lon="8.867202204074774"><ele>95.0</ele><time>2026-03-29T15:57:33Z</time></trkpt><trkpt lat="45.21293976275806" lon="8.867188806094841"><ele>95.0</ele><time>2026-03-29T15:57:34Z</time></trkpt><trkpt lat="45.21303941692444" lon="8.867176779556996"><ele>95.0</ele><time>2026-03-29T15:57:35Z</time></trkpt><trkpt lat="45.213131193537755" lon="8.867168268785745"><ele>95.0</ele><time>2026-03-29T15:57:36Z</time></trkpt><trkpt lat="45.21320216246621" lon="8.867164818856827"><ele>95.0</ele><time>2026-03-29T15:57:37Z</time></trkpt><trkpt lat="45.21329542223586" lon="8.867161647555175"><ele>95.0</ele><time>2026-03-29T15:57:38Z</time></trkpt><trkpt lat="45.213385706853856" lon="8.86716185135555"><ele>95.0</ele><time>2026-03-29T15:57:39Z</time></trkpt><trkpt lat="45.213470301016095" lon="8.867162496018283"><ele>95.0</ele><time>2026-03-29T15:57:40Z</time></trkpt><trkpt lat="45.213556949342745" lon="8.867163156334907"><ele>95.0</ele><time>2026-03-29T15:57:41Z</time></trkpt><trkpt lat="45.21365846796378" lon="8.867163847084695"><ele>95.0</ele><time>2026-03-29T15:57:43Z</time></trkpt><trkpt lat="45.213761893609295" lon="8.867165301738384"><ele>95.0</ele><time>2026-03-29T15:57:45Z</time></trkpt><trkpt lat="45.2138336282891" lon="8.867166310667283"><ele>95.0</ele><time>2026-03-29T15:57:46Z</time></trkpt><trkpt lat="45.21393907144044" lon="8.867168485443266"><ele>95.0</ele><time>2026-03-29T15:57:47Z</time></trkpt><trkpt lat="45.214042948883545" lon="8.867163514634056"><ele>95.0</ele><time>2026-03-29T15:57:48Z</time></trkpt><trkpt lat="45.214136510018996" lon="8.867156978038214"><ele>94.8</ele><time>2026-03-29T15:57:49Z</time></trkpt><trkpt lat="45.21421831926338" lon="8.867134251997282"><ele>94.6</ele><time>2026-03-29T15:57:50Z</time></trkpt><trkpt lat="45.21431022523397" lon="8.867140203658925"><ele>94.4</ele><time>2026-03-29T15:57:51Z</time></trkpt><trkpt lat="45.21440374041181" lon="8.867128191970995"><ele>94.2</ele><time>2026-03-29T15:57:52Z</time></trkpt><trkpt lat="45.21450826029004" lon="8.867112307760094"><ele>94.0</ele><time>2026-03-29T15:57:53Z</time></trkpt><trkpt lat="45.21461811443055" lon="8.867095612881949"><ele>94.0</ele><time>2026-03-29T15:57:54Z</time></trkpt><trkpt lat="45.21472666618778" lon="8.867053333970365"><ele>94.0</ele><time>2026-03-29T15:57:55Z</time></trkpt><trkpt lat="45.21484338316177" lon="8.867037219569857"><ele>94.0</ele><time>2026-03-29T15:57:56Z</time></trkpt><trkpt lat="45.21493894057149" lon="8.867036331564623"><ele>94.0</ele><time>2026-03-29T15:57:57Z</time></trkpt><trkpt lat="45.215027359942255" lon="8.86701889086909"><ele>94.0</ele><time>2026-03-29T15:57:58Z</time></trkpt><trkpt lat="45.21510891004181" lon="8.867005608577792"><ele>93.80000000000001</ele><time>2026-03-29T15:57:59Z</time></trkpt><trkpt lat="45.21520084255626" lon="8.866994702846476"><ele>93.60000000000001</ele><time>2026-03-29T15:58:00Z</time></trkpt><trkpt lat="45.215297471206334" lon="8.866990950460556"><ele>93.4</ele><time>2026-03-29T15:58:01Z</time></trkpt><trkpt lat="45.21539906832723" lon="8.866997796723444"><ele>93.2</ele><time>2026-03-29T15:58:02Z</time></trkpt><trkpt lat="45.21551052706543" lon="8.867018590747342"><ele>93.0</ele><time>2026-03-29T15:58:03Z</time></trkpt><trkpt lat="45.21563354727793" lon="8.867046980567297"><ele>93.4</ele><time>2026-03-29T15:58:04Z</time></trkpt><trkpt lat="45.21573465361139" lon="8.867073482140288"><ele>93.80000000000001</ele><time>2026-03-29T15:58:05Z</time></trkpt><trkpt lat="45.21582252591603" lon="8.867096742457932"><ele>94.2</ele><time>2026-03-29T15:58:06Z</time></trkpt><trkpt lat="45.21590761797515" lon="8.867119266823977"><ele>94.6</ele><time>2026-03-29T15:58:07Z</time></trkpt><trkpt lat="45.21599776889666" lon="8.867123291859988"><ele>95.0</ele><time>2026-03-29T15:58:08Z</time></trkpt><trkpt lat="45.21608936679529" lon="8.86716737679836"><ele>95.0</ele><time>2026-03-29T15:58:09Z</time></trkpt><trkpt lat="45.21620141051302" lon="8.867197323480069"><ele>95.0</ele><time>2026-03-29T15:58:10Z</time></trkpt><trkpt lat="45.216303161657066" lon="8.867224982838373"><ele>95.0</ele><time>2026-03-29T15:58:11Z</time></trkpt><trkpt lat="45.216388191890154" lon="8.867250007801804"><ele>95.0</ele><time>2026-03-29T15:58:12Z</time></trkpt><trkpt lat="45.21647695187241" lon="8.867275758055227"><ele>95.0</ele><time>2026-03-29T15:58:13Z</time></trkpt><trkpt lat="45.21656380476828" lon="8.867292846959813"><ele>96.0</ele><time>2026-03-29T15:58:14Z</time></trkpt><trkpt lat="45.21666174906068" lon="8.867305944609566"><ele>97.0</ele><time>2026-03-29T15:58:15Z</time></trkpt><trkpt lat="45.216732708164145" lon="8.867311286247492"><ele>98.0</ele><time>2026-03-29T15:58:16Z</time></trkpt><trkpt lat="45.2168197857636" lon="8.867310892006433"><ele>99.0</ele><time>2026-03-29T15:58:17Z</time></trkpt><trkpt lat="45.21690053692523" lon="8.867285623062891"><ele>99.99999999999999</ele><time>2026-03-29T15:58:18Z</time></trkpt><trkpt lat="45.2169952897041" lon="8.867270591958766"><ele>101.0</ele><time>2026-03-29T15:58:19Z</time></trkpt><trkpt lat="45.217092396677494" lon="8.86726227885727"><ele>101.0</ele><time>2026-03-29T15:58:20Z</time></trkpt><trkpt lat="45.21718756339651" lon="8.867228862291322"><ele>101.0</ele><time>2026-03-29T15:58:21Z</time></trkpt><trkpt lat="45.21727257055913" lon="8.86722029432688"><ele>101.0</ele><time>2026-03-29T15:58:22Z</time></trkpt><trkpt lat="45.21735713998054" lon="8.867167004448175"><ele>101.0</ele><time>2026-03-29T15:58:23Z</time></trkpt><trkpt lat="45.217455198671935" lon="8.867118303746738"><ele>101.0</ele><time>2026-03-29T15:58:24Z</time></trkpt><trkpt lat="45.21754144241979" lon="8.867101319550116"><ele>100.0</ele><time>2026-03-29T15:58:25Z</time></trkpt><trkpt lat="45.21764810192824" lon="8.867051084666743"><ele>99.0</ele><time>2026-03-29T15:58:26Z</time></trkpt><trkpt lat="45.21775081412346" lon="8.86700270878153"><ele>98.0</ele><time>2026-03-29T15:58:27Z</time></trkpt><trkpt lat="45.217862931358354" lon="8.866952425100063"><ele>97.0</ele><time>2026-03-29T15:58:28Z</time></trkpt><trkpt lat="45.21798297030371" lon="8.866910867672788"><ele>97.0</ele><time>2026-03-29T15:58:29Z</time></trkpt><trkpt lat="45.218107958453494" lon="8.86687200943029"><ele>97.0</ele><time>2026-03-29T15:58:30Z</time></trkpt><trkpt lat="45.218232839692675" lon="8.866838560498577"><ele>97.0</ele><time>2026-03-29T15:58:31Z</time></trkpt><trkpt lat="45.21835722253376" lon="8.86680570434298"><ele>97.0</ele><time>2026-03-29T15:58:32Z</time></trkpt><trkpt lat="45.21846989089648" lon="8.866776056964518"><ele>96.6</ele><time>2026-03-29T15:58:33Z</time></trkpt><trkpt lat="45.21858643613903" lon="8.866725644001622"><ele>96.19999999999999</ele><time>2026-03-29T15:58:34Z</time></trkpt><trkpt lat="45.218690636102245" lon="8.866713722929507"><ele>95.8</ele><time>2026-03-29T15:58:35Z</time></trkpt><trkpt lat="45.21879138475447" lon="8.866657910888316"><ele>95.4</ele><time>2026-03-29T15:58:36Z</time></trkpt><trkpt lat="45.21889880504529" lon="8.866609378258266"><ele>95.0</ele><time>2026-03-29T15:58:37Z</time></trkpt><trkpt lat="45.218990225983006" lon="8.866560109374138"><ele>94.8</ele><time>2026-03-29T15:58:38Z</time></trkpt><trkpt lat="45.2190839751944" lon="8.866500392827996"><ele>94.6</ele><time>2026-03-29T15:58:39Z</time></trkpt><trkpt lat="45.21918818641615" lon="8.866435525470527"><ele>94.4</ele><time>2026-03-29T15:58:40Z</time></trkpt><trkpt lat="45.219287106320785" lon="8.866364361332968"><ele>94.2</ele><time>2026-03-29T15:58:41Z</time></trkpt><trkpt lat="45.219374956701444" lon="8.866304467876839"><ele>94.0</ele><time>2026-03-29T15:58:42Z</time></trkpt><trkpt lat="45.219449809147015" lon="8.866253730156531"><ele>94.0</ele><time>2026-03-29T15:58:43Z</time></trkpt><trkpt lat="45.2195242799913" lon="8.866182449622986"><ele>94.0</ele><time>2026-03-29T15:58:44Z</time></trkpt><trkpt lat="45.21962311183246" lon="8.866146648340852"><ele>94.0</ele><time>2026-03-29T15:58:45Z</time></trkpt><trkpt lat="45.21971351830568" lon="8.866098856920676"><ele>94.0</ele><time>2026-03-29T15:58:46Z</time></trkpt><trkpt lat="45.21979556027147" lon="8.86605879650837"><ele>94.0</ele><time>2026-03-29T15:58:47Z</time></trkpt><trkpt lat="45.21988476992968" lon="8.866023536446956"><ele>93.83333333333333</ele><time>2026-03-29T15:58:48Z</time></trkpt><trkpt lat="45.2199757227254" lon="8.865994836136275"><ele>93.66666666666666</ele><time>2026-03-29T15:58:49Z</time></trkpt><trkpt lat="45.22006588745004" lon="8.865969791976454"><ele>93.5</ele><time>2026-03-29T15:58:50Z</time></trkpt><trkpt lat="45.22014069708516" lon="8.865952750638277"><ele>93.33333333333333</ele><time>2026-03-29T15:58:51Z</time></trkpt><trkpt lat="45.220223202695834" lon="8.865939936225212"><ele>93.16666666666667</ele><time>2026-03-29T15:58:52Z</time></trkpt><trkpt lat="45.22028618643151" lon="8.865931937676729"><ele>93.0</ele><time>2026-03-29T15:58:53Z</time></trkpt><trkpt lat="45.2204065047631" lon="8.865918013367452"><ele>93.0</ele><time>2026-03-29T15:58:55Z</time></trkpt><trkpt lat="45.220536166039125" lon="8.86588126152479"><ele>93.0</ele><time>2026-03-29T15:58:57Z</time></trkpt><trkpt lat="45.22060109644065" lon="8.86589644486766"><ele>93.0</ele><time>2026-03-29T15:58:58Z</time></trkpt><trkpt lat="45.22072094500158" lon="8.865871031363255"><ele>93.0</ele><time>2026-03-29T15:59:00Z</time></trkpt><trkpt lat="45.22080086284377" lon="8.865864734741317"><ele>93.0</ele><time>2026-03-29T15:59:01Z</time></trkpt><trkpt lat="45.22089974771049" lon="8.865858055213579"><ele>93.16666666666667</ele><time>2026-03-29T15:59:02Z</time></trkpt><trkpt lat="45.22099840007854" lon="8.865853356913624"><ele>93.33333333333333</ele><time>2026-03-29T15:59:03Z</time></trkpt><trkpt lat="45.22109219321953" lon="8.865848783578574"><ele>93.5</ele><time>2026-03-29T15:59:04Z</time></trkpt><trkpt lat="45.22116651725986" lon="8.865841698415055"><ele>93.66666666666666</ele><time>2026-03-29T15:59:05Z</time></trkpt><trkpt lat="45.22124982203468" lon="8.865845718214924"><ele>93.83333333333333</ele><time>2026-03-29T15:59:06Z</time></trkpt><trkpt lat="45.22133212259997" lon="8.865843012469304"><ele>94.0</ele><time>2026-03-29T15:59:07Z</time></trkpt><trkpt lat="45.22141966833175" lon="8.865845930119246"><ele>94.2</ele><time>2026-03-29T15:59:08Z</time></trkpt><trkpt lat="45.221493654569834" lon="8.865865653718663"><ele>94.4</ele><time>2026-03-29T15:59:09Z</time></trkpt><trkpt lat="45.22159548993606" lon="8.865870519622002"><ele>94.6</ele><time>2026-03-29T15:59:10Z</time></trkpt><trkpt lat="45.22169065254211" lon="8.865877122402786"><ele>94.8</ele><time>2026-03-29T15:59:11Z</time></trkpt><trkpt lat="45.22178619605816" lon="8.865885507954655"><ele>95.0</ele><time>2026-03-29T15:59:12Z</time></trkpt><trkpt lat="45.22189061221339" lon="8.865894601791355"><ele>95.0</ele><time>2026-03-29T15:59:13Z</time></trkpt><trkpt lat="45.22197233723038" lon="8.8659004196378"><ele>95.0</ele><time>2026-03-29T15:59:14Z</time></trkpt><trkpt lat="45.2220555693631" lon="8.865906344772336"><ele>95.0</ele><time>2026-03-29T15:59:15Z</time></trkpt><trkpt lat="45.22213868973321" lon="8.865913362735341"><ele>95.0</ele><time>2026-03-29T15:59:16Z</time></trkpt><trkpt lat="45.222232931123536" lon="8.865922042013262"><ele>95.0</ele><time>2026-03-29T15:59:17Z</time></trkpt><trkpt lat="45.22232536973365" lon="8.865926283541834"><ele>95.0</ele><time>2026-03-29T15:59:18Z</time></trkpt><trkpt lat="45.222407064651534" lon="8.865902989221201"><ele>95.0</ele><time>2026-03-29T15:59:19Z</time></trkpt><trkpt lat="45.2224764042696" lon="8.865895233630024"><ele>95.0</ele><time>2026-03-29T15:59:20Z</time></trkpt><trkpt lat="45.22259174055063" lon="8.865902522141377"><ele>95.0</ele><time>2026-03-29T15:59:22Z</time></trkpt><trkpt lat="45.222710529049785" lon="8.865887224650107"><ele>95.0</ele><time>2026-03-29T15:59:24Z</time></trkpt><trkpt lat="45.22279172580512" lon="8.865862553931926"><ele>95.0</ele><time>2026-03-29T15:59:26Z</time></trkpt><trkpt lat="45.22285371729509" lon="8.865826300415725"><ele>95.0</ele><time>2026-03-29T15:59:30Z</time></trkpt><trkpt lat="45.222785082982384" lon="8.865598488724563"><ele>95.0</ele><time>2026-03-29T15:59:33Z</time></trkpt><trkpt lat="45.22269836157487" lon="8.865504494457412"><ele>95.0</ele><time>2026-03-29T15:59:34Z</time></trkpt><trkpt lat="45.2226206043874" lon="8.865405686230156"><ele>95.0</ele><time>2026-03-29T15:59:35Z</time></trkpt><trkpt lat="45.22253824938372" lon="8.865300622747416"><ele>95.0</ele><time>2026-03-29T15:59:36Z</time></trkpt><trkpt lat="45.2224453257364" lon="8.865184977052586"><ele>95.0</ele><time>2026-03-29T15:59:37Z</time></trkpt><trkpt lat="45.22234146787913" lon="8.865040143707192"><ele>95.0</ele><time>2026-03-29T15:59:38Z</time></trkpt><trkpt lat="45.22223804886024" lon="8.864911149126984"><ele>95.0</ele><time>2026-03-29T15:59:39Z</time></trkpt><trkpt lat="45.2221440150597" lon="8.864785166385625"><ele>95.33333333333334</ele><time>2026-03-29T15:59:40Z</time></trkpt><trkpt lat="45.22203987151857" lon="8.864650207897236"><ele>95.66666666666667</ele><time>2026-03-29T15:59:41Z</time></trkpt><trkpt lat="45.22192841846859" lon="8.864502181655949"><ele>96.0</ele><time>2026-03-29T15:59:42Z</time></trkpt><trkpt lat="45.2218099378281" lon="8.864344685823498"><ele>95.66666666666667</ele><time>2026-03-29T15:59:43Z</time></trkpt><trkpt lat="45.221692802093685" lon="8.864190183402972"><ele>95.33333333333334</ele><time>2026-03-29T15:59:44Z</time></trkpt><trkpt lat="45.221575373720654" lon="8.864041327049616"><ele>95.0</ele><time>2026-03-29T15:59:45Z</time></trkpt><trkpt lat="45.22145356858256" lon="8.863882230977138"><ele>95.0</ele><time>2026-03-29T15:59:46Z</time></trkpt><trkpt lat="45.221326254426856" lon="8.863716572372855"><ele>95.0</ele><time>2026-03-29T15:59:47Z</time></trkpt><trkpt lat="45.221197990734105" lon="8.86355270442737"><ele>95.0</ele><time>2026-03-29T15:59:48Z</time></trkpt><trkpt lat="45.22093372576796" lon="8.863215789896243"><ele>95.0</ele><time>2026-03-29T15:59:50Z</time></trkpt><trkpt lat="45.220800401418245" lon="8.86304762803338"><ele>95.0</ele><time>2026-03-29T15:59:51Z</time></trkpt><trkpt lat="45.22065913592427" lon="8.862868219783334"><ele>95.0</ele><time>2026-03-29T15:59:52Z</time></trkpt><trkpt lat="45.2205233431344" lon="8.862695981662347"><ele>94.66666666666667</ele><time>2026-03-29T15:59:53Z</time></trkpt><trkpt lat="45.22037755770978" lon="8.862503612630125"><ele>94.33333333333333</ele><time>2026-03-29T15:59:54Z</time></trkpt><trkpt lat="45.220225119566244" lon="8.86230474022634"><ele>94.0</ele><time>2026-03-29T15:59:55Z</time></trkpt><trkpt lat="45.22006850180956" lon="8.862106311469043"><ele>94.0</ele><time>2026-03-29T15:59:56Z</time></trkpt><trkpt lat="45.219909218964276" lon="8.86190062393317"><ele>94.0</ele><time>2026-03-29T15:59:57Z</time></trkpt><trkpt lat="45.21975979297937" lon="8.861705240166026"><ele>94.0</ele><time>2026-03-29T15:59:58Z</time></trkpt><trkpt lat="45.219626330625964" lon="8.86152861281623"><ele>94.0</ele><time>2026-03-29T15:59:59Z</time></trkpt><trkpt lat="45.219497527691196" lon="8.861360339283193"><ele>94.0</ele><time>2026-03-29T16:00:00Z</time></trkpt><trkpt lat="45.219383420575376" lon="8.861210143296184"><ele>94.0</ele><time>2026-03-29T16:00:01Z</time></trkpt><trkpt lat="45.2192701605584" lon="8.861061149138004"><ele>94.0</ele><time>2026-03-29T16:00:02Z</time></trkpt><trkpt lat="45.21916634095869" lon="8.860929121360277"><ele>94.0</ele><time>2026-03-29T16:00:03Z</time></trkpt><trkpt lat="45.2190635367304" lon="8.86079754390672"><ele>94.0</ele><time>2026-03-29T16:00:04Z</time></trkpt><trkpt lat="45.218973625339785" lon="8.860678301018536"><ele>94.0</ele><time>2026-03-29T16:00:05Z</time></trkpt><trkpt lat="45.21889752814342" lon="8.860573573309187"><ele>94.0</ele><time>2026-03-29T16:00:06Z</time></trkpt><trkpt lat="45.21883378920969" lon="8.860487697953046"><ele>94.0</ele><time>2026-03-29T16:00:07Z</time></trkpt><trkpt lat="45.21879226199564" lon="8.860419224763575"><ele>94.0</ele><time>2026-03-29T16:00:08Z</time></trkpt><trkpt lat="45.218742232088076" lon="8.860304909115106"><ele>94.0</ele><time>2026-03-29T16:00:10Z</time></trkpt><trkpt lat="45.21881260438232" lon="8.860075792079758"><ele>94.0</ele><time>2026-03-29T16:00:12Z</time></trkpt><trkpt lat="45.218862231728664" lon="8.859961581368262"><ele>94.0</ele><time>2026-03-29T16:00:13Z</time></trkpt><trkpt lat="45.218900362012356" lon="8.859840482913631"><ele>94.0</ele><time>2026-03-29T16:00:14Z</time></trkpt><trkpt lat="45.21897974139534" lon="8.859783470238666"><ele>94.0</ele><time>2026-03-29T16:00:15Z</time></trkpt><trkpt lat="45.21907177892452" lon="8.859722646963409"><ele>94.0</ele><time>2026-03-29T16:00:16Z</time></trkpt><trkpt lat="45.21918205302139" lon="8.85967885079827"><ele>94.0</ele><time>2026-03-29T16:00:17Z</time></trkpt><trkpt lat="45.219310279891644" lon="8.85963128172778"><ele>94.6</ele><time>2026-03-29T16:00:18Z</time></trkpt><trkpt lat="45.219429616560554" lon="8.8595876852018"><ele>95.2</ele><time>2026-03-29T16:00:19Z</time></trkpt><trkpt lat="45.2195293988572" lon="8.85954851869484"><ele>95.8</ele><time>2026-03-29T16:00:20Z</time></trkpt><trkpt lat="45.21962007789942" lon="8.859512226666475"><ele>96.39999999999999</ele><time>2026-03-29T16:00:21Z</time></trkpt><trkpt lat="45.21969635340205" lon="8.859460004977153"><ele>97.0</ele><time>2026-03-29T16:00:22Z</time></trkpt><trkpt lat="45.21977183538614" lon="8.859432705464043"><ele>96.6</ele><time>2026-03-29T16:00:23Z</time></trkpt><trkpt lat="45.21987936047097" lon="8.859387202817219"><ele>96.19999999999999</ele><time>2026-03-29T16:00:25Z</time></trkpt><trkpt lat="45.21992706971052" lon="8.859232135698651"><ele>95.8</ele><time>2026-03-29T16:00:27Z</time></trkpt><trkpt lat="45.21988042817852" lon="8.859107012518107"><ele>95.4</ele><time>2026-03-29T16:00:28Z</time></trkpt><trkpt lat="45.21984597768007" lon="8.858973612577485"><ele>95.0</ele><time>2026-03-29T16:00:29Z</time></trkpt><trkpt lat="45.21981922508998" lon="8.85876908410434"><ele>94.66666666666667</ele><time>2026-03-29T16:00:30Z</time></trkpt><trkpt lat="45.21975800632019" lon="8.858556280162295"><ele>94.33333333333333</ele><time>2026-03-29T16:00:31Z</time></trkpt><trkpt lat="45.21972884420369" lon="8.858324601444387"><ele>94.0</ele><time>2026-03-29T16:00:32Z</time></trkpt><trkpt lat="45.21968195769422" lon="8.858089681455425"><ele>94.0</ele><time>2026-03-29T16:00:33Z</time></trkpt><trkpt lat="45.21961698656732" lon="8.857850762905247"><ele>94.0</ele><time>2026-03-29T16:00:34Z</time></trkpt><trkpt lat="45.219574663644245" lon="8.85765136473552"><ele>94.0</ele><time>2026-03-29T16:00:35Z</time></trkpt><trkpt lat="45.21954832612207" lon="8.857443911185895"><ele>94.0</ele><time>2026-03-29T16:00:36Z</time></trkpt><trkpt lat="45.219512124619" lon="8.85725700193499"><ele>94.0</ele><time>2026-03-29T16:00:37Z</time></trkpt><trkpt lat="45.21945795541797" lon="8.85705348897951"><ele>94.0</ele><time>2026-03-29T16:00:38Z</time></trkpt><trkpt lat="45.219435033060236" lon="8.856828233755186"><ele>94.25</ele><time>2026-03-29T16:00:39Z</time></trkpt><trkpt lat="45.21939705306771" lon="8.856605854850644"><ele>94.5</ele><time>2026-03-29T16:00:40Z</time></trkpt><trkpt lat="45.21936186961822" lon="8.85639579454839"><ele>94.75</ele><time>2026-03-29T16:00:41Z</time></trkpt><trkpt lat="45.219333431858566" lon="8.856226008933128"><ele>95.0</ele><time>2026-03-29T16:00:42Z</time></trkpt><trkpt lat="45.219310549272535" lon="8.856089390126506"><ele>95.0</ele><time>2026-03-29T16:00:43Z</time></trkpt><trkpt lat="45.21929197371664" lon="8.85597848610504"><ele>95.0</ele><time>2026-03-29T16:00:44Z</time></trkpt><trkpt lat="45.21927898969155" lon="8.85588934223053"><ele>95.0</ele><time>2026-03-29T16:00:45Z</time></trkpt><trkpt lat="45.21926513582276" lon="8.855764717602902"><ele>95.0</ele><time>2026-03-29T16:00:47Z</time></trkpt><trkpt lat="45.219271255896736" lon="8.855668266100265"><ele>95.0</ele><time>2026-03-29T16:00:49Z</time></trkpt><trkpt lat="45.21934089734883" lon="8.855579803016788"><ele>95.0</ele><time>2026-03-29T16:00:51Z</time></trkpt><trkpt lat="45.21946635547889" lon="8.855572397838543"><ele>95.16666666666667</ele><time>2026-03-29T16:00:53Z</time></trkpt><trkpt lat="45.21954292515137" lon="8.85554992420552"><ele>95.33333333333334</ele><time>2026-03-29T16:00:54Z</time></trkpt><trkpt lat="45.219624059163934" lon="8.855526110926188"><ele>95.5</ele><time>2026-03-29T16:00:55Z</time></trkpt><trkpt lat="45.219713933678854" lon="8.855497772937168"><ele>95.66666666666667</ele><time>2026-03-29T16:00:56Z</time></trkpt><trkpt lat="45.21980679996668" lon="8.85546803061883"><ele>95.83333333333333</ele><time>2026-03-29T16:00:57Z</time></trkpt><trkpt lat="45.21990072229905" lon="8.855437843997242"><ele>96.0</ele><time>2026-03-29T16:00:58Z</time></trkpt><trkpt lat="45.219997128892" lon="8.855406697445058"><ele>96.0</ele><time>2026-03-29T16:00:59Z</time></trkpt><trkpt lat="45.220097900605836" lon="8.855374140653927"><ele>96.0</ele><time>2026-03-29T16:01:00Z</time></trkpt><trkpt lat="45.22019745321603" lon="8.855341977713882"><ele>96.0</ele><time>2026-03-29T16:01:01Z</time></trkpt><trkpt lat="45.220287170391686" lon="8.855301013498567"><ele>96.0</ele><time>2026-03-29T16:01:02Z</time></trkpt><trkpt lat="45.22037766315383" lon="8.855283756434508"><ele>96.0</ele><time>2026-03-29T16:01:03Z</time></trkpt><trkpt lat="45.22057141395168" lon="8.855221160432862"><ele>96.0</ele><time>2026-03-29T16:01:05Z</time></trkpt><trkpt lat="45.220676838189135" lon="8.855187740963833"><ele>96.0</ele><time>2026-03-29T16:01:06Z</time></trkpt><trkpt lat="45.220771924554036" lon="8.855157233012642"><ele>96.0</ele><time>2026-03-29T16:01:07Z</time></trkpt><trkpt lat="45.220863481325516" lon="8.85512675163808"><ele>96.0</ele><time>2026-03-29T16:01:08Z</time></trkpt><trkpt lat="45.22095597129971" lon="8.85509595958276"><ele>96.0</ele><time>2026-03-29T16:01:09Z</time></trkpt><trkpt lat="45.22105327679345" lon="8.855063564345542"><ele>96.0</ele><time>2026-03-29T16:01:10Z</time></trkpt><trkpt lat="45.221147359365" lon="8.85503224209454"><ele>96.0</ele><time>2026-03-29T16:01:11Z</time></trkpt><trkpt lat="45.22124246439781" lon="8.855000698830118"><ele>96.0</ele><time>2026-03-29T16:01:12Z</time></trkpt><trkpt lat="45.22135169395334" lon="8.854965845540768"><ele>96.0</ele><time>2026-03-29T16:01:13Z</time></trkpt><trkpt lat="45.22145928512802" lon="8.854931515042828"><ele>96.0</ele><time>2026-03-29T16:01:14Z</time></trkpt><trkpt lat="45.22156665852272" lon="8.854897254025726"><ele>95.8</ele><time>2026-03-29T16:01:15Z</time></trkpt><trkpt lat="45.22166966893007" lon="8.854864385153833"><ele>95.6</ele><time>2026-03-29T16:01:16Z</time></trkpt><trkpt lat="45.2217708116672" lon="8.854832112240675"><ele>95.4</ele><time>2026-03-29T16:01:17Z</time></trkpt><trkpt lat="45.22187133191067" lon="8.854799369922297"><ele>95.2</ele><time>2026-03-29T16:01:18Z</time></trkpt><trkpt lat="45.221975468170314" lon="8.854764930008745"><ele>95.0</ele><time>2026-03-29T16:01:19Z</time></trkpt><trkpt lat="45.22207381248075" lon="8.854732405613072"><ele>95.0</ele><time>2026-03-29T16:01:20Z</time></trkpt><trkpt lat="45.22217512809736" lon="8.854698914001217"><ele>95.0</ele><time>2026-03-29T16:01:21Z</time></trkpt><trkpt lat="45.222266031677556" lon="8.854669196399753"><ele>95.0</ele><time>2026-03-29T16:01:22Z</time></trkpt><trkpt lat="45.22236373060173" lon="8.854637257343159"><ele>95.0</ele><time>2026-03-29T16:01:23Z</time></trkpt><trkpt lat="45.22245467637586" lon="8.85460752596352"><ele>95.0</ele><time>2026-03-29T16:01:24.001Z</time></trkpt><trkpt lat="45.222549643098056" lon="8.854576480077531"><ele>94.8</ele><time>2026-03-29T16:01:25.001Z</time></trkpt><trkpt lat="45.2226377757421" lon="8.854547668365111"><ele>94.6</ele><time>2026-03-29T16:01:26.001Z</time></trkpt><trkpt lat="45.22274198614432" lon="8.854513600592183"><ele>94.4</ele><time>2026-03-29T16:01:27.001Z</time></trkpt><trkpt lat="45.22283600996304" lon="8.854483716085713"><ele>94.2</ele><time>2026-03-29T16:01:28.001Z</time></trkpt><trkpt lat="45.2229412292983" lon="8.85445046458689"><ele>94.0</ele><time>2026-03-29T16:01:29.001Z</time></trkpt><trkpt lat="45.22302971089069" lon="8.85439861602978"><ele>94.0</ele><time>2026-03-29T16:01:30.001Z</time></trkpt><trkpt lat="45.22312512174068" lon="8.854390210303867"><ele>94.0</ele><time>2026-03-29T16:01:31.001Z</time></trkpt><trkpt lat="45.22321586432132" lon="8.854359874976799"><ele>94.0</ele><time>2026-03-29T16:01:32.001Z</time></trkpt><trkpt lat="45.22330226365851" lon="8.854330993523657"><ele>94.0</ele><time>2026-03-29T16:01:33.001Z</time></trkpt><trkpt lat="45.22338188962766" lon="8.854280176473031"><ele>94.0</ele><time>2026-03-29T16:01:34.001Z</time></trkpt><trkpt lat="45.223473173625905" lon="8.854252869724872"><ele>94.5</ele><time>2026-03-29T16:01:35.001Z</time></trkpt><trkpt lat="45.223562011417464" lon="8.854244159625976"><ele>95.0</ele><time>2026-03-29T16:01:36.001Z</time></trkpt><trkpt lat="45.22364435224028" lon="8.85419250304914"><ele>95.5</ele><time>2026-03-29T16:01:37.001Z</time></trkpt><trkpt lat="45.22371784332815" lon="8.85419008694731"><ele>96.0</ele><time>2026-03-29T16:01:38.001Z</time></trkpt><trkpt lat="45.22378909341179" lon="8.854165130819569"><ele>96.50000000000001</ele><time>2026-03-29T16:01:39.001Z</time></trkpt><trkpt lat="45.22387966802172" lon="8.854130725140271"><ele>97.0</ele><time>2026-03-29T16:01:41Z</time></trkpt><trkpt lat="45.223960796738005" lon="8.854090426445714"><ele>97.16666666666667</ele><time>2026-03-29T16:01:43Z</time></trkpt><trkpt lat="45.22401701207933" lon="8.854199210324198"><ele>97.33333333333334</ele><time>2026-03-29T16:01:47Z</time></trkpt><trkpt lat="45.224026054446234" lon="8.854338577971344"><ele>97.5</ele><time>2026-03-29T16:01:49Z</time></trkpt><trkpt lat="45.22404760059852" lon="8.854430508880359"><ele>97.66666666666666</ele><time>2026-03-29T16:01:51Z</time></trkpt><trkpt lat="45.22412675676969" lon="8.85445612120971"><ele>97.83333333333333</ele><time>2026-03-29T16:01:53Z</time></trkpt><trkpt lat="45.22419672610872" lon="8.854438788163426"><ele>98.0</ele><time>2026-03-29T16:01:55Z</time></trkpt><trkpt lat="45.224303822051546" lon="8.854379866911916"><ele>97.99999999999999</ele><time>2026-03-29T16:01:57Z</time></trkpt><trkpt lat="45.22436626412515" lon="8.854359509249484"><ele>98.0</ele><time>2026-03-29T16:01:58Z</time></trkpt><trkpt lat="45.22445110436699" lon="8.854331420803401"><ele>98.0</ele><time>2026-03-29T16:01:59Z</time></trkpt><trkpt lat="45.22455010912205" lon="8.854291377449243"><ele>98.0</ele><time>2026-03-29T16:02:00Z</time></trkpt><trkpt lat="45.224631670177544" lon="8.85425704651701"><ele>97.99999999999999</ele><time>2026-03-29T16:02:01Z</time></trkpt><trkpt lat="45.22470429074783" lon="8.854222329372835"><ele>98.0</ele><time>2026-03-29T16:02:02Z</time></trkpt><trkpt lat="45.224784843167384" lon="8.854178517899634"><ele>98.0</ele><time>2026-03-29T16:02:03Z</time></trkpt><trkpt lat="45.224864366621446" lon="8.854131589807169"><ele>98.0</ele><time>2026-03-29T16:02:04Z</time></trkpt><trkpt lat="45.22495240537296" lon="8.854162730439777"><ele>98.0</ele><time>2026-03-29T16:02:05Z</time></trkpt><trkpt lat="45.225046750138176" lon="8.854141575358389"><ele>98.0</ele><time>2026-03-29T16:02:06Z</time></trkpt><trkpt lat="45.225131651377104" lon="8.85410808014063"><ele>98.0</ele><time>2026-03-29T16:02:07Z</time></trkpt><trkpt lat="45.225222071676455" lon="8.854077648936473"><ele>97.99999999999999</ele><time>2026-03-29T16:02:08Z</time></trkpt><trkpt lat="45.22528669655464" lon="8.854055092558458"><ele>98.0</ele><time>2026-03-29T16:02:09Z</time></trkpt><trkpt lat="45.22535140065288" lon="8.854032544582736"><ele>98.0</ele><time>2026-03-29T16:02:10Z</time></trkpt><trkpt lat="45.22543954957488" lon="8.853977108863583"><ele>98.0</ele><time>2026-03-29T16:02:12Z</time></trkpt><trkpt lat="45.225528638253095" lon="8.853944316620233"><ele>97.99999999999999</ele><time>2026-03-29T16:02:14Z</time></trkpt><trkpt lat="45.225602185909686" lon="8.853922351042295"><ele>98.0</ele><time>2026-03-29T16:02:17Z</time></trkpt><trkpt lat="45.22565824090474" lon="8.85411466478483"><ele>97.60000000000001</ele><time>2026-03-29T16:02:19Z</time></trkpt><trkpt lat="45.2256908630348" lon="8.85431295483403"><ele>97.2</ele><time>2026-03-29T16:02:21Z</time></trkpt><trkpt lat="45.22571588641608" lon="8.854440268417155"><ele>96.8</ele><time>2026-03-29T16:02:22Z</time></trkpt><trkpt lat="45.22573214118541" lon="8.854534109796054"><ele>96.4</ele><time>2026-03-29T16:02:23Z</time></trkpt><trkpt lat="45.22574601786795" lon="8.854629063284092"><ele>96.0</ele><time>2026-03-29T16:02:24Z</time></trkpt><trkpt lat="45.225766840511675" lon="8.85475394557181"><ele>96.0</ele><time>2026-03-29T16:02:25Z</time></trkpt><trkpt lat="45.22579139552609" lon="8.85490671584097"><ele>96.0</ele><time>2026-03-29T16:02:26Z</time></trkpt><trkpt lat="45.22581552723265" lon="8.85505514344566"><ele>96.0</ele><time>2026-03-29T16:02:27Z</time></trkpt><trkpt lat="45.22584125002409" lon="8.855192112212727"><ele>96.0</ele><time>2026-03-29T16:02:28Z</time></trkpt><trkpt lat="45.22586699190275" lon="8.855313879643479"><ele>96.0</ele><time>2026-03-29T16:02:29Z</time></trkpt><trkpt lat="45.225892956005936" lon="8.855452199910387"><ele>96.0</ele><time>2026-03-29T16:02:30Z</time></trkpt><trkpt lat="45.22592463913036" lon="8.855598815283086"><ele>96.0</ele><time>2026-03-29T16:02:31Z</time></trkpt><trkpt lat="45.225954747205094" lon="8.85573085150134"><ele>96.0</ele><time>2026-03-29T16:02:32Z</time></trkpt><trkpt lat="45.22598290567859" lon="8.855851764326694"><ele>96.0</ele><time>2026-03-29T16:02:33Z</time></trkpt><trkpt lat="45.226014042067426" lon="8.855984078598004"><ele>96.0</ele><time>2026-03-29T16:02:34Z</time></trkpt><trkpt lat="45.22604359260512" lon="8.85612541053962"><ele>96.0</ele><time>2026-03-29T16:02:35Z</time></trkpt><trkpt lat="45.22607041353227" lon="8.856253807453557"><ele>96.0</ele><time>2026-03-29T16:02:36Z</time></trkpt><trkpt lat="45.22609250577481" lon="8.856369596113959"><ele>96.0</ele><time>2026-03-29T16:02:37Z</time></trkpt><trkpt lat="45.22610808168" lon="8.85647103769487"><ele>96.0</ele><time>2026-03-29T16:02:38Z</time></trkpt><trkpt lat="45.226123161735615" lon="8.856565331692853"><ele>96.0</ele><time>2026-03-29T16:02:39Z</time></trkpt><trkpt lat="45.22616249718353" lon="8.856728187934232"><ele>96.0</ele><time>2026-03-29T16:02:41Z</time></trkpt><trkpt lat="45.226203035078214" lon="8.856810704967112"><ele>96.0</ele><time>2026-03-29T16:02:43Z</time></trkpt><trkpt lat="45.226268648836026" lon="8.85684668029338"><ele>96.0</ele><time>2026-03-29T16:02:45Z</time></trkpt><trkpt lat="45.22637575783518" lon="8.856825206853399"><ele>96.0</ele><time>2026-03-29T16:02:47Z</time></trkpt><trkpt lat="45.226451631850296" lon="8.85679917039178"><ele>96.0</ele><time>2026-03-29T16:02:48Z</time></trkpt><trkpt lat="45.22653209748132" lon="8.856773971761157"><ele>96.0</ele><time>2026-03-29T16:02:49Z</time></trkpt><trkpt lat="45.226613939753975" lon="8.85674381125518"><ele>96.0</ele><time>2026-03-29T16:02:50Z</time></trkpt><trkpt lat="45.226717113432" lon="8.856698318626213"><ele>95.8</ele><time>2026-03-29T16:02:51Z</time></trkpt><trkpt lat="45.226808194494566" lon="8.856661472925486"><ele>95.6</ele><time>2026-03-29T16:02:52Z</time></trkpt><trkpt lat="45.226901274997395" lon="8.856623776760467"><ele>95.4</ele><time>2026-03-29T16:02:53Z</time></trkpt><trkpt lat="45.227006390548894" lon="8.85657734235457"><ele>95.2</ele><time>2026-03-29T16:02:54Z</time></trkpt><trkpt lat="45.22710463281041" lon="8.856543122843952"><ele>95.0</ele><time>2026-03-29T16:02:55Z</time></trkpt><trkpt lat="45.22720816166457" lon="8.856503159305488"><ele>95.2</ele><time>2026-03-29T16:02:56Z</time></trkpt><trkpt lat="45.22731298765816" lon="8.856462907315606"><ele>95.4</ele><time>2026-03-29T16:02:57Z</time></trkpt><trkpt lat="45.227399922835794" lon="8.85643648969227"><ele>95.6</ele><time>2026-03-29T16:02:58Z</time></trkpt><trkpt lat="45.227497280573324" lon="8.856395463747326"><ele>95.8</ele><time>2026-03-29T16:02:59Z</time></trkpt><trkpt lat="45.22759319585747" lon="8.85635741861929"><ele>96.0</ele><time>2026-03-29T16:03:00Z</time></trkpt><trkpt lat="45.22768642937429" lon="8.856321623357395"><ele>96.0</ele><time>2026-03-29T16:03:01Z</time></trkpt><trkpt lat="45.22778552466728" lon="8.856280195445954"><ele>96.0</ele><time>2026-03-29T16:03:02Z</time></trkpt><trkpt lat="45.22788195847676" lon="8.856240952363265"><ele>96.0</ele><time>2026-03-29T16:03:03Z</time></trkpt><trkpt lat="45.22796813150956" lon="8.856207200482837"><ele>96.0</ele><time>2026-03-29T16:03:04Z</time></trkpt><trkpt lat="45.228058686531895" lon="8.85617229566956"><ele>96.0</ele><time>2026-03-29T16:03:05Z</time></trkpt><trkpt lat="45.228157598403925" lon="8.856132889767524"><ele>96.19999999999999</ele><time>2026-03-29T16:03:06Z</time></trkpt><trkpt lat="45.228245147791085" lon="8.856099533239687"><ele>96.39999999999999</ele><time>2026-03-29T16:03:07Z</time></trkpt><trkpt lat="45.22832196574045" lon="8.85607207365854"><ele>96.6</ele><time>2026-03-29T16:03:08Z</time></trkpt><trkpt lat="45.22841383754633" lon="8.856037116349256"><ele>96.8</ele><time>2026-03-29T16:03:09Z</time></trkpt><trkpt lat="45.2284897696784" lon="8.856006690597402"><ele>97.0</ele><time>2026-03-29T16:03:10Z</time></trkpt><trkpt lat="45.22859568297211" lon="8.855964736781631"><ele>97.00000000000001</ele><time>2026-03-29T16:03:12Z</time></trkpt><trkpt lat="45.228660432016596" lon="8.855940762623305"><ele>97.0</ele><time>2026-03-29T16:03:13Z</time></trkpt><trkpt lat="45.22874733096495" lon="8.855907614065442"><ele>97.0</ele><time>2026-03-29T16:03:14Z</time></trkpt><trkpt lat="45.22883276779663" lon="8.855874525940463"><ele>97.0</ele><time>2026-03-29T16:03:15Z</time></trkpt><trkpt lat="45.22892401752411" lon="8.85583973595073"><ele>97.00000000000001</ele><time>2026-03-29T16:03:16Z</time></trkpt><trkpt lat="45.22899428322658" lon="8.855813834582666"><ele>97.0</ele><time>2026-03-29T16:03:17Z</time></trkpt><trkpt lat="45.22905891292569" lon="8.855789685437793"><ele>97.00000000000001</ele><time>2026-03-29T16:03:18Z</time></trkpt><trkpt lat="45.22913497828283" lon="8.855756376905655"><ele>97.0</ele><time>2026-03-29T16:03:19Z</time></trkpt><trkpt lat="45.22921895400507" lon="8.85572833174297"><ele>97.0</ele><time>2026-03-29T16:03:20Z</time></trkpt><trkpt lat="45.22931399807069" lon="8.855687487998441"><ele>97.0</ele><time>2026-03-29T16:03:21Z</time></trkpt><trkpt lat="45.22938980744065" lon="8.85565946429182"><ele>97.00000000000001</ele><time>2026-03-29T16:03:22Z</time></trkpt><trkpt lat="45.22947640145772" lon="8.855626696080005"><ele>97.0</ele><time>2026-03-29T16:03:23Z</time></trkpt><trkpt lat="45.2295908473936" lon="8.85558263131208"><ele>97.0</ele><time>2026-03-29T16:03:24Z</time></trkpt><trkpt lat="45.22968939678977" lon="8.855543964270334"><ele>97.0</ele><time>2026-03-29T16:03:25Z</time></trkpt><trkpt lat="45.22978043958178" lon="8.85550634023197"><ele>97.0</ele><time>2026-03-29T16:03:26Z</time></trkpt><trkpt lat="45.22986300273043" lon="8.855474007274585"><ele>97.0</ele><time>2026-03-29T16:03:27Z</time></trkpt><trkpt lat="45.22996137695459" lon="8.855436715745132"><ele>97.0</ele><time>2026-03-29T16:03:28Z</time></trkpt><trkpt lat="45.23004184163925" lon="8.855405127533615"><ele>97.14285714285714</ele><time>2026-03-29T16:03:29Z</time></trkpt><trkpt lat="45.23011928702913" lon="8.855373060210948"><ele>97.28571428571429</ele><time>2026-03-29T16:03:30Z</time></trkpt><trkpt lat="45.230183536603754" lon="8.855348656421016"><ele>97.42857142857143</ele><time>2026-03-29T16:03:31Z</time></trkpt><trkpt lat="45.23025899056472" lon="8.855317164570959"><ele>97.57142857142857</ele><time>2026-03-29T16:03:32Z</time></trkpt><trkpt lat="45.23032243410417" lon="8.855298833390616"><ele>97.71428571428572</ele><time>2026-03-29T16:03:33Z</time></trkpt><trkpt lat="45.23039352833556" lon="8.855293173820703"><ele>97.85714285714286</ele><time>2026-03-29T16:03:34Z</time></trkpt><trkpt lat="45.23047041022498" lon="8.85530582807036"><ele>98.0</ele><time>2026-03-29T16:03:35Z</time></trkpt><trkpt lat="45.23054299600968" lon="8.855329701736505"><ele>97.99999999999999</ele><time>2026-03-29T16:03:36Z</time></trkpt><trkpt lat="45.23061784911395" lon="8.855358029561277"><ele>98.0</ele><time>2026-03-29T16:03:37Z</time></trkpt><trkpt lat="45.2306932713243" lon="8.855383260781474"><ele>98.0</ele><time>2026-03-29T16:03:38Z</time></trkpt><trkpt lat="45.23075625907648" lon="8.85541409318547"><ele>98.0</ele><time>2026-03-29T16:03:39Z</time></trkpt><trkpt lat="45.23085154788683" lon="8.85547442820666"><ele>97.99999999999999</ele><time>2026-03-29T16:03:41Z</time></trkpt><trkpt lat="45.2309453576922" lon="8.855560962224294"><ele>98.0</ele><time>2026-03-29T16:03:43Z</time></trkpt><trkpt lat="45.23100106775788" lon="8.855623946410256"><ele>97.99999999999999</ele><time>2026-03-29T16:03:44Z</time></trkpt><trkpt lat="45.23106697028824" lon="8.855690836615203"><ele>98.0</ele><time>2026-03-29T16:03:45Z</time></trkpt><trkpt lat="45.23113474236063" lon="8.855759577510149"><ele>98.0</ele><time>2026-03-29T16:03:46Z</time></trkpt><trkpt lat="45.231198582945446" lon="8.855829067089884"><ele>98.0</ele><time>2026-03-29T16:03:47Z</time></trkpt><trkpt lat="45.231264221357335" lon="8.8558903537285"><ele>97.99999999999999</ele><time>2026-03-29T16:03:48Z</time></trkpt><trkpt lat="45.23133905942342" lon="8.855957460502031"><ele>98.0</ele><time>2026-03-29T16:03:49Z</time></trkpt><trkpt lat="45.23141877910157" lon="8.85601991458996"><ele>97.83333333333333</ele><time>2026-03-29T16:03:50Z</time></trkpt><trkpt lat="45.231483311893996" lon="8.85606528398252"><ele>97.66666666666666</ele><time>2026-03-29T16:03:51Z</time></trkpt><trkpt lat="45.231546537211074" lon="8.856100343937548"><ele>97.5</ele><time>2026-03-29T16:03:52Z</time></trkpt><trkpt lat="45.23165637815752" lon="8.856182520376192"><ele>97.33333333333334</ele><time>2026-03-29T16:03:54Z</time></trkpt><trkpt lat="45.231731134835236" lon="8.856240513273185"><ele>97.16666666666667</ele><time>2026-03-29T16:03:55Z</time></trkpt><trkpt lat="45.2317992025509" lon="8.856302186807378"><ele>97.0</ele><time>2026-03-29T16:03:56Z</time></trkpt><trkpt lat="45.23186329124956" lon="8.856357842999046"><ele>97.00000000000001</ele><time>2026-03-29T16:03:57Z</time></trkpt><trkpt lat="45.23196422930981" lon="8.856419016538645"><ele>97.0</ele><time>2026-03-29T16:03:59Z</time></trkpt><trkpt lat="45.232024477977184" lon="8.856450527335609"><ele>97.0</ele><time>2026-03-29T16:04:00Z</time></trkpt><trkpt lat="45.232136006916456" lon="8.856498526274287"><ele>97.0</ele><time>2026-03-29T16:04:02Z</time></trkpt><trkpt lat="45.232205021919114" lon="8.856524212876058"><ele>97.00000000000001</ele><time>2026-03-29T16:04:03Z</time></trkpt><trkpt lat="45.23227392312979" lon="8.85655142482476"><ele>97.0</ele><time>2026-03-29T16:04:04Z</time></trkpt><trkpt lat="45.23233583686121" lon="8.856574602626544"><ele>97.00000000000001</ele><time>2026-03-29T16:04:05Z</time></trkpt><trkpt lat="45.23241067783732" lon="8.85659922292163"><ele>97.0</ele><time>2026-03-29T16:04:06Z</time></trkpt><trkpt lat="45.23249389456704" lon="8.856620572978489"><ele>97.0</ele><time>2026-03-29T16:04:07Z</time></trkpt><trkpt lat="45.23257250389499" lon="8.856637698499656"><ele>97.0</ele><time>2026-03-29T16:04:08Z</time></trkpt><trkpt lat="45.232641574664996" lon="8.856648926204938"><ele>97.00000000000001</ele><time>2026-03-29T16:04:09Z</time></trkpt><trkpt lat="45.232752964078266" lon="8.856663552795888"><ele>97.0</ele><time>2026-03-29T16:04:11Z</time></trkpt><trkpt lat="45.232865172202295" lon="8.85667993368723"><ele>97.0</ele><time>2026-03-29T16:04:13Z</time></trkpt><trkpt lat="45.23296762813338" lon="8.856689259567904"><ele>97.0</ele><time>2026-03-29T16:04:15Z</time></trkpt><trkpt lat="45.23308591903158" lon="8.856693203730943"><ele>97.0</ele><time>2026-03-29T16:04:17Z</time></trkpt><trkpt lat="45.233208757379025" lon="8.85668960825143"><ele>97.0</ele><time>2026-03-29T16:04:19Z</time></trkpt><trkpt lat="45.23327736613961" lon="8.856688416235851"><ele>97.0</ele><time>2026-03-29T16:04:20Z</time></trkpt><trkpt lat="45.23335012004013" lon="8.856685242456082"><ele>97.0</ele><time>2026-03-29T16:04:21Z</time></trkpt><trkpt lat="45.233413862099034" lon="8.856680170520548"><ele>97.0</ele><time>2026-03-29T16:04:22Z</time></trkpt><trkpt lat="45.23348372920031" lon="8.856673297549138"><ele>97.0</ele><time>2026-03-29T16:04:23Z</time></trkpt><trkpt lat="45.233553247859206" lon="8.856664109643614"><ele>97.0</ele><time>2026-03-29T16:04:24Z</time></trkpt><trkpt lat="45.233622349903605" lon="8.856653937499734"><ele>97.0</ele><time>2026-03-29T16:04:25Z</time></trkpt><trkpt lat="45.23370014963216" lon="8.856641148526007"><ele>97.0</ele><time>2026-03-29T16:04:26Z</time></trkpt><trkpt lat="45.23376623696726" lon="8.856632410316353"><ele>97.0</ele><time>2026-03-29T16:04:27Z</time></trkpt><trkpt lat="45.23383065577465" lon="8.856628312802846"><ele>97.00000000000001</ele><time>2026-03-29T16:04:28Z</time></trkpt><trkpt lat="45.23389945431917" lon="8.856617925983857"><ele>97.0</ele><time>2026-03-29T16:04:29Z</time></trkpt><trkpt lat="45.23397883908641" lon="8.856605828492288"><ele>97.0</ele><time>2026-03-29T16:04:30Z</time></trkpt><trkpt lat="45.23406188393172" lon="8.856591583213307"><ele>97.0</ele><time>2026-03-29T16:04:31Z</time></trkpt><trkpt lat="45.23413953625513" lon="8.856580245245251"><ele>97.00000000000001</ele><time>2026-03-29T16:04:32Z</time></trkpt><trkpt lat="45.23422471164331" lon="8.856567814799067"><ele>97.0</ele><time>2026-03-29T16:04:33Z</time></trkpt><trkpt lat="45.2343065252424" lon="8.856552050979207"><ele>97.0</ele><time>2026-03-29T16:04:34Z</time></trkpt><trkpt lat="45.23439152390146" lon="8.856534095850991"><ele>97.0</ele><time>2026-03-29T16:04:35Z</time></trkpt><trkpt lat="45.23447986084941" lon="8.856512225179332"><ele>97.0</ele><time>2026-03-29T16:04:36Z</time></trkpt><trkpt lat="45.234572754260554" lon="8.856492412942307"><ele>97.0</ele><time>2026-03-29T16:04:37Z</time></trkpt><trkpt lat="45.23466278708734" lon="8.856477780118436"><ele>97.0</ele><time>2026-03-29T16:04:38Z</time></trkpt><trkpt lat="45.234756749982616" lon="8.856462833107372"><ele>97.19999999999999</ele><time>2026-03-29T16:04:39Z</time></trkpt><trkpt lat="45.2348611829986" lon="8.8564491820404"><ele>97.4</ele><time>2026-03-29T16:04:40Z</time></trkpt><trkpt lat="45.23497265917883" lon="8.856436682451518"><ele>97.6</ele><time>2026-03-29T16:04:41Z</time></trkpt><trkpt lat="45.23506265741496" lon="8.856421354127447"><ele>97.80000000000001</ele><time>2026-03-29T16:04:42Z</time></trkpt><trkpt lat="45.23515962460779" lon="8.856400848764235"><ele>98.0</ele><time>2026-03-29T16:04:43Z</time></trkpt><trkpt lat="45.23526213364861" lon="8.85638657467916"><ele>98.0</ele><time>2026-03-29T16:04:44Z</time></trkpt><trkpt lat="45.235373700853444" lon="8.856375135601438"><ele>98.0</ele><time>2026-03-29T16:04:45Z</time></trkpt><trkpt lat="45.23546576308707" lon="8.856367468584024"><ele>98.0</ele><time>2026-03-29T16:04:46Z</time></trkpt><trkpt lat="45.23556491648748" lon="8.856357218325975"><ele>98.0</ele><time>2026-03-29T16:04:47Z</time></trkpt><trkpt lat="45.235654916087775" lon="8.856345617404088"><ele>98.0</ele><time>2026-03-29T16:04:48Z</time></trkpt><trkpt lat="45.23573886388164" lon="8.85633400952903"><ele>97.99999999999999</ele><time>2026-03-29T16:04:49Z</time></trkpt><trkpt lat="45.23580728422882" lon="8.856322299649861"><ele>98.0</ele><time>2026-03-29T16:04:50Z</time></trkpt><trkpt lat="45.23587184546244" lon="8.856311035410881"><ele>98.0</ele><time>2026-03-29T16:04:51Z</time></trkpt><trkpt lat="45.23596940084349" lon="8.856297518388804"><ele>98.0</ele><time>2026-03-29T16:04:53Z</time></trkpt><trkpt lat="45.23604349405043" lon="8.856282775131682"><ele>97.99999999999999</ele><time>2026-03-29T16:04:55Z</time></trkpt><trkpt lat="45.2361459356326" lon="8.856256343184555"><ele>98.0</ele><time>2026-03-29T16:04:57Z</time></trkpt><trkpt lat="45.23627749255197" lon="8.856205424743653"><ele>97.99999999999999</ele><time>2026-03-29T16:04:59Z</time></trkpt><trkpt lat="45.23635807368231" lon="8.856171332548607"><ele>98.0</ele><time>2026-03-29T16:05:00Z</time></trkpt><trkpt lat="45.236439447600056" lon="8.85613814306499"><ele>98.0</ele><time>2026-03-29T16:05:01Z</time></trkpt><trkpt lat="45.23651443848861" lon="8.856112601372024"><ele>98.0</ele><time>2026-03-29T16:05:02Z</time></trkpt><trkpt lat="45.236613863195565" lon="8.856088697463601"><ele>97.99999999999999</ele><time>2026-03-29T16:05:03Z</time></trkpt><trkpt lat="45.23670721957711" lon="8.856067784979667"><ele>98.0</ele><time>2026-03-29T16:05:04Z</time></trkpt><trkpt lat="45.23681312694474" lon="8.856046287072322"><ele>98.0</ele><time>2026-03-29T16:05:05Z</time></trkpt><trkpt lat="45.236908882443046" lon="8.856032812101324"><ele>98.0</ele><time>2026-03-29T16:05:06Z</time></trkpt><trkpt lat="45.237009827644854" lon="8.856018589738284"><ele>98.0</ele><time>2026-03-29T16:05:07Z</time></trkpt><trkpt lat="45.23710532696447" lon="8.855995071819748"><ele>98.0</ele><time>2026-03-29T16:05:08Z</time></trkpt><trkpt lat="45.23720318953611" lon="8.855967961446684"><ele>98.0</ele><time>2026-03-29T16:05:09Z</time></trkpt><trkpt lat="45.23729624547362" lon="8.855941231220896"><ele>97.80000000000001</ele><time>2026-03-29T16:05:10Z</time></trkpt><trkpt lat="45.23739569130684" lon="8.85591266131373"><ele>97.6</ele><time>2026-03-29T16:05:11Z</time></trkpt><trkpt lat="45.23748972988319" lon="8.855891692179407"><ele>97.4</ele><time>2026-03-29T16:05:12Z</time></trkpt><trkpt lat="45.23757100465859" lon="8.855870351787559"><ele>97.19999999999999</ele><time>2026-03-29T16:05:13Z</time></trkpt><trkpt lat="45.237663737275" lon="8.855843840537968"><ele>97.0</ele><time>2026-03-29T16:05:14Z</time></trkpt><trkpt lat="45.237761913689084" lon="8.855820131617499"><ele>97.0</ele><time>2026-03-29T16:05:15Z</time></trkpt><trkpt lat="45.2378638742429" lon="8.855793765770764"><ele>97.0</ele><time>2026-03-29T16:05:16Z</time></trkpt><trkpt lat="45.23797294812411" lon="8.855762296738153"><ele>97.0</ele><time>2026-03-29T16:05:17Z</time></trkpt><trkpt lat="45.238068174516435" lon="8.8557383839704"><ele>97.0</ele><time>2026-03-29T16:05:18Z</time></trkpt><trkpt lat="45.23815272785446" lon="8.855718537325437"><ele>97.0</ele><time>2026-03-29T16:05:19Z</time></trkpt><trkpt lat="45.23823215826298" lon="8.855697506781175"><ele>97.19999999999999</ele><time>2026-03-29T16:05:20Z</time></trkpt><trkpt lat="45.23832137260205" lon="8.855672610843662"><ele>97.4</ele><time>2026-03-29T16:05:21Z</time></trkpt><trkpt lat="45.23841136904488" lon="8.855645705971272"><ele>97.6</ele><time>2026-03-29T16:05:22Z</time></trkpt><trkpt lat="45.238505957693086" lon="8.855620121728718"><ele>97.80000000000001</ele><time>2026-03-29T16:05:23Z</time></trkpt><trkpt lat="45.23862275903863" lon="8.85559406214612"><ele>98.0</ele><time>2026-03-29T16:05:24Z</time></trkpt><trkpt lat="45.23873697468593" lon="8.855574482135221"><ele>98.0</ele><time>2026-03-29T16:05:25Z</time></trkpt><trkpt lat="45.23885169753741" lon="8.855557242187045"><ele>98.0</ele><time>2026-03-29T16:05:26Z</time></trkpt><trkpt lat="45.23896118634236" lon="8.855539445272678"><ele>98.0</ele><time>2026-03-29T16:05:27Z</time></trkpt><trkpt lat="45.23905807253655" lon="8.855526194171862"><ele>98.0</ele><time>2026-03-29T16:05:28Z</time></trkpt><trkpt lat="45.23915738277229" lon="8.855511963225338"><ele>98.0</ele><time>2026-03-29T16:05:29Z</time></trkpt><trkpt lat="45.239246537419874" lon="8.85551088750585"><ele>98.2</ele><time>2026-03-29T16:05:30Z</time></trkpt><trkpt lat="45.23935323828368" lon="8.855510022002175"><ele>98.4</ele><time>2026-03-29T16:05:31Z</time></trkpt><trkpt lat="45.23946384002129" lon="8.855507066172926"><ele>98.60000000000001</ele><time>2026-03-29T16:05:32Z</time></trkpt><trkpt lat="45.23957196110525" lon="8.855500992417328"><ele>98.80000000000001</ele><time>2026-03-29T16:05:33Z</time></trkpt><trkpt lat="45.23968064334119" lon="8.8554954803535"><ele>99.0</ele><time>2026-03-29T16:05:34Z</time></trkpt><trkpt lat="45.23979086319773" lon="8.855496024070286"><ele>98.80000000000001</ele><time>2026-03-29T16:05:35Z</time></trkpt><trkpt lat="45.2399147912635" lon="8.855485954880795"><ele>98.60000000000001</ele><time>2026-03-29T16:05:36Z</time></trkpt><trkpt lat="45.24002724139197" lon="8.855477538383882"><ele>98.4</ele><time>2026-03-29T16:05:37Z</time></trkpt><trkpt lat="45.24012979158781" lon="8.855477786179463"><ele>98.2</ele><time>2026-03-29T16:05:38Z</time></trkpt><trkpt lat="45.24021879859995" lon="8.855474371028363"><ele>98.0</ele><time>2026-03-29T16:05:39Z</time></trkpt><trkpt lat="45.2403087222068" lon="8.855459411656437"><ele>98.0</ele><time>2026-03-29T16:05:40Z</time></trkpt><trkpt lat="45.24039561201245" lon="8.85545484288923"><ele>98.0</ele><time>2026-03-29T16:05:41Z</time></trkpt><trkpt lat="45.24049980424095" lon="8.855451659262199"><ele>98.0</ele><time>2026-03-29T16:05:42Z</time></trkpt><trkpt lat="45.240595289063265" lon="8.85544253976936"><ele>98.0</ele><time>2026-03-29T16:05:43Z</time></trkpt><trkpt lat="45.24068542483952" lon="8.855433521652143"><ele>98.0</ele><time>2026-03-29T16:05:44Z</time></trkpt><trkpt lat="45.24078294099535" lon="8.855422139006734"><ele>98.0</ele><time>2026-03-29T16:05:45Z</time></trkpt><trkpt lat="45.24088821893573" lon="8.855409333762648"><ele>98.0</ele><time>2026-03-29T16:05:46Z</time></trkpt><trkpt lat="45.240987215297245" lon="8.855398834534274"><ele>98.0</ele><time>2026-03-29T16:05:47Z</time></trkpt><trkpt lat="45.241089708993506" lon="8.855378487690817"><ele>98.0</ele><time>2026-03-29T16:05:48Z</time></trkpt><trkpt lat="45.24119934191656" lon="8.855349532491758"><ele>98.0</ele><time>2026-03-29T16:05:49Z</time></trkpt><trkpt lat="45.24129598835347" lon="8.855324263732479"><ele>98.0</ele><time>2026-03-29T16:05:50Z</time></trkpt><trkpt lat="45.24139611475519" lon="8.85530087953225"><ele>98.0</ele><time>2026-03-29T16:05:51Z</time></trkpt><trkpt lat="45.24150454339987" lon="8.855271445322423"><ele>98.0</ele><time>2026-03-29T16:05:52Z</time></trkpt><trkpt lat="45.24161881746235" lon="8.855240784422822"><ele>98.0</ele><time>2026-03-29T16:05:53Z</time></trkpt><trkpt lat="45.241717460932335" lon="8.855213916939217"><ele>98.0</ele><time>2026-03-29T16:05:54Z</time></trkpt><trkpt lat="45.24180601681125" lon="8.85518484863478"><ele>98.2</ele><time>2026-03-29T16:05:55Z</time></trkpt><trkpt lat="45.24187626250495" lon="8.855164091795933"><ele>98.4</ele><time>2026-03-29T16:05:56Z</time></trkpt><trkpt lat="45.24197848987055" lon="8.855128897090403"><ele>98.60000000000001</ele><time>2026-03-29T16:05:57Z</time></trkpt><trkpt lat="45.24206908042601" lon="8.855098295096314"><ele>98.80000000000001</ele><time>2026-03-29T16:05:58Z</time></trkpt><trkpt lat="45.24216672305558" lon="8.855066383298261"><ele>99.0</ele><time>2026-03-29T16:05:59Z</time></trkpt><trkpt lat="45.24227115937868" lon="8.855036404085391"><ele>99.0</ele><time>2026-03-29T16:06:00Z</time></trkpt><trkpt lat="45.242379943197705" lon="8.855001607501997"><ele>99.0</ele><time>2026-03-29T16:06:00.999Z</time></trkpt><trkpt lat="45.24247473921033" lon="8.85497512322228"><ele>99.0</ele><time>2026-03-29T16:06:01.999Z</time></trkpt><trkpt lat="45.2425728233197" lon="8.854939895624122"><ele>99.0</ele><time>2026-03-29T16:06:02.999Z</time></trkpt><trkpt lat="45.24267316022947" lon="8.854905925201491"><ele>99.0</ele><time>2026-03-29T16:06:03.999Z</time></trkpt><trkpt lat="45.24277896648691" lon="8.854879994181129"><ele>99.0</ele><time>2026-03-29T16:06:04.999Z</time></trkpt><trkpt lat="45.24286623946485" lon="8.854861874542925"><ele>99.0</ele><time>2026-03-29T16:06:05.999Z</time></trkpt><trkpt lat="45.242941263379585" lon="8.854845770165824"><ele>99.0</ele><time>2026-03-29T16:06:06.999Z</time></trkpt><trkpt lat="45.243027836266634" lon="8.854822764299186"><ele>99.0</ele><time>2026-03-29T16:06:07.999Z</time></trkpt><trkpt lat="45.24311151826487" lon="8.854805570474845"><ele>99.0</ele><time>2026-03-29T16:06:08.999Z</time></trkpt><trkpt lat="45.24321998334009" lon="8.85477584753942"><ele>99.0</ele><time>2026-03-29T16:06:09.999Z</time></trkpt><trkpt lat="45.24332174690505" lon="8.85474945937885"><ele>99.0</ele><time>2026-03-29T16:06:10.999Z</time></trkpt><trkpt lat="45.24342173343473" lon="8.854721925376033"><ele>99.0</ele><time>2026-03-29T16:06:11.999Z</time></trkpt><trkpt lat="45.243520334703064" lon="8.854701489755435"><ele>99.0</ele><time>2026-03-29T16:06:12.999Z</time></trkpt><trkpt lat="45.24362120108958" lon="8.854680350297011"><ele>99.0</ele><time>2026-03-29T16:06:13.999Z</time></trkpt><trkpt lat="45.24372379100831" lon="8.854653887789196"><ele>99.0</ele><time>2026-03-29T16:06:14.999Z</time></trkpt><trkpt lat="45.243819183230016" lon="8.854631353812279"><ele>99.0</ele><time>2026-03-29T16:06:15.999Z</time></trkpt><trkpt lat="45.243909727944185" lon="8.85462091847521"><ele>99.0</ele><time>2026-03-29T16:06:16.999Z</time></trkpt><trkpt lat="45.24400751116315" lon="8.854605028947825"><ele>99.0</ele><time>2026-03-29T16:06:17.999Z</time></trkpt><trkpt lat="45.24411099532598" lon="8.854588175344055"><ele>99.0</ele><time>2026-03-29T16:06:18.999Z</time></trkpt><trkpt lat="45.24420664266199" lon="8.854574213221532"><ele>99.0</ele><time>2026-03-29T16:06:19.999Z</time></trkpt><trkpt lat="45.24430470834415" lon="8.854559819008545"><ele>99.0</ele><time>2026-03-29T16:06:20.999Z</time></trkpt><trkpt lat="45.24440236915747" lon="8.854543218512296"><ele>99.0</ele><time>2026-03-29T16:06:21.999Z</time></trkpt><trkpt lat="45.244512731206044" lon="8.85451648371413"><ele>99.0</ele><time>2026-03-29T16:06:22.999Z</time></trkpt><trkpt lat="45.24462771441552" lon="8.854490538152085"><ele>99.0</ele><time>2026-03-29T16:06:23.999Z</time></trkpt><trkpt lat="45.244734016381884" lon="8.854473526113642"><ele>99.0</ele><time>2026-03-29T16:06:24.999Z</time></trkpt><trkpt lat="45.24483477065704" lon="8.854455414453568"><ele>99.25</ele><time>2026-03-29T16:06:25.999Z</time></trkpt><trkpt lat="45.24495142582006" lon="8.85443344971256"><ele>99.5</ele><time>2026-03-29T16:06:26.999Z</time></trkpt><trkpt lat="45.24508052179234" lon="8.854412393411996"><ele>99.75</ele><time>2026-03-29T16:06:27.999Z</time></trkpt><trkpt lat="45.245193836912755" lon="8.85439466899489"><ele>100.0</ele><time>2026-03-29T16:06:28.999Z</time></trkpt><trkpt lat="45.24529169608508" lon="8.854376345287962"><ele>100.0</ele><time>2026-03-29T16:06:29.999Z</time></trkpt><trkpt lat="45.24538819120788" lon="8.854358000755298"><ele>100.0</ele><time>2026-03-29T16:06:30.999Z</time></trkpt><trkpt lat="45.24549875563866" lon="8.854337290959895"><ele>100.0</ele><time>2026-03-29T16:06:31.999Z</time></trkpt><trkpt lat="45.24560181334405" lon="8.854321221955292"><ele>100.0</ele><time>2026-03-29T16:06:32.999Z</time></trkpt><trkpt lat="45.24569631582406" lon="8.854310796608134"><ele>100.0</ele><time>2026-03-29T16:06:33.999Z</time></trkpt><trkpt lat="45.2457908820041" lon="8.854308150276065"><ele>99.8</ele><time>2026-03-29T16:06:34.999Z</time></trkpt><trkpt lat="45.245892635718974" lon="8.8543136526386"><ele>99.6</ele><time>2026-03-29T16:06:35.999Z</time></trkpt><trkpt lat="45.24599996324324" lon="8.854324023253872"><ele>99.4</ele><time>2026-03-29T16:06:36.999Z</time></trkpt><trkpt lat="45.24610630678018" lon="8.854339376477311"><ele>99.2</ele><time>2026-03-29T16:06:37.999Z</time></trkpt><trkpt lat="45.246215809147834" lon="8.854364456981315"><ele>99.0</ele><time>2026-03-29T16:06:38.999Z</time></trkpt><trkpt lat="45.24632217229923" lon="8.854392562033604"><ele>99.0</ele><time>2026-03-29T16:06:39.999Z</time></trkpt><trkpt lat="45.24642952105145" lon="8.854418995593651"><ele>99.0</ele><time>2026-03-29T16:06:40.999Z</time></trkpt><trkpt lat="45.2465326888883" lon="8.854454960391886"><ele>99.0</ele><time>2026-03-29T16:06:41.999Z</time></trkpt><trkpt lat="45.24664756066859" lon="8.854500623941497"><ele>99.0</ele><time>2026-03-29T16:06:42.999Z</time></trkpt><trkpt lat="45.24677089543367" lon="8.85455885923672"><ele>99.0</ele><time>2026-03-29T16:06:43.998Z</time></trkpt><trkpt lat="45.2468872364811" lon="8.85462113146795"><ele>99.0</ele><time>2026-03-29T16:06:44.998Z</time></trkpt><trkpt lat="45.2469883695997" lon="8.854679506711394"><ele>99.0</ele><time>2026-03-29T16:06:45.998Z</time></trkpt><trkpt lat="45.24707921920968" lon="8.854732488089363"><ele>99.0</ele><time>2026-03-29T16:06:46.998Z</time></trkpt><trkpt lat="45.24717331918742" lon="8.854785093269387"><ele>99.0</ele><time>2026-03-29T16:06:47.998Z</time></trkpt><trkpt lat="45.24725661228331" lon="8.854831353212395"><ele>99.0</ele><time>2026-03-29T16:06:48.998Z</time></trkpt><trkpt lat="45.247338506652525" lon="8.854874130401388"><ele>99.0</ele><time>2026-03-29T16:06:49.998Z</time></trkpt><trkpt lat="45.24742951192332" lon="8.854918987421375"><ele>99.0</ele><time>2026-03-29T16:06:50.998Z</time></trkpt><trkpt lat="45.247528133790624" lon="8.85496250686884"><ele>99.0</ele><time>2026-03-29T16:06:51.998Z</time></trkpt><trkpt lat="45.247643206429494" lon="8.85501928108825"><ele>99.0</ele><time>2026-03-29T16:06:52.998Z</time></trkpt><trkpt lat="45.24776033363712" lon="8.855077263610745"><ele>99.0</ele><time>2026-03-29T16:06:53.998Z</time></trkpt><trkpt lat="45.247874148776376" lon="8.855129692582071"><ele>99.0</ele><time>2026-03-29T16:06:54.998Z</time></trkpt><trkpt lat="45.2479767036523" lon="8.85517396659932"><ele>99.0</ele><time>2026-03-29T16:06:55.998Z</time></trkpt><trkpt lat="45.248074667584575" lon="8.855208984926579"><ele>99.0</ele><time>2026-03-29T16:06:56.998Z</time></trkpt><trkpt lat="45.24818357325112" lon="8.855249495535896"><ele>99.0</ele><time>2026-03-29T16:06:57.998Z</time></trkpt><trkpt lat="45.248299941146236" lon="8.85529279608898"><ele>99.25</ele><time>2026-03-29T16:06:58.998Z</time></trkpt><trkpt lat="45.2484164123581" lon="8.855331199317293"><ele>99.5</ele><time>2026-03-29T16:06:59.998Z</time></trkpt><trkpt lat="45.24853821267119" lon="8.85537142585702"><ele>99.75</ele><time>2026-03-29T16:07:00.998Z</time></trkpt><trkpt lat="45.24866118376552" lon="8.855415332854559"><ele>100.0</ele><time>2026-03-29T16:07:01.998Z</time></trkpt><trkpt lat="45.24877349230698" lon="8.85546186668866"><ele>100.0</ele><time>2026-03-29T16:07:02.998Z</time></trkpt><trkpt lat="45.24887314602143" lon="8.855506300917197"><ele>100.0</ele><time>2026-03-29T16:07:03.998Z</time></trkpt><trkpt lat="45.24896417659159" lon="8.855550827786326"><ele>100.0</ele><time>2026-03-29T16:07:04.998Z</time></trkpt><trkpt lat="45.24906418315652" lon="8.855601215541705"><ele>100.0</ele><time>2026-03-29T16:07:05.998Z</time></trkpt><trkpt lat="45.249158559507144" lon="8.855648374895233"><ele>100.0</ele><time>2026-03-29T16:07:06.998Z</time></trkpt><trkpt lat="45.24925002750788" lon="8.855688622102916"><ele>99.8</ele><time>2026-03-29T16:07:07.998Z</time></trkpt><trkpt lat="45.249328693722504" lon="8.85571622316011"><ele>99.6</ele><time>2026-03-29T16:07:08.998Z</time></trkpt><trkpt lat="45.249411263018416" lon="8.855736064672087"><ele>99.4</ele><time>2026-03-29T16:07:09.998Z</time></trkpt><trkpt lat="45.2494949083615" lon="8.8557420868829"><ele>99.2</ele><time>2026-03-29T16:07:10.998Z</time></trkpt><trkpt lat="45.24959035085818" lon="8.855734702486632"><ele>99.0</ele><time>2026-03-29T16:07:11.998Z</time></trkpt><trkpt lat="45.2496996755142" lon="8.85571158691259"><ele>98.25</ele><time>2026-03-29T16:07:12.998Z</time></trkpt><trkpt lat="45.24983168694347" lon="8.855714289328237"><ele>97.5</ele><time>2026-03-29T16:07:13.998Z</time></trkpt><trkpt lat="45.249950612215706" lon="8.85566925712746"><ele>96.75</ele><time>2026-03-29T16:07:14.998Z</time></trkpt><trkpt lat="45.250076789323145" lon="8.855618170883286"><ele>96.0</ele><time>2026-03-29T16:07:15.998Z</time></trkpt><trkpt lat="45.25020752444075" lon="8.855570675405694"><ele>96.0</ele><time>2026-03-29T16:07:16.998Z</time></trkpt><trkpt lat="45.25036278039178" lon="8.855515801595145"><ele>96.0</ele><time>2026-03-29T16:07:17.998Z</time></trkpt><trkpt lat="45.250494815437754" lon="8.85546999546028"><ele>96.0</ele><time>2026-03-29T16:07:18.998Z</time></trkpt><trkpt lat="45.25061251203068" lon="8.855433042923385"><ele>96.0</ele><time>2026-03-29T16:07:19.998Z</time></trkpt><trkpt lat="45.25072321283854" lon="8.855397009638157"><ele>96.4</ele><time>2026-03-29T16:07:20.998Z</time></trkpt><trkpt lat="45.250819300170605" lon="8.8553631495332"><ele>96.8</ele><time>2026-03-29T16:07:21.998Z</time></trkpt><trkpt lat="45.25090309471531" lon="8.85531376644369"><ele>97.2</ele><time>2026-03-29T16:07:22.998Z</time></trkpt><trkpt lat="45.25100822931685" lon="8.855291096691488"><ele>97.60000000000001</ele><time>2026-03-29T16:07:23.998Z</time></trkpt><trkpt lat="45.25109915137327" lon="8.855230881388456"><ele>98.0</ele><time>2026-03-29T16:07:24.998Z</time></trkpt><trkpt lat="45.25118613209659" lon="8.855178209982746"><ele>97.99999999999999</ele><time>2026-03-29T16:07:25.998Z</time></trkpt><trkpt lat="45.251280728191446" lon="8.855141002165354"><ele>98.0</ele><time>2026-03-29T16:07:26.998Z</time></trkpt><trkpt lat="45.251354799465034" lon="8.85508345332963"><ele>98.0</ele><time>2026-03-29T16:07:27.998Z</time></trkpt><trkpt lat="45.25142016654023" lon="8.855025168464852"><ele>98.0</ele><time>2026-03-29T16:07:28.998Z</time></trkpt><trkpt lat="45.2514814426251" lon="8.854951758428017"><ele>97.99999999999999</ele><time>2026-03-29T16:07:29.998Z</time></trkpt><trkpt lat="45.25152747572032" lon="8.854836461331939"><ele>98.0</ele><time>2026-03-29T16:07:30.998Z</time></trkpt><trkpt lat="45.25157036081892" lon="8.854742242869989"><ele>98.0</ele><time>2026-03-29T16:07:31.998Z</time></trkpt><trkpt lat="45.25163186856529" lon="8.854609840016913"><ele>98.0</ele><time>2026-03-29T16:07:32.998Z</time></trkpt><trkpt lat="45.25169807821809" lon="8.854497689032407"><ele>98.0</ele><time>2026-03-29T16:07:33.998Z</time></trkpt><trkpt lat="45.251749030508286" lon="8.85437085199841"><ele>98.0</ele><time>2026-03-29T16:07:34.998Z</time></trkpt><trkpt lat="45.251823746677005" lon="8.85428747938871"><ele>98.0</ele><time>2026-03-29T16:07:35.998Z</time></trkpt><trkpt lat="45.251898080727486" lon="8.854199387218626"><ele>97.99999999999999</ele><time>2026-03-29T16:07:36.998Z</time></trkpt><trkpt lat="45.251966937280336" lon="8.854123465742529"><ele>98.0</ele><time>2026-03-29T16:07:37.998Z</time></trkpt><trkpt lat="45.2520293016362" lon="8.854055129254313"><ele>98.0</ele><time>2026-03-29T16:07:38.998Z</time></trkpt><trkpt lat="45.252092449265916" lon="8.85397932099648"><ele>98.0</ele><time>2026-03-29T16:07:39.998Z</time></trkpt><trkpt lat="45.25214420305212" lon="8.853879745463866"><ele>97.99999999999999</ele><time>2026-03-29T16:07:40.998Z</time></trkpt><trkpt lat="45.25217717925377" lon="8.85379993513919"><ele>98.0</ele><time>2026-03-29T16:07:41.999Z</time></trkpt><trkpt lat="45.2522289396871" lon="8.853655101122571"><ele>98.0</ele><time>2026-03-29T16:07:43.999Z</time></trkpt><trkpt lat="45.25228370525855" lon="8.853497097457536"><ele>98.0</ele><time>2026-03-29T16:07:45.999Z</time></trkpt><trkpt lat="45.252349930220774" lon="8.853350111544101"><ele>98.0</ele><time>2026-03-29T16:07:47.999Z</time></trkpt><trkpt lat="45.252445903292696" lon="8.853301699527517"><ele>98.0</ele><time>2026-03-29T16:07:49.999Z</time></trkpt><trkpt lat="45.25253292367957" lon="8.853259583762544"><ele>98.0</ele><time>2026-03-29T16:07:50.999Z</time></trkpt><trkpt lat="45.25265084099861" lon="8.853215081523636"><ele>98.0</ele><time>2026-03-29T16:07:51.999Z</time></trkpt><trkpt lat="45.25278277436034" lon="8.853174975486398"><ele>98.0</ele><time>2026-03-29T16:07:53Z</time></trkpt><trkpt lat="45.25289358454723" lon="8.853147139639374"><ele>98.0</ele><time>2026-03-29T16:07:54Z</time></trkpt><trkpt lat="45.25299089342165" lon="8.853121275013372"><ele>98.0</ele><time>2026-03-29T16:07:55Z</time></trkpt><trkpt lat="45.25308086663054" lon="8.853094837813506"><ele>98.0</ele><time>2026-03-29T16:07:56Z</time></trkpt><trkpt lat="45.25315821386238" lon="8.85306721941704"><ele>97.80000000000001</ele><time>2026-03-29T16:07:57Z</time></trkpt><trkpt lat="45.253232852780855" lon="8.853034355472644"><ele>97.6</ele><time>2026-03-29T16:07:58Z</time></trkpt><trkpt lat="45.253323514358314" lon="8.852980375437939"><ele>97.4</ele><time>2026-03-29T16:07:59Z</time></trkpt><trkpt lat="45.2534058167637" lon="8.852918827098547"><ele>97.19999999999999</ele><time>2026-03-29T16:08:00Z</time></trkpt><trkpt lat="45.25349238319989" lon="8.852822820254225"><ele>97.0</ele><time>2026-03-29T16:08:01Z</time></trkpt><trkpt lat="45.25357474662758" lon="8.852689250585517"><ele>96.8</ele><time>2026-03-29T16:08:02Z</time></trkpt><trkpt lat="45.25366153070824" lon="8.852594956875665"><ele>96.6</ele><time>2026-03-29T16:08:03Z</time></trkpt><trkpt lat="45.25374608072825" lon="8.852500574099945"><ele>96.39999999999999</ele><time>2026-03-29T16:08:04Z</time></trkpt><trkpt lat="45.25382442415281" lon="8.852400195514434"><ele>96.19999999999999</ele><time>2026-03-29T16:08:05Z</time></trkpt><trkpt lat="45.253879081115564" lon="8.852298767246115"><ele>96.0</ele><time>2026-03-29T16:08:06Z</time></trkpt><trkpt lat="45.25394277963375" lon="8.852225429428062"><ele>96.0</ele><time>2026-03-29T16:08:07Z</time></trkpt><trkpt lat="45.253996746766084" lon="8.85215487931068"><ele>96.0</ele><time>2026-03-29T16:08:08Z</time></trkpt><trkpt lat="45.254093569468026" lon="8.852053302952951"><ele>96.0</ele><time>2026-03-29T16:08:10Z</time></trkpt><trkpt lat="45.25414236380395" lon="8.851974138239415"><ele>96.0</ele><time>2026-03-29T16:08:12Z</time></trkpt><trkpt lat="45.25423557058099" lon="8.852017373889915"><ele>96.0</ele><time>2026-03-29T16:08:18Z</time></trkpt><trkpt lat="45.2542940139165" lon="8.852105682894413"><ele>96.0</ele><time>2026-03-29T16:08:19Z</time></trkpt><trkpt lat="45.25433576071119" lon="8.852219764050222"><ele>96.0</ele><time>2026-03-29T16:08:20Z</time></trkpt><trkpt lat="45.25437457604421" lon="8.852319252836743"><ele>96.0</ele><time>2026-03-29T16:08:21Z</time></trkpt><trkpt lat="45.254431027131616" lon="8.85244334128778"><ele>96.0</ele><time>2026-03-29T16:08:22Z</time></trkpt><trkpt lat="45.25449562823226" lon="8.85258166650246"><ele>96.0</ele><time>2026-03-29T16:08:23Z</time></trkpt><trkpt lat="45.25455187903989" lon="8.85270728631182"><ele>96.33333333333333</ele><time>2026-03-29T16:08:24Z</time></trkpt><trkpt lat="45.254609620867434" lon="8.852830206030749"><ele>96.66666666666666</ele><time>2026-03-29T16:08:25Z</time></trkpt><trkpt lat="45.254663591892694" lon="8.852944051163854"><ele>97.0</ele><time>2026-03-29T16:08:26Z</time></trkpt><trkpt lat="45.25470679617475" lon="8.853041841066734"><ele>97.33333333333333</ele><time>2026-03-29T16:08:27Z</time></trkpt><trkpt lat="45.254750274580516" lon="8.853137485976767"><ele>97.66666666666666</ele><time>2026-03-29T16:08:28Z</time></trkpt><trkpt lat="45.254787728916476" lon="8.85322441181127"><ele>98.0</ele><time>2026-03-29T16:08:29Z</time></trkpt><trkpt lat="45.254825765940204" lon="8.853310748714657"><ele>98.16666666666666</ele><time>2026-03-29T16:08:30Z</time></trkpt><trkpt lat="45.25486348089236" lon="8.853404877653125"><ele>98.33333333333333</ele><time>2026-03-29T16:08:31Z</time></trkpt><trkpt lat="45.254899173218654" lon="8.853495076273902"><ele>98.5</ele><time>2026-03-29T16:08:32Z</time></trkpt><trkpt lat="45.25492580760188" lon="8.853598674434673"><ele>98.66666666666666</ele><time>2026-03-29T16:08:34Z</time></trkpt><trkpt lat="45.25504871685861" lon="8.853625332379552"><ele>98.83333333333333</ele><time>2026-03-29T16:08:36Z</time></trkpt><trkpt lat="45.255104174922835" lon="8.853533039804896"><ele>99.0</ele><time>2026-03-29T16:08:38Z</time></trkpt><trkpt lat="45.25504978793483" lon="8.853337705693558"><ele>99.0</ele><time>2026-03-29T16:08:39Z</time></trkpt><trkpt lat="45.255041614625455" lon="8.853216888471124"><ele>99.0</ele><time>2026-03-29T16:08:40Z</time></trkpt><trkpt lat="45.255045094128704" lon="8.853121339005831"><ele>99.0</ele><time>2026-03-29T16:08:41Z</time></trkpt><trkpt lat="45.25503175248757" lon="8.85296605014626"><ele>99.0</ele><time>2026-03-29T16:08:42Z</time></trkpt><trkpt lat="45.255047016507824" lon="8.852827455553433"><ele>99.0</ele><time>2026-03-29T16:08:43Z</time></trkpt><trkpt lat="45.25506098722382" lon="8.852719668614297"><ele>99.0</ele><time>2026-03-29T16:08:44Z</time></trkpt><trkpt lat="45.25506794446057" lon="8.852608994643768"><ele>98.6</ele><time>2026-03-29T16:08:45Z</time></trkpt><trkpt lat="45.255104643643115" lon="8.852504758282118"><ele>98.2</ele><time>2026-03-29T16:08:46Z</time></trkpt><trkpt lat="45.25513088429075" lon="8.852408740433878"><ele>97.8</ele><time>2026-03-29T16:08:47Z</time></trkpt><trkpt lat="45.25517223426307" lon="8.852303798144467"><ele>97.39999999999999</ele><time>2026-03-29T16:08:48Z</time></trkpt><trkpt lat="45.2552187203172" lon="8.8521736529136"><ele>97.0</ele><time>2026-03-29T16:08:49Z</time></trkpt><trkpt lat="45.25528240828707" lon="8.852025917497025"><ele>97.0</ele><time>2026-03-29T16:08:50Z</time></trkpt><trkpt lat="45.255353335713416" lon="8.851858755683043"><ele>97.0</ele><time>2026-03-29T16:08:51Z</time></trkpt><trkpt lat="45.2554380411752" lon="8.85165912177544"><ele>97.0</ele><time>2026-03-29T16:08:52Z</time></trkpt><trkpt lat="45.25551631683018" lon="8.851474641649691"><ele>97.0</ele><time>2026-03-29T16:08:53Z</time></trkpt><trkpt lat="45.25558298805721" lon="8.851316470492817"><ele>97.0</ele><time>2026-03-29T16:08:54Z</time></trkpt><trkpt lat="45.255641626376025" lon="8.851174139554585"><ele>97.0</ele><time>2026-03-29T16:08:55Z</time></trkpt><trkpt lat="45.25570507572643" lon="8.851020130978695"><ele>97.0</ele><time>2026-03-29T16:08:56Z</time></trkpt><trkpt lat="45.25576470642012" lon="8.850875340126496"><ele>98.66666666666667</ele><time>2026-03-29T16:08:57Z</time></trkpt><trkpt lat="45.25583542675934" lon="8.850708070105908"><ele>100.33333333333334</ele><time>2026-03-29T16:08:58Z</time></trkpt><trkpt lat="45.25591256367555" lon="8.85052562333356"><ele>102.0</ele><time>2026-03-29T16:08:59Z</time></trkpt><trkpt lat="45.25599673917031" lon="8.850326528747525"><ele>100.33333333333334</ele><time>2026-03-29T16:09:00Z</time></trkpt><trkpt lat="45.256082805901414" lon="8.850122960913277"><ele>98.66666666666667</ele><time>2026-03-29T16:09:01Z</time></trkpt><trkpt lat="45.25616532720286" lon="8.849927778846466"><ele>97.0</ele><time>2026-03-29T16:09:02Z</time></trkpt><trkpt lat="45.25623734852739" lon="8.849757431675375"><ele>97.0</ele><time>2026-03-29T16:09:03Z</time></trkpt><trkpt lat="45.25631632093959" lon="8.84956832998231"><ele>97.0</ele><time>2026-03-29T16:09:04Z</time></trkpt><trkpt lat="45.256398759713285" lon="8.849367471458867"><ele>97.0</ele><time>2026-03-29T16:09:05Z</time></trkpt><trkpt lat="45.25649030051941" lon="8.849151451330025"><ele>98.0</ele><time>2026-03-29T16:09:06Z</time></trkpt><trkpt lat="45.25659578118583" lon="8.848909042559649"><ele>99.0</ele><time>2026-03-29T16:09:07Z</time></trkpt><trkpt lat="45.25669497924618" lon="8.84868107206766"><ele>100.0</ele><time>2026-03-29T16:09:08Z</time></trkpt><trkpt lat="45.256783766889235" lon="8.848474282392747"><ele>99.0</ele><time>2026-03-29T16:09:09Z</time></trkpt><trkpt lat="45.2568651375849" lon="8.848279283463903"><ele>98.0</ele><time>2026-03-29T16:09:10Z</time></trkpt><trkpt lat="45.256954290392834" lon="8.848065635270784"><ele>97.0</ele><time>2026-03-29T16:09:11Z</time></trkpt><trkpt lat="45.25704453616579" lon="8.847852806554663"><ele>97.33333333333334</ele><time>2026-03-29T16:09:12Z</time></trkpt><trkpt lat="45.257143735141696" lon="8.84762145286229"><ele>97.66666666666666</ele><time>2026-03-29T16:09:13Z</time></trkpt><trkpt lat="45.2572356816714" lon="8.847405921686446"><ele>98.0</ele><time>2026-03-29T16:09:14Z</time></trkpt><trkpt lat="45.257323466217386" lon="8.847199722109028"><ele>98.25</ele><time>2026-03-29T16:09:15Z</time></trkpt><trkpt lat="45.2574007399506" lon="8.8470182116852"><ele>98.5</ele><time>2026-03-29T16:09:16Z</time></trkpt><trkpt lat="45.25747639174729" lon="8.846840511094491"><ele>98.75</ele><time>2026-03-29T16:09:17Z</time></trkpt><trkpt lat="45.25755467299817" lon="8.846654542006844"><ele>99.0</ele><time>2026-03-29T16:09:18Z</time></trkpt><trkpt lat="45.25763971057129" lon="8.846452469162323"><ele>99.33333333333334</ele><time>2026-03-29T16:09:19Z</time></trkpt><trkpt lat="45.25772553532369" lon="8.846248525788928"><ele>99.66666666666667</ele><time>2026-03-29T16:09:20Z</time></trkpt><trkpt lat="45.25780670609029" lon="8.846055641542215"><ele>100.0</ele><time>2026-03-29T16:09:21Z</time></trkpt><trkpt lat="45.25788701182255" lon="8.845865172409876"><ele>100.0</ele><time>2026-03-29T16:09:22Z</time></trkpt><trkpt lat="45.257975121553294" lon="8.845659995392136"><ele>100.0</ele><time>2026-03-29T16:09:23Z</time></trkpt><trkpt lat="45.2580492604233" lon="8.845487765440735"><ele>100.0</ele><time>2026-03-29T16:09:24Z</time></trkpt><trkpt lat="45.25812145002636" lon="8.845321930156667"><ele>100.0</ele><time>2026-03-29T16:09:25Z</time></trkpt><trkpt lat="45.25818427062057" lon="8.845177617582879"><ele>100.0</ele><time>2026-03-29T16:09:26Z</time></trkpt><trkpt lat="45.2582439626271" lon="8.845040099695948"><ele>100.0</ele><time>2026-03-29T16:09:27Z</time></trkpt><trkpt lat="45.25830285121489" lon="8.844896800986906"><ele>100.0</ele><time>2026-03-29T16:09:28Z</time></trkpt><trkpt lat="45.258368358815574" lon="8.844727688045571"><ele>100.0</ele><time>2026-03-29T16:09:29Z</time></trkpt><trkpt lat="45.25842784740724" lon="8.844535470538252"><ele>100.0</ele><time>2026-03-29T16:09:30Z</time></trkpt><trkpt lat="45.25847076115541" lon="8.844324761527487"><ele>100.0</ele><time>2026-03-29T16:09:31Z</time></trkpt><trkpt lat="45.258504995896864" lon="8.84409861254105"><ele>100.0</ele><time>2026-03-29T16:09:32Z</time></trkpt><trkpt lat="45.25854403631578" lon="8.84384468046261"><ele>100.33333333333334</ele><time>2026-03-29T16:09:33Z</time></trkpt><trkpt lat="45.25858668596261" lon="8.843584033490181"><ele>100.66666666666666</ele><time>2026-03-29T16:09:34Z</time></trkpt><trkpt lat="45.25860622088882" lon="8.843366107925869"><ele>101.0</ele><time>2026-03-29T16:09:35Z</time></trkpt><trkpt lat="45.2586574495047" lon="8.843151572488484"><ele>100.75</ele><time>2026-03-29T16:09:36Z</time></trkpt><trkpt lat="45.258688071657474" lon="8.842964429887243"><ele>100.5</ele><time>2026-03-29T16:09:37Z</time></trkpt><trkpt lat="45.25872002476667" lon="8.84276160269746"><ele>100.25</ele><time>2026-03-29T16:09:38Z</time></trkpt><trkpt lat="45.25875236813249" lon="8.842548939803185"><ele>100.0</ele><time>2026-03-29T16:09:39Z</time></trkpt><trkpt lat="45.25879072966302" lon="8.842301188401034"><ele>100.0</ele><time>2026-03-29T16:09:40Z</time></trkpt><trkpt lat="45.258826204584125" lon="8.84208310394937"><ele>100.0</ele><time>2026-03-29T16:09:41Z</time></trkpt><trkpt lat="45.25885405838433" lon="8.841902034005031"><ele>100.0</ele><time>2026-03-29T16:09:42Z</time></trkpt><trkpt lat="45.25888112380758" lon="8.841719213411269"><ele>100.0</ele><time>2026-03-29T16:09:43Z</time></trkpt><trkpt lat="45.25890734346155" lon="8.841542105986052"><ele>100.0</ele><time>2026-03-29T16:09:44Z</time></trkpt><trkpt lat="45.25893690679526" lon="8.841346886141928"><ele>100.0</ele><time>2026-03-29T16:09:45Z</time></trkpt><trkpt lat="45.25896537210601" lon="8.84117086615559"><ele>100.0</ele><time>2026-03-29T16:09:46Z</time></trkpt><trkpt lat="45.25899216590726" lon="8.841008810925059"><ele>100.0</ele><time>2026-03-29T16:09:47Z</time></trkpt><trkpt lat="45.25901815092412" lon="8.840856885892343"><ele>100.0</ele><time>2026-03-29T16:09:48Z</time></trkpt><trkpt lat="45.25904375984759" lon="8.840722424735821"><ele>100.0</ele><time>2026-03-29T16:09:49Z</time></trkpt><trkpt lat="45.25907262604527" lon="8.840602757805792"><ele>100.0</ele><time>2026-03-29T16:09:50Z</time></trkpt><trkpt lat="45.25909928372005" lon="8.84047389958539"><ele>100.0</ele><time>2026-03-29T16:09:51Z</time></trkpt><trkpt lat="45.25916141319385" lon="8.840362332544606"><ele>100.0</ele><time>2026-03-29T16:09:52Z</time></trkpt><trkpt lat="45.25926398368036" lon="8.840254600768937"><ele>100.0</ele><time>2026-03-29T16:09:53Z</time></trkpt><trkpt lat="45.259366120005" lon="8.84015868225132"><ele>100.0</ele><time>2026-03-29T16:09:54Z</time></trkpt><trkpt lat="45.25948982980498" lon="8.840042199202049"><ele>100.0</ele><time>2026-03-29T16:09:55Z</time></trkpt><trkpt lat="45.259608380406036" lon="8.839931089528857"><ele>100.0</ele><time>2026-03-29T16:09:56Z</time></trkpt><trkpt lat="45.259734142539884" lon="8.839816280206959"><ele>100.0</ele><time>2026-03-29T16:09:57Z</time></trkpt><trkpt lat="45.259860872101335" lon="8.839700587702685"><ele>100.0</ele><time>2026-03-29T16:09:58Z</time></trkpt><trkpt lat="45.25996443704608" lon="8.839581338121366"><ele>100.0</ele><time>2026-03-29T16:09:59Z</time></trkpt><trkpt lat="45.26006577917049" lon="8.839486034375025"><ele>100.0</ele><time>2026-03-29T16:10:00Z</time></trkpt><trkpt lat="45.260154776313904" lon="8.839405527833929"><ele>100.00000000000001</ele><time>2026-03-29T16:10:01Z</time></trkpt><trkpt lat="45.260235187162536" lon="8.839334032480947"><ele>100.0</ele><time>2026-03-29T16:10:02Z</time></trkpt><trkpt lat="45.26030311986741" lon="8.839269594642134"><ele>100.0</ele><time>2026-03-29T16:10:03Z</time></trkpt><trkpt lat="45.26037000958676" lon="8.839210122309273"><ele>100.0</ele><time>2026-03-29T16:10:04Z</time></trkpt><trkpt lat="45.26044120929033" lon="8.839145637909933"><ele>100.00000000000001</ele><time>2026-03-29T16:10:05Z</time></trkpt><trkpt lat="45.26049760288311" lon="8.839091376185024"><ele>100.0</ele><time>2026-03-29T16:10:06Z</time></trkpt><trkpt lat="45.260568549951095" lon="8.83901720515316"><ele>99.5</ele><time>2026-03-29T16:10:07Z</time></trkpt><trkpt lat="45.26065400555317" lon="8.838936262969423"><ele>99.0</ele><time>2026-03-29T16:10:08Z</time></trkpt><trkpt lat="45.260757085661545" lon="8.838847094390749"><ele>98.5</ele><time>2026-03-29T16:10:09Z</time></trkpt><trkpt lat="45.26085511892055" lon="8.838750075669667"><ele>98.0</ele><time>2026-03-29T16:10:10Z</time></trkpt><trkpt lat="45.260947102845854" lon="8.838664079550558"><ele>97.99999999999999</ele><time>2026-03-29T16:10:11Z</time></trkpt><trkpt lat="45.26102724083789" lon="8.838593955601569"><ele>98.0</ele><time>2026-03-29T16:10:12Z</time></trkpt><trkpt lat="45.26109487117005" lon="8.83852930901854"><ele>98.0</ele><time>2026-03-29T16:10:13Z</time></trkpt><trkpt lat="45.261161207459665" lon="8.83847476087674"><ele>98.0</ele><time>2026-03-29T16:10:14Z</time></trkpt><trkpt lat="45.26124353648473" lon="8.838410271538411"><ele>97.99999999999999</ele><time>2026-03-29T16:10:15Z</time></trkpt><trkpt lat="45.26132848004577" lon="8.838330780870571"><ele>98.0</ele><time>2026-03-29T16:10:16Z</time></trkpt><trkpt lat="45.26142420254281" lon="8.838257500128567"><ele>98.25</ele><time>2026-03-29T16:10:17Z</time></trkpt><trkpt lat="45.261514964269736" lon="8.838173579108767"><ele>98.5</ele><time>2026-03-29T16:10:18Z</time></trkpt><trkpt lat="45.26161166585975" lon="8.83805742022336"><ele>98.75</ele><time>2026-03-29T16:10:19Z</time></trkpt><trkpt lat="45.26172121063854" lon="8.837960094278003"><ele>99.0</ele><time>2026-03-29T16:10:20Z</time></trkpt><trkpt lat="45.26182524554703" lon="8.837858607963646"><ele>99.0</ele><time>2026-03-29T16:10:21Z</time></trkpt><trkpt lat="45.26193248453675" lon="8.83776602901451"><ele>99.0</ele><time>2026-03-29T16:10:22Z</time></trkpt><trkpt lat="45.262043078274345" lon="8.837658342449332"><ele>99.0</ele><time>2026-03-29T16:10:23Z</time></trkpt><trkpt lat="45.26214666440081" lon="8.837545499526962"><ele>99.0</ele><time>2026-03-29T16:10:24Z</time></trkpt><trkpt lat="45.262246953609676" lon="8.837428053480258"><ele>100.0</ele><time>2026-03-29T16:10:25Z</time></trkpt><trkpt lat="45.262343861595824" lon="8.8373398112051"><ele>101.0</ele><time>2026-03-29T16:10:26Z</time></trkpt><trkpt lat="45.26242511174152" lon="8.837241373159522"><ele>102.0</ele><time>2026-03-29T16:10:27Z</time></trkpt><trkpt lat="45.2625092336621" lon="8.837117577951757"><ele>103.0</ele><time>2026-03-29T16:10:28Z</time></trkpt><trkpt lat="45.26260074693529" lon="8.83698425967012"><ele>103.0</ele><time>2026-03-29T16:10:29Z</time></trkpt><trkpt lat="45.26269764873599" lon="8.836846123852975"><ele>103.0</ele><time>2026-03-29T16:10:30Z</time></trkpt><trkpt lat="45.26280686162772" lon="8.83669032107767"><ele>103.0</ele><time>2026-03-29T16:10:31Z</time></trkpt><trkpt lat="45.26291205525846" lon="8.836525620889702"><ele>103.0</ele><time>2026-03-29T16:10:32Z</time></trkpt><trkpt lat="45.26301647421758" lon="8.836368352696761"><ele>102.0</ele><time>2026-03-29T16:10:33Z</time></trkpt><trkpt lat="45.26312553774712" lon="8.83621238660597"><ele>101.0</ele><time>2026-03-29T16:10:34Z</time></trkpt><trkpt lat="45.26324130641652" lon="8.836048985885872"><ele>100.0</ele><time>2026-03-29T16:10:35Z</time></trkpt><trkpt lat="45.263362167755766" lon="8.835876142643704"><ele>99.33333333333334</ele><time>2026-03-29T16:10:36Z</time></trkpt><trkpt lat="45.26347889305435" lon="8.835708846840234"><ele>98.66666666666666</ele><time>2026-03-29T16:10:37Z</time></trkpt><trkpt lat="45.26359916430826" lon="8.83554041412418"><ele>98.0</ele><time>2026-03-29T16:10:38Z</time></trkpt><trkpt lat="45.26371654317462" lon="8.835376253035955"><ele>98.0</ele><time>2026-03-29T16:10:39Z</time></trkpt><trkpt lat="45.26382466613993" lon="8.835221995396564"><ele>98.0</ele><time>2026-03-29T16:10:40Z</time></trkpt><trkpt lat="45.263932930919744" lon="8.835064541272251"><ele>98.0</ele><time>2026-03-29T16:10:41Z</time></trkpt><trkpt lat="45.26405019079471" lon="8.834897136570463"><ele>98.33333333333333</ele><time>2026-03-29T16:10:42Z</time></trkpt><trkpt lat="45.26416986093809" lon="8.834726608234481"><ele>98.66666666666666</ele><time>2026-03-29T16:10:43Z</time></trkpt><trkpt lat="45.264289663730075" lon="8.834555256730352"><ele>99.0</ele><time>2026-03-29T16:10:44Z</time></trkpt><trkpt lat="45.26440415750202" lon="8.83438832008496"><ele>99.0</ele><time>2026-03-29T16:10:45Z</time></trkpt><trkpt lat="45.264519667855346" lon="8.834217033154728"><ele>99.0</ele><time>2026-03-29T16:10:46Z</time></trkpt><trkpt lat="45.264743535943744" lon="8.83388566830202"><ele>99.0</ele><time>2026-03-29T16:10:48Z</time></trkpt><trkpt lat="45.26485835317054" lon="8.833723904807806"><ele>99.0</ele><time>2026-03-29T16:10:49Z</time></trkpt><trkpt lat="45.26497505272113" lon="8.833565116069053"><ele>99.0</ele><time>2026-03-29T16:10:50Z</time></trkpt><trkpt lat="45.26509441312132" lon="8.83339866743858"><ele>99.0</ele><time>2026-03-29T16:10:51Z</time></trkpt><trkpt lat="45.26520857182674" lon="8.833243419693261"><ele>99.0</ele><time>2026-03-29T16:10:52Z</time></trkpt><trkpt lat="45.265310328999696" lon="8.833097469606317"><ele>99.0</ele><time>2026-03-29T16:10:53Z</time></trkpt><trkpt lat="45.26541483827683" lon="8.832984092348637"><ele>99.0</ele><time>2026-03-29T16:10:54Z</time></trkpt><trkpt lat="45.26551312813931" lon="8.832854206057954"><ele>99.0</ele><time>2026-03-29T16:10:55Z</time></trkpt><trkpt lat="45.265608556518586" lon="8.832727858195128"><ele>99.0</ele><time>2026-03-29T16:10:56Z</time></trkpt><trkpt lat="45.26568823704138" lon="8.83262026852148"><ele>99.0</ele><time>2026-03-29T16:10:57Z</time></trkpt><trkpt lat="45.265762178151114" lon="8.832517464191469"><ele>99.0</ele><time>2026-03-29T16:10:58Z</time></trkpt><trkpt lat="45.26583599232006" lon="8.832413204119073"><ele>99.0</ele><time>2026-03-29T16:10:59Z</time></trkpt><trkpt lat="45.265914511101805" lon="8.83230229883971"><ele>99.0</ele><time>2026-03-29T16:11:00Z</time></trkpt><trkpt lat="45.265981675905955" lon="8.832207430768841"><ele>99.0</ele><time>2026-03-29T16:11:01Z</time></trkpt><trkpt lat="45.26604843224009" lon="8.832113389358035"><ele>99.0</ele><time>2026-03-29T16:11:02Z</time></trkpt><trkpt lat="45.26611548295405" lon="8.832021636380539"><ele>99.0</ele><time>2026-03-29T16:11:03Z</time></trkpt><trkpt lat="45.26618460784712" lon="8.831933928871392"><ele>99.0</ele><time>2026-03-29T16:11:04Z</time></trkpt><trkpt lat="45.266243393400316" lon="8.831845875011565"><ele>99.2</ele><time>2026-03-29T16:11:05Z</time></trkpt><trkpt lat="45.26632744875132" lon="8.831790375592602"><ele>99.4</ele><time>2026-03-29T16:11:06Z</time></trkpt><trkpt lat="45.26641318380766" lon="8.831793009335868"><ele>99.6</ele><time>2026-03-29T16:11:07Z</time></trkpt><trkpt lat="45.266491154782194" lon="8.831784595981468"><ele>99.8</ele><time>2026-03-29T16:11:08Z</time></trkpt><trkpt lat="45.266593323791575" lon="8.83176791534231"><ele>100.0</ele><time>2026-03-29T16:11:09Z</time></trkpt><trkpt lat="45.26670303305424" lon="8.831752703241522"><ele>100.0</ele><time>2026-03-29T16:11:10Z</time></trkpt><trkpt lat="45.2668030149265" lon="8.831739060532627"><ele>100.0</ele><time>2026-03-29T16:11:11Z</time></trkpt><trkpt lat="45.266883761112865" lon="8.831728042566326"><ele>100.0</ele><time>2026-03-29T16:11:12Z</time></trkpt><trkpt lat="45.26696241406243" lon="8.83171731024116"><ele>100.0</ele><time>2026-03-29T16:11:13Z</time></trkpt><trkpt lat="45.267085280352646" lon="8.83169370308343"><ele>100.0</ele><time>2026-03-29T16:11:15Z</time></trkpt><trkpt lat="45.26714858071513" lon="8.831668478345687"><ele>100.0</ele><time>2026-03-29T16:11:16Z</time></trkpt><trkpt lat="45.26722010035284" lon="8.831665041507891"><ele>100.0</ele><time>2026-03-29T16:11:19Z</time></trkpt><trkpt lat="45.267244947024174" lon="8.83177505423443"><ele>100.0</ele><time>2026-03-29T16:11:21Z</time></trkpt><trkpt lat="45.267253028900534" lon="8.831884961161636"><ele>100.0</ele><time>2026-03-29T16:11:22Z</time></trkpt><trkpt lat="45.26726780793371" lon="8.83205114735579"><ele>100.0</ele><time>2026-03-29T16:11:23Z</time></trkpt><trkpt lat="45.26728355051478" lon="8.832214123665823"><ele>100.2</ele><time>2026-03-29T16:11:24Z</time></trkpt><trkpt lat="45.26729745923876" lon="8.832358573120194"><ele>100.4</ele><time>2026-03-29T16:11:25Z</time></trkpt><trkpt lat="45.26731138964842" lon="8.832507963548688"><ele>100.6</ele><time>2026-03-29T16:11:26Z</time></trkpt><trkpt lat="45.26732740109007" lon="8.83266234188534"><ele>100.8</ele><time>2026-03-29T16:11:27Z</time></trkpt><trkpt lat="45.267344149627036" lon="8.832833478017704"><ele>101.0</ele><time>2026-03-29T16:11:28Z</time></trkpt><trkpt lat="45.267363028576085" lon="8.833008963818264"><ele>101.0</ele><time>2026-03-29T16:11:29Z</time></trkpt><trkpt lat="45.267382078314014" lon="8.833199720714992"><ele>101.0</ele><time>2026-03-29T16:11:30Z</time></trkpt><trkpt lat="45.26739696852077" lon="8.833365905953155"><ele>101.0</ele><time>2026-03-29T16:11:31Z</time></trkpt><trkpt lat="45.26740960399394" lon="8.833520156861757"><ele>101.0</ele><time>2026-03-29T16:11:32Z</time></trkpt><trkpt lat="45.26742265065646" lon="8.833647554226348"><ele>101.0</ele><time>2026-03-29T16:11:33Z</time></trkpt><trkpt lat="45.2674368785573" lon="8.833779962218758"><ele>101.0</ele><time>2026-03-29T16:11:34Z</time></trkpt><trkpt lat="45.267454897356544" lon="8.833944582666025"><ele>101.0</ele><time>2026-03-29T16:11:35Z</time></trkpt><trkpt lat="45.26747222490709" lon="8.834099807100747"><ele>101.0</ele><time>2026-03-29T16:11:36Z</time></trkpt><trkpt lat="45.267489341024294" lon="8.834246934976129"><ele>101.0</ele><time>2026-03-29T16:11:37Z</time></trkpt><trkpt lat="45.267502588496455" lon="8.834394516882126"><ele>100.99999999999999</ele><time>2026-03-29T16:11:38Z</time></trkpt><trkpt lat="45.26751252026309" lon="8.83452036039984"><ele>101.0</ele><time>2026-03-29T16:11:39Z</time></trkpt><trkpt lat="45.26752285496214" lon="8.834624687761284"><ele>101.0</ele><time>2026-03-29T16:11:40Z</time></trkpt><trkpt lat="45.26754036340234" lon="8.834747653412967"><ele>101.0</ele><time>2026-03-29T16:11:42Z</time></trkpt><trkpt lat="45.267608258266236" lon="8.834820799864472"><ele>100.99999999999999</ele><time>2026-03-29T16:11:44Z</time></trkpt><trkpt lat="45.26771318165099" lon="8.834808353689358"><ele>101.0</ele><time>2026-03-29T16:11:46Z</time></trkpt><trkpt lat="45.26781195630453" lon="8.834768585693519"><ele>101.0</ele><time>2026-03-29T16:11:47Z</time></trkpt><trkpt lat="45.26792344861154" lon="8.834724966106222"><ele>101.0</ele><time>2026-03-29T16:11:48Z</time></trkpt><trkpt lat="45.26804787899266" lon="8.834675562538216"><ele>101.0</ele><time>2026-03-29T16:11:49Z</time></trkpt><trkpt lat="45.268167979381616" lon="8.83462109249836"><ele>101.0</ele><time>2026-03-29T16:11:50Z</time></trkpt><trkpt lat="45.26828671656655" lon="8.834565902092438"><ele>101.19999999999999</ele><time>2026-03-29T16:11:51Z</time></trkpt><trkpt lat="45.26839922172937" lon="8.834520322001849"><ele>101.39999999999999</ele><time>2026-03-29T16:11:52Z</time></trkpt><trkpt lat="45.268513002736555" lon="8.834475346601359"><ele>101.6</ele><time>2026-03-29T16:11:53Z</time></trkpt><trkpt lat="45.26861369361199" lon="8.834436178121393"><ele>101.8</ele><time>2026-03-29T16:11:54Z</time></trkpt><trkpt lat="45.26870656650288" lon="8.834403932366552"><ele>102.0</ele><time>2026-03-29T16:11:55Z</time></trkpt><trkpt lat="45.26878527043613" lon="8.83437565804997"><ele>102.0</ele><time>2026-03-29T16:11:56Z</time></trkpt><trkpt lat="45.26887133742129" lon="8.83434218455757"><ele>102.0</ele><time>2026-03-29T16:11:57Z</time></trkpt><trkpt lat="45.268954066554855" lon="8.834310185055958"><ele>102.0</ele><time>2026-03-29T16:11:58Z</time></trkpt><trkpt lat="45.26903265392016" lon="8.834278570299915"><ele>102.0</ele><time>2026-03-29T16:11:59Z</time></trkpt><trkpt lat="45.26911198481543" lon="8.834248510205402"><ele>102.0</ele><time>2026-03-29T16:12:00Z</time></trkpt><trkpt lat="45.26920172714249" lon="8.834216350308136"><ele>102.0</ele><time>2026-03-29T16:12:01Z</time></trkpt><trkpt lat="45.269305361108124" lon="8.834183620683563"><ele>102.0</ele><time>2026-03-29T16:12:02Z</time></trkpt><trkpt lat="45.26939973136088" lon="8.834157762700128"><ele>102.0</ele><time>2026-03-29T16:12:03Z</time></trkpt><trkpt lat="45.26949268485731" lon="8.834127425066043"><ele>102.0</ele><time>2026-03-29T16:12:04Z</time></trkpt><trkpt lat="45.2695828446268" lon="8.834082694126042"><ele>102.0</ele><time>2026-03-29T16:12:05Z</time></trkpt><trkpt lat="45.26966416380278" lon="8.834041572437572"><ele>102.0</ele><time>2026-03-29T16:12:06Z</time></trkpt><trkpt lat="45.26976412654237" lon="8.83400135483813"><ele>101.8</ele><time>2026-03-29T16:12:07Z</time></trkpt><trkpt lat="45.2698583805489" lon="8.83396514118377"><ele>101.6</ele><time>2026-03-29T16:12:08Z</time></trkpt><trkpt lat="45.26995192792029" lon="8.833926203254894"><ele>101.39999999999999</ele><time>2026-03-29T16:12:09Z</time></trkpt><trkpt lat="45.27004317655911" lon="8.833880092374818"><ele>101.19999999999999</ele><time>2026-03-29T16:12:10Z</time></trkpt><trkpt lat="45.27010571384866" lon="8.833856076871704"><ele>101.0</ele><time>2026-03-29T16:12:11Z</time></trkpt><trkpt lat="45.27020257822184" lon="8.8338170704374"><ele>100.99999999999999</ele><time>2026-03-29T16:12:12Z</time></trkpt><trkpt lat="45.27029474829814" lon="8.833793678043715"><ele>101.0</ele><time>2026-03-29T16:12:13Z</time></trkpt><trkpt lat="45.270385606195475" lon="8.833766163760394"><ele>101.0</ele><time>2026-03-29T16:12:14Z</time></trkpt><trkpt lat="45.270464218632014" lon="8.833743088658938"><ele>101.0</ele><time>2026-03-29T16:12:15Z</time></trkpt><trkpt lat="45.27054091233833" lon="8.833710524117118"><ele>100.99999999999999</ele><time>2026-03-29T16:12:16Z</time></trkpt><trkpt lat="45.2706142908651" lon="8.83367980431312"><ele>101.0</ele><time>2026-03-29T16:12:17Z</time></trkpt><trkpt lat="45.27069837239638" lon="8.833644467228691"><ele>100.99999999999999</ele><time>2026-03-29T16:12:18Z</time></trkpt><trkpt lat="45.270776209397035" lon="8.833611651430695"><ele>101.0</ele><time>2026-03-29T16:12:19Z</time></trkpt><trkpt lat="45.27084451719137" lon="8.833580462438011"><ele>101.0</ele><time>2026-03-29T16:12:20Z</time></trkpt><trkpt lat="45.270950267035595" lon="8.833538582358758"><ele>101.0</ele><time>2026-03-29T16:12:22Z</time></trkpt><trkpt lat="45.27102186968167" lon="8.833514535214507"><ele>100.99999999999999</ele><time>2026-03-29T16:12:23Z</time></trkpt><trkpt lat="45.27109523449807" lon="8.83348448110514"><ele>101.0</ele><time>2026-03-29T16:12:24Z</time></trkpt><trkpt lat="45.271183635161805" lon="8.833445000050736"><ele>101.0</ele><time>2026-03-29T16:12:25Z</time></trkpt><trkpt lat="45.27127536343661" lon="8.833411650478624"><ele>101.0</ele><time>2026-03-29T16:12:26Z</time></trkpt><trkpt lat="45.271384374139785" lon="8.8333708929363"><ele>101.0</ele><time>2026-03-29T16:12:27Z</time></trkpt><trkpt lat="45.271486745683255" lon="8.833334587165787"><ele>101.0</ele><time>2026-03-29T16:12:28Z</time></trkpt><trkpt lat="45.27157446545754" lon="8.833300810906277"><ele>101.0</ele><time>2026-03-29T16:12:29Z</time></trkpt><trkpt lat="45.27177716989316" lon="8.833227119033486"><ele>100.99999999999999</ele><time>2026-03-29T16:12:31Z</time></trkpt><trkpt lat="45.271871616819496" lon="8.833193636640695"><ele>101.0</ele><time>2026-03-29T16:12:32Z</time></trkpt><trkpt lat="45.271960958466586" lon="8.833163075994703"><ele>101.0</ele><time>2026-03-29T16:12:33Z</time></trkpt><trkpt lat="45.27205655137267" lon="8.8331317888491"><ele>101.0</ele><time>2026-03-29T16:12:34Z</time></trkpt><trkpt lat="45.27213348527292" lon="8.833108618676585"><ele>100.99999999999999</ele><time>2026-03-29T16:12:35Z</time></trkpt><trkpt lat="45.272196390210595" lon="8.833081280493198"><ele>101.0</ele><time>2026-03-29T16:12:36Z</time></trkpt><trkpt lat="45.272254899843105" lon="8.833045655036996"><ele>101.0</ele><time>2026-03-29T16:12:37Z</time></trkpt><trkpt lat="45.27234926539204" lon="8.832951322038436"><ele>101.0</ele><time>2026-03-29T16:12:39Z</time></trkpt><trkpt lat="45.27245934939686" lon="8.832918397988136"><ele>101.0</ele><time>2026-03-29T16:12:41Z</time></trkpt><trkpt lat="45.27253508782392" lon="8.832923880587764"><ele>101.0</ele><time>2026-03-29T16:12:42Z</time></trkpt><trkpt lat="45.272641913441596" lon="8.83293477160067"><ele>101.0</ele><time>2026-03-29T16:12:43Z</time></trkpt><trkpt lat="45.27273360248862" lon="8.832950208429411"><ele>101.0</ele><time>2026-03-29T16:12:44Z</time></trkpt><trkpt lat="45.27284354712862" lon="8.832951022635436"><ele>101.0</ele><time>2026-03-29T16:12:45Z</time></trkpt><trkpt lat="45.272935024214185" lon="8.832952345800305"><ele>101.0</ele><time>2026-03-29T16:12:46Z</time></trkpt><trkpt lat="45.27303579360581" lon="8.832946253056935"><ele>101.0</ele><time>2026-03-29T16:12:47Z</time></trkpt><trkpt lat="45.27312883159763" lon="8.832937393275731"><ele>101.0</ele><time>2026-03-29T16:12:48Z</time></trkpt><trkpt lat="45.27322521123088" lon="8.832918542731708"><ele>101.0</ele><time>2026-03-29T16:12:49Z</time></trkpt><trkpt lat="45.273320891218525" lon="8.832895942024585"><ele>101.0</ele><time>2026-03-29T16:12:50Z</time></trkpt><trkpt lat="45.27342231093355" lon="8.832875002904915"><ele>101.0</ele><time>2026-03-29T16:12:51Z</time></trkpt><trkpt lat="45.273513923607744" lon="8.832853407132282"><ele>101.0</ele><time>2026-03-29T16:12:52Z</time></trkpt><trkpt lat="45.2735979031446" lon="8.832821519510697"><ele>101.0</ele><time>2026-03-29T16:12:53Z</time></trkpt><trkpt lat="45.273677154593834" lon="8.832776825789477"><ele>100.99999999999999</ele><time>2026-03-29T16:12:54Z</time></trkpt><trkpt lat="45.27376850257022" lon="8.832709466223124"><ele>101.0</ele><time>2026-03-29T16:12:55Z</time></trkpt><trkpt lat="45.27385783210065" lon="8.832636332555216"><ele>101.0</ele><time>2026-03-29T16:12:56Z</time></trkpt><trkpt lat="45.273928357190805" lon="8.832591202466133"><ele>101.0</ele><time>2026-03-29T16:12:57Z</time></trkpt><trkpt lat="45.273993083107285" lon="8.832543639393302"><ele>100.99999999999999</ele><time>2026-03-29T16:12:58Z</time></trkpt><trkpt lat="45.27406252748559" lon="8.832476705895917"><ele>101.0</ele><time>2026-03-29T16:12:59Z</time></trkpt><trkpt lat="45.27412268545633" lon="8.832428007927847"><ele>101.19999999999999</ele><time>2026-03-29T16:13:00Z</time></trkpt><trkpt lat="45.274224975191856" lon="8.832350041965572"><ele>101.39999999999999</ele><time>2026-03-29T16:13:02Z</time></trkpt><trkpt lat="45.274309382176284" lon="8.832281045642533"><ele>101.6</ele><time>2026-03-29T16:13:04Z</time></trkpt><trkpt lat="45.27437833802403" lon="8.832223805769477"><ele>101.8</ele><time>2026-03-29T16:13:06Z</time></trkpt><trkpt lat="45.27444103151307" lon="8.832161135017431"><ele>102.0</ele><time>2026-03-29T16:13:08Z</time></trkpt><trkpt lat="45.27451730485542" lon="8.83207583893703"><ele>102.0</ele><time>2026-03-29T16:13:10Z</time></trkpt><trkpt lat="45.274571157580645" lon="8.832024528594209"><ele>102.0</ele><time>2026-03-29T16:13:11Z</time></trkpt><trkpt lat="45.27463362201567" lon="8.83196673761784"><ele>102.0</ele><time>2026-03-29T16:13:12Z</time></trkpt><trkpt lat="45.274693586927555" lon="8.831905219243184"><ele>102.0</ele><time>2026-03-29T16:13:13Z</time></trkpt><trkpt lat="45.27479270866244" lon="8.831798560497639"><ele>102.0</ele><time>2026-03-29T16:13:15Z</time></trkpt><trkpt lat="45.274874621845996" lon="8.831706181509029"><ele>102.0</ele><time>2026-03-29T16:13:17Z</time></trkpt><trkpt lat="45.27493991196988" lon="8.831630083952232"><ele>101.83333333333333</ele><time>2026-03-29T16:13:19Z</time></trkpt><trkpt lat="45.27502901522811" lon="8.8316589108283"><ele>101.66666666666666</ele><time>2026-03-29T16:13:22Z</time></trkpt><trkpt lat="45.275086611777965" lon="8.831784347378964"><ele>101.5</ele><time>2026-03-29T16:13:24Z</time></trkpt><trkpt lat="45.27512383139785" lon="8.831870996243543"><ele>101.33333333333333</ele><time>2026-03-29T16:13:25Z</time></trkpt><trkpt lat="45.275173249724205" lon="8.83193564764433"><ele>101.16666666666666</ele><time>2026-03-29T16:13:26Z</time></trkpt><trkpt lat="45.27525164812195" lon="8.832011226447571"><ele>101.0</ele><time>2026-03-29T16:13:27Z</time></trkpt><trkpt lat="45.275355611847836" lon="8.832103176338983"><ele>101.0</ele><time>2026-03-29T16:13:28Z</time></trkpt><trkpt lat="45.275446613015944" lon="8.83218216800217"><ele>101.0</ele><time>2026-03-29T16:13:29Z</time></trkpt><trkpt lat="45.275535171671194" lon="8.832251499853253"><ele>101.0</ele><time>2026-03-29T16:13:30Z</time></trkpt><trkpt lat="45.275628244505256" lon="8.832323127919897"><ele>101.0</ele><time>2026-03-29T16:13:31Z</time></trkpt><trkpt lat="45.27573176719239" lon="8.832407247322429"><ele>101.0</ele><time>2026-03-29T16:13:32Z</time></trkpt><trkpt lat="45.2758406191746" lon="8.832502535358268"><ele>101.0</ele><time>2026-03-29T16:13:33Z</time></trkpt><trkpt lat="45.27593621377876" lon="8.832590522138595"><ele>101.0</ele><time>2026-03-29T16:13:34Z</time></trkpt><trkpt lat="45.27602736850365" lon="8.83268394752608"><ele>101.0</ele><time>2026-03-29T16:13:35Z</time></trkpt><trkpt lat="45.27612651645051" lon="8.83277623857465"><ele>101.0</ele><time>2026-03-29T16:13:36Z</time></trkpt><trkpt lat="45.276242647068585" lon="8.83287882748189"><ele>101.0</ele><time>2026-03-29T16:13:37Z</time></trkpt><trkpt lat="45.27636500543233" lon="8.832988041054968"><ele>101.0</ele><time>2026-03-29T16:13:38Z</time></trkpt><trkpt lat="45.276487837114935" lon="8.833096823395636"><ele>101.0</ele><time>2026-03-29T16:13:39Z</time></trkpt><trkpt lat="45.27659547168122" lon="8.833197567050865"><ele>101.0</ele><time>2026-03-29T16:13:40Z</time></trkpt><trkpt lat="45.27669342337829" lon="8.833292136357352"><ele>101.19999999999999</ele><time>2026-03-29T16:13:41Z</time></trkpt><trkpt lat="45.27679166422363" lon="8.833380235700242"><ele>101.39999999999999</ele><time>2026-03-29T16:13:42Z</time></trkpt><trkpt lat="45.27687998559515" lon="8.83345777430518"><ele>101.6</ele><time>2026-03-29T16:13:43Z</time></trkpt><trkpt lat="45.276959643972575" lon="8.833529838236162"><ele>101.8</ele><time>2026-03-29T16:13:44Z</time></trkpt><trkpt lat="45.27704381863099" lon="8.833606881313994"><ele>102.0</ele><time>2026-03-29T16:13:45Z</time></trkpt><trkpt lat="45.27712105616581" lon="8.833677493427817"><ele>102.0</ele><time>2026-03-29T16:13:46Z</time></trkpt><trkpt lat="45.277197589892836" lon="8.833732770153604"><ele>102.0</ele><time>2026-03-29T16:13:47Z</time></trkpt><trkpt lat="45.27726191197658" lon="8.83376576343028"><ele>102.0</ele><time>2026-03-29T16:13:48Z</time></trkpt><trkpt lat="45.277321516701015" lon="8.83379528679338"><ele>102.0</ele><time>2026-03-29T16:13:49Z</time></trkpt><trkpt lat="45.27739026869174" lon="8.833820313167454"><ele>102.0</ele><time>2026-03-29T16:13:50Z</time></trkpt><trkpt lat="45.27749381975974" lon="8.833838850630741"><ele>102.0</ele><time>2026-03-29T16:13:52Z</time></trkpt><trkpt lat="45.27757026537836" lon="8.833870935494085"><ele>102.0</ele><time>2026-03-29T16:13:54Z</time></trkpt><trkpt lat="45.277598623642064" lon="8.83396019345358"><ele>102.0</ele><time>2026-03-29T16:13:56Z</time></trkpt><trkpt lat="45.277564430861744" lon="8.834074219810756"><ele>102.0</ele><time>2026-03-29T16:13:58Z</time></trkpt><trkpt lat="45.277482018407476" lon="8.834221945453407"><ele>102.0</ele><time>2026-03-29T16:14:00Z</time></trkpt><trkpt lat="45.27742576468342" lon="8.834320807401625"><ele>102.0</ele><time>2026-03-29T16:14:01Z</time></trkpt><trkpt lat="45.27736958840288" lon="8.83442440811502"><ele>102.16666666666667</ele><time>2026-03-29T16:14:02Z</time></trkpt><trkpt lat="45.277317654367295" lon="8.834537442750594"><ele>102.33333333333334</ele><time>2026-03-29T16:14:03Z</time></trkpt><trkpt lat="45.2772693026927" lon="8.834647515311891"><ele>102.5</ele><time>2026-03-29T16:14:04Z</time></trkpt><trkpt lat="45.277225900821755" lon="8.834770195545843"><ele>102.66666666666667</ele><time>2026-03-29T16:14:05Z</time></trkpt><trkpt lat="45.277188603855045" lon="8.834897753683986"><ele>102.83333333333334</ele><time>2026-03-29T16:14:06Z</time></trkpt><trkpt lat="45.277165676594564" lon="8.834982790892973"><ele>103.0</ele><time>2026-03-29T16:14:07Z</time></trkpt><trkpt lat="45.27714785154756" lon="8.835080219496454"><ele>103.0</ele><time>2026-03-29T16:14:08Z</time></trkpt><trkpt lat="45.27712816059168" lon="8.835183766984457"><ele>103.0</ele><time>2026-03-29T16:14:09Z</time></trkpt><trkpt lat="45.277110003669" lon="8.835290335681673"><ele>103.0</ele><time>2026-03-29T16:14:10Z</time></trkpt><trkpt lat="45.27710587818928" lon="8.835492850932905"><ele>103.0</ele><time>2026-03-29T16:14:12Z</time></trkpt><trkpt lat="45.27712839903358" lon="8.835629788282333"><ele>103.0</ele><time>2026-03-29T16:14:14Z</time></trkpt><trkpt lat="45.27716638294257" lon="8.83572886841928"><ele>103.0</ele><time>2026-03-29T16:14:16Z</time></trkpt><trkpt lat="45.27723564388798" lon="8.835767217410968"><ele>103.0</ele><time>2026-03-29T16:14:18Z</time></trkpt><trkpt lat="45.27735956196702" lon="8.835724782441002"><ele>103.0</ele><time>2026-03-29T16:14:20Z</time></trkpt><trkpt lat="45.27744530027075" lon="8.835683267979746"><ele>103.0</ele><time>2026-03-29T16:14:21Z</time></trkpt><trkpt lat="45.277542504434095" lon="8.835628895388664"><ele>103.0</ele><time>2026-03-29T16:14:22Z</time></trkpt><trkpt lat="45.27765022973628" lon="8.835605370124238"><ele>103.2</ele><time>2026-03-29T16:14:23Z</time></trkpt><trkpt lat="45.27774048166296" lon="8.835563027352405"><ele>103.4</ele><time>2026-03-29T16:14:24Z</time></trkpt><trkpt lat="45.27783470242617" lon="8.835510737977707"><ele>103.60000000000001</ele><time>2026-03-29T16:14:25Z</time></trkpt><trkpt lat="45.27794400967634" lon="8.835477536152268"><ele>103.80000000000001</ele><time>2026-03-29T16:14:26Z</time></trkpt><trkpt lat="45.278048056201456" lon="8.835455917815308"><ele>104.0</ele><time>2026-03-29T16:14:27Z</time></trkpt><trkpt lat="45.27816646846317" lon="8.835435202628256"><ele>104.0</ele><time>2026-03-29T16:14:28Z</time></trkpt><trkpt lat="45.27830699775371" lon="8.835408429139871"><ele>104.0</ele><time>2026-03-29T16:14:29Z</time></trkpt><trkpt lat="45.27844740781754" lon="8.835381678270425"><ele>104.0</ele><time>2026-03-29T16:14:30Z</time></trkpt><trkpt lat="45.278589964751376" lon="8.835357984434278"><ele>104.0</ele><time>2026-03-29T16:14:31Z</time></trkpt><trkpt lat="45.27872386013489" lon="8.835335161948898"><ele>104.0</ele><time>2026-03-29T16:14:32Z</time></trkpt><trkpt lat="45.27884959132114" lon="8.835310717971495"><ele>104.0</ele><time>2026-03-29T16:14:33Z</time></trkpt><trkpt lat="45.27897886795559" lon="8.835285584646588"><ele>104.0</ele><time>2026-03-29T16:14:34Z</time></trkpt><trkpt lat="45.27911957021865" lon="8.835258230064754"><ele>104.0</ele><time>2026-03-29T16:14:35Z</time></trkpt><trkpt lat="45.279266142989385" lon="8.835230612941677"><ele>104.5</ele><time>2026-03-29T16:14:36Z</time></trkpt><trkpt lat="45.279412012187606" lon="8.835203598427833"><ele>105.0</ele><time>2026-03-29T16:14:37Z</time></trkpt><trkpt lat="45.27953442603062" lon="8.835163003042634"><ele>105.5</ele><time>2026-03-29T16:14:38Z</time></trkpt><trkpt lat="45.27964201745651" lon="8.835178776883973"><ele>106.0</ele><time>2026-03-29T16:14:39Z</time></trkpt><trkpt lat="45.279744910824384" lon="8.835205463253319"><ele>105.66666666666667</ele><time>2026-03-29T16:14:40Z</time></trkpt><trkpt lat="45.279867962435766" lon="8.835257317355419"><ele>105.33333333333334</ele><time>2026-03-29T16:14:41Z</time></trkpt><trkpt lat="45.280015409886744" lon="8.835325217253494"><ele>105.0</ele><time>2026-03-29T16:14:42Z</time></trkpt><trkpt lat="45.28017602015822" lon="8.835406845724686"><ele>105.0</ele><time>2026-03-29T16:14:43Z</time></trkpt><trkpt lat="45.28032331845381" lon="8.835459927613996"><ele>105.0</ele><time>2026-03-29T16:14:44Z</time></trkpt><trkpt lat="45.28045741763257" lon="8.835560104411185"><ele>105.0</ele><time>2026-03-29T16:14:45Z</time></trkpt><trkpt lat="45.28061188045468" lon="8.835649470508494"><ele>104.33333333333334</ele><time>2026-03-29T16:14:46Z</time></trkpt><trkpt lat="45.280753135641596" lon="8.835732039341693"><ele>103.66666666666667</ele><time>2026-03-29T16:14:47Z</time></trkpt><trkpt lat="45.280896378939026" lon="8.835815770365041"><ele>103.0</ele><time>2026-03-29T16:14:48Z</time></trkpt><trkpt lat="45.28104016013486" lon="8.835899815742087"><ele>103.25</ele><time>2026-03-29T16:14:49Z</time></trkpt><trkpt lat="45.28116831070148" lon="8.835974724500094"><ele>103.5</ele><time>2026-03-29T16:14:50Z</time></trkpt><trkpt lat="45.28128236356601" lon="8.836041392558325"><ele>103.75</ele><time>2026-03-29T16:14:51Z</time></trkpt><trkpt lat="45.28138505673124" lon="8.836100861119661"><ele>104.0</ele><time>2026-03-29T16:14:52Z</time></trkpt><trkpt lat="45.28148786377675" lon="8.83615871009288"><ele>104.33333333333333</ele><time>2026-03-29T16:14:53Z</time></trkpt><trkpt lat="45.2815797692237" lon="8.836210424820962"><ele>104.66666666666666</ele><time>2026-03-29T16:14:54Z</time></trkpt><trkpt lat="45.28165219420656" lon="8.83625117794158"><ele>105.0</ele><time>2026-03-29T16:14:55Z</time></trkpt><trkpt lat="45.28171411368294" lon="8.836286019671466"><ele>105.33333333333334</ele><time>2026-03-29T16:14:56Z</time></trkpt><trkpt lat="45.28180293036895" lon="8.83633949306796"><ele>105.66666666666667</ele><time>2026-03-29T16:14:58Z</time></trkpt><trkpt lat="45.281882537142096" lon="8.836392213934982"><ele>106.0</ele><time>2026-03-29T16:15:01Z</time></trkpt><trkpt lat="45.28195983719059" lon="8.836165898064685"><ele>106.0</ele><time>2026-03-29T16:15:03Z</time></trkpt><trkpt lat="45.281941872942305" lon="8.83599636336221"><ele>106.0</ele><time>2026-03-29T16:15:05Z</time></trkpt><trkpt lat="45.281915087080066" lon="8.835865151529688"><ele>106.0</ele><time>2026-03-29T16:15:06Z</time></trkpt><trkpt lat="45.28188277574528" lon="8.835701882823221"><ele>106.0</ele><time>2026-03-29T16:15:07Z</time></trkpt><trkpt lat="45.28186059313406" lon="8.835558882840472"><ele>106.0</ele><time>2026-03-29T16:15:08Z</time></trkpt><trkpt lat="45.28184283354734" lon="8.835418066844307"><ele>105.6</ele><time>2026-03-29T16:15:09Z</time></trkpt><trkpt lat="45.28183085034862" lon="8.835288768561739"><ele>105.19999999999999</ele><time>2026-03-29T16:15:10Z</time></trkpt><trkpt lat="45.28181773955175" lon="8.83515343834132"><ele>104.80000000000001</ele><time>2026-03-29T16:15:11Z</time></trkpt><trkpt lat="45.281812432771154" lon="8.835037189107044"><ele>104.4</ele><time>2026-03-29T16:15:12Z</time></trkpt><trkpt lat="45.28180366524648" lon="8.83485656867323"><ele>104.0</ele><time>2026-03-29T16:15:14Z</time></trkpt><trkpt lat="45.28179813080098" lon="8.834717370775527"><ele>104.0</ele><time>2026-03-29T16:15:16Z</time></trkpt><trkpt lat="45.28182380924792" lon="8.834606451499026"><ele>104.0</ele><time>2026-03-29T16:15:19Z</time></trkpt><trkpt lat="45.28189956767862" lon="8.834582579085668"><ele>104.0</ele><time>2026-03-29T16:15:21Z</time></trkpt><trkpt lat="45.2820596837622" lon="8.83459443139298"><ele>104.0</ele><time>2026-03-29T16:15:23Z</time></trkpt><trkpt lat="45.282165768022615" lon="8.834597825440017"><ele>104.0</ele><time>2026-03-29T16:15:24Z</time></trkpt><trkpt lat="45.28225497528136" lon="8.83460209027506"><ele>103.6</ele><time>2026-03-29T16:15:25Z</time></trkpt><trkpt lat="45.28234956958856" lon="8.83460347740173"><ele>103.2</ele><time>2026-03-29T16:15:26Z</time></trkpt><trkpt lat="45.28242774176558" lon="8.834606628769604"><ele>102.8</ele><time>2026-03-29T16:15:27Z</time></trkpt><trkpt lat="45.28255378620481" lon="8.83461456831013"><ele>102.39999999999999</ele><time>2026-03-29T16:15:29Z</time></trkpt><trkpt lat="45.28265068262092" lon="8.834597990627039"><ele>102.0</ele><time>2026-03-29T16:15:31Z</time></trkpt><trkpt lat="45.28275074326831" lon="8.834541746155297"><ele>102.0</ele><time>2026-03-29T16:15:33Z</time></trkpt><trkpt lat="45.282883482169694" lon="8.83453821331883"><ele>102.0</ele><time>2026-03-29T16:15:35Z</time></trkpt><trkpt lat="45.28296100681884" lon="8.834539722355899"><ele>102.0</ele><time>2026-03-29T16:15:36Z</time></trkpt><trkpt lat="45.28304254996694" lon="8.834534631727154"><ele>102.0</ele><time>2026-03-29T16:15:37Z</time></trkpt><trkpt lat="45.28314701522914" lon="8.834516618542501"><ele>102.0</ele><time>2026-03-29T16:15:38Z</time></trkpt><trkpt lat="45.28325327021338" lon="8.834495456886552"><ele>102.0</ele><time>2026-03-29T16:15:39Z</time></trkpt><trkpt lat="45.283370452360266" lon="8.834477147451503"><ele>102.0</ele><time>2026-03-29T16:15:40Z</time></trkpt><trkpt lat="45.28348536619462" lon="8.834462677965044"><ele>102.0</ele><time>2026-03-29T16:15:41Z</time></trkpt><trkpt lat="45.28358475428802" lon="8.834453783725568"><ele>102.0</ele><time>2026-03-29T16:15:42Z</time></trkpt><trkpt lat="45.283676339574285" lon="8.83443965006638"><ele>102.0</ele><time>2026-03-29T16:15:43Z</time></trkpt><trkpt lat="45.28376844453998" lon="8.83442190014132"><ele>102.0</ele><time>2026-03-29T16:15:44Z</time></trkpt><trkpt lat="45.283876747200274" lon="8.834400203843636"><ele>102.0</ele><time>2026-03-29T16:15:45Z</time></trkpt><trkpt lat="45.28399219070148" lon="8.834372818700361"><ele>102.0</ele><time>2026-03-29T16:15:46Z</time></trkpt><trkpt lat="45.28410118587431" lon="8.83434525181838"><ele>102.0</ele><time>2026-03-29T16:15:47Z</time></trkpt><trkpt lat="45.28421618103497" lon="8.834314951774548"><ele>102.0</ele><time>2026-03-29T16:15:48Z</time></trkpt><trkpt lat="45.28433206590024" lon="8.834281756213546"><ele>102.0</ele><time>2026-03-29T16:15:49Z</time></trkpt><trkpt lat="45.28444854528514" lon="8.834245798971367"><ele>102.0</ele><time>2026-03-29T16:15:50Z</time></trkpt><trkpt lat="45.28457040188199" lon="8.834213211544009"><ele>102.0</ele><time>2026-03-29T16:15:51Z</time></trkpt><trkpt lat="45.28470706172663" lon="8.83417708123006"><ele>102.0</ele><time>2026-03-29T16:15:52Z</time></trkpt><trkpt lat="45.28483878939536" lon="8.834140193472514"><ele>102.0</ele><time>2026-03-29T16:15:53Z</time></trkpt><trkpt lat="45.28496095485277" lon="8.83410109008333"><ele>102.0</ele><time>2026-03-29T16:15:54Z</time></trkpt><trkpt lat="45.28509155008476" lon="8.834055884363444"><ele>102.0</ele><time>2026-03-29T16:15:55Z</time></trkpt><trkpt lat="45.285213960075495" lon="8.834012983107607"><ele>102.0</ele><time>2026-03-29T16:15:56Z</time></trkpt><trkpt lat="45.28533275379441" lon="8.833971493114964"><ele>102.0</ele><time>2026-03-29T16:15:57Z</time></trkpt><trkpt lat="45.285457966787064" lon="8.833932843879083"><ele>102.0</ele><time>2026-03-29T16:15:58Z</time></trkpt><trkpt lat="45.28558222313996" lon="8.83390020561552"><ele>102.0</ele><time>2026-03-29T16:15:59Z</time></trkpt><trkpt lat="45.285703098856544" lon="8.833870738113264"><ele>102.8</ele><time>2026-03-29T16:16:00Z</time></trkpt><trkpt lat="45.28581900744166" lon="8.83384056666947"><ele>103.6</ele><time>2026-03-29T16:16:01Z</time></trkpt><trkpt lat="45.28592417135846" lon="8.833809949320802"><ele>104.39999999999999</ele><time>2026-03-29T16:16:02Z</time></trkpt><trkpt lat="45.28601937926811" lon="8.833780992842888"><ele>105.19999999999999</ele><time>2026-03-29T16:16:03Z</time></trkpt><trkpt lat="45.28611194017296" lon="8.833754461090072"><ele>106.0</ele><time>2026-03-29T16:16:04Z</time></trkpt><trkpt lat="45.28621546308155" lon="8.833727886691095"><ele>106.0</ele><time>2026-03-29T16:16:05Z</time></trkpt><trkpt lat="45.286310642231165" lon="8.83370432958854"><ele>106.0</ele><time>2026-03-29T16:16:06Z</time></trkpt><trkpt lat="45.2864091205552" lon="8.83367706018257"><ele>106.0</ele><time>2026-03-29T16:16:07Z</time></trkpt><trkpt lat="45.286508352814934" lon="8.833647410320548"><ele>106.0</ele><time>2026-03-29T16:16:08Z</time></trkpt><trkpt lat="45.28660399278591" lon="8.833622684033635"><ele>106.0</ele><time>2026-03-29T16:16:09Z</time></trkpt><trkpt lat="45.28669638693529" lon="8.8336075757306"><ele>106.16666666666667</ele><time>2026-03-29T16:16:10Z</time></trkpt><trkpt lat="45.28678115432155" lon="8.833609189636913"><ele>106.33333333333334</ele><time>2026-03-29T16:16:11Z</time></trkpt><trkpt lat="45.28688118090917" lon="8.83362190330316"><ele>106.5</ele><time>2026-03-29T16:16:12Z</time></trkpt><trkpt lat="45.28696851139915" lon="8.833633535571673"><ele>106.66666666666666</ele><time>2026-03-29T16:16:13Z</time></trkpt><trkpt lat="45.28705516212662" lon="8.833633460721808"><ele>106.83333333333333</ele><time>2026-03-29T16:16:14Z</time></trkpt><trkpt lat="45.28713242106537" lon="8.833613731103155"><ele>107.0</ele><time>2026-03-29T16:16:15Z</time></trkpt><trkpt lat="45.28725281315786" lon="8.83358392146899"><ele>106.16666666666666</ele><time>2026-03-29T16:16:17Z</time></trkpt><trkpt lat="45.28732390646808" lon="8.833570946631925"><ele>105.33333333333333</ele><time>2026-03-29T16:16:18Z</time></trkpt><trkpt lat="45.28739026698786" lon="8.833562927142099"><ele>104.5</ele><time>2026-03-29T16:16:19Z</time></trkpt><trkpt lat="45.28745474402141" lon="8.83356819492411"><ele>103.66666666666666</ele><time>2026-03-29T16:16:20Z</time></trkpt><trkpt lat="45.28756804195621" lon="8.833570033520415"><ele>102.83333333333333</ele><time>2026-03-29T16:16:22Z</time></trkpt><trkpt lat="45.28766177743941" lon="8.833555550115037"><ele>102.0</ele><time>2026-03-29T16:16:24Z</time></trkpt><trkpt lat="45.28775537132873" lon="8.833541228352747"><ele>102.0</ele><time>2026-03-29T16:16:26Z</time></trkpt><trkpt lat="45.28783651655213" lon="8.83351873527804"><ele>102.0</ele><time>2026-03-29T16:16:28Z</time></trkpt><trkpt lat="45.28794068932518" lon="8.833488435710336"><ele>102.0</ele><time>2026-03-29T16:16:30Z</time></trkpt><trkpt lat="45.2880155853078" lon="8.833476134339675"><ele>102.0</ele><time>2026-03-29T16:16:31Z</time></trkpt><trkpt lat="45.28809306809607" lon="8.833460640034797"><ele>102.0</ele><time>2026-03-29T16:16:32Z</time></trkpt><trkpt lat="45.28816212689809" lon="8.833441299735851"><ele>102.0</ele><time>2026-03-29T16:16:33Z</time></trkpt><trkpt lat="45.288239017372966" lon="8.833420206021367"><ele>102.16666666666667</ele><time>2026-03-29T16:16:34Z</time></trkpt><trkpt lat="45.28831958532662" lon="8.833393537894777"><ele>102.33333333333334</ele><time>2026-03-29T16:16:35Z</time></trkpt><trkpt lat="45.288399257662775" lon="8.833364421012513"><ele>102.5</ele><time>2026-03-29T16:16:36Z</time></trkpt><trkpt lat="45.28848694473248" lon="8.833327440178365"><ele>102.66666666666667</ele><time>2026-03-29T16:16:37Z</time></trkpt><trkpt lat="45.28856542117647" lon="8.833293864640948"><ele>102.83333333333334</ele><time>2026-03-29T16:16:38Z</time></trkpt><trkpt lat="45.28864361371747" lon="8.83325348447385"><ele>103.0</ele><time>2026-03-29T16:16:39Z</time></trkpt><trkpt lat="45.28872672500485" lon="8.83321321873131"><ele>103.0</ele><time>2026-03-29T16:16:40Z</time></trkpt><trkpt lat="45.288818145758725" lon="8.833169458730145"><ele>103.0</ele><time>2026-03-29T16:16:41Z</time></trkpt><trkpt lat="45.28890358604098" lon="8.833130942426385"><ele>103.0</ele><time>2026-03-29T16:16:42Z</time></trkpt><trkpt lat="45.28899777808911" lon="8.833087708821598"><ele>103.0</ele><time>2026-03-29T16:16:43Z</time></trkpt><trkpt lat="45.28910617636561" lon="8.83304045863119"><ele>103.0</ele><time>2026-03-29T16:16:44Z</time></trkpt><trkpt lat="45.28921056097555" lon="8.832994627471772"><ele>103.2</ele><time>2026-03-29T16:16:45Z</time></trkpt><trkpt lat="45.28931700340231" lon="8.83294454040965"><ele>103.4</ele><time>2026-03-29T16:16:46Z</time></trkpt><trkpt lat="45.289412310927496" lon="8.832897770313437"><ele>103.60000000000001</ele><time>2026-03-29T16:16:47Z</time></trkpt><trkpt lat="45.28950414116835" lon="8.832861129806965"><ele>103.80000000000001</ele><time>2026-03-29T16:16:48Z</time></trkpt><trkpt lat="45.28959388254099" lon="8.832819904804456"><ele>104.0</ele><time>2026-03-29T16:16:49Z</time></trkpt><trkpt lat="45.28969271948156" lon="8.832760563334427"><ele>104.0</ele><time>2026-03-29T16:16:50Z</time></trkpt><trkpt lat="45.28978507926826" lon="8.8326941373919"><ele>104.0</ele><time>2026-03-29T16:16:51Z</time></trkpt><trkpt lat="45.289874061212416" lon="8.832628942301655"><ele>104.0</ele><time>2026-03-29T16:16:52Z</time></trkpt><trkpt lat="45.289977687873225" lon="8.832547290461715"><ele>104.0</ele><time>2026-03-29T16:16:53Z</time></trkpt><trkpt lat="45.29007809807361" lon="8.832475076875085"><ele>104.0</ele><time>2026-03-29T16:16:54Z</time></trkpt><trkpt lat="45.29018247455532" lon="8.83239991244064"><ele>104.0</ele><time>2026-03-29T16:16:55Z</time></trkpt><trkpt lat="45.29028935360696" lon="8.832326549795463"><ele>104.0</ele><time>2026-03-29T16:16:56Z</time></trkpt><trkpt lat="45.29040323855522" lon="8.832252627944598"><ele>104.0</ele><time>2026-03-29T16:16:57Z</time></trkpt><trkpt lat="45.29051614515916" lon="8.832180851653144"><ele>104.0</ele><time>2026-03-29T16:16:58Z</time></trkpt><trkpt lat="45.290626292769744" lon="8.832110224329549"><ele>104.0</ele><time>2026-03-29T16:16:59Z</time></trkpt><trkpt lat="45.290734115474606" lon="8.83205394304241"><ele>104.0</ele><time>2026-03-29T16:17:00Z</time></trkpt><trkpt lat="45.290845911185215" lon="8.832010127335739"><ele>104.0</ele><time>2026-03-29T16:17:01Z</time></trkpt><trkpt lat="45.2909564338677" lon="8.83197254995424"><ele>104.0</ele><time>2026-03-29T16:17:02Z</time></trkpt><trkpt lat="45.291070548011874" lon="8.831931048858243"><ele>104.0</ele><time>2026-03-29T16:17:03Z</time></trkpt><trkpt lat="45.291189588745546" lon="8.831875751365333"><ele>104.0</ele><time>2026-03-29T16:17:04Z</time></trkpt><trkpt lat="45.29130875972018" lon="8.831811001360183"><ele>104.0</ele><time>2026-03-29T16:17:05Z</time></trkpt><trkpt lat="45.2914306868952" lon="8.831739280804312"><ele>104.0</ele><time>2026-03-29T16:17:06Z</time></trkpt><trkpt lat="45.2915497860993" lon="8.831668040542283"><ele>103.80000000000001</ele><time>2026-03-29T16:17:07Z</time></trkpt><trkpt lat="45.29165192250571" lon="8.831608251202361"><ele>103.60000000000001</ele><time>2026-03-29T16:17:08Z</time></trkpt><trkpt lat="45.29174569751242" lon="8.831555274922357"><ele>103.4</ele><time>2026-03-29T16:17:09Z</time></trkpt><trkpt lat="45.291832722973325" lon="8.831508990928183"><ele>103.2</ele><time>2026-03-29T16:17:10Z</time></trkpt><trkpt lat="45.2919155194432" lon="8.831474056184367"><ele>103.0</ele><time>2026-03-29T16:17:11Z</time></trkpt><trkpt lat="45.29204224562276" lon="8.831405093128696"><ele>103.00000000000001</ele><time>2026-03-29T16:17:13Z</time></trkpt><trkpt lat="45.292108223168505" lon="8.83136921305645"><ele>103.0</ele><time>2026-03-29T16:17:14Z</time></trkpt><trkpt lat="45.292218959531745" lon="8.831319929382643"><ele>103.0</ele><time>2026-03-29T16:17:16Z</time></trkpt><trkpt lat="45.29229200281129" lon="8.831300789045091"><ele>103.0</ele><time>2026-03-29T16:17:18Z</time></trkpt><trkpt lat="45.29233335239414" lon="8.831446741436624"><ele>103.00000000000001</ele><time>2026-03-29T16:17:21Z</time></trkpt><trkpt lat="45.292358596860204" lon="8.831537099553872"><ele>103.0</ele><time>2026-03-29T16:17:22Z</time></trkpt><trkpt lat="45.292399478129305" lon="8.831663376089946"><ele>103.0</ele><time>2026-03-29T16:17:24Z</time></trkpt><trkpt lat="45.292429837922754" lon="8.831756222547657"><ele>103.0</ele><time>2026-03-29T16:17:26Z</time></trkpt><trkpt lat="45.29259370604567" lon="8.83170324993767"><ele>103.0</ele><time>2026-03-29T16:17:30Z</time></trkpt><trkpt lat="45.292729089766404" lon="8.831635495954204"><ele>103.0</ele><time>2026-03-29T16:17:32Z</time></trkpt><trkpt lat="45.29281763985797" lon="8.831582213498123"><ele>103.0</ele><time>2026-03-29T16:17:33Z</time></trkpt><trkpt lat="45.292887306985605" lon="8.831537417152012"><ele>103.0</ele><time>2026-03-29T16:17:34Z</time></trkpt><trkpt lat="45.29297729697055" lon="8.831485344954386"><ele>103.0</ele><time>2026-03-29T16:17:35Z</time></trkpt><trkpt lat="45.29304950352032" lon="8.831443441419733"><ele>103.0</ele><time>2026-03-29T16:17:36Z</time></trkpt><trkpt lat="45.29313370824437" lon="8.831398470193351"><ele>103.0</ele><time>2026-03-29T16:17:37Z</time></trkpt><trkpt lat="45.29324143815487" lon="8.83134527512992"><ele>103.2</ele><time>2026-03-29T16:17:38Z</time></trkpt><trkpt lat="45.29335343900831" lon="8.831288729964973"><ele>103.4</ele><time>2026-03-29T16:17:39Z</time></trkpt><trkpt lat="45.29345913498319" lon="8.831230979258189"><ele>103.60000000000001</ele><time>2026-03-29T16:17:40Z</time></trkpt><trkpt lat="45.29355055761395" lon="8.831174979095369"><ele>103.80000000000001</ele><time>2026-03-29T16:17:41Z</time></trkpt><trkpt lat="45.29364712377474" lon="8.831124488583212"><ele>104.0</ele><time>2026-03-29T16:17:42Z</time></trkpt><trkpt lat="45.293745031382166" lon="8.831071586520293"><ele>104.0</ele><time>2026-03-29T16:17:43Z</time></trkpt><trkpt lat="45.29384310380118" lon="8.831016314153286"><ele>104.0</ele><time>2026-03-29T16:17:44Z</time></trkpt><trkpt lat="45.29395448933852" lon="8.830958234370236"><ele>104.0</ele><time>2026-03-29T16:17:45Z</time></trkpt><trkpt lat="45.29405340471552" lon="8.830904771095566"><ele>104.0</ele><time>2026-03-29T16:17:46Z</time></trkpt><trkpt lat="45.29415291755968" lon="8.830851386690718"><ele>104.0</ele><time>2026-03-29T16:17:47Z</time></trkpt><trkpt lat="45.2942457025347" lon="8.830804774926241"><ele>103.6</ele><time>2026-03-29T16:17:48Z</time></trkpt><trkpt lat="45.29434061032655" lon="8.830748967662206"><ele>103.2</ele><time>2026-03-29T16:17:49Z</time></trkpt><trkpt lat="45.29444478938518" lon="8.830687177173198"><ele>102.8</ele><time>2026-03-29T16:17:50Z</time></trkpt><trkpt lat="45.29453507524784" lon="8.830637250739862"><ele>102.39999999999999</ele><time>2026-03-29T16:17:51Z</time></trkpt><trkpt lat="45.29462022449715" lon="8.830587018426002"><ele>102.0</ele><time>2026-03-29T16:17:52Z</time></trkpt><trkpt lat="45.29468920280418" lon="8.830548356964435"><ele>102.19999999999999</ele><time>2026-03-29T16:17:53Z</time></trkpt><trkpt lat="45.29475823303689" lon="8.830512459958483"><ele>102.4</ele><time>2026-03-29T16:17:54Z</time></trkpt><trkpt lat="45.29486657177276" lon="8.830454297573166"><ele>102.6</ele><time>2026-03-29T16:17:56Z</time></trkpt><trkpt lat="45.29495774539215" lon="8.830404235904558"><ele>102.80000000000001</ele><time>2026-03-29T16:17:58Z</time></trkpt><trkpt lat="45.295045717225015" lon="8.830344351287128"><ele>103.0</ele><time>2026-03-29T16:18:01Z</time></trkpt><trkpt lat="45.29515586670325" lon="8.830312369121321"><ele>103.00000000000001</ele><time>2026-03-29T16:18:19Z</time></trkpt><trkpt lat="45.29523861401609" lon="8.83030447038122"><ele>103.0</ele><time>2026-03-29T16:18:20Z</time></trkpt><trkpt lat="45.29532168681366" lon="8.830290142077375"><ele>103.0</ele><time>2026-03-29T16:18:21Z</time></trkpt><trkpt lat="45.29538854765679" lon="8.830236508432348"><ele>103.0</ele><time>2026-03-29T16:18:22Z</time></trkpt><trkpt lat="45.29544814456791" lon="8.830143038796418"><ele>103.00000000000001</ele><time>2026-03-29T16:18:23Z</time></trkpt><trkpt lat="45.295502113235166" lon="8.830036451316978"><ele>103.0</ele><time>2026-03-29T16:18:24Z</time></trkpt><trkpt lat="45.295570822344025" lon="8.829935457092368"><ele>103.0</ele><time>2026-03-29T16:18:25Z</time></trkpt><trkpt lat="45.2956568129059" lon="8.82984861260621"><ele>103.0</ele><time>2026-03-29T16:18:26Z</time></trkpt><trkpt lat="45.29574572033866" lon="8.829744629644788"><ele>103.0</ele><time>2026-03-29T16:18:27Z</time></trkpt><trkpt lat="45.295890325770515" lon="8.829724632567219"><ele>103.0</ele><time>2026-03-29T16:18:28Z</time></trkpt><trkpt lat="45.296033788184076" lon="8.829655934645169"><ele>103.0</ele><time>2026-03-29T16:18:29Z</time></trkpt><trkpt lat="45.29617419378903" lon="8.829595351875833"><ele>103.0</ele><time>2026-03-29T16:18:30Z</time></trkpt><trkpt lat="45.29631499418931" lon="8.829534894293772"><ele>103.0</ele><time>2026-03-29T16:18:31Z</time></trkpt><trkpt lat="45.296456269308614" lon="8.82947329072011"><ele>103.0</ele><time>2026-03-29T16:18:32Z</time></trkpt><trkpt lat="45.29660083308156" lon="8.829408698050853"><ele>103.33333333333334</ele><time>2026-03-29T16:18:33Z</time></trkpt><trkpt lat="45.296747136111605" lon="8.829343207926307"><ele>103.66666666666666</ele><time>2026-03-29T16:18:34Z</time></trkpt><trkpt lat="45.296896828188146" lon="8.829275180002334"><ele>104.0</ele><time>2026-03-29T16:18:35Z</time></trkpt><trkpt lat="45.297063743931304" lon="8.829197180400165"><ele>104.0</ele><time>2026-03-29T16:18:36Z</time></trkpt><trkpt lat="45.29722835338783" lon="8.829120853732874"><ele>104.0</ele><time>2026-03-29T16:18:37Z</time></trkpt><trkpt lat="45.29737189153341" lon="8.82905855453141"><ele>104.0</ele><time>2026-03-29T16:18:38Z</time></trkpt><trkpt lat="45.29751901021648" lon="8.82899199595805"><ele>104.0</ele><time>2026-03-29T16:18:39Z</time></trkpt><trkpt lat="45.29767238744463" lon="8.828918834816916"><ele>104.0</ele><time>2026-03-29T16:18:40Z</time></trkpt><trkpt lat="45.297818528485585" lon="8.828851126079321"><ele>104.0</ele><time>2026-03-29T16:18:41Z</time></trkpt><trkpt lat="45.29797079392218" lon="8.828781233026312"><ele>104.0</ele><time>2026-03-29T16:18:42Z</time></trkpt><trkpt lat="45.2981290540226" lon="8.828710512513386"><ele>104.0</ele><time>2026-03-29T16:18:43Z</time></trkpt><trkpt lat="45.29826951274216" lon="8.828648377204301"><ele>104.0</ele><time>2026-03-29T16:18:44Z</time></trkpt><trkpt lat="45.2983980915607" lon="8.828589592419785"><ele>104.0</ele><time>2026-03-29T16:18:45Z</time></trkpt><trkpt lat="45.2985321063176" lon="8.828524884498588"><ele>104.0</ele><time>2026-03-29T16:18:46Z</time></trkpt><trkpt lat="45.298654792950494" lon="8.828470500113287"><ele>104.0</ele><time>2026-03-29T16:18:47Z</time></trkpt><trkpt lat="45.298770500359204" lon="8.828417251540762"><ele>104.0</ele><time>2026-03-29T16:18:48Z</time></trkpt><trkpt lat="45.298878779883715" lon="8.828366600008449"><ele>104.0</ele><time>2026-03-29T16:18:49Z</time></trkpt><trkpt lat="45.298976463116624" lon="8.828325096241873"><ele>104.0</ele><time>2026-03-29T16:18:50Z</time></trkpt><trkpt lat="45.29906458170495" lon="8.828303641678344"><ele>104.0</ele><time>2026-03-29T16:18:51Z</time></trkpt><trkpt lat="45.299155010665025" lon="8.828309221497346"><ele>104.0</ele><time>2026-03-29T16:18:52Z</time></trkpt><trkpt lat="45.2992228637854" lon="8.8283594387239"><ele>104.0</ele><time>2026-03-29T16:18:53Z</time></trkpt><trkpt lat="45.29929741542836" lon="8.828400871828748"><ele>104.0</ele><time>2026-03-29T16:18:54Z</time></trkpt><trkpt lat="45.29943913098366" lon="8.828424987404963"><ele>103.99999999999999</ele><time>2026-03-29T16:18:56Z</time></trkpt><trkpt lat="45.29950694977247" lon="8.828373809043157"><ele>104.0</ele><time>2026-03-29T16:18:57Z</time></trkpt><trkpt lat="45.29956700659566" lon="8.828302091638363"><ele>104.0</ele><time>2026-03-29T16:18:58Z</time></trkpt><trkpt lat="45.299573661335714" lon="8.82815761733161"><ele>104.0</ele><time>2026-03-29T16:18:59Z</time></trkpt><trkpt lat="45.299570061272846" lon="8.828041973043847"><ele>103.99999999999999</ele><time>2026-03-29T16:19:00Z</time></trkpt><trkpt lat="45.299543316498884" lon="8.827949773098227"><ele>104.0</ele><time>2026-03-29T16:19:01Z</time></trkpt><trkpt lat="45.299511392930064" lon="8.827862334794016"><ele>104.0</ele><time>2026-03-29T16:19:02Z</time></trkpt><trkpt lat="45.29943912774336" lon="8.827789768421686"><ele>104.0</ele><time>2026-03-29T16:19:04Z</time></trkpt><trkpt lat="45.299504598986346" lon="8.827620562219808"><ele>104.0</ele><time>2026-03-29T16:19:05Z</time></trkpt><trkpt lat="45.29955428700253" lon="8.827548262762338"><ele>104.0</ele><time>2026-03-29T16:19:06Z</time></trkpt><trkpt lat="45.29967387020443" lon="8.827543101793347"><ele>104.0</ele><time>2026-03-29T16:19:08Z</time></trkpt><trkpt lat="45.299740782545776" lon="8.827601895221491"><ele>104.5</ele><time>2026-03-29T16:19:09Z</time></trkpt><trkpt lat="45.29983867654308" lon="8.827699694486743"><ele>105.0</ele><time>2026-03-29T16:19:10Z</time></trkpt><trkpt lat="45.29995349728411" lon="8.827751736978257"><ele>105.5</ele><time>2026-03-29T16:19:11Z</time></trkpt><trkpt lat="45.300085874215796" lon="8.827713295838524"><ele>106.0</ele><time>2026-03-29T16:19:12Z</time></trkpt><trkpt lat="45.300235808879194" lon="8.827642034108765"><ele>106.0</ele><time>2026-03-29T16:19:13Z</time></trkpt><trkpt lat="45.30040536360621" lon="8.827566546370663"><ele>106.0</ele><time>2026-03-29T16:19:14Z</time></trkpt><trkpt lat="45.30057877330543" lon="8.827531383347981"><ele>106.0</ele><time>2026-03-29T16:19:15Z</time></trkpt><trkpt lat="45.300759112805714" lon="8.827502276518482"><ele>106.33333333333334</ele><time>2026-03-29T16:19:16Z</time></trkpt><trkpt lat="45.30093594106823" lon="8.82748140074158"><ele>106.66666666666666</ele><time>2026-03-29T16:19:17Z</time></trkpt><trkpt lat="45.301114944110964" lon="8.827461228224259"><ele>107.0</ele><time>2026-03-29T16:19:18Z</time></trkpt><trkpt lat="45.3012728134134" lon="8.827447907075769"><ele>107.0</ele><time>2026-03-29T16:19:19Z</time></trkpt><trkpt lat="45.301415222788826" lon="8.827416723221026"><ele>107.0</ele><time>2026-03-29T16:19:20Z</time></trkpt><trkpt lat="45.30155763188965" lon="8.82740672433563"><ele>107.0</ele><time>2026-03-29T16:19:21Z</time></trkpt><trkpt lat="45.30168371836481" lon="8.827394690468076"><ele>107.0</ele><time>2026-03-29T16:19:22Z</time></trkpt><trkpt lat="45.30178478791039" lon="8.827393752390863"><ele>106.66666666666666</ele><time>2026-03-29T16:19:23Z</time></trkpt><trkpt lat="45.30184955821391" lon="8.827325396574121"><ele>106.33333333333333</ele><time>2026-03-29T16:19:24Z</time></trkpt><trkpt lat="45.30189615286735" lon="8.827255275238732"><ele>106.0</ele><time>2026-03-29T16:19:25Z</time></trkpt><trkpt lat="45.30191942189921" lon="8.82717195836694"><ele>105.66666666666666</ele><time>2026-03-29T16:19:26Z</time></trkpt><trkpt lat="45.301910457550996" lon="8.827072783012282"><ele>105.33333333333333</ele><time>2026-03-29T16:19:27Z</time></trkpt><trkpt lat="45.30187925652668" lon="8.826962361651574"><ele>105.0</ele><time>2026-03-29T16:19:28Z</time></trkpt><trkpt lat="45.30183707936057" lon="8.826833073664456"><ele>105.4</ele><time>2026-03-29T16:19:29Z</time></trkpt><trkpt lat="45.30180805839652" lon="8.826673644008729"><ele>105.8</ele><time>2026-03-29T16:19:30Z</time></trkpt><trkpt lat="45.30177931666221" lon="8.826530172582864"><ele>106.19999999999999</ele><time>2026-03-29T16:19:31Z</time></trkpt><trkpt lat="45.3017357370777" lon="8.826398504227717"><ele>106.6</ele><time>2026-03-29T16:19:32Z</time></trkpt><trkpt lat="45.30170554441762" lon="8.826244229161825"><ele>107.0</ele><time>2026-03-29T16:19:33Z</time></trkpt><trkpt lat="45.301695113453164" lon="8.826109850653326"><ele>106.99999999999999</ele><time>2026-03-29T16:19:34Z</time></trkpt><trkpt lat="45.3016701342066" lon="8.825985074718572"><ele>107.0</ele><time>2026-03-29T16:19:35Z</time></trkpt><trkpt lat="45.30164598398803" lon="8.825868361257749"><ele>107.0</ele><time>2026-03-29T16:19:36Z</time></trkpt><trkpt lat="45.30160962224434" lon="8.825779126766644"><ele>107.0</ele><time>2026-03-29T16:19:37Z</time></trkpt><trkpt lat="45.301589846649186" lon="8.825690760496679"><ele>106.99999999999999</ele><time>2026-03-29T16:19:38Z</time></trkpt><trkpt lat="45.301577045432815" lon="8.825592077766897"><ele>107.0</ele><time>2026-03-29T16:19:39Z</time></trkpt><trkpt lat="45.30154263613062" lon="8.825491035530254"><ele>107.0</ele><time>2026-03-29T16:19:40Z</time></trkpt><trkpt lat="45.301487194815046" lon="8.825384709447507"><ele>106.99999999999999</ele><time>2026-03-29T16:19:41Z</time></trkpt><trkpt lat="45.301443869614054" lon="8.825262406520183"><ele>106.99999999999999</ele><time>2026-03-29T16:19:42Z</time></trkpt><trkpt lat="45.301403410022765" lon="8.825141086456266"><ele>107.0</ele><time>2026-03-29T16:19:43Z</time></trkpt><trkpt lat="45.30135678195842" lon="8.825026075598185"><ele>107.0</ele><time>2026-03-29T16:19:44Z</time></trkpt><trkpt lat="45.30130874480867" lon="8.82490272137572"><ele>106.8</ele><time>2026-03-29T16:19:45Z</time></trkpt><trkpt lat="45.30127168849171" lon="8.824808085170492"><ele>106.6</ele><time>2026-03-29T16:19:46Z</time></trkpt><trkpt lat="45.30121894576197" lon="8.824676342855113"><ele>106.39999999999999</ele><time>2026-03-29T16:19:47Z</time></trkpt><trkpt lat="45.30117289126343" lon="8.824510696209583"><ele>106.19999999999999</ele><time>2026-03-29T16:19:48Z</time></trkpt><trkpt lat="45.301118432949465" lon="8.82436130949072"><ele>106.0</ele><time>2026-03-29T16:19:49Z</time></trkpt><trkpt lat="45.30107085918835" lon="8.824226760385622"><ele>105.8</ele><time>2026-03-29T16:19:50Z</time></trkpt><trkpt lat="45.30100949433473" lon="8.824092746910596"><ele>105.6</ele><time>2026-03-29T16:19:51Z</time></trkpt><trkpt lat="45.30097668690923" lon="8.823925350314813"><ele>105.4</ele><time>2026-03-29T16:19:52Z</time></trkpt><trkpt lat="45.30094152326396" lon="8.823782124019585"><ele>105.2</ele><time>2026-03-29T16:19:53Z</time></trkpt><trkpt lat="45.30091644717615" lon="8.823651212449073"><ele>105.0</ele><time>2026-03-29T16:19:54Z</time></trkpt><trkpt lat="45.300876536183566" lon="8.82353727431979"><ele>105.0</ele><time>2026-03-29T16:19:55Z</time></trkpt><trkpt lat="45.30084401414301" lon="8.82340162155804"><ele>105.0</ele><time>2026-03-29T16:19:56Z</time></trkpt><trkpt lat="45.300799865009" lon="8.823247530117094"><ele>105.0</ele><time>2026-03-29T16:19:57Z</time></trkpt><trkpt lat="45.30077161942956" lon="8.823086736502066"><ele>105.0</ele><time>2026-03-29T16:19:58Z</time></trkpt><trkpt lat="45.3007199192391" lon="8.822935950082694"><ele>105.0</ele><time>2026-03-29T16:19:59Z</time></trkpt><trkpt lat="45.30065995010404" lon="8.822783815981524"><ele>105.0</ele><time>2026-03-29T16:20:00Z</time></trkpt><trkpt lat="45.30059573463375" lon="8.822634216607872"><ele>105.0</ele><time>2026-03-29T16:20:01Z</time></trkpt><trkpt lat="45.30052471246626" lon="8.822484290260778"><ele>105.0</ele><time>2026-03-29T16:20:02Z</time></trkpt><trkpt lat="45.30043914488828" lon="8.82235991887007"><ele>104.5</ele><time>2026-03-29T16:20:03Z</time></trkpt><trkpt lat="45.30035541639211" lon="8.822225970639305"><ele>104.0</ele><time>2026-03-29T16:20:04Z</time></trkpt><trkpt lat="45.3002545541458" lon="8.822096164766297"><ele>103.5</ele><time>2026-03-29T16:20:05Z</time></trkpt><trkpt lat="45.30015854148505" lon="8.821966214262675"><ele>103.0</ele><time>2026-03-29T16:20:06Z</time></trkpt><trkpt lat="45.30005673254583" lon="8.821870285814606"><ele>103.2</ele><time>2026-03-29T16:20:07Z</time></trkpt><trkpt lat="45.29995881591336" lon="8.821777789236384"><ele>103.4</ele><time>2026-03-29T16:20:08Z</time></trkpt><trkpt lat="45.29987170399698" lon="8.821684605896206"><ele>103.60000000000001</ele><time>2026-03-29T16:20:09Z</time></trkpt><trkpt lat="45.299800506757876" lon="8.821592691698859"><ele>103.80000000000001</ele><time>2026-03-29T16:20:10Z</time></trkpt><trkpt lat="45.29974227488355" lon="8.821462519827248"><ele>104.0</ele><time>2026-03-29T16:20:11Z</time></trkpt><trkpt lat="45.299682864802314" lon="8.82132287235628"><ele>104.0</ele><time>2026-03-29T16:20:12Z</time></trkpt><trkpt lat="45.299621593886584" lon="8.821162823421508"><ele>104.0</ele><time>2026-03-29T16:20:13Z</time></trkpt><trkpt lat="45.299556542053445" lon="8.821007213114774"><ele>104.0</ele><time>2026-03-29T16:20:14Z</time></trkpt><trkpt lat="45.29950158212269" lon="8.820837611925159"><ele>104.0</ele><time>2026-03-29T16:20:15Z</time></trkpt><trkpt lat="45.299434082202225" lon="8.820667309650409"><ele>104.0</ele><time>2026-03-29T16:20:16Z</time></trkpt><trkpt lat="45.29938151557359" lon="8.820490776016932"><ele>104.0</ele><time>2026-03-29T16:20:17Z</time></trkpt><trkpt lat="45.299322268080076" lon="8.820337220823083"><ele>104.0</ele><time>2026-03-29T16:20:18Z</time></trkpt><trkpt lat="45.29924845884145" lon="8.820184862797584"><ele>104.0</ele><time>2026-03-29T16:20:19Z</time></trkpt><trkpt lat="45.299194252298186" lon="8.820000688593788"><ele>104.0</ele><time>2026-03-29T16:20:20Z</time></trkpt><trkpt lat="45.29910841642681" lon="8.81982854534106"><ele>104.0</ele><time>2026-03-29T16:20:21Z</time></trkpt><trkpt lat="45.2990439659997" lon="8.81965903904232"><ele>104.0</ele><time>2026-03-29T16:20:22Z</time></trkpt><trkpt lat="45.298988801159034" lon="8.81950860362154"><ele>104.0</ele><time>2026-03-29T16:20:23Z</time></trkpt><trkpt lat="45.298924205458654" lon="8.8193726582313"><ele>104.0</ele><time>2026-03-29T16:20:24Z</time></trkpt><trkpt lat="45.29886375718092" lon="8.81923683057881"><ele>104.0</ele><time>2026-03-29T16:20:25Z</time></trkpt><trkpt lat="45.298798976909126" lon="8.819127055956352"><ele>104.0</ele><time>2026-03-29T16:20:26Z</time></trkpt><trkpt lat="45.298766841186605" lon="8.819006030237032"><ele>104.0</ele><time>2026-03-29T16:20:27Z</time></trkpt><trkpt lat="45.29872840893006" lon="8.81890773507798"><ele>104.0</ele><time>2026-03-29T16:20:28Z</time></trkpt><trkpt lat="45.29865936350696" lon="8.818768618187411"><ele>104.0</ele><time>2026-03-29T16:20:30Z</time></trkpt><trkpt lat="45.298596668090475" lon="8.818663450249746"><ele>104.0</ele><time>2026-03-29T16:20:32Z</time></trkpt><trkpt lat="45.29847949443912" lon="8.81856211481591"><ele>104.0</ele><time>2026-03-29T16:20:34Z</time></trkpt><trkpt lat="45.29838453696242" lon="8.818584255207911"><ele>104.0</ele><time>2026-03-29T16:20:35Z</time></trkpt><trkpt lat="45.298272571946114" lon="8.81860234942891"><ele>104.0</ele><time>2026-03-29T16:20:36Z</time></trkpt><trkpt lat="45.29815341110251" lon="8.818639354254696"><ele>104.2</ele><time>2026-03-29T16:20:37Z</time></trkpt><trkpt lat="45.29803149000525" lon="8.818666216119286"><ele>104.4</ele><time>2026-03-29T16:20:38Z</time></trkpt><trkpt lat="45.29792961728633" lon="8.81869716110703"><ele>104.6</ele><time>2026-03-29T16:20:39Z</time></trkpt><trkpt lat="45.297834490593964" lon="8.818720009322467"><ele>104.8</ele><time>2026-03-29T16:20:40Z</time></trkpt><trkpt lat="45.29774556687448" lon="8.818735234158105"><ele>105.0</ele><time>2026-03-29T16:20:41Z</time></trkpt><trkpt lat="45.29765031367657" lon="8.818735936628574"><ele>105.0</ele><time>2026-03-29T16:20:42Z</time></trkpt><trkpt lat="45.297560132302564" lon="8.81871798230095"><ele>105.0</ele><time>2026-03-29T16:20:43Z</time></trkpt><trkpt lat="45.29747805363018" lon="8.818675125183304"><ele>105.0</ele><time>2026-03-29T16:20:44Z</time></trkpt><trkpt lat="45.29737624180049" lon="8.818603244433545"><ele>105.0</ele><time>2026-03-29T16:20:45Z</time></trkpt><trkpt lat="45.29730727354242" lon="8.818489397605138"><ele>105.0</ele><time>2026-03-29T16:20:46Z</time></trkpt><trkpt lat="45.29724407942195" lon="8.818367107439904"><ele>105.25</ele><time>2026-03-29T16:20:47Z</time></trkpt><trkpt lat="45.29716109605826" lon="8.818267780361854"><ele>105.5</ele><time>2026-03-29T16:20:48Z</time></trkpt><trkpt lat="45.297078079651214" lon="8.818117804423313"><ele>105.75</ele><time>2026-03-29T16:20:49Z</time></trkpt><trkpt lat="45.29698603088163" lon="8.818010198541963"><ele>106.0</ele><time>2026-03-29T16:20:50Z</time></trkpt><trkpt lat="45.296906946415454" lon="8.81790427200474"><ele>106.00000000000001</ele><time>2026-03-29T16:20:51Z</time></trkpt><trkpt lat="45.29684116779008" lon="8.817808207980015"><ele>106.0</ele><time>2026-03-29T16:20:52Z</time></trkpt><trkpt lat="45.29678574035162" lon="8.817729988114422"><ele>106.0</ele><time>2026-03-29T16:20:53Z</time></trkpt><trkpt lat="45.29674132588229" lon="8.817665094054247"><ele>106.0</ele><time>2026-03-29T16:20:54Z</time></trkpt><trkpt lat="45.29668169753732" lon="8.817585785703816"><ele>106.00000000000001</ele><time>2026-03-29T16:20:56Z</time></trkpt><trkpt lat="45.29675962294543" lon="8.817468419962665"><ele>106.0</ele><time>2026-03-29T16:20:59Z</time></trkpt><trkpt lat="45.29685356592604" lon="8.817386312041139"><ele>106.0</ele><time>2026-03-29T16:21:00Z</time></trkpt><trkpt lat="45.29696613728324" lon="8.817287922877046"><ele>106.0</ele><time>2026-03-29T16:21:01Z</time></trkpt><trkpt lat="45.29706618715865" lon="8.817177905692946"><ele>106.0</ele><time>2026-03-29T16:21:02Z</time></trkpt><trkpt lat="45.297191451302396" lon="8.817101652823045"><ele>106.0</ele><time>2026-03-29T16:21:03Z</time></trkpt><trkpt lat="45.29732474618377" lon="8.81699818822432"><ele>105.75</ele><time>2026-03-29T16:21:04Z</time></trkpt><trkpt lat="45.297449249418115" lon="8.816901547801077"><ele>105.5</ele><time>2026-03-29T16:21:05Z</time></trkpt><trkpt lat="45.29756343804665" lon="8.816786101251894"><ele>105.25</ele><time>2026-03-29T16:21:06Z</time></trkpt><trkpt lat="45.297686915334864" lon="8.816719010662034"><ele>105.0</ele><time>2026-03-29T16:21:07Z</time></trkpt><trkpt lat="45.29779379110903" lon="8.816638765926852"><ele>105.0</ele><time>2026-03-29T16:21:08Z</time></trkpt><trkpt lat="45.29788785969863" lon="8.81654883219442"><ele>105.0</ele><time>2026-03-29T16:21:09Z</time></trkpt><trkpt lat="45.29798393159535" lon="8.816495730599426"><ele>105.0</ele><time>2026-03-29T16:21:10Z</time></trkpt><trkpt lat="45.29805581080384" lon="8.816415247486333"><ele>105.0</ele><time>2026-03-29T16:21:11Z</time></trkpt><trkpt lat="45.29812006313986" lon="8.816374520944441"><ele>105.0</ele><time>2026-03-29T16:21:12Z</time></trkpt><trkpt lat="45.29818726547133" lon="8.816357196028777"><ele>105.0</ele><time>2026-03-29T16:21:13Z</time></trkpt><trkpt lat="45.298247446286965" lon="8.816446764685958"><ele>105.4</ele><time>2026-03-29T16:21:14Z</time></trkpt><trkpt lat="45.29832862889295" lon="8.816468965461667"><ele>105.8</ele><time>2026-03-29T16:21:15Z</time></trkpt><trkpt lat="45.298426794797784" lon="8.816428414348868"><ele>106.19999999999999</ele><time>2026-03-29T16:21:16Z</time></trkpt><trkpt lat="45.298528749556105" lon="8.816409738697105"><ele>106.6</ele><time>2026-03-29T16:21:17Z</time></trkpt><trkpt lat="45.29863673995525" lon="8.816398690171079"><ele>107.0</ele><time>2026-03-29T16:21:18Z</time></trkpt><trkpt lat="45.298758065626835" lon="8.816351430173231"><ele>107.0</ele><time>2026-03-29T16:21:19Z</time></trkpt><trkpt lat="45.29889987072747" lon="8.816307191087189"><ele>107.0</ele><time>2026-03-29T16:21:20Z</time></trkpt><trkpt lat="45.299073660145076" lon="8.816260929192643"><ele>107.0</ele><time>2026-03-29T16:21:21Z</time></trkpt><trkpt lat="45.29923385326819" lon="8.816220143344774"><ele>106.0</ele><time>2026-03-29T16:21:22Z</time></trkpt><trkpt lat="45.299405633178516" lon="8.816200872666828"><ele>105.0</ele><time>2026-03-29T16:21:23Z</time></trkpt><trkpt lat="45.29956786556663" lon="8.816162270944975"><ele>104.0</ele><time>2026-03-29T16:21:24Z</time></trkpt><trkpt lat="45.29971229815924" lon="8.81612790453647"><ele>103.75</ele><time>2026-03-29T16:21:25Z</time></trkpt><trkpt lat="45.29985156171175" lon="8.816091731233367"><ele>103.5</ele><time>2026-03-29T16:21:26Z</time></trkpt><trkpt lat="45.29998045104262" lon="8.81603732365894"><ele>103.25</ele><time>2026-03-29T16:21:27Z</time></trkpt><trkpt lat="45.30010753870555" lon="8.816009936095481"><ele>103.0</ele><time>2026-03-29T16:21:28Z</time></trkpt><trkpt lat="45.300237349315225" lon="8.815972282960209"><ele>103.25</ele><time>2026-03-29T16:21:29Z</time></trkpt><trkpt lat="45.30037562052449" lon="8.815941739279069"><ele>103.5</ele><time>2026-03-29T16:21:30Z</time></trkpt><trkpt lat="45.30051783541455" lon="8.815906019105611"><ele>103.75</ele><time>2026-03-29T16:21:31Z</time></trkpt><trkpt lat="45.300657573041796" lon="8.815872123543647"><ele>104.0</ele><time>2026-03-29T16:21:32Z</time></trkpt><trkpt lat="45.300799978208346" lon="8.815832858318371"><ele>104.0</ele><time>2026-03-29T16:21:33Z</time></trkpt><trkpt lat="45.30094029530196" lon="8.815804790517138"><ele>104.0</ele><time>2026-03-29T16:21:34Z</time></trkpt><trkpt lat="45.30108162812874" lon="8.815767274773656"><ele>104.0</ele><time>2026-03-29T16:21:35Z</time></trkpt><trkpt lat="45.301208011574296" lon="8.815742284547472"><ele>104.0</ele><time>2026-03-29T16:21:36Z</time></trkpt><trkpt lat="45.30133681494736" lon="8.815728617730311"><ele>104.0</ele><time>2026-03-29T16:21:37Z</time></trkpt><trkpt lat="45.3014614931364" lon="8.815684745527221"><ele>104.0</ele><time>2026-03-29T16:21:38Z</time></trkpt><trkpt lat="45.30157914496205" lon="8.815662383719907"><ele>104.0</ele><time>2026-03-29T16:21:39Z</time></trkpt><trkpt lat="45.30168364561111" lon="8.815646403663802"><ele>104.0</ele><time>2026-03-29T16:21:40Z</time></trkpt><trkpt lat="45.30177308323381" lon="8.815631941246785"><ele>104.0</ele><time>2026-03-29T16:21:41Z</time></trkpt><trkpt lat="45.301844507960055" lon="8.815642068444426"><ele>104.0</ele><time>2026-03-29T16:21:42Z</time></trkpt><trkpt lat="45.3019430119812" lon="8.815594576468744"><ele>104.0</ele><time>2026-03-29T16:21:44Z</time></trkpt><trkpt lat="45.301974987356196" lon="8.815481908327081"><ele>104.0</ele><time>2026-03-29T16:21:46Z</time></trkpt><trkpt lat="45.30196862348583" lon="8.815385724832472"><ele>104.0</ele><time>2026-03-29T16:21:48Z</time></trkpt><trkpt lat="45.3020926291771" lon="8.815362095139616"><ele>104.0</ele><time>2026-03-29T16:21:51Z</time></trkpt><trkpt lat="45.302197841026356" lon="8.815339613952947"><ele>104.0</ele><time>2026-03-29T16:21:52Z</time></trkpt><trkpt lat="45.30231915949465" lon="8.81529242423879"><ele>104.0</ele><time>2026-03-29T16:21:53Z</time></trkpt><trkpt lat="45.302417902151014" lon="8.81526078797944"><ele>104.0</ele><time>2026-03-29T16:21:54Z</time></trkpt><trkpt lat="45.30250182686353" lon="8.815240702963777"><ele>104.0</ele><time>2026-03-29T16:21:55Z</time></trkpt><trkpt lat="45.302586007001864" lon="8.815219159371098"><ele>104.0</ele><time>2026-03-29T16:21:56Z</time></trkpt><trkpt lat="45.30266404781099" lon="8.815199617422868"><ele>104.0</ele><time>2026-03-29T16:21:57Z</time></trkpt><trkpt lat="45.30274170397113" lon="8.81517819203832"><ele>104.0</ele><time>2026-03-29T16:21:58Z</time></trkpt><trkpt lat="45.30282826720439" lon="8.815179930114686"><ele>104.0</ele><time>2026-03-29T16:21:59Z</time></trkpt><trkpt lat="45.30291117729421" lon="8.815136613986976"><ele>104.0</ele><time>2026-03-29T16:22:00Z</time></trkpt><trkpt lat="45.303010978946894" lon="8.815113633566389"><ele>104.0</ele><time>2026-03-29T16:22:01Z</time></trkpt><trkpt lat="45.30313328284361" lon="8.815084606116304"><ele>104.33333333333333</ele><time>2026-03-29T16:22:02Z</time></trkpt><trkpt lat="45.303292699898385" lon="8.815046331839946"><ele>104.66666666666666</ele><time>2026-03-29T16:22:03Z</time></trkpt><trkpt lat="45.30349535946247" lon="8.814999660055413"><ele>105.0</ele><time>2026-03-29T16:22:04Z</time></trkpt><trkpt lat="45.303702934443436" lon="8.814946043611426"><ele>105.0</ele><time>2026-03-29T16:22:05Z</time></trkpt><trkpt lat="45.30392104776113" lon="8.814898291522438"><ele>105.0</ele><time>2026-03-29T16:22:06Z</time></trkpt><trkpt lat="45.304134610388196" lon="8.814866414250675"><ele>105.0</ele><time>2026-03-29T16:22:07Z</time></trkpt><trkpt lat="45.3043171656445" lon="8.81482290201534"><ele>105.0</ele><time>2026-03-29T16:22:08Z</time></trkpt><trkpt lat="45.304485129893024" lon="8.814782867550417"><ele>105.0</ele><time>2026-03-29T16:22:09Z</time></trkpt><trkpt lat="45.304631673867654" lon="8.81474793864068"><ele>105.0</ele><time>2026-03-29T16:22:10Z</time></trkpt><trkpt lat="45.3047694977103" lon="8.814715088180234"><ele>104.75</ele><time>2026-03-29T16:22:11Z</time></trkpt><trkpt lat="45.30489378648366" lon="8.814685463909374"><ele>104.5</ele><time>2026-03-29T16:22:12Z</time></trkpt><trkpt lat="45.30501315408854" lon="8.814658341632674"><ele>104.25</ele><time>2026-03-29T16:22:13Z</time></trkpt><trkpt lat="45.30511835091487" lon="8.814615616954256"><ele>104.0</ele><time>2026-03-29T16:22:14Z</time></trkpt><trkpt lat="45.305214679728415" lon="8.814598739886923"><ele>104.0</ele><time>2026-03-29T16:22:15Z</time></trkpt><trkpt lat="45.30528373318739" lon="8.814571475686082"><ele>104.0</ele><time>2026-03-29T16:22:16Z</time></trkpt><trkpt lat="45.305390640819155" lon="8.814542078100661"><ele>104.0</ele><time>2026-03-29T16:22:18Z</time></trkpt><trkpt lat="45.30543700369018" lon="8.814373371186274"><ele>104.0</ele><time>2026-03-29T16:22:21Z</time></trkpt><trkpt lat="45.30545364190145" lon="8.814269563023162"><ele>104.0</ele><time>2026-03-29T16:22:22Z</time></trkpt><trkpt lat="45.3055024268383" lon="8.814185878786418"><ele>104.80000000000001</ele><time>2026-03-29T16:22:23Z</time></trkpt><trkpt lat="45.30558192570372" lon="8.814136792265757"><ele>105.60000000000001</ele><time>2026-03-29T16:22:24Z</time></trkpt><trkpt lat="45.30565414446446" lon="8.814041162164537"><ele>106.4</ele><time>2026-03-29T16:22:25Z</time></trkpt><trkpt lat="45.30574410819674" lon="8.813962253419906"><ele>107.2</ele><time>2026-03-29T16:22:26Z</time></trkpt><trkpt lat="45.30584649827962" lon="8.813865883505665"><ele>108.0</ele><time>2026-03-29T16:22:27Z</time></trkpt><trkpt lat="45.30591354583069" lon="8.813723682565382"><ele>108.0</ele><time>2026-03-29T16:22:28Z</time></trkpt><trkpt lat="45.30600024691214" lon="8.813591309086682"><ele>108.0</ele><time>2026-03-29T16:22:29Z</time></trkpt><trkpt lat="45.3060834500693" lon="8.813416508635209"><ele>108.0</ele><time>2026-03-29T16:22:30Z</time></trkpt><trkpt lat="45.30615065854839" lon="8.81323218763146"><ele>108.0</ele><time>2026-03-29T16:22:31Z</time></trkpt><trkpt lat="45.30623858150264" lon="8.813057153212013"><ele>107.66666666666666</ele><time>2026-03-29T16:22:32Z</time></trkpt><trkpt lat="45.306341473560494" lon="8.812902157347947"><ele>107.33333333333333</ele><time>2026-03-29T16:22:33Z</time></trkpt><trkpt lat="45.3064389921301" lon="8.81274697987419"><ele>107.0</ele><time>2026-03-29T16:22:34Z</time></trkpt><trkpt lat="45.30655239498001" lon="8.812583822746454"><ele>107.0</ele><time>2026-03-29T16:22:35Z</time></trkpt><trkpt lat="45.30667577024557" lon="8.812412483557981"><ele>107.0</ele><time>2026-03-29T16:22:36Z</time></trkpt><trkpt lat="45.30681979670387" lon="8.812214507357409"><ele>107.0</ele><time>2026-03-29T16:22:37Z</time></trkpt><trkpt lat="45.30695861262949" lon="8.811992939236637"><ele>106.66666666666666</ele><time>2026-03-29T16:22:38Z</time></trkpt><trkpt lat="45.307102023933666" lon="8.811795978695145"><ele>106.33333333333334</ele><time>2026-03-29T16:22:39Z</time></trkpt><trkpt lat="45.307229620243895" lon="8.811615485151213"><ele>106.0</ele><time>2026-03-29T16:22:40Z</time></trkpt><trkpt lat="45.307345624236945" lon="8.81144930862439"><ele>106.0</ele><time>2026-03-29T16:22:41Z</time></trkpt><trkpt lat="45.30744555825603" lon="8.811306081408812"><ele>106.0</ele><time>2026-03-29T16:22:42Z</time></trkpt><trkpt lat="45.30754588536422" lon="8.811170017535995"><ele>106.0</ele><time>2026-03-29T16:22:43Z</time></trkpt><trkpt lat="45.30765883614999" lon="8.811014943590123"><ele>106.0</ele><time>2026-03-29T16:22:44Z</time></trkpt><trkpt lat="45.30777455283626" lon="8.810851424614205"><ele>106.0</ele><time>2026-03-29T16:22:45Z</time></trkpt><trkpt lat="45.30788291249577" lon="8.810697092806953"><ele>106.0</ele><time>2026-03-29T16:22:46Z</time></trkpt><trkpt lat="45.30799065762972" lon="8.81058104088926"><ele>106.0</ele><time>2026-03-29T16:22:47Z</time></trkpt><trkpt lat="45.30807913394448" lon="8.810459136973828"><ele>106.0</ele><time>2026-03-29T16:22:48Z</time></trkpt><trkpt lat="45.3081534914244" lon="8.810331169370622"><ele>106.19999999999999</ele><time>2026-03-29T16:22:49Z</time></trkpt><trkpt lat="45.30822631089899" lon="8.810218663455057"><ele>106.39999999999999</ele><time>2026-03-29T16:22:50Z</time></trkpt><trkpt lat="45.30830133997548" lon="8.810116589068125"><ele>106.6</ele><time>2026-03-29T16:22:51Z</time></trkpt><trkpt lat="45.308376472936025" lon="8.810003646796128"><ele>106.8</ele><time>2026-03-29T16:22:52Z</time></trkpt><trkpt lat="45.3084457797134" lon="8.809896402934351"><ele>107.0</ele><time>2026-03-29T16:22:53Z</time></trkpt><trkpt lat="45.30851904447494" lon="8.809775651013794"><ele>107.0</ele><time>2026-03-29T16:22:54Z</time></trkpt><trkpt lat="45.30860889779904" lon="8.809640926778581"><ele>107.0</ele><time>2026-03-29T16:22:55Z</time></trkpt><trkpt lat="45.308687025985336" lon="8.80949786596855"><ele>107.0</ele><time>2026-03-29T16:22:56Z</time></trkpt><trkpt lat="45.30877714425313" lon="8.809395630830164"><ele>107.0</ele><time>2026-03-29T16:22:57Z</time></trkpt><trkpt lat="45.308850373311266" lon="8.809302230655558"><ele>107.19999999999999</ele><time>2026-03-29T16:22:58Z</time></trkpt><trkpt lat="45.308916066964144" lon="8.809218145255764"><ele>107.39999999999999</ele><time>2026-03-29T16:22:59Z</time></trkpt><trkpt lat="45.30896184847535" lon="8.809129154892558"><ele>107.60000000000001</ele><time>2026-03-29T16:23:00Z</time></trkpt><trkpt lat="45.30902089167635" lon="8.809065106295144"><ele>107.80000000000001</ele><time>2026-03-29T16:23:02Z</time></trkpt><trkpt lat="45.309177486878994" lon="8.809114656828417"><ele>108.0</ele><time>2026-03-29T16:23:05Z</time></trkpt><trkpt lat="45.30926526518681" lon="8.809145905363438"><ele>108.0</ele><time>2026-03-29T16:23:06Z</time></trkpt><trkpt lat="45.30932760830625" lon="8.809176243039587"><ele>108.0</ele><time>2026-03-29T16:23:07Z</time></trkpt><trkpt lat="45.3093854759816" lon="8.80921251783431"><ele>108.0</ele><time>2026-03-29T16:23:08Z</time></trkpt><trkpt lat="45.30944507781468" lon="8.809358472713628"><ele>108.0</ele><time>2026-03-29T16:23:10Z</time></trkpt><trkpt lat="45.309486498845914" lon="8.809480180527869"><ele>108.0</ele><time>2026-03-29T16:23:12Z</time></trkpt><trkpt lat="45.30951641141808" lon="8.809586783580794"><ele>108.0</ele><time>2026-03-29T16:23:15Z</time></trkpt><trkpt lat="45.30963442532914" lon="8.80957870249885"><ele>108.0</ele><time>2026-03-29T16:23:16Z</time></trkpt><trkpt lat="45.30976609655456" lon="8.809580594182302"><ele>108.0</ele><time>2026-03-29T16:23:18Z</time></trkpt><trkpt lat="45.30986402842734" lon="8.809571575104588"><ele>108.0</ele><time>2026-03-29T16:23:19Z</time></trkpt><trkpt lat="45.30997911632453" lon="8.809558636251557"><ele>108.0</ele><time>2026-03-29T16:23:20Z</time></trkpt><trkpt lat="45.31009540560712" lon="8.80954387731646"><ele>108.0</ele><time>2026-03-29T16:23:21Z</time></trkpt><trkpt lat="45.310206429053736" lon="8.80951005411781"><ele>108.0</ele><time>2026-03-29T16:23:22Z</time></trkpt><trkpt lat="45.31033321335676" lon="8.80946298815288"><ele>108.0</ele><time>2026-03-29T16:23:23Z</time></trkpt><trkpt lat="45.310462328083524" lon="8.809404659117535"><ele>108.0</ele><time>2026-03-29T16:23:24Z</time></trkpt><trkpt lat="45.31058940921616" lon="8.809335949538712"><ele>107.66666666666666</ele><time>2026-03-29T16:23:25Z</time></trkpt><trkpt lat="45.31073874489329" lon="8.80929373132878"><ele>107.33333333333333</ele><time>2026-03-29T16:23:26Z</time></trkpt><trkpt lat="45.31090616249965" lon="8.809267194628607"><ele>107.0</ele><time>2026-03-29T16:23:27Z</time></trkpt><trkpt lat="45.31108452308659" lon="8.80924344025175"><ele>107.0</ele><time>2026-03-29T16:23:28Z</time></trkpt><trkpt lat="45.31123222431909" lon="8.809223769142147"><ele>107.0</ele><time>2026-03-29T16:23:29Z</time></trkpt><trkpt lat="45.31137429849035" lon="8.809204847453517"><ele>107.0</ele><time>2026-03-29T16:23:30Z</time></trkpt><trkpt lat="45.31153319677652" lon="8.80918368509917"><ele>107.0</ele><time>2026-03-29T16:23:31Z</time></trkpt><trkpt lat="45.31169196772216" lon="8.809161779909456"><ele>107.0</ele><time>2026-03-29T16:23:32Z</time></trkpt><trkpt lat="45.31182301280766" lon="8.80914194130238"><ele>107.0</ele><time>2026-03-29T16:23:33Z</time></trkpt><trkpt lat="45.31194559855614" lon="8.809119694877609"><ele>107.0</ele><time>2026-03-29T16:23:34Z</time></trkpt><trkpt lat="45.31206858004505" lon="8.809090925515338"><ele>107.0</ele><time>2026-03-29T16:23:35Z</time></trkpt><trkpt lat="45.3121761096916" lon="8.80906300499599"><ele>106.99999999999999</ele><time>2026-03-29T16:23:36Z</time></trkpt><trkpt lat="45.31227179088528" lon="8.809022392553414"><ele>106.99999999999999</ele><time>2026-03-29T16:23:37Z</time></trkpt><trkpt lat="45.312365195435184" lon="8.809040098361328"><ele>107.0</ele><time>2026-03-29T16:23:38Z</time></trkpt><trkpt lat="45.3124551247691" lon="8.809058889350526"><ele>107.0</ele><time>2026-03-29T16:23:39Z</time></trkpt><trkpt lat="45.31252857235329" lon="8.809137494109331"><ele>107.19999999999999</ele><time>2026-03-29T16:23:40Z</time></trkpt><trkpt lat="45.312598503441635" lon="8.809240531482601"><ele>107.39999999999999</ele><time>2026-03-29T16:23:41Z</time></trkpt><trkpt lat="45.31266683733224" lon="8.80932533239354"><ele>107.60000000000001</ele><time>2026-03-29T16:23:42Z</time></trkpt><trkpt lat="45.31273071983244" lon="8.809377205518468"><ele>107.80000000000001</ele><time>2026-03-29T16:23:43Z</time></trkpt><trkpt lat="45.312834409409746" lon="8.809367390783072"><ele>108.0</ele><time>2026-03-29T16:23:44Z</time></trkpt><trkpt lat="45.312938588453235" lon="8.809291543451625"><ele>108.0</ele><time>2026-03-29T16:23:45Z</time></trkpt><trkpt lat="45.31305795588325" lon="8.809249160797078"><ele>108.0</ele><time>2026-03-29T16:23:46Z</time></trkpt><trkpt lat="45.31318605776518" lon="8.809165495133405"><ele>108.0</ele><time>2026-03-29T16:23:47Z</time></trkpt><trkpt lat="45.31335078294953" lon="8.809093805519645"><ele>108.0</ele><time>2026-03-29T16:23:48Z</time></trkpt><trkpt lat="45.313517987695946" lon="8.808982654621103"><ele>108.0</ele><time>2026-03-29T16:23:49Z</time></trkpt><trkpt lat="45.313698779304175" lon="8.808908662292776"><ele>108.0</ele><time>2026-03-29T16:23:50Z</time></trkpt><trkpt lat="45.31386942978217" lon="8.808796836610018"><ele>108.0</ele><time>2026-03-29T16:23:51Z</time></trkpt><trkpt lat="45.31406185185586" lon="8.808694175583216"><ele>108.0</ele><time>2026-03-29T16:23:52Z</time></trkpt><trkpt lat="45.31423036019556" lon="8.808626977007467"><ele>108.0</ele><time>2026-03-29T16:23:53Z</time></trkpt><trkpt lat="45.314385070254346" lon="8.80854508364825"><ele>108.0</ele><time>2026-03-29T16:23:54Z</time></trkpt><trkpt lat="45.31455061008554" lon="8.808457457726872"><ele>108.0</ele><time>2026-03-29T16:23:55Z</time></trkpt><trkpt lat="45.31470282455941" lon="8.808375874496845"><ele>108.0</ele><time>2026-03-29T16:23:56Z</time></trkpt><trkpt lat="45.314835420383496" lon="8.808296953563275"><ele>108.0</ele><time>2026-03-29T16:23:57Z</time></trkpt><trkpt lat="45.31495806568335" lon="8.808222226679554"><ele>108.0</ele><time>2026-03-29T16:23:58Z</time></trkpt><trkpt lat="45.31506703698577" lon="8.808138850431984"><ele>108.0</ele><time>2026-03-29T16:23:59Z</time></trkpt><trkpt lat="45.315171636722425" lon="8.808095948920174"><ele>108.00000000000001</ele><time>2026-03-29T16:24:00Z</time></trkpt><trkpt lat="45.31524691826931" lon="8.80805247445014"><ele>108.00000000000001</ele><time>2026-03-29T16:24:01Z</time></trkpt><trkpt lat="45.315300677902776" lon="8.807999962116396"><ele>108.0</ele><time>2026-03-29T16:24:02Z</time></trkpt><trkpt lat="45.31538925609778" lon="8.807974452903883"><ele>108.0</ele><time>2026-03-29T16:24:04Z</time></trkpt><trkpt lat="45.31543148808121" lon="8.807787488085365"><ele>108.0</ele><time>2026-03-29T16:24:07Z</time></trkpt><trkpt lat="45.315408361424595" lon="8.807672942803212"><ele>108.00000000000001</ele><time>2026-03-29T16:24:08Z</time></trkpt><trkpt lat="45.315384544130254" lon="8.80753685440906"><ele>108.00000000000001</ele><time>2026-03-29T16:24:09Z</time></trkpt><trkpt lat="45.31536906003998" lon="8.807420829826683"><ele>108.0</ele><time>2026-03-29T16:24:10Z</time></trkpt><trkpt lat="45.315354505769335" lon="8.807237371491379"><ele>108.0</ele><time>2026-03-29T16:24:11Z</time></trkpt><trkpt lat="45.315329325540084" lon="8.807051050146196"><ele>108.0</ele><time>2026-03-29T16:24:12Z</time></trkpt><trkpt lat="45.31531843599254" lon="8.806898248901689"><ele>108.00000000000001</ele><time>2026-03-29T16:24:13Z</time></trkpt><trkpt lat="45.31529369794817" lon="8.806762332946354"><ele>108.00000000000001</ele><time>2026-03-29T16:24:14Z</time></trkpt><trkpt lat="45.31524689749097" lon="8.806625723138994"><ele>108.0</ele><time>2026-03-29T16:24:15Z</time></trkpt><trkpt lat="45.315169342203426" lon="8.806495946095309"><ele>108.0</ele><time>2026-03-29T16:24:16Z</time></trkpt><trkpt lat="45.3150593240697" lon="8.80638025112886"><ele>107.75</ele><time>2026-03-29T16:24:17Z</time></trkpt><trkpt lat="45.31494840436456" lon="8.806243967009918"><ele>107.5</ele><time>2026-03-29T16:24:18Z</time></trkpt><trkpt lat="45.31485061464962" lon="8.80612438787389"><ele>107.25</ele><time>2026-03-29T16:24:19Z</time></trkpt><trkpt lat="45.3147709910872" lon="8.806015140396696"><ele>107.0</ele><time>2026-03-29T16:24:20Z</time></trkpt><trkpt lat="45.31469842230598" lon="8.805913756323866"><ele>106.99999999999999</ele><time>2026-03-29T16:24:21Z</time></trkpt><trkpt lat="45.31463485787394" lon="8.805816639003563"><ele>107.0</ele><time>2026-03-29T16:24:22Z</time></trkpt><trkpt lat="45.31457576695951" lon="8.805730520146014"><ele>107.0</ele><time>2026-03-29T16:24:23Z</time></trkpt><trkpt lat="45.314532182328364" lon="8.805648799566216"><ele>107.0</ele><time>2026-03-29T16:24:24Z</time></trkpt><trkpt lat="45.31448486759818" lon="8.805576536931603"><ele>106.99999999999999</ele><time>2026-03-29T16:24:25Z</time></trkpt><trkpt lat="45.31445506659367" lon="8.805494035250044"><ele>107.0</ele><time>2026-03-29T16:24:27Z</time></trkpt><trkpt lat="45.31462840664747" lon="8.805335325564403"><ele>106.83333333333333</ele><time>2026-03-29T16:24:33Z</time></trkpt><trkpt lat="45.31474447746244" lon="8.805274973116331"><ele>106.66666666666666</ele><time>2026-03-29T16:24:35Z</time></trkpt><trkpt lat="45.314807544830764" lon="8.80523458561291"><ele>106.5</ele><time>2026-03-29T16:24:36Z</time></trkpt><trkpt lat="45.3148759233849" lon="8.805199632374084"><ele>106.33333333333334</ele><time>2026-03-29T16:24:37Z</time></trkpt><trkpt lat="45.3149516847813" lon="8.805161827510178"><ele>106.16666666666667</ele><time>2026-03-29T16:24:38Z</time></trkpt><trkpt lat="45.31503550256832" lon="8.805122540645621"><ele>106.0</ele><time>2026-03-29T16:24:39Z</time></trkpt><trkpt lat="45.31512403720017" lon="8.805076385242614"><ele>106.0</ele><time>2026-03-29T16:24:40Z</time></trkpt><trkpt lat="45.31521701729592" lon="8.80502311137265"><ele>106.0</ele><time>2026-03-29T16:24:41Z</time></trkpt><trkpt lat="45.31531811172813" lon="8.80496207057053"><ele>106.0</ele><time>2026-03-29T16:24:42Z</time></trkpt><trkpt lat="45.315423280353535" lon="8.804903776175758"><ele>106.0</ele><time>2026-03-29T16:24:43Z</time></trkpt><trkpt lat="45.31551767432863" lon="8.804840810226956"><ele>106.0</ele><time>2026-03-29T16:24:44Z</time></trkpt><trkpt lat="45.3156268389862" lon="8.804771512662462"><ele>106.0</ele><time>2026-03-29T16:24:45Z</time></trkpt><trkpt lat="45.31572778993629" lon="8.80470971850606"><ele>106.0</ele><time>2026-03-29T16:24:46Z</time></trkpt><trkpt lat="45.31582725764211" lon="8.804654210536794"><ele>106.0</ele><time>2026-03-29T16:24:47Z</time></trkpt><trkpt lat="45.31593287338535" lon="8.804593094549055"><ele>106.0</ele><time>2026-03-29T16:24:48Z</time></trkpt><trkpt lat="45.31603955496835" lon="8.804528797159316"><ele>106.0</ele><time>2026-03-29T16:24:49Z</time></trkpt><trkpt lat="45.31614417597721" lon="8.80446539724159"><ele>106.0</ele><time>2026-03-29T16:24:50Z</time></trkpt><trkpt lat="45.316252030823094" lon="8.804399958520877"><ele>106.0</ele><time>2026-03-29T16:24:51Z</time></trkpt><trkpt lat="45.316353850470755" lon="8.804337098658245"><ele>106.0</ele><time>2026-03-29T16:24:52Z</time></trkpt><trkpt lat="45.316455147667796" lon="8.804274215136624"><ele>106.0</ele><time>2026-03-29T16:24:53Z</time></trkpt><trkpt lat="45.31656163817184" lon="8.804208542079852"><ele>106.19999999999999</ele><time>2026-03-29T16:24:54Z</time></trkpt><trkpt lat="45.316656912307515" lon="8.804153516259397"><ele>106.39999999999999</ele><time>2026-03-29T16:24:55Z</time></trkpt><trkpt lat="45.31674761460143" lon="8.804096081361937"><ele>106.6</ele><time>2026-03-29T16:24:56Z</time></trkpt><trkpt lat="45.3168348525453" lon="8.804039555224241"><ele>106.8</ele><time>2026-03-29T16:24:57Z</time></trkpt><trkpt lat="45.31692564347487" lon="8.803980751093976"><ele>107.0</ele><time>2026-03-29T16:24:58Z</time></trkpt><trkpt lat="45.317010132199" lon="8.803926403371163"><ele>106.99999999999999</ele><time>2026-03-29T16:24:59Z</time></trkpt><trkpt lat="45.31709346705554" lon="8.803875883499588"><ele>107.0</ele><time>2026-03-29T16:25:00Z</time></trkpt><trkpt lat="45.3171740661186" lon="8.8038274118668"><ele>107.0</ele><time>2026-03-29T16:25:01Z</time></trkpt><trkpt lat="45.31724077008163" lon="8.803792725045637"><ele>107.0</ele><time>2026-03-29T16:25:02Z</time></trkpt><trkpt lat="45.31730244939007" lon="8.803758136557567"><ele>106.99999999999999</ele><time>2026-03-29T16:25:03Z</time></trkpt><trkpt lat="45.317393996195406" lon="8.803738015753526"><ele>107.0</ele><time>2026-03-29T16:25:05Z</time></trkpt><trkpt lat="45.3174711584686" lon="8.803705781547803"><ele>107.16666666666666</ele><time>2026-03-29T16:25:07Z</time></trkpt><trkpt lat="45.3175047011515" lon="8.80361500528829"><ele>107.33333333333333</ele><time>2026-03-29T16:25:09Z</time></trkpt><trkpt lat="45.31748768521215" lon="8.803518519166744"><ele>107.5</ele><time>2026-03-29T16:25:11Z</time></trkpt><trkpt lat="45.31745453190062" lon="8.803428900537144"><ele>107.66666666666666</ele><time>2026-03-29T16:25:12Z</time></trkpt><trkpt lat="45.317409694530625" lon="8.803313010274042"><ele>107.83333333333333</ele><time>2026-03-29T16:25:13Z</time></trkpt><trkpt lat="45.31736947862083" lon="8.80318285372341"><ele>108.0</ele><time>2026-03-29T16:25:14Z</time></trkpt><trkpt lat="45.317344050339" lon="8.803042808935118"><ele>107.80000000000001</ele><time>2026-03-29T16:25:15Z</time></trkpt><trkpt lat="45.317308586167506" lon="8.80292220287752"><ele>107.60000000000001</ele><time>2026-03-29T16:25:16Z</time></trkpt><trkpt lat="45.31727417607631" lon="8.80280285614251"><ele>107.39999999999999</ele><time>2026-03-29T16:25:17Z</time></trkpt><trkpt lat="45.31723627646512" lon="8.802660009401658"><ele>107.19999999999999</ele><time>2026-03-29T16:25:18Z</time></trkpt><trkpt lat="45.31717851676269" lon="8.80250371812938"><ele>107.0</ele><time>2026-03-29T16:25:19Z</time></trkpt><trkpt lat="45.31713178501619" lon="8.802346582720508"><ele>106.75</ele><time>2026-03-29T16:25:20Z</time></trkpt><trkpt lat="45.317089622136535" lon="8.802196364380585"><ele>106.5</ele><time>2026-03-29T16:25:21Z</time></trkpt><trkpt lat="45.31704718645544" lon="8.802041662948358"><ele>106.25</ele><time>2026-03-29T16:25:22Z</time></trkpt><trkpt lat="45.31700525503692" lon="8.801890633425307"><ele>106.0</ele><time>2026-03-29T16:25:23Z</time></trkpt><trkpt lat="45.31697477177553" lon="8.801726816254119"><ele>106.4</ele><time>2026-03-29T16:25:24Z</time></trkpt><trkpt lat="45.31691885430772" lon="8.801578818416841"><ele>106.8</ele><time>2026-03-29T16:25:25Z</time></trkpt><trkpt lat="45.31687978582207" lon="8.801429490005042"><ele>107.20000000000002</ele><time>2026-03-29T16:25:26Z</time></trkpt><trkpt lat="45.31684509546809" lon="8.801298121199281"><ele>107.60000000000001</ele><time>2026-03-29T16:25:27Z</time></trkpt><trkpt lat="45.316804939470835" lon="8.801182014894053"><ele>108.0</ele><time>2026-03-29T16:25:28Z</time></trkpt><trkpt lat="45.31677183465857" lon="8.801069475288097"><ele>107.80000000000001</ele><time>2026-03-29T16:25:29Z</time></trkpt><trkpt lat="45.31671036358597" lon="8.80089158895031"><ele>107.60000000000001</ele><time>2026-03-29T16:25:31Z</time></trkpt><trkpt lat="45.31667208187203" lon="8.800816403199176"><ele>107.39999999999999</ele><time>2026-03-29T16:25:32Z</time></trkpt><trkpt lat="45.316672397790775" lon="8.800714645608469"><ele>107.19999999999999</ele><time>2026-03-29T16:25:34Z</time></trkpt><trkpt lat="45.31673945457182" lon="8.800638492041859"><ele>107.0</ele><time>2026-03-29T16:25:37Z</time></trkpt><trkpt lat="45.31688639685887" lon="8.800623120606943"><ele>107.0</ele><time>2026-03-29T16:25:39Z</time></trkpt><trkpt lat="45.316983036165254" lon="8.800606224736892"><ele>106.99999999999999</ele><time>2026-03-29T16:25:40Z</time></trkpt><trkpt lat="45.317102755264244" lon="8.800562830877796"><ele>106.99999999999999</ele><time>2026-03-29T16:25:41Z</time></trkpt><trkpt lat="45.317212326498804" lon="8.80056273787644"><ele>107.0</ele><time>2026-03-29T16:25:42Z</time></trkpt><trkpt lat="45.31731248462854" lon="8.800544529236568"><ele>107.0</ele><time>2026-03-29T16:25:43Z</time></trkpt><trkpt lat="45.31740629035197" lon="8.800527475446133"><ele>107.19999999999999</ele><time>2026-03-29T16:25:44Z</time></trkpt><trkpt lat="45.31749707030561" lon="8.800510971754155"><ele>107.39999999999999</ele><time>2026-03-29T16:25:45Z</time></trkpt><trkpt lat="45.31759456427292" lon="8.80049350076947"><ele>107.60000000000001</ele><time>2026-03-29T16:25:46Z</time></trkpt><trkpt lat="45.31770095283403" lon="8.80047533580884"><ele>107.80000000000001</ele><time>2026-03-29T16:25:47Z</time></trkpt><trkpt lat="45.317809092276214" lon="8.800456871895221"><ele>108.0</ele><time>2026-03-29T16:25:48Z</time></trkpt><trkpt lat="45.31792316047415" lon="8.800437395683389"><ele>108.0</ele><time>2026-03-29T16:25:49Z</time></trkpt><trkpt lat="45.31802441241472" lon="8.800420107766659"><ele>108.00000000000001</ele><time>2026-03-29T16:25:50Z</time></trkpt><trkpt lat="45.31812301275272" lon="8.800402236358345"><ele>108.00000000000001</ele><time>2026-03-29T16:25:51Z</time></trkpt><trkpt lat="45.31823310380112" lon="8.800381674094233"><ele>108.0</ele><time>2026-03-29T16:25:52Z</time></trkpt><trkpt lat="45.318341133582834" lon="8.800361496838162"><ele>108.0</ele><time>2026-03-29T16:25:53Z</time></trkpt><trkpt lat="45.31845224821082" lon="8.800340743410146"><ele>107.75</ele><time>2026-03-29T16:25:54Z</time></trkpt><trkpt lat="45.31856135831681" lon="8.800320364378463"><ele>107.5</ele><time>2026-03-29T16:25:55Z</time></trkpt><trkpt lat="45.3186778651886" lon="8.800298603812172"><ele>107.25</ele><time>2026-03-29T16:25:56Z</time></trkpt><trkpt lat="45.31879116630953" lon="8.80027744200269"><ele>107.0</ele><time>2026-03-29T16:25:57Z</time></trkpt><trkpt lat="45.318911889949206" lon="8.800254893848468"><ele>107.0</ele><time>2026-03-29T16:25:58Z</time></trkpt><trkpt lat="45.31903542987465" lon="8.80023296640491"><ele>107.0</ele><time>2026-03-29T16:25:59Z</time></trkpt><trkpt lat="45.3191565139586" lon="8.800211558188327"><ele>107.0</ele><time>2026-03-29T16:26:00Z</time></trkpt><trkpt lat="45.31928144189385" lon="8.800189470352308"><ele>107.0</ele><time>2026-03-29T16:26:01Z</time></trkpt><trkpt lat="45.319401624399994" lon="8.800168221542503"><ele>107.0</ele><time>2026-03-29T16:26:02Z</time></trkpt><trkpt lat="45.319518433169506" lon="8.800144937297219"><ele>107.0</ele><time>2026-03-29T16:26:03Z</time></trkpt><trkpt lat="45.319636390227565" lon="8.800121117578488"><ele>107.0</ele><time>2026-03-29T16:26:04Z</time></trkpt><trkpt lat="45.31975020513367" lon="8.800098134294167"><ele>107.0</ele><time>2026-03-29T16:26:05Z</time></trkpt><trkpt lat="45.31986457647258" lon="8.800053279197348"><ele>107.0</ele><time>2026-03-29T16:26:06Z</time></trkpt><trkpt lat="45.31998059624006" lon="8.800029950622845"><ele>107.0</ele><time>2026-03-29T16:26:07Z</time></trkpt><trkpt lat="45.320107010337004" lon="8.80000570638163"><ele>107.0</ele><time>2026-03-29T16:26:08Z</time></trkpt><trkpt lat="45.32022895723447" lon="8.799985786568564"><ele>107.0</ele><time>2026-03-29T16:26:09Z</time></trkpt><trkpt lat="45.32035034571915" lon="8.799984547631237"><ele>107.0</ele><time>2026-03-29T16:26:10Z</time></trkpt><trkpt lat="45.32047650712093" lon="8.79996145794466"><ele>107.0</ele><time>2026-03-29T16:26:11Z</time></trkpt><trkpt lat="45.3206066241114" lon="8.799917132236075"><ele>107.0</ele><time>2026-03-29T16:26:12Z</time></trkpt><trkpt lat="45.320746656365166" lon="8.799891478034416"><ele>107.0</ele><time>2026-03-29T16:26:13Z</time></trkpt><trkpt lat="45.32088352526696" lon="8.79986624526823"><ele>107.5</ele><time>2026-03-29T16:26:14Z</time></trkpt><trkpt lat="45.3210278397142" lon="8.799860554866552"><ele>108.0</ele><time>2026-03-29T16:26:15Z</time></trkpt><trkpt lat="45.32116452280143" lon="8.799813845582365"><ele>108.5</ele><time>2026-03-29T16:26:15.999Z</time></trkpt><trkpt lat="45.32127603701252" lon="8.799794562805875"><ele>109.0</ele><time>2026-03-29T16:26:16.999Z</time></trkpt><trkpt lat="45.32139770222288" lon="8.799793715040492"><ele>108.6</ele><time>2026-03-29T16:26:17.999Z</time></trkpt><trkpt lat="45.321513830697874" lon="8.799773161656022"><ele>108.2</ele><time>2026-03-29T16:26:18.999Z</time></trkpt><trkpt lat="45.32162216431879" lon="8.799731619783982"><ele>107.79999999999998</ele><time>2026-03-29T16:26:19.999Z</time></trkpt><trkpt lat="45.32172529721482" lon="8.799714009373204"><ele>107.39999999999999</ele><time>2026-03-29T16:26:20.999Z</time></trkpt><trkpt lat="45.321837752245884" lon="8.799715831354463"><ele>107.0</ele><time>2026-03-29T16:26:21.999Z</time></trkpt><trkpt lat="45.32195014092769" lon="8.799695939838076"><ele>107.0</ele><time>2026-03-29T16:26:22.999Z</time></trkpt><trkpt lat="45.32207038743924" lon="8.799674657611522"><ele>107.0</ele><time>2026-03-29T16:26:23.999Z</time></trkpt><trkpt lat="45.322180636272" lon="8.799655144856349"><ele>107.0</ele><time>2026-03-29T16:26:24.999Z</time></trkpt><trkpt lat="45.3222903487041" lon="8.799610658789907"><ele>107.0</ele><time>2026-03-29T16:26:25.999Z</time></trkpt><trkpt lat="45.32240649283517" lon="8.799612056456244"><ele>107.25</ele><time>2026-03-29T16:26:26.999Z</time></trkpt><trkpt lat="45.322526673208074" lon="8.799589278455366"><ele>107.5</ele><time>2026-03-29T16:26:27.999Z</time></trkpt><trkpt lat="45.32264341775574" lon="8.79956848143334"><ele>107.75</ele><time>2026-03-29T16:26:28.999Z</time></trkpt><trkpt lat="45.32275744022797" lon="8.799548169312448"><ele>108.0</ele><time>2026-03-29T16:26:29.999Z</time></trkpt><trkpt lat="45.322857743582084" lon="8.799530301146596"><ele>108.0</ele><time>2026-03-29T16:26:30.999Z</time></trkpt><trkpt lat="45.32295358133504" lon="8.799513228474195"><ele>108.00000000000001</ele><time>2026-03-29T16:26:31.999Z</time></trkpt><trkpt lat="45.323025640609515" lon="8.799500391713371"><ele>108.00000000000001</ele><time>2026-03-29T16:26:32.999Z</time></trkpt><trkpt lat="45.32310168058822" lon="8.799486845849158"><ele>108.0</ele><time>2026-03-29T16:26:34Z</time></trkpt><trkpt lat="45.323226609872464" lon="8.799466252088953"><ele>108.0</ele><time>2026-03-29T16:26:36Z</time></trkpt><trkpt lat="45.32333777205673" lon="8.799454833770442"><ele>107.80000000000001</ele><time>2026-03-29T16:26:38Z</time></trkpt><trkpt lat="45.323401572580316" lon="8.799431191711244"><ele>107.60000000000001</ele><time>2026-03-29T16:26:40Z</time></trkpt><trkpt lat="45.323403655953136" lon="8.799625226536289"><ele>107.39999999999999</ele><time>2026-03-29T16:26:53Z</time></trkpt><trkpt lat="45.32336984114353" lon="8.799738442564419"><ele>107.19999999999999</ele><time>2026-03-29T16:26:54Z</time></trkpt><trkpt lat="45.32334340688886" lon="8.799859649658519"><ele>107.0</ele><time>2026-03-29T16:26:55Z</time></trkpt><trkpt lat="45.3233112981247" lon="8.799994255062984"><ele>107.0</ele><time>2026-03-29T16:26:56Z</time></trkpt><trkpt lat="45.32327924448343" lon="8.800142052301902"><ele>107.0</ele><time>2026-03-29T16:26:57Z</time></trkpt><trkpt lat="45.323241749151876" lon="8.800297866015931"><ele>107.0</ele><time>2026-03-29T16:26:58Z</time></trkpt><trkpt lat="45.323205226469355" lon="8.800466919854255"><ele>107.0</ele><time>2026-03-29T16:26:59Z</time></trkpt><trkpt lat="45.32316550347681" lon="8.800647315054082"><ele>107.0</ele><time>2026-03-29T16:27:00Z</time></trkpt><trkpt lat="45.32311972547452" lon="8.80084684184178"><ele>107.0</ele><time>2026-03-29T16:27:01Z</time></trkpt><trkpt lat="45.323075111045696" lon="8.801039584218657"><ele>107.0</ele><time>2026-03-29T16:27:02Z</time></trkpt><trkpt lat="45.3230234226305" lon="8.801243320900387"><ele>107.0</ele><time>2026-03-29T16:27:03Z</time></trkpt><trkpt lat="45.322974104013916" lon="8.801449156677998"><ele>107.0</ele><time>2026-03-29T16:27:04Z</time></trkpt><trkpt lat="45.322925255876385" lon="8.801642954616252"><ele>107.0</ele><time>2026-03-29T16:27:05Z</time></trkpt><trkpt lat="45.3228784035501" lon="8.801829232083474"><ele>107.0</ele><time>2026-03-29T16:27:06Z</time></trkpt><trkpt lat="45.32283763365758" lon="8.802017019197885"><ele>107.0</ele><time>2026-03-29T16:27:07Z</time></trkpt><trkpt lat="45.32279523379133" lon="8.80219027714094"><ele>107.25</ele><time>2026-03-29T16:27:08Z</time></trkpt><trkpt lat="45.32275134108437" lon="8.802372683494553"><ele>107.5</ele><time>2026-03-29T16:27:09Z</time></trkpt><trkpt lat="45.322708406596924" lon="8.802549839820696"><ele>107.75</ele><time>2026-03-29T16:27:10Z</time></trkpt><trkpt lat="45.322666772869496" lon="8.802732646464134"><ele>108.0</ele><time>2026-03-29T16:27:11Z</time></trkpt><trkpt lat="45.32261652521542" lon="8.802931792480017"><ele>108.0</ele><time>2026-03-29T16:27:12Z</time></trkpt><trkpt lat="45.32256927764421" lon="8.803133499552873"><ele>108.0</ele><time>2026-03-29T16:27:13Z</time></trkpt><trkpt lat="45.32252184556095" lon="8.803333481734352"><ele>108.0</ele><time>2026-03-29T16:27:14Z</time></trkpt><trkpt lat="45.32247624241341" lon="8.803535880264846"><ele>108.0</ele><time>2026-03-29T16:27:15Z</time></trkpt><trkpt lat="45.32243807030373" lon="8.803707639036645"><ele>108.0</ele><time>2026-03-29T16:27:16Z</time></trkpt><trkpt lat="45.322405424310695" lon="8.803873662204856"><ele>108.00000000000001</ele><time>2026-03-29T16:27:17Z</time></trkpt><trkpt lat="45.322378575733815" lon="8.804026779684227"><ele>108.00000000000001</ele><time>2026-03-29T16:27:18Z</time></trkpt><trkpt lat="45.322359762063456" lon="8.804173111199317"><ele>108.0</ele><time>2026-03-29T16:27:19Z</time></trkpt><trkpt lat="45.322348167419676" lon="8.804326363965087"><ele>108.0</ele><time>2026-03-29T16:27:20Z</time></trkpt><trkpt lat="45.32234462210536" lon="8.80447430450963"><ele>108.33333333333333</ele><time>2026-03-29T16:27:21Z</time></trkpt><trkpt lat="45.322351386340664" lon="8.80460466013179"><ele>108.66666666666666</ele><time>2026-03-29T16:27:22Z</time></trkpt><trkpt lat="45.322341243107566" lon="8.804737739380395"><ele>109.0</ele><time>2026-03-29T16:27:23Z</time></trkpt><trkpt lat="45.32234781190567" lon="8.804839729258275"><ele>109.33333333333333</ele><time>2026-03-29T16:27:24Z</time></trkpt><trkpt lat="45.32237017724935" lon="8.804931634895823"><ele>109.66666666666666</ele><time>2026-03-29T16:27:25Z</time></trkpt><trkpt lat="45.32236184424038" lon="8.805032951218314"><ele>110.0</ele><time>2026-03-29T16:27:27Z</time></trkpt><trkpt lat="45.32270274733942" lon="8.805023807421302"><ele>110.0</ele><time>2026-03-29T16:27:32Z</time></trkpt><trkpt lat="45.32281417516216" lon="8.805021846699354"><ele>110.0</ele><time>2026-03-29T16:27:33Z</time></trkpt><trkpt lat="45.32292473017196" lon="8.80501838671615"><ele>110.0</ele><time>2026-03-29T16:27:34Z</time></trkpt><trkpt lat="45.32301566581365" lon="8.80501255219104"><ele>110.0</ele><time>2026-03-29T16:27:35Z</time></trkpt><trkpt lat="45.3231112762591" lon="8.80500487735183"><ele>110.0</ele><time>2026-03-29T16:27:36Z</time></trkpt><trkpt lat="45.32322115933271" lon="8.804998337345433"><ele>109.5</ele><time>2026-03-29T16:27:37Z</time></trkpt><trkpt lat="45.32333580917794" lon="8.804988992037035"><ele>109.0</ele><time>2026-03-29T16:27:38Z</time></trkpt><trkpt lat="45.32344858391313" lon="8.804984403505744"><ele>108.5</ele><time>2026-03-29T16:27:39Z</time></trkpt><trkpt lat="45.32356964040613" lon="8.804977739817877"><ele>108.0</ele><time>2026-03-29T16:27:40Z</time></trkpt><trkpt lat="45.32368855567622" lon="8.8049706298713"><ele>108.0</ele><time>2026-03-29T16:27:41Z</time></trkpt><trkpt lat="45.32379378889928" lon="8.804963105323168"><ele>108.00000000000001</ele><time>2026-03-29T16:27:42Z</time></trkpt><trkpt lat="45.32388542291506" lon="8.804962026771811"><ele>108.00000000000001</ele><time>2026-03-29T16:27:43Z</time></trkpt><trkpt lat="45.32397838382443" lon="8.804960892597213"><ele>108.0</ele><time>2026-03-29T16:27:44Z</time></trkpt><trkpt lat="45.324065152843595" lon="8.80495703240632"><ele>108.0</ele><time>2026-03-29T16:27:45Z</time></trkpt><trkpt lat="45.32421101096509" lon="8.804941511434349"><ele>107.83333333333333</ele><time>2026-03-29T16:27:47Z</time></trkpt><trkpt lat="45.32428086025938" lon="8.8049191006752"><ele>107.66666666666666</ele><time>2026-03-29T16:27:48Z</time></trkpt><trkpt lat="45.324339622157076" lon="8.804883268769577"><ele>107.5</ele><time>2026-03-29T16:27:49Z</time></trkpt><trkpt lat="45.32440465500552" lon="8.80482231531207"><ele>107.33333333333333</ele><time>2026-03-29T16:27:50Z</time></trkpt><trkpt lat="45.32448340776862" lon="8.804746184859518"><ele>107.16666666666666</ele><time>2026-03-29T16:27:51Z</time></trkpt><trkpt lat="45.32457252314897" lon="8.804654124987355"><ele>107.0</ele><time>2026-03-29T16:27:52Z</time></trkpt><trkpt lat="45.32467029989618" lon="8.804548916934657"><ele>107.5</ele><time>2026-03-29T16:27:53Z</time></trkpt><trkpt lat="45.32477308693082" lon="8.804454261397908"><ele>108.0</ele><time>2026-03-29T16:27:54Z</time></trkpt><trkpt lat="45.324886576345136" lon="8.804355383731203"><ele>108.5</ele><time>2026-03-29T16:27:55Z</time></trkpt><trkpt lat="45.325002119743814" lon="8.804248015940788"><ele>109.0</ele><time>2026-03-29T16:27:56Z</time></trkpt><trkpt lat="45.32511808403216" lon="8.804129261708903"><ele>109.0</ele><time>2026-03-29T16:27:57Z</time></trkpt><trkpt lat="45.325225299664574" lon="8.804026688313227"><ele>109.0</ele><time>2026-03-29T16:27:58Z</time></trkpt><trkpt lat="45.32532054497457" lon="8.803935474049455"><ele>109.0</ele><time>2026-03-29T16:27:59Z</time></trkpt><trkpt lat="45.325410030691586" lon="8.803848092830584"><ele>109.0</ele><time>2026-03-29T16:28:00Z</time></trkpt><trkpt lat="45.325496766512536" lon="8.80376854786213"><ele>109.25</ele><time>2026-03-29T16:28:01Z</time></trkpt><trkpt lat="45.32558856483436" lon="8.803700711330867"><ele>109.5</ele><time>2026-03-29T16:28:02Z</time></trkpt><trkpt lat="45.32568660469823" lon="8.803650934693309"><ele>109.75</ele><time>2026-03-29T16:28:03Z</time></trkpt><trkpt lat="45.325801873782424" lon="8.803612280058458"><ele>110.0</ele><time>2026-03-29T16:28:04Z</time></trkpt><trkpt lat="45.32592997433339" lon="8.803566561847093"><ele>110.0</ele><time>2026-03-29T16:28:05Z</time></trkpt><trkpt lat="45.32605643019237" lon="8.803510941405419"><ele>110.0</ele><time>2026-03-29T16:28:06Z</time></trkpt><trkpt lat="45.32617603992097" lon="8.803455746187629"><ele>110.0</ele><time>2026-03-29T16:28:07Z</time></trkpt><trkpt lat="45.32628619922371" lon="8.803409849928055"><ele>110.0</ele><time>2026-03-29T16:28:08Z</time></trkpt><trkpt lat="45.326398000631364" lon="8.803363597690998"><ele>109.8</ele><time>2026-03-29T16:28:09Z</time></trkpt><trkpt lat="45.326520195248904" lon="8.803312958848329"><ele>109.6</ele><time>2026-03-29T16:28:10Z</time></trkpt><trkpt lat="45.326631128266996" lon="8.803268646950318"><ele>109.4</ele><time>2026-03-29T16:28:11Z</time></trkpt><trkpt lat="45.3267328381665" lon="8.803226931290704"><ele>109.2</ele><time>2026-03-29T16:28:12Z</time></trkpt><trkpt lat="45.32682548410736" lon="8.803188473054645"><ele>109.0</ele><time>2026-03-29T16:28:13Z</time></trkpt><trkpt lat="45.3269191368898" lon="8.80314866031943"><ele>109.00000000000001</ele><time>2026-03-29T16:28:14Z</time></trkpt><trkpt lat="45.32700391942629" lon="8.803111197327004"><ele>109.0</ele><time>2026-03-29T16:28:15Z</time></trkpt><trkpt lat="45.32707280895898" lon="8.803073125355544"><ele>109.0</ele><time>2026-03-29T16:28:16Z</time></trkpt><trkpt lat="45.32713321955022" lon="8.803022695603758"><ele>109.0</ele><time>2026-03-29T16:28:17Z</time></trkpt><trkpt lat="45.327185127166054" lon="8.802966414749113"><ele>109.00000000000001</ele><time>2026-03-29T16:28:18Z</time></trkpt><trkpt lat="45.32725387323608" lon="8.802854598792537"><ele>109.0</ele><time>2026-03-29T16:28:20Z</time></trkpt><trkpt lat="45.32731096215663" lon="8.802771945806132"><ele>109.0</ele><time>2026-03-29T16:28:22Z</time></trkpt><trkpt lat="45.32737708033571" lon="8.802761840854755"><ele>109.0</ele><time>2026-03-29T16:28:25Z</time></trkpt><trkpt lat="45.32741720212526" lon="8.802899891016118"><ele>109.0</ele><time>2026-03-29T16:28:28Z</time></trkpt><trkpt lat="45.327494923398426" lon="8.80305224671808"><ele>109.0</ele><time>2026-03-29T16:28:29.999Z</time></trkpt><trkpt lat="45.32753943991881" lon="8.803138652490835"><ele>109.0</ele><time>2026-03-29T16:28:30.999Z</time></trkpt><trkpt lat="45.32756215356683" lon="8.803236401387595"><ele>109.0</ele><time>2026-03-29T16:28:31.999Z</time></trkpt><trkpt lat="45.32761202881594" lon="8.803310451997351"><ele>109.0</ele><time>2026-03-29T16:28:33Z</time></trkpt><trkpt lat="45.327639335385804" lon="8.803414455650342"><ele>109.0</ele><time>2026-03-29T16:28:33.999Z</time></trkpt><trkpt lat="45.327680955210454" lon="8.803509374793785"><ele>109.0</ele><time>2026-03-29T16:28:34.999Z</time></trkpt><trkpt lat="45.327730679842105" lon="8.80357891491668"><ele>109.0</ele><time>2026-03-29T16:28:35.999Z</time></trkpt><trkpt lat="45.32776657979537" lon="8.803665144557659"><ele>109.0</ele><time>2026-03-29T16:28:36.999Z</time></trkpt><trkpt lat="45.327800211812125" lon="8.80374426434048"><ele>109.0</ele><time>2026-03-29T16:28:37.999Z</time></trkpt><trkpt lat="45.32785836623756" lon="8.803872981156996"><ele>109.00000000000001</ele><time>2026-03-29T16:28:40Z</time></trkpt><trkpt lat="45.32790341903811" lon="8.803986286813354"><ele>109.0</ele><time>2026-03-29T16:28:42Z</time></trkpt><trkpt lat="45.32795799361767" lon="8.804118005258909"><ele>109.0</ele><time>2026-03-29T16:28:44Z</time></trkpt><trkpt lat="45.32799810019691" lon="8.804206391832794"><ele>109.0</ele><time>2026-03-29T16:28:45Z</time></trkpt><trkpt lat="45.328038567957016" lon="8.804299189196024"><ele>109.00000000000001</ele><time>2026-03-29T16:28:46Z</time></trkpt><trkpt lat="45.32807451429326" lon="8.804418395556368"><ele>109.0</ele><time>2026-03-29T16:28:47Z</time></trkpt><trkpt lat="45.32812840303391" lon="8.804507906170876"><ele>109.0</ele><time>2026-03-29T16:28:48Z</time></trkpt><trkpt lat="45.32819168840687" lon="8.804638964856926"><ele>109.0</ele><time>2026-03-29T16:28:49Z</time></trkpt><trkpt lat="45.32823611289119" lon="8.80473582778426"><ele>109.0</ele><time>2026-03-29T16:28:50Z</time></trkpt><trkpt lat="45.32828117205486" lon="8.8048423429017"><ele>109.0</ele><time>2026-03-29T16:28:51Z</time></trkpt><trkpt lat="45.328331724105105" lon="8.804954807226748"><ele>109.0</ele><time>2026-03-29T16:28:52Z</time></trkpt><trkpt lat="45.32839128843323" lon="8.80507934055434"><ele>109.0</ele><time>2026-03-29T16:28:53Z</time></trkpt><trkpt lat="45.32845321697551" lon="8.805217166017577"><ele>109.0</ele><time>2026-03-29T16:28:54Z</time></trkpt><trkpt lat="45.32852456220301" lon="8.805373122090437"><ele>109.0</ele><time>2026-03-29T16:28:55Z</time></trkpt><trkpt lat="45.328583721019854" lon="8.805503183619829"><ele>109.0</ele><time>2026-03-29T16:28:56Z</time></trkpt><trkpt lat="45.32862029105921" lon="8.805628435646286"><ele>109.00000000000001</ele><time>2026-03-29T16:28:57Z</time></trkpt><trkpt lat="45.3286823391813" lon="8.805727515121722"><ele>109.0</ele><time>2026-03-29T16:28:58Z</time></trkpt><trkpt lat="45.32873332116258" lon="8.805838378347326"><ele>109.0</ele><time>2026-03-29T16:28:59Z</time></trkpt><trkpt lat="45.32876562097627" lon="8.80592445884434"><ele>109.0</ele><time>2026-03-29T16:29:00Z</time></trkpt><trkpt lat="45.32881582612015" lon="8.806034777622926"><ele>109.00000000000001</ele><time>2026-03-29T16:29:01Z</time></trkpt><trkpt lat="45.32886703535456" lon="8.806152732372956"><ele>109.0</ele><time>2026-03-29T16:29:02Z</time></trkpt><trkpt lat="45.32891731600441" lon="8.806274565712192"><ele>109.4</ele><time>2026-03-29T16:29:03Z</time></trkpt><trkpt lat="45.328959626863615" lon="8.80637539517934"><ele>109.80000000000001</ele><time>2026-03-29T16:29:04Z</time></trkpt><trkpt lat="45.32900935737294" lon="8.80648190037408"><ele>110.19999999999999</ele><time>2026-03-29T16:29:05Z</time></trkpt><trkpt lat="45.329054227660066" lon="8.806578548306529"><ele>110.6</ele><time>2026-03-29T16:29:06Z</time></trkpt><trkpt lat="45.32909360372109" lon="8.80666620086793"><ele>111.0</ele><time>2026-03-29T16:29:07Z</time></trkpt><trkpt lat="45.32916016295256" lon="8.806812568852994"><ele>110.8</ele><time>2026-03-29T16:29:09Z</time></trkpt><trkpt lat="45.32920715487562" lon="8.806927196542988"><ele>110.6</ele><time>2026-03-29T16:29:11Z</time></trkpt><trkpt lat="45.3293211544698" lon="8.806930870695588"><ele>110.4</ele><time>2026-03-29T16:29:13Z</time></trkpt><trkpt lat="45.32945040012666" lon="8.806899749597102"><ele>110.2</ele><time>2026-03-29T16:29:15Z</time></trkpt><trkpt lat="45.329554205946415" lon="8.80687327164531"><ele>110.0</ele><time>2026-03-29T16:29:16Z</time></trkpt><trkpt lat="45.32966814072322" lon="8.806854954390985"><ele>109.75</ele><time>2026-03-29T16:29:17Z</time></trkpt><trkpt lat="45.329801887520915" lon="8.806817048009297"><ele>109.5</ele><time>2026-03-29T16:29:18Z</time></trkpt><trkpt lat="45.329940705857595" lon="8.80677938897864"><ele>109.25</ele><time>2026-03-29T16:29:19Z</time></trkpt><trkpt lat="45.33006594775425" lon="8.806745933950136"><ele>109.0</ele><time>2026-03-29T16:29:20Z</time></trkpt><trkpt lat="45.33018985603803" lon="8.80673930192957"><ele>109.0</ele><time>2026-03-29T16:29:21Z</time></trkpt><trkpt lat="45.33031231374146" lon="8.806708963031248"><ele>109.0</ele><time>2026-03-29T16:29:22Z</time></trkpt><trkpt lat="45.33041438138078" lon="8.80666095071533"><ele>109.0</ele><time>2026-03-29T16:29:23Z</time></trkpt><trkpt lat="45.33051542014232" lon="8.80663825680162"><ele>109.0</ele><time>2026-03-29T16:29:24Z</time></trkpt><trkpt lat="45.33060578379052" lon="8.806630792021458"><ele>109.0</ele><time>2026-03-29T16:29:25Z</time></trkpt><trkpt lat="45.33068760763153" lon="8.806616434374284"><ele>109.0</ele><time>2026-03-29T16:29:26Z</time></trkpt><trkpt lat="45.33076707191941" lon="8.806614007580748"><ele>109.0</ele><time>2026-03-29T16:29:27Z</time></trkpt><trkpt lat="45.33084847822576" lon="8.806652816348903"><ele>109.0</ele><time>2026-03-29T16:29:28Z</time></trkpt><trkpt lat="45.33095316422177" lon="8.806693532020969"><ele>109.0</ele><time>2026-03-29T16:29:29Z</time></trkpt><trkpt lat="45.331087514763304" lon="8.806696722683617"><ele>109.0</ele><time>2026-03-29T16:29:30Z</time></trkpt><trkpt lat="45.331231897700576" lon="8.806717996077342"><ele>109.33333333333334</ele><time>2026-03-29T16:29:31Z</time></trkpt><trkpt lat="45.3313924965136" lon="8.80672822420192"><ele>109.66666666666666</ele><time>2026-03-29T16:29:32Z</time></trkpt><trkpt lat="45.331544034098215" lon="8.806716134441471"><ele>110.0</ele><time>2026-03-29T16:29:33Z</time></trkpt><trkpt lat="45.33169343103149" lon="8.806698988193292"><ele>110.0</ele><time>2026-03-29T16:29:34Z</time></trkpt><trkpt lat="45.33184662357442" lon="8.80668454776033"><ele>110.0</ele><time>2026-03-29T16:29:35Z</time></trkpt><trkpt lat="45.33198492168716" lon="8.806673950136034"><ele>110.0</ele><time>2026-03-29T16:29:36Z</time></trkpt><trkpt lat="45.33210762565152" lon="8.806682430461967"><ele>110.0</ele><time>2026-03-29T16:29:37Z</time></trkpt><trkpt lat="45.332224717766294" lon="8.806675889430082"><ele>110.0</ele><time>2026-03-29T16:29:38Z</time></trkpt><trkpt lat="45.33233435104698" lon="8.80667096563453"><ele>110.0</ele><time>2026-03-29T16:29:39Z</time></trkpt><trkpt lat="45.332446732372354" lon="8.80667367509161"><ele>110.0</ele><time>2026-03-29T16:29:40Z</time></trkpt><trkpt lat="45.332562593483324" lon="8.80668894194224"><ele>110.0</ele><time>2026-03-29T16:29:41Z</time></trkpt><trkpt lat="45.33268500923082" lon="8.806718448922982"><ele>110.0</ele><time>2026-03-29T16:29:42Z</time></trkpt><trkpt lat="45.33281510177779" lon="8.806775863012236"><ele>110.0</ele><time>2026-03-29T16:29:43Z</time></trkpt><trkpt lat="45.332941260895325" lon="8.806811057651208"><ele>110.0</ele><time>2026-03-29T16:29:44Z</time></trkpt><trkpt lat="45.333062556003405" lon="8.80685796076587"><ele>110.0</ele><time>2026-03-29T16:29:45Z</time></trkpt><trkpt lat="45.33319954250084" lon="8.806871896578178"><ele>109.8</ele><time>2026-03-29T16:29:46Z</time></trkpt><trkpt lat="45.33333167857873" lon="8.80686372450854"><ele>109.6</ele><time>2026-03-29T16:29:47Z</time></trkpt><trkpt lat="45.33344612085875" lon="8.806849553277829"><ele>109.4</ele><time>2026-03-29T16:29:48Z</time></trkpt><trkpt lat="45.333538530958165" lon="8.806821287771303"><ele>109.2</ele><time>2026-03-29T16:29:49Z</time></trkpt><trkpt lat="45.333631325498494" lon="8.806792672499563"><ele>109.0</ele><time>2026-03-29T16:29:50Z</time></trkpt><trkpt lat="45.333702868762444" lon="8.806686877359772"><ele>109.2</ele><time>2026-03-29T16:29:51Z</time></trkpt><trkpt lat="45.333788477994794" lon="8.806607345323018"><ele>109.4</ele><time>2026-03-29T16:29:52Z</time></trkpt><trkpt lat="45.333864685002844" lon="8.806505441116924"><ele>109.6</ele><time>2026-03-29T16:29:53Z</time></trkpt><trkpt lat="45.33394773755611" lon="8.806409726857655"><ele>109.8</ele><time>2026-03-29T16:29:54Z</time></trkpt><trkpt lat="45.334028691481016" lon="8.806312504069446"><ele>110.0</ele><time>2026-03-29T16:29:55Z</time></trkpt><trkpt lat="45.33411367168178" lon="8.806209830067985"><ele>110.0</ele><time>2026-03-29T16:29:56Z</time></trkpt><trkpt lat="45.33419833219253" lon="8.806084612327862"><ele>110.0</ele><time>2026-03-29T16:29:57Z</time></trkpt><trkpt lat="45.3343022334757" lon="8.805982007941124"><ele>110.0</ele><time>2026-03-29T16:29:58Z</time></trkpt><trkpt lat="45.33440263401068" lon="8.80586070312496"><ele>110.0</ele><time>2026-03-29T16:29:59Z</time></trkpt><trkpt lat="45.334499752510474" lon="8.805743363605751"><ele>110.0</ele><time>2026-03-29T16:30:00Z</time></trkpt><trkpt lat="45.33460137010481" lon="8.805619734008705"><ele>110.0</ele><time>2026-03-29T16:30:01Z</time></trkpt><trkpt lat="45.334700779668125" lon="8.805498609926921"><ele>110.0</ele><time>2026-03-29T16:30:02Z</time></trkpt><trkpt lat="45.33479791823914" lon="8.805380252960902"><ele>110.0</ele><time>2026-03-29T16:30:03Z</time></trkpt><trkpt lat="45.334896681609486" lon="8.805259916273872"><ele>109.75</ele><time>2026-03-29T16:30:04Z</time></trkpt><trkpt lat="45.334985114295854" lon="8.805125804051599"><ele>109.5</ele><time>2026-03-29T16:30:05Z</time></trkpt><trkpt lat="45.33508733668509" lon="8.804997861002832"><ele>109.25</ele><time>2026-03-29T16:30:06Z</time></trkpt><trkpt lat="45.335194989798545" lon="8.804871489637534"><ele>109.0</ele><time>2026-03-29T16:30:07Z</time></trkpt><trkpt lat="45.3352937615186" lon="8.804750081818396"><ele>109.0</ele><time>2026-03-29T16:30:08Z</time></trkpt><trkpt lat="45.335395184094246" lon="8.804631348022069"><ele>109.0</ele><time>2026-03-29T16:30:09Z</time></trkpt><trkpt lat="45.33548036225942" lon="8.804527244895135"><ele>109.0</ele><time>2026-03-29T16:30:10Z</time></trkpt><trkpt lat="45.335567606387215" lon="8.804451159279596"><ele>109.0</ele><time>2026-03-29T16:30:11Z</time></trkpt><trkpt lat="45.335638759249996" lon="8.80433877535262"><ele>109.2</ele><time>2026-03-29T16:30:12Z</time></trkpt><trkpt lat="45.33573658976402" lon="8.804248454463679"><ele>109.4</ele><time>2026-03-29T16:30:13Z</time></trkpt><trkpt lat="45.33582920706833" lon="8.804137965023006"><ele>109.6</ele><time>2026-03-29T16:30:14Z</time></trkpt><trkpt lat="45.335901329939496" lon="8.804023830049227"><ele>109.8</ele><time>2026-03-29T16:30:15Z</time></trkpt><trkpt lat="45.33596905517248" lon="8.803944343702053"><ele>110.0</ele><time>2026-03-29T16:30:16Z</time></trkpt><trkpt lat="45.33604596375045" lon="8.80385445197652"><ele>109.99999999999999</ele><time>2026-03-29T16:30:17Z</time></trkpt><trkpt lat="45.33611176220726" lon="8.80379745283384"><ele>110.0</ele><time>2026-03-29T16:30:18Z</time></trkpt><trkpt lat="45.336195346630326" lon="8.803680972067601"><ele>110.0</ele><time>2026-03-29T16:30:20Z</time></trkpt><trkpt lat="45.33625130333512" lon="8.803603723514076"><ele>110.0</ele><time>2026-03-29T16:30:22Z</time></trkpt><trkpt lat="45.336330981556344" lon="8.803624947296058"><ele>109.99999999999999</ele><time>2026-03-29T16:30:25Z</time></trkpt><trkpt lat="45.33637027644502" lon="8.80373192010306"><ele>110.0</ele><time>2026-03-29T16:30:28Z</time></trkpt><trkpt lat="45.33642827068385" lon="8.803844493639364"><ele>109.99999999999999</ele><time>2026-03-29T16:30:29.999Z</time></trkpt><trkpt lat="45.33646404290172" lon="8.803941939952963"><ele>110.0</ele><time>2026-03-29T16:30:30.999Z</time></trkpt><trkpt lat="45.33650642296824" lon="8.804051873938956"><ele>110.0</ele><time>2026-03-29T16:30:31.999Z</time></trkpt><trkpt lat="45.33654607243784" lon="8.804162144268062"><ele>110.0</ele><time>2026-03-29T16:30:32.999Z</time></trkpt><trkpt lat="45.33657777664637" lon="8.804247415568064"><ele>109.99999999999999</ele><time>2026-03-29T16:30:33.999Z</time></trkpt><trkpt lat="45.33664109998073" lon="8.804370926378153"><ele>110.0</ele><time>2026-03-29T16:30:35.999Z</time></trkpt><trkpt lat="45.336767277971724" lon="8.804412244721792"><ele>110.0</ele><time>2026-03-29T16:30:37.999Z</time></trkpt><trkpt lat="45.336858175115644" lon="8.804404610892647"><ele>110.0</ele><time>2026-03-29T16:30:38.999Z</time></trkpt><trkpt lat="45.33697388992529" lon="8.804418369017652"><ele>110.0</ele><time>2026-03-29T16:30:39.999Z</time></trkpt><trkpt lat="45.3370858945618" lon="8.804392412790126"><ele>110.0</ele><time>2026-03-29T16:30:40.999Z</time></trkpt><trkpt lat="45.33719519880579" lon="8.80439203700386"><ele>110.0</ele><time>2026-03-29T16:30:41.999Z</time></trkpt><trkpt lat="45.337285618703106" lon="8.804388637233787"><ele>109.83333333333333</ele><time>2026-03-29T16:30:42.999Z</time></trkpt><trkpt lat="45.33736339872824" lon="8.804411025056435"><ele>109.66666666666666</ele><time>2026-03-29T16:30:43.999Z</time></trkpt><trkpt lat="45.33743701933647" lon="8.804394295797277"><ele>109.5</ele><time>2026-03-29T16:30:45Z</time></trkpt><trkpt lat="45.337520355451666" lon="8.804384213357292"><ele>109.33333333333334</ele><time>2026-03-29T16:30:46Z</time></trkpt><trkpt lat="45.337597195737864" lon="8.804386401634739"><ele>109.16666666666667</ele><time>2026-03-29T16:30:47Z</time></trkpt><trkpt lat="45.33767121731615" lon="8.804434511775122"><ele>109.0</ele><time>2026-03-29T16:30:48Z</time></trkpt><trkpt lat="45.337734405313384" lon="8.80444118966022"><ele>109.0</ele><time>2026-03-29T16:30:49Z</time></trkpt><trkpt lat="45.337800543174765" lon="8.804425251954816"><ele>109.0</ele><time>2026-03-29T16:30:50Z</time></trkpt><trkpt lat="45.337860785428745" lon="8.804355409691293"><ele>109.0</ele><time>2026-03-29T16:30:51Z</time></trkpt><trkpt lat="45.33790584997676" lon="8.804226593050734"><ele>109.0</ele><time>2026-03-29T16:30:52Z</time></trkpt><trkpt lat="45.33798707376736" lon="8.804093190090935"><ele>109.0</ele><time>2026-03-29T16:30:53Z</time></trkpt><trkpt lat="45.338035495021686" lon="8.80395670792864"><ele>109.00000000000001</ele><time>2026-03-29T16:30:54Z</time></trkpt><trkpt lat="45.338070179815716" lon="8.803832644214928"><ele>109.0</ele><time>2026-03-29T16:30:55Z</time></trkpt><trkpt lat="45.33809922593324" lon="8.803734065292154"><ele>109.0</ele><time>2026-03-29T16:30:56Z</time></trkpt><trkpt lat="45.33817044993915" lon="8.803617256265678"><ele>109.0</ele><time>2026-03-29T16:30:58Z</time></trkpt><trkpt lat="45.33823625216772" lon="8.803586135424037"><ele>109.00000000000001</ele><time>2026-03-29T16:30:59Z</time></trkpt><trkpt lat="45.33831345599892" lon="8.803592522558091"><ele>109.0</ele><time>2026-03-29T16:31:00Z</time></trkpt><trkpt lat="45.33842988495238" lon="8.803589095248672"><ele>109.0</ele><time>2026-03-29T16:31:01Z</time></trkpt><trkpt lat="45.338550339843245" lon="8.803568175314055"><ele>109.0</ele><time>2026-03-29T16:31:02Z</time></trkpt><trkpt lat="45.338701392460244" lon="8.803561239224564"><ele>109.0</ele><time>2026-03-29T16:31:03Z</time></trkpt><trkpt lat="45.33883516057179" lon="8.80355924103508"><ele>109.0</ele><time>2026-03-29T16:31:04Z</time></trkpt><trkpt lat="45.338949966082026" lon="8.803557864086834"><ele>109.5</ele><time>2026-03-29T16:31:05Z</time></trkpt><trkpt lat="45.33906542867221" lon="8.803556578181569"><ele>110.0</ele><time>2026-03-29T16:31:06Z</time></trkpt><trkpt lat="45.3391933532072" lon="8.803554845688875"><ele>110.5</ele><time>2026-03-29T16:31:07Z</time></trkpt><trkpt lat="45.33932264849596" lon="8.803552778712692"><ele>111.0</ele><time>2026-03-29T16:31:08Z</time></trkpt><trkpt lat="45.33943986542231" lon="8.803552242796723"><ele>111.0</ele><time>2026-03-29T16:31:09Z</time></trkpt><trkpt lat="45.33954124458782" lon="8.803551547595685"><ele>111.0</ele><time>2026-03-29T16:31:10Z</time></trkpt><trkpt lat="45.33963631789292" lon="8.803551901942967"><ele>111.0</ele><time>2026-03-29T16:31:11Z</time></trkpt><trkpt lat="45.33973156430128" lon="8.803570139320044"><ele>111.0</ele><time>2026-03-29T16:31:12Z</time></trkpt><trkpt lat="45.33982930161637" lon="8.80356889461425"><ele>111.0</ele><time>2026-03-29T16:31:13Z</time></trkpt><trkpt lat="45.339916178395335" lon="8.803567788219667"><ele>110.66666666666667</ele><time>2026-03-29T16:31:14Z</time></trkpt><trkpt lat="45.339996853319654" lon="8.803567802273449"><ele>110.33333333333334</ele><time>2026-03-29T16:31:15Z</time></trkpt><trkpt lat="45.34006611954128" lon="8.803567802273554"><ele>110.0</ele><time>2026-03-29T16:31:16Z</time></trkpt><trkpt lat="45.34017516112015" lon="8.803571802272911"><ele>109.66666666666667</ele><time>2026-03-29T16:31:18Z</time></trkpt><trkpt lat="45.34025833713635" lon="8.80355471028842"><ele>109.33333333333334</ele><time>2026-03-29T16:31:20Z</time></trkpt><trkpt lat="45.340249679623724" lon="8.803667798329604"><ele>109.0</ele><time>2026-03-29T16:31:24Z</time></trkpt><trkpt lat="45.34019684350542" lon="8.803758788556511"><ele>109.0</ele><time>2026-03-29T16:31:25Z</time></trkpt><trkpt lat="45.34012734642345" lon="8.803913863356069"><ele>109.0</ele><time>2026-03-29T16:31:26Z</time></trkpt><trkpt lat="45.34005602616817" lon="8.804036847865857"><ele>109.0</ele><time>2026-03-29T16:31:27Z</time></trkpt><trkpt lat="45.3399772605853" lon="8.804159541376496"><ele>109.0</ele><time>2026-03-29T16:31:28Z</time></trkpt><trkpt lat="45.33988418323642" lon="8.80428092435692"><ele>108.75</ele><time>2026-03-29T16:31:29Z</time></trkpt><trkpt lat="45.339791147194944" lon="8.804398989047824"><ele>108.5</ele><time>2026-03-29T16:31:30Z</time></trkpt><trkpt lat="45.33969962184454" lon="8.804529137134598"><ele>108.25</ele><time>2026-03-29T16:31:31Z</time></trkpt><trkpt lat="45.339630489349354" lon="8.804690169214382"><ele>108.0</ele><time>2026-03-29T16:31:32Z</time></trkpt><trkpt lat="45.33955879144929" lon="8.804850841901162"><ele>108.5</ele><time>2026-03-29T16:31:33Z</time></trkpt><trkpt lat="45.339493692033955" lon="8.805010679558242"><ele>109.0</ele><time>2026-03-29T16:31:34Z</time></trkpt><trkpt lat="45.33942974843742" lon="8.805185269974698"><ele>109.5</ele><time>2026-03-29T16:31:35Z</time></trkpt><trkpt lat="45.33935644625966" lon="8.805355266151505"><ele>110.0</ele><time>2026-03-29T16:31:36Z</time></trkpt><trkpt lat="45.339291602040966" lon="8.805539660973235"><ele>110.0</ele><time>2026-03-29T16:31:37Z</time></trkpt><trkpt lat="45.339234591275556" lon="8.80571737035999"><ele>110.0</ele><time>2026-03-29T16:31:38Z</time></trkpt><trkpt lat="45.33917285421208" lon="8.805901424947939"><ele>110.0</ele><time>2026-03-29T16:31:39Z</time></trkpt><trkpt lat="45.339107301100626" lon="8.8060893628081"><ele>110.0</ele><time>2026-03-29T16:31:40Z</time></trkpt><trkpt lat="45.33904112484821" lon="8.806277934112346"><ele>110.0</ele><time>2026-03-29T16:31:41Z</time></trkpt><trkpt lat="45.33897503217477" lon="8.806472327377689"><ele>110.0</ele><time>2026-03-29T16:31:42Z</time></trkpt><trkpt lat="45.33889405215184" lon="8.806670423249571"><ele>110.0</ele><time>2026-03-29T16:31:43Z</time></trkpt><trkpt lat="45.338824288901144" lon="8.80687695465397"><ele>110.0</ele><time>2026-03-29T16:31:44Z</time></trkpt><trkpt lat="45.33875472497298" lon="8.807086847652252"><ele>110.0</ele><time>2026-03-29T16:31:45Z</time></trkpt><trkpt lat="45.338684165616904" lon="8.807299743999515"><ele>110.0</ele><time>2026-03-29T16:31:46Z</time></trkpt><trkpt lat="45.338613395971755" lon="8.807508450956817"><ele>109.66666666666666</ele><time>2026-03-29T16:31:47Z</time></trkpt><trkpt lat="45.33854097328397" lon="8.807716873392708"><ele>109.33333333333334</ele><time>2026-03-29T16:31:48Z</time></trkpt><trkpt lat="45.338472661818834" lon="8.8079417870658"><ele>109.0</ele><time>2026-03-29T16:31:49Z</time></trkpt><trkpt lat="45.33838758315465" lon="8.80815723589747"><ele>109.0</ele><time>2026-03-29T16:31:50Z</time></trkpt><trkpt lat="45.33829359335093" lon="8.808373621631011"><ele>109.0</ele><time>2026-03-29T16:31:51Z</time></trkpt><trkpt lat="45.338182454701695" lon="8.808580084402642"><ele>109.0</ele><time>2026-03-29T16:31:52Z</time></trkpt><trkpt lat="45.338104361348755" lon="8.808793035082516"><ele>109.25</ele><time>2026-03-29T16:31:53Z</time></trkpt><trkpt lat="45.33801724571676" lon="8.808974702589724"><ele>109.5</ele><time>2026-03-29T16:31:54Z</time></trkpt><trkpt lat="45.33793848030945" lon="8.809140696826345"><ele>109.75</ele><time>2026-03-29T16:31:55Z</time></trkpt><trkpt lat="45.33786929959702" lon="8.809288926169588"><ele>110.0</ele><time>2026-03-29T16:31:56Z</time></trkpt><trkpt lat="45.337804883877496" lon="8.809419782579951"><ele>110.2</ele><time>2026-03-29T16:31:57Z</time></trkpt><trkpt lat="45.33774653255568" lon="8.809536083751063"><ele>110.4</ele><time>2026-03-29T16:31:58Z</time></trkpt><trkpt lat="45.33769733398317" lon="8.809639468187408"><ele>110.6</ele><time>2026-03-29T16:31:59Z</time></trkpt><trkpt lat="45.33764936235286" lon="8.809719893795888"><ele>110.8</ele><time>2026-03-29T16:32:00Z</time></trkpt><trkpt lat="45.33758051700761" lon="8.809828002458104"><ele>111.0</ele><time>2026-03-29T16:32:02Z</time></trkpt><trkpt lat="45.337687407800594" lon="8.810001966707"><ele>111.0</ele><time>2026-03-29T16:32:06Z</time></trkpt><trkpt lat="45.337778884009865" lon="8.810057702635426"><ele>111.0</ele><time>2026-03-29T16:32:07Z</time></trkpt><trkpt lat="45.33789285935186" lon="8.810122847659098"><ele>111.0</ele><time>2026-03-29T16:32:08Z</time></trkpt><trkpt lat="45.3380076874607" lon="8.810189254245516"><ele>111.0</ele><time>2026-03-29T16:32:09Z</time></trkpt><trkpt lat="45.3381180522708" lon="8.810252758457677"><ele>111.5</ele><time>2026-03-29T16:32:10Z</time></trkpt><trkpt lat="45.33822518920611" lon="8.81031440536167"><ele>112.0</ele><time>2026-03-29T16:32:11Z</time></trkpt><trkpt lat="45.338325828699" lon="8.810372597044202"><ele>112.5</ele><time>2026-03-29T16:32:12Z</time></trkpt><trkpt lat="45.33843535335641" lon="8.810414161153549"><ele>113.0</ele><time>2026-03-29T16:32:13Z</time></trkpt><trkpt lat="45.33853252396247" lon="8.810494465965695"><ele>113.0</ele><time>2026-03-29T16:32:14Z</time></trkpt><trkpt lat="45.338632910409935" lon="8.81055365447615"><ele>113.00000000000001</ele><time>2026-03-29T16:32:15Z</time></trkpt><trkpt lat="45.33872402538255" lon="8.810583361527627"><ele>113.00000000000001</ele><time>2026-03-29T16:32:16Z</time></trkpt><trkpt lat="45.33880473350146" lon="8.810633294751812"><ele>113.0</ele><time>2026-03-29T16:32:17Z</time></trkpt><trkpt lat="45.33888169302356" lon="8.810679917136882"><ele>113.0</ele><time>2026-03-29T16:32:18Z</time></trkpt><trkpt lat="45.338958576934935" lon="8.810726114470828"><ele>112.99999999999999</ele><time>2026-03-29T16:32:19Z</time></trkpt><trkpt lat="45.33904733015205" lon="8.810779460292897"><ele>113.0</ele><time>2026-03-29T16:32:20Z</time></trkpt><trkpt lat="45.33913324805238" lon="8.810827341856683"><ele>113.0</ele><time>2026-03-29T16:32:21Z</time></trkpt><trkpt lat="45.33920651237739" lon="8.810867302644802"><ele>113.0</ele><time>2026-03-29T16:32:22Z</time></trkpt><trkpt lat="45.33928002126134" lon="8.810912740629682"><ele>112.99999999999999</ele><time>2026-03-29T16:32:23Z</time></trkpt><trkpt lat="45.339362771348384" lon="8.810957423339701"><ele>113.0</ele><time>2026-03-29T16:32:23.999Z</time></trkpt><trkpt lat="45.33945223218835" lon="8.811009942061222"><ele>113.0</ele><time>2026-03-29T16:32:24.999Z</time></trkpt><trkpt lat="45.33954193406346" lon="8.81108720958052"><ele>113.0</ele><time>2026-03-29T16:32:25.999Z</time></trkpt><trkpt lat="45.33964711980572" lon="8.811155052156115"><ele>113.0</ele><time>2026-03-29T16:32:26.999Z</time></trkpt><trkpt lat="45.33976784741072" lon="8.811204511174441"><ele>113.0</ele><time>2026-03-29T16:32:27.999Z</time></trkpt><trkpt lat="45.3398807457868" lon="8.811266424212011"><ele>112.80000000000001</ele><time>2026-03-29T16:32:28.999Z</time></trkpt><trkpt lat="45.33997678538651" lon="8.811322138682009"><ele>112.60000000000001</ele><time>2026-03-29T16:32:29.999Z</time></trkpt><trkpt lat="45.34004999442559" lon="8.811358749484345"><ele>112.39999999999999</ele><time>2026-03-29T16:32:30.999Z</time></trkpt><trkpt lat="45.34011954477691" lon="8.81140010993359"><ele>112.19999999999999</ele><time>2026-03-29T16:32:31.999Z</time></trkpt><trkpt lat="45.34019897144565" lon="8.811518058113986"><ele>112.0</ele><time>2026-03-29T16:32:33.999Z</time></trkpt><trkpt lat="45.3402351290967" lon="8.811629199818684"><ele>112.0</ele><time>2026-03-29T16:32:35.999Z</time></trkpt><trkpt lat="45.340243580482536" lon="8.811760992322464"><ele>111.99999999999999</ele><time>2026-03-29T16:32:40.999Z</time></trkpt><trkpt lat="45.34019296975505" lon="8.81189626575473"><ele>111.99999999999999</ele><time>2026-03-29T16:32:42.999Z</time></trkpt><trkpt lat="45.34019272856134" lon="8.81205680700417"><ele>112.0</ele><time>2026-03-29T16:32:44.999Z</time></trkpt><trkpt lat="45.34019722137548" lon="8.812170343004851"><ele>112.0</ele><time>2026-03-29T16:32:45.999Z</time></trkpt><trkpt lat="45.34020365132127" lon="8.812322842557906"><ele>112.25</ele><time>2026-03-29T16:32:46.999Z</time></trkpt><trkpt lat="45.34021354659142" lon="8.812484388840067"><ele>112.5</ele><time>2026-03-29T16:32:47.999Z</time></trkpt><trkpt lat="45.340229868477735" lon="8.812653832344902"><ele>112.75</ele><time>2026-03-29T16:32:48.999Z</time></trkpt><trkpt lat="45.34022164958971" lon="8.81283015906513"><ele>113.0</ele><time>2026-03-29T16:32:49.999Z</time></trkpt><trkpt lat="45.340240352859816" lon="8.813009653211957"><ele>113.0</ele><time>2026-03-29T16:32:51Z</time></trkpt><trkpt lat="45.34023749573504" lon="8.813171215402225"><ele>113.0</ele><time>2026-03-29T16:32:52Z</time></trkpt><trkpt lat="45.34024368019026" lon="8.813347910278186"><ele>113.0</ele><time>2026-03-29T16:32:53Z</time></trkpt><trkpt lat="45.34024487260594" lon="8.813527385711733"><ele>113.0</ele><time>2026-03-29T16:32:54Z</time></trkpt><trkpt lat="45.34024354401582" lon="8.813709152649801"><ele>113.0</ele><time>2026-03-29T16:32:55Z</time></trkpt><trkpt lat="45.34024393236447" lon="8.81390376798277"><ele>113.0</ele><time>2026-03-29T16:32:56Z</time></trkpt><trkpt lat="45.340252505492195" lon="8.81410025223301"><ele>113.0</ele><time>2026-03-29T16:32:57Z</time></trkpt><trkpt lat="45.340279239665676" lon="8.814299937230485"><ele>113.0</ele><time>2026-03-29T16:32:58Z</time></trkpt><trkpt lat="45.34032255229885" lon="8.814512116180504"><ele>112.66666666666666</ele><time>2026-03-29T16:32:59Z</time></trkpt><trkpt lat="45.340362448702116" lon="8.81471865929938"><ele>112.33333333333334</ele><time>2026-03-29T16:33:00Z</time></trkpt><trkpt lat="45.34040744179747" lon="8.814941311363595"><ele>112.0</ele><time>2026-03-29T16:33:01Z</time></trkpt><trkpt lat="45.3404492237985" lon="8.81515124860181"><ele>111.75</ele><time>2026-03-29T16:33:02Z</time></trkpt><trkpt lat="45.34048548002741" lon="8.815344494678905"><ele>111.5</ele><time>2026-03-29T16:33:03Z</time></trkpt><trkpt lat="45.340525499270406" lon="8.815543195996115"><ele>111.25</ele><time>2026-03-29T16:33:04Z</time></trkpt><trkpt lat="45.34054423368238" lon="8.815736811772084"><ele>111.0</ele><time>2026-03-29T16:33:05Z</time></trkpt><trkpt lat="45.34057813101023" lon="8.815904819273122"><ele>111.25</ele><time>2026-03-29T16:33:06Z</time></trkpt><trkpt lat="45.34063251061911" lon="8.816061777138893"><ele>111.5</ele><time>2026-03-29T16:33:07Z</time></trkpt><trkpt lat="45.340681752160506" lon="8.816230571868676"><ele>111.75</ele><time>2026-03-29T16:33:08Z</time></trkpt><trkpt lat="45.34073876264856" lon="8.816401066648359"><ele>112.0</ele><time>2026-03-29T16:33:09Z</time></trkpt><trkpt lat="45.340780584273325" lon="8.816558498470762"><ele>112.0</ele><time>2026-03-29T16:33:10Z</time></trkpt><trkpt lat="45.34082643410537" lon="8.81670001990911"><ele>111.99999999999999</ele><time>2026-03-29T16:33:11Z</time></trkpt><trkpt lat="45.340874403278626" lon="8.816835485459977"><ele>111.99999999999999</ele><time>2026-03-29T16:33:12Z</time></trkpt><trkpt lat="45.34089275594157" lon="8.816971979485006"><ele>112.0</ele><time>2026-03-29T16:33:13Z</time></trkpt><trkpt lat="45.340901873493564" lon="8.817134041940422"><ele>112.0</ele><time>2026-03-29T16:33:14Z</time></trkpt><trkpt lat="45.34090564387453" lon="8.817326124507598"><ele>112.0</ele><time>2026-03-29T16:33:15Z</time></trkpt><trkpt lat="45.3409084960897" lon="8.817511881990892"><ele>112.0</ele><time>2026-03-29T16:33:16Z</time></trkpt><trkpt lat="45.34092624632141" lon="8.817680091280879"><ele>112.0</ele><time>2026-03-29T16:33:17Z</time></trkpt><trkpt lat="45.34096954177674" lon="8.817854679135829"><ele>112.0</ele><time>2026-03-29T16:33:18Z</time></trkpt><trkpt lat="45.34103537029703" lon="8.818043966413024"><ele>112.0</ele><time>2026-03-29T16:33:19Z</time></trkpt><trkpt lat="45.341101635883895" lon="8.818249905482194"><ele>112.0</ele><time>2026-03-29T16:33:20Z</time></trkpt><trkpt lat="45.34119870553651" lon="8.818415715798064"><ele>112.0</ele><time>2026-03-29T16:33:21Z</time></trkpt><trkpt lat="45.34128791524878" lon="8.818580230795677"><ele>112.0</ele><time>2026-03-29T16:33:22Z</time></trkpt><trkpt lat="45.34137648707983" lon="8.818731472776442"><ele>111.99999999999999</ele><time>2026-03-29T16:33:23Z</time></trkpt><trkpt lat="45.34142927239698" lon="8.818880880286752"><ele>111.99999999999999</ele><time>2026-03-29T16:33:24Z</time></trkpt><trkpt lat="45.34147703727535" lon="8.818978366795136"><ele>112.0</ele><time>2026-03-29T16:33:25Z</time></trkpt><trkpt lat="45.341564406103025" lon="8.819070360054289"><ele>112.0</ele><time>2026-03-29T16:33:27Z</time></trkpt><trkpt lat="45.341640930415366" lon="8.81903696753484"><ele>112.75</ele><time>2026-03-29T16:33:28Z</time></trkpt><trkpt lat="45.341753609619055" lon="8.819002929002599"><ele>113.5</ele><time>2026-03-29T16:33:29Z</time></trkpt><trkpt lat="45.341884714291496" lon="8.818998040033708"><ele>114.25</ele><time>2026-03-29T16:33:30Z</time></trkpt><trkpt lat="45.34199791653771" lon="8.818981408796317"><ele>115.0</ele><time>2026-03-29T16:33:31Z</time></trkpt><trkpt lat="45.342092699490415" lon="8.81897213084674"><ele>115.0</ele><time>2026-03-29T16:33:32Z</time></trkpt><trkpt lat="45.342175081711474" lon="8.818975948876128"><ele>115.0</ele><time>2026-03-29T16:33:33Z</time></trkpt><trkpt lat="45.342284038958205" lon="8.81901080563988"><ele>115.0</ele><time>2026-03-29T16:33:35Z</time></trkpt><trkpt lat="45.3423209398157" lon="8.819135020311101"><ele>115.0</ele><time>2026-03-29T16:33:37Z</time></trkpt><trkpt lat="45.342459943242886" lon="8.819187003104386"><ele>115.0</ele><time>2026-03-29T16:33:39Z</time></trkpt><trkpt lat="45.34256655081601" lon="8.819207575332015"><ele>114.75</ele><time>2026-03-29T16:33:40Z</time></trkpt><trkpt lat="45.34267129432917" lon="8.819249238052361"><ele>114.5</ele><time>2026-03-29T16:33:41Z</time></trkpt><trkpt lat="45.34278292332784" lon="8.819297915823045"><ele>114.25</ele><time>2026-03-29T16:33:42Z</time></trkpt><trkpt lat="45.342915061510105" lon="8.81936327278037"><ele>114.0</ele><time>2026-03-29T16:33:43Z</time></trkpt><trkpt lat="45.34305276415068" lon="8.819401773517148"><ele>113.0</ele><time>2026-03-29T16:33:44Z</time></trkpt><trkpt lat="45.34319488203552" lon="8.819425352500376"><ele>112.0</ele><time>2026-03-29T16:33:45Z</time></trkpt><trkpt lat="45.343351042282016" lon="8.819414125450708"><ele>111.0</ele><time>2026-03-29T16:33:46Z</time></trkpt><trkpt lat="45.343511796658774" lon="8.819360717946399"><ele>111.33333333333334</ele><time>2026-03-29T16:33:47Z</time></trkpt><trkpt lat="45.34368527359799" lon="8.819287526289115"><ele>111.66666666666667</ele><time>2026-03-29T16:33:48Z</time></trkpt><trkpt lat="45.34384069046031" lon="8.819251910464192"><ele>112.0</ele><time>2026-03-29T16:33:49Z</time></trkpt><trkpt lat="45.343981806305365" lon="8.819197336947902"><ele>112.33333333333334</ele><time>2026-03-29T16:33:50Z</time></trkpt><trkpt lat="45.34412483404877" lon="8.819142268145677"><ele>112.66666666666666</ele><time>2026-03-29T16:33:51Z</time></trkpt><trkpt lat="45.344277491943934" lon="8.819086063819736"><ele>113.0</ele><time>2026-03-29T16:33:52Z</time></trkpt><trkpt lat="45.34443642770018" lon="8.81902747274531"><ele>113.0</ele><time>2026-03-29T16:33:53Z</time></trkpt><trkpt lat="45.34460087811869" lon="8.81896539448458"><ele>113.0</ele><time>2026-03-29T16:33:54Z</time></trkpt><trkpt lat="45.34475047868941" lon="8.81890728377587"><ele>113.0</ele><time>2026-03-29T16:33:55Z</time></trkpt><trkpt lat="45.344876620850386" lon="8.818837040970058"><ele>112.80000000000001</ele><time>2026-03-29T16:33:56Z</time></trkpt><trkpt lat="45.34499713389426" lon="8.818809734102427"><ele>112.60000000000001</ele><time>2026-03-29T16:33:57Z</time></trkpt><trkpt lat="45.34509499824283" lon="8.818751186438252"><ele>112.39999999999999</ele><time>2026-03-29T16:33:58Z</time></trkpt><trkpt lat="45.34516679809672" lon="8.818720016995501"><ele>112.19999999999999</ele><time>2026-03-29T16:33:59Z</time></trkpt><trkpt lat="45.345237757112066" lon="8.818684588226361"><ele>112.0</ele><time>2026-03-29T16:34:01Z</time></trkpt><trkpt lat="45.34530873585378" lon="8.818662433136401"><ele>112.0</ele><time>2026-03-29T16:34:03Z</time></trkpt><trkpt lat="45.34538562159086" lon="8.818657060578646"><ele>111.99999999999999</ele><time>2026-03-29T16:34:04Z</time></trkpt><trkpt lat="45.34549359026061" lon="8.818602491265276"><ele>111.99999999999999</ele><time>2026-03-29T16:34:05Z</time></trkpt><trkpt lat="45.3455990573769" lon="8.818525524768578"><ele>112.0</ele><time>2026-03-29T16:34:06Z</time></trkpt><trkpt lat="45.34570034447843" lon="8.818469793217604"><ele>112.0</ele><time>2026-03-29T16:34:07Z</time></trkpt><trkpt lat="45.3458127349106" lon="8.818430225681293"><ele>111.8</ele><time>2026-03-29T16:34:08Z</time></trkpt><trkpt lat="45.34590935907598" lon="8.818375769637562"><ele>111.6</ele><time>2026-03-29T16:34:09Z</time></trkpt><trkpt lat="45.34599851033004" lon="8.818307379308287"><ele>111.39999999999999</ele><time>2026-03-29T16:34:10Z</time></trkpt><trkpt lat="45.346090499337286" lon="8.818276391435726"><ele>111.19999999999999</ele><time>2026-03-29T16:34:11Z</time></trkpt><trkpt lat="45.346175784134395" lon="8.818231252405564"><ele>111.0</ele><time>2026-03-29T16:34:12Z</time></trkpt><trkpt lat="45.34627273632807" lon="8.818179938122622"><ele>111.0</ele><time>2026-03-29T16:34:13Z</time></trkpt><trkpt lat="45.34636620155405" lon="8.818116328834758"><ele>111.0</ele><time>2026-03-29T16:34:14Z</time></trkpt><trkpt lat="45.34646018754645" lon="8.818054192720222"><ele>111.0</ele><time>2026-03-29T16:34:14.999Z</time></trkpt><trkpt lat="45.34656142823982" lon="8.818024223805804"><ele>111.0</ele><time>2026-03-29T16:34:15.999Z</time></trkpt><trkpt lat="45.346645821327805" lon="8.817978459353347"><ele>111.0</ele><time>2026-03-29T16:34:16.999Z</time></trkpt><trkpt lat="45.34673399131686" lon="8.817930646800644"><ele>111.4</ele><time>2026-03-29T16:34:17.999Z</time></trkpt><trkpt lat="45.346837669809005" lon="8.817874424326389"><ele>111.8</ele><time>2026-03-29T16:34:18.999Z</time></trkpt><trkpt lat="45.3469429476472" lon="8.817816024860834"><ele>112.20000000000002</ele><time>2026-03-29T16:34:19.999Z</time></trkpt><trkpt lat="45.347051862476974" lon="8.817753318651906"><ele>112.60000000000001</ele><time>2026-03-29T16:34:20.999Z</time></trkpt><trkpt lat="45.34714474074071" lon="8.817699845295705"><ele>113.0</ele><time>2026-03-29T16:34:21.999Z</time></trkpt><trkpt lat="45.347239322102304" lon="8.817644433933028"><ele>113.0</ele><time>2026-03-29T16:34:22.999Z</time></trkpt><trkpt lat="45.34732659866005" lon="8.817592620107497"><ele>113.00000000000001</ele><time>2026-03-29T16:34:23.999Z</time></trkpt><trkpt lat="45.34741549564609" lon="8.817515457460477"><ele>113.00000000000001</ele><time>2026-03-29T16:34:24.999Z</time></trkpt><trkpt lat="45.34749645859826" lon="8.817464199603974"><ele>113.0</ele><time>2026-03-29T16:34:25.999Z</time></trkpt><trkpt lat="45.347585259410124" lon="8.817416605415248"><ele>113.0</ele><time>2026-03-29T16:34:26.999Z</time></trkpt><trkpt lat="45.347653652247025" lon="8.817348725236203"><ele>112.99999999999999</ele><time>2026-03-29T16:34:27.999Z</time></trkpt><trkpt lat="45.34771835533297" lon="8.817272532316364"><ele>113.0</ele><time>2026-03-29T16:34:28.999Z</time></trkpt><trkpt lat="45.34776633481991" lon="8.817192869679486"><ele>113.0</ele><time>2026-03-29T16:34:29.999Z</time></trkpt><trkpt lat="45.347887092118924" lon="8.81713402031023"><ele>113.0</ele><time>2026-03-29T16:34:31.999Z</time></trkpt><trkpt lat="45.34794960934223" lon="8.817101220473068"><ele>112.99999999999999</ele><time>2026-03-29T16:34:32.999Z</time></trkpt><trkpt lat="45.348015210130164" lon="8.817046100065397"><ele>113.0</ele><time>2026-03-29T16:34:33.999Z</time></trkpt><trkpt lat="45.34810794936077" lon="8.816995515665853"><ele>113.0</ele><time>2026-03-29T16:34:34.999Z</time></trkpt><trkpt lat="45.34820666940312" lon="8.816946759553746"><ele>113.00000000000001</ele><time>2026-03-29T16:34:35.999Z</time></trkpt><trkpt lat="45.348301290158425" lon="8.81689686307156"><ele>113.00000000000001</ele><time>2026-03-29T16:34:36.999Z</time></trkpt><trkpt lat="45.34839971674751" lon="8.816849263074873"><ele>113.0</ele><time>2026-03-29T16:34:37.999Z</time></trkpt><trkpt lat="45.34849543302823" lon="8.816792437372314"><ele>113.0</ele><time>2026-03-29T16:34:38.999Z</time></trkpt><trkpt lat="45.34858802919109" lon="8.81676885762225"><ele>112.99999999999999</ele><time>2026-03-29T16:34:39.999Z</time></trkpt><trkpt lat="45.34867359957751" lon="8.81671132668103"><ele>113.0</ele><time>2026-03-29T16:34:40.999Z</time></trkpt><trkpt lat="45.34875985744847" lon="8.816675579670214"><ele>113.0</ele><time>2026-03-29T16:34:41.999Z</time></trkpt><trkpt lat="45.34884556301734" lon="8.816623976061907"><ele>113.0</ele><time>2026-03-29T16:34:42.999Z</time></trkpt><trkpt lat="45.34892073878653" lon="8.816582586451773"><ele>112.99999999999999</ele><time>2026-03-29T16:34:43.999Z</time></trkpt><trkpt lat="45.34900469944831" lon="8.816559203351"><ele>113.0</ele><time>2026-03-29T16:34:44.999Z</time></trkpt><trkpt lat="45.34907378797649" lon="8.816498778659177"><ele>113.16666666666666</ele><time>2026-03-29T16:34:45.999Z</time></trkpt><trkpt lat="45.34914717131384" lon="8.816480916742648"><ele>113.33333333333333</ele><time>2026-03-29T16:34:46.999Z</time></trkpt><trkpt lat="45.349210772272514" lon="8.816489106458286"><ele>113.5</ele><time>2026-03-29T16:34:47.999Z</time></trkpt><trkpt lat="45.34929935240131" lon="8.816441770331974"><ele>113.66666666666666</ele><time>2026-03-29T16:34:49.999Z</time></trkpt><trkpt lat="45.34938270866944" lon="8.81639722579609"><ele>113.83333333333333</ele><time>2026-03-29T16:34:51.999Z</time></trkpt><trkpt lat="45.34948816366175" lon="8.816340871981454"><ele>114.0</ele><time>2026-03-29T16:34:53.999Z</time></trkpt><trkpt lat="45.34955242957554" lon="8.816306529090678"><ele>114.0</ele><time>2026-03-29T16:34:54.999Z</time></trkpt><trkpt lat="45.34963477587494" lon="8.81626252427063"><ele>114.0</ele><time>2026-03-29T16:34:55.999Z</time></trkpt><trkpt lat="45.34973131353388" lon="8.81621093576547"><ele>114.0</ele><time>2026-03-29T16:34:57Z</time></trkpt><trkpt lat="45.349838845122015" lon="8.816153472244766"><ele>114.0</ele><time>2026-03-29T16:34:58Z</time></trkpt><trkpt lat="45.349925102090424" lon="8.816107377567457"><ele>114.0</ele><time>2026-03-29T16:34:59Z</time></trkpt><trkpt lat="45.35001980255982" lon="8.816056770755997"><ele>114.0</ele><time>2026-03-29T16:35:00Z</time></trkpt><trkpt lat="45.350083332016695" lon="8.815942056206637"><ele>114.0</ele><time>2026-03-29T16:35:01Z</time></trkpt><trkpt lat="45.35017582692891" lon="8.81589384554"><ele>114.0</ele><time>2026-03-29T16:35:02Z</time></trkpt><trkpt lat="45.3502787760749" lon="8.815840342706549"><ele>114.0</ele><time>2026-03-29T16:35:03Z</time></trkpt><trkpt lat="45.3503651947367" lon="8.815790256603686"><ele>114.0</ele><time>2026-03-29T16:35:04Z</time></trkpt><trkpt lat="45.35050900599443" lon="8.815963106826047"><ele>114.25</ele><time>2026-03-29T16:35:05Z</time></trkpt><trkpt lat="45.3505603461338" lon="8.81568731122751"><ele>114.5</ele><time>2026-03-29T16:35:06Z</time></trkpt><trkpt lat="45.35066830411353" lon="8.815628486522527"><ele>114.75</ele><time>2026-03-29T16:35:07Z</time></trkpt><trkpt lat="45.35076390715456" lon="8.815583552971477"><ele>115.0</ele><time>2026-03-29T16:35:08Z</time></trkpt><trkpt lat="45.35084662946578" lon="8.81553485575407"><ele>115.00000000000001</ele><time>2026-03-29T16:35:09Z</time></trkpt><trkpt lat="45.35092598077583" lon="8.815492223832779"><ele>115.0</ele><time>2026-03-29T16:35:10Z</time></trkpt><trkpt lat="45.350994517591374" lon="8.815460661570013"><ele>115.0</ele><time>2026-03-29T16:35:11Z</time></trkpt><trkpt lat="45.35106730619729" lon="8.815433701732035"><ele>115.0</ele><time>2026-03-29T16:35:12Z</time></trkpt><trkpt lat="45.351132389355975" lon="8.815413028610926"><ele>115.00000000000001</ele><time>2026-03-29T16:35:13Z</time></trkpt><trkpt lat="45.35120040930011" lon="8.815375936955665"><ele>115.0</ele><time>2026-03-29T16:35:14Z</time></trkpt><trkpt lat="45.35127880935785" lon="8.815334594896656"><ele>115.0</ele><time>2026-03-29T16:35:15Z</time></trkpt><trkpt lat="45.35136926377182" lon="8.81528803656821"><ele>115.0</ele><time>2026-03-29T16:35:16Z</time></trkpt><trkpt lat="45.351452045088315" lon="8.81525036945662"><ele>115.0</ele><time>2026-03-29T16:35:17Z</time></trkpt><trkpt lat="45.351525338846216" lon="8.81521657887734"><ele>115.0</ele><time>2026-03-29T16:35:18Z</time></trkpt><trkpt lat="45.35161968940667" lon="8.815170313126217"><ele>115.0</ele><time>2026-03-29T16:35:19Z</time></trkpt><trkpt lat="45.351709605424624" lon="8.815127945605035"><ele>115.00000000000001</ele><time>2026-03-29T16:35:20Z</time></trkpt><trkpt lat="45.35178538471495" lon="8.815088417738208"><ele>115.0</ele><time>2026-03-29T16:35:21Z</time></trkpt><trkpt lat="45.351874132809975" lon="8.815041104260926"><ele>115.0</ele><time>2026-03-29T16:35:22Z</time></trkpt><trkpt lat="45.35195070576294" lon="8.815001155176772"><ele>115.0</ele><time>2026-03-29T16:35:23Z</time></trkpt><trkpt lat="45.35202643012106" lon="8.814956314977612"><ele>115.00000000000001</ele><time>2026-03-29T16:35:24Z</time></trkpt><trkpt lat="45.35210514484139" lon="8.814915790887207"><ele>115.0</ele><time>2026-03-29T16:35:25Z</time></trkpt><trkpt lat="45.352179400298134" lon="8.814883876723023"><ele>114.66666666666667</ele><time>2026-03-29T16:35:26Z</time></trkpt><trkpt lat="45.35225372537818" lon="8.81485328696273"><ele>114.33333333333334</ele><time>2026-03-29T16:35:27Z</time></trkpt><trkpt lat="45.35233365632002" lon="8.814811177577711"><ele>114.0</ele><time>2026-03-29T16:35:28Z</time></trkpt><trkpt lat="45.35241957156431" lon="8.81476399206938"><ele>113.66666666666666</ele><time>2026-03-29T16:35:29Z</time></trkpt><trkpt lat="45.35251083435046" lon="8.814716332752193"><ele>113.33333333333333</ele><time>2026-03-29T16:35:30Z</time></trkpt><trkpt lat="45.352597446747836" lon="8.81467194530979"><ele>113.0</ele><time>2026-03-29T16:35:31Z</time></trkpt><trkpt lat="45.35269595480243" lon="8.81462097828109"><ele>113.0</ele><time>2026-03-29T16:35:32Z</time></trkpt><trkpt lat="45.35279613372545" lon="8.814569103514517"><ele>113.00000000000001</ele><time>2026-03-29T16:35:33Z</time></trkpt><trkpt lat="45.35288767307597" lon="8.81452321606434"><ele>113.00000000000001</ele><time>2026-03-29T16:35:34Z</time></trkpt><trkpt lat="45.35297687882529" lon="8.814478487050097"><ele>113.0</ele><time>2026-03-29T16:35:35Z</time></trkpt><trkpt lat="45.35307611002627" lon="8.814426114945412"><ele>113.0</ele><time>2026-03-29T16:35:36Z</time></trkpt><trkpt lat="45.35316831761133" lon="8.81438317786189"><ele>113.66666666666666</ele><time>2026-03-29T16:35:37Z</time></trkpt><trkpt lat="45.35325057347131" lon="8.81434512418239"><ele>114.33333333333333</ele><time>2026-03-29T16:35:38Z</time></trkpt><trkpt lat="45.35331883186597" lon="8.814309380166133"><ele>115.0</ele><time>2026-03-29T16:35:39Z</time></trkpt><trkpt lat="45.35340852787897" lon="8.814265398224112"><ele>115.66666666666666</ele><time>2026-03-29T16:35:40Z</time></trkpt><trkpt lat="45.35349839146026" lon="8.81422179213268"><ele>116.33333333333333</ele><time>2026-03-29T16:35:41Z</time></trkpt><trkpt lat="45.353577434191195" lon="8.814187162372146"><ele>117.0</ele><time>2026-03-29T16:35:42Z</time></trkpt><trkpt lat="45.35366710306098" lon="8.814141467872123"><ele>117.0</ele><time>2026-03-29T16:35:43Z</time></trkpt><trkpt lat="45.35375561939137" lon="8.814099275833225"><ele>117.0</ele><time>2026-03-29T16:35:44Z</time></trkpt><trkpt lat="45.35383643879386" lon="8.814062704575287"><ele>117.0</ele><time>2026-03-29T16:35:45Z</time></trkpt><trkpt lat="45.35392912676707" lon="8.814013065628242"><ele>117.0</ele><time>2026-03-29T16:35:46Z</time></trkpt><trkpt lat="45.354012126308184" lon="8.813974820956027"><ele>117.0</ele><time>2026-03-29T16:35:47Z</time></trkpt><trkpt lat="45.354087230731956" lon="8.813934337920877"><ele>117.0</ele><time>2026-03-29T16:35:48Z</time></trkpt><trkpt lat="45.35416999045439" lon="8.813892407625934"><ele>117.0</ele><time>2026-03-29T16:35:49Z</time></trkpt><trkpt lat="45.35425307576574" lon="8.813852136206632"><ele>116.99999999999999</ele><time>2026-03-29T16:35:50Z</time></trkpt><trkpt lat="45.354350453697876" lon="8.813805295262126"><ele>116.99999999999999</ele><time>2026-03-29T16:35:51Z</time></trkpt><trkpt lat="45.354440426069836" lon="8.813761091727773"><ele>117.0</ele><time>2026-03-29T16:35:52Z</time></trkpt><trkpt lat="45.3545402090628" lon="8.813712345335842"><ele>117.0</ele><time>2026-03-29T16:35:53Z</time></trkpt><trkpt lat="45.354625783198415" lon="8.813673498986835"><ele>116.6</ele><time>2026-03-29T16:35:54Z</time></trkpt><trkpt lat="45.35470896407541" lon="8.813632639923165"><ele>116.19999999999999</ele><time>2026-03-29T16:35:55Z</time></trkpt><trkpt lat="45.35479089915704" lon="8.813589237111913"><ele>115.8</ele><time>2026-03-29T16:35:56Z</time></trkpt><trkpt lat="45.354881327704675" lon="8.813539493773511"><ele>115.4</ele><time>2026-03-29T16:35:57Z</time></trkpt><trkpt lat="45.35497328958057" lon="8.813491252001802"><ele>115.0</ele><time>2026-03-29T16:35:58Z</time></trkpt><trkpt lat="45.35505597564466" lon="8.813446607513162"><ele>114.83333333333334</ele><time>2026-03-29T16:35:59Z</time></trkpt><trkpt lat="45.35513672832154" lon="8.813401872531731"><ele>114.66666666666667</ele><time>2026-03-29T16:36:00Z</time></trkpt><trkpt lat="45.35521242976417" lon="8.813363159397696"><ele>114.5</ele><time>2026-03-29T16:36:01Z</time></trkpt><trkpt lat="45.35528885131682" lon="8.813318026151117"><ele>114.33333333333334</ele><time>2026-03-29T16:36:02Z</time></trkpt><trkpt lat="45.35537614769789" lon="8.81326701424061"><ele>114.16666666666667</ele><time>2026-03-29T16:36:03Z</time></trkpt><trkpt lat="45.35546418373442" lon="8.813215587413348"><ele>114.0</ele><time>2026-03-29T16:36:04Z</time></trkpt><trkpt lat="45.35554270844633" lon="8.813176740999376"><ele>114.4</ele><time>2026-03-29T16:36:05Z</time></trkpt><trkpt lat="45.355625222881315" lon="8.813135094294873"><ele>114.80000000000001</ele><time>2026-03-29T16:36:06Z</time></trkpt><trkpt lat="45.35573962577615" lon="8.813075904215001"><ele>115.19999999999999</ele><time>2026-03-29T16:36:07Z</time></trkpt><trkpt lat="45.35585021603922" lon="8.81301461788189"><ele>115.6</ele><time>2026-03-29T16:36:08Z</time></trkpt><trkpt lat="45.35595040078076" lon="8.812957836028797"><ele>116.0</ele><time>2026-03-29T16:36:09Z</time></trkpt><trkpt lat="45.356035246026046" lon="8.812911305603082"><ele>115.99999999999999</ele><time>2026-03-29T16:36:10Z</time></trkpt><trkpt lat="45.35611141543469" lon="8.812868415758917"><ele>116.0</ele><time>2026-03-29T16:36:11Z</time></trkpt><trkpt lat="45.356176402108474" lon="8.812833807301056"><ele>116.0</ele><time>2026-03-29T16:36:12Z</time></trkpt><trkpt lat="45.356240233597845" lon="8.81279458312983"><ele>116.0</ele><time>2026-03-29T16:36:12.999Z</time></trkpt><trkpt lat="45.35634148150445" lon="8.812735592049847"><ele>115.99999999999999</ele><time>2026-03-29T16:36:14.999Z</time></trkpt><trkpt lat="45.35642353489221" lon="8.812686230268918"><ele>116.0</ele><time>2026-03-29T16:36:16.999Z</time></trkpt><trkpt lat="45.35649404351475" lon="8.81263871734468"><ele>115.6</ele><time>2026-03-29T16:36:18.999Z</time></trkpt><trkpt lat="45.35655657532623" lon="8.812601926736857"><ele>115.19999999999999</ele><time>2026-03-29T16:36:20.999Z</time></trkpt><trkpt lat="45.35661626002174" lon="8.81256843918197"><ele>114.80000000000001</ele><time>2026-03-29T16:36:31.999Z</time></trkpt><trkpt lat="45.35673244854059" lon="8.812485340281215"><ele>114.4</ele><time>2026-03-29T16:36:39.999Z</time></trkpt><trkpt lat="45.356815663321676" lon="8.812452637890669"><ele>114.0</ele><time>2026-03-29T16:36:40.999Z</time></trkpt><trkpt lat="45.35690930271054" lon="8.812392588664318"><ele>114.0</ele><time>2026-03-29T16:36:41.999Z</time></trkpt><trkpt lat="45.35699870536791" lon="8.812335495394908"><ele>114.0</ele><time>2026-03-29T16:36:42.999Z</time></trkpt><trkpt lat="45.357058480093315" lon="8.81229804406381"><ele>114.0</ele><time>2026-03-29T16:36:43.999Z</time></trkpt><trkpt lat="45.35714224890836" lon="8.81224555944993"><ele>114.0</ele><time>2026-03-29T16:36:44.999Z</time></trkpt><trkpt lat="45.35722261085157" lon="8.812175236933484"><ele>114.0</ele><time>2026-03-29T16:36:45.999Z</time></trkpt><trkpt lat="45.35730241835264" lon="8.812145552595126"><ele>114.0</ele><time>2026-03-29T16:36:46.999Z</time></trkpt><trkpt lat="45.35737709048759" lon="8.812084270775648"><ele>114.33333333333333</ele><time>2026-03-29T16:36:47.999Z</time></trkpt><trkpt lat="45.357468180897484" lon="8.812073916441097"><ele>114.66666666666666</ele><time>2026-03-29T16:36:48.999Z</time></trkpt><trkpt lat="45.357560793650634" lon="8.812043000193782"><ele>115.0</ele><time>2026-03-29T16:36:49.999Z</time></trkpt><trkpt lat="45.35764577950411" lon="8.81200879639356"><ele>115.33333333333333</ele><time>2026-03-29T16:36:50.999Z</time></trkpt><trkpt lat="45.35772602968755" lon="8.811976498399316"><ele>115.66666666666666</ele><time>2026-03-29T16:36:51.999Z</time></trkpt><trkpt lat="45.35780868812519" lon="8.811922612633335"><ele>116.0</ele><time>2026-03-29T16:36:52.999Z</time></trkpt><trkpt lat="45.35790864719875" lon="8.811914008118796"><ele>116.0</ele><time>2026-03-29T16:36:53.999Z</time></trkpt><trkpt lat="45.35800823856951" lon="8.811882363792783"><ele>116.0</ele><time>2026-03-29T16:36:54.999Z</time></trkpt><trkpt lat="45.35811972166578" lon="8.811833934853869"><ele>116.0</ele><time>2026-03-29T16:36:55.999Z</time></trkpt><trkpt lat="45.35822906791119" lon="8.811753867845164"><ele>116.0</ele><time>2026-03-29T16:36:56.999Z</time></trkpt><trkpt lat="45.35833216370735" lon="8.811697342127468"><ele>116.4</ele><time>2026-03-29T16:36:57.999Z</time></trkpt><trkpt lat="45.35844540910322" lon="8.811647330854864"><ele>116.8</ele><time>2026-03-29T16:36:58.999Z</time></trkpt><trkpt lat="45.358557622141376" lon="8.811597403551161"><ele>117.20000000000002</ele><time>2026-03-29T16:36:59.999Z</time></trkpt><trkpt lat="45.35865170979302" lon="8.811546530965805"><ele>117.60000000000001</ele><time>2026-03-29T16:37:00.999Z</time></trkpt><trkpt lat="45.35874044856061" lon="8.811498422413761"><ele>118.0</ele><time>2026-03-29T16:37:01.999Z</time></trkpt><trkpt lat="45.35883933276663" lon="8.811474443838549"><ele>118.0</ele><time>2026-03-29T16:37:03Z</time></trkpt><trkpt lat="45.358952209202876" lon="8.811424051574273"><ele>118.00000000000001</ele><time>2026-03-29T16:37:04Z</time></trkpt><trkpt lat="45.35906448221671" lon="8.811377705813474"><ele>118.00000000000001</ele><time>2026-03-29T16:37:05Z</time></trkpt><trkpt lat="45.35915536469136" lon="8.811340563072413"><ele>118.0</ele><time>2026-03-29T16:37:06Z</time></trkpt><trkpt lat="45.35925476047345" lon="8.811309541745361"><ele>118.0</ele><time>2026-03-29T16:37:07Z</time></trkpt><trkpt lat="45.35938442494896" lon="8.81126422942441"><ele>118.0</ele><time>2026-03-29T16:37:08Z</time></trkpt><trkpt lat="45.35950235450315" lon="8.811223080514047"><ele>118.00000000000001</ele><time>2026-03-29T16:37:09Z</time></trkpt><trkpt lat="45.35961418325832" lon="8.811184060402198"><ele>118.00000000000001</ele><time>2026-03-29T16:37:10Z</time></trkpt><trkpt lat="45.35971608423143" lon="8.811148504414048"><ele>118.0</ele><time>2026-03-29T16:37:11Z</time></trkpt><trkpt lat="45.359817733860794" lon="8.811111583981436"><ele>118.0</ele><time>2026-03-29T16:37:12Z</time></trkpt><trkpt lat="45.359921919422575" lon="8.811071114356858"><ele>118.0</ele><time>2026-03-29T16:37:13Z</time></trkpt><trkpt lat="45.36001238453562" lon="8.811034980152124"><ele>118.00000000000001</ele><time>2026-03-29T16:37:14Z</time></trkpt><trkpt lat="45.360094334177774" lon="8.811004564679125"><ele>118.00000000000001</ele><time>2026-03-29T16:37:15Z</time></trkpt><trkpt lat="45.360176719841306" lon="8.81098855221041"><ele>118.0</ele><time>2026-03-29T16:37:17Z</time></trkpt><trkpt lat="45.36029935861936" lon="8.811011890187485"><ele>118.0</ele><time>2026-03-29T16:37:25Z</time></trkpt><trkpt lat="45.360374366042834" lon="8.8109417349744"><ele>118.0</ele><time>2026-03-29T16:37:26Z</time></trkpt><trkpt lat="45.36046139376046" lon="8.810859926865664"><ele>118.0</ele><time>2026-03-29T16:37:27Z</time></trkpt><trkpt lat="45.360563990106535" lon="8.810763682715029"><ele>118.0</ele><time>2026-03-29T16:37:28Z</time></trkpt><trkpt lat="45.36066239615516" lon="8.810671370275465"><ele>118.0</ele><time>2026-03-29T16:37:29Z</time></trkpt><trkpt lat="45.36076556143257" lon="8.810574289506794"><ele>118.25</ele><time>2026-03-29T16:37:30Z</time></trkpt><trkpt lat="45.36086939849487" lon="8.810448422951637"><ele>118.5</ele><time>2026-03-29T16:37:31Z</time></trkpt><trkpt lat="45.36098047975623" lon="8.810347620731049"><ele>118.75</ele><time>2026-03-29T16:37:32Z</time></trkpt><trkpt lat="45.361089692269864" lon="8.810253080731805"><ele>119.0</ele><time>2026-03-29T16:37:33Z</time></trkpt><trkpt lat="45.3612047717464" lon="8.810161839534896"><ele>118.75</ele><time>2026-03-29T16:37:34Z</time></trkpt><trkpt lat="45.36132770996994" lon="8.810104101544557"><ele>118.5</ele><time>2026-03-29T16:37:35Z</time></trkpt><trkpt lat="45.3614523597393" lon="8.810027621032248"><ele>118.25</ele><time>2026-03-29T16:37:36Z</time></trkpt><trkpt lat="45.361563971698686" lon="8.809944031641514"><ele>118.0</ele><time>2026-03-29T16:37:37Z</time></trkpt><trkpt lat="45.36168544594405" lon="8.809883395033363"><ele>118.5</ele><time>2026-03-29T16:37:38Z</time></trkpt><trkpt lat="45.36181458548926" lon="8.809812437965693"><ele>119.0</ele><time>2026-03-29T16:37:39Z</time></trkpt><trkpt lat="45.36192858507211" lon="8.809747787986748"><ele>119.5</ele><time>2026-03-29T16:37:40Z</time></trkpt><trkpt lat="45.36204473874325" lon="8.80968720425179"><ele>120.0</ele><time>2026-03-29T16:37:41Z</time></trkpt><trkpt lat="45.362163131844056" lon="8.809626031942999"><ele>120.2</ele><time>2026-03-29T16:37:42Z</time></trkpt><trkpt lat="45.362276386041614" lon="8.809583676649671"><ele>120.4</ele><time>2026-03-29T16:37:43Z</time></trkpt><trkpt lat="45.36237427515949" lon="8.8095142872915"><ele>120.6</ele><time>2026-03-29T16:37:44Z</time></trkpt><trkpt lat="45.36246427290382" lon="8.809454687080033"><ele>120.8</ele><time>2026-03-29T16:37:45Z</time></trkpt><trkpt lat="45.36255545982921" lon="8.809404702610657"><ele>121.0</ele><time>2026-03-29T16:37:46Z</time></trkpt><trkpt lat="45.36265555965506" lon="8.809367297075795"><ele>120.8</ele><time>2026-03-29T16:37:47Z</time></trkpt><trkpt lat="45.362749605631016" lon="8.809312897014415"><ele>120.6</ele><time>2026-03-29T16:37:48Z</time></trkpt><trkpt lat="45.36283099881127" lon="8.80926511435092"><ele>120.4</ele><time>2026-03-29T16:37:49Z</time></trkpt><trkpt lat="45.36290660752743" lon="8.809220727452008"><ele>120.2</ele><time>2026-03-29T16:37:50Z</time></trkpt><trkpt lat="45.3629991846042" lon="8.809146145691097"><ele>120.0</ele><time>2026-03-29T16:37:52Z</time></trkpt><trkpt lat="45.363080941466556" lon="8.809288017376321"><ele>120.33333333333333</ele><time>2026-03-29T16:37:55Z</time></trkpt><trkpt lat="45.36310043548471" lon="8.809412398204037"><ele>120.66666666666666</ele><time>2026-03-29T16:37:56Z</time></trkpt><trkpt lat="45.363122118198696" lon="8.809533964081915"><ele>121.0</ele><time>2026-03-29T16:37:57Z</time></trkpt><trkpt lat="45.363152823124324" lon="8.80963381691124"><ele>121.33333333333333</ele><time>2026-03-29T16:37:58Z</time></trkpt><trkpt lat="45.36317150770124" lon="8.809722467596213"><ele>121.66666666666666</ele><time>2026-03-29T16:37:59Z</time></trkpt><trkpt lat="45.36319250106165" lon="8.80981689478199"><ele>122.0</ele><time>2026-03-29T16:38:00Z</time></trkpt><trkpt lat="45.36321742478909" lon="8.809910742055482"><ele>121.99999999999999</ele><time>2026-03-29T16:38:01Z</time></trkpt><trkpt lat="45.363245584269634" lon="8.810014136140328"><ele>122.0</ele><time>2026-03-29T16:38:02Z</time></trkpt><trkpt lat="45.36327209029602" lon="8.810137135502728"><ele>122.0</ele><time>2026-03-29T16:38:03Z</time></trkpt><trkpt lat="45.36330809852123" lon="8.810246123982465"><ele>122.0</ele><time>2026-03-29T16:38:04Z</time></trkpt><trkpt lat="45.36334255708257" lon="8.81035042218276"><ele>121.99999999999999</ele><time>2026-03-29T16:38:05Z</time></trkpt><trkpt lat="45.3633743428213" lon="8.810449012101136"><ele>122.0</ele><time>2026-03-29T16:38:06Z</time></trkpt><trkpt lat="45.36339991406264" lon="8.810538292666584"><ele>121.6</ele><time>2026-03-29T16:38:07Z</time></trkpt><trkpt lat="45.36342433428904" lon="8.810636164398485"><ele>121.19999999999999</ele><time>2026-03-29T16:38:08Z</time></trkpt><trkpt lat="45.363457752870296" lon="8.810722025448397"><ele>120.8</ele><time>2026-03-29T16:38:09Z</time></trkpt><trkpt lat="45.36350102539516" lon="8.810875128558331"><ele>120.4</ele><time>2026-03-29T16:38:10.999Z</time></trkpt><trkpt lat="45.3635656648823" lon="8.810979339763085"><ele>120.0</ele><time>2026-03-29T16:38:12.999Z</time></trkpt><trkpt lat="45.363664923862196" lon="8.81107199858484"><ele>120.0</ele><time>2026-03-29T16:38:14.999Z</time></trkpt><trkpt lat="45.36367711293265" lon="8.811191700933126"><ele>120.0</ele><time>2026-03-29T16:38:15.999Z</time></trkpt><trkpt lat="45.363709975704744" lon="8.81133496988834"><ele>120.0</ele><time>2026-03-29T16:38:16.999Z</time></trkpt><trkpt lat="45.36376868006105" lon="8.811491278071543"><ele>120.0</ele><time>2026-03-29T16:38:17.999Z</time></trkpt><trkpt lat="45.36380623941134" lon="8.8116401863322"><ele>120.0</ele><time>2026-03-29T16:38:18.999Z</time></trkpt><trkpt lat="45.36384299463099" lon="8.811765919450187"><ele>119.8</ele><time>2026-03-29T16:38:19.999Z</time></trkpt><trkpt lat="45.363885600500055" lon="8.811900088976836"><ele>119.6</ele><time>2026-03-29T16:38:20.999Z</time></trkpt><trkpt lat="45.363899955320434" lon="8.812038735109708"><ele>119.4</ele><time>2026-03-29T16:38:21.999Z</time></trkpt><trkpt lat="45.363929617782" lon="8.812169234570222"><ele>119.2</ele><time>2026-03-29T16:38:22.999Z</time></trkpt><trkpt lat="45.3639619313366" lon="8.8123116216192"><ele>119.0</ele><time>2026-03-29T16:38:23.999Z</time></trkpt><trkpt lat="45.36399454804914" lon="8.812455344448866"><ele>119.0</ele><time>2026-03-29T16:38:24.999Z</time></trkpt><trkpt lat="45.36402663826348" lon="8.812596747302198"><ele>119.0</ele><time>2026-03-29T16:38:25.999Z</time></trkpt><trkpt lat="45.36405753324009" lon="8.812732881218334"><ele>119.0</ele><time>2026-03-29T16:38:26.999Z</time></trkpt><trkpt lat="45.364102603777866" lon="8.812865377751637"><ele>119.0</ele><time>2026-03-29T16:38:27.999Z</time></trkpt><trkpt lat="45.3641345946638" lon="8.813013134925255"><ele>119.0</ele><time>2026-03-29T16:38:28.999Z</time></trkpt><trkpt lat="45.36417380943578" lon="8.813160217414179"><ele>119.0</ele><time>2026-03-29T16:38:29.999Z</time></trkpt><trkpt lat="45.36420655078338" lon="8.813303847137592"><ele>119.0</ele><time>2026-03-29T16:38:30.999Z</time></trkpt><trkpt lat="45.364236162605955" lon="8.813447901491728"><ele>119.0</ele><time>2026-03-29T16:38:31.999Z</time></trkpt><trkpt lat="45.36427003691517" lon="8.813590944811681"><ele>119.0</ele><time>2026-03-29T16:38:32.999Z</time></trkpt><trkpt lat="45.36430954078727" lon="8.813730853632968"><ele>119.0</ele><time>2026-03-29T16:38:33.999Z</time></trkpt><trkpt lat="45.36432990077564" lon="8.813886775870378"><ele>119.25</ele><time>2026-03-29T16:38:34.999Z</time></trkpt><trkpt lat="45.364364005008085" lon="8.814037973079923"><ele>119.5</ele><time>2026-03-29T16:38:35.999Z</time></trkpt><trkpt lat="45.364398459173806" lon="8.814190721082525"><ele>119.75</ele><time>2026-03-29T16:38:36.999Z</time></trkpt><trkpt lat="45.364432686815704" lon="8.814342465124831"><ele>120.0</ele><time>2026-03-29T16:38:37.999Z</time></trkpt><trkpt lat="45.364468722072466" lon="8.814501947737932"><ele>120.0</ele><time>2026-03-29T16:38:38.999Z</time></trkpt><trkpt lat="45.364516063369365" lon="8.814643480945568"><ele>120.0</ele><time>2026-03-29T16:38:39.999Z</time></trkpt><trkpt lat="45.36454639015592" lon="8.81477986593365"><ele>120.0</ele><time>2026-03-29T16:38:40.999Z</time></trkpt><trkpt lat="45.364566203156606" lon="8.814933043973467"><ele>120.0</ele><time>2026-03-29T16:38:41.999Z</time></trkpt><trkpt lat="45.364613120417395" lon="8.815101591949842"><ele>120.0</ele><time>2026-03-29T16:38:42.999Z</time></trkpt><trkpt lat="45.3646511488512" lon="8.815249779156515"><ele>119.6</ele><time>2026-03-29T16:38:43.999Z</time></trkpt><trkpt lat="45.364668791500726" lon="8.815386726392877"><ele>119.2</ele><time>2026-03-29T16:38:44.999Z</time></trkpt><trkpt lat="45.36470679474775" lon="8.815502411175201"><ele>118.80000000000001</ele><time>2026-03-29T16:38:45.999Z</time></trkpt><trkpt lat="45.36473374722144" lon="8.815622641582772"><ele>118.4</ele><time>2026-03-29T16:38:46.999Z</time></trkpt><trkpt lat="45.364768008043015" lon="8.815744227776618"><ele>118.0</ele><time>2026-03-29T16:38:47.999Z</time></trkpt><trkpt lat="45.36480540529895" lon="8.815875883644583"><ele>117.4</ele><time>2026-03-29T16:38:48.999Z</time></trkpt><trkpt lat="45.36483847918777" lon="8.815991469912017"><ele>116.80000000000001</ele><time>2026-03-29T16:38:49.999Z</time></trkpt><trkpt lat="45.36487580234138" lon="8.816119820122603"><ele>116.2</ele><time>2026-03-29T16:38:50.999Z</time></trkpt><trkpt lat="45.364906510482854" lon="8.81627262242473"><ele>115.6</ele><time>2026-03-29T16:38:51.999Z</time></trkpt><trkpt lat="45.36493645156614" lon="8.816427655005414"><ele>115.0</ele><time>2026-03-29T16:38:52.999Z</time></trkpt><trkpt lat="45.364968961950744" lon="8.81656523225141"><ele>115.00000000000001</ele><time>2026-03-29T16:38:53.999Z</time></trkpt><trkpt lat="45.36497990917596" lon="8.816681374562936"><ele>115.0</ele><time>2026-03-29T16:38:54.999Z</time></trkpt><trkpt lat="45.36500866999337" lon="8.81683531757215"><ele>115.0</ele><time>2026-03-29T16:38:56.999Z</time></trkpt><trkpt lat="45.365032247703574" lon="8.816961517877237"><ele>115.0</ele><time>2026-03-29T16:38:58.999Z</time></trkpt><trkpt lat="45.36501734358489" lon="8.817062159746921"><ele>115.00000000000001</ele><time>2026-03-29T16:39:00.999Z</time></trkpt><trkpt lat="45.36494252879928" lon="8.817122515328995"><ele>115.0</ele><time>2026-03-29T16:39:02.999Z</time></trkpt><trkpt lat="45.364837174827386" lon="8.8171625464925"><ele>114.99999999999999</ele><time>2026-03-29T16:39:04.999Z</time></trkpt><trkpt lat="45.36477220535252" lon="8.81719467037361"><ele>115.0</ele><time>2026-03-29T16:39:05.999Z</time></trkpt><trkpt lat="45.36470418244694" lon="8.81722830399163"><ele>114.99999999999999</ele><time>2026-03-29T16:39:06.999Z</time></trkpt><trkpt lat="45.36463387353696" lon="8.817263067935542"><ele>114.99999999999999</ele><time>2026-03-29T16:39:07.999Z</time></trkpt><trkpt lat="45.364557537561055" lon="8.817300811940148"><ele>115.0</ele><time>2026-03-29T16:39:09Z</time></trkpt><trkpt lat="45.364484860722065" lon="8.81733674670416"><ele>114.99999999999999</ele><time>2026-03-29T16:39:10Z</time></trkpt><trkpt lat="45.36441685485626" lon="8.817370702743196"><ele>114.99999999999999</ele><time>2026-03-29T16:39:11Z</time></trkpt><trkpt lat="45.36434254200577" lon="8.817408276650117"><ele>114.85714285714283</ele><time>2026-03-29T16:39:12Z</time></trkpt><trkpt lat="45.364279012075315" lon="8.81744039853096"><ele>114.71428571428571</ele><time>2026-03-29T16:39:13Z</time></trkpt><trkpt lat="45.364208079949805" lon="8.817476263085391"><ele>114.57142857142856</ele><time>2026-03-29T16:39:14Z</time></trkpt><trkpt lat="45.36413568418154" lon="8.817512867683337"><ele>114.42857142857142</ele><time>2026-03-29T16:39:15Z</time></trkpt><trkpt lat="45.36406274228403" lon="8.8175497484161"><ele>114.28571428571428</ele><time>2026-03-29T16:39:16Z</time></trkpt><trkpt lat="45.36399312809418" lon="8.817585696224045"><ele>114.14285714285714</ele><time>2026-03-29T16:39:17Z</time></trkpt><trkpt lat="45.363928748029416" lon="8.817619163484666"><ele>114.0</ele><time>2026-03-29T16:39:18Z</time></trkpt><trkpt lat="45.36385094694674" lon="8.817659607458127"><ele>113.85714285714285</ele><time>2026-03-29T16:39:19Z</time></trkpt><trkpt lat="45.3637829410114" lon="8.817694959580706"><ele>113.7142857142857</ele><time>2026-03-29T16:39:20Z</time></trkpt><trkpt lat="45.36371697185696" lon="8.817729252888022"><ele>113.57142857142857</ele><time>2026-03-29T16:39:21Z</time></trkpt><trkpt lat="45.36364938410018" lon="8.817764387592712"><ele>113.42857142857142</ele><time>2026-03-29T16:39:22Z</time></trkpt><trkpt lat="45.36358517389763" lon="8.817797766543553"><ele>113.28571428571428</ele><time>2026-03-29T16:39:23Z</time></trkpt><trkpt lat="45.3635160210721" lon="8.817833714820337"><ele>113.14285714285714</ele><time>2026-03-29T16:39:24Z</time></trkpt><trkpt lat="45.36345250065939" lon="8.817889050198033"><ele>113.0</ele><time>2026-03-29T16:39:25Z</time></trkpt><trkpt lat="45.3633792609604" lon="8.817922837847336"><ele>112.99999999999999</ele><time>2026-03-29T16:39:26Z</time></trkpt><trkpt lat="45.363303585851774" lon="8.817959497908813"><ele>113.0</ele><time>2026-03-29T16:39:27Z</time></trkpt><trkpt lat="45.36323253385203" lon="8.81799169289699"><ele>113.0</ele><time>2026-03-29T16:39:28Z</time></trkpt><trkpt lat="45.36315185896274" lon="8.818035866594734"><ele>113.0</ele><time>2026-03-29T16:39:29Z</time></trkpt><trkpt lat="45.36308115322905" lon="8.8180733933733"><ele>112.99999999999999</ele><time>2026-03-29T16:39:30Z</time></trkpt><trkpt lat="45.36299987265675" lon="8.818121486880925"><ele>113.0</ele><time>2026-03-29T16:39:31Z</time></trkpt><trkpt lat="45.36292640418554" lon="8.818159198595204"><ele>112.99999999999999</ele><time>2026-03-29T16:39:32Z</time></trkpt><trkpt lat="45.36285988309973" lon="8.818192403057395"><ele>113.0</ele><time>2026-03-29T16:39:33Z</time></trkpt><trkpt lat="45.36279866178612" lon="8.818225067761972"><ele>113.0</ele><time>2026-03-29T16:39:34Z</time></trkpt><trkpt lat="45.3627351557086" lon="8.818255101613829"><ele>113.0</ele><time>2026-03-29T16:39:35Z</time></trkpt><trkpt lat="45.36267499894689" lon="8.818286793949124"><ele>112.99999999999999</ele><time>2026-03-29T16:39:36Z</time></trkpt><trkpt lat="45.3626019099623" lon="8.818330117663704"><ele>113.0</ele><time>2026-03-29T16:39:37Z</time></trkpt><trkpt lat="45.362482201659724" lon="8.81839283449707"><ele>113.0</ele><time>2026-03-29T16:39:39Z</time></trkpt><trkpt lat="45.36242167330738" lon="8.818429765928286"><ele>113.00000000000001</ele><time>2026-03-29T16:39:40Z</time></trkpt><trkpt lat="45.362321696923686" lon="8.81847985853609"><ele>113.00000000000001</ele><time>2026-03-29T16:39:42Z</time></trkpt><trkpt lat="45.36224653420349" lon="8.818505264992945"><ele>113.0</ele><time>2026-03-29T16:39:44Z</time></trkpt><trkpt lat="45.362151748752545" lon="8.81847841675956"><ele>113.0</ele><time>2026-03-29T16:39:46Z</time></trkpt><trkpt lat="45.362041148166234" lon="8.818502795496716"><ele>113.0</ele><time>2026-03-29T16:39:48Z</time></trkpt><trkpt lat="45.361973932065375" lon="8.818550272820417"><ele>113.00000000000001</ele><time>2026-03-29T16:39:49Z</time></trkpt><trkpt lat="45.36189406468887" lon="8.818608565968754"><ele>113.00000000000001</ele><time>2026-03-29T16:39:50Z</time></trkpt><trkpt lat="45.36182804197899" lon="8.818652872998776"><ele>113.0</ele><time>2026-03-29T16:39:51Z</time></trkpt><trkpt lat="45.36170628015901" lon="8.818713659444192"><ele>113.0</ele><time>2026-03-29T16:39:53Z</time></trkpt><trkpt lat="45.36162058741763" lon="8.818752535094855"><ele>113.0</ele><time>2026-03-29T16:39:54Z</time></trkpt><trkpt lat="45.36151903138137" lon="8.818784918575329"><ele>113.00000000000001</ele><time>2026-03-29T16:39:55Z</time></trkpt><trkpt lat="45.361413562581326" lon="8.818792276623043"><ele>113.00000000000001</ele><time>2026-03-29T16:39:56Z</time></trkpt><trkpt lat="45.361316721822234" lon="8.818830518165917"><ele>113.0</ele><time>2026-03-29T16:39:57Z</time></trkpt><trkpt lat="45.36119661097838" lon="8.818857752698992"><ele>113.0</ele><time>2026-03-29T16:39:58Z</time></trkpt><trkpt lat="45.361095681548484" lon="8.818872735344373"><ele>112.99999999999999</ele><time>2026-03-29T16:39:59Z</time></trkpt><trkpt lat="45.36099911202106" lon="8.818881157912756"><ele>113.0</ele><time>2026-03-29T16:40:00Z</time></trkpt><trkpt lat="45.36092484152618" lon="8.818892881436302"><ele>113.0</ele><time>2026-03-29T16:40:01Z</time></trkpt><trkpt lat="45.36084321514967" lon="8.8189079839242"><ele>113.0</ele><time>2026-03-29T16:40:02Z</time></trkpt><trkpt lat="45.36075700130538" lon="8.818922580672938"><ele>112.99999999999999</ele><time>2026-03-29T16:40:03Z</time></trkpt><trkpt lat="45.360665735832235" lon="8.8189445493118"><ele>113.0</ele><time>2026-03-29T16:40:03.999Z</time></trkpt><trkpt lat="45.3605704870147" lon="8.818958939331921"><ele>112.99999999999999</ele><time>2026-03-29T16:40:04.999Z</time></trkpt><trkpt lat="45.36049104387702" lon="8.818973165639509"><ele>113.0</ele><time>2026-03-29T16:40:05.999Z</time></trkpt><trkpt lat="45.360414219302086" lon="8.818994898430756"><ele>113.0</ele><time>2026-03-29T16:40:06.999Z</time></trkpt><trkpt lat="45.36029026618139" lon="8.819037750196847"><ele>113.0</ele><time>2026-03-29T16:40:08.999Z</time></trkpt><trkpt lat="45.36021022330001" lon="8.81906709945955"><ele>112.99999999999999</ele><time>2026-03-29T16:40:09.999Z</time></trkpt><trkpt lat="45.36013446564503" lon="8.819093028973189"><ele>113.0</ele><time>2026-03-29T16:40:10.999Z</time></trkpt><trkpt lat="45.360072124350246" lon="8.819113595268517"><ele>113.0</ele><time>2026-03-29T16:40:11.999Z</time></trkpt><trkpt lat="45.360007278043696" lon="8.819133210701992"><ele>113.0</ele><time>2026-03-29T16:40:12.999Z</time></trkpt><trkpt lat="45.359941646349256" lon="8.819152885162907"><ele>113.0</ele><time>2026-03-29T16:40:13.999Z</time></trkpt><trkpt lat="45.359870211845276" lon="8.819185179364034"><ele>113.0</ele><time>2026-03-29T16:40:14.999Z</time></trkpt><trkpt lat="45.35979397290495" lon="8.819217193874012"><ele>113.0</ele><time>2026-03-29T16:40:15.999Z</time></trkpt><trkpt lat="45.35971921143591" lon="8.819255564518205"><ele>113.0</ele><time>2026-03-29T16:40:16.999Z</time></trkpt><trkpt lat="45.3596513914857" lon="8.819288606927815"><ele>113.0</ele><time>2026-03-29T16:40:17.999Z</time></trkpt><trkpt lat="45.35956932784031" lon="8.81933673737892"><ele>112.66666666666666</ele><time>2026-03-29T16:40:18.999Z</time></trkpt><trkpt lat="45.35950440438031" lon="8.819371551176676"><ele>112.33333333333333</ele><time>2026-03-29T16:40:19.999Z</time></trkpt><trkpt lat="45.35942227399456" lon="8.81943235490081"><ele>112.0</ele><time>2026-03-29T16:40:20.999Z</time></trkpt><trkpt lat="45.35930419702436" lon="8.819510889561217"><ele>111.66666666666666</ele><time>2026-03-29T16:40:22.999Z</time></trkpt><trkpt lat="45.35924603707647" lon="8.819559936808808"><ele>111.33333333333333</ele><time>2026-03-29T16:40:23.999Z</time></trkpt><trkpt lat="45.359171312776795" lon="8.81962294426514"><ele>111.0</ele><time>2026-03-29T16:40:24.999Z</time></trkpt><trkpt lat="45.35910607387747" lon="8.819679004206456"><ele>111.0</ele><time>2026-03-29T16:40:25.999Z</time></trkpt><trkpt lat="45.359037506279606" lon="8.81974653154136"><ele>111.0</ele><time>2026-03-29T16:40:26.999Z</time></trkpt><trkpt lat="45.358983541392995" lon="8.819802846055673"><ele>111.0</ele><time>2026-03-29T16:40:27.999Z</time></trkpt><trkpt lat="45.35889180938248" lon="8.819919686662741"><ele>111.0</ele><time>2026-03-29T16:40:29.999Z</time></trkpt><trkpt lat="45.358844542591704" lon="8.819992987099045"><ele>111.0</ele><time>2026-03-29T16:40:30.999Z</time></trkpt><trkpt lat="45.35880436856877" lon="8.820076369696903"><ele>111.0</ele><time>2026-03-29T16:40:31.999Z</time></trkpt><trkpt lat="45.358769053447006" lon="8.82016952865926"><ele>111.16666666666667</ele><time>2026-03-29T16:40:32.999Z</time></trkpt><trkpt lat="45.35871337605156" lon="8.82027194400668"><ele>111.33333333333334</ele><time>2026-03-29T16:40:33.999Z</time></trkpt><trkpt lat="45.35867239272734" lon="8.820361761246268"><ele>111.5</ele><time>2026-03-29T16:40:34.999Z</time></trkpt><trkpt lat="45.358634651212185" lon="8.820439280317748"><ele>111.66666666666667</ele><time>2026-03-29T16:40:35.999Z</time></trkpt><trkpt lat="45.358579364146614" lon="8.820556905523077"><ele>111.83333333333334</ele><time>2026-03-29T16:40:37.999Z</time></trkpt><trkpt lat="45.35853746573016" lon="8.82063925970501"><ele>112.0</ele><time>2026-03-29T16:40:39.999Z</time></trkpt><trkpt lat="45.358483039106744" lon="8.82070142615846"><ele>112.0</ele><time>2026-03-29T16:40:42.999Z</time></trkpt><trkpt lat="45.35856587392228" lon="8.82082480625995"><ele>111.99999999999999</ele><time>2026-03-29T16:40:44.999Z</time></trkpt><trkpt lat="45.35862031670536" lon="8.820891198966454"><ele>111.99999999999999</ele><time>2026-03-29T16:40:45.999Z</time></trkpt><trkpt lat="45.35868998573137" lon="8.820997368405159"><ele>112.0</ele><time>2026-03-29T16:40:46.999Z</time></trkpt><trkpt lat="45.35877141685036" lon="8.821121373414313"><ele>112.0</ele><time>2026-03-29T16:40:47.999Z</time></trkpt><trkpt lat="45.35886479965182" lon="8.821248424877272"><ele>111.66666666666667</ele><time>2026-03-29T16:40:48.999Z</time></trkpt><trkpt lat="45.35894531746249" lon="8.821365504646037"><ele>111.33333333333334</ele><time>2026-03-29T16:40:49.999Z</time></trkpt><trkpt lat="45.35911138715996" lon="8.82160387079062"><ele>111.0</ele><time>2026-03-29T16:40:51.999Z</time></trkpt><trkpt lat="45.35919289985346" lon="8.82171261292109"><ele>111.0</ele><time>2026-03-29T16:40:52.999Z</time></trkpt><trkpt lat="45.359267457462074" lon="8.821815000962237"><ele>111.0</ele><time>2026-03-29T16:40:53.999Z</time></trkpt><trkpt lat="45.35934139856636" lon="8.82192532388517"><ele>111.0</ele><time>2026-03-29T16:40:54.999Z</time></trkpt><trkpt lat="45.359413748266114" lon="8.82204297046504"><ele>111.0</ele><time>2026-03-29T16:40:55.999Z</time></trkpt><trkpt lat="45.35947252653601" lon="8.822155669772886"><ele>111.0</ele><time>2026-03-29T16:40:56.999Z</time></trkpt><trkpt lat="45.359532601971175" lon="8.822218242298598"><ele>111.0</ele><time>2026-03-29T16:40:57.999Z</time></trkpt><trkpt lat="45.35960630998133" lon="8.82235261339124"><ele>111.0</ele><time>2026-03-29T16:40:59.999Z</time></trkpt><trkpt lat="45.359731263847664" lon="8.822426523607653"><ele>111.0</ele><time>2026-03-29T16:41:01.999Z</time></trkpt><trkpt lat="45.35980768119092" lon="8.822417119958692"><ele>111.0</ele><time>2026-03-29T16:41:02.999Z</time></trkpt><trkpt lat="45.35988598575545" lon="8.822335076036861"><ele>111.0</ele><time>2026-03-29T16:41:03.999Z</time></trkpt><trkpt lat="45.359990104886855" lon="8.82229569153609"><ele>111.0</ele><time>2026-03-29T16:41:04.999Z</time></trkpt><trkpt lat="45.36012217953804" lon="8.822220793381714"><ele>111.0</ele><time>2026-03-29T16:41:05.999Z</time></trkpt><trkpt lat="45.36023557887393" lon="8.822156485799079"><ele>111.0</ele><time>2026-03-29T16:41:06.999Z</time></trkpt><trkpt lat="45.360349198824295" lon="8.822090272564596"><ele>111.0</ele><time>2026-03-29T16:41:07.999Z</time></trkpt><trkpt lat="45.360479435697805" lon="8.822014347450958"><ele>111.0</ele><time>2026-03-29T16:41:08.999Z</time></trkpt><trkpt lat="45.36058983697236" lon="8.821950088953324"><ele>111.0</ele><time>2026-03-29T16:41:09.999Z</time></trkpt><trkpt lat="45.360704641218554" lon="8.82188326772468"><ele>111.0</ele><time>2026-03-29T16:41:10.999Z</time></trkpt><trkpt lat="45.36081812855269" lon="8.821817213008309"><ele>111.0</ele><time>2026-03-29T16:41:11.999Z</time></trkpt><trkpt lat="45.36093718032659" lon="8.82174791953248"><ele>111.0</ele><time>2026-03-29T16:41:12.999Z</time></trkpt><trkpt lat="45.361044610713904" lon="8.821685390223177"><ele>111.0</ele><time>2026-03-29T16:41:13.999Z</time></trkpt><trkpt lat="45.36112612835295" lon="8.821637943299715"><ele>111.0</ele><time>2026-03-29T16:41:15Z</time></trkpt><trkpt lat="45.36119532735936" lon="8.821597666371296"><ele>111.0</ele><time>2026-03-29T16:41:16Z</time></trkpt><trkpt lat="45.3612919652875" lon="8.821541810310947"><ele>111.0</ele><time>2026-03-29T16:41:18Z</time></trkpt><trkpt lat="45.36138313292726" lon="8.82148933789182"><ele>111.19999999999999</ele><time>2026-03-29T16:41:20Z</time></trkpt><trkpt lat="45.36148602537692" lon="8.821430117140158"><ele>111.39999999999999</ele><time>2026-03-29T16:41:22Z</time></trkpt><trkpt lat="45.36157235728003" lon="8.821380427979902"><ele>111.6</ele><time>2026-03-29T16:41:23Z</time></trkpt><trkpt lat="45.36167360564602" lon="8.821322153502226"><ele>111.8</ele><time>2026-03-29T16:41:24Z</time></trkpt><trkpt lat="45.36176244949614" lon="8.821271018559772"><ele>112.0</ele><time>2026-03-29T16:41:25Z</time></trkpt><trkpt lat="45.36183737962212" lon="8.821212612721947"><ele>112.0</ele><time>2026-03-29T16:41:26Z</time></trkpt><trkpt lat="45.361906138439636" lon="8.82117335037247"><ele>111.99999999999999</ele><time>2026-03-29T16:41:27Z</time></trkpt><trkpt lat="45.36201729220433" lon="8.821131744046895"><ele>111.99999999999999</ele><time>2026-03-29T16:41:29Z</time></trkpt><trkpt lat="45.36209002113044" lon="8.821082481536376"><ele>112.0</ele><time>2026-03-29T16:41:32Z</time></trkpt><trkpt lat="45.36214108989298" lon="8.82128497172444"><ele>112.0</ele><time>2026-03-29T16:41:34Z</time></trkpt><trkpt lat="45.362159169691715" lon="8.821383350177044"><ele>112.0</ele><time>2026-03-29T16:41:35Z</time></trkpt><trkpt lat="45.36218123610155" lon="8.82151155521064"><ele>111.99999999999999</ele><time>2026-03-29T16:41:36Z</time></trkpt><trkpt lat="45.362204894866835" lon="8.821655477910152"><ele>111.99999999999999</ele><time>2026-03-29T16:41:37Z</time></trkpt><trkpt lat="45.362226652301395" lon="8.821791988249137"><ele>112.0</ele><time>2026-03-29T16:41:38Z</time></trkpt><trkpt lat="45.362250522211724" lon="8.821941752386309"><ele>112.0</ele><time>2026-03-29T16:41:39Z</time></trkpt><trkpt lat="45.36227745547906" lon="8.822094760741459"><ele>112.0</ele><time>2026-03-29T16:41:40Z</time></trkpt><trkpt lat="45.36231083352427" lon="8.822259565235516"><ele>111.99999999999999</ele><time>2026-03-29T16:41:41Z</time></trkpt><trkpt lat="45.36234199959002" lon="8.822403540145958"><ele>111.99999999999999</ele><time>2026-03-29T16:41:42Z</time></trkpt><trkpt lat="45.3623775879292" lon="8.822567944195864"><ele>112.0</ele><time>2026-03-29T16:41:43Z</time></trkpt><trkpt lat="45.3624046226289" lon="8.822692833803883"><ele>112.0</ele><time>2026-03-29T16:41:44Z</time></trkpt><trkpt lat="45.36243225997565" lon="8.822820507148819"><ele>112.0</ele><time>2026-03-29T16:41:45Z</time></trkpt><trkpt lat="45.362466839803425" lon="8.822982533833004"><ele>112.0</ele><time>2026-03-29T16:41:46Z</time></trkpt><trkpt lat="45.362509775877086" lon="8.823144543305872"><ele>112.0</ele><time>2026-03-29T16:41:47Z</time></trkpt><trkpt lat="45.362553922551676" lon="8.82330349339076"><ele>112.0</ele><time>2026-03-29T16:41:48Z</time></trkpt><trkpt lat="45.362607562043905" lon="8.823440790814534"><ele>112.0</ele><time>2026-03-29T16:41:49Z</time></trkpt><trkpt lat="45.362639800004985" lon="8.823609960642758"><ele>112.0</ele><time>2026-03-29T16:41:50Z</time></trkpt><trkpt lat="45.362689035944086" lon="8.82378478996077"><ele>112.0</ele><time>2026-03-29T16:41:51Z</time></trkpt><trkpt lat="45.36273523361739" lon="8.823948830851126"><ele>112.0</ele><time>2026-03-29T16:41:52Z</time></trkpt><trkpt lat="45.36278196215016" lon="8.824114756738608"><ele>112.0</ele><time>2026-03-29T16:41:53Z</time></trkpt><trkpt lat="45.36282577336956" lon="8.824270323706783"><ele>112.0</ele><time>2026-03-29T16:41:54Z</time></trkpt><trkpt lat="45.36286993332505" lon="8.824427128965555"><ele>112.0</ele><time>2026-03-29T16:41:55Z</time></trkpt><trkpt lat="45.36291686918747" lon="8.82459025674075"><ele>112.0</ele><time>2026-03-29T16:41:56Z</time></trkpt><trkpt lat="45.36296473378532" lon="8.824755656566916"><ele>112.0</ele><time>2026-03-29T16:41:57Z</time></trkpt><trkpt lat="45.363013412121845" lon="8.82492386832955"><ele>112.0</ele><time>2026-03-29T16:41:58Z</time></trkpt><trkpt lat="45.363063196720525" lon="8.825095903478235"><ele>112.0</ele><time>2026-03-29T16:41:59Z</time></trkpt><trkpt lat="45.363112424007916" lon="8.825269787024514"><ele>112.0</ele><time>2026-03-29T16:42:00Z</time></trkpt><trkpt lat="45.363160902065474" lon="8.825443393527788"><ele>112.0</ele><time>2026-03-29T16:42:01Z</time></trkpt><trkpt lat="45.363210521171524" lon="8.82562108610391"><ele>112.0</ele><time>2026-03-29T16:42:02Z</time></trkpt><trkpt lat="45.363274921300864" lon="8.825789132454247"><ele>112.0</ele><time>2026-03-29T16:42:03Z</time></trkpt><trkpt lat="45.36332913069938" lon="8.825963264576366"><ele>112.0</ele><time>2026-03-29T16:42:04Z</time></trkpt><trkpt lat="45.363380886911244" lon="8.826137900745712"><ele>112.0</ele><time>2026-03-29T16:42:05Z</time></trkpt><trkpt lat="45.3634329698939" lon="8.826319957491412"><ele>112.0</ele><time>2026-03-29T16:42:06Z</time></trkpt><trkpt lat="45.36348782832341" lon="8.82648894586788"><ele>112.0</ele><time>2026-03-29T16:42:07Z</time></trkpt><trkpt lat="45.36354062161815" lon="8.826658655454215"><ele>112.0</ele><time>2026-03-29T16:42:08Z</time></trkpt><trkpt lat="45.363589305751624" lon="8.826816469154052"><ele>112.0</ele><time>2026-03-29T16:42:09Z</time></trkpt><trkpt lat="45.3636251838971" lon="8.826997435099507"><ele>112.0</ele><time>2026-03-29T16:42:10Z</time></trkpt><trkpt lat="45.3636749862787" lon="8.827167781072975"><ele>112.0</ele><time>2026-03-29T16:42:11Z</time></trkpt><trkpt lat="45.36372447099803" lon="8.827337040496339"><ele>112.0</ele><time>2026-03-29T16:42:12Z</time></trkpt><trkpt lat="45.36377637557867" lon="8.827514576903189"><ele>112.0</ele><time>2026-03-29T16:42:13Z</time></trkpt><trkpt lat="45.3638283709207" lon="8.827695788052363"><ele>112.0</ele><time>2026-03-29T16:42:14Z</time></trkpt><trkpt lat="45.3638817619942" lon="8.827883114220061"><ele>112.0</ele><time>2026-03-29T16:42:15Z</time></trkpt><trkpt lat="45.36393378081336" lon="8.828065625696647"><ele>112.0</ele><time>2026-03-29T16:42:16Z</time></trkpt><trkpt lat="45.36402440697878" lon="8.828383593637703"><ele>111.75</ele><time>2026-03-29T16:42:17.999Z</time></trkpt><trkpt lat="45.364073592966825" lon="8.828554332654688"><ele>111.5</ele><time>2026-03-29T16:42:18.999Z</time></trkpt><trkpt lat="45.3641225853743" lon="8.828724189633316"><ele>111.25</ele><time>2026-03-29T16:42:19.999Z</time></trkpt><trkpt lat="45.3641779634961" lon="8.82891618602859"><ele>111.0</ele><time>2026-03-29T16:42:20.999Z</time></trkpt><trkpt lat="45.364243820348676" lon="8.829083271929578"><ele>111.0</ele><time>2026-03-29T16:42:21.999Z</time></trkpt><trkpt lat="45.364298759650694" lon="8.82927373683659"><ele>111.0</ele><time>2026-03-29T16:42:22.999Z</time></trkpt><trkpt lat="45.36434207371547" lon="8.829446090461616"><ele>111.0</ele><time>2026-03-29T16:42:23.999Z</time></trkpt><trkpt lat="45.364397429152724" lon="8.829638933601805"><ele>111.0</ele><time>2026-03-29T16:42:24.999Z</time></trkpt><trkpt lat="45.364454781846796" lon="8.82983737122803"><ele>111.0</ele><time>2026-03-29T16:42:25.999Z</time></trkpt><trkpt lat="45.364512905783634" lon="8.830044081796672"><ele>111.0</ele><time>2026-03-29T16:42:26.999Z</time></trkpt><trkpt lat="45.36456658397711" lon="8.830240219710017"><ele>111.0</ele><time>2026-03-29T16:42:27.999Z</time></trkpt><trkpt lat="45.36460373957093" lon="8.830430664881483"><ele>111.0</ele><time>2026-03-29T16:42:28.999Z</time></trkpt><trkpt lat="45.364653616262814" lon="8.8306070572173"><ele>111.0</ele><time>2026-03-29T16:42:29.999Z</time></trkpt><trkpt lat="45.36470589768742" lon="8.830791954104635"><ele>111.0</ele><time>2026-03-29T16:42:30.999Z</time></trkpt><trkpt lat="45.364761797224375" lon="8.8309896466329"><ele>111.0</ele><time>2026-03-29T16:42:31.999Z</time></trkpt><trkpt lat="45.36483448663928" lon="8.831190940080557"><ele>111.0</ele><time>2026-03-29T16:42:32.999Z</time></trkpt><trkpt lat="45.364888275853446" lon="8.831391489405926"><ele>111.0</ele><time>2026-03-29T16:42:33.999Z</time></trkpt><trkpt lat="45.364934903653065" lon="8.831562543366282"><ele>111.0</ele><time>2026-03-29T16:42:34.999Z</time></trkpt><trkpt lat="45.36498238382111" lon="8.831736537238198"><ele>111.0</ele><time>2026-03-29T16:42:35.999Z</time></trkpt><trkpt lat="45.36503603878903" lon="8.831930855235345"><ele>111.0</ele><time>2026-03-29T16:42:36.999Z</time></trkpt><trkpt lat="45.36508295926927" lon="8.832102956061613"><ele>111.0</ele><time>2026-03-29T16:42:37.999Z</time></trkpt><trkpt lat="45.36513485513896" lon="8.832255090791683"><ele>111.0</ele><time>2026-03-29T16:42:38.999Z</time></trkpt><trkpt lat="45.36517176289216" lon="8.832397926598254"><ele>111.0</ele><time>2026-03-29T16:42:39.999Z</time></trkpt><trkpt lat="45.3652038745189" lon="8.832524899062738"><ele>111.0</ele><time>2026-03-29T16:42:40.999Z</time></trkpt><trkpt lat="45.36524018938001" lon="8.83262916722902"><ele>111.0</ele><time>2026-03-29T16:42:41.999Z</time></trkpt><trkpt lat="45.36528213562103" lon="8.832745575570474"><ele>111.0</ele><time>2026-03-29T16:42:43.999Z</time></trkpt><trkpt lat="45.365150118154176" lon="8.832833402744436"><ele>111.0</ele><time>2026-03-29T16:42:50.999Z</time></trkpt><trkpt lat="45.3650708492853" lon="8.832882367988464"><ele>111.0</ele><time>2026-03-29T16:42:51.999Z</time></trkpt><trkpt lat="45.36498472318624" lon="8.832934917489144"><ele>111.0</ele><time>2026-03-29T16:42:52.999Z</time></trkpt><trkpt lat="45.36489206807056" lon="8.832991224091185"><ele>111.0</ele><time>2026-03-29T16:42:53.999Z</time></trkpt><trkpt lat="45.36479279706789" lon="8.833050588306746"><ele>111.0</ele><time>2026-03-29T16:42:54.999Z</time></trkpt><trkpt lat="45.36469930382095" lon="8.833105024285857"><ele>111.0</ele><time>2026-03-29T16:42:55.999Z</time></trkpt><trkpt lat="45.364605132476" lon="8.833177444688808"><ele>111.0</ele><time>2026-03-29T16:42:56.999Z</time></trkpt><trkpt lat="45.364518814465114" lon="8.833226656042282"><ele>111.0</ele><time>2026-03-29T16:42:57.999Z</time></trkpt><trkpt lat="45.364425301111986" lon="8.83327654400314"><ele>111.0</ele><time>2026-03-29T16:42:58.999Z</time></trkpt><trkpt lat="45.364326573056154" lon="8.833328180284976"><ele>110.8</ele><time>2026-03-29T16:42:59.999Z</time></trkpt><trkpt lat="45.364239093730774" lon="8.833376935537526"><ele>110.6</ele><time>2026-03-29T16:43:00.999Z</time></trkpt><trkpt lat="45.36414317111778" lon="8.833409668033662"><ele>110.4</ele><time>2026-03-29T16:43:01.999Z</time></trkpt><trkpt lat="45.36405102601832" lon="8.833458541400786"><ele>110.2</ele><time>2026-03-29T16:43:02.999Z</time></trkpt><trkpt lat="45.36396388104387" lon="8.833513788254074"><ele>110.0</ele><time>2026-03-29T16:43:03.999Z</time></trkpt><trkpt lat="45.363891243901485" lon="8.83358014235564"><ele>110.0</ele><time>2026-03-29T16:43:04.999Z</time></trkpt><trkpt lat="45.363819895357096" lon="8.833676287804174"><ele>110.0</ele><time>2026-03-29T16:43:05.999Z</time></trkpt><trkpt lat="45.363729662141" lon="8.833751989751644"><ele>110.0</ele><time>2026-03-29T16:43:06.999Z</time></trkpt><trkpt lat="45.36362697551693" lon="8.83379662293675"><ele>110.0</ele><time>2026-03-29T16:43:07.999Z</time></trkpt><trkpt lat="45.36351511759003" lon="8.833860533704835"><ele>110.0</ele><time>2026-03-29T16:43:08.999Z</time></trkpt><trkpt lat="45.36340400378705" lon="8.833924939385785"><ele>110.0</ele><time>2026-03-29T16:43:09.999Z</time></trkpt><trkpt lat="45.363280540733605" lon="8.833998460483466"><ele>110.0</ele><time>2026-03-29T16:43:10.999Z</time></trkpt><trkpt lat="45.36316654319778" lon="8.834068297410791"><ele>110.0</ele><time>2026-03-29T16:43:11.999Z</time></trkpt><trkpt lat="45.3630748700982" lon="8.834147239337979"><ele>110.0</ele><time>2026-03-29T16:43:12.999Z</time></trkpt><trkpt lat="45.36297427409153" lon="8.834206185751707"><ele>110.0</ele><time>2026-03-29T16:43:13.999Z</time></trkpt><trkpt lat="45.36287085471374" lon="8.834271721578617"><ele>110.0</ele><time>2026-03-29T16:43:14.999Z</time></trkpt><trkpt lat="45.36275877823876" lon="8.834337980379079"><ele>110.0</ele><time>2026-03-29T16:43:15.999Z</time></trkpt><trkpt lat="45.362651282321636" lon="8.834403494075833"><ele>110.0</ele><time>2026-03-29T16:43:16.999Z</time></trkpt><trkpt lat="45.362549442956464" lon="8.834475527141594"><ele>110.0</ele><time>2026-03-29T16:43:17.999Z</time></trkpt><trkpt lat="45.3624402350266" lon="8.834521139814234"><ele>110.0</ele><time>2026-03-29T16:43:18.999Z</time></trkpt><trkpt lat="45.362332199813466" lon="8.834594274438382"><ele>110.0</ele><time>2026-03-29T16:43:20Z</time></trkpt><trkpt lat="45.36222315753183" lon="8.83466861094579"><ele>110.0</ele><time>2026-03-29T16:43:21Z</time></trkpt><trkpt lat="45.36212126034906" lon="8.834740094156432"><ele>110.2</ele><time>2026-03-29T16:43:22Z</time></trkpt><trkpt lat="45.362025793163525" lon="8.834807282844944"><ele>110.4</ele><time>2026-03-29T16:43:23Z</time></trkpt><trkpt lat="45.361932603502744" lon="8.834873600042668"><ele>110.6</ele><time>2026-03-29T16:43:24Z</time></trkpt><trkpt lat="45.36185317587704" lon="8.834931528557542"><ele>110.8</ele><time>2026-03-29T16:43:25Z</time></trkpt><trkpt lat="45.361766026849644" lon="8.834994268554743"><ele>111.0</ele><time>2026-03-29T16:43:26Z</time></trkpt><trkpt lat="45.36167679754175" lon="8.83505850617573"><ele>111.0</ele><time>2026-03-29T16:43:27Z</time></trkpt><trkpt lat="45.36159318416192" lon="8.835119312622098"><ele>111.0</ele><time>2026-03-29T16:43:28Z</time></trkpt><trkpt lat="45.36152976411215" lon="8.835166163473934"><ele>111.0</ele><time>2026-03-29T16:43:29Z</time></trkpt><trkpt lat="45.36145151852653" lon="8.835223698160146"><ele>111.0</ele><time>2026-03-29T16:43:30Z</time></trkpt><trkpt lat="45.361373259733455" lon="8.835283635039936"><ele>111.0</ele><time>2026-03-29T16:43:31Z</time></trkpt><trkpt lat="45.36126830202911" lon="8.83536465163933"><ele>110.83333333333333</ele><time>2026-03-29T16:43:32Z</time></trkpt><trkpt lat="45.361180239568945" lon="8.835432972943686"><ele>110.66666666666666</ele><time>2026-03-29T16:43:33Z</time></trkpt><trkpt lat="45.36109251261273" lon="8.835501033946114"><ele>110.5</ele><time>2026-03-29T16:43:34Z</time></trkpt><trkpt lat="45.36101604918555" lon="8.83556025739996"><ele>110.33333333333333</ele><time>2026-03-29T16:43:35Z</time></trkpt><trkpt lat="45.36093955521156" lon="8.83561914431849"><ele>110.16666666666666</ele><time>2026-03-29T16:43:36Z</time></trkpt><trkpt lat="45.360880213345375" lon="8.835664827115512"><ele>110.0</ele><time>2026-03-29T16:43:37Z</time></trkpt><trkpt lat="45.360815180138296" lon="8.835714891244637"><ele>110.0</ele><time>2026-03-29T16:43:38Z</time></trkpt><trkpt lat="45.360741112620374" lon="8.835771910205166"><ele>110.0</ele><time>2026-03-29T16:43:39Z</time></trkpt><trkpt lat="45.3606745918197" lon="8.835822573627228"><ele>110.0</ele><time>2026-03-29T16:43:40Z</time></trkpt><trkpt lat="45.360578032829814" lon="8.835895353680543"><ele>110.0</ele><time>2026-03-29T16:43:42Z</time></trkpt><trkpt lat="45.36047808869333" lon="8.835953989522196"><ele>110.0</ele><time>2026-03-29T16:43:44Z</time></trkpt><trkpt lat="45.360396432918954" lon="8.8359599370717"><ele>110.0</ele><time>2026-03-29T16:43:46Z</time></trkpt><trkpt lat="45.36030805688807" lon="8.835842093461471"><ele>110.0</ele><time>2026-03-29T16:43:48Z</time></trkpt><trkpt lat="45.360249959885714" lon="8.835800792418429"><ele>110.0</ele><time>2026-03-29T16:43:49Z</time></trkpt><trkpt lat="45.36012871816948" lon="8.835808432130767"><ele>110.0</ele><time>2026-03-29T16:43:51Z</time></trkpt><trkpt lat="45.36002732109377" lon="8.83587719957041"><ele>110.0</ele><time>2026-03-29T16:43:53Z</time></trkpt><trkpt lat="45.35996236414687" lon="8.83591491648125"><ele>109.99999999999999</ele><time>2026-03-29T16:43:54Z</time></trkpt><trkpt lat="45.35989176870502" lon="8.835957274590287"><ele>110.0</ele><time>2026-03-29T16:43:55Z</time></trkpt><trkpt lat="45.359775231598185" lon="8.836027302451434"><ele>110.0</ele><time>2026-03-29T16:43:57Z</time></trkpt><trkpt lat="45.35969967838666" lon="8.836095291625638"><ele>110.0</ele><time>2026-03-29T16:43:58Z</time></trkpt><trkpt lat="45.359633174430506" lon="8.836108469129686"><ele>109.99999999999999</ele><time>2026-03-29T16:43:59Z</time></trkpt><trkpt lat="45.359566674134065" lon="8.836146755443945"><ele>110.0</ele><time>2026-03-29T16:44:00Z</time></trkpt><trkpt lat="45.35945035911258" lon="8.836224469620577"><ele>109.83333333333333</ele><time>2026-03-29T16:44:01Z</time></trkpt><trkpt lat="45.359358842836116" lon="8.836249671484921"><ele>109.66666666666666</ele><time>2026-03-29T16:44:02Z</time></trkpt><trkpt lat="45.359276819006205" lon="8.836292845607217"><ele>109.5</ele><time>2026-03-29T16:44:03Z</time></trkpt><trkpt lat="45.35919357091711" lon="8.836359906866294"><ele>109.33333333333334</ele><time>2026-03-29T16:44:04Z</time></trkpt><trkpt lat="45.35912905652942" lon="8.836372964137052"><ele>109.16666666666667</ele><time>2026-03-29T16:44:05Z</time></trkpt><trkpt lat="45.35906584660423" lon="8.836407237302328"><ele>109.0</ele><time>2026-03-29T16:44:06Z</time></trkpt><trkpt lat="45.359000324493294" lon="8.83646747837215"><ele>109.0</ele><time>2026-03-29T16:44:07Z</time></trkpt><trkpt lat="45.35890245540043" lon="8.836495707457694"><ele>109.0</ele><time>2026-03-29T16:44:08Z</time></trkpt><trkpt lat="45.358816952390086" lon="8.836541853161421"><ele>109.0</ele><time>2026-03-29T16:44:09Z</time></trkpt><trkpt lat="45.35871598490688" lon="8.836596344997739"><ele>109.0</ele><time>2026-03-29T16:44:10Z</time></trkpt><trkpt lat="45.3586016054606" lon="8.836658075223054"><ele>109.0</ele><time>2026-03-29T16:44:11Z</time></trkpt><trkpt lat="45.358482298918474" lon="8.836722464588822"><ele>109.0</ele><time>2026-03-29T16:44:12Z</time></trkpt><trkpt lat="45.35836011273276" lon="8.836789363496127"><ele>109.0</ele><time>2026-03-29T16:44:13Z</time></trkpt><trkpt lat="45.358237868648814" lon="8.836859714656716"><ele>109.0</ele><time>2026-03-29T16:44:14Z</time></trkpt><trkpt lat="45.358114859221324" lon="8.836949086042614"><ele>109.0</ele><time>2026-03-29T16:44:15Z</time></trkpt><trkpt lat="45.357984028748305" lon="8.837021068930763"><ele>109.25</ele><time>2026-03-29T16:44:16Z</time></trkpt><trkpt lat="45.35785394435786" lon="8.837083836049846"><ele>109.5</ele><time>2026-03-29T16:44:17Z</time></trkpt><trkpt lat="45.35773030414056" lon="8.837150967963"><ele>109.75</ele><time>2026-03-29T16:44:18Z</time></trkpt><trkpt lat="45.35762272858773" lon="8.837210086791421"><ele>110.0</ele><time>2026-03-29T16:44:19Z</time></trkpt><trkpt lat="45.35751040586401" lon="8.837263015935818"><ele>110.0</ele><time>2026-03-29T16:44:20Z</time></trkpt><trkpt lat="45.3573945804889" lon="8.83732522542617"><ele>110.0</ele><time>2026-03-29T16:44:20.999Z</time></trkpt><trkpt lat="45.357279734924546" lon="8.83738393467897"><ele>110.0</ele><time>2026-03-29T16:44:21.999Z</time></trkpt><trkpt lat="45.35718333344513" lon="8.837438848424735"><ele>110.0</ele><time>2026-03-29T16:44:22.999Z</time></trkpt><trkpt lat="45.35709540184924" lon="8.837479888412554"><ele>110.0</ele><time>2026-03-29T16:44:23.999Z</time></trkpt><trkpt lat="45.35701498946525" lon="8.837520541145192"><ele>109.8</ele><time>2026-03-29T16:44:24.999Z</time></trkpt><trkpt lat="45.35693049112226" lon="8.837566451678907"><ele>109.6</ele><time>2026-03-29T16:44:25.999Z</time></trkpt><trkpt lat="45.35686708300332" lon="8.837603275130322"><ele>109.4</ele><time>2026-03-29T16:44:26.999Z</time></trkpt><trkpt lat="45.356745527285504" lon="8.837665508551227"><ele>109.2</ele><time>2026-03-29T16:44:28.999Z</time></trkpt><trkpt lat="45.35668129626828" lon="8.837705428129052"><ele>109.0</ele><time>2026-03-29T16:44:29.999Z</time></trkpt><trkpt lat="45.356573615749724" lon="8.837756994921033"><ele>109.00000000000001</ele><time>2026-03-29T16:44:31.999Z</time></trkpt><trkpt lat="45.35649289674125" lon="8.837837434773565"><ele>109.0</ele><time>2026-03-29T16:44:33.999Z</time></trkpt><trkpt lat="45.35644883761986" lon="8.83795049522722"><ele>109.0</ele><time>2026-03-29T16:44:35.999Z</time></trkpt><trkpt lat="45.35643988395981" lon="8.838041419482837"><ele>109.0</ele><time>2026-03-29T16:44:36.999Z</time></trkpt><trkpt lat="45.356455063729236" lon="8.838149047720934"><ele>109.00000000000001</ele><time>2026-03-29T16:44:37.999Z</time></trkpt><trkpt lat="45.35648957051905" lon="8.838257170080606"><ele>109.0</ele><time>2026-03-29T16:44:38.999Z</time></trkpt><trkpt lat="45.356530232522694" lon="8.838402179333306"><ele>108.66666666666667</ele><time>2026-03-29T16:44:39.999Z</time></trkpt><trkpt lat="45.35655244204245" lon="8.838507712122771"><ele>108.33333333333334</ele><time>2026-03-29T16:44:40.999Z</time></trkpt><trkpt lat="45.3565823518658" lon="8.838626059379072"><ele>108.0</ele><time>2026-03-29T16:44:41.999Z</time></trkpt><trkpt lat="45.35660699476909" lon="8.838729391184556"><ele>107.66666666666666</ele><time>2026-03-29T16:44:42.999Z</time></trkpt><trkpt lat="45.35662574267407" lon="8.838839067355178"><ele>107.33333333333333</ele><time>2026-03-29T16:44:43.999Z</time></trkpt><trkpt lat="45.35663907796548" lon="8.838942833803644"><ele>107.0</ele><time>2026-03-29T16:44:44.999Z</time></trkpt><trkpt lat="45.35664616674612" lon="8.839032059744186"><ele>107.0</ele><time>2026-03-29T16:44:45.999Z</time></trkpt><trkpt lat="45.35664066022459" lon="8.83912367640631"><ele>106.99999999999999</ele><time>2026-03-29T16:44:46.999Z</time></trkpt><trkpt lat="45.356585855720326" lon="8.839286036210531"><ele>106.99999999999999</ele><time>2026-03-29T16:44:48.999Z</time></trkpt><trkpt lat="45.356505325601134" lon="8.839385119242738"><ele>107.0</ele><time>2026-03-29T16:44:50.999Z</time></trkpt><trkpt lat="45.35641083723451" lon="8.83947400437555"><ele>107.0</ele><time>2026-03-29T16:44:52.999Z</time></trkpt><trkpt lat="45.35634780029723" lon="8.839524088320145"><ele>106.83333333333333</ele><time>2026-03-29T16:44:53.999Z</time></trkpt><trkpt lat="45.3562811260809" lon="8.839570859586667"><ele>106.66666666666666</ele><time>2026-03-29T16:44:54.999Z</time></trkpt><trkpt lat="45.35620867284707" lon="8.839610469961363"><ele>106.5</ele><time>2026-03-29T16:44:55.999Z</time></trkpt><trkpt lat="45.35613884339609" lon="8.839646170848503"><ele>106.33333333333334</ele><time>2026-03-29T16:44:56.999Z</time></trkpt><trkpt lat="45.35606809625032" lon="8.83968251718038"><ele>106.16666666666667</ele><time>2026-03-29T16:44:57.999Z</time></trkpt><trkpt lat="45.355977545879135" lon="8.839720157856314"><ele>106.0</ele><time>2026-03-29T16:44:58.999Z</time></trkpt><trkpt lat="45.35590301447629" lon="8.83975966276825"><ele>106.00000000000001</ele><time>2026-03-29T16:44:59.999Z</time></trkpt><trkpt lat="45.355839394416186" lon="8.839795485983027"><ele>106.0</ele><time>2026-03-29T16:45:00.999Z</time></trkpt><trkpt lat="45.355775262890084" lon="8.839824820323349"><ele>106.0</ele><time>2026-03-29T16:45:01.999Z</time></trkpt><trkpt lat="45.35566897966451" lon="8.839878043428872"><ele>106.0</ele><time>2026-03-29T16:45:03.999Z</time></trkpt><trkpt lat="45.3556108445977" lon="8.839916003424477"><ele>106.00000000000001</ele><time>2026-03-29T16:45:04.999Z</time></trkpt><trkpt lat="45.35550507564744" lon="8.83998722710858"><ele>106.0</ele><time>2026-03-29T16:45:06.999Z</time></trkpt><trkpt lat="45.35539947718617" lon="8.840073018906834"><ele>106.33333333333334</ele><time>2026-03-29T16:45:08.999Z</time></trkpt><trkpt lat="45.35534279022116" lon="8.84013090896466"><ele>106.66666666666667</ele><time>2026-03-29T16:45:09.999Z</time></trkpt><trkpt lat="45.35526932112316" lon="8.840174990619257"><ele>107.0</ele><time>2026-03-29T16:45:10.999Z</time></trkpt><trkpt lat="45.355208733861346" lon="8.840240109861446"><ele>107.33333333333334</ele><time>2026-03-29T16:45:11.999Z</time></trkpt><trkpt lat="45.35514028539442" lon="8.840315381166286"><ele>107.66666666666667</ele><time>2026-03-29T16:45:12.999Z</time></trkpt><trkpt lat="45.35508831017895" lon="8.840381169123956"><ele>108.0</ele><time>2026-03-29T16:45:13.999Z</time></trkpt><trkpt lat="45.355025481754836" lon="8.840447890589328"><ele>108.0</ele><time>2026-03-29T16:45:14.999Z</time></trkpt><trkpt lat="45.35495388416067" lon="8.84050044078829"><ele>108.0</ele><time>2026-03-29T16:45:15.999Z</time></trkpt><trkpt lat="45.35488624132295" lon="8.840535145263905"><ele>108.0</ele><time>2026-03-29T16:45:16.999Z</time></trkpt><trkpt lat="45.354806965141975" lon="8.840588508573648"><ele>108.0</ele><time>2026-03-29T16:45:17.999Z</time></trkpt><trkpt lat="45.354729100988486" lon="8.840638215149207"><ele>108.0</ele><time>2026-03-29T16:45:18.999Z</time></trkpt><trkpt lat="45.354654733545" lon="8.840680591959627"><ele>108.0</ele><time>2026-03-29T16:45:19.999Z</time></trkpt><trkpt lat="45.35458481005211" lon="8.840719681295038"><ele>108.16666666666667</ele><time>2026-03-29T16:45:20.999Z</time></trkpt><trkpt lat="45.35450724580483" lon="8.84076443853806"><ele>108.33333333333334</ele><time>2026-03-29T16:45:21.999Z</time></trkpt><trkpt lat="45.35443690929348" lon="8.840804604448962"><ele>108.5</ele><time>2026-03-29T16:45:22.999Z</time></trkpt><trkpt lat="45.35436036672327" lon="8.840850713510783"><ele>108.66666666666667</ele><time>2026-03-29T16:45:23.999Z</time></trkpt><trkpt lat="45.35428252633375" lon="8.840893676474034"><ele>108.83333333333334</ele><time>2026-03-29T16:45:24.999Z</time></trkpt><trkpt lat="45.35420655588316" lon="8.840932613493374"><ele>109.0</ele><time>2026-03-29T16:45:26Z</time></trkpt><trkpt lat="45.354142819180176" lon="8.840966719169264"><ele>109.00000000000001</ele><time>2026-03-29T16:45:27Z</time></trkpt><trkpt lat="45.35406055363786" lon="8.841018126478648"><ele>109.0</ele><time>2026-03-29T16:45:28Z</time></trkpt><trkpt lat="45.35399882708825" lon="8.841059464079207"><ele>109.0</ele><time>2026-03-29T16:45:29Z</time></trkpt><trkpt lat="45.3539298027186" lon="8.841110772513398"><ele>109.0</ele><time>2026-03-29T16:45:30Z</time></trkpt><trkpt lat="45.353858543737545" lon="8.841163588606664"><ele>109.00000000000001</ele><time>2026-03-29T16:45:31Z</time></trkpt><trkpt lat="45.35376732147817" lon="8.841234544282235"><ele>109.0</ele><time>2026-03-29T16:45:32Z</time></trkpt><trkpt lat="45.35369519666427" lon="8.84129239859003"><ele>108.80000000000001</ele><time>2026-03-29T16:45:33Z</time></trkpt><trkpt lat="45.35361040954441" lon="8.841365463673693"><ele>108.60000000000001</ele><time>2026-03-29T16:45:34Z</time></trkpt><trkpt lat="45.353524193964624" lon="8.841432710248105"><ele>108.4</ele><time>2026-03-29T16:45:35Z</time></trkpt><trkpt lat="45.35343143560937" lon="8.8415101495386"><ele>108.2</ele><time>2026-03-29T16:45:36Z</time></trkpt><trkpt lat="45.353339953993604" lon="8.841591034010333"><ele>108.0</ele><time>2026-03-29T16:45:37Z</time></trkpt><trkpt lat="45.35324705041034" lon="8.84167033714476"><ele>108.0</ele><time>2026-03-29T16:45:38Z</time></trkpt><trkpt lat="45.353161500871494" lon="8.841742721922394"><ele>108.00000000000001</ele><time>2026-03-29T16:45:39Z</time></trkpt><trkpt lat="45.35306428023616" lon="8.841825681550251"><ele>108.00000000000001</ele><time>2026-03-29T16:45:40Z</time></trkpt><trkpt lat="45.35297526642948" lon="8.84189997155628"><ele>108.0</ele><time>2026-03-29T16:45:41Z</time></trkpt><trkpt lat="45.3528889926909" lon="8.841973573393576"><ele>108.0</ele><time>2026-03-29T16:45:42Z</time></trkpt><trkpt lat="45.35281401453124" lon="8.842030329905946"><ele>108.16666666666667</ele><time>2026-03-29T16:45:43Z</time></trkpt><trkpt lat="45.352731852443064" lon="8.842097868257786"><ele>108.33333333333334</ele><time>2026-03-29T16:45:44Z</time></trkpt><trkpt lat="45.35264511182033" lon="8.842169667015762"><ele>108.5</ele><time>2026-03-29T16:45:45Z</time></trkpt><trkpt lat="45.35256608261312" lon="8.842240188694202"><ele>108.66666666666667</ele><time>2026-03-29T16:45:46Z</time></trkpt><trkpt lat="45.35249175884231" lon="8.842303131430985"><ele>108.83333333333334</ele><time>2026-03-29T16:45:47Z</time></trkpt><trkpt lat="45.352431924629215" lon="8.842354173803969"><ele>109.0</ele><time>2026-03-29T16:45:48Z</time></trkpt><trkpt lat="45.352371405983746" lon="8.842409120456503"><ele>109.00000000000001</ele><time>2026-03-29T16:45:49Z</time></trkpt><trkpt lat="45.352312627045144" lon="8.842457794400785"><ele>109.0</ele><time>2026-03-29T16:45:50Z</time></trkpt><trkpt lat="45.35223625780063" lon="8.842520074691752"><ele>109.0</ele><time>2026-03-29T16:45:51Z</time></trkpt><trkpt lat="45.35215908856196" lon="8.842577852564563"><ele>109.0</ele><time>2026-03-29T16:45:52Z</time></trkpt><trkpt lat="45.35207071158533" lon="8.842650886992294"><ele>109.00000000000001</ele><time>2026-03-29T16:45:53Z</time></trkpt><trkpt lat="45.351984600625954" lon="8.842723816857367"><ele>109.0</ele><time>2026-03-29T16:45:54Z</time></trkpt><trkpt lat="45.351908584314835" lon="8.84278458907494"><ele>108.83333333333334</ele><time>2026-03-29T16:45:55Z</time></trkpt><trkpt lat="45.35183113592582" lon="8.842846613344001"><ele>108.66666666666667</ele><time>2026-03-29T16:45:56Z</time></trkpt><trkpt lat="45.35174999477312" lon="8.84291229841646"><ele>108.5</ele><time>2026-03-29T16:45:57Z</time></trkpt><trkpt lat="45.35167918501197" lon="8.84296956220644"><ele>108.33333333333334</ele><time>2026-03-29T16:45:58Z</time></trkpt><trkpt lat="45.35161114377911" lon="8.843026707915213"><ele>108.16666666666667</ele><time>2026-03-29T16:45:59Z</time></trkpt><trkpt lat="45.35154553710339" lon="8.84308206826628"><ele>108.0</ele><time>2026-03-29T16:46:00Z</time></trkpt><trkpt lat="45.35148322881454" lon="8.843133110503953"><ele>108.0</ele><time>2026-03-29T16:46:01Z</time></trkpt><trkpt lat="45.35142293217222" lon="8.843181625647857"><ele>108.0</ele><time>2026-03-29T16:46:02Z</time></trkpt><trkpt lat="45.35136227803299" lon="8.843230804248428"><ele>108.0</ele><time>2026-03-29T16:46:03Z</time></trkpt><trkpt lat="45.35129707117747" lon="8.843284943551891"><ele>108.0</ele><time>2026-03-29T16:46:04Z</time></trkpt><trkpt lat="45.35121854362926" lon="8.843354962098694"><ele>108.0</ele><time>2026-03-29T16:46:05Z</time></trkpt><trkpt lat="45.35111570047759" lon="8.843441377069661"><ele>108.0</ele><time>2026-03-29T16:46:06Z</time></trkpt><trkpt lat="45.35099796575696" lon="8.843540215872864"><ele>108.0</ele><time>2026-03-29T16:46:07Z</time></trkpt><trkpt lat="45.350883709943254" lon="8.843638044998874"><ele>108.0</ele><time>2026-03-29T16:46:08Z</time></trkpt><trkpt lat="45.35076029301611" lon="8.843749186194497"><ele>108.0</ele><time>2026-03-29T16:46:09Z</time></trkpt><trkpt lat="45.350631069761185" lon="8.843860508597418"><ele>108.0</ele><time>2026-03-29T16:46:10Z</time></trkpt><trkpt lat="45.35048200378279" lon="8.843985981748943"><ele>108.25</ele><time>2026-03-29T16:46:11Z</time></trkpt><trkpt lat="45.3503413159338" lon="8.844104026453547"><ele>108.5</ele><time>2026-03-29T16:46:12Z</time></trkpt><trkpt lat="45.35023034604064" lon="8.844194527221513"><ele>108.75</ele><time>2026-03-29T16:46:13Z</time></trkpt><trkpt lat="45.35009765222259" lon="8.84430565958521"><ele>109.0</ele><time>2026-03-29T16:46:14Z</time></trkpt><trkpt lat="45.349968404086454" lon="8.844410798881142"><ele>109.0</ele><time>2026-03-29T16:46:15Z</time></trkpt><trkpt lat="45.3498514635056" lon="8.844501326095195"><ele>109.0</ele><time>2026-03-29T16:46:16Z</time></trkpt><trkpt lat="45.34976325227881" lon="8.844573954434487"><ele>109.0</ele><time>2026-03-29T16:46:17Z</time></trkpt><trkpt lat="45.349694533325696" lon="8.8446354613728"><ele>109.0</ele><time>2026-03-29T16:46:18Z</time></trkpt><trkpt lat="45.34961019475053" lon="8.844715253693021"><ele>109.0</ele><time>2026-03-29T16:46:19.999Z</time></trkpt><trkpt lat="45.349654353722784" lon="8.84493463038485"><ele>108.75</ele><time>2026-03-29T16:46:22.999Z</time></trkpt><trkpt lat="45.34971051698463" lon="8.845067214836284"><ele>108.5</ele><time>2026-03-29T16:46:23.999Z</time></trkpt><trkpt lat="45.34976723041314" lon="8.845226806628347"><ele>108.25</ele><time>2026-03-29T16:46:24.999Z</time></trkpt><trkpt lat="45.349816590725226" lon="8.845385113565449"><ele>108.0</ele><time>2026-03-29T16:46:25.999Z</time></trkpt><trkpt lat="45.34987077740492" lon="8.84558168336554"><ele>108.0</ele><time>2026-03-29T16:46:26.999Z</time></trkpt><trkpt lat="45.34992924557452" lon="8.845783605472054"><ele>108.0</ele><time>2026-03-29T16:46:27.999Z</time></trkpt><trkpt lat="45.34998358752117" lon="8.845987206309674"><ele>108.0</ele><time>2026-03-29T16:46:28.999Z</time></trkpt><trkpt lat="45.35004413297326" lon="8.846193053289442"><ele>108.0</ele><time>2026-03-29T16:46:29.999Z</time></trkpt><trkpt lat="45.3500971580189" lon="8.846382658307501"><ele>108.0</ele><time>2026-03-29T16:46:30.999Z</time></trkpt><trkpt lat="45.35014780534002" lon="8.846564559465296"><ele>108.0</ele><time>2026-03-29T16:46:31.999Z</time></trkpt><trkpt lat="45.350202878866085" lon="8.846760122461989"><ele>108.0</ele><time>2026-03-29T16:46:32.999Z</time></trkpt><trkpt lat="45.35025306153787" lon="8.846931717308614"><ele>108.0</ele><time>2026-03-29T16:46:33.999Z</time></trkpt><trkpt lat="45.3502944573101" lon="8.847075416423394"><ele>108.00000000000001</ele><time>2026-03-29T16:46:34.999Z</time></trkpt><trkpt lat="45.350316600136004" lon="8.84717919123041"><ele>108.00000000000001</ele><time>2026-03-29T16:46:35.999Z</time></trkpt><trkpt lat="45.350324651754015" lon="8.847293390071675"><ele>108.0</ele><time>2026-03-29T16:46:36.999Z</time></trkpt><trkpt lat="45.35030094596297" lon="8.847403517686104"><ele>108.0</ele><time>2026-03-29T16:46:37.999Z</time></trkpt><trkpt lat="45.350270731046244" lon="8.847552376977376"><ele>108.2</ele><time>2026-03-29T16:46:38.999Z</time></trkpt><trkpt lat="45.35021472290921" lon="8.847681464612013"><ele>108.4</ele><time>2026-03-29T16:46:39.999Z</time></trkpt><trkpt lat="45.350175093495515" lon="8.847849344178126"><ele>108.60000000000001</ele><time>2026-03-29T16:46:40.999Z</time></trkpt><trkpt lat="45.35013156357281" lon="8.847999191443424"><ele>108.80000000000001</ele><time>2026-03-29T16:46:41.999Z</time></trkpt><trkpt lat="45.35008970963544" lon="8.84810770337515"><ele>109.0</ele><time>2026-03-29T16:46:42.999Z</time></trkpt><trkpt lat="45.35004160855779" lon="8.848186615083401"><ele>109.0</ele><time>2026-03-29T16:46:43.999Z</time></trkpt><trkpt lat="45.34995881090464" lon="8.848215778506935"><ele>109.0</ele><time>2026-03-29T16:46:44.999Z</time></trkpt><trkpt lat="45.34987592209588" lon="8.84828706832518"><ele>109.0</ele><time>2026-03-29T16:46:45.999Z</time></trkpt><trkpt lat="45.349760328295616" lon="8.848340761018443"><ele>109.0</ele><time>2026-03-29T16:46:46.999Z</time></trkpt><trkpt lat="45.34965054762486" lon="8.848403036346"><ele>109.0</ele><time>2026-03-29T16:46:47.999Z</time></trkpt><trkpt lat="45.34955581332006" lon="8.84845590940668"><ele>109.16666666666667</ele><time>2026-03-29T16:46:48.999Z</time></trkpt><trkpt lat="45.34947214505336" lon="8.848503550266102"><ele>109.33333333333334</ele><time>2026-03-29T16:46:49.999Z</time></trkpt><trkpt lat="45.349389555605846" lon="8.848553853598647"><ele>109.5</ele><time>2026-03-29T16:46:50.999Z</time></trkpt><trkpt lat="45.34930587007434" lon="8.848600360029598"><ele>109.66666666666666</ele><time>2026-03-29T16:46:51.999Z</time></trkpt><trkpt lat="45.34922349940515" lon="8.848648409856425"><ele>109.83333333333333</ele><time>2026-03-29T16:46:52.999Z</time></trkpt><trkpt lat="45.34913977550208" lon="8.848696267690377"><ele>110.0</ele><time>2026-03-29T16:46:53.999Z</time></trkpt><trkpt lat="45.34905372667936" lon="8.848740889574257"><ele>110.0</ele><time>2026-03-29T16:46:54.999Z</time></trkpt><trkpt lat="45.34896763340716" lon="8.848789505501085"><ele>110.0</ele><time>2026-03-29T16:46:55.999Z</time></trkpt><trkpt lat="45.34888248570712" lon="8.848841508801899"><ele>110.0</ele><time>2026-03-29T16:46:56.999Z</time></trkpt><trkpt lat="45.348775038244064" lon="8.848908524258476"><ele>110.0</ele><time>2026-03-29T16:46:57.999Z</time></trkpt><trkpt lat="45.34864486167045" lon="8.848988534333577"><ele>110.0</ele><time>2026-03-29T16:46:58.999Z</time></trkpt><trkpt lat="45.34851273894415" lon="8.849063369044416"><ele>110.2</ele><time>2026-03-29T16:46:59.999Z</time></trkpt><trkpt lat="45.348401115948114" lon="8.84912903385816"><ele>110.4</ele><time>2026-03-29T16:47:00.999Z</time></trkpt><trkpt lat="45.348291492462195" lon="8.849192490794637"><ele>110.6</ele><time>2026-03-29T16:47:01.999Z</time></trkpt><trkpt lat="45.3481957154696" lon="8.84925564504221"><ele>110.8</ele><time>2026-03-29T16:47:02.999Z</time></trkpt><trkpt lat="45.348103402651425" lon="8.84931286212688"><ele>111.0</ele><time>2026-03-29T16:47:03.999Z</time></trkpt><trkpt lat="45.34800332161626" lon="8.849360356363835"><ele>110.19999999999999</ele><time>2026-03-29T16:47:04.999Z</time></trkpt><trkpt lat="45.347892158135544" lon="8.84940715453516"><ele>109.39999999999999</ele><time>2026-03-29T16:47:05.999Z</time></trkpt><trkpt lat="45.34778708221442" lon="8.849464183529337"><ele>108.6</ele><time>2026-03-29T16:47:06.999Z</time></trkpt><trkpt lat="45.34769614403141" lon="8.849516039560706"><ele>107.8</ele><time>2026-03-29T16:47:07.999Z</time></trkpt><trkpt lat="45.34761317469203" lon="8.849562422973822"><ele>107.0</ele><time>2026-03-29T16:47:08.999Z</time></trkpt><trkpt lat="45.347539782087956" lon="8.849606074000592"><ele>107.0</ele><time>2026-03-29T16:47:09.999Z</time></trkpt><trkpt lat="45.34744040370166" lon="8.849670285747298"><ele>106.99999999999999</ele><time>2026-03-29T16:47:11.999Z</time></trkpt><trkpt lat="45.347352332724284" lon="8.849713344988247"><ele>106.99999999999999</ele><time>2026-03-29T16:47:13.999Z</time></trkpt><trkpt lat="45.347243555709646" lon="8.849783649078361"><ele>107.0</ele><time>2026-03-29T16:47:15.999Z</time></trkpt><trkpt lat="45.347137605886864" lon="8.849853613915233"><ele>107.0</ele><time>2026-03-29T16:47:16.999Z</time></trkpt><trkpt lat="45.346985873716214" lon="8.84994067724717"><ele>107.33333333333333</ele><time>2026-03-29T16:47:17.999Z</time></trkpt><trkpt lat="45.346818811576014" lon="8.850039936691719"><ele>107.66666666666666</ele><time>2026-03-29T16:47:18.999Z</time></trkpt><trkpt lat="45.34660795831636" lon="8.850168364702094"><ele>108.0</ele><time>2026-03-29T16:47:19.999Z</time></trkpt><trkpt lat="45.34642932831914" lon="8.850275371504432"><ele>108.33333333333334</ele><time>2026-03-29T16:47:20.999Z</time></trkpt><trkpt lat="45.346264996560876" lon="8.85036740348375"><ele>108.66666666666667</ele><time>2026-03-29T16:47:21.999Z</time></trkpt><trkpt lat="45.346109667446925" lon="8.850456330634096"><ele>109.0</ele><time>2026-03-29T16:47:22.999Z</time></trkpt><trkpt lat="45.345961642729776" lon="8.85054680722016"><ele>109.0</ele><time>2026-03-29T16:47:23.999Z</time></trkpt><trkpt lat="45.345804633619416" lon="8.850643883678986"><ele>109.0</ele><time>2026-03-29T16:47:24.999Z</time></trkpt><trkpt lat="45.34564579594201" lon="8.850738555054507"><ele>109.0</ele><time>2026-03-29T16:47:25.999Z</time></trkpt><trkpt lat="45.34548462060165" lon="8.850832639196758"><ele>108.66666666666667</ele><time>2026-03-29T16:47:26.999Z</time></trkpt><trkpt lat="45.34533841199791" lon="8.850918494995875"><ele>108.33333333333334</ele><time>2026-03-29T16:47:27.999Z</time></trkpt><trkpt lat="45.34519928805329" lon="8.851002542662979"><ele>108.0</ele><time>2026-03-29T16:47:28.999Z</time></trkpt><trkpt lat="45.345069071808446" lon="8.851082456310422"><ele>108.0</ele><time>2026-03-29T16:47:29.999Z</time></trkpt><trkpt lat="45.344947027611205" lon="8.851154912128475"><ele>108.0</ele><time>2026-03-29T16:47:30.999Z</time></trkpt><trkpt lat="45.34482880100942" lon="8.851220571997006"><ele>108.0</ele><time>2026-03-29T16:47:32Z</time></trkpt><trkpt lat="45.34472461420624" lon="8.851281333525199"><ele>108.0</ele><time>2026-03-29T16:47:33Z</time></trkpt><trkpt lat="45.344623190063864" lon="8.851344602742163"><ele>107.80000000000001</ele><time>2026-03-29T16:47:34Z</time></trkpt><trkpt lat="45.34452300998348" lon="8.851400675514276"><ele>107.60000000000001</ele><time>2026-03-29T16:47:35Z</time></trkpt><trkpt lat="45.34441572829521" lon="8.851464823743235"><ele>107.39999999999999</ele><time>2026-03-29T16:47:36Z</time></trkpt><trkpt lat="45.344309537691224" lon="8.851529054505482"><ele>107.19999999999999</ele><time>2026-03-29T16:47:37Z</time></trkpt><trkpt lat="45.3442100343293" lon="8.851589024703344"><ele>107.0</ele><time>2026-03-29T16:47:38Z</time></trkpt><trkpt lat="45.3441051126803" lon="8.851658626929407"><ele>107.0</ele><time>2026-03-29T16:47:39Z</time></trkpt><trkpt lat="45.3439900500958" lon="8.851758289947698"><ele>107.0</ele><time>2026-03-29T16:47:40Z</time></trkpt><trkpt lat="45.34386430368524" lon="8.85188959521906"><ele>107.0</ele><time>2026-03-29T16:47:41Z</time></trkpt><trkpt lat="45.343735372041635" lon="8.852012140180598"><ele>107.0</ele><time>2026-03-29T16:47:42Z</time></trkpt><trkpt lat="45.343608699368644" lon="8.852152618349743"><ele>107.25</ele><time>2026-03-29T16:47:43Z</time></trkpt><trkpt lat="45.34349489282055" lon="8.852280087984235"><ele>107.5</ele><time>2026-03-29T16:47:44Z</time></trkpt><trkpt lat="45.343402044196516" lon="8.852415329319559"><ele>107.75</ele><time>2026-03-29T16:47:45Z</time></trkpt><trkpt lat="45.34328563248142" lon="8.852533546965786"><ele>108.0</ele><time>2026-03-29T16:47:46Z</time></trkpt><trkpt lat="45.34314456966565" lon="8.85261511420523"><ele>108.0</ele><time>2026-03-29T16:47:47Z</time></trkpt><trkpt lat="45.34299777189901" lon="8.852686709144105"><ele>108.0</ele><time>2026-03-29T16:47:48Z</time></trkpt><trkpt lat="45.34283032036109" lon="8.85274255984208"><ele>108.0</ele><time>2026-03-29T16:47:49Z</time></trkpt><trkpt lat="45.34265263130794" lon="8.852818665978873"><ele>108.0</ele><time>2026-03-29T16:47:50Z</time></trkpt><trkpt lat="45.34245878926868" lon="8.852905502882145"><ele>108.0</ele><time>2026-03-29T16:47:51Z</time></trkpt><trkpt lat="45.34224233667978" lon="8.853016757646616"><ele>108.0</ele><time>2026-03-29T16:47:52Z</time></trkpt><trkpt lat="45.342000749846136" lon="8.853145213359403"><ele>109.0</ele><time>2026-03-29T16:47:53Z</time></trkpt><trkpt lat="45.34175645935948" lon="8.85327149560172"><ele>110.0</ele><time>2026-03-29T16:47:54Z</time></trkpt><trkpt lat="45.341551578930435" lon="8.853376800159428"><ele>109.66666666666666</ele><time>2026-03-29T16:47:55Z</time></trkpt><trkpt lat="45.341369225038086" lon="8.853475166517594"><ele>109.33333333333334</ele><time>2026-03-29T16:47:56Z</time></trkpt><trkpt lat="45.34120050889936" lon="8.85357124121923"><ele>109.0</ele><time>2026-03-29T16:47:57Z</time></trkpt><trkpt lat="45.341045923466744" lon="8.853657585313325"><ele>109.0</ele><time>2026-03-29T16:47:58Z</time></trkpt><trkpt lat="45.34090047004213" lon="8.853736907125288"><ele>109.0</ele><time>2026-03-29T16:47:59Z</time></trkpt><trkpt lat="45.340770428608074" lon="8.853804375819738"><ele>109.0</ele><time>2026-03-29T16:48:00Z</time></trkpt><trkpt lat="45.340646051098325" lon="8.853869536127975"><ele>109.0</ele><time>2026-03-29T16:48:01Z</time></trkpt><trkpt lat="45.340515431343285" lon="8.853931178688018"><ele>108.75</ele><time>2026-03-29T16:48:02Z</time></trkpt><trkpt lat="45.34037489207459" lon="8.853989584101265"><ele>108.5</ele><time>2026-03-29T16:48:03Z</time></trkpt><trkpt lat="45.34024038402995" lon="8.85402901276405"><ele>108.25</ele><time>2026-03-29T16:48:04Z</time></trkpt><trkpt lat="45.34011419388884" lon="8.85404355199969"><ele>108.0</ele><time>2026-03-29T16:48:05Z</time></trkpt><trkpt lat="45.33998132894027" lon="8.854027406847"><ele>108.0</ele><time>2026-03-29T16:48:06Z</time></trkpt><trkpt lat="45.33983411014917" lon="8.853995093424093"><ele>108.0</ele><time>2026-03-29T16:48:07Z</time></trkpt><trkpt lat="45.33967271282921" lon="8.85396179373729"><ele>108.0</ele><time>2026-03-29T16:48:08Z</time></trkpt><trkpt lat="45.33950263779875" lon="8.85393235429953"><ele>108.33333333333334</ele><time>2026-03-29T16:48:09Z</time></trkpt><trkpt lat="45.33931830324815" lon="8.85390818873226"><ele>108.66666666666667</ele><time>2026-03-29T16:48:10Z</time></trkpt><trkpt lat="45.33915509664812" lon="8.853888718235849"><ele>109.0</ele><time>2026-03-29T16:48:11Z</time></trkpt><trkpt lat="45.33900528354324" lon="8.853878839452973"><ele>109.33333333333334</ele><time>2026-03-29T16:48:12Z</time></trkpt><trkpt lat="45.33884837277949" lon="8.853866302193858"><ele>109.66666666666666</ele><time>2026-03-29T16:48:13Z</time></trkpt><trkpt lat="45.33870060595604" lon="8.853851206708411"><ele>110.0</ele><time>2026-03-29T16:48:14Z</time></trkpt><trkpt lat="45.3385469210359" lon="8.853804290895098"><ele>110.0</ele><time>2026-03-29T16:48:15Z</time></trkpt><trkpt lat="45.338400534396506" lon="8.85380230659527"><ele>110.0</ele><time>2026-03-29T16:48:16Z</time></trkpt><trkpt lat="45.338262561734034" lon="8.853793453577062"><ele>110.0</ele><time>2026-03-29T16:48:17Z</time></trkpt><trkpt lat="45.33812834647173" lon="8.853791689778475"><ele>110.0</ele><time>2026-03-29T16:48:17.999Z</time></trkpt><trkpt lat="45.33800110938631" lon="8.853809155248788"><ele>109.2</ele><time>2026-03-29T16:48:18.999Z</time></trkpt><trkpt lat="45.33788118972202" lon="8.853838750719817"><ele>108.4</ele><time>2026-03-29T16:48:19.999Z</time></trkpt><trkpt lat="45.337779375292556" lon="8.853874023069016"><ele>107.6</ele><time>2026-03-29T16:48:20.999Z</time></trkpt><trkpt lat="45.337688870208694" lon="8.853914970318742"><ele>106.8</ele><time>2026-03-29T16:48:21.999Z</time></trkpt><trkpt lat="45.33759375055962" lon="8.853960913736712"><ele>106.0</ele><time>2026-03-29T16:48:22.999Z</time></trkpt><trkpt lat="45.33748347272355" lon="8.854018554853948"><ele>106.0</ele><time>2026-03-29T16:48:23.999Z</time></trkpt><trkpt lat="45.337356583710914" lon="8.854091316074637"><ele>106.0</ele><time>2026-03-29T16:48:24.999Z</time></trkpt><trkpt lat="45.337218088931664" lon="8.854165279854913"><ele>106.0</ele><time>2026-03-29T16:48:25.999Z</time></trkpt><trkpt lat="45.33707198700343" lon="8.854241776670493"><ele>106.0</ele><time>2026-03-29T16:48:26.999Z</time></trkpt><trkpt lat="45.336933972182216" lon="8.854312778188877"><ele>106.0</ele><time>2026-03-29T16:48:27.999Z</time></trkpt><trkpt lat="45.33680759223305" lon="8.85437111391699"><ele>106.0</ele><time>2026-03-29T16:48:28.999Z</time></trkpt><trkpt lat="45.33669895199314" lon="8.854440313061541"><ele>106.0</ele><time>2026-03-29T16:48:29.999Z</time></trkpt><trkpt lat="45.336593559127685" lon="8.854489975883236"><ele>106.0</ele><time>2026-03-29T16:48:30.999Z</time></trkpt><trkpt lat="45.336476222698344" lon="8.854550031858953"><ele>106.4</ele><time>2026-03-29T16:48:31.999Z</time></trkpt><trkpt lat="45.33635789464902" lon="8.854598808058531"><ele>106.8</ele><time>2026-03-29T16:48:32.999Z</time></trkpt><trkpt lat="45.33625157044387" lon="8.854641345440351"><ele>107.20000000000002</ele><time>2026-03-29T16:48:33.999Z</time></trkpt><trkpt lat="45.33615475054368" lon="8.854683765885293"><ele>107.60000000000001</ele><time>2026-03-29T16:48:34.999Z</time></trkpt><trkpt lat="45.336069919454204" lon="8.854717517365135"><ele>108.0</ele><time>2026-03-29T16:48:35.999Z</time></trkpt><trkpt lat="45.33599457791706" lon="8.85475043332054"><ele>108.0</ele><time>2026-03-29T16:48:36.999Z</time></trkpt><trkpt lat="45.33592552327763" lon="8.85478136439807"><ele>108.00000000000001</ele><time>2026-03-29T16:48:37.999Z</time></trkpt><trkpt lat="45.33585510692516" lon="8.854814438482292"><ele>108.00000000000001</ele><time>2026-03-29T16:48:38.999Z</time></trkpt><trkpt lat="45.33575509965232" lon="8.854854028154778"><ele>108.0</ele><time>2026-03-29T16:48:40.999Z</time></trkpt><trkpt lat="45.33569134084972" lon="8.854866752690297"><ele>108.0</ele><time>2026-03-29T16:48:43.999Z</time></trkpt><trkpt lat="45.33575391454197" lon="8.85507862730164"><ele>107.75</ele><time>2026-03-29T16:48:46.999Z</time></trkpt><trkpt lat="45.33582794182721" lon="8.855189689181842"><ele>107.5</ele><time>2026-03-29T16:48:47.999Z</time></trkpt><trkpt lat="45.33591227094929" lon="8.855289383924791"><ele>107.25</ele><time>2026-03-29T16:48:48.999Z</time></trkpt><trkpt lat="45.33601312197555" lon="8.855403546969997"><ele>107.0</ele><time>2026-03-29T16:48:49.999Z</time></trkpt><trkpt lat="45.33611441880069" lon="8.85551435815571"><ele>107.0</ele><time>2026-03-29T16:48:50.999Z</time></trkpt><trkpt lat="45.33621580113331" lon="8.855624839502507"><ele>107.0</ele><time>2026-03-29T16:48:51.999Z</time></trkpt><trkpt lat="45.336317755545224" lon="8.855735944282717"><ele>107.0</ele><time>2026-03-29T16:48:52.999Z</time></trkpt><trkpt lat="45.336411594842374" lon="8.855838205592416"><ele>107.0</ele><time>2026-03-29T16:48:53.999Z</time></trkpt><trkpt lat="45.33649868444024" lon="8.855929021046967"><ele>106.83333333333333</ele><time>2026-03-29T16:48:54.999Z</time></trkpt><trkpt lat="45.33658087043572" lon="8.856011350969295"><ele>106.66666666666666</ele><time>2026-03-29T16:48:55.999Z</time></trkpt><trkpt lat="45.336657828313065" lon="8.856085859062064"><ele>106.5</ele><time>2026-03-29T16:48:56.999Z</time></trkpt><trkpt lat="45.33672791586639" lon="8.856146566797364"><ele>106.33333333333334</ele><time>2026-03-29T16:48:57.999Z</time></trkpt><trkpt lat="45.336789097299445" lon="8.856192859175556"><ele>106.16666666666667</ele><time>2026-03-29T16:48:58.999Z</time></trkpt><trkpt lat="45.336874817360425" lon="8.85625359785764"><ele>106.0</ele><time>2026-03-29T16:49:00.999Z</time></trkpt><trkpt lat="45.336936343510686" lon="8.856296100960378"><ele>106.00000000000001</ele><time>2026-03-29T16:49:03.999Z</time></trkpt><trkpt lat="45.33689180649276" lon="8.8564103789601"><ele>106.0</ele><time>2026-03-29T16:49:08.999Z</time></trkpt><trkpt lat="45.33677599034644" lon="8.856422844239555"><ele>106.0</ele><time>2026-03-29T16:49:10.999Z</time></trkpt><trkpt lat="45.336692366860746" lon="8.856460541805488"><ele>106.0</ele><time>2026-03-29T16:49:11.999Z</time></trkpt><trkpt lat="45.33661714246741" lon="8.856486913316894"><ele>106.00000000000001</ele><time>2026-03-29T16:49:12.999Z</time></trkpt><trkpt lat="45.3365554095482" lon="8.856511407814358"><ele>106.0</ele><time>2026-03-29T16:49:13.999Z</time></trkpt><trkpt lat="45.33646531900645" lon="8.856560171678137"><ele>106.0</ele><time>2026-03-29T16:49:15.999Z</time></trkpt><trkpt lat="45.33636810693442" lon="8.85658938591941"><ele>106.0</ele><time>2026-03-29T16:49:18.999Z</time></trkpt><trkpt lat="45.33628100097449" lon="8.856596097865983"><ele>106.0</ele><time>2026-03-29T16:49:20.999Z</time></trkpt><trkpt lat="45.336191219137554" lon="8.856626941113147"><ele>106.0</ele><time>2026-03-29T16:49:22.999Z</time></trkpt><trkpt lat="45.33613037812853" lon="8.856692028895214"><ele>106.0</ele><time>2026-03-29T16:49:25.999Z</time></trkpt><trkpt lat="45.336120467327305" lon="8.856830811427164"><ele>106.00000000000001</ele><time>2026-03-29T16:49:27.999Z</time></trkpt><trkpt lat="45.33617903938893" lon="8.856939642249662"><ele>106.0</ele><time>2026-03-29T16:49:28.999Z</time></trkpt><trkpt lat="45.33621324981341" lon="8.857050199828706"><ele>106.0</ele><time>2026-03-29T16:49:29.999Z</time></trkpt><trkpt lat="45.33622414324102" lon="8.857169840359477"><ele>106.0</ele><time>2026-03-29T16:49:30.999Z</time></trkpt><trkpt lat="45.33624558927542" lon="8.85726862156264"><ele>106.00000000000001</ele><time>2026-03-29T16:49:31.999Z</time></trkpt><trkpt lat="45.336272956202954" lon="8.85739467438306"><ele>106.0</ele><time>2026-03-29T16:49:32.999Z</time></trkpt><trkpt lat="45.336309606857554" lon="8.857514845833464"><ele>106.00000000000001</ele><time>2026-03-29T16:49:33.999Z</time></trkpt><trkpt lat="45.33633085323514" lon="8.857622206434698"><ele>106.0</ele><time>2026-03-29T16:49:34.999Z</time></trkpt><trkpt lat="45.33634711658029" lon="8.857754292188947"><ele>106.0</ele><time>2026-03-29T16:49:35.999Z</time></trkpt><trkpt lat="45.33637376397566" lon="8.857856732977764"><ele>106.0</ele><time>2026-03-29T16:49:36.999Z</time></trkpt><trkpt lat="45.33640305138403" lon="8.857966646755003"><ele>106.00000000000001</ele><time>2026-03-29T16:49:38Z</time></trkpt><trkpt lat="45.33641845491853" lon="8.858055093893576"><ele>106.0</ele><time>2026-03-29T16:49:39Z</time></trkpt><trkpt lat="45.33643563985268" lon="8.858192872322936"><ele>106.19999999999999</ele><time>2026-03-29T16:49:41Z</time></trkpt><trkpt lat="45.33646216437874" lon="8.858312552521621"><ele>106.39999999999999</ele><time>2026-03-29T16:49:43Z</time></trkpt><trkpt lat="45.33652931555115" lon="8.858373865194743"><ele>106.6</ele><time>2026-03-29T16:49:45Z</time></trkpt><trkpt lat="45.33663236538247" lon="8.858324991435417"><ele>106.8</ele><time>2026-03-29T16:49:47Z</time></trkpt><trkpt lat="45.33673023229069" lon="8.858278962971932"><ele>107.0</ele><time>2026-03-29T16:49:49Z</time></trkpt><trkpt lat="45.33680420002956" lon="8.858263522457076"><ele>107.00000000000001</ele><time>2026-03-29T16:49:52Z</time></trkpt><trkpt lat="45.33684655717305" lon="8.858370713768545"><ele>107.0</ele><time>2026-03-29T16:49:54Z</time></trkpt><trkpt lat="45.33686303539656" lon="8.85846992485731"><ele>107.0</ele><time>2026-03-29T16:49:55Z</time></trkpt><trkpt lat="45.336878407309676" lon="8.85857409714975"><ele>107.0</ele><time>2026-03-29T16:49:56Z</time></trkpt><trkpt lat="45.336889652326114" lon="8.85867378758385"><ele>107.0</ele><time>2026-03-29T16:49:57Z</time></trkpt><trkpt lat="45.33690070131037" lon="8.858765371982692"><ele>107.00000000000001</ele><time>2026-03-29T16:49:58Z</time></trkpt><trkpt lat="45.336905861770774" lon="8.858865451515879"><ele>107.0</ele><time>2026-03-29T16:49:59Z</time></trkpt><trkpt lat="45.33692066445832" lon="8.8589589196605"><ele>107.0</ele><time>2026-03-29T16:50:00Z</time></trkpt><trkpt lat="45.336938357120694" lon="8.859044967399385"><ele>106.99999999999999</ele><time>2026-03-29T16:50:01Z</time></trkpt><trkpt lat="45.33694906417831" lon="8.859165012900592"><ele>106.99999999999999</ele><time>2026-03-29T16:50:03Z</time></trkpt><trkpt lat="45.336966153598524" lon="8.859276837993095"><ele>107.0</ele><time>2026-03-29T16:50:04.999Z</time></trkpt><trkpt lat="45.336992606580104" lon="8.859464910370885"><ele>107.0</ele><time>2026-03-29T16:50:06.999Z</time></trkpt><trkpt lat="45.337010711028526" lon="8.859593627398445"><ele>107.16666666666666</ele><time>2026-03-29T16:50:07.999Z</time></trkpt><trkpt lat="45.337027471476794" lon="8.85970726300804"><ele>107.33333333333333</ele><time>2026-03-29T16:50:08.999Z</time></trkpt><trkpt lat="45.337042895640735" lon="8.859810251930101"><ele>107.5</ele><time>2026-03-29T16:50:09.999Z</time></trkpt><trkpt lat="45.337057510704604" lon="8.859907838645379"><ele>107.66666666666666</ele><time>2026-03-29T16:50:10.999Z</time></trkpt><trkpt lat="45.33708736870578" lon="8.86000766563765"><ele>107.83333333333333</ele><time>2026-03-29T16:50:11.999Z</time></trkpt><trkpt lat="45.33710271342643" lon="8.860125629887424"><ele>108.0</ele><time>2026-03-29T16:50:13.999Z</time></trkpt><trkpt lat="45.33708792284574" lon="8.860222383121956"><ele>108.0</ele><time>2026-03-29T16:50:16.999Z</time></trkpt><trkpt lat="45.33699516739996" lon="8.860263610971066"><ele>108.00000000000001</ele><time>2026-03-29T16:50:20.999Z</time></trkpt><trkpt lat="45.336871165955074" lon="8.860233302987734"><ele>108.00000000000001</ele><time>2026-03-29T16:50:22.999Z</time></trkpt><trkpt lat="45.3367648503872" lon="8.860211696218544"><ele>108.0</ele><time>2026-03-29T16:50:24.999Z</time></trkpt><trkpt lat="45.3366897797862" lon="8.860209677563265"><ele>108.0</ele><time>2026-03-29T16:50:25.999Z</time></trkpt><trkpt lat="45.33662171648342" lon="8.860201590384914"><ele>108.0</ele><time>2026-03-29T16:50:26.999Z</time></trkpt><trkpt lat="45.33655330120421" lon="8.860192423434356"><ele>108.00000000000001</ele><time>2026-03-29T16:50:27.999Z</time></trkpt><trkpt lat="45.336455699777616" lon="8.860177624745726"><ele>108.00000000000001</ele><time>2026-03-29T16:50:28.999Z</time></trkpt><trkpt lat="45.33633772745301" lon="8.860158661554728"><ele>108.0</ele><time>2026-03-29T16:50:29.999Z</time></trkpt><trkpt lat="45.336223329822026" lon="8.860139058087968"><ele>108.0</ele><time>2026-03-29T16:50:30.999Z</time></trkpt><trkpt lat="45.33612678100773" lon="8.860120276297781"><ele>107.66666666666667</ele><time>2026-03-29T16:50:31.999Z</time></trkpt><trkpt lat="45.33602438456878" lon="8.860103378731969"><ele>107.33333333333334</ele><time>2026-03-29T16:50:32.999Z</time></trkpt><trkpt lat="45.33592888082108" lon="8.860092538283903"><ele>107.0</ele><time>2026-03-29T16:50:33.999Z</time></trkpt><trkpt lat="45.335843533714026" lon="8.860081134002025"><ele>106.66666666666667</ele><time>2026-03-29T16:50:34.999Z</time></trkpt><trkpt lat="45.33576003652994" lon="8.860080244613822"><ele>106.33333333333334</ele><time>2026-03-29T16:50:35.999Z</time></trkpt><trkpt lat="45.335691849675605" lon="8.86007242931438"><ele>106.0</ele><time>2026-03-29T16:50:36.999Z</time></trkpt><trkpt lat="45.335575631976035" lon="8.860048078073643"><ele>105.8</ele><time>2026-03-29T16:50:38.999Z</time></trkpt><trkpt lat="45.33549526584811" lon="8.86005111143822"><ele>105.6</ele><time>2026-03-29T16:50:39.999Z</time></trkpt><trkpt lat="45.335389095723386" lon="8.860075142056521"><ele>105.4</ele><time>2026-03-29T16:50:40.999Z</time></trkpt><trkpt lat="45.335284225455865" lon="8.860095844698286"><ele>105.2</ele><time>2026-03-29T16:50:41.999Z</time></trkpt><trkpt lat="45.335178380892174" lon="8.860122102824898"><ele>105.0</ele><time>2026-03-29T16:50:42.999Z</time></trkpt><trkpt lat="45.33507772937255" lon="8.86014864465698"><ele>105.0</ele><time>2026-03-29T16:50:43.999Z</time></trkpt><trkpt lat="45.33499264038064" lon="8.860172842584165"><ele>105.0</ele><time>2026-03-29T16:50:44.999Z</time></trkpt><trkpt lat="45.33492767842599" lon="8.860192935747676"><ele>105.0</ele><time>2026-03-29T16:50:45.999Z</time></trkpt><trkpt lat="45.33481249458429" lon="8.86023866346595"><ele>105.0</ele><time>2026-03-29T16:50:47.999Z</time></trkpt><trkpt lat="45.3347740731194" lon="8.86033242809807"><ele>105.0</ele><time>2026-03-29T16:50:48.999Z</time></trkpt><trkpt lat="45.33476490032394" lon="8.860562561994964"><ele>105.0</ele><time>2026-03-29T16:50:50.999Z</time></trkpt><trkpt lat="45.33478931653764" lon="8.860718869377514"><ele>105.0</ele><time>2026-03-29T16:50:51.999Z</time></trkpt><trkpt lat="45.334811679165604" lon="8.860893615044963"><ele>105.0</ele><time>2026-03-29T16:50:52.999Z</time></trkpt><trkpt lat="45.33483425141579" lon="8.861083771237242"><ele>105.0</ele><time>2026-03-29T16:50:53.999Z</time></trkpt><trkpt lat="45.334856927319436" lon="8.861279788437782"><ele>104.8</ele><time>2026-03-29T16:50:54.999Z</time></trkpt><trkpt lat="45.33487766469539" lon="8.86144580677645"><ele>104.6</ele><time>2026-03-29T16:50:55.999Z</time></trkpt><trkpt lat="45.33489747920528" lon="8.86159282917674"><ele>104.4</ele><time>2026-03-29T16:50:56.999Z</time></trkpt><trkpt lat="45.33491339948821" lon="8.861734663354214"><ele>104.2</ele><time>2026-03-29T16:50:57.999Z</time></trkpt><trkpt lat="45.334935923953196" lon="8.861898351731915"><ele>104.0</ele><time>2026-03-29T16:50:58.999Z</time></trkpt><trkpt lat="45.334964108776695" lon="8.862071252815314"><ele>104.0</ele><time>2026-03-29T16:50:59.999Z</time></trkpt><trkpt lat="45.33499356792997" lon="8.862258920748767"><ele>104.0</ele><time>2026-03-29T16:51:00.999Z</time></trkpt><trkpt lat="45.33503198890523" lon="8.862452288810733"><ele>104.0</ele><time>2026-03-29T16:51:01.999Z</time></trkpt><trkpt lat="45.33507595132702" lon="8.862648469229793"><ele>104.0</ele><time>2026-03-29T16:51:02.999Z</time></trkpt><trkpt lat="45.335120743980795" lon="8.862845722950182"><ele>104.25</ele><time>2026-03-29T16:51:03.999Z</time></trkpt><trkpt lat="45.33515813664882" lon="8.863025520994174"><ele>104.5</ele><time>2026-03-29T16:51:04.999Z</time></trkpt><trkpt lat="45.33519407453673" lon="8.863192083904336"><ele>104.75</ele><time>2026-03-29T16:51:05.999Z</time></trkpt><trkpt lat="45.335223706598946" lon="8.86335273237879"><ele>105.0</ele><time>2026-03-29T16:51:06.999Z</time></trkpt><trkpt lat="45.33524770947338" lon="8.863483193748582"><ele>105.0</ele><time>2026-03-29T16:51:07.999Z</time></trkpt><trkpt lat="45.33527233087579" lon="8.863589457834937"><ele>105.0</ele><time>2026-03-29T16:51:08.999Z</time></trkpt><trkpt lat="45.33530076592464" lon="8.863673298805388"><ele>105.0</ele><time>2026-03-29T16:51:09.999Z</time></trkpt><trkpt lat="45.33543589843989" lon="8.863767165317139"><ele>105.0</ele><time>2026-03-29T16:51:11.999Z</time></trkpt><trkpt lat="45.33554972308196" lon="8.863808866669851"><ele>105.0</ele><time>2026-03-29T16:51:12.999Z</time></trkpt><trkpt lat="45.33563762178819" lon="8.86384905029912"><ele>104.8</ele><time>2026-03-29T16:51:13.999Z</time></trkpt><trkpt lat="45.335705542725925" lon="8.863890297770743"><ele>104.6</ele><time>2026-03-29T16:51:14.999Z</time></trkpt><trkpt lat="45.335788447662225" lon="8.863996254786999"><ele>104.4</ele><time>2026-03-29T16:51:16.999Z</time></trkpt><trkpt lat="45.33579961068378" lon="8.86410244156066"><ele>104.2</ele><time>2026-03-29T16:51:18.999Z</time></trkpt><trkpt lat="45.33567572295126" lon="8.86417139298045"><ele>104.0</ele><time>2026-03-29T16:51:21.999Z</time></trkpt><trkpt lat="45.33557120175738" lon="8.864162174083827"><ele>104.16666666666666</ele><time>2026-03-29T16:51:23.999Z</time></trkpt><trkpt lat="45.335517539611956" lon="8.86407720899327"><ele>104.33333333333333</ele><time>2026-03-29T16:51:24.999Z</time></trkpt><trkpt lat="45.335443714156966" lon="8.864010143055596"><ele>104.5</ele><time>2026-03-29T16:51:25.999Z</time></trkpt><trkpt lat="45.335367695819116" lon="8.863962244502927"><ele>104.66666666666666</ele><time>2026-03-29T16:51:26.999Z</time></trkpt><trkpt lat="45.335288371569334" lon="8.863936746403128"><ele>104.83333333333333</ele><time>2026-03-29T16:51:27.999Z</time></trkpt><trkpt lat="45.335208365104386" lon="8.863953367868737"><ele>105.0</ele><time>2026-03-29T16:51:28.999Z</time></trkpt><trkpt lat="45.335138198674606" lon="8.864015152743345"><ele>105.0</ele><time>2026-03-29T16:51:29.999Z</time></trkpt><trkpt lat="45.33509147197952" lon="8.864118061551064"><ele>105.0</ele><time>2026-03-29T16:51:30.999Z</time></trkpt><trkpt lat="45.335084575833925" lon="8.864236262208784"><ele>105.0</ele><time>2026-03-29T16:51:31.999Z</time></trkpt><trkpt lat="45.33510481205284" lon="8.864355039518644"><ele>105.0</ele><time>2026-03-29T16:51:32.999Z</time></trkpt><trkpt lat="45.33513586261335" lon="8.864463219616859"><ele>105.0</ele><time>2026-03-29T16:51:33.999Z</time></trkpt><trkpt lat="45.33522278598473" lon="8.864544552863611"><ele>105.0</ele><time>2026-03-29T16:51:34.999Z</time></trkpt><trkpt lat="45.33530050200701" lon="8.864627073036287"><ele>104.75</ele><time>2026-03-29T16:51:35.999Z</time></trkpt><trkpt lat="45.33537337339713" lon="8.864741146946411"><ele>104.5</ele><time>2026-03-29T16:51:36.999Z</time></trkpt><trkpt lat="45.335451394199914" lon="8.864831275684358"><ele>104.25</ele><time>2026-03-29T16:51:37.999Z</time></trkpt><trkpt lat="45.33546117119598" lon="8.86508003997178"><ele>104.0</ele><time>2026-03-29T16:51:38.999Z</time></trkpt><trkpt lat="45.33549974338334" lon="8.865282150269977"><ele>103.66666666666666</ele><time>2026-03-29T16:51:39.999Z</time></trkpt><trkpt lat="45.335544560159256" lon="8.86548562510149"><ele>103.33333333333334</ele><time>2026-03-29T16:51:40.999Z</time></trkpt><trkpt lat="45.33559096626321" lon="8.865689144556104"><ele>103.0</ele><time>2026-03-29T16:51:41.999Z</time></trkpt><trkpt lat="45.33563739808763" lon="8.865904231793822"><ele>103.33333333333334</ele><time>2026-03-29T16:51:42.999Z</time></trkpt><trkpt lat="45.33568198306387" lon="8.866127150469039"><ele>103.66666666666666</ele><time>2026-03-29T16:51:43.999Z</time></trkpt><trkpt lat="45.3357294189649" lon="8.866365228179403"><ele>104.0</ele><time>2026-03-29T16:51:44.999Z</time></trkpt><trkpt lat="45.33577668438251" lon="8.8665919301331"><ele>103.66666666666666</ele><time>2026-03-29T16:51:45.999Z</time></trkpt><trkpt lat="45.335827302111404" lon="8.86682122191583"><ele>103.33333333333334</ele><time>2026-03-29T16:51:46.999Z</time></trkpt><trkpt lat="45.33587550271653" lon="8.867055638892632"><ele>103.0</ele><time>2026-03-29T16:51:47.999Z</time></trkpt><trkpt lat="45.33592182464483" lon="8.867286564115583"><ele>103.0</ele><time>2026-03-29T16:51:48.999Z</time></trkpt><trkpt lat="45.33596775322836" lon="8.867526312583378"><ele>103.0</ele><time>2026-03-29T16:51:49.999Z</time></trkpt><trkpt lat="45.33600861601346" lon="8.867779666355235"><ele>103.0</ele><time>2026-03-29T16:51:50.999Z</time></trkpt><trkpt lat="45.33604672671529" lon="8.868038834799727"><ele>103.66666666666667</ele><time>2026-03-29T16:51:51.999Z</time></trkpt><trkpt lat="45.336076770939925" lon="8.868276684580918"><ele>104.33333333333334</ele><time>2026-03-29T16:51:52.999Z</time></trkpt><trkpt lat="45.3361035889001" lon="8.86849382810125"><ele>105.0</ele><time>2026-03-29T16:51:53.999Z</time></trkpt><trkpt lat="45.336131893850556" lon="8.868712297773909"><ele>105.0</ele><time>2026-03-29T16:51:54.999Z</time></trkpt><trkpt lat="45.33615450273964" lon="8.868908570624939"><ele>105.0</ele><time>2026-03-29T16:51:55.999Z</time></trkpt><trkpt lat="45.336171597003215" lon="8.869129448785177"><ele>105.0</ele><time>2026-03-29T16:51:56.999Z</time></trkpt><trkpt lat="45.33618250409122" lon="8.869364037474751"><ele>104.0</ele><time>2026-03-29T16:51:57.999Z</time></trkpt><trkpt lat="45.33618723415161" lon="8.86960109904619"><ele>103.0</ele><time>2026-03-29T16:51:58.999Z</time></trkpt><trkpt lat="45.3361922616923" lon="8.869857864209449"><ele>102.0</ele><time>2026-03-29T16:51:59.999Z</time></trkpt><trkpt lat="45.33619571460813" lon="8.870103530325652"><ele>101.33333333333334</ele><time>2026-03-29T16:52:00.999Z</time></trkpt><trkpt lat="45.336197065770946" lon="8.870336999790608"><ele>100.66666666666667</ele><time>2026-03-29T16:52:01.999Z</time></trkpt><trkpt lat="45.33619171221086" lon="8.870562720149982"><ele>100.0</ele><time>2026-03-29T16:52:02.999Z</time></trkpt><trkpt lat="45.33618322055824" lon="8.870771142637324"><ele>97.33333333333334</ele><time>2026-03-29T16:52:03.999Z</time></trkpt><trkpt lat="45.33617215562121" lon="8.871001483152899"><ele>94.66666666666667</ele><time>2026-03-29T16:52:04.999Z</time></trkpt><trkpt lat="45.33615359376847" lon="8.871242180978374"><ele>92.0</ele><time>2026-03-29T16:52:05.999Z</time></trkpt><trkpt lat="45.336135092783124" lon="8.871487227538644"><ele>92.0</ele><time>2026-03-29T16:52:06.999Z</time></trkpt><trkpt lat="45.33611807422268" lon="8.871715959066805"><ele>92.0</ele><time>2026-03-29T16:52:07.999Z</time></trkpt><trkpt lat="45.33610090641069" lon="8.87196178686543"><ele>92.0</ele><time>2026-03-29T16:52:08.999Z</time></trkpt><trkpt lat="45.336081534029425" lon="8.872207875054277"><ele>90.66666666666667</ele><time>2026-03-29T16:52:09.999Z</time></trkpt><trkpt lat="45.33606274130904" lon="8.872460519076776"><ele>89.33333333333333</ele><time>2026-03-29T16:52:10.999Z</time></trkpt><trkpt lat="45.33604416565357" lon="8.872714490561645"><ele>88.0</ele><time>2026-03-29T16:52:11.999Z</time></trkpt><trkpt lat="45.3360301956301" lon="8.872960479460957"><ele>87.33333333333333</ele><time>2026-03-29T16:52:12.999Z</time></trkpt><trkpt lat="45.33601394031728" lon="8.873187288222349"><ele>86.66666666666667</ele><time>2026-03-29T16:52:13.999Z</time></trkpt><trkpt lat="45.33599539750095" lon="8.873413589192616"><ele>86.0</ele><time>2026-03-29T16:52:14.999Z</time></trkpt><trkpt lat="45.3359761279609" lon="8.87367506520704"><ele>85.66666666666667</ele><time>2026-03-29T16:52:15.999Z</time></trkpt><trkpt lat="45.33595986397747" lon="8.873923461156958"><ele>85.33333333333333</ele><time>2026-03-29T16:52:16.999Z</time></trkpt><trkpt lat="45.3359447738924" lon="8.874142569828365"><ele>85.0</ele><time>2026-03-29T16:52:17.999Z</time></trkpt><trkpt lat="45.335932833281575" lon="8.874351637069289"><ele>85.25</ele><time>2026-03-29T16:52:18.999Z</time></trkpt><trkpt lat="45.33592237582016" lon="8.874557595059285"><ele>85.5</ele><time>2026-03-29T16:52:19.999Z</time></trkpt><trkpt lat="45.33590728160597" lon="8.87477717881983"><ele>85.75</ele><time>2026-03-29T16:52:20.999Z</time></trkpt><trkpt lat="45.33589856257466" lon="8.874974682206432"><ele>86.0</ele><time>2026-03-29T16:52:21.999Z</time></trkpt><trkpt lat="45.33588008252693" lon="8.875177219600944"><ele>86.0</ele><time>2026-03-29T16:52:22.999Z</time></trkpt><trkpt lat="45.33587111405831" lon="8.875364580163106"><ele>86.0</ele><time>2026-03-29T16:52:23.999Z</time></trkpt><trkpt lat="45.335872403509946" lon="8.875551845457101"><ele>86.0</ele><time>2026-03-29T16:52:24.999Z</time></trkpt><trkpt lat="45.33588833988801" lon="8.875740697580104"><ele>86.0</ele><time>2026-03-29T16:52:25.999Z</time></trkpt><trkpt lat="45.33592068549404" lon="8.875932896552984"><ele>86.0</ele><time>2026-03-29T16:52:26.999Z</time></trkpt><trkpt lat="45.33595536152539" lon="8.876114689875632"><ele>86.0</ele><time>2026-03-29T16:52:27.999Z</time></trkpt><trkpt lat="45.33598711306505" lon="8.876286981545542"><ele>86.0</ele><time>2026-03-29T16:52:28.999Z</time></trkpt><trkpt lat="45.336011430893215" lon="8.876442936843702"><ele>86.0</ele><time>2026-03-29T16:52:29.999Z</time></trkpt><trkpt lat="45.336028910995495" lon="8.876588113043592"><ele>86.00000000000001</ele><time>2026-03-29T16:52:30.999Z</time></trkpt><trkpt lat="45.33603380609746" lon="8.876715089990274"><ele>86.0</ele><time>2026-03-29T16:52:31.999Z</time></trkpt><trkpt lat="45.33602837950085" lon="8.876834884388543"><ele>86.0</ele><time>2026-03-29T16:52:32.999Z</time></trkpt><trkpt lat="45.336017202116615" lon="8.876928701788344"><ele>86.0</ele><time>2026-03-29T16:52:33.999Z</time></trkpt><trkpt lat="45.33600317721826" lon="8.877020335291936"><ele>86.0</ele><time>2026-03-29T16:52:34.999Z</time></trkpt><trkpt lat="45.33597402512371" lon="8.877101422660909"><ele>86.00000000000001</ele><time>2026-03-29T16:52:35.999Z</time></trkpt><trkpt lat="45.33592054761762" lon="8.877172253155136"><ele>86.0</ele><time>2026-03-29T16:52:36.999Z</time></trkpt><trkpt lat="45.33586161328389" lon="8.877250171426141"><ele>86.19999999999999</ele><time>2026-03-29T16:52:37.999Z</time></trkpt><trkpt lat="45.33582397533267" lon="8.8773358026299"><ele>86.39999999999999</ele><time>2026-03-29T16:52:38.999Z</time></trkpt><trkpt lat="45.335803478051204" lon="8.877420746273797"><ele>86.6</ele><time>2026-03-29T16:52:39.999Z</time></trkpt><trkpt lat="45.3357887724487" lon="8.877516321439803"><ele>86.8</ele><time>2026-03-29T16:52:41.999Z</time></trkpt><trkpt lat="45.335865870954024" lon="8.877683153780024"><ele>87.0</ele><time>2026-03-29T16:53:02.999Z</time></trkpt><trkpt lat="45.33596533993454" lon="8.877774376651619"><ele>87.0</ele><time>2026-03-29T16:53:04.999Z</time></trkpt><trkpt lat="45.33603862069003" lon="8.877788003424012"><ele>87.0</ele><time>2026-03-29T16:53:06.999Z</time></trkpt><trkpt lat="45.336137719519634" lon="8.877745777929086"><ele>87.0</ele><time>2026-03-29T16:53:38.999Z</time></trkpt><trkpt lat="45.33619721355558" lon="8.877675878523593"><ele>87.0</ele><time>2026-03-29T16:53:39.999Z</time></trkpt><trkpt lat="45.336246222722764" lon="8.877590524240528"><ele>87.0</ele><time>2026-03-29T16:53:40.999Z</time></trkpt><trkpt lat="45.3362938624144" lon="8.877496154117505"><ele>87.0</ele><time>2026-03-29T16:53:41.999Z</time></trkpt><trkpt lat="45.336346553684315" lon="8.87742426423634"><ele>87.19999999999999</ele><time>2026-03-29T16:53:42.999Z</time></trkpt><trkpt lat="45.336422195476025" lon="8.87735889083831"><ele>87.4</ele><time>2026-03-29T16:53:43.999Z</time></trkpt><trkpt lat="45.3365170182008" lon="8.87731310704477"><ele>87.6</ele><time>2026-03-29T16:53:44.999Z</time></trkpt><trkpt lat="45.33662914881115" lon="8.877274215058916"><ele>87.80000000000001</ele><time>2026-03-29T16:53:45.999Z</time></trkpt><trkpt lat="45.33672812142189" lon="8.877235611298632"><ele>88.0</ele><time>2026-03-29T16:53:46.999Z</time></trkpt><trkpt lat="45.336818523565185" lon="8.877204411351519"><ele>88.0</ele><time>2026-03-29T16:53:47.999Z</time></trkpt><trkpt lat="45.336903716325146" lon="8.877176880149772"><ele>88.0</ele><time>2026-03-29T16:53:48.999Z</time></trkpt><trkpt lat="45.33699772759695" lon="8.877146966418268"><ele>88.0</ele><time>2026-03-29T16:53:49.999Z</time></trkpt><trkpt lat="45.33710137397172" lon="8.877114147703287"><ele>88.0</ele><time>2026-03-29T16:53:50.999Z</time></trkpt><trkpt lat="45.33719559517162" lon="8.877087074522823"><ele>88.0</ele><time>2026-03-29T16:53:51.999Z</time></trkpt><trkpt lat="45.337287350792394" lon="8.877059286345565"><ele>87.80000000000001</ele><time>2026-03-29T16:53:52.999Z</time></trkpt><trkpt lat="45.33738693949294" lon="8.877022946783505"><ele>87.6</ele><time>2026-03-29T16:53:53.999Z</time></trkpt><trkpt lat="45.337490606205904" lon="8.876989505601143"><ele>87.4</ele><time>2026-03-29T16:53:54.999Z</time></trkpt><trkpt lat="45.337587562267466" lon="8.8769690241826"><ele>87.19999999999999</ele><time>2026-03-29T16:53:55.999Z</time></trkpt><trkpt lat="45.33769021415922" lon="8.876948793974613"><ele>87.0</ele><time>2026-03-29T16:53:56.999Z</time></trkpt><trkpt lat="45.337789211697064" lon="8.876939164823135"><ele>87.0</ele><time>2026-03-29T16:53:57.999Z</time></trkpt><trkpt lat="45.337879520488926" lon="8.87694183098098"><ele>87.0</ele><time>2026-03-29T16:53:58.999Z</time></trkpt><trkpt lat="45.33794385379121" lon="8.87695945638703"><ele>87.0</ele><time>2026-03-29T16:53:59.999Z</time></trkpt><trkpt lat="45.33801510437472" lon="8.877048695015972"><ele>87.0</ele><time>2026-03-29T16:54:01.999Z</time></trkpt><trkpt lat="45.33802602906684" lon="8.877223146676396"><ele>87.0</ele><time>2026-03-29T16:54:04.999Z</time></trkpt></trkseg></trk></gpx>